<?xml version="1.0" encoding="UTF-8"?>
<gpx version="1.0" creator="GPSBabel - http://www.gpsbabel.org" xmlns="http://www.topografix.com/GPX/1/0">
  <time>2019-07-28T01:02:18.334Z</time>
  <bounds minlat="35.083053520" minlon="-106.785500540" maxlat="35.974998990" maxlon="-106.484471190"/>
  <trk>
    <name>Valles Caldera Driveabout. PatGarth.2019-07-14 17:32:35</name>
    <trkseg>
      <trkpt lat="35.083581680" lon="-106.656721740">
        <ele>1488.600</ele>
        <time>2019-07-14T19:31:57Z</time>
      </trkpt>
      <trkpt lat="35.083608870" lon="-106.656691690">
        <ele>1488.800</ele>
        <time>2019-07-14T19:31:59Z</time>
      </trkpt>
      <trkpt lat="35.083579400" lon="-106.656717290">
        <ele>1490.600</ele>
        <time>2019-07-14T19:33:23Z</time>
      </trkpt>
      <trkpt lat="35.083522930" lon="-106.656701870">
        <ele>1491.200</ele>
        <time>2019-07-14T19:33:25Z</time>
      </trkpt>
      <trkpt lat="35.083485870" lon="-106.656703470">
        <ele>1491.500</ele>
        <time>2019-07-14T19:33:26Z</time>
      </trkpt>
      <trkpt lat="35.083446280" lon="-106.656703290">
        <ele>1492.400</ele>
        <time>2019-07-14T19:33:27Z</time>
      </trkpt>
      <trkpt lat="35.083405960" lon="-106.656706180">
        <ele>1493.800</ele>
        <time>2019-07-14T19:33:28Z</time>
      </trkpt>
      <trkpt lat="35.083365540" lon="-106.656710710">
        <ele>1493.100</ele>
        <time>2019-07-14T19:33:29Z</time>
      </trkpt>
      <trkpt lat="35.083303400" lon="-106.656723590">
        <ele>1488.900</ele>
        <time>2019-07-14T19:33:31Z</time>
      </trkpt>
      <trkpt lat="35.083263520" lon="-106.656727650">
        <ele>1488.300</ele>
        <time>2019-07-14T19:33:34Z</time>
      </trkpt>
      <trkpt lat="35.083219550" lon="-106.656741240">
        <ele>1485.700</ele>
        <time>2019-07-14T19:33:36Z</time>
      </trkpt>
      <trkpt lat="35.083175170" lon="-106.656670330">
        <ele>1487.600</ele>
        <time>2019-07-14T19:33:38Z</time>
      </trkpt>
      <trkpt lat="35.083165590" lon="-106.656613490">
        <ele>1488.600</ele>
        <time>2019-07-14T19:33:39Z</time>
      </trkpt>
      <trkpt lat="35.083150010" lon="-106.656552250">
        <ele>1490.000</ele>
        <time>2019-07-14T19:33:40Z</time>
      </trkpt>
      <trkpt lat="35.083147590" lon="-106.656486180">
        <ele>1490.100</ele>
        <time>2019-07-14T19:33:41Z</time>
      </trkpt>
      <trkpt lat="35.083138210" lon="-106.656419720">
        <ele>1489.900</ele>
        <time>2019-07-14T19:33:42Z</time>
      </trkpt>
      <trkpt lat="35.083125830" lon="-106.656335700">
        <ele>1490.600</ele>
        <time>2019-07-14T19:33:43Z</time>
      </trkpt>
      <trkpt lat="35.083115520" lon="-106.656256880">
        <ele>1489.800</ele>
        <time>2019-07-14T19:33:44Z</time>
      </trkpt>
      <trkpt lat="35.083106900" lon="-106.656176310">
        <ele>1489.200</ele>
        <time>2019-07-14T19:33:45Z</time>
      </trkpt>
      <trkpt lat="35.083092910" lon="-106.656073320">
        <ele>1488.900</ele>
        <time>2019-07-14T19:33:46Z</time>
      </trkpt>
      <trkpt lat="35.083084350" lon="-106.655987710">
        <ele>1488.300</ele>
        <time>2019-07-14T19:33:47Z</time>
      </trkpt>
      <trkpt lat="35.083069940" lon="-106.655905560">
        <ele>1488.100</ele>
        <time>2019-07-14T19:33:48Z</time>
      </trkpt>
      <trkpt lat="35.083066970" lon="-106.655804180">
        <ele>1488.500</ele>
        <time>2019-07-14T19:33:49Z</time>
      </trkpt>
      <trkpt lat="35.083058070" lon="-106.655760670">
        <ele>1488.400</ele>
        <time>2019-07-14T19:33:50Z</time>
      </trkpt>
      <trkpt lat="35.083054950" lon="-106.655712890">
        <ele>1485.900</ele>
        <time>2019-07-14T19:33:51Z</time>
      </trkpt>
      <trkpt lat="35.083053520" lon="-106.655660610">
        <ele>1485.400</ele>
        <time>2019-07-14T19:33:52Z</time>
      </trkpt>
      <trkpt lat="35.083072170" lon="-106.655589160">
        <ele>1484.200</ele>
        <time>2019-07-14T19:33:53Z</time>
      </trkpt>
      <trkpt lat="35.083095710" lon="-106.655526860">
        <ele>1484.400</ele>
        <time>2019-07-14T19:33:54Z</time>
      </trkpt>
      <trkpt lat="35.083122260" lon="-106.655457740">
        <ele>1484.800</ele>
        <time>2019-07-14T19:33:55Z</time>
      </trkpt>
      <trkpt lat="35.083162150" lon="-106.655434600">
        <ele>1484.700</ele>
        <time>2019-07-14T19:33:56Z</time>
      </trkpt>
      <trkpt lat="35.083271980" lon="-106.655451320">
        <ele>1483.900</ele>
        <time>2019-07-14T19:33:57Z</time>
      </trkpt>
      <trkpt lat="35.083314470" lon="-106.655437600">
        <ele>1484.700</ele>
        <time>2019-07-14T19:33:58Z</time>
      </trkpt>
      <trkpt lat="35.083414800" lon="-106.655444130">
        <ele>1485.200</ele>
        <time>2019-07-14T19:34:00Z</time>
      </trkpt>
      <trkpt lat="35.083519610" lon="-106.655433020">
        <ele>1486.000</ele>
        <time>2019-07-14T19:34:01Z</time>
      </trkpt>
      <trkpt lat="35.083611610" lon="-106.655421940">
        <ele>1486.300</ele>
        <time>2019-07-14T19:34:02Z</time>
      </trkpt>
      <trkpt lat="35.083693230" lon="-106.655409500">
        <ele>1486.800</ele>
        <time>2019-07-14T19:34:03Z</time>
      </trkpt>
      <trkpt lat="35.083763130" lon="-106.655389510">
        <ele>1486.900</ele>
        <time>2019-07-14T19:34:04Z</time>
      </trkpt>
      <trkpt lat="35.083823390" lon="-106.655369610">
        <ele>1487.700</ele>
        <time>2019-07-14T19:34:05Z</time>
      </trkpt>
      <trkpt lat="35.083871330" lon="-106.655372290">
        <ele>1487.900</ele>
        <time>2019-07-14T19:34:06Z</time>
      </trkpt>
      <trkpt lat="35.083916290" lon="-106.655386760">
        <ele>1488.800</ele>
        <time>2019-07-14T19:34:07Z</time>
      </trkpt>
      <trkpt lat="35.083976420" lon="-106.655374230">
        <ele>1488.400</ele>
        <time>2019-07-14T19:34:18Z</time>
      </trkpt>
      <trkpt lat="35.084014880" lon="-106.655362490">
        <ele>1489.000</ele>
        <time>2019-07-14T19:34:19Z</time>
      </trkpt>
      <trkpt lat="35.084074330" lon="-106.655351340">
        <ele>1489.300</ele>
        <time>2019-07-14T19:34:20Z</time>
      </trkpt>
      <trkpt lat="35.084125750" lon="-106.655345350">
        <ele>1487.700</ele>
        <time>2019-07-14T19:34:21Z</time>
      </trkpt>
      <trkpt lat="35.084199820" lon="-106.655327690">
        <ele>1488.900</ele>
        <time>2019-07-14T19:34:22Z</time>
      </trkpt>
      <trkpt lat="35.084261260" lon="-106.655307480">
        <ele>1489.100</ele>
        <time>2019-07-14T19:34:23Z</time>
      </trkpt>
      <trkpt lat="35.084345940" lon="-106.655297110">
        <ele>1488.600</ele>
        <time>2019-07-14T19:34:24Z</time>
      </trkpt>
      <trkpt lat="35.084431640" lon="-106.655277020">
        <ele>1489.700</ele>
        <time>2019-07-14T19:34:25Z</time>
      </trkpt>
      <trkpt lat="35.084511210" lon="-106.655261110">
        <ele>1489.300</ele>
        <time>2019-07-14T19:34:26Z</time>
      </trkpt>
      <trkpt lat="35.084587990" lon="-106.655247170">
        <ele>1490.100</ele>
        <time>2019-07-14T19:34:27Z</time>
      </trkpt>
      <trkpt lat="35.084661170" lon="-106.655228180">
        <ele>1489.300</ele>
        <time>2019-07-14T19:34:28Z</time>
      </trkpt>
      <trkpt lat="35.084738770" lon="-106.655202080">
        <ele>1488.600</ele>
        <time>2019-07-14T19:34:29Z</time>
      </trkpt>
      <trkpt lat="35.084824510" lon="-106.655179450">
        <ele>1489.300</ele>
        <time>2019-07-14T19:34:30Z</time>
      </trkpt>
      <trkpt lat="35.084898940" lon="-106.655157720">
        <ele>1487.600</ele>
        <time>2019-07-14T19:34:31Z</time>
      </trkpt>
      <trkpt lat="35.084967630" lon="-106.655139030">
        <ele>1487.200</ele>
        <time>2019-07-14T19:34:32Z</time>
      </trkpt>
      <trkpt lat="35.085035520" lon="-106.655135870">
        <ele>1489.400</ele>
        <time>2019-07-14T19:34:33Z</time>
      </trkpt>
      <trkpt lat="35.085100800" lon="-106.655123620">
        <ele>1489.600</ele>
        <time>2019-07-14T19:34:34Z</time>
      </trkpt>
      <trkpt lat="35.085181990" lon="-106.655112900">
        <ele>1490.000</ele>
        <time>2019-07-14T19:34:35Z</time>
      </trkpt>
      <trkpt lat="35.085258660" lon="-106.655102240">
        <ele>1490.500</ele>
        <time>2019-07-14T19:34:36Z</time>
      </trkpt>
      <trkpt lat="35.085333870" lon="-106.655089930">
        <ele>1490.500</ele>
        <time>2019-07-14T19:34:37Z</time>
      </trkpt>
      <trkpt lat="35.085417640" lon="-106.655088620">
        <ele>1489.800</ele>
        <time>2019-07-14T19:34:38Z</time>
      </trkpt>
      <trkpt lat="35.085508390" lon="-106.655074130">
        <ele>1490.400</ele>
        <time>2019-07-14T19:34:39Z</time>
      </trkpt>
      <trkpt lat="35.085596150" lon="-106.655062260">
        <ele>1491.100</ele>
        <time>2019-07-14T19:34:40Z</time>
      </trkpt>
      <trkpt lat="35.085666510" lon="-106.655039880">
        <ele>1491.400</ele>
        <time>2019-07-14T19:34:41Z</time>
      </trkpt>
      <trkpt lat="35.085761240" lon="-106.655030530">
        <ele>1491.300</ele>
        <time>2019-07-14T19:34:42Z</time>
      </trkpt>
      <trkpt lat="35.085822210" lon="-106.655011490">
        <ele>1491.500</ele>
        <time>2019-07-14T19:34:43Z</time>
      </trkpt>
      <trkpt lat="35.085879520" lon="-106.655016020">
        <ele>1491.100</ele>
        <time>2019-07-14T19:34:44Z</time>
      </trkpt>
      <trkpt lat="35.085910430" lon="-106.654989520">
        <ele>1490.400</ele>
        <time>2019-07-14T19:34:45Z</time>
      </trkpt>
      <trkpt lat="35.085969470" lon="-106.654988890">
        <ele>1490.000</ele>
        <time>2019-07-14T19:34:52Z</time>
      </trkpt>
      <trkpt lat="35.086040970" lon="-106.654975560">
        <ele>1491.400</ele>
        <time>2019-07-14T19:34:54Z</time>
      </trkpt>
      <trkpt lat="35.086077710" lon="-106.654958380">
        <ele>1490.800</ele>
        <time>2019-07-14T19:34:55Z</time>
      </trkpt>
      <trkpt lat="35.086125020" lon="-106.654953520">
        <ele>1489.300</ele>
        <time>2019-07-14T19:34:56Z</time>
      </trkpt>
      <trkpt lat="35.086190830" lon="-106.654945800">
        <ele>1489.400</ele>
        <time>2019-07-14T19:34:57Z</time>
      </trkpt>
      <trkpt lat="35.086262540" lon="-106.654930750">
        <ele>1489.400</ele>
        <time>2019-07-14T19:34:58Z</time>
      </trkpt>
      <trkpt lat="35.086346990" lon="-106.654912900">
        <ele>1489.300</ele>
        <time>2019-07-14T19:34:59Z</time>
      </trkpt>
      <trkpt lat="35.086434730" lon="-106.654894980">
        <ele>1489.200</ele>
        <time>2019-07-14T19:35:00Z</time>
      </trkpt>
      <trkpt lat="35.086529280" lon="-106.654888720">
        <ele>1488.900</ele>
        <time>2019-07-14T19:35:01Z</time>
      </trkpt>
      <trkpt lat="35.086627400" lon="-106.654868790">
        <ele>1488.700</ele>
        <time>2019-07-14T19:35:02Z</time>
      </trkpt>
      <trkpt lat="35.086729040" lon="-106.654845560">
        <ele>1488.800</ele>
        <time>2019-07-14T19:35:03Z</time>
      </trkpt>
      <trkpt lat="35.086829430" lon="-106.654820480">
        <ele>1489.700</ele>
        <time>2019-07-14T19:35:04Z</time>
      </trkpt>
      <trkpt lat="35.086924850" lon="-106.654797420">
        <ele>1490.600</ele>
        <time>2019-07-14T19:35:05Z</time>
      </trkpt>
      <trkpt lat="35.087018660" lon="-106.654778920">
        <ele>1491.100</ele>
        <time>2019-07-14T19:35:06Z</time>
      </trkpt>
      <trkpt lat="35.087105030" lon="-106.654757160">
        <ele>1490.500</ele>
        <time>2019-07-14T19:35:07Z</time>
      </trkpt>
      <trkpt lat="35.087185080" lon="-106.654745350">
        <ele>1490.100</ele>
        <time>2019-07-14T19:35:08Z</time>
      </trkpt>
      <trkpt lat="35.087244890" lon="-106.654740150">
        <ele>1489.600</ele>
        <time>2019-07-14T19:35:09Z</time>
      </trkpt>
      <trkpt lat="35.087289470" lon="-106.654724120">
        <ele>1490.000</ele>
        <time>2019-07-14T19:35:10Z</time>
      </trkpt>
      <trkpt lat="35.087353950" lon="-106.654710680">
        <ele>1491.600</ele>
        <time>2019-07-14T19:35:12Z</time>
      </trkpt>
      <trkpt lat="35.087391860" lon="-106.654649790">
        <ele>1491.000</ele>
        <time>2019-07-14T19:35:15Z</time>
      </trkpt>
      <trkpt lat="35.087375010" lon="-106.654599790">
        <ele>1491.300</ele>
        <time>2019-07-14T19:35:16Z</time>
      </trkpt>
      <trkpt lat="35.087365780" lon="-106.654538130">
        <ele>1490.400</ele>
        <time>2019-07-14T19:35:17Z</time>
      </trkpt>
      <trkpt lat="35.087366240" lon="-106.654459440">
        <ele>1489.300</ele>
        <time>2019-07-14T19:35:18Z</time>
      </trkpt>
      <trkpt lat="35.087355350" lon="-106.654372770">
        <ele>1489.500</ele>
        <time>2019-07-14T19:35:19Z</time>
      </trkpt>
      <trkpt lat="35.087353970" lon="-106.654281810">
        <ele>1490.400</ele>
        <time>2019-07-14T19:35:20Z</time>
      </trkpt>
      <trkpt lat="35.087342820" lon="-106.654192920">
        <ele>1491.000</ele>
        <time>2019-07-14T19:35:21Z</time>
      </trkpt>
      <trkpt lat="35.087328640" lon="-106.654106500">
        <ele>1490.800</ele>
        <time>2019-07-14T19:35:22Z</time>
      </trkpt>
      <trkpt lat="35.087314020" lon="-106.654011270">
        <ele>1492.300</ele>
        <time>2019-07-14T19:35:23Z</time>
      </trkpt>
      <trkpt lat="35.087295200" lon="-106.653938650">
        <ele>1491.800</ele>
        <time>2019-07-14T19:35:24Z</time>
      </trkpt>
      <trkpt lat="35.087279020" lon="-106.653869860">
        <ele>1492.200</ele>
        <time>2019-07-14T19:35:25Z</time>
      </trkpt>
      <trkpt lat="35.087241340" lon="-106.653752630">
        <ele>1490.200</ele>
        <time>2019-07-14T19:35:26Z</time>
      </trkpt>
      <trkpt lat="35.087216480" lon="-106.653645850">
        <ele>1490.200</ele>
        <time>2019-07-14T19:35:27Z</time>
      </trkpt>
      <trkpt lat="35.087190340" lon="-106.653535650">
        <ele>1490.100</ele>
        <time>2019-07-14T19:35:28Z</time>
      </trkpt>
      <trkpt lat="35.087156950" lon="-106.653423790">
        <ele>1489.900</ele>
        <time>2019-07-14T19:35:29Z</time>
      </trkpt>
      <trkpt lat="35.087123920" lon="-106.653304050">
        <ele>1489.900</ele>
        <time>2019-07-14T19:35:30Z</time>
      </trkpt>
      <trkpt lat="35.087101170" lon="-106.653186210">
        <ele>1489.000</ele>
        <time>2019-07-14T19:35:31Z</time>
      </trkpt>
      <trkpt lat="35.087075950" lon="-106.653081640">
        <ele>1487.600</ele>
        <time>2019-07-14T19:35:32Z</time>
      </trkpt>
      <trkpt lat="35.087046720" lon="-106.652973710">
        <ele>1487.600</ele>
        <time>2019-07-14T19:35:33Z</time>
      </trkpt>
      <trkpt lat="35.087009690" lon="-106.652860570">
        <ele>1485.400</ele>
        <time>2019-07-14T19:35:34Z</time>
      </trkpt>
      <trkpt lat="35.086981850" lon="-106.652743570">
        <ele>1486.000</ele>
        <time>2019-07-14T19:35:35Z</time>
      </trkpt>
      <trkpt lat="35.086943280" lon="-106.652616740">
        <ele>1487.000</ele>
        <time>2019-07-14T19:35:36Z</time>
      </trkpt>
      <trkpt lat="35.086913930" lon="-106.652498570">
        <ele>1486.700</ele>
        <time>2019-07-14T19:35:37Z</time>
      </trkpt>
      <trkpt lat="35.086887960" lon="-106.652385400">
        <ele>1487.600</ele>
        <time>2019-07-14T19:35:38Z</time>
      </trkpt>
      <trkpt lat="35.086869720" lon="-106.652256770">
        <ele>1488.900</ele>
        <time>2019-07-14T19:35:39Z</time>
      </trkpt>
      <trkpt lat="35.086832810" lon="-106.652122990">
        <ele>1489.700</ele>
        <time>2019-07-14T19:35:40Z</time>
      </trkpt>
      <trkpt lat="35.086803270" lon="-106.652008360">
        <ele>1490.700</ele>
        <time>2019-07-14T19:35:41Z</time>
      </trkpt>
      <trkpt lat="35.086771100" lon="-106.651873320">
        <ele>1491.400</ele>
        <time>2019-07-14T19:35:42Z</time>
      </trkpt>
      <trkpt lat="35.086749630" lon="-106.651764040">
        <ele>1492.900</ele>
        <time>2019-07-14T19:35:43Z</time>
      </trkpt>
      <trkpt lat="35.086714900" lon="-106.651662550">
        <ele>1492.800</ele>
        <time>2019-07-14T19:35:44Z</time>
      </trkpt>
      <trkpt lat="35.086642440" lon="-106.651556830">
        <ele>1493.000</ele>
        <time>2019-07-14T19:35:45Z</time>
      </trkpt>
      <trkpt lat="35.086616990" lon="-106.651442590">
        <ele>1492.200</ele>
        <time>2019-07-14T19:35:46Z</time>
      </trkpt>
      <trkpt lat="35.086599420" lon="-106.651307290">
        <ele>1493.100</ele>
        <time>2019-07-14T19:35:47Z</time>
      </trkpt>
      <trkpt lat="35.086591860" lon="-106.651185280">
        <ele>1492.400</ele>
        <time>2019-07-14T19:35:48Z</time>
      </trkpt>
      <trkpt lat="35.086577690" lon="-106.651048940">
        <ele>1493.900</ele>
        <time>2019-07-14T19:35:49Z</time>
      </trkpt>
      <trkpt lat="35.086562830" lon="-106.650925400">
        <ele>1494.800</ele>
        <time>2019-07-14T19:35:50Z</time>
      </trkpt>
      <trkpt lat="35.086542000" lon="-106.650794960">
        <ele>1495.700</ele>
        <time>2019-07-14T19:35:51Z</time>
      </trkpt>
      <trkpt lat="35.086527990" lon="-106.650662890">
        <ele>1495.800</ele>
        <time>2019-07-14T19:35:52Z</time>
      </trkpt>
      <trkpt lat="35.086519360" lon="-106.650556350">
        <ele>1494.600</ele>
        <time>2019-07-14T19:35:53Z</time>
      </trkpt>
      <trkpt lat="35.086513210" lon="-106.650421790">
        <ele>1495.400</ele>
        <time>2019-07-14T19:35:54Z</time>
      </trkpt>
      <trkpt lat="35.086514880" lon="-106.650292490">
        <ele>1495.800</ele>
        <time>2019-07-14T19:35:55Z</time>
      </trkpt>
      <trkpt lat="35.086509280" lon="-106.650168360">
        <ele>1495.100</ele>
        <time>2019-07-14T19:35:56Z</time>
      </trkpt>
      <trkpt lat="35.086496360" lon="-106.650037950">
        <ele>1495.600</ele>
        <time>2019-07-14T19:35:57Z</time>
      </trkpt>
      <trkpt lat="35.086495160" lon="-106.649891770">
        <ele>1497.000</ele>
        <time>2019-07-14T19:35:58Z</time>
      </trkpt>
      <trkpt lat="35.086487270" lon="-106.649766780">
        <ele>1497.700</ele>
        <time>2019-07-14T19:35:59Z</time>
      </trkpt>
      <trkpt lat="35.086470060" lon="-106.649645800">
        <ele>1496.500</ele>
        <time>2019-07-14T19:36:00Z</time>
      </trkpt>
      <trkpt lat="35.086461260" lon="-106.649522620">
        <ele>1496.600</ele>
        <time>2019-07-14T19:36:01Z</time>
      </trkpt>
      <trkpt lat="35.086458840" lon="-106.649391610">
        <ele>1497.200</ele>
        <time>2019-07-14T19:36:02Z</time>
      </trkpt>
      <trkpt lat="35.086438430" lon="-106.649267240">
        <ele>1496.300</ele>
        <time>2019-07-14T19:36:03Z</time>
      </trkpt>
      <trkpt lat="35.086424430" lon="-106.649151120">
        <ele>1496.100</ele>
        <time>2019-07-14T19:36:04Z</time>
      </trkpt>
      <trkpt lat="35.086429390" lon="-106.649023720">
        <ele>1496.800</ele>
        <time>2019-07-14T19:36:05Z</time>
      </trkpt>
      <trkpt lat="35.086416080" lon="-106.648897860">
        <ele>1496.400</ele>
        <time>2019-07-14T19:36:06Z</time>
      </trkpt>
      <trkpt lat="35.086382550" lon="-106.648771760">
        <ele>1497.100</ele>
        <time>2019-07-14T19:36:07Z</time>
      </trkpt>
      <trkpt lat="35.086350420" lon="-106.648665320">
        <ele>1495.700</ele>
        <time>2019-07-14T19:36:08Z</time>
      </trkpt>
      <trkpt lat="35.086313350" lon="-106.648551180">
        <ele>1495.200</ele>
        <time>2019-07-14T19:36:09Z</time>
      </trkpt>
      <trkpt lat="35.086252560" lon="-106.648447320">
        <ele>1494.500</ele>
        <time>2019-07-14T19:36:10Z</time>
      </trkpt>
      <trkpt lat="35.086199810" lon="-106.648337530">
        <ele>1493.200</ele>
        <time>2019-07-14T19:36:11Z</time>
      </trkpt>
      <trkpt lat="35.086142190" lon="-106.648247020">
        <ele>1493.700</ele>
        <time>2019-07-14T19:36:12Z</time>
      </trkpt>
      <trkpt lat="35.086074150" lon="-106.648139570">
        <ele>1494.400</ele>
        <time>2019-07-14T19:36:13Z</time>
      </trkpt>
      <trkpt lat="35.086015550" lon="-106.648031530">
        <ele>1494.500</ele>
        <time>2019-07-14T19:36:14Z</time>
      </trkpt>
      <trkpt lat="35.085957050" lon="-106.647928350">
        <ele>1494.800</ele>
        <time>2019-07-14T19:36:15Z</time>
      </trkpt>
      <trkpt lat="35.085893580" lon="-106.647816010">
        <ele>1495.000</ele>
        <time>2019-07-14T19:36:16Z</time>
      </trkpt>
      <trkpt lat="35.085793820" lon="-106.647764070">
        <ele>1494.500</ele>
        <time>2019-07-14T19:36:17Z</time>
      </trkpt>
      <trkpt lat="35.085712310" lon="-106.647686960">
        <ele>1494.400</ele>
        <time>2019-07-14T19:36:18Z</time>
      </trkpt>
      <trkpt lat="35.085628480" lon="-106.647614250">
        <ele>1494.200</ele>
        <time>2019-07-14T19:36:19Z</time>
      </trkpt>
      <trkpt lat="35.085606100" lon="-106.647468330">
        <ele>1492.200</ele>
        <time>2019-07-14T19:36:20Z</time>
      </trkpt>
      <trkpt lat="35.085548030" lon="-106.647358360">
        <ele>1491.700</ele>
        <time>2019-07-14T19:36:21Z</time>
      </trkpt>
      <trkpt lat="35.085491060" lon="-106.647233260">
        <ele>1492.000</ele>
        <time>2019-07-14T19:36:22Z</time>
      </trkpt>
      <trkpt lat="35.085443090" lon="-106.647089960">
        <ele>1490.300</ele>
        <time>2019-07-14T19:36:23Z</time>
      </trkpt>
      <trkpt lat="35.085393640" lon="-106.646972280">
        <ele>1490.900</ele>
        <time>2019-07-14T19:36:24Z</time>
      </trkpt>
      <trkpt lat="35.085361590" lon="-106.646870730">
        <ele>1491.200</ele>
        <time>2019-07-14T19:36:25Z</time>
      </trkpt>
      <trkpt lat="35.085318410" lon="-106.646768260">
        <ele>1491.200</ele>
        <time>2019-07-14T19:36:26Z</time>
      </trkpt>
      <trkpt lat="35.085339440" lon="-106.646586980">
        <ele>1490.000</ele>
        <time>2019-07-14T19:36:27Z</time>
      </trkpt>
      <trkpt lat="35.085349680" lon="-106.646449930">
        <ele>1491.200</ele>
        <time>2019-07-14T19:36:28Z</time>
      </trkpt>
      <trkpt lat="35.085362720" lon="-106.646314450">
        <ele>1491.000</ele>
        <time>2019-07-14T19:36:29Z</time>
      </trkpt>
      <trkpt lat="35.085364790" lon="-106.646174850">
        <ele>1490.500</ele>
        <time>2019-07-14T19:36:30Z</time>
      </trkpt>
      <trkpt lat="35.085395940" lon="-106.646036260">
        <ele>1491.500</ele>
        <time>2019-07-14T19:36:31Z</time>
      </trkpt>
      <trkpt lat="35.085437170" lon="-106.645893480">
        <ele>1492.200</ele>
        <time>2019-07-14T19:36:32Z</time>
      </trkpt>
      <trkpt lat="35.085475120" lon="-106.645757000">
        <ele>1493.000</ele>
        <time>2019-07-14T19:36:33Z</time>
      </trkpt>
      <trkpt lat="35.085523080" lon="-106.645627260">
        <ele>1492.400</ele>
        <time>2019-07-14T19:36:34Z</time>
      </trkpt>
      <trkpt lat="35.085588090" lon="-106.645497720">
        <ele>1493.500</ele>
        <time>2019-07-14T19:36:35Z</time>
      </trkpt>
      <trkpt lat="35.085655760" lon="-106.645369490">
        <ele>1494.100</ele>
        <time>2019-07-14T19:36:36Z</time>
      </trkpt>
      <trkpt lat="35.085734890" lon="-106.645242110">
        <ele>1494.200</ele>
        <time>2019-07-14T19:36:37Z</time>
      </trkpt>
      <trkpt lat="35.085812040" lon="-106.645135720">
        <ele>1493.600</ele>
        <time>2019-07-14T19:36:38Z</time>
      </trkpt>
      <trkpt lat="35.085886270" lon="-106.645029750">
        <ele>1493.900</ele>
        <time>2019-07-14T19:36:39Z</time>
      </trkpt>
      <trkpt lat="35.085956020" lon="-106.644913900">
        <ele>1494.300</ele>
        <time>2019-07-14T19:36:40Z</time>
      </trkpt>
      <trkpt lat="35.086023360" lon="-106.644808630">
        <ele>1493.900</ele>
        <time>2019-07-14T19:36:41Z</time>
      </trkpt>
      <trkpt lat="35.086068490" lon="-106.644721570">
        <ele>1493.700</ele>
        <time>2019-07-14T19:36:42Z</time>
      </trkpt>
      <trkpt lat="35.086105520" lon="-106.644630710">
        <ele>1493.800</ele>
        <time>2019-07-14T19:36:43Z</time>
      </trkpt>
      <trkpt lat="35.086132740" lon="-106.644552260">
        <ele>1493.900</ele>
        <time>2019-07-14T19:36:44Z</time>
      </trkpt>
      <trkpt lat="35.086149560" lon="-106.644496190">
        <ele>1492.900</ele>
        <time>2019-07-14T19:36:45Z</time>
      </trkpt>
      <trkpt lat="35.086156900" lon="-106.644449390">
        <ele>1493.100</ele>
        <time>2019-07-14T19:36:46Z</time>
      </trkpt>
      <trkpt lat="35.086158420" lon="-106.644392010">
        <ele>1489.600</ele>
        <time>2019-07-14T19:37:16Z</time>
      </trkpt>
      <trkpt lat="35.086173750" lon="-106.644292560">
        <ele>1489.500</ele>
        <time>2019-07-14T19:37:18Z</time>
      </trkpt>
      <trkpt lat="35.086178380" lon="-106.644228020">
        <ele>1489.000</ele>
        <time>2019-07-14T19:37:19Z</time>
      </trkpt>
      <trkpt lat="35.086184350" lon="-106.644154620">
        <ele>1488.900</ele>
        <time>2019-07-14T19:37:20Z</time>
      </trkpt>
      <trkpt lat="35.086187310" lon="-106.644061280">
        <ele>1489.500</ele>
        <time>2019-07-14T19:37:21Z</time>
      </trkpt>
      <trkpt lat="35.086185080" lon="-106.643954610">
        <ele>1490.900</ele>
        <time>2019-07-14T19:37:22Z</time>
      </trkpt>
      <trkpt lat="35.086173970" lon="-106.643858790">
        <ele>1491.500</ele>
        <time>2019-07-14T19:37:23Z</time>
      </trkpt>
      <trkpt lat="35.086151840" lon="-106.643748900">
        <ele>1491.600</ele>
        <time>2019-07-14T19:37:24Z</time>
      </trkpt>
      <trkpt lat="35.086128080" lon="-106.643631830">
        <ele>1492.100</ele>
        <time>2019-07-14T19:37:25Z</time>
      </trkpt>
      <trkpt lat="35.086102190" lon="-106.643504190">
        <ele>1492.900</ele>
        <time>2019-07-14T19:37:26Z</time>
      </trkpt>
      <trkpt lat="35.086074430" lon="-106.643370360">
        <ele>1494.000</ele>
        <time>2019-07-14T19:37:27Z</time>
      </trkpt>
      <trkpt lat="35.086044280" lon="-106.643234150">
        <ele>1494.300</ele>
        <time>2019-07-14T19:37:28Z</time>
      </trkpt>
      <trkpt lat="35.086012040" lon="-106.643090380">
        <ele>1494.600</ele>
        <time>2019-07-14T19:37:29Z</time>
      </trkpt>
      <trkpt lat="35.085991670" lon="-106.642951830">
        <ele>1493.800</ele>
        <time>2019-07-14T19:37:30Z</time>
      </trkpt>
      <trkpt lat="35.085953980" lon="-106.642794400">
        <ele>1494.400</ele>
        <time>2019-07-14T19:37:31Z</time>
      </trkpt>
      <trkpt lat="35.085923170" lon="-106.642640570">
        <ele>1494.800</ele>
        <time>2019-07-14T19:37:32Z</time>
      </trkpt>
      <trkpt lat="35.085907590" lon="-106.642501740">
        <ele>1495.300</ele>
        <time>2019-07-14T19:37:33Z</time>
      </trkpt>
      <trkpt lat="35.085871800" lon="-106.642330120">
        <ele>1495.700</ele>
        <time>2019-07-14T19:37:34Z</time>
      </trkpt>
      <trkpt lat="35.085840620" lon="-106.642170470">
        <ele>1496.700</ele>
        <time>2019-07-14T19:37:35Z</time>
      </trkpt>
      <trkpt lat="35.085812980" lon="-106.642014120">
        <ele>1496.500</ele>
        <time>2019-07-14T19:37:36Z</time>
      </trkpt>
      <trkpt lat="35.085777890" lon="-106.641847480">
        <ele>1497.600</ele>
        <time>2019-07-14T19:37:37Z</time>
      </trkpt>
      <trkpt lat="35.085753810" lon="-106.641686960">
        <ele>1498.200</ele>
        <time>2019-07-14T19:37:38Z</time>
      </trkpt>
      <trkpt lat="35.085727310" lon="-106.641529040">
        <ele>1498.100</ele>
        <time>2019-07-14T19:37:39Z</time>
      </trkpt>
      <trkpt lat="35.085710990" lon="-106.641367430">
        <ele>1498.500</ele>
        <time>2019-07-14T19:37:40Z</time>
      </trkpt>
      <trkpt lat="35.085682170" lon="-106.641203010">
        <ele>1499.000</ele>
        <time>2019-07-14T19:37:41Z</time>
      </trkpt>
      <trkpt lat="35.085656990" lon="-106.641059060">
        <ele>1499.300</ele>
        <time>2019-07-14T19:37:42Z</time>
      </trkpt>
      <trkpt lat="35.085632920" lon="-106.640920110">
        <ele>1499.500</ele>
        <time>2019-07-14T19:37:43Z</time>
      </trkpt>
      <trkpt lat="35.085611220" lon="-106.640744590">
        <ele>1498.900</ele>
        <time>2019-07-14T19:37:44Z</time>
      </trkpt>
      <trkpt lat="35.085595580" lon="-106.640584740">
        <ele>1499.900</ele>
        <time>2019-07-14T19:37:45Z</time>
      </trkpt>
      <trkpt lat="35.085581610" lon="-106.640416930">
        <ele>1500.200</ele>
        <time>2019-07-14T19:37:46Z</time>
      </trkpt>
      <trkpt lat="35.085559860" lon="-106.640246180">
        <ele>1500.700</ele>
        <time>2019-07-14T19:37:47Z</time>
      </trkpt>
      <trkpt lat="35.085544080" lon="-106.640081290">
        <ele>1501.700</ele>
        <time>2019-07-14T19:37:48Z</time>
      </trkpt>
      <trkpt lat="35.085538790" lon="-106.639895720">
        <ele>1502.800</ele>
        <time>2019-07-14T19:37:49Z</time>
      </trkpt>
      <trkpt lat="35.085529360" lon="-106.639730220">
        <ele>1503.400</ele>
        <time>2019-07-14T19:37:50Z</time>
      </trkpt>
      <trkpt lat="35.085517100" lon="-106.639543270">
        <ele>1503.500</ele>
        <time>2019-07-14T19:37:51Z</time>
      </trkpt>
      <trkpt lat="35.085489310" lon="-106.639374500">
        <ele>1502.700</ele>
        <time>2019-07-14T19:37:52Z</time>
      </trkpt>
      <trkpt lat="35.085481650" lon="-106.639189570">
        <ele>1504.300</ele>
        <time>2019-07-14T19:37:53Z</time>
      </trkpt>
      <trkpt lat="35.085454080" lon="-106.639004200">
        <ele>1505.000</ele>
        <time>2019-07-14T19:37:54Z</time>
      </trkpt>
      <trkpt lat="35.085452310" lon="-106.638839460">
        <ele>1506.400</ele>
        <time>2019-07-14T19:37:55Z</time>
      </trkpt>
      <trkpt lat="35.085446970" lon="-106.638660990">
        <ele>1507.400</ele>
        <time>2019-07-14T19:37:56Z</time>
      </trkpt>
      <trkpt lat="35.085422890" lon="-106.638491800">
        <ele>1508.200</ele>
        <time>2019-07-14T19:37:57Z</time>
      </trkpt>
      <trkpt lat="35.085405040" lon="-106.638325280">
        <ele>1507.900</ele>
        <time>2019-07-14T19:37:58Z</time>
      </trkpt>
      <trkpt lat="35.085381340" lon="-106.638150570">
        <ele>1508.600</ele>
        <time>2019-07-14T19:37:59Z</time>
      </trkpt>
      <trkpt lat="35.085367730" lon="-106.637970370">
        <ele>1510.800</ele>
        <time>2019-07-14T19:38:00Z</time>
      </trkpt>
      <trkpt lat="35.085345620" lon="-106.637805950">
        <ele>1510.600</ele>
        <time>2019-07-14T19:38:01Z</time>
      </trkpt>
      <trkpt lat="35.085332530" lon="-106.637622100">
        <ele>1511.100</ele>
        <time>2019-07-14T19:38:02Z</time>
      </trkpt>
      <trkpt lat="35.085316160" lon="-106.637440120">
        <ele>1512.100</ele>
        <time>2019-07-14T19:38:03Z</time>
      </trkpt>
      <trkpt lat="35.085297110" lon="-106.637274130">
        <ele>1512.600</ele>
        <time>2019-07-14T19:38:04Z</time>
      </trkpt>
      <trkpt lat="35.085294990" lon="-106.637123770">
        <ele>1512.700</ele>
        <time>2019-07-14T19:38:05Z</time>
      </trkpt>
      <trkpt lat="35.085267820" lon="-106.636950010">
        <ele>1513.000</ele>
        <time>2019-07-14T19:38:06Z</time>
      </trkpt>
      <trkpt lat="35.085260240" lon="-106.636804820">
        <ele>1512.800</ele>
        <time>2019-07-14T19:38:07Z</time>
      </trkpt>
      <trkpt lat="35.085252320" lon="-106.636659480">
        <ele>1514.500</ele>
        <time>2019-07-14T19:38:08Z</time>
      </trkpt>
      <trkpt lat="35.085243650" lon="-106.636518790">
        <ele>1514.000</ele>
        <time>2019-07-14T19:38:09Z</time>
      </trkpt>
      <trkpt lat="35.085225740" lon="-106.636387130">
        <ele>1514.800</ele>
        <time>2019-07-14T19:38:10Z</time>
      </trkpt>
      <trkpt lat="35.085210340" lon="-106.636260430">
        <ele>1515.400</ele>
        <time>2019-07-14T19:38:11Z</time>
      </trkpt>
      <trkpt lat="35.085196920" lon="-106.636150240">
        <ele>1515.800</ele>
        <time>2019-07-14T19:38:12Z</time>
      </trkpt>
      <trkpt lat="35.085189640" lon="-106.636031310">
        <ele>1515.800</ele>
        <time>2019-07-14T19:38:13Z</time>
      </trkpt>
      <trkpt lat="35.085159640" lon="-106.635931460">
        <ele>1515.900</ele>
        <time>2019-07-14T19:38:14Z</time>
      </trkpt>
      <trkpt lat="35.085158480" lon="-106.635828270">
        <ele>1515.900</ele>
        <time>2019-07-14T19:38:15Z</time>
      </trkpt>
      <trkpt lat="35.085159270" lon="-106.635772990">
        <ele>1516.000</ele>
        <time>2019-07-14T19:38:16Z</time>
      </trkpt>
      <trkpt lat="35.085188610" lon="-106.635698940">
        <ele>1518.800</ele>
        <time>2019-07-14T19:38:23Z</time>
      </trkpt>
      <trkpt lat="35.085253560" lon="-106.635679880">
        <ele>1519.400</ele>
        <time>2019-07-14T19:38:24Z</time>
      </trkpt>
      <trkpt lat="35.085309350" lon="-106.635654290">
        <ele>1520.800</ele>
        <time>2019-07-14T19:38:25Z</time>
      </trkpt>
      <trkpt lat="35.085379920" lon="-106.635640040">
        <ele>1520.800</ele>
        <time>2019-07-14T19:38:26Z</time>
      </trkpt>
      <trkpt lat="35.085468100" lon="-106.635628280">
        <ele>1521.100</ele>
        <time>2019-07-14T19:38:27Z</time>
      </trkpt>
      <trkpt lat="35.085557950" lon="-106.635611960">
        <ele>1519.800</ele>
        <time>2019-07-14T19:38:28Z</time>
      </trkpt>
      <trkpt lat="35.085665400" lon="-106.635581360">
        <ele>1521.200</ele>
        <time>2019-07-14T19:38:29Z</time>
      </trkpt>
      <trkpt lat="35.085781430" lon="-106.635561610">
        <ele>1520.600</ele>
        <time>2019-07-14T19:38:30Z</time>
      </trkpt>
      <trkpt lat="35.085906540" lon="-106.635541850">
        <ele>1520.300</ele>
        <time>2019-07-14T19:38:31Z</time>
      </trkpt>
      <trkpt lat="35.086026450" lon="-106.635521160">
        <ele>1520.400</ele>
        <time>2019-07-14T19:38:32Z</time>
      </trkpt>
      <trkpt lat="35.086158870" lon="-106.635487930">
        <ele>1519.700</ele>
        <time>2019-07-14T19:38:33Z</time>
      </trkpt>
      <trkpt lat="35.086293770" lon="-106.635462750">
        <ele>1520.200</ele>
        <time>2019-07-14T19:38:34Z</time>
      </trkpt>
      <trkpt lat="35.086443550" lon="-106.635448980">
        <ele>1520.600</ele>
        <time>2019-07-14T19:38:35Z</time>
      </trkpt>
      <trkpt lat="35.086616960" lon="-106.635437840">
        <ele>1520.500</ele>
        <time>2019-07-14T19:38:36Z</time>
      </trkpt>
      <trkpt lat="35.086786270" lon="-106.635406030">
        <ele>1521.000</ele>
        <time>2019-07-14T19:38:37Z</time>
      </trkpt>
      <trkpt lat="35.086940120" lon="-106.635393980">
        <ele>1522.000</ele>
        <time>2019-07-14T19:38:38Z</time>
      </trkpt>
      <trkpt lat="35.087120800" lon="-106.635390330">
        <ele>1521.700</ele>
        <time>2019-07-14T19:38:39Z</time>
      </trkpt>
      <trkpt lat="35.087296370" lon="-106.635395580">
        <ele>1521.800</ele>
        <time>2019-07-14T19:38:40Z</time>
      </trkpt>
      <trkpt lat="35.087520370" lon="-106.635361200">
        <ele>1524.200</ele>
        <time>2019-07-14T19:38:41Z</time>
      </trkpt>
      <trkpt lat="35.087721070" lon="-106.635341190">
        <ele>1524.700</ele>
        <time>2019-07-14T19:38:42Z</time>
      </trkpt>
      <trkpt lat="35.087927970" lon="-106.635315010">
        <ele>1523.200</ele>
        <time>2019-07-14T19:38:43Z</time>
      </trkpt>
      <trkpt lat="35.088131570" lon="-106.635262780">
        <ele>1523.900</ele>
        <time>2019-07-14T19:38:44Z</time>
      </trkpt>
      <trkpt lat="35.088360480" lon="-106.635251590">
        <ele>1526.300</ele>
        <time>2019-07-14T19:38:45Z</time>
      </trkpt>
      <trkpt lat="35.088586870" lon="-106.635191290">
        <ele>1526.100</ele>
        <time>2019-07-14T19:38:46Z</time>
      </trkpt>
      <trkpt lat="35.088817670" lon="-106.635142610">
        <ele>1527.800</ele>
        <time>2019-07-14T19:38:47Z</time>
      </trkpt>
      <trkpt lat="35.089054080" lon="-106.635094580">
        <ele>1527.200</ele>
        <time>2019-07-14T19:38:48Z</time>
      </trkpt>
      <trkpt lat="35.089299760" lon="-106.635026630">
        <ele>1528.200</ele>
        <time>2019-07-14T19:38:49Z</time>
      </trkpt>
      <trkpt lat="35.089546000" lon="-106.634953920">
        <ele>1527.700</ele>
        <time>2019-07-14T19:38:50Z</time>
      </trkpt>
      <trkpt lat="35.089799410" lon="-106.634872640">
        <ele>1527.700</ele>
        <time>2019-07-14T19:38:51Z</time>
      </trkpt>
      <trkpt lat="35.090052360" lon="-106.634789440">
        <ele>1527.500</ele>
        <time>2019-07-14T19:38:52Z</time>
      </trkpt>
      <trkpt lat="35.090305180" lon="-106.634703680">
        <ele>1518.600</ele>
        <time>2019-07-14T19:38:53Z</time>
      </trkpt>
      <trkpt lat="35.090554660" lon="-106.634611560">
        <ele>1522.300</ele>
        <time>2019-07-14T19:38:54Z</time>
      </trkpt>
      <trkpt lat="35.090803690" lon="-106.634528870">
        <ele>1525.200</ele>
        <time>2019-07-14T19:38:55Z</time>
      </trkpt>
      <trkpt lat="35.091054990" lon="-106.634446850">
        <ele>1526.500</ele>
        <time>2019-07-14T19:38:56Z</time>
      </trkpt>
      <trkpt lat="35.091312030" lon="-106.634360430">
        <ele>1526.900</ele>
        <time>2019-07-14T19:38:57Z</time>
      </trkpt>
      <trkpt lat="35.091573050" lon="-106.634275020">
        <ele>1528.000</ele>
        <time>2019-07-14T19:38:58Z</time>
      </trkpt>
      <trkpt lat="35.091828970" lon="-106.634191380">
        <ele>1528.000</ele>
        <time>2019-07-14T19:38:59Z</time>
      </trkpt>
      <trkpt lat="35.092093160" lon="-106.634099660">
        <ele>1528.400</ele>
        <time>2019-07-14T19:39:00Z</time>
      </trkpt>
      <trkpt lat="35.092351040" lon="-106.634005270">
        <ele>1528.400</ele>
        <time>2019-07-14T19:39:01Z</time>
      </trkpt>
      <trkpt lat="35.092601820" lon="-106.633913000">
        <ele>1528.300</ele>
        <time>2019-07-14T19:39:02Z</time>
      </trkpt>
      <trkpt lat="35.092858930" lon="-106.633827490">
        <ele>1527.100</ele>
        <time>2019-07-14T19:39:03Z</time>
      </trkpt>
      <trkpt lat="35.093111440" lon="-106.633727160">
        <ele>1527.200</ele>
        <time>2019-07-14T19:39:04Z</time>
      </trkpt>
      <trkpt lat="35.093367010" lon="-106.633631570">
        <ele>1527.400</ele>
        <time>2019-07-14T19:39:05Z</time>
      </trkpt>
      <trkpt lat="35.093623170" lon="-106.633536990">
        <ele>1527.300</ele>
        <time>2019-07-14T19:39:06Z</time>
      </trkpt>
      <trkpt lat="35.093882820" lon="-106.633446160">
        <ele>1526.400</ele>
        <time>2019-07-14T19:39:07Z</time>
      </trkpt>
      <trkpt lat="35.094148760" lon="-106.633348550">
        <ele>1526.300</ele>
        <time>2019-07-14T19:39:08Z</time>
      </trkpt>
      <trkpt lat="35.094412500" lon="-106.633253540">
        <ele>1526.100</ele>
        <time>2019-07-14T19:39:09Z</time>
      </trkpt>
      <trkpt lat="35.094674090" lon="-106.633154360">
        <ele>1525.800</ele>
        <time>2019-07-14T19:39:10Z</time>
      </trkpt>
      <trkpt lat="35.094940600" lon="-106.633055700">
        <ele>1525.500</ele>
        <time>2019-07-14T19:39:11Z</time>
      </trkpt>
      <trkpt lat="35.095212150" lon="-106.632964680">
        <ele>1524.700</ele>
        <time>2019-07-14T19:39:12Z</time>
      </trkpt>
      <trkpt lat="35.095485050" lon="-106.632865200">
        <ele>1524.700</ele>
        <time>2019-07-14T19:39:13Z</time>
      </trkpt>
      <trkpt lat="35.095759480" lon="-106.632765120">
        <ele>1524.000</ele>
        <time>2019-07-14T19:39:14Z</time>
      </trkpt>
      <trkpt lat="35.096030110" lon="-106.632668860">
        <ele>1523.000</ele>
        <time>2019-07-14T19:39:15Z</time>
      </trkpt>
      <trkpt lat="35.096300660" lon="-106.632567740">
        <ele>1522.000</ele>
        <time>2019-07-14T19:39:16Z</time>
      </trkpt>
      <trkpt lat="35.096572360" lon="-106.632473320">
        <ele>1521.200</ele>
        <time>2019-07-14T19:39:17Z</time>
      </trkpt>
      <trkpt lat="35.096835210" lon="-106.632378290">
        <ele>1520.200</ele>
        <time>2019-07-14T19:39:18Z</time>
      </trkpt>
      <trkpt lat="35.097105390" lon="-106.632280350">
        <ele>1519.400</ele>
        <time>2019-07-14T19:39:19Z</time>
      </trkpt>
      <trkpt lat="35.097374070" lon="-106.632184630">
        <ele>1518.300</ele>
        <time>2019-07-14T19:39:20Z</time>
      </trkpt>
      <trkpt lat="35.097646860" lon="-106.632079990">
        <ele>1517.800</ele>
        <time>2019-07-14T19:39:21Z</time>
      </trkpt>
      <trkpt lat="35.097911170" lon="-106.631982740">
        <ele>1517.500</ele>
        <time>2019-07-14T19:39:22Z</time>
      </trkpt>
      <trkpt lat="35.098178440" lon="-106.631877910">
        <ele>1517.400</ele>
        <time>2019-07-14T19:39:23Z</time>
      </trkpt>
      <trkpt lat="35.098437820" lon="-106.631779590">
        <ele>1516.500</ele>
        <time>2019-07-14T19:39:24Z</time>
      </trkpt>
      <trkpt lat="35.098702160" lon="-106.631685130">
        <ele>1516.500</ele>
        <time>2019-07-14T19:39:25Z</time>
      </trkpt>
      <trkpt lat="35.098957820" lon="-106.631598420">
        <ele>1521.900</ele>
        <time>2019-07-14T19:39:26Z</time>
      </trkpt>
      <trkpt lat="35.099218030" lon="-106.631497500">
        <ele>1520.900</ele>
        <time>2019-07-14T19:39:27Z</time>
      </trkpt>
      <trkpt lat="35.099480970" lon="-106.631401610">
        <ele>1520.600</ele>
        <time>2019-07-14T19:39:28Z</time>
      </trkpt>
      <trkpt lat="35.099749630" lon="-106.631303480">
        <ele>1520.600</ele>
        <time>2019-07-14T19:39:29Z</time>
      </trkpt>
      <trkpt lat="35.100018260" lon="-106.631207720">
        <ele>1521.000</ele>
        <time>2019-07-14T19:39:30Z</time>
      </trkpt>
      <trkpt lat="35.100285690" lon="-106.631115970">
        <ele>1520.900</ele>
        <time>2019-07-14T19:39:31Z</time>
      </trkpt>
      <trkpt lat="35.100547440" lon="-106.631017670">
        <ele>1521.800</ele>
        <time>2019-07-14T19:39:32Z</time>
      </trkpt>
      <trkpt lat="35.100819140" lon="-106.630924540">
        <ele>1522.500</ele>
        <time>2019-07-14T19:39:33Z</time>
      </trkpt>
      <trkpt lat="35.101091730" lon="-106.630830500">
        <ele>1522.500</ele>
        <time>2019-07-14T19:39:34Z</time>
      </trkpt>
      <trkpt lat="35.101366990" lon="-106.630737230">
        <ele>1521.500</ele>
        <time>2019-07-14T19:39:35Z</time>
      </trkpt>
      <trkpt lat="35.101636880" lon="-106.630634200">
        <ele>1521.700</ele>
        <time>2019-07-14T19:39:36Z</time>
      </trkpt>
      <trkpt lat="35.101902550" lon="-106.630539800">
        <ele>1521.400</ele>
        <time>2019-07-14T19:39:37Z</time>
      </trkpt>
      <trkpt lat="35.102170280" lon="-106.630443240">
        <ele>1520.700</ele>
        <time>2019-07-14T19:39:38Z</time>
      </trkpt>
      <trkpt lat="35.102440150" lon="-106.630342160">
        <ele>1521.200</ele>
        <time>2019-07-14T19:39:39Z</time>
      </trkpt>
      <trkpt lat="35.102710230" lon="-106.630242940">
        <ele>1521.500</ele>
        <time>2019-07-14T19:39:40Z</time>
      </trkpt>
      <trkpt lat="35.102975750" lon="-106.630153050">
        <ele>1521.400</ele>
        <time>2019-07-14T19:39:41Z</time>
      </trkpt>
      <trkpt lat="35.103244140" lon="-106.630054680">
        <ele>1521.000</ele>
        <time>2019-07-14T19:39:42Z</time>
      </trkpt>
      <trkpt lat="35.103507880" lon="-106.629945600">
        <ele>1520.900</ele>
        <time>2019-07-14T19:39:43Z</time>
      </trkpt>
      <trkpt lat="35.103773060" lon="-106.629851450">
        <ele>1520.400</ele>
        <time>2019-07-14T19:39:44Z</time>
      </trkpt>
      <trkpt lat="35.104035090" lon="-106.629757900">
        <ele>1520.600</ele>
        <time>2019-07-14T19:39:45Z</time>
      </trkpt>
      <trkpt lat="35.104292740" lon="-106.629663710">
        <ele>1521.400</ele>
        <time>2019-07-14T19:39:46Z</time>
      </trkpt>
      <trkpt lat="35.104550090" lon="-106.629572820">
        <ele>1522.100</ele>
        <time>2019-07-14T19:39:47Z</time>
      </trkpt>
      <trkpt lat="35.104815880" lon="-106.629470910">
        <ele>1522.700</ele>
        <time>2019-07-14T19:39:48Z</time>
      </trkpt>
      <trkpt lat="35.105081060" lon="-106.629371770">
        <ele>1523.300</ele>
        <time>2019-07-14T19:39:49Z</time>
      </trkpt>
      <trkpt lat="35.105348530" lon="-106.629280600">
        <ele>1523.500</ele>
        <time>2019-07-14T19:39:50Z</time>
      </trkpt>
      <trkpt lat="35.105625130" lon="-106.629186900">
        <ele>1523.700</ele>
        <time>2019-07-14T19:39:51Z</time>
      </trkpt>
      <trkpt lat="35.105897780" lon="-106.629093720">
        <ele>1524.300</ele>
        <time>2019-07-14T19:39:52Z</time>
      </trkpt>
      <trkpt lat="35.106175390" lon="-106.628996920">
        <ele>1525.100</ele>
        <time>2019-07-14T19:39:53Z</time>
      </trkpt>
      <trkpt lat="35.106447480" lon="-106.628893300">
        <ele>1525.400</ele>
        <time>2019-07-14T19:39:54Z</time>
      </trkpt>
      <trkpt lat="35.106728160" lon="-106.628798810">
        <ele>1525.400</ele>
        <time>2019-07-14T19:39:55Z</time>
      </trkpt>
      <trkpt lat="35.107003700" lon="-106.628693060">
        <ele>1525.600</ele>
        <time>2019-07-14T19:39:56Z</time>
      </trkpt>
      <trkpt lat="35.107282660" lon="-106.628596540">
        <ele>1525.700</ele>
        <time>2019-07-14T19:39:57Z</time>
      </trkpt>
      <trkpt lat="35.107555770" lon="-106.628487070">
        <ele>1525.000</ele>
        <time>2019-07-14T19:39:58Z</time>
      </trkpt>
      <trkpt lat="35.107824730" lon="-106.628379060">
        <ele>1524.500</ele>
        <time>2019-07-14T19:39:59Z</time>
      </trkpt>
      <trkpt lat="35.108081980" lon="-106.628260270">
        <ele>1523.900</ele>
        <time>2019-07-14T19:40:00Z</time>
      </trkpt>
      <trkpt lat="35.108342020" lon="-106.628146070">
        <ele>1523.800</ele>
        <time>2019-07-14T19:40:01Z</time>
      </trkpt>
      <trkpt lat="35.108598750" lon="-106.628035200">
        <ele>1523.200</ele>
        <time>2019-07-14T19:40:02Z</time>
      </trkpt>
      <trkpt lat="35.108858730" lon="-106.627927430">
        <ele>1522.100</ele>
        <time>2019-07-14T19:40:03Z</time>
      </trkpt>
      <trkpt lat="35.109120740" lon="-106.627815560">
        <ele>1521.700</ele>
        <time>2019-07-14T19:40:04Z</time>
      </trkpt>
      <trkpt lat="35.109378080" lon="-106.627704800">
        <ele>1520.400</ele>
        <time>2019-07-14T19:40:05Z</time>
      </trkpt>
      <trkpt lat="35.109640780" lon="-106.627599350">
        <ele>1518.900</ele>
        <time>2019-07-14T19:40:06Z</time>
      </trkpt>
      <trkpt lat="35.109903030" lon="-106.627486340">
        <ele>1518.300</ele>
        <time>2019-07-14T19:40:07Z</time>
      </trkpt>
      <trkpt lat="35.110165720" lon="-106.627377600">
        <ele>1518.700</ele>
        <time>2019-07-14T19:40:08Z</time>
      </trkpt>
      <trkpt lat="35.110426830" lon="-106.627276100">
        <ele>1518.700</ele>
        <time>2019-07-14T19:40:09Z</time>
      </trkpt>
      <trkpt lat="35.110689900" lon="-106.627182840">
        <ele>1518.800</ele>
        <time>2019-07-14T19:40:10Z</time>
      </trkpt>
      <trkpt lat="35.110956170" lon="-106.627084130">
        <ele>1518.800</ele>
        <time>2019-07-14T19:40:11Z</time>
      </trkpt>
      <trkpt lat="35.111227530" lon="-106.626993770">
        <ele>1519.400</ele>
        <time>2019-07-14T19:40:12Z</time>
      </trkpt>
      <trkpt lat="35.111491520" lon="-106.626895670">
        <ele>1519.900</ele>
        <time>2019-07-14T19:40:13Z</time>
      </trkpt>
      <trkpt lat="35.111756570" lon="-106.626802950">
        <ele>1520.300</ele>
        <time>2019-07-14T19:40:14Z</time>
      </trkpt>
      <trkpt lat="35.112020600" lon="-106.626697210">
        <ele>1521.500</ele>
        <time>2019-07-14T19:40:15Z</time>
      </trkpt>
      <trkpt lat="35.112281770" lon="-106.626596330">
        <ele>1521.700</ele>
        <time>2019-07-14T19:40:16Z</time>
      </trkpt>
      <trkpt lat="35.112545910" lon="-106.626491550">
        <ele>1521.900</ele>
        <time>2019-07-14T19:40:17Z</time>
      </trkpt>
      <trkpt lat="35.112811630" lon="-106.626387730">
        <ele>1522.500</ele>
        <time>2019-07-14T19:40:18Z</time>
      </trkpt>
      <trkpt lat="35.113079420" lon="-106.626285320">
        <ele>1523.500</ele>
        <time>2019-07-14T19:40:19Z</time>
      </trkpt>
      <trkpt lat="35.113344700" lon="-106.626191450">
        <ele>1524.000</ele>
        <time>2019-07-14T19:40:20Z</time>
      </trkpt>
      <trkpt lat="35.113608080" lon="-106.626088880">
        <ele>1524.800</ele>
        <time>2019-07-14T19:40:21Z</time>
      </trkpt>
      <trkpt lat="35.113876720" lon="-106.626000120">
        <ele>1525.400</ele>
        <time>2019-07-14T19:40:22Z</time>
      </trkpt>
      <trkpt lat="35.114141640" lon="-106.625905750">
        <ele>1525.700</ele>
        <time>2019-07-14T19:40:23Z</time>
      </trkpt>
      <trkpt lat="35.114413070" lon="-106.625810350">
        <ele>1525.700</ele>
        <time>2019-07-14T19:40:24Z</time>
      </trkpt>
      <trkpt lat="35.114682930" lon="-106.625707410">
        <ele>1526.400</ele>
        <time>2019-07-14T19:40:25Z</time>
      </trkpt>
      <trkpt lat="35.114954190" lon="-106.625607220">
        <ele>1526.200</ele>
        <time>2019-07-14T19:40:26Z</time>
      </trkpt>
      <trkpt lat="35.115227960" lon="-106.625501490">
        <ele>1526.600</ele>
        <time>2019-07-14T19:40:27Z</time>
      </trkpt>
      <trkpt lat="35.115498850" lon="-106.625404890">
        <ele>1526.300</ele>
        <time>2019-07-14T19:40:28Z</time>
      </trkpt>
      <trkpt lat="35.115767710" lon="-106.625302560">
        <ele>1526.500</ele>
        <time>2019-07-14T19:40:29Z</time>
      </trkpt>
      <trkpt lat="35.116041700" lon="-106.625196080">
        <ele>1526.900</ele>
        <time>2019-07-14T19:40:30Z</time>
      </trkpt>
      <trkpt lat="35.116313440" lon="-106.625103020">
        <ele>1526.500</ele>
        <time>2019-07-14T19:40:31Z</time>
      </trkpt>
      <trkpt lat="35.116574930" lon="-106.625005740">
        <ele>1525.500</ele>
        <time>2019-07-14T19:40:32Z</time>
      </trkpt>
      <trkpt lat="35.116844170" lon="-106.624911440">
        <ele>1525.100</ele>
        <time>2019-07-14T19:40:33Z</time>
      </trkpt>
      <trkpt lat="35.117116220" lon="-106.624812240">
        <ele>1524.700</ele>
        <time>2019-07-14T19:40:34Z</time>
      </trkpt>
      <trkpt lat="35.117384570" lon="-106.624713960">
        <ele>1524.600</ele>
        <time>2019-07-14T19:40:35Z</time>
      </trkpt>
      <trkpt lat="35.117654270" lon="-106.624615310">
        <ele>1523.600</ele>
        <time>2019-07-14T19:40:36Z</time>
      </trkpt>
      <trkpt lat="35.117926280" lon="-106.624520630">
        <ele>1523.700</ele>
        <time>2019-07-14T19:40:37Z</time>
      </trkpt>
      <trkpt lat="35.118193010" lon="-106.624427300">
        <ele>1523.000</ele>
        <time>2019-07-14T19:40:38Z</time>
      </trkpt>
      <trkpt lat="35.118460590" lon="-106.624331720">
        <ele>1523.500</ele>
        <time>2019-07-14T19:40:39Z</time>
      </trkpt>
      <trkpt lat="35.118728690" lon="-106.624234560">
        <ele>1523.800</ele>
        <time>2019-07-14T19:40:40Z</time>
      </trkpt>
      <trkpt lat="35.118993480" lon="-106.624134420">
        <ele>1523.800</ele>
        <time>2019-07-14T19:40:41Z</time>
      </trkpt>
      <trkpt lat="35.119261960" lon="-106.624030850">
        <ele>1524.400</ele>
        <time>2019-07-14T19:40:42Z</time>
      </trkpt>
      <trkpt lat="35.119525460" lon="-106.623932800">
        <ele>1524.900</ele>
        <time>2019-07-14T19:40:43Z</time>
      </trkpt>
      <trkpt lat="35.119791960" lon="-106.623834390">
        <ele>1525.500</ele>
        <time>2019-07-14T19:40:44Z</time>
      </trkpt>
      <trkpt lat="35.120057260" lon="-106.623739500">
        <ele>1525.600</ele>
        <time>2019-07-14T19:40:45Z</time>
      </trkpt>
      <trkpt lat="35.120329150" lon="-106.623640010">
        <ele>1526.000</ele>
        <time>2019-07-14T19:40:46Z</time>
      </trkpt>
      <trkpt lat="35.120598090" lon="-106.623540130">
        <ele>1525.700</ele>
        <time>2019-07-14T19:40:47Z</time>
      </trkpt>
      <trkpt lat="35.120864430" lon="-106.623430100">
        <ele>1526.000</ele>
        <time>2019-07-14T19:40:48Z</time>
      </trkpt>
      <trkpt lat="35.121127430" lon="-106.623324110">
        <ele>1525.900</ele>
        <time>2019-07-14T19:40:49Z</time>
      </trkpt>
      <trkpt lat="35.121391340" lon="-106.623213500">
        <ele>1526.400</ele>
        <time>2019-07-14T19:40:50Z</time>
      </trkpt>
      <trkpt lat="35.121650850" lon="-106.623087980">
        <ele>1526.800</ele>
        <time>2019-07-14T19:40:51Z</time>
      </trkpt>
      <trkpt lat="35.121903820" lon="-106.622960510">
        <ele>1527.100</ele>
        <time>2019-07-14T19:40:52Z</time>
      </trkpt>
      <trkpt lat="35.122151950" lon="-106.622832880">
        <ele>1526.000</ele>
        <time>2019-07-14T19:40:53Z</time>
      </trkpt>
      <trkpt lat="35.122401990" lon="-106.622694780">
        <ele>1526.100</ele>
        <time>2019-07-14T19:40:54Z</time>
      </trkpt>
      <trkpt lat="35.122650480" lon="-106.622544200">
        <ele>1525.900</ele>
        <time>2019-07-14T19:40:55Z</time>
      </trkpt>
      <trkpt lat="35.122897700" lon="-106.622391020">
        <ele>1525.500</ele>
        <time>2019-07-14T19:40:56Z</time>
      </trkpt>
      <trkpt lat="35.123146030" lon="-106.622229380">
        <ele>1525.400</ele>
        <time>2019-07-14T19:40:57Z</time>
      </trkpt>
      <trkpt lat="35.123390370" lon="-106.622064160">
        <ele>1525.300</ele>
        <time>2019-07-14T19:40:58Z</time>
      </trkpt>
      <trkpt lat="35.123634780" lon="-106.621887510">
        <ele>1524.600</ele>
        <time>2019-07-14T19:40:59Z</time>
      </trkpt>
      <trkpt lat="35.123876210" lon="-106.621711740">
        <ele>1523.400</ele>
        <time>2019-07-14T19:41:00Z</time>
      </trkpt>
      <trkpt lat="35.124117270" lon="-106.621526230">
        <ele>1522.400</ele>
        <time>2019-07-14T19:41:01Z</time>
      </trkpt>
      <trkpt lat="35.124352690" lon="-106.621338690">
        <ele>1522.200</ele>
        <time>2019-07-14T19:41:02Z</time>
      </trkpt>
      <trkpt lat="35.124585710" lon="-106.621142980">
        <ele>1521.900</ele>
        <time>2019-07-14T19:41:03Z</time>
      </trkpt>
      <trkpt lat="35.124815340" lon="-106.620952460">
        <ele>1520.200</ele>
        <time>2019-07-14T19:41:04Z</time>
      </trkpt>
      <trkpt lat="35.125042840" lon="-106.620741480">
        <ele>1520.300</ele>
        <time>2019-07-14T19:41:05Z</time>
      </trkpt>
      <trkpt lat="35.125265810" lon="-106.620551850">
        <ele>1519.600</ele>
        <time>2019-07-14T19:41:06Z</time>
      </trkpt>
      <trkpt lat="35.125483890" lon="-106.620346970">
        <ele>1519.000</ele>
        <time>2019-07-14T19:41:07Z</time>
      </trkpt>
      <trkpt lat="35.125699740" lon="-106.620137330">
        <ele>1518.800</ele>
        <time>2019-07-14T19:41:08Z</time>
      </trkpt>
      <trkpt lat="35.125909750" lon="-106.619923500">
        <ele>1518.500</ele>
        <time>2019-07-14T19:41:09Z</time>
      </trkpt>
      <trkpt lat="35.126121160" lon="-106.619698760">
        <ele>1518.800</ele>
        <time>2019-07-14T19:41:10Z</time>
      </trkpt>
      <trkpt lat="35.126327770" lon="-106.619472380">
        <ele>1519.300</ele>
        <time>2019-07-14T19:41:11Z</time>
      </trkpt>
      <trkpt lat="35.126521310" lon="-106.619231960">
        <ele>1519.100</ele>
        <time>2019-07-14T19:41:12Z</time>
      </trkpt>
      <trkpt lat="35.126718760" lon="-106.618995530">
        <ele>1519.700</ele>
        <time>2019-07-14T19:41:13Z</time>
      </trkpt>
      <trkpt lat="35.126918600" lon="-106.618761050">
        <ele>1520.900</ele>
        <time>2019-07-14T19:41:14Z</time>
      </trkpt>
      <trkpt lat="35.127108220" lon="-106.618524580">
        <ele>1520.900</ele>
        <time>2019-07-14T19:41:15Z</time>
      </trkpt>
      <trkpt lat="35.127303060" lon="-106.618278210">
        <ele>1521.000</ele>
        <time>2019-07-14T19:41:16Z</time>
      </trkpt>
      <trkpt lat="35.127495200" lon="-106.618027580">
        <ele>1521.700</ele>
        <time>2019-07-14T19:41:17Z</time>
      </trkpt>
      <trkpt lat="35.127679500" lon="-106.617767270">
        <ele>1521.900</ele>
        <time>2019-07-14T19:41:18Z</time>
      </trkpt>
      <trkpt lat="35.127858020" lon="-106.617511910">
        <ele>1522.200</ele>
        <time>2019-07-14T19:41:19Z</time>
      </trkpt>
      <trkpt lat="35.128038710" lon="-106.617250850">
        <ele>1522.100</ele>
        <time>2019-07-14T19:41:20Z</time>
      </trkpt>
      <trkpt lat="35.128206700" lon="-106.616977900">
        <ele>1522.900</ele>
        <time>2019-07-14T19:41:21Z</time>
      </trkpt>
      <trkpt lat="35.128373120" lon="-106.616706460">
        <ele>1522.100</ele>
        <time>2019-07-14T19:41:22Z</time>
      </trkpt>
      <trkpt lat="35.128544410" lon="-106.616424190">
        <ele>1523.000</ele>
        <time>2019-07-14T19:41:23Z</time>
      </trkpt>
      <trkpt lat="35.128712720" lon="-106.616163470">
        <ele>1522.800</ele>
        <time>2019-07-14T19:41:24Z</time>
      </trkpt>
      <trkpt lat="35.128877580" lon="-106.615894250">
        <ele>1521.700</ele>
        <time>2019-07-14T19:41:25Z</time>
      </trkpt>
      <trkpt lat="35.129042050" lon="-106.615617080">
        <ele>1521.100</ele>
        <time>2019-07-14T19:41:26Z</time>
      </trkpt>
      <trkpt lat="35.129199770" lon="-106.615337290">
        <ele>1520.900</ele>
        <time>2019-07-14T19:41:27Z</time>
      </trkpt>
      <trkpt lat="35.129363780" lon="-106.615075340">
        <ele>1521.900</ele>
        <time>2019-07-14T19:41:28Z</time>
      </trkpt>
      <trkpt lat="35.129531590" lon="-106.614822690">
        <ele>1523.300</ele>
        <time>2019-07-14T19:41:29Z</time>
      </trkpt>
      <trkpt lat="35.129691300" lon="-106.614545630">
        <ele>1524.400</ele>
        <time>2019-07-14T19:41:30Z</time>
      </trkpt>
      <trkpt lat="35.129864810" lon="-106.614282010">
        <ele>1523.300</ele>
        <time>2019-07-14T19:41:31Z</time>
      </trkpt>
      <trkpt lat="35.130040620" lon="-106.614016320">
        <ele>1523.300</ele>
        <time>2019-07-14T19:41:32Z</time>
      </trkpt>
      <trkpt lat="35.130198410" lon="-106.613749110">
        <ele>1523.600</ele>
        <time>2019-07-14T19:41:33Z</time>
      </trkpt>
      <trkpt lat="35.130376880" lon="-106.613477600">
        <ele>1523.600</ele>
        <time>2019-07-14T19:41:34Z</time>
      </trkpt>
      <trkpt lat="35.130542230" lon="-106.613203550">
        <ele>1523.900</ele>
        <time>2019-07-14T19:41:35Z</time>
      </trkpt>
      <trkpt lat="35.130713610" lon="-106.612930530">
        <ele>1524.100</ele>
        <time>2019-07-14T19:41:36Z</time>
      </trkpt>
      <trkpt lat="35.130867610" lon="-106.612651420">
        <ele>1524.300</ele>
        <time>2019-07-14T19:41:37Z</time>
      </trkpt>
      <trkpt lat="35.131025860" lon="-106.612373190">
        <ele>1524.200</ele>
        <time>2019-07-14T19:41:38Z</time>
      </trkpt>
      <trkpt lat="35.131188220" lon="-106.612091700">
        <ele>1524.000</ele>
        <time>2019-07-14T19:41:39Z</time>
      </trkpt>
      <trkpt lat="35.131352640" lon="-106.611818310">
        <ele>1524.000</ele>
        <time>2019-07-14T19:41:40Z</time>
      </trkpt>
      <trkpt lat="35.131513820" lon="-106.611543550">
        <ele>1524.300</ele>
        <time>2019-07-14T19:41:41Z</time>
      </trkpt>
      <trkpt lat="35.131677440" lon="-106.611273260">
        <ele>1525.900</ele>
        <time>2019-07-14T19:41:42Z</time>
      </trkpt>
      <trkpt lat="35.131853720" lon="-106.610998550">
        <ele>1527.000</ele>
        <time>2019-07-14T19:41:43Z</time>
      </trkpt>
      <trkpt lat="35.132025950" lon="-106.610732670">
        <ele>1527.500</ele>
        <time>2019-07-14T19:41:44Z</time>
      </trkpt>
      <trkpt lat="35.132200330" lon="-106.610453530">
        <ele>1527.500</ele>
        <time>2019-07-14T19:41:45Z</time>
      </trkpt>
      <trkpt lat="35.132353990" lon="-106.610179790">
        <ele>1526.700</ele>
        <time>2019-07-14T19:41:46Z</time>
      </trkpt>
      <trkpt lat="35.132530890" lon="-106.609904880">
        <ele>1526.800</ele>
        <time>2019-07-14T19:41:47Z</time>
      </trkpt>
      <trkpt lat="35.132694600" lon="-106.609632340">
        <ele>1527.300</ele>
        <time>2019-07-14T19:41:48Z</time>
      </trkpt>
      <trkpt lat="35.132869550" lon="-106.609367820">
        <ele>1527.800</ele>
        <time>2019-07-14T19:41:49Z</time>
      </trkpt>
      <trkpt lat="35.133032950" lon="-106.609096920">
        <ele>1527.900</ele>
        <time>2019-07-14T19:41:50Z</time>
      </trkpt>
      <trkpt lat="35.133196180" lon="-106.608817680">
        <ele>1528.000</ele>
        <time>2019-07-14T19:41:51Z</time>
      </trkpt>
      <trkpt lat="35.133361860" lon="-106.608557260">
        <ele>1528.500</ele>
        <time>2019-07-14T19:41:52Z</time>
      </trkpt>
      <trkpt lat="35.133532740" lon="-106.608286620">
        <ele>1528.400</ele>
        <time>2019-07-14T19:41:53Z</time>
      </trkpt>
      <trkpt lat="35.133702360" lon="-106.608024000">
        <ele>1527.800</ele>
        <time>2019-07-14T19:41:54Z</time>
      </trkpt>
      <trkpt lat="35.133867150" lon="-106.607755360">
        <ele>1527.500</ele>
        <time>2019-07-14T19:41:55Z</time>
      </trkpt>
      <trkpt lat="35.134033390" lon="-106.607472340">
        <ele>1527.300</ele>
        <time>2019-07-14T19:41:56Z</time>
      </trkpt>
      <trkpt lat="35.134209420" lon="-106.607198510">
        <ele>1528.300</ele>
        <time>2019-07-14T19:41:57Z</time>
      </trkpt>
      <trkpt lat="35.134375220" lon="-106.606926700">
        <ele>1529.000</ele>
        <time>2019-07-14T19:41:58Z</time>
      </trkpt>
      <trkpt lat="35.134546920" lon="-106.606670470">
        <ele>1529.200</ele>
        <time>2019-07-14T19:41:59Z</time>
      </trkpt>
      <trkpt lat="35.134710880" lon="-106.606393300">
        <ele>1529.800</ele>
        <time>2019-07-14T19:42:00Z</time>
      </trkpt>
      <trkpt lat="35.134881040" lon="-106.606125550">
        <ele>1530.900</ele>
        <time>2019-07-14T19:42:01Z</time>
      </trkpt>
      <trkpt lat="35.135049310" lon="-106.605851940">
        <ele>1531.400</ele>
        <time>2019-07-14T19:42:02Z</time>
      </trkpt>
      <trkpt lat="35.135211470" lon="-106.605585000">
        <ele>1529.800</ele>
        <time>2019-07-14T19:42:03Z</time>
      </trkpt>
      <trkpt lat="35.135382300" lon="-106.605307910">
        <ele>1529.000</ele>
        <time>2019-07-14T19:42:04Z</time>
      </trkpt>
      <trkpt lat="35.135551550" lon="-106.605032040">
        <ele>1528.200</ele>
        <time>2019-07-14T19:42:05Z</time>
      </trkpt>
      <trkpt lat="35.135700080" lon="-106.604752780">
        <ele>1526.800</ele>
        <time>2019-07-14T19:42:06Z</time>
      </trkpt>
      <trkpt lat="35.135866300" lon="-106.604473820">
        <ele>1527.800</ele>
        <time>2019-07-14T19:42:07Z</time>
      </trkpt>
      <trkpt lat="35.136025370" lon="-106.604200540">
        <ele>1526.500</ele>
        <time>2019-07-14T19:42:08Z</time>
      </trkpt>
      <trkpt lat="35.136186500" lon="-106.603909070">
        <ele>1527.400</ele>
        <time>2019-07-14T19:42:09Z</time>
      </trkpt>
      <trkpt lat="35.136346420" lon="-106.603637350">
        <ele>1527.900</ele>
        <time>2019-07-14T19:42:10Z</time>
      </trkpt>
      <trkpt lat="35.136517960" lon="-106.603364170">
        <ele>1528.900</ele>
        <time>2019-07-14T19:42:11Z</time>
      </trkpt>
      <trkpt lat="35.136676830" lon="-106.603102250">
        <ele>1528.600</ele>
        <time>2019-07-14T19:42:12Z</time>
      </trkpt>
      <trkpt lat="35.136834950" lon="-106.602830340">
        <ele>1528.700</ele>
        <time>2019-07-14T19:42:13Z</time>
      </trkpt>
      <trkpt lat="35.137007260" lon="-106.602565220">
        <ele>1529.000</ele>
        <time>2019-07-14T19:42:14Z</time>
      </trkpt>
      <trkpt lat="35.137179440" lon="-106.602299140">
        <ele>1530.000</ele>
        <time>2019-07-14T19:42:15Z</time>
      </trkpt>
      <trkpt lat="35.137336090" lon="-106.602033510">
        <ele>1529.700</ele>
        <time>2019-07-14T19:42:16Z</time>
      </trkpt>
      <trkpt lat="35.137497700" lon="-106.601757970">
        <ele>1529.700</ele>
        <time>2019-07-14T19:42:17Z</time>
      </trkpt>
      <trkpt lat="35.137665210" lon="-106.601471560">
        <ele>1530.800</ele>
        <time>2019-07-14T19:42:18Z</time>
      </trkpt>
      <trkpt lat="35.137831180" lon="-106.601203700">
        <ele>1530.800</ele>
        <time>2019-07-14T19:42:19Z</time>
      </trkpt>
      <trkpt lat="35.137997890" lon="-106.600921990">
        <ele>1532.800</ele>
        <time>2019-07-14T19:42:20Z</time>
      </trkpt>
      <trkpt lat="35.138152430" lon="-106.600655450">
        <ele>1531.200</ele>
        <time>2019-07-14T19:42:21Z</time>
      </trkpt>
      <trkpt lat="35.138321920" lon="-106.600390950">
        <ele>1530.800</ele>
        <time>2019-07-14T19:42:22Z</time>
      </trkpt>
      <trkpt lat="35.138484970" lon="-106.600107770">
        <ele>1531.700</ele>
        <time>2019-07-14T19:42:23Z</time>
      </trkpt>
      <trkpt lat="35.138660050" lon="-106.599819740">
        <ele>1532.500</ele>
        <time>2019-07-14T19:42:24Z</time>
      </trkpt>
      <trkpt lat="35.138830730" lon="-106.599541190">
        <ele>1534.400</ele>
        <time>2019-07-14T19:42:25Z</time>
      </trkpt>
      <trkpt lat="35.139002180" lon="-106.599248560">
        <ele>1535.500</ele>
        <time>2019-07-14T19:42:26Z</time>
      </trkpt>
      <trkpt lat="35.139160770" lon="-106.598986430">
        <ele>1534.700</ele>
        <time>2019-07-14T19:42:27Z</time>
      </trkpt>
      <trkpt lat="35.139302960" lon="-106.598718040">
        <ele>1533.700</ele>
        <time>2019-07-14T19:42:28Z</time>
      </trkpt>
      <trkpt lat="35.139480320" lon="-106.598427270">
        <ele>1533.300</ele>
        <time>2019-07-14T19:42:29Z</time>
      </trkpt>
      <trkpt lat="35.139660120" lon="-106.598137240">
        <ele>1535.500</ele>
        <time>2019-07-14T19:42:30Z</time>
      </trkpt>
      <trkpt lat="35.139834840" lon="-106.597861600">
        <ele>1536.000</ele>
        <time>2019-07-14T19:42:31Z</time>
      </trkpt>
      <trkpt lat="35.140012720" lon="-106.597572550">
        <ele>1536.200</ele>
        <time>2019-07-14T19:42:32Z</time>
      </trkpt>
      <trkpt lat="35.140195180" lon="-106.597279810">
        <ele>1537.000</ele>
        <time>2019-07-14T19:42:33Z</time>
      </trkpt>
      <trkpt lat="35.140375690" lon="-106.596995740">
        <ele>1539.100</ele>
        <time>2019-07-14T19:42:34Z</time>
      </trkpt>
      <trkpt lat="35.140544900" lon="-106.596709100">
        <ele>1539.100</ele>
        <time>2019-07-14T19:42:35Z</time>
      </trkpt>
      <trkpt lat="35.140720050" lon="-106.596422620">
        <ele>1539.500</ele>
        <time>2019-07-14T19:42:36Z</time>
      </trkpt>
      <trkpt lat="35.140893880" lon="-106.596128430">
        <ele>1539.200</ele>
        <time>2019-07-14T19:42:37Z</time>
      </trkpt>
      <trkpt lat="35.141062260" lon="-106.595844920">
        <ele>1539.500</ele>
        <time>2019-07-14T19:42:38Z</time>
      </trkpt>
      <trkpt lat="35.141236780" lon="-106.595570400">
        <ele>1539.800</ele>
        <time>2019-07-14T19:42:39Z</time>
      </trkpt>
      <trkpt lat="35.141409790" lon="-106.595287900">
        <ele>1540.800</ele>
        <time>2019-07-14T19:42:40Z</time>
      </trkpt>
      <trkpt lat="35.141583440" lon="-106.595005670">
        <ele>1542.200</ele>
        <time>2019-07-14T19:42:41Z</time>
      </trkpt>
      <trkpt lat="35.141757870" lon="-106.594726400">
        <ele>1544.500</ele>
        <time>2019-07-14T19:42:42Z</time>
      </trkpt>
      <trkpt lat="35.141931580" lon="-106.594439500">
        <ele>1544.200</ele>
        <time>2019-07-14T19:42:43Z</time>
      </trkpt>
      <trkpt lat="35.142098950" lon="-106.594156320">
        <ele>1545.100</ele>
        <time>2019-07-14T19:42:44Z</time>
      </trkpt>
      <trkpt lat="35.142283390" lon="-106.593880250">
        <ele>1547.200</ele>
        <time>2019-07-14T19:42:45Z</time>
      </trkpt>
      <trkpt lat="35.142464760" lon="-106.593607420">
        <ele>1549.200</ele>
        <time>2019-07-14T19:42:46Z</time>
      </trkpt>
      <trkpt lat="35.142649810" lon="-106.593331280">
        <ele>1549.900</ele>
        <time>2019-07-14T19:42:47Z</time>
      </trkpt>
      <trkpt lat="35.142831680" lon="-106.593056720">
        <ele>1550.900</ele>
        <time>2019-07-14T19:42:48Z</time>
      </trkpt>
      <trkpt lat="35.143025290" lon="-106.592785980">
        <ele>1551.200</ele>
        <time>2019-07-14T19:42:49Z</time>
      </trkpt>
      <trkpt lat="35.143231640" lon="-106.592531030">
        <ele>1552.600</ele>
        <time>2019-07-14T19:42:50Z</time>
      </trkpt>
      <trkpt lat="35.143444530" lon="-106.592286590">
        <ele>1552.700</ele>
        <time>2019-07-14T19:42:51Z</time>
      </trkpt>
      <trkpt lat="35.143661490" lon="-106.592042010">
        <ele>1553.700</ele>
        <time>2019-07-14T19:42:52Z</time>
      </trkpt>
      <trkpt lat="35.143884250" lon="-106.591812730">
        <ele>1554.200</ele>
        <time>2019-07-14T19:42:53Z</time>
      </trkpt>
      <trkpt lat="35.144114860" lon="-106.591596010">
        <ele>1554.600</ele>
        <time>2019-07-14T19:42:54Z</time>
      </trkpt>
      <trkpt lat="35.144345380" lon="-106.591395340">
        <ele>1555.000</ele>
        <time>2019-07-14T19:42:55Z</time>
      </trkpt>
      <trkpt lat="35.144590930" lon="-106.591201960">
        <ele>1555.600</ele>
        <time>2019-07-14T19:42:56Z</time>
      </trkpt>
      <trkpt lat="35.144843820" lon="-106.591015870">
        <ele>1556.800</ele>
        <time>2019-07-14T19:42:57Z</time>
      </trkpt>
      <trkpt lat="35.145096480" lon="-106.590843940">
        <ele>1557.400</ele>
        <time>2019-07-14T19:42:58Z</time>
      </trkpt>
      <trkpt lat="35.145353690" lon="-106.590681600">
        <ele>1558.000</ele>
        <time>2019-07-14T19:42:59Z</time>
      </trkpt>
      <trkpt lat="35.145611560" lon="-106.590532920">
        <ele>1559.100</ele>
        <time>2019-07-14T19:43:00Z</time>
      </trkpt>
      <trkpt lat="35.145877950" lon="-106.590399470">
        <ele>1560.000</ele>
        <time>2019-07-14T19:43:01Z</time>
      </trkpt>
      <trkpt lat="35.146151380" lon="-106.590271380">
        <ele>1560.400</ele>
        <time>2019-07-14T19:43:02Z</time>
      </trkpt>
      <trkpt lat="35.146434140" lon="-106.590151630">
        <ele>1561.300</ele>
        <time>2019-07-14T19:43:03Z</time>
      </trkpt>
      <trkpt lat="35.146712750" lon="-106.590044790">
        <ele>1561.400</ele>
        <time>2019-07-14T19:43:04Z</time>
      </trkpt>
      <trkpt lat="35.146991400" lon="-106.589967370">
        <ele>1560.200</ele>
        <time>2019-07-14T19:43:05Z</time>
      </trkpt>
      <trkpt lat="35.147285610" lon="-106.589889200">
        <ele>1560.800</ele>
        <time>2019-07-14T19:43:06Z</time>
      </trkpt>
      <trkpt lat="35.147572870" lon="-106.589807380">
        <ele>1560.900</ele>
        <time>2019-07-14T19:43:07Z</time>
      </trkpt>
      <trkpt lat="35.147856340" lon="-106.589742930">
        <ele>1561.400</ele>
        <time>2019-07-14T19:43:08Z</time>
      </trkpt>
      <trkpt lat="35.148140270" lon="-106.589687130">
        <ele>1561.600</ele>
        <time>2019-07-14T19:43:09Z</time>
      </trkpt>
      <trkpt lat="35.148426260" lon="-106.589618340">
        <ele>1561.900</ele>
        <time>2019-07-14T19:43:10Z</time>
      </trkpt>
      <trkpt lat="35.148712350" lon="-106.589561020">
        <ele>1561.400</ele>
        <time>2019-07-14T19:43:11Z</time>
      </trkpt>
      <trkpt lat="35.148999320" lon="-106.589495920">
        <ele>1561.700</ele>
        <time>2019-07-14T19:43:12Z</time>
      </trkpt>
      <trkpt lat="35.149287000" lon="-106.589429660">
        <ele>1562.200</ele>
        <time>2019-07-14T19:43:13Z</time>
      </trkpt>
      <trkpt lat="35.149569800" lon="-106.589369300">
        <ele>1561.700</ele>
        <time>2019-07-14T19:43:14Z</time>
      </trkpt>
      <trkpt lat="35.149855080" lon="-106.589308540">
        <ele>1562.100</ele>
        <time>2019-07-14T19:43:15Z</time>
      </trkpt>
      <trkpt lat="35.150145620" lon="-106.589236110">
        <ele>1561.800</ele>
        <time>2019-07-14T19:43:16Z</time>
      </trkpt>
      <trkpt lat="35.150430850" lon="-106.589178350">
        <ele>1561.300</ele>
        <time>2019-07-14T19:43:17Z</time>
      </trkpt>
      <trkpt lat="35.150722820" lon="-106.589110550">
        <ele>1561.500</ele>
        <time>2019-07-14T19:43:18Z</time>
      </trkpt>
      <trkpt lat="35.151009170" lon="-106.589040280">
        <ele>1561.100</ele>
        <time>2019-07-14T19:43:19Z</time>
      </trkpt>
      <trkpt lat="35.151293230" lon="-106.588973360">
        <ele>1561.400</ele>
        <time>2019-07-14T19:43:20Z</time>
      </trkpt>
      <trkpt lat="35.151575800" lon="-106.588914720">
        <ele>1561.400</ele>
        <time>2019-07-14T19:43:21Z</time>
      </trkpt>
      <trkpt lat="35.151864260" lon="-106.588859570">
        <ele>1560.900</ele>
        <time>2019-07-14T19:43:22Z</time>
      </trkpt>
      <trkpt lat="35.152157930" lon="-106.588802910">
        <ele>1561.300</ele>
        <time>2019-07-14T19:43:23Z</time>
      </trkpt>
      <trkpt lat="35.152450970" lon="-106.588750230">
        <ele>1561.700</ele>
        <time>2019-07-14T19:43:24Z</time>
      </trkpt>
      <trkpt lat="35.152740070" lon="-106.588694850">
        <ele>1561.800</ele>
        <time>2019-07-14T19:43:25Z</time>
      </trkpt>
      <trkpt lat="35.153026310" lon="-106.588639840">
        <ele>1561.800</ele>
        <time>2019-07-14T19:43:26Z</time>
      </trkpt>
      <trkpt lat="35.153311880" lon="-106.588581090">
        <ele>1561.800</ele>
        <time>2019-07-14T19:43:27Z</time>
      </trkpt>
      <trkpt lat="35.153601060" lon="-106.588519990">
        <ele>1561.900</ele>
        <time>2019-07-14T19:43:28Z</time>
      </trkpt>
      <trkpt lat="35.153889200" lon="-106.588457280">
        <ele>1561.400</ele>
        <time>2019-07-14T19:43:29Z</time>
      </trkpt>
      <trkpt lat="35.154179120" lon="-106.588392220">
        <ele>1561.300</ele>
        <time>2019-07-14T19:43:30Z</time>
      </trkpt>
      <trkpt lat="35.154468440" lon="-106.588318640">
        <ele>1561.100</ele>
        <time>2019-07-14T19:43:31Z</time>
      </trkpt>
      <trkpt lat="35.154762350" lon="-106.588255310">
        <ele>1560.900</ele>
        <time>2019-07-14T19:43:32Z</time>
      </trkpt>
      <trkpt lat="35.155053270" lon="-106.588192290">
        <ele>1561.100</ele>
        <time>2019-07-14T19:43:33Z</time>
      </trkpt>
      <trkpt lat="35.155339250" lon="-106.588127240">
        <ele>1560.800</ele>
        <time>2019-07-14T19:43:34Z</time>
      </trkpt>
      <trkpt lat="35.155629490" lon="-106.588058530">
        <ele>1561.300</ele>
        <time>2019-07-14T19:43:35Z</time>
      </trkpt>
      <trkpt lat="35.155913610" lon="-106.587992040">
        <ele>1561.100</ele>
        <time>2019-07-14T19:43:36Z</time>
      </trkpt>
      <trkpt lat="35.156206460" lon="-106.587921060">
        <ele>1560.600</ele>
        <time>2019-07-14T19:43:37Z</time>
      </trkpt>
      <trkpt lat="35.156492200" lon="-106.587855310">
        <ele>1560.800</ele>
        <time>2019-07-14T19:43:38Z</time>
      </trkpt>
      <trkpt lat="35.156784010" lon="-106.587790340">
        <ele>1561.000</ele>
        <time>2019-07-14T19:43:39Z</time>
      </trkpt>
      <trkpt lat="35.157077080" lon="-106.587722020">
        <ele>1560.900</ele>
        <time>2019-07-14T19:43:40Z</time>
      </trkpt>
      <trkpt lat="35.157367800" lon="-106.587652240">
        <ele>1560.900</ele>
        <time>2019-07-14T19:43:41Z</time>
      </trkpt>
      <trkpt lat="35.157659120" lon="-106.587579160">
        <ele>1560.700</ele>
        <time>2019-07-14T19:43:42Z</time>
      </trkpt>
      <trkpt lat="35.157949010" lon="-106.587512240">
        <ele>1561.200</ele>
        <time>2019-07-14T19:43:43Z</time>
      </trkpt>
      <trkpt lat="35.158237780" lon="-106.587442760">
        <ele>1561.300</ele>
        <time>2019-07-14T19:43:44Z</time>
      </trkpt>
      <trkpt lat="35.158526080" lon="-106.587372370">
        <ele>1561.100</ele>
        <time>2019-07-14T19:43:45Z</time>
      </trkpt>
      <trkpt lat="35.158815070" lon="-106.587310350">
        <ele>1561.300</ele>
        <time>2019-07-14T19:43:46Z</time>
      </trkpt>
      <trkpt lat="35.159098930" lon="-106.587244920">
        <ele>1561.300</ele>
        <time>2019-07-14T19:43:47Z</time>
      </trkpt>
      <trkpt lat="35.159391060" lon="-106.587182940">
        <ele>1560.800</ele>
        <time>2019-07-14T19:43:48Z</time>
      </trkpt>
      <trkpt lat="35.159683310" lon="-106.587116990">
        <ele>1561.300</ele>
        <time>2019-07-14T19:43:49Z</time>
      </trkpt>
      <trkpt lat="35.159978930" lon="-106.587052520">
        <ele>1561.600</ele>
        <time>2019-07-14T19:43:50Z</time>
      </trkpt>
      <trkpt lat="35.160266900" lon="-106.586995200">
        <ele>1561.900</ele>
        <time>2019-07-14T19:43:51Z</time>
      </trkpt>
      <trkpt lat="35.160554270" lon="-106.586924240">
        <ele>1561.800</ele>
        <time>2019-07-14T19:43:52Z</time>
      </trkpt>
      <trkpt lat="35.160842780" lon="-106.586861600">
        <ele>1562.000</ele>
        <time>2019-07-14T19:43:53Z</time>
      </trkpt>
      <trkpt lat="35.161135820" lon="-106.586795520">
        <ele>1561.700</ele>
        <time>2019-07-14T19:43:54Z</time>
      </trkpt>
      <trkpt lat="35.161425430" lon="-106.586736470">
        <ele>1561.900</ele>
        <time>2019-07-14T19:43:55Z</time>
      </trkpt>
      <trkpt lat="35.161714000" lon="-106.586671800">
        <ele>1561.500</ele>
        <time>2019-07-14T19:43:56Z</time>
      </trkpt>
      <trkpt lat="35.162004120" lon="-106.586598840">
        <ele>1561.300</ele>
        <time>2019-07-14T19:43:57Z</time>
      </trkpt>
      <trkpt lat="35.162295530" lon="-106.586537090">
        <ele>1561.600</ele>
        <time>2019-07-14T19:43:58Z</time>
      </trkpt>
      <trkpt lat="35.162583250" lon="-106.586468760">
        <ele>1560.900</ele>
        <time>2019-07-14T19:43:59Z</time>
      </trkpt>
      <trkpt lat="35.162872900" lon="-106.586403910">
        <ele>1560.900</ele>
        <time>2019-07-14T19:44:00Z</time>
      </trkpt>
      <trkpt lat="35.163158920" lon="-106.586341900">
        <ele>1560.700</ele>
        <time>2019-07-14T19:44:01Z</time>
      </trkpt>
      <trkpt lat="35.163451430" lon="-106.586274160">
        <ele>1560.400</ele>
        <time>2019-07-14T19:44:02Z</time>
      </trkpt>
      <trkpt lat="35.163744730" lon="-106.586219700">
        <ele>1560.100</ele>
        <time>2019-07-14T19:44:03Z</time>
      </trkpt>
      <trkpt lat="35.164033810" lon="-106.586145960">
        <ele>1559.500</ele>
        <time>2019-07-14T19:44:04Z</time>
      </trkpt>
      <trkpt lat="35.164326300" lon="-106.586078100">
        <ele>1558.900</ele>
        <time>2019-07-14T19:44:05Z</time>
      </trkpt>
      <trkpt lat="35.164613240" lon="-106.586015380">
        <ele>1558.700</ele>
        <time>2019-07-14T19:44:06Z</time>
      </trkpt>
      <trkpt lat="35.164907220" lon="-106.585943890">
        <ele>1558.900</ele>
        <time>2019-07-14T19:44:07Z</time>
      </trkpt>
      <trkpt lat="35.165194940" lon="-106.585875810">
        <ele>1558.200</ele>
        <time>2019-07-14T19:44:08Z</time>
      </trkpt>
      <trkpt lat="35.165485830" lon="-106.585810530">
        <ele>1558.200</ele>
        <time>2019-07-14T19:44:09Z</time>
      </trkpt>
      <trkpt lat="35.165777160" lon="-106.585741960">
        <ele>1558.400</ele>
        <time>2019-07-14T19:44:10Z</time>
      </trkpt>
      <trkpt lat="35.166068760" lon="-106.585676130">
        <ele>1558.900</ele>
        <time>2019-07-14T19:44:11Z</time>
      </trkpt>
      <trkpt lat="35.166345980" lon="-106.585619410">
        <ele>1559.200</ele>
        <time>2019-07-14T19:44:12Z</time>
      </trkpt>
      <trkpt lat="35.166633680" lon="-106.585548600">
        <ele>1559.800</ele>
        <time>2019-07-14T19:44:13Z</time>
      </trkpt>
      <trkpt lat="35.166920820" lon="-106.585483570">
        <ele>1559.900</ele>
        <time>2019-07-14T19:44:14Z</time>
      </trkpt>
      <trkpt lat="35.167215430" lon="-106.585417440">
        <ele>1559.500</ele>
        <time>2019-07-14T19:44:15Z</time>
      </trkpt>
      <trkpt lat="35.167505300" lon="-106.585351040">
        <ele>1560.100</ele>
        <time>2019-07-14T19:44:16Z</time>
      </trkpt>
      <trkpt lat="35.167795230" lon="-106.585290240">
        <ele>1560.700</ele>
        <time>2019-07-14T19:44:17Z</time>
      </trkpt>
      <trkpt lat="35.168083730" lon="-106.585227240">
        <ele>1560.800</ele>
        <time>2019-07-14T19:44:18Z</time>
      </trkpt>
      <trkpt lat="35.168374710" lon="-106.585160250">
        <ele>1561.400</ele>
        <time>2019-07-14T19:44:19Z</time>
      </trkpt>
      <trkpt lat="35.168659610" lon="-106.585085960">
        <ele>1560.800</ele>
        <time>2019-07-14T19:44:20Z</time>
      </trkpt>
      <trkpt lat="35.168948980" lon="-106.585019810">
        <ele>1561.100</ele>
        <time>2019-07-14T19:44:21Z</time>
      </trkpt>
      <trkpt lat="35.169241110" lon="-106.584955660">
        <ele>1560.900</ele>
        <time>2019-07-14T19:44:22Z</time>
      </trkpt>
      <trkpt lat="35.169539690" lon="-106.584890600">
        <ele>1561.100</ele>
        <time>2019-07-14T19:44:23Z</time>
      </trkpt>
      <trkpt lat="35.169836360" lon="-106.584830850">
        <ele>1561.100</ele>
        <time>2019-07-14T19:44:24Z</time>
      </trkpt>
      <trkpt lat="35.170140420" lon="-106.584766660">
        <ele>1560.100</ele>
        <time>2019-07-14T19:44:25Z</time>
      </trkpt>
      <trkpt lat="35.170439350" lon="-106.584707660">
        <ele>1560.300</ele>
        <time>2019-07-14T19:44:26Z</time>
      </trkpt>
      <trkpt lat="35.170732680" lon="-106.584625320">
        <ele>1559.800</ele>
        <time>2019-07-14T19:44:27Z</time>
      </trkpt>
      <trkpt lat="35.171031950" lon="-106.584557260">
        <ele>1559.600</ele>
        <time>2019-07-14T19:44:28Z</time>
      </trkpt>
      <trkpt lat="35.171333390" lon="-106.584485490">
        <ele>1559.400</ele>
        <time>2019-07-14T19:44:29Z</time>
      </trkpt>
      <trkpt lat="35.171632960" lon="-106.584420790">
        <ele>1559.200</ele>
        <time>2019-07-14T19:44:30Z</time>
      </trkpt>
      <trkpt lat="35.171935210" lon="-106.584353030">
        <ele>1559.500</ele>
        <time>2019-07-14T19:44:31Z</time>
      </trkpt>
      <trkpt lat="35.172232820" lon="-106.584277250">
        <ele>1559.100</ele>
        <time>2019-07-14T19:44:32Z</time>
      </trkpt>
      <trkpt lat="35.172529370" lon="-106.584212240">
        <ele>1559.100</ele>
        <time>2019-07-14T19:44:33Z</time>
      </trkpt>
      <trkpt lat="35.172825840" lon="-106.584148200">
        <ele>1558.000</ele>
        <time>2019-07-14T19:44:34Z</time>
      </trkpt>
      <trkpt lat="35.173124670" lon="-106.584083200">
        <ele>1557.700</ele>
        <time>2019-07-14T19:44:35Z</time>
      </trkpt>
      <trkpt lat="35.173419760" lon="-106.584015180">
        <ele>1557.700</ele>
        <time>2019-07-14T19:44:36Z</time>
      </trkpt>
      <trkpt lat="35.173723610" lon="-106.583954840">
        <ele>1557.300</ele>
        <time>2019-07-14T19:44:37Z</time>
      </trkpt>
      <trkpt lat="35.174018300" lon="-106.583884600">
        <ele>1557.200</ele>
        <time>2019-07-14T19:44:38Z</time>
      </trkpt>
      <trkpt lat="35.174308470" lon="-106.583816050">
        <ele>1557.000</ele>
        <time>2019-07-14T19:44:39Z</time>
      </trkpt>
      <trkpt lat="35.174607080" lon="-106.583754320">
        <ele>1557.700</ele>
        <time>2019-07-14T19:44:40Z</time>
      </trkpt>
      <trkpt lat="35.174898790" lon="-106.583693610">
        <ele>1557.300</ele>
        <time>2019-07-14T19:44:41Z</time>
      </trkpt>
      <trkpt lat="35.175195670" lon="-106.583620840">
        <ele>1558.000</ele>
        <time>2019-07-14T19:44:42Z</time>
      </trkpt>
      <trkpt lat="35.175500150" lon="-106.583555740">
        <ele>1558.700</ele>
        <time>2019-07-14T19:44:43Z</time>
      </trkpt>
      <trkpt lat="35.175786680" lon="-106.583490230">
        <ele>1559.400</ele>
        <time>2019-07-14T19:44:44Z</time>
      </trkpt>
      <trkpt lat="35.176081710" lon="-106.583423820">
        <ele>1559.800</ele>
        <time>2019-07-14T19:44:45Z</time>
      </trkpt>
      <trkpt lat="35.176375740" lon="-106.583361580">
        <ele>1560.600</ele>
        <time>2019-07-14T19:44:46Z</time>
      </trkpt>
      <trkpt lat="35.176672520" lon="-106.583288660">
        <ele>1560.600</ele>
        <time>2019-07-14T19:44:47Z</time>
      </trkpt>
      <trkpt lat="35.176970110" lon="-106.583213020">
        <ele>1560.600</ele>
        <time>2019-07-14T19:44:48Z</time>
      </trkpt>
      <trkpt lat="35.177269670" lon="-106.583147850">
        <ele>1561.100</ele>
        <time>2019-07-14T19:44:49Z</time>
      </trkpt>
      <trkpt lat="35.177558400" lon="-106.583084540">
        <ele>1562.100</ele>
        <time>2019-07-14T19:44:50Z</time>
      </trkpt>
      <trkpt lat="35.177855530" lon="-106.583018740">
        <ele>1562.400</ele>
        <time>2019-07-14T19:44:51Z</time>
      </trkpt>
      <trkpt lat="35.178158310" lon="-106.582953580">
        <ele>1562.700</ele>
        <time>2019-07-14T19:44:52Z</time>
      </trkpt>
      <trkpt lat="35.178455430" lon="-106.582885520">
        <ele>1562.900</ele>
        <time>2019-07-14T19:44:53Z</time>
      </trkpt>
      <trkpt lat="35.178748380" lon="-106.582814770">
        <ele>1563.800</ele>
        <time>2019-07-14T19:44:54Z</time>
      </trkpt>
      <trkpt lat="35.179047040" lon="-106.582738520">
        <ele>1564.000</ele>
        <time>2019-07-14T19:44:55Z</time>
      </trkpt>
      <trkpt lat="35.179352710" lon="-106.582670070">
        <ele>1564.400</ele>
        <time>2019-07-14T19:44:56Z</time>
      </trkpt>
      <trkpt lat="35.179651310" lon="-106.582604900">
        <ele>1563.100</ele>
        <time>2019-07-14T19:44:57Z</time>
      </trkpt>
      <trkpt lat="35.179955490" lon="-106.582537060">
        <ele>1563.300</ele>
        <time>2019-07-14T19:44:58Z</time>
      </trkpt>
      <trkpt lat="35.180255430" lon="-106.582466500">
        <ele>1563.800</ele>
        <time>2019-07-14T19:44:59Z</time>
      </trkpt>
      <trkpt lat="35.180549510" lon="-106.582394960">
        <ele>1563.900</ele>
        <time>2019-07-14T19:45:00Z</time>
      </trkpt>
      <trkpt lat="35.180842660" lon="-106.582324240">
        <ele>1564.100</ele>
        <time>2019-07-14T19:45:01Z</time>
      </trkpt>
      <trkpt lat="35.181136810" lon="-106.582253480">
        <ele>1564.500</ele>
        <time>2019-07-14T19:45:02Z</time>
      </trkpt>
      <trkpt lat="35.181434180" lon="-106.582177560">
        <ele>1564.300</ele>
        <time>2019-07-14T19:45:03Z</time>
      </trkpt>
      <trkpt lat="35.181728850" lon="-106.582095500">
        <ele>1564.300</ele>
        <time>2019-07-14T19:45:04Z</time>
      </trkpt>
      <trkpt lat="35.182028300" lon="-106.582025170">
        <ele>1564.400</ele>
        <time>2019-07-14T19:45:05Z</time>
      </trkpt>
      <trkpt lat="35.182325940" lon="-106.581948790">
        <ele>1564.300</ele>
        <time>2019-07-14T19:45:06Z</time>
      </trkpt>
      <trkpt lat="35.182625280" lon="-106.581871970">
        <ele>1564.200</ele>
        <time>2019-07-14T19:45:07Z</time>
      </trkpt>
      <trkpt lat="35.182919600" lon="-106.581803540">
        <ele>1564.100</ele>
        <time>2019-07-14T19:45:08Z</time>
      </trkpt>
      <trkpt lat="35.183217860" lon="-106.581727030">
        <ele>1563.800</ele>
        <time>2019-07-14T19:45:09Z</time>
      </trkpt>
      <trkpt lat="35.183507630" lon="-106.581657570">
        <ele>1563.600</ele>
        <time>2019-07-14T19:45:10Z</time>
      </trkpt>
      <trkpt lat="35.183811590" lon="-106.581588870">
        <ele>1563.500</ele>
        <time>2019-07-14T19:45:11Z</time>
      </trkpt>
      <trkpt lat="35.184110750" lon="-106.581517600">
        <ele>1563.500</ele>
        <time>2019-07-14T19:45:12Z</time>
      </trkpt>
      <trkpt lat="35.184409750" lon="-106.581455760">
        <ele>1563.800</ele>
        <time>2019-07-14T19:45:13Z</time>
      </trkpt>
      <trkpt lat="35.184716200" lon="-106.581388040">
        <ele>1563.200</ele>
        <time>2019-07-14T19:45:14Z</time>
      </trkpt>
      <trkpt lat="35.185011980" lon="-106.581327340">
        <ele>1562.500</ele>
        <time>2019-07-14T19:45:15Z</time>
      </trkpt>
      <trkpt lat="35.185311970" lon="-106.581264020">
        <ele>1562.600</ele>
        <time>2019-07-14T19:45:16Z</time>
      </trkpt>
      <trkpt lat="35.185610940" lon="-106.581196080">
        <ele>1562.100</ele>
        <time>2019-07-14T19:45:17Z</time>
      </trkpt>
      <trkpt lat="35.185900030" lon="-106.581129870">
        <ele>1562.800</ele>
        <time>2019-07-14T19:45:18Z</time>
      </trkpt>
      <trkpt lat="35.186191130" lon="-106.581058720">
        <ele>1562.700</ele>
        <time>2019-07-14T19:45:19Z</time>
      </trkpt>
      <trkpt lat="35.186494830" lon="-106.580991630">
        <ele>1563.200</ele>
        <time>2019-07-14T19:45:20Z</time>
      </trkpt>
      <trkpt lat="35.186789730" lon="-106.580918180">
        <ele>1563.600</ele>
        <time>2019-07-14T19:45:21Z</time>
      </trkpt>
      <trkpt lat="35.187102560" lon="-106.580844930">
        <ele>1563.600</ele>
        <time>2019-07-14T19:45:22Z</time>
      </trkpt>
      <trkpt lat="35.187407390" lon="-106.580771890">
        <ele>1562.800</ele>
        <time>2019-07-14T19:45:23Z</time>
      </trkpt>
      <trkpt lat="35.187705760" lon="-106.580695820">
        <ele>1562.300</ele>
        <time>2019-07-14T19:45:24Z</time>
      </trkpt>
      <trkpt lat="35.188007950" lon="-106.580623500">
        <ele>1562.000</ele>
        <time>2019-07-14T19:45:25Z</time>
      </trkpt>
      <trkpt lat="35.188283070" lon="-106.580560090">
        <ele>1561.700</ele>
        <time>2019-07-14T19:45:26Z</time>
      </trkpt>
      <trkpt lat="35.188584210" lon="-106.580482240">
        <ele>1561.400</ele>
        <time>2019-07-14T19:45:27Z</time>
      </trkpt>
      <trkpt lat="35.188893030" lon="-106.580418380">
        <ele>1561.500</ele>
        <time>2019-07-14T19:45:28Z</time>
      </trkpt>
      <trkpt lat="35.189187210" lon="-106.580339570">
        <ele>1561.400</ele>
        <time>2019-07-14T19:45:29Z</time>
      </trkpt>
      <trkpt lat="35.189476440" lon="-106.580263480">
        <ele>1560.600</ele>
        <time>2019-07-14T19:45:30Z</time>
      </trkpt>
      <trkpt lat="35.189768070" lon="-106.580202000">
        <ele>1561.800</ele>
        <time>2019-07-14T19:45:31Z</time>
      </trkpt>
      <trkpt lat="35.190079310" lon="-106.580131930">
        <ele>1561.600</ele>
        <time>2019-07-14T19:45:32Z</time>
      </trkpt>
      <trkpt lat="35.190376990" lon="-106.580060780">
        <ele>1562.400</ele>
        <time>2019-07-14T19:45:33Z</time>
      </trkpt>
      <trkpt lat="35.190688870" lon="-106.579998750">
        <ele>1563.100</ele>
        <time>2019-07-14T19:45:34Z</time>
      </trkpt>
      <trkpt lat="35.190994960" lon="-106.579937750">
        <ele>1563.500</ele>
        <time>2019-07-14T19:45:35Z</time>
      </trkpt>
      <trkpt lat="35.191271400" lon="-106.579887840">
        <ele>1564.200</ele>
        <time>2019-07-14T19:45:36Z</time>
      </trkpt>
      <trkpt lat="35.191570340" lon="-106.579822990">
        <ele>1564.500</ele>
        <time>2019-07-14T19:45:37Z</time>
      </trkpt>
      <trkpt lat="35.191881120" lon="-106.579756880">
        <ele>1563.900</ele>
        <time>2019-07-14T19:45:38Z</time>
      </trkpt>
      <trkpt lat="35.192173660" lon="-106.579694010">
        <ele>1564.700</ele>
        <time>2019-07-14T19:45:39Z</time>
      </trkpt>
      <trkpt lat="35.192482880" lon="-106.579620620">
        <ele>1564.700</ele>
        <time>2019-07-14T19:45:40Z</time>
      </trkpt>
      <trkpt lat="35.192775890" lon="-106.579542100">
        <ele>1564.300</ele>
        <time>2019-07-14T19:45:41Z</time>
      </trkpt>
      <trkpt lat="35.193077310" lon="-106.579470500">
        <ele>1564.600</ele>
        <time>2019-07-14T19:45:42Z</time>
      </trkpt>
      <trkpt lat="35.193372080" lon="-106.579401090">
        <ele>1564.800</ele>
        <time>2019-07-14T19:45:43Z</time>
      </trkpt>
      <trkpt lat="35.193669660" lon="-106.579336690">
        <ele>1564.400</ele>
        <time>2019-07-14T19:45:44Z</time>
      </trkpt>
      <trkpt lat="35.193964220" lon="-106.579266410">
        <ele>1563.900</ele>
        <time>2019-07-14T19:45:45Z</time>
      </trkpt>
      <trkpt lat="35.194267720" lon="-106.579198610">
        <ele>1564.600</ele>
        <time>2019-07-14T19:45:46Z</time>
      </trkpt>
      <trkpt lat="35.194557690" lon="-106.579128680">
        <ele>1564.200</ele>
        <time>2019-07-14T19:45:47Z</time>
      </trkpt>
      <trkpt lat="35.194855950" lon="-106.579059320">
        <ele>1564.400</ele>
        <time>2019-07-14T19:45:48Z</time>
      </trkpt>
      <trkpt lat="35.195164540" lon="-106.578997670">
        <ele>1564.500</ele>
        <time>2019-07-14T19:45:49Z</time>
      </trkpt>
      <trkpt lat="35.195457290" lon="-106.578930080">
        <ele>1564.200</ele>
        <time>2019-07-14T19:45:50Z</time>
      </trkpt>
      <trkpt lat="35.195744020" lon="-106.578870760">
        <ele>1564.700</ele>
        <time>2019-07-14T19:45:51Z</time>
      </trkpt>
      <trkpt lat="35.196046900" lon="-106.578799730">
        <ele>1564.800</ele>
        <time>2019-07-14T19:45:52Z</time>
      </trkpt>
      <trkpt lat="35.196345670" lon="-106.578734750">
        <ele>1565.400</ele>
        <time>2019-07-14T19:45:53Z</time>
      </trkpt>
      <trkpt lat="35.196639850" lon="-106.578664210">
        <ele>1564.900</ele>
        <time>2019-07-14T19:45:54Z</time>
      </trkpt>
      <trkpt lat="35.196930610" lon="-106.578596000">
        <ele>1565.300</ele>
        <time>2019-07-14T19:45:55Z</time>
      </trkpt>
      <trkpt lat="35.197209700" lon="-106.578521960">
        <ele>1565.100</ele>
        <time>2019-07-14T19:45:56Z</time>
      </trkpt>
      <trkpt lat="35.197503110" lon="-106.578454840">
        <ele>1564.900</ele>
        <time>2019-07-14T19:45:57Z</time>
      </trkpt>
      <trkpt lat="35.197799920" lon="-106.578377510">
        <ele>1565.100</ele>
        <time>2019-07-14T19:45:58Z</time>
      </trkpt>
      <trkpt lat="35.198084720" lon="-106.578311090">
        <ele>1565.200</ele>
        <time>2019-07-14T19:45:59Z</time>
      </trkpt>
      <trkpt lat="35.198377610" lon="-106.578245500">
        <ele>1564.600</ele>
        <time>2019-07-14T19:46:00Z</time>
      </trkpt>
      <trkpt lat="35.198671940" lon="-106.578176090">
        <ele>1565.000</ele>
        <time>2019-07-14T19:46:01Z</time>
      </trkpt>
      <trkpt lat="35.198968000" lon="-106.578105520">
        <ele>1564.800</ele>
        <time>2019-07-14T19:46:02Z</time>
      </trkpt>
      <trkpt lat="35.199269110" lon="-106.578034230">
        <ele>1565.100</ele>
        <time>2019-07-14T19:46:03Z</time>
      </trkpt>
      <trkpt lat="35.199569950" lon="-106.577967650">
        <ele>1564.100</ele>
        <time>2019-07-14T19:46:04Z</time>
      </trkpt>
      <trkpt lat="35.199869320" lon="-106.577897570">
        <ele>1564.100</ele>
        <time>2019-07-14T19:46:05Z</time>
      </trkpt>
      <trkpt lat="35.200167750" lon="-106.577834070">
        <ele>1564.300</ele>
        <time>2019-07-14T19:46:06Z</time>
      </trkpt>
      <trkpt lat="35.200469160" lon="-106.577762280">
        <ele>1564.500</ele>
        <time>2019-07-14T19:46:07Z</time>
      </trkpt>
      <trkpt lat="35.200769950" lon="-106.577700340">
        <ele>1564.800</ele>
        <time>2019-07-14T19:46:08Z</time>
      </trkpt>
      <trkpt lat="35.201068970" lon="-106.577630580">
        <ele>1564.200</ele>
        <time>2019-07-14T19:46:09Z</time>
      </trkpt>
      <trkpt lat="35.201361220" lon="-106.577562860">
        <ele>1564.100</ele>
        <time>2019-07-14T19:46:10Z</time>
      </trkpt>
      <trkpt lat="35.201657910" lon="-106.577499090">
        <ele>1564.400</ele>
        <time>2019-07-14T19:46:11Z</time>
      </trkpt>
      <trkpt lat="35.201953120" lon="-106.577433770">
        <ele>1564.600</ele>
        <time>2019-07-14T19:46:12Z</time>
      </trkpt>
      <trkpt lat="35.202257360" lon="-106.577372930">
        <ele>1564.700</ele>
        <time>2019-07-14T19:46:13Z</time>
      </trkpt>
      <trkpt lat="35.202555950" lon="-106.577304380">
        <ele>1564.900</ele>
        <time>2019-07-14T19:46:14Z</time>
      </trkpt>
      <trkpt lat="35.202855100" lon="-106.577237260">
        <ele>1564.900</ele>
        <time>2019-07-14T19:46:15Z</time>
      </trkpt>
      <trkpt lat="35.203157620" lon="-106.577164270">
        <ele>1564.800</ele>
        <time>2019-07-14T19:46:16Z</time>
      </trkpt>
      <trkpt lat="35.203463690" lon="-106.577097930">
        <ele>1565.200</ele>
        <time>2019-07-14T19:46:17Z</time>
      </trkpt>
      <trkpt lat="35.203766930" lon="-106.577023900">
        <ele>1564.100</ele>
        <time>2019-07-14T19:46:18Z</time>
      </trkpt>
      <trkpt lat="35.204067470" lon="-106.576952670">
        <ele>1563.600</ele>
        <time>2019-07-14T19:46:19Z</time>
      </trkpt>
      <trkpt lat="35.204357940" lon="-106.576880330">
        <ele>1562.500</ele>
        <time>2019-07-14T19:46:20Z</time>
      </trkpt>
      <trkpt lat="35.204650790" lon="-106.576815770">
        <ele>1562.000</ele>
        <time>2019-07-14T19:46:21Z</time>
      </trkpt>
      <trkpt lat="35.204948700" lon="-106.576748580">
        <ele>1561.500</ele>
        <time>2019-07-14T19:46:22Z</time>
      </trkpt>
      <trkpt lat="35.205234500" lon="-106.576667530">
        <ele>1560.100</ele>
        <time>2019-07-14T19:46:23Z</time>
      </trkpt>
      <trkpt lat="35.205534530" lon="-106.576601320">
        <ele>1559.700</ele>
        <time>2019-07-14T19:46:24Z</time>
      </trkpt>
      <trkpt lat="35.205836710" lon="-106.576529840">
        <ele>1558.900</ele>
        <time>2019-07-14T19:46:25Z</time>
      </trkpt>
      <trkpt lat="35.206135480" lon="-106.576467670">
        <ele>1558.800</ele>
        <time>2019-07-14T19:46:26Z</time>
      </trkpt>
      <trkpt lat="35.206435120" lon="-106.576397300">
        <ele>1558.900</ele>
        <time>2019-07-14T19:46:27Z</time>
      </trkpt>
      <trkpt lat="35.206727340" lon="-106.576332560">
        <ele>1558.500</ele>
        <time>2019-07-14T19:46:28Z</time>
      </trkpt>
      <trkpt lat="35.207026900" lon="-106.576270100">
        <ele>1558.400</ele>
        <time>2019-07-14T19:46:29Z</time>
      </trkpt>
      <trkpt lat="35.207321970" lon="-106.576201450">
        <ele>1558.100</ele>
        <time>2019-07-14T19:46:30Z</time>
      </trkpt>
      <trkpt lat="35.207621940" lon="-106.576134160">
        <ele>1557.300</ele>
        <time>2019-07-14T19:46:31Z</time>
      </trkpt>
      <trkpt lat="35.207921120" lon="-106.576074380">
        <ele>1556.800</ele>
        <time>2019-07-14T19:46:32Z</time>
      </trkpt>
      <trkpt lat="35.208220850" lon="-106.576012900">
        <ele>1556.700</ele>
        <time>2019-07-14T19:46:33Z</time>
      </trkpt>
      <trkpt lat="35.208515500" lon="-106.575943690">
        <ele>1556.800</ele>
        <time>2019-07-14T19:46:34Z</time>
      </trkpt>
      <trkpt lat="35.208821510" lon="-106.575871450">
        <ele>1556.600</ele>
        <time>2019-07-14T19:46:35Z</time>
      </trkpt>
      <trkpt lat="35.209115930" lon="-106.575800360">
        <ele>1557.100</ele>
        <time>2019-07-14T19:46:36Z</time>
      </trkpt>
      <trkpt lat="35.209411640" lon="-106.575726920">
        <ele>1557.400</ele>
        <time>2019-07-14T19:46:37Z</time>
      </trkpt>
      <trkpt lat="35.209711650" lon="-106.575660570">
        <ele>1557.700</ele>
        <time>2019-07-14T19:46:38Z</time>
      </trkpt>
      <trkpt lat="35.210011690" lon="-106.575599120">
        <ele>1558.000</ele>
        <time>2019-07-14T19:46:39Z</time>
      </trkpt>
      <trkpt lat="35.210316550" lon="-106.575533740">
        <ele>1558.200</ele>
        <time>2019-07-14T19:46:40Z</time>
      </trkpt>
      <trkpt lat="35.210614110" lon="-106.575466460">
        <ele>1557.900</ele>
        <time>2019-07-14T19:46:41Z</time>
      </trkpt>
      <trkpt lat="35.210916010" lon="-106.575393830">
        <ele>1558.000</ele>
        <time>2019-07-14T19:46:42Z</time>
      </trkpt>
      <trkpt lat="35.211211320" lon="-106.575322930">
        <ele>1557.800</ele>
        <time>2019-07-14T19:46:43Z</time>
      </trkpt>
      <trkpt lat="35.211509760" lon="-106.575256730">
        <ele>1557.500</ele>
        <time>2019-07-14T19:46:44Z</time>
      </trkpt>
      <trkpt lat="35.211812310" lon="-106.575189420">
        <ele>1557.700</ele>
        <time>2019-07-14T19:46:45Z</time>
      </trkpt>
      <trkpt lat="35.212117870" lon="-106.575117630">
        <ele>1557.700</ele>
        <time>2019-07-14T19:46:46Z</time>
      </trkpt>
      <trkpt lat="35.212417650" lon="-106.575047500">
        <ele>1556.900</ele>
        <time>2019-07-14T19:46:47Z</time>
      </trkpt>
      <trkpt lat="35.212723850" lon="-106.574981370">
        <ele>1557.000</ele>
        <time>2019-07-14T19:46:48Z</time>
      </trkpt>
      <trkpt lat="35.213011360" lon="-106.574914300">
        <ele>1557.100</ele>
        <time>2019-07-14T19:46:49Z</time>
      </trkpt>
      <trkpt lat="35.213310440" lon="-106.574846700">
        <ele>1557.200</ele>
        <time>2019-07-14T19:46:50Z</time>
      </trkpt>
      <trkpt lat="35.213611880" lon="-106.574772400">
        <ele>1557.100</ele>
        <time>2019-07-14T19:46:51Z</time>
      </trkpt>
      <trkpt lat="35.213905680" lon="-106.574693780">
        <ele>1557.000</ele>
        <time>2019-07-14T19:46:52Z</time>
      </trkpt>
      <trkpt lat="35.214207670" lon="-106.574630710">
        <ele>1556.700</ele>
        <time>2019-07-14T19:46:53Z</time>
      </trkpt>
      <trkpt lat="35.214508750" lon="-106.574566400">
        <ele>1556.400</ele>
        <time>2019-07-14T19:46:54Z</time>
      </trkpt>
      <trkpt lat="35.214809550" lon="-106.574501360">
        <ele>1556.400</ele>
        <time>2019-07-14T19:46:55Z</time>
      </trkpt>
      <trkpt lat="35.215111000" lon="-106.574432510">
        <ele>1556.300</ele>
        <time>2019-07-14T19:46:56Z</time>
      </trkpt>
      <trkpt lat="35.215406870" lon="-106.574360140">
        <ele>1555.800</ele>
        <time>2019-07-14T19:46:57Z</time>
      </trkpt>
      <trkpt lat="35.215710130" lon="-106.574296620">
        <ele>1555.500</ele>
        <time>2019-07-14T19:46:58Z</time>
      </trkpt>
      <trkpt lat="35.216000200" lon="-106.574224250">
        <ele>1554.800</ele>
        <time>2019-07-14T19:46:59Z</time>
      </trkpt>
      <trkpt lat="35.216298160" lon="-106.574141190">
        <ele>1554.500</ele>
        <time>2019-07-14T19:47:00Z</time>
      </trkpt>
      <trkpt lat="35.216594420" lon="-106.574072930">
        <ele>1554.100</ele>
        <time>2019-07-14T19:47:01Z</time>
      </trkpt>
      <trkpt lat="35.216891020" lon="-106.573996690">
        <ele>1553.500</ele>
        <time>2019-07-14T19:47:02Z</time>
      </trkpt>
      <trkpt lat="35.217187320" lon="-106.573924210">
        <ele>1552.900</ele>
        <time>2019-07-14T19:47:03Z</time>
      </trkpt>
      <trkpt lat="35.217483320" lon="-106.573850040">
        <ele>1552.800</ele>
        <time>2019-07-14T19:47:04Z</time>
      </trkpt>
      <trkpt lat="35.217781620" lon="-106.573778600">
        <ele>1551.800</ele>
        <time>2019-07-14T19:47:05Z</time>
      </trkpt>
      <trkpt lat="35.218082980" lon="-106.573708840">
        <ele>1551.300</ele>
        <time>2019-07-14T19:47:06Z</time>
      </trkpt>
      <trkpt lat="35.218383760" lon="-106.573636680">
        <ele>1550.700</ele>
        <time>2019-07-14T19:47:07Z</time>
      </trkpt>
      <trkpt lat="35.218684900" lon="-106.573571590">
        <ele>1550.700</ele>
        <time>2019-07-14T19:47:08Z</time>
      </trkpt>
      <trkpt lat="35.218984170" lon="-106.573503520">
        <ele>1550.500</ele>
        <time>2019-07-14T19:47:09Z</time>
      </trkpt>
      <trkpt lat="35.219276470" lon="-106.573433430">
        <ele>1550.800</ele>
        <time>2019-07-14T19:47:10Z</time>
      </trkpt>
      <trkpt lat="35.219571650" lon="-106.573365540">
        <ele>1550.900</ele>
        <time>2019-07-14T19:47:11Z</time>
      </trkpt>
      <trkpt lat="35.219860770" lon="-106.573293900">
        <ele>1550.800</ele>
        <time>2019-07-14T19:47:12Z</time>
      </trkpt>
      <trkpt lat="35.220153500" lon="-106.573228190">
        <ele>1550.900</ele>
        <time>2019-07-14T19:47:13Z</time>
      </trkpt>
      <trkpt lat="35.220450750" lon="-106.573167150">
        <ele>1551.600</ele>
        <time>2019-07-14T19:47:14Z</time>
      </trkpt>
      <trkpt lat="35.220741240" lon="-106.573102760">
        <ele>1551.500</ele>
        <time>2019-07-14T19:47:15Z</time>
      </trkpt>
      <trkpt lat="35.221040130" lon="-106.573033090">
        <ele>1551.400</ele>
        <time>2019-07-14T19:47:16Z</time>
      </trkpt>
      <trkpt lat="35.221333780" lon="-106.572963670">
        <ele>1552.100</ele>
        <time>2019-07-14T19:47:17Z</time>
      </trkpt>
      <trkpt lat="35.221637380" lon="-106.572894720">
        <ele>1552.300</ele>
        <time>2019-07-14T19:47:18Z</time>
      </trkpt>
      <trkpt lat="35.221938400" lon="-106.572828250">
        <ele>1552.500</ele>
        <time>2019-07-14T19:47:19Z</time>
      </trkpt>
      <trkpt lat="35.222237830" lon="-106.572762840">
        <ele>1552.500</ele>
        <time>2019-07-14T19:47:20Z</time>
      </trkpt>
      <trkpt lat="35.222536190" lon="-106.572691730">
        <ele>1553.100</ele>
        <time>2019-07-14T19:47:21Z</time>
      </trkpt>
      <trkpt lat="35.222833930" lon="-106.572624600">
        <ele>1553.600</ele>
        <time>2019-07-14T19:47:22Z</time>
      </trkpt>
      <trkpt lat="35.223132600" lon="-106.572555940">
        <ele>1553.300</ele>
        <time>2019-07-14T19:47:23Z</time>
      </trkpt>
      <trkpt lat="35.223435330" lon="-106.572482050">
        <ele>1553.800</ele>
        <time>2019-07-14T19:47:24Z</time>
      </trkpt>
      <trkpt lat="35.223730590" lon="-106.572418780">
        <ele>1553.800</ele>
        <time>2019-07-14T19:47:25Z</time>
      </trkpt>
      <trkpt lat="35.224029440" lon="-106.572348070">
        <ele>1554.000</ele>
        <time>2019-07-14T19:47:26Z</time>
      </trkpt>
      <trkpt lat="35.224328500" lon="-106.572278390">
        <ele>1553.100</ele>
        <time>2019-07-14T19:47:27Z</time>
      </trkpt>
      <trkpt lat="35.224627070" lon="-106.572216860">
        <ele>1553.100</ele>
        <time>2019-07-14T19:47:28Z</time>
      </trkpt>
      <trkpt lat="35.224929960" lon="-106.572155560">
        <ele>1553.100</ele>
        <time>2019-07-14T19:47:29Z</time>
      </trkpt>
      <trkpt lat="35.225226890" lon="-106.572094190">
        <ele>1553.000</ele>
        <time>2019-07-14T19:47:30Z</time>
      </trkpt>
      <trkpt lat="35.225523470" lon="-106.572030210">
        <ele>1552.700</ele>
        <time>2019-07-14T19:47:31Z</time>
      </trkpt>
      <trkpt lat="35.225824810" lon="-106.571964380">
        <ele>1552.600</ele>
        <time>2019-07-14T19:47:32Z</time>
      </trkpt>
      <trkpt lat="35.226122210" lon="-106.571897410">
        <ele>1552.400</ele>
        <time>2019-07-14T19:47:33Z</time>
      </trkpt>
      <trkpt lat="35.226415900" lon="-106.571830290">
        <ele>1552.400</ele>
        <time>2019-07-14T19:47:34Z</time>
      </trkpt>
      <trkpt lat="35.226717430" lon="-106.571756600">
        <ele>1552.200</ele>
        <time>2019-07-14T19:47:35Z</time>
      </trkpt>
      <trkpt lat="35.227014380" lon="-106.571692730">
        <ele>1551.700</ele>
        <time>2019-07-14T19:47:36Z</time>
      </trkpt>
      <trkpt lat="35.227308540" lon="-106.571619200">
        <ele>1551.500</ele>
        <time>2019-07-14T19:47:37Z</time>
      </trkpt>
      <trkpt lat="35.227607870" lon="-106.571547840">
        <ele>1551.500</ele>
        <time>2019-07-14T19:47:38Z</time>
      </trkpt>
      <trkpt lat="35.227907770" lon="-106.571484870">
        <ele>1551.200</ele>
        <time>2019-07-14T19:47:39Z</time>
      </trkpt>
      <trkpt lat="35.228204440" lon="-106.571415670">
        <ele>1550.700</ele>
        <time>2019-07-14T19:47:40Z</time>
      </trkpt>
      <trkpt lat="35.228502500" lon="-106.571344130">
        <ele>1550.300</ele>
        <time>2019-07-14T19:47:41Z</time>
      </trkpt>
      <trkpt lat="35.228803750" lon="-106.571277700">
        <ele>1549.400</ele>
        <time>2019-07-14T19:47:42Z</time>
      </trkpt>
      <trkpt lat="35.229104240" lon="-106.571208870">
        <ele>1549.200</ele>
        <time>2019-07-14T19:47:43Z</time>
      </trkpt>
      <trkpt lat="35.229392430" lon="-106.571144120">
        <ele>1549.300</ele>
        <time>2019-07-14T19:47:44Z</time>
      </trkpt>
      <trkpt lat="35.229690280" lon="-106.571084700">
        <ele>1549.100</ele>
        <time>2019-07-14T19:47:45Z</time>
      </trkpt>
      <trkpt lat="35.229988160" lon="-106.571007110">
        <ele>1548.800</ele>
        <time>2019-07-14T19:47:46Z</time>
      </trkpt>
      <trkpt lat="35.230276540" lon="-106.570932870">
        <ele>1549.400</ele>
        <time>2019-07-14T19:47:47Z</time>
      </trkpt>
      <trkpt lat="35.230570410" lon="-106.570858920">
        <ele>1549.700</ele>
        <time>2019-07-14T19:47:48Z</time>
      </trkpt>
      <trkpt lat="35.230860840" lon="-106.570790300">
        <ele>1550.000</ele>
        <time>2019-07-14T19:47:49Z</time>
      </trkpt>
      <trkpt lat="35.231159200" lon="-106.570724230">
        <ele>1549.700</ele>
        <time>2019-07-14T19:47:50Z</time>
      </trkpt>
      <trkpt lat="35.231459740" lon="-106.570655800">
        <ele>1549.600</ele>
        <time>2019-07-14T19:47:51Z</time>
      </trkpt>
      <trkpt lat="35.231762810" lon="-106.570590150">
        <ele>1549.700</ele>
        <time>2019-07-14T19:47:52Z</time>
      </trkpt>
      <trkpt lat="35.232057490" lon="-106.570511020">
        <ele>1550.600</ele>
        <time>2019-07-14T19:47:53Z</time>
      </trkpt>
      <trkpt lat="35.232350880" lon="-106.570446790">
        <ele>1550.100</ele>
        <time>2019-07-14T19:47:54Z</time>
      </trkpt>
      <trkpt lat="35.232650630" lon="-106.570374550">
        <ele>1550.900</ele>
        <time>2019-07-14T19:47:55Z</time>
      </trkpt>
      <trkpt lat="35.232954350" lon="-106.570309640">
        <ele>1551.100</ele>
        <time>2019-07-14T19:47:56Z</time>
      </trkpt>
      <trkpt lat="35.233256220" lon="-106.570245510">
        <ele>1551.000</ele>
        <time>2019-07-14T19:47:57Z</time>
      </trkpt>
      <trkpt lat="35.233559490" lon="-106.570173490">
        <ele>1551.400</ele>
        <time>2019-07-14T19:47:58Z</time>
      </trkpt>
      <trkpt lat="35.233870210" lon="-106.570109100">
        <ele>1551.000</ele>
        <time>2019-07-14T19:47:59Z</time>
      </trkpt>
      <trkpt lat="35.234166160" lon="-106.570044900">
        <ele>1551.300</ele>
        <time>2019-07-14T19:48:00Z</time>
      </trkpt>
      <trkpt lat="35.234460290" lon="-106.569970170">
        <ele>1551.000</ele>
        <time>2019-07-14T19:48:01Z</time>
      </trkpt>
      <trkpt lat="35.234759260" lon="-106.569901900">
        <ele>1551.200</ele>
        <time>2019-07-14T19:48:02Z</time>
      </trkpt>
      <trkpt lat="35.235061640" lon="-106.569839700">
        <ele>1550.800</ele>
        <time>2019-07-14T19:48:03Z</time>
      </trkpt>
      <trkpt lat="35.235360850" lon="-106.569772300">
        <ele>1550.400</ele>
        <time>2019-07-14T19:48:04Z</time>
      </trkpt>
      <trkpt lat="35.235660340" lon="-106.569706480">
        <ele>1549.300</ele>
        <time>2019-07-14T19:48:05Z</time>
      </trkpt>
      <trkpt lat="35.235958780" lon="-106.569634900">
        <ele>1549.200</ele>
        <time>2019-07-14T19:48:06Z</time>
      </trkpt>
      <trkpt lat="35.236250400" lon="-106.569571960">
        <ele>1549.200</ele>
        <time>2019-07-14T19:48:07Z</time>
      </trkpt>
      <trkpt lat="35.236545400" lon="-106.569506730">
        <ele>1549.500</ele>
        <time>2019-07-14T19:48:08Z</time>
      </trkpt>
      <trkpt lat="35.236842230" lon="-106.569437500">
        <ele>1549.500</ele>
        <time>2019-07-14T19:48:09Z</time>
      </trkpt>
      <trkpt lat="35.237138790" lon="-106.569367360">
        <ele>1549.500</ele>
        <time>2019-07-14T19:48:10Z</time>
      </trkpt>
      <trkpt lat="35.237440820" lon="-106.569303400">
        <ele>1548.900</ele>
        <time>2019-07-14T19:48:11Z</time>
      </trkpt>
      <trkpt lat="35.237743430" lon="-106.569230550">
        <ele>1549.000</ele>
        <time>2019-07-14T19:48:12Z</time>
      </trkpt>
      <trkpt lat="35.238042620" lon="-106.569175770">
        <ele>1548.500</ele>
        <time>2019-07-14T19:48:13Z</time>
      </trkpt>
      <trkpt lat="35.238340140" lon="-106.569106730">
        <ele>1548.400</ele>
        <time>2019-07-14T19:48:14Z</time>
      </trkpt>
      <trkpt lat="35.238641330" lon="-106.569042720">
        <ele>1548.300</ele>
        <time>2019-07-14T19:48:15Z</time>
      </trkpt>
      <trkpt lat="35.238940850" lon="-106.568984530">
        <ele>1548.000</ele>
        <time>2019-07-14T19:48:16Z</time>
      </trkpt>
      <trkpt lat="35.239246470" lon="-106.568915710">
        <ele>1547.900</ele>
        <time>2019-07-14T19:48:17Z</time>
      </trkpt>
      <trkpt lat="35.239541420" lon="-106.568858480">
        <ele>1546.900</ele>
        <time>2019-07-14T19:48:18Z</time>
      </trkpt>
      <trkpt lat="35.239844780" lon="-106.568790430">
        <ele>1546.300</ele>
        <time>2019-07-14T19:48:19Z</time>
      </trkpt>
      <trkpt lat="35.240143540" lon="-106.568720090">
        <ele>1546.000</ele>
        <time>2019-07-14T19:48:20Z</time>
      </trkpt>
      <trkpt lat="35.240436710" lon="-106.568654760">
        <ele>1546.100</ele>
        <time>2019-07-14T19:48:21Z</time>
      </trkpt>
      <trkpt lat="35.240728410" lon="-106.568585570">
        <ele>1546.300</ele>
        <time>2019-07-14T19:48:22Z</time>
      </trkpt>
      <trkpt lat="35.241022260" lon="-106.568508600">
        <ele>1546.100</ele>
        <time>2019-07-14T19:48:23Z</time>
      </trkpt>
      <trkpt lat="35.241308720" lon="-106.568440550">
        <ele>1546.500</ele>
        <time>2019-07-14T19:48:24Z</time>
      </trkpt>
      <trkpt lat="35.241606460" lon="-106.568369380">
        <ele>1546.700</ele>
        <time>2019-07-14T19:48:25Z</time>
      </trkpt>
      <trkpt lat="35.241906690" lon="-106.568307310">
        <ele>1546.900</ele>
        <time>2019-07-14T19:48:26Z</time>
      </trkpt>
      <trkpt lat="35.242207930" lon="-106.568233570">
        <ele>1546.900</ele>
        <time>2019-07-14T19:48:27Z</time>
      </trkpt>
      <trkpt lat="35.242511160" lon="-106.568167380">
        <ele>1546.600</ele>
        <time>2019-07-14T19:48:28Z</time>
      </trkpt>
      <trkpt lat="35.242820500" lon="-106.568096820">
        <ele>1545.400</ele>
        <time>2019-07-14T19:48:29Z</time>
      </trkpt>
      <trkpt lat="35.243120960" lon="-106.568023040">
        <ele>1545.200</ele>
        <time>2019-07-14T19:48:30Z</time>
      </trkpt>
      <trkpt lat="35.243418440" lon="-106.567955920">
        <ele>1544.600</ele>
        <time>2019-07-14T19:48:31Z</time>
      </trkpt>
      <trkpt lat="35.243715770" lon="-106.567883610">
        <ele>1544.300</ele>
        <time>2019-07-14T19:48:32Z</time>
      </trkpt>
      <trkpt lat="35.244012730" lon="-106.567813790">
        <ele>1543.500</ele>
        <time>2019-07-14T19:48:33Z</time>
      </trkpt>
      <trkpt lat="35.244309920" lon="-106.567741520">
        <ele>1543.600</ele>
        <time>2019-07-14T19:48:34Z</time>
      </trkpt>
      <trkpt lat="35.244604470" lon="-106.567674110">
        <ele>1543.900</ele>
        <time>2019-07-14T19:48:35Z</time>
      </trkpt>
      <trkpt lat="35.244914040" lon="-106.567614660">
        <ele>1543.700</ele>
        <time>2019-07-14T19:48:36Z</time>
      </trkpt>
      <trkpt lat="35.245213920" lon="-106.567546140">
        <ele>1543.500</ele>
        <time>2019-07-14T19:48:37Z</time>
      </trkpt>
      <trkpt lat="35.245513980" lon="-106.567470910">
        <ele>1543.300</ele>
        <time>2019-07-14T19:48:38Z</time>
      </trkpt>
      <trkpt lat="35.245808750" lon="-106.567403710">
        <ele>1542.700</ele>
        <time>2019-07-14T19:48:39Z</time>
      </trkpt>
      <trkpt lat="35.246104500" lon="-106.567327610">
        <ele>1542.200</ele>
        <time>2019-07-14T19:48:40Z</time>
      </trkpt>
      <trkpt lat="35.246407780" lon="-106.567267790">
        <ele>1540.500</ele>
        <time>2019-07-14T19:48:41Z</time>
      </trkpt>
      <trkpt lat="35.246701960" lon="-106.567211820">
        <ele>1539.900</ele>
        <time>2019-07-14T19:48:42Z</time>
      </trkpt>
      <trkpt lat="35.247006690" lon="-106.567138840">
        <ele>1539.800</ele>
        <time>2019-07-14T19:48:43Z</time>
      </trkpt>
      <trkpt lat="35.247298900" lon="-106.567069450">
        <ele>1539.500</ele>
        <time>2019-07-14T19:48:44Z</time>
      </trkpt>
      <trkpt lat="35.247598710" lon="-106.567005740">
        <ele>1538.700</ele>
        <time>2019-07-14T19:48:45Z</time>
      </trkpt>
      <trkpt lat="35.247898280" lon="-106.566946130">
        <ele>1538.400</ele>
        <time>2019-07-14T19:48:46Z</time>
      </trkpt>
      <trkpt lat="35.248196320" lon="-106.566878610">
        <ele>1538.300</ele>
        <time>2019-07-14T19:48:47Z</time>
      </trkpt>
      <trkpt lat="35.248490780" lon="-106.566804710">
        <ele>1538.400</ele>
        <time>2019-07-14T19:48:48Z</time>
      </trkpt>
      <trkpt lat="35.248790960" lon="-106.566738200">
        <ele>1538.100</ele>
        <time>2019-07-14T19:48:49Z</time>
      </trkpt>
      <trkpt lat="35.249085270" lon="-106.566666920">
        <ele>1538.200</ele>
        <time>2019-07-14T19:48:50Z</time>
      </trkpt>
      <trkpt lat="35.249381270" lon="-106.566596350">
        <ele>1537.900</ele>
        <time>2019-07-14T19:48:51Z</time>
      </trkpt>
      <trkpt lat="35.249667710" lon="-106.566524900">
        <ele>1538.000</ele>
        <time>2019-07-14T19:48:52Z</time>
      </trkpt>
      <trkpt lat="35.249966680" lon="-106.566462740">
        <ele>1537.700</ele>
        <time>2019-07-14T19:48:53Z</time>
      </trkpt>
      <trkpt lat="35.250261940" lon="-106.566396620">
        <ele>1536.900</ele>
        <time>2019-07-14T19:48:54Z</time>
      </trkpt>
      <trkpt lat="35.250561160" lon="-106.566333640">
        <ele>1536.600</ele>
        <time>2019-07-14T19:48:55Z</time>
      </trkpt>
      <trkpt lat="35.250857370" lon="-106.566266800">
        <ele>1536.900</ele>
        <time>2019-07-14T19:48:56Z</time>
      </trkpt>
      <trkpt lat="35.251154830" lon="-106.566200620">
        <ele>1536.900</ele>
        <time>2019-07-14T19:48:57Z</time>
      </trkpt>
      <trkpt lat="35.251455120" lon="-106.566126280">
        <ele>1536.100</ele>
        <time>2019-07-14T19:48:58Z</time>
      </trkpt>
      <trkpt lat="35.251747830" lon="-106.566060890">
        <ele>1535.600</ele>
        <time>2019-07-14T19:48:59Z</time>
      </trkpt>
      <trkpt lat="35.252049580" lon="-106.565993490">
        <ele>1535.300</ele>
        <time>2019-07-14T19:49:00Z</time>
      </trkpt>
      <trkpt lat="35.252347710" lon="-106.565926030">
        <ele>1534.700</ele>
        <time>2019-07-14T19:49:01Z</time>
      </trkpt>
      <trkpt lat="35.252644340" lon="-106.565861750">
        <ele>1534.700</ele>
        <time>2019-07-14T19:49:02Z</time>
      </trkpt>
      <trkpt lat="35.252946450" lon="-106.565792650">
        <ele>1534.600</ele>
        <time>2019-07-14T19:49:03Z</time>
      </trkpt>
      <trkpt lat="35.253246770" lon="-106.565725790">
        <ele>1534.300</ele>
        <time>2019-07-14T19:49:04Z</time>
      </trkpt>
      <trkpt lat="35.253540210" lon="-106.565652030">
        <ele>1534.900</ele>
        <time>2019-07-14T19:49:05Z</time>
      </trkpt>
      <trkpt lat="35.253835060" lon="-106.565589620">
        <ele>1534.500</ele>
        <time>2019-07-14T19:49:06Z</time>
      </trkpt>
      <trkpt lat="35.254133070" lon="-106.565517830">
        <ele>1534.800</ele>
        <time>2019-07-14T19:49:07Z</time>
      </trkpt>
      <trkpt lat="35.254427380" lon="-106.565438760">
        <ele>1535.300</ele>
        <time>2019-07-14T19:49:08Z</time>
      </trkpt>
      <trkpt lat="35.254725800" lon="-106.565377970">
        <ele>1534.400</ele>
        <time>2019-07-14T19:49:09Z</time>
      </trkpt>
      <trkpt lat="35.255018380" lon="-106.565319440">
        <ele>1533.900</ele>
        <time>2019-07-14T19:49:10Z</time>
      </trkpt>
      <trkpt lat="35.255321800" lon="-106.565245260">
        <ele>1532.900</ele>
        <time>2019-07-14T19:49:11Z</time>
      </trkpt>
      <trkpt lat="35.255619730" lon="-106.565178900">
        <ele>1532.900</ele>
        <time>2019-07-14T19:49:12Z</time>
      </trkpt>
      <trkpt lat="35.255916620" lon="-106.565114890">
        <ele>1532.700</ele>
        <time>2019-07-14T19:49:13Z</time>
      </trkpt>
      <trkpt lat="35.256214090" lon="-106.565044390">
        <ele>1533.000</ele>
        <time>2019-07-14T19:49:14Z</time>
      </trkpt>
      <trkpt lat="35.256516970" lon="-106.564979400">
        <ele>1533.000</ele>
        <time>2019-07-14T19:49:15Z</time>
      </trkpt>
      <trkpt lat="35.256815530" lon="-106.564911940">
        <ele>1532.600</ele>
        <time>2019-07-14T19:49:16Z</time>
      </trkpt>
      <trkpt lat="35.257114580" lon="-106.564838900">
        <ele>1532.700</ele>
        <time>2019-07-14T19:49:17Z</time>
      </trkpt>
      <trkpt lat="35.257411530" lon="-106.564775440">
        <ele>1532.700</ele>
        <time>2019-07-14T19:49:18Z</time>
      </trkpt>
      <trkpt lat="35.257708550" lon="-106.564698070">
        <ele>1532.500</ele>
        <time>2019-07-14T19:49:19Z</time>
      </trkpt>
      <trkpt lat="35.258003860" lon="-106.564623270">
        <ele>1532.700</ele>
        <time>2019-07-14T19:49:20Z</time>
      </trkpt>
      <trkpt lat="35.258298240" lon="-106.564536280">
        <ele>1532.700</ele>
        <time>2019-07-14T19:49:21Z</time>
      </trkpt>
      <trkpt lat="35.258585980" lon="-106.564446090">
        <ele>1532.200</ele>
        <time>2019-07-14T19:49:22Z</time>
      </trkpt>
      <trkpt lat="35.258873250" lon="-106.564343220">
        <ele>1532.000</ele>
        <time>2019-07-14T19:49:23Z</time>
      </trkpt>
      <trkpt lat="35.259167270" lon="-106.564236030">
        <ele>1531.700</ele>
        <time>2019-07-14T19:49:24Z</time>
      </trkpt>
      <trkpt lat="35.259449070" lon="-106.564121260">
        <ele>1531.700</ele>
        <time>2019-07-14T19:49:25Z</time>
      </trkpt>
      <trkpt lat="35.259730420" lon="-106.564006770">
        <ele>1531.900</ele>
        <time>2019-07-14T19:49:26Z</time>
      </trkpt>
      <trkpt lat="35.260022580" lon="-106.563882820">
        <ele>1532.000</ele>
        <time>2019-07-14T19:49:27Z</time>
      </trkpt>
      <trkpt lat="35.260303240" lon="-106.563756100">
        <ele>1532.600</ele>
        <time>2019-07-14T19:49:28Z</time>
      </trkpt>
      <trkpt lat="35.260580050" lon="-106.563616040">
        <ele>1533.200</ele>
        <time>2019-07-14T19:49:29Z</time>
      </trkpt>
      <trkpt lat="35.260858120" lon="-106.563473150">
        <ele>1533.700</ele>
        <time>2019-07-14T19:49:30Z</time>
      </trkpt>
      <trkpt lat="35.261133300" lon="-106.563316470">
        <ele>1533.900</ele>
        <time>2019-07-14T19:49:31Z</time>
      </trkpt>
      <trkpt lat="35.261405520" lon="-106.563148440">
        <ele>1534.500</ele>
        <time>2019-07-14T19:49:32Z</time>
      </trkpt>
      <trkpt lat="35.261675340" lon="-106.562982580">
        <ele>1534.600</ele>
        <time>2019-07-14T19:49:33Z</time>
      </trkpt>
      <trkpt lat="35.261943920" lon="-106.562809580">
        <ele>1535.100</ele>
        <time>2019-07-14T19:49:34Z</time>
      </trkpt>
      <trkpt lat="35.262205580" lon="-106.562632460">
        <ele>1535.800</ele>
        <time>2019-07-14T19:49:35Z</time>
      </trkpt>
      <trkpt lat="35.262462820" lon="-106.562462640">
        <ele>1535.800</ele>
        <time>2019-07-14T19:49:36Z</time>
      </trkpt>
      <trkpt lat="35.262713100" lon="-106.562294670">
        <ele>1536.300</ele>
        <time>2019-07-14T19:49:37Z</time>
      </trkpt>
      <trkpt lat="35.262964830" lon="-106.562123620">
        <ele>1536.400</ele>
        <time>2019-07-14T19:49:38Z</time>
      </trkpt>
      <trkpt lat="35.263216780" lon="-106.561954830">
        <ele>1536.600</ele>
        <time>2019-07-14T19:49:39Z</time>
      </trkpt>
      <trkpt lat="35.263470650" lon="-106.561785390">
        <ele>1537.000</ele>
        <time>2019-07-14T19:49:40Z</time>
      </trkpt>
      <trkpt lat="35.263721910" lon="-106.561615900">
        <ele>1537.300</ele>
        <time>2019-07-14T19:49:41Z</time>
      </trkpt>
      <trkpt lat="35.263975060" lon="-106.561441050">
        <ele>1538.000</ele>
        <time>2019-07-14T19:49:42Z</time>
      </trkpt>
      <trkpt lat="35.264231390" lon="-106.561249180">
        <ele>1538.700</ele>
        <time>2019-07-14T19:49:43Z</time>
      </trkpt>
      <trkpt lat="35.264491090" lon="-106.561080030">
        <ele>1539.600</ele>
        <time>2019-07-14T19:49:44Z</time>
      </trkpt>
      <trkpt lat="35.264760480" lon="-106.560904360">
        <ele>1539.100</ele>
        <time>2019-07-14T19:49:45Z</time>
      </trkpt>
      <trkpt lat="35.265023160" lon="-106.560731450">
        <ele>1539.900</ele>
        <time>2019-07-14T19:49:46Z</time>
      </trkpt>
      <trkpt lat="35.265289300" lon="-106.560547660">
        <ele>1540.600</ele>
        <time>2019-07-14T19:49:47Z</time>
      </trkpt>
      <trkpt lat="35.265553760" lon="-106.560377150">
        <ele>1539.400</ele>
        <time>2019-07-14T19:49:48Z</time>
      </trkpt>
      <trkpt lat="35.265818440" lon="-106.560205090">
        <ele>1539.700</ele>
        <time>2019-07-14T19:49:49Z</time>
      </trkpt>
      <trkpt lat="35.266083000" lon="-106.560021780">
        <ele>1540.600</ele>
        <time>2019-07-14T19:49:50Z</time>
      </trkpt>
      <trkpt lat="35.266337050" lon="-106.559845420">
        <ele>1540.900</ele>
        <time>2019-07-14T19:49:51Z</time>
      </trkpt>
      <trkpt lat="35.266590190" lon="-106.559671400">
        <ele>1542.100</ele>
        <time>2019-07-14T19:49:52Z</time>
      </trkpt>
      <trkpt lat="35.266845210" lon="-106.559498680">
        <ele>1542.000</ele>
        <time>2019-07-14T19:49:53Z</time>
      </trkpt>
      <trkpt lat="35.267111420" lon="-106.559334880">
        <ele>1542.200</ele>
        <time>2019-07-14T19:49:54Z</time>
      </trkpt>
      <trkpt lat="35.267379550" lon="-106.559169670">
        <ele>1542.700</ele>
        <time>2019-07-14T19:49:55Z</time>
      </trkpt>
      <trkpt lat="35.267642350" lon="-106.559011310">
        <ele>1543.100</ele>
        <time>2019-07-14T19:49:56Z</time>
      </trkpt>
      <trkpt lat="35.267912730" lon="-106.558861510">
        <ele>1542.900</ele>
        <time>2019-07-14T19:49:57Z</time>
      </trkpt>
      <trkpt lat="35.268177380" lon="-106.558720910">
        <ele>1543.500</ele>
        <time>2019-07-14T19:49:58Z</time>
      </trkpt>
      <trkpt lat="35.268452490" lon="-106.558580830">
        <ele>1544.400</ele>
        <time>2019-07-14T19:49:59Z</time>
      </trkpt>
      <trkpt lat="35.268729800" lon="-106.558444330">
        <ele>1544.500</ele>
        <time>2019-07-14T19:50:00Z</time>
      </trkpt>
      <trkpt lat="35.269018260" lon="-106.558315750">
        <ele>1544.400</ele>
        <time>2019-07-14T19:50:01Z</time>
      </trkpt>
      <trkpt lat="35.269304220" lon="-106.558169180">
        <ele>1544.300</ele>
        <time>2019-07-14T19:50:02Z</time>
      </trkpt>
      <trkpt lat="35.269598580" lon="-106.558043950">
        <ele>1544.100</ele>
        <time>2019-07-14T19:50:03Z</time>
      </trkpt>
      <trkpt lat="35.269883170" lon="-106.557915860">
        <ele>1543.700</ele>
        <time>2019-07-14T19:50:04Z</time>
      </trkpt>
      <trkpt lat="35.270169210" lon="-106.557792940">
        <ele>1543.100</ele>
        <time>2019-07-14T19:50:05Z</time>
      </trkpt>
      <trkpt lat="35.270454900" lon="-106.557673970">
        <ele>1542.300</ele>
        <time>2019-07-14T19:50:06Z</time>
      </trkpt>
      <trkpt lat="35.270742980" lon="-106.557558190">
        <ele>1542.200</ele>
        <time>2019-07-14T19:50:07Z</time>
      </trkpt>
      <trkpt lat="35.271028470" lon="-106.557436760">
        <ele>1541.600</ele>
        <time>2019-07-14T19:50:08Z</time>
      </trkpt>
      <trkpt lat="35.271306840" lon="-106.557325220">
        <ele>1541.100</ele>
        <time>2019-07-14T19:50:09Z</time>
      </trkpt>
      <trkpt lat="35.271592680" lon="-106.557214430">
        <ele>1540.700</ele>
        <time>2019-07-14T19:50:10Z</time>
      </trkpt>
      <trkpt lat="35.271879000" lon="-106.557096480">
        <ele>1540.600</ele>
        <time>2019-07-14T19:50:11Z</time>
      </trkpt>
      <trkpt lat="35.272163050" lon="-106.556976170">
        <ele>1540.300</ele>
        <time>2019-07-14T19:50:12Z</time>
      </trkpt>
      <trkpt lat="35.272454700" lon="-106.556854270">
        <ele>1540.200</ele>
        <time>2019-07-14T19:50:13Z</time>
      </trkpt>
      <trkpt lat="35.272735130" lon="-106.556733330">
        <ele>1539.800</ele>
        <time>2019-07-14T19:50:14Z</time>
      </trkpt>
      <trkpt lat="35.273022110" lon="-106.556616150">
        <ele>1540.100</ele>
        <time>2019-07-14T19:50:15Z</time>
      </trkpt>
      <trkpt lat="35.273294770" lon="-106.556501290">
        <ele>1539.700</ele>
        <time>2019-07-14T19:50:16Z</time>
      </trkpt>
      <trkpt lat="35.273580230" lon="-106.556386430">
        <ele>1540.200</ele>
        <time>2019-07-14T19:50:17Z</time>
      </trkpt>
      <trkpt lat="35.273864650" lon="-106.556269630">
        <ele>1540.600</ele>
        <time>2019-07-14T19:50:18Z</time>
      </trkpt>
      <trkpt lat="35.274152740" lon="-106.556152450">
        <ele>1541.600</ele>
        <time>2019-07-14T19:50:19Z</time>
      </trkpt>
      <trkpt lat="35.274435390" lon="-106.556039260">
        <ele>1541.900</ele>
        <time>2019-07-14T19:50:20Z</time>
      </trkpt>
      <trkpt lat="35.274716860" lon="-106.555914790">
        <ele>1542.300</ele>
        <time>2019-07-14T19:50:21Z</time>
      </trkpt>
      <trkpt lat="35.274998460" lon="-106.555793960">
        <ele>1542.700</ele>
        <time>2019-07-14T19:50:22Z</time>
      </trkpt>
      <trkpt lat="35.275286070" lon="-106.555674860">
        <ele>1543.100</ele>
        <time>2019-07-14T19:50:23Z</time>
      </trkpt>
      <trkpt lat="35.275565200" lon="-106.555564200">
        <ele>1542.800</ele>
        <time>2019-07-14T19:50:24Z</time>
      </trkpt>
      <trkpt lat="35.275850630" lon="-106.555444900">
        <ele>1542.800</ele>
        <time>2019-07-14T19:50:25Z</time>
      </trkpt>
      <trkpt lat="35.276132380" lon="-106.555326080">
        <ele>1542.700</ele>
        <time>2019-07-14T19:50:26Z</time>
      </trkpt>
      <trkpt lat="35.276423190" lon="-106.555207080">
        <ele>1543.000</ele>
        <time>2019-07-14T19:50:27Z</time>
      </trkpt>
      <trkpt lat="35.276712720" lon="-106.555082930">
        <ele>1543.200</ele>
        <time>2019-07-14T19:50:28Z</time>
      </trkpt>
      <trkpt lat="35.277008690" lon="-106.554966030">
        <ele>1543.400</ele>
        <time>2019-07-14T19:50:29Z</time>
      </trkpt>
      <trkpt lat="35.277299400" lon="-106.554848390">
        <ele>1543.800</ele>
        <time>2019-07-14T19:50:30Z</time>
      </trkpt>
      <trkpt lat="35.277593950" lon="-106.554729960">
        <ele>1543.500</ele>
        <time>2019-07-14T19:50:31Z</time>
      </trkpt>
      <trkpt lat="35.277885890" lon="-106.554608110">
        <ele>1543.400</ele>
        <time>2019-07-14T19:50:32Z</time>
      </trkpt>
      <trkpt lat="35.278179230" lon="-106.554493230">
        <ele>1542.200</ele>
        <time>2019-07-14T19:50:33Z</time>
      </trkpt>
      <trkpt lat="35.278469720" lon="-106.554384730">
        <ele>1541.100</ele>
        <time>2019-07-14T19:50:34Z</time>
      </trkpt>
      <trkpt lat="35.278759780" lon="-106.554264030">
        <ele>1540.700</ele>
        <time>2019-07-14T19:50:35Z</time>
      </trkpt>
      <trkpt lat="35.279036600" lon="-106.554131180">
        <ele>1540.200</ele>
        <time>2019-07-14T19:50:36Z</time>
      </trkpt>
      <trkpt lat="35.279318570" lon="-106.554001260">
        <ele>1540.200</ele>
        <time>2019-07-14T19:50:37Z</time>
      </trkpt>
      <trkpt lat="35.279595120" lon="-106.553858900">
        <ele>1540.300</ele>
        <time>2019-07-14T19:50:38Z</time>
      </trkpt>
      <trkpt lat="35.279876630" lon="-106.553705920">
        <ele>1540.000</ele>
        <time>2019-07-14T19:50:39Z</time>
      </trkpt>
      <trkpt lat="35.280157860" lon="-106.553553670">
        <ele>1539.300</ele>
        <time>2019-07-14T19:50:40Z</time>
      </trkpt>
      <trkpt lat="35.280433380" lon="-106.553393250">
        <ele>1539.400</ele>
        <time>2019-07-14T19:50:41Z</time>
      </trkpt>
      <trkpt lat="35.280702280" lon="-106.553222810">
        <ele>1539.500</ele>
        <time>2019-07-14T19:50:42Z</time>
      </trkpt>
      <trkpt lat="35.280970650" lon="-106.553054150">
        <ele>1539.100</ele>
        <time>2019-07-14T19:50:43Z</time>
      </trkpt>
      <trkpt lat="35.281238850" lon="-106.552873780">
        <ele>1538.500</ele>
        <time>2019-07-14T19:50:44Z</time>
      </trkpt>
      <trkpt lat="35.281498310" lon="-106.552693960">
        <ele>1538.700</ele>
        <time>2019-07-14T19:50:45Z</time>
      </trkpt>
      <trkpt lat="35.281761630" lon="-106.552509660">
        <ele>1538.400</ele>
        <time>2019-07-14T19:50:46Z</time>
      </trkpt>
      <trkpt lat="35.282025080" lon="-106.552328650">
        <ele>1538.700</ele>
        <time>2019-07-14T19:50:47Z</time>
      </trkpt>
      <trkpt lat="35.282289470" lon="-106.552143870">
        <ele>1538.700</ele>
        <time>2019-07-14T19:50:48Z</time>
      </trkpt>
      <trkpt lat="35.282557720" lon="-106.551961180">
        <ele>1538.900</ele>
        <time>2019-07-14T19:50:49Z</time>
      </trkpt>
      <trkpt lat="35.282827100" lon="-106.551786400">
        <ele>1539.100</ele>
        <time>2019-07-14T19:50:50Z</time>
      </trkpt>
      <trkpt lat="35.283087190" lon="-106.551591090">
        <ele>1539.500</ele>
        <time>2019-07-14T19:50:51Z</time>
      </trkpt>
      <trkpt lat="35.283351660" lon="-106.551408370">
        <ele>1539.300</ele>
        <time>2019-07-14T19:50:52Z</time>
      </trkpt>
      <trkpt lat="35.283612060" lon="-106.551221230">
        <ele>1539.900</ele>
        <time>2019-07-14T19:50:53Z</time>
      </trkpt>
      <trkpt lat="35.283872170" lon="-106.551043090">
        <ele>1540.800</ele>
        <time>2019-07-14T19:50:54Z</time>
      </trkpt>
      <trkpt lat="35.284138710" lon="-106.550856950">
        <ele>1541.400</ele>
        <time>2019-07-14T19:50:55Z</time>
      </trkpt>
      <trkpt lat="35.284405620" lon="-106.550676000">
        <ele>1541.800</ele>
        <time>2019-07-14T19:50:56Z</time>
      </trkpt>
      <trkpt lat="35.284665580" lon="-106.550488600">
        <ele>1542.800</ele>
        <time>2019-07-14T19:50:57Z</time>
      </trkpt>
      <trkpt lat="35.284930920" lon="-106.550304630">
        <ele>1543.500</ele>
        <time>2019-07-14T19:50:58Z</time>
      </trkpt>
      <trkpt lat="35.285194340" lon="-106.550120210">
        <ele>1544.100</ele>
        <time>2019-07-14T19:50:59Z</time>
      </trkpt>
      <trkpt lat="35.285454150" lon="-106.549932890">
        <ele>1544.200</ele>
        <time>2019-07-14T19:51:00Z</time>
      </trkpt>
      <trkpt lat="35.285726650" lon="-106.549749640">
        <ele>1544.500</ele>
        <time>2019-07-14T19:51:01Z</time>
      </trkpt>
      <trkpt lat="35.285990790" lon="-106.549564340">
        <ele>1544.800</ele>
        <time>2019-07-14T19:51:02Z</time>
      </trkpt>
      <trkpt lat="35.286261540" lon="-106.549383560">
        <ele>1544.600</ele>
        <time>2019-07-14T19:51:03Z</time>
      </trkpt>
      <trkpt lat="35.286524360" lon="-106.549199300">
        <ele>1544.700</ele>
        <time>2019-07-14T19:51:04Z</time>
      </trkpt>
      <trkpt lat="35.286787450" lon="-106.549009410">
        <ele>1544.500</ele>
        <time>2019-07-14T19:51:05Z</time>
      </trkpt>
      <trkpt lat="35.287054150" lon="-106.548827000">
        <ele>1544.600</ele>
        <time>2019-07-14T19:51:06Z</time>
      </trkpt>
      <trkpt lat="35.287313800" lon="-106.548642820">
        <ele>1544.700</ele>
        <time>2019-07-14T19:51:07Z</time>
      </trkpt>
      <trkpt lat="35.287581170" lon="-106.548456080">
        <ele>1544.000</ele>
        <time>2019-07-14T19:51:08Z</time>
      </trkpt>
      <trkpt lat="35.287844600" lon="-106.548262440">
        <ele>1543.800</ele>
        <time>2019-07-14T19:51:09Z</time>
      </trkpt>
      <trkpt lat="35.288109230" lon="-106.548072540">
        <ele>1542.700</ele>
        <time>2019-07-14T19:51:10Z</time>
      </trkpt>
      <trkpt lat="35.288371810" lon="-106.547892340">
        <ele>1542.500</ele>
        <time>2019-07-14T19:51:11Z</time>
      </trkpt>
      <trkpt lat="35.288632790" lon="-106.547704800">
        <ele>1541.800</ele>
        <time>2019-07-14T19:51:12Z</time>
      </trkpt>
      <trkpt lat="35.288896560" lon="-106.547518730">
        <ele>1541.400</ele>
        <time>2019-07-14T19:51:13Z</time>
      </trkpt>
      <trkpt lat="35.289158030" lon="-106.547337270">
        <ele>1541.000</ele>
        <time>2019-07-14T19:51:14Z</time>
      </trkpt>
      <trkpt lat="35.289416030" lon="-106.547147580">
        <ele>1539.900</ele>
        <time>2019-07-14T19:51:15Z</time>
      </trkpt>
      <trkpt lat="35.289680860" lon="-106.546959580">
        <ele>1539.800</ele>
        <time>2019-07-14T19:51:16Z</time>
      </trkpt>
      <trkpt lat="35.289940040" lon="-106.546768620">
        <ele>1540.100</ele>
        <time>2019-07-14T19:51:17Z</time>
      </trkpt>
      <trkpt lat="35.290197160" lon="-106.546588950">
        <ele>1539.400</ele>
        <time>2019-07-14T19:51:18Z</time>
      </trkpt>
      <trkpt lat="35.290455840" lon="-106.546408420">
        <ele>1539.500</ele>
        <time>2019-07-14T19:51:19Z</time>
      </trkpt>
      <trkpt lat="35.290722700" lon="-106.546222830">
        <ele>1539.300</ele>
        <time>2019-07-14T19:51:20Z</time>
      </trkpt>
      <trkpt lat="35.290986300" lon="-106.546036010">
        <ele>1539.700</ele>
        <time>2019-07-14T19:51:21Z</time>
      </trkpt>
      <trkpt lat="35.291242260" lon="-106.545847390">
        <ele>1539.800</ele>
        <time>2019-07-14T19:51:22Z</time>
      </trkpt>
      <trkpt lat="35.291506060" lon="-106.545666380">
        <ele>1540.600</ele>
        <time>2019-07-14T19:51:23Z</time>
      </trkpt>
      <trkpt lat="35.291771450" lon="-106.545482880">
        <ele>1540.900</ele>
        <time>2019-07-14T19:51:24Z</time>
      </trkpt>
      <trkpt lat="35.292040660" lon="-106.545299510">
        <ele>1541.300</ele>
        <time>2019-07-14T19:51:25Z</time>
      </trkpt>
      <trkpt lat="35.292304540" lon="-106.545112710">
        <ele>1541.600</ele>
        <time>2019-07-14T19:51:26Z</time>
      </trkpt>
      <trkpt lat="35.292565740" lon="-106.544932270">
        <ele>1541.300</ele>
        <time>2019-07-14T19:51:27Z</time>
      </trkpt>
      <trkpt lat="35.292830660" lon="-106.544743910">
        <ele>1541.200</ele>
        <time>2019-07-14T19:51:28Z</time>
      </trkpt>
      <trkpt lat="35.293093230" lon="-106.544563210">
        <ele>1541.600</ele>
        <time>2019-07-14T19:51:29Z</time>
      </trkpt>
      <trkpt lat="35.293355560" lon="-106.544374420">
        <ele>1542.300</ele>
        <time>2019-07-14T19:51:30Z</time>
      </trkpt>
      <trkpt lat="35.293616230" lon="-106.544191930">
        <ele>1542.600</ele>
        <time>2019-07-14T19:51:31Z</time>
      </trkpt>
      <trkpt lat="35.293882770" lon="-106.544015550">
        <ele>1542.100</ele>
        <time>2019-07-14T19:51:32Z</time>
      </trkpt>
      <trkpt lat="35.294144650" lon="-106.543834560">
        <ele>1542.400</ele>
        <time>2019-07-14T19:51:33Z</time>
      </trkpt>
      <trkpt lat="35.294411760" lon="-106.543641580">
        <ele>1542.200</ele>
        <time>2019-07-14T19:51:34Z</time>
      </trkpt>
      <trkpt lat="35.294669630" lon="-106.543461020">
        <ele>1541.900</ele>
        <time>2019-07-14T19:51:35Z</time>
      </trkpt>
      <trkpt lat="35.294931170" lon="-106.543273630">
        <ele>1541.400</ele>
        <time>2019-07-14T19:51:36Z</time>
      </trkpt>
      <trkpt lat="35.295196040" lon="-106.543091280">
        <ele>1541.300</ele>
        <time>2019-07-14T19:51:37Z</time>
      </trkpt>
      <trkpt lat="35.295461280" lon="-106.542911250">
        <ele>1540.800</ele>
        <time>2019-07-14T19:51:38Z</time>
      </trkpt>
      <trkpt lat="35.295726320" lon="-106.542727180">
        <ele>1540.100</ele>
        <time>2019-07-14T19:51:39Z</time>
      </trkpt>
      <trkpt lat="35.295989920" lon="-106.542532000">
        <ele>1540.100</ele>
        <time>2019-07-14T19:51:40Z</time>
      </trkpt>
      <trkpt lat="35.296247810" lon="-106.542342530">
        <ele>1539.700</ele>
        <time>2019-07-14T19:51:41Z</time>
      </trkpt>
      <trkpt lat="35.296509060" lon="-106.542159510">
        <ele>1539.400</ele>
        <time>2019-07-14T19:51:42Z</time>
      </trkpt>
      <trkpt lat="35.296769810" lon="-106.541971920">
        <ele>1538.800</ele>
        <time>2019-07-14T19:51:43Z</time>
      </trkpt>
      <trkpt lat="35.297029750" lon="-106.541782600">
        <ele>1537.900</ele>
        <time>2019-07-14T19:51:44Z</time>
      </trkpt>
      <trkpt lat="35.297288870" lon="-106.541599290">
        <ele>1537.500</ele>
        <time>2019-07-14T19:51:45Z</time>
      </trkpt>
      <trkpt lat="35.297547120" lon="-106.541407160">
        <ele>1536.700</ele>
        <time>2019-07-14T19:51:46Z</time>
      </trkpt>
      <trkpt lat="35.297806410" lon="-106.541214530">
        <ele>1536.200</ele>
        <time>2019-07-14T19:51:47Z</time>
      </trkpt>
      <trkpt lat="35.298076350" lon="-106.541030110">
        <ele>1536.000</ele>
        <time>2019-07-14T19:51:48Z</time>
      </trkpt>
      <trkpt lat="35.298337660" lon="-106.540849390">
        <ele>1536.000</ele>
        <time>2019-07-14T19:51:49Z</time>
      </trkpt>
      <trkpt lat="35.298602560" lon="-106.540667570">
        <ele>1535.900</ele>
        <time>2019-07-14T19:51:50Z</time>
      </trkpt>
      <trkpt lat="35.298870410" lon="-106.540485570">
        <ele>1535.800</ele>
        <time>2019-07-14T19:51:51Z</time>
      </trkpt>
      <trkpt lat="35.299130830" lon="-106.540298740">
        <ele>1535.600</ele>
        <time>2019-07-14T19:51:52Z</time>
      </trkpt>
      <trkpt lat="35.299387440" lon="-106.540109430">
        <ele>1535.600</ele>
        <time>2019-07-14T19:51:53Z</time>
      </trkpt>
      <trkpt lat="35.299651370" lon="-106.539923870">
        <ele>1536.200</ele>
        <time>2019-07-14T19:51:54Z</time>
      </trkpt>
      <trkpt lat="35.299910890" lon="-106.539737370">
        <ele>1537.100</ele>
        <time>2019-07-14T19:51:55Z</time>
      </trkpt>
      <trkpt lat="35.300168190" lon="-106.539550530">
        <ele>1538.200</ele>
        <time>2019-07-14T19:51:56Z</time>
      </trkpt>
      <trkpt lat="35.300427670" lon="-106.539360930">
        <ele>1539.000</ele>
        <time>2019-07-14T19:51:57Z</time>
      </trkpt>
      <trkpt lat="35.300681610" lon="-106.539170300">
        <ele>1539.600</ele>
        <time>2019-07-14T19:51:58Z</time>
      </trkpt>
      <trkpt lat="35.300935400" lon="-106.538978650">
        <ele>1539.700</ele>
        <time>2019-07-14T19:51:59Z</time>
      </trkpt>
      <trkpt lat="35.301186790" lon="-106.538794070">
        <ele>1540.000</ele>
        <time>2019-07-14T19:52:00Z</time>
      </trkpt>
      <trkpt lat="35.301444110" lon="-106.538612910">
        <ele>1540.400</ele>
        <time>2019-07-14T19:52:01Z</time>
      </trkpt>
      <trkpt lat="35.301708830" lon="-106.538428800">
        <ele>1541.200</ele>
        <time>2019-07-14T19:52:02Z</time>
      </trkpt>
      <trkpt lat="35.301969470" lon="-106.538239360">
        <ele>1541.400</ele>
        <time>2019-07-14T19:52:03Z</time>
      </trkpt>
      <trkpt lat="35.302228690" lon="-106.538066830">
        <ele>1541.100</ele>
        <time>2019-07-14T19:52:04Z</time>
      </trkpt>
      <trkpt lat="35.302485610" lon="-106.537892860">
        <ele>1541.300</ele>
        <time>2019-07-14T19:52:05Z</time>
      </trkpt>
      <trkpt lat="35.302743230" lon="-106.537712710">
        <ele>1542.400</ele>
        <time>2019-07-14T19:52:06Z</time>
      </trkpt>
      <trkpt lat="35.302994830" lon="-106.537541200">
        <ele>1542.400</ele>
        <time>2019-07-14T19:52:07Z</time>
      </trkpt>
      <trkpt lat="35.303249350" lon="-106.537360610">
        <ele>1542.800</ele>
        <time>2019-07-14T19:52:08Z</time>
      </trkpt>
      <trkpt lat="35.303505610" lon="-106.537184370">
        <ele>1542.800</ele>
        <time>2019-07-14T19:52:09Z</time>
      </trkpt>
      <trkpt lat="35.303761700" lon="-106.537007510">
        <ele>1543.200</ele>
        <time>2019-07-14T19:52:10Z</time>
      </trkpt>
      <trkpt lat="35.304014830" lon="-106.536828470">
        <ele>1542.700</ele>
        <time>2019-07-14T19:52:11Z</time>
      </trkpt>
      <trkpt lat="35.304279960" lon="-106.536651850">
        <ele>1542.900</ele>
        <time>2019-07-14T19:52:12Z</time>
      </trkpt>
      <trkpt lat="35.304540520" lon="-106.536481350">
        <ele>1543.300</ele>
        <time>2019-07-14T19:52:13Z</time>
      </trkpt>
      <trkpt lat="35.304802340" lon="-106.536304610">
        <ele>1543.200</ele>
        <time>2019-07-14T19:52:14Z</time>
      </trkpt>
      <trkpt lat="35.305062750" lon="-106.536140330">
        <ele>1542.000</ele>
        <time>2019-07-14T19:52:15Z</time>
      </trkpt>
      <trkpt lat="35.305332170" lon="-106.535986320">
        <ele>1542.000</ele>
        <time>2019-07-14T19:52:16Z</time>
      </trkpt>
      <trkpt lat="35.305605460" lon="-106.535839080">
        <ele>1541.900</ele>
        <time>2019-07-14T19:52:17Z</time>
      </trkpt>
      <trkpt lat="35.305874050" lon="-106.535703240">
        <ele>1541.800</ele>
        <time>2019-07-14T19:52:18Z</time>
      </trkpt>
      <trkpt lat="35.306139340" lon="-106.535563150">
        <ele>1541.600</ele>
        <time>2019-07-14T19:52:19Z</time>
      </trkpt>
      <trkpt lat="35.306420020" lon="-106.535437450">
        <ele>1542.000</ele>
        <time>2019-07-14T19:52:20Z</time>
      </trkpt>
      <trkpt lat="35.306693400" lon="-106.535319680">
        <ele>1541.700</ele>
        <time>2019-07-14T19:52:21Z</time>
      </trkpt>
      <trkpt lat="35.306967740" lon="-106.535208860">
        <ele>1541.800</ele>
        <time>2019-07-14T19:52:22Z</time>
      </trkpt>
      <trkpt lat="35.307244210" lon="-106.535105900">
        <ele>1543.000</ele>
        <time>2019-07-14T19:52:23Z</time>
      </trkpt>
      <trkpt lat="35.307527490" lon="-106.535010660">
        <ele>1544.100</ele>
        <time>2019-07-14T19:52:24Z</time>
      </trkpt>
      <trkpt lat="35.307804880" lon="-106.534916610">
        <ele>1544.400</ele>
        <time>2019-07-14T19:52:25Z</time>
      </trkpt>
      <trkpt lat="35.308088400" lon="-106.534827760">
        <ele>1544.900</ele>
        <time>2019-07-14T19:52:26Z</time>
      </trkpt>
      <trkpt lat="35.308376510" lon="-106.534748480">
        <ele>1544.000</ele>
        <time>2019-07-14T19:52:27Z</time>
      </trkpt>
      <trkpt lat="35.308666260" lon="-106.534676790">
        <ele>1543.800</ele>
        <time>2019-07-14T19:52:28Z</time>
      </trkpt>
      <trkpt lat="35.308955640" lon="-106.534618460">
        <ele>1544.700</ele>
        <time>2019-07-14T19:52:29Z</time>
      </trkpt>
      <trkpt lat="35.309247390" lon="-106.534542710">
        <ele>1543.200</ele>
        <time>2019-07-14T19:52:30Z</time>
      </trkpt>
      <trkpt lat="35.309542800" lon="-106.534483980">
        <ele>1543.700</ele>
        <time>2019-07-14T19:52:31Z</time>
      </trkpt>
      <trkpt lat="35.309838830" lon="-106.534437890">
        <ele>1542.700</ele>
        <time>2019-07-14T19:52:32Z</time>
      </trkpt>
      <trkpt lat="35.310136400" lon="-106.534375990">
        <ele>1542.600</ele>
        <time>2019-07-14T19:52:33Z</time>
      </trkpt>
      <trkpt lat="35.310425240" lon="-106.534360670">
        <ele>1542.700</ele>
        <time>2019-07-14T19:52:34Z</time>
      </trkpt>
      <trkpt lat="35.310705490" lon="-106.534332990">
        <ele>1542.500</ele>
        <time>2019-07-14T19:52:35Z</time>
      </trkpt>
      <trkpt lat="35.310981020" lon="-106.534306920">
        <ele>1542.300</ele>
        <time>2019-07-14T19:52:36Z</time>
      </trkpt>
      <trkpt lat="35.311253520" lon="-106.534287960">
        <ele>1542.000</ele>
        <time>2019-07-14T19:52:37Z</time>
      </trkpt>
      <trkpt lat="35.311521850" lon="-106.534270850">
        <ele>1542.600</ele>
        <time>2019-07-14T19:52:38Z</time>
      </trkpt>
      <trkpt lat="35.311782470" lon="-106.534245700">
        <ele>1542.900</ele>
        <time>2019-07-14T19:52:39Z</time>
      </trkpt>
      <trkpt lat="35.312046210" lon="-106.534225400">
        <ele>1543.200</ele>
        <time>2019-07-14T19:52:40Z</time>
      </trkpt>
      <trkpt lat="35.312301940" lon="-106.534192070">
        <ele>1542.200</ele>
        <time>2019-07-14T19:52:41Z</time>
      </trkpt>
      <trkpt lat="35.312544310" lon="-106.534150100">
        <ele>1542.600</ele>
        <time>2019-07-14T19:52:42Z</time>
      </trkpt>
      <trkpt lat="35.312782580" lon="-106.534103440">
        <ele>1542.400</ele>
        <time>2019-07-14T19:52:43Z</time>
      </trkpt>
      <trkpt lat="35.313013320" lon="-106.534049920">
        <ele>1542.100</ele>
        <time>2019-07-14T19:52:44Z</time>
      </trkpt>
      <trkpt lat="35.313242590" lon="-106.533999690">
        <ele>1541.800</ele>
        <time>2019-07-14T19:52:45Z</time>
      </trkpt>
      <trkpt lat="35.313469000" lon="-106.533937010">
        <ele>1541.500</ele>
        <time>2019-07-14T19:52:46Z</time>
      </trkpt>
      <trkpt lat="35.313689450" lon="-106.533875300">
        <ele>1541.500</ele>
        <time>2019-07-14T19:52:47Z</time>
      </trkpt>
      <trkpt lat="35.313897880" lon="-106.533813300">
        <ele>1542.000</ele>
        <time>2019-07-14T19:52:48Z</time>
      </trkpt>
      <trkpt lat="35.314097650" lon="-106.533739550">
        <ele>1541.800</ele>
        <time>2019-07-14T19:52:49Z</time>
      </trkpt>
      <trkpt lat="35.314275500" lon="-106.533667990">
        <ele>1542.000</ele>
        <time>2019-07-14T19:52:50Z</time>
      </trkpt>
      <trkpt lat="35.314449560" lon="-106.533599290">
        <ele>1542.300</ele>
        <time>2019-07-14T19:52:51Z</time>
      </trkpt>
      <trkpt lat="35.314609570" lon="-106.533528290">
        <ele>1542.600</ele>
        <time>2019-07-14T19:52:52Z</time>
      </trkpt>
      <trkpt lat="35.314761640" lon="-106.533463560">
        <ele>1543.600</ele>
        <time>2019-07-14T19:52:53Z</time>
      </trkpt>
      <trkpt lat="35.314899180" lon="-106.533402240">
        <ele>1544.000</ele>
        <time>2019-07-14T19:52:54Z</time>
      </trkpt>
      <trkpt lat="35.315026620" lon="-106.533347730">
        <ele>1544.000</ele>
        <time>2019-07-14T19:52:55Z</time>
      </trkpt>
      <trkpt lat="35.315137670" lon="-106.533291390">
        <ele>1544.400</ele>
        <time>2019-07-14T19:52:56Z</time>
      </trkpt>
      <trkpt lat="35.315234410" lon="-106.533248310">
        <ele>1544.400</ele>
        <time>2019-07-14T19:52:57Z</time>
      </trkpt>
      <trkpt lat="35.315325040" lon="-106.533211270">
        <ele>1545.000</ele>
        <time>2019-07-14T19:52:58Z</time>
      </trkpt>
      <trkpt lat="35.315409360" lon="-106.533187380">
        <ele>1545.300</ele>
        <time>2019-07-14T19:52:59Z</time>
      </trkpt>
      <trkpt lat="35.315486090" lon="-106.533180320">
        <ele>1545.800</ele>
        <time>2019-07-14T19:53:00Z</time>
      </trkpt>
      <trkpt lat="35.315550660" lon="-106.533181660">
        <ele>1546.200</ele>
        <time>2019-07-14T19:53:01Z</time>
      </trkpt>
      <trkpt lat="35.315606350" lon="-106.533193420">
        <ele>1546.700</ele>
        <time>2019-07-14T19:53:02Z</time>
      </trkpt>
      <trkpt lat="35.315652340" lon="-106.533205900">
        <ele>1546.900</ele>
        <time>2019-07-14T19:53:03Z</time>
      </trkpt>
      <trkpt lat="35.315690020" lon="-106.533220780">
        <ele>1546.800</ele>
        <time>2019-07-14T19:53:04Z</time>
      </trkpt>
      <trkpt lat="35.315725850" lon="-106.533231790">
        <ele>1547.100</ele>
        <time>2019-07-14T19:53:05Z</time>
      </trkpt>
      <trkpt lat="35.315772200" lon="-106.533248820">
        <ele>1547.800</ele>
        <time>2019-07-14T19:53:07Z</time>
      </trkpt>
      <trkpt lat="35.315841930" lon="-106.533207330">
        <ele>1550.200</ele>
        <time>2019-07-14T19:53:50Z</time>
      </trkpt>
      <trkpt lat="35.315844460" lon="-106.533262430">
        <ele>1550.500</ele>
        <time>2019-07-14T19:53:51Z</time>
      </trkpt>
      <trkpt lat="35.315881700" lon="-106.533298770">
        <ele>1550.000</ele>
        <time>2019-07-14T19:53:52Z</time>
      </trkpt>
      <trkpt lat="35.315913330" lon="-106.533339120">
        <ele>1549.800</ele>
        <time>2019-07-14T19:53:53Z</time>
      </trkpt>
      <trkpt lat="35.315956340" lon="-106.533397990">
        <ele>1549.200</ele>
        <time>2019-07-14T19:53:54Z</time>
      </trkpt>
      <trkpt lat="35.316012160" lon="-106.533457270">
        <ele>1550.100</ele>
        <time>2019-07-14T19:53:55Z</time>
      </trkpt>
      <trkpt lat="35.316061220" lon="-106.533532700">
        <ele>1549.900</ele>
        <time>2019-07-14T19:53:56Z</time>
      </trkpt>
      <trkpt lat="35.316109660" lon="-106.533624050">
        <ele>1548.900</ele>
        <time>2019-07-14T19:53:57Z</time>
      </trkpt>
      <trkpt lat="35.316161350" lon="-106.533720370">
        <ele>1549.000</ele>
        <time>2019-07-14T19:53:58Z</time>
      </trkpt>
      <trkpt lat="35.316217600" lon="-106.533824660">
        <ele>1548.500</ele>
        <time>2019-07-14T19:53:59Z</time>
      </trkpt>
      <trkpt lat="35.316269460" lon="-106.533940400">
        <ele>1548.600</ele>
        <time>2019-07-14T19:54:00Z</time>
      </trkpt>
      <trkpt lat="35.316327700" lon="-106.534069360">
        <ele>1548.000</ele>
        <time>2019-07-14T19:54:01Z</time>
      </trkpt>
      <trkpt lat="35.316384410" lon="-106.534216330">
        <ele>1547.400</ele>
        <time>2019-07-14T19:54:02Z</time>
      </trkpt>
      <trkpt lat="35.316414630" lon="-106.534367890">
        <ele>1546.800</ele>
        <time>2019-07-14T19:54:03Z</time>
      </trkpt>
      <trkpt lat="35.316444030" lon="-106.534533490">
        <ele>1546.300</ele>
        <time>2019-07-14T19:54:04Z</time>
      </trkpt>
      <trkpt lat="35.316462650" lon="-106.534707320">
        <ele>1546.000</ele>
        <time>2019-07-14T19:54:05Z</time>
      </trkpt>
      <trkpt lat="35.316478750" lon="-106.534882260">
        <ele>1544.600</ele>
        <time>2019-07-14T19:54:06Z</time>
      </trkpt>
      <trkpt lat="35.316496260" lon="-106.535065880">
        <ele>1543.700</ele>
        <time>2019-07-14T19:54:07Z</time>
      </trkpt>
      <trkpt lat="35.316510210" lon="-106.535256410">
        <ele>1543.600</ele>
        <time>2019-07-14T19:54:08Z</time>
      </trkpt>
      <trkpt lat="35.316531810" lon="-106.535443660">
        <ele>1542.500</ele>
        <time>2019-07-14T19:54:09Z</time>
      </trkpt>
      <trkpt lat="35.316547580" lon="-106.535638090">
        <ele>1542.000</ele>
        <time>2019-07-14T19:54:10Z</time>
      </trkpt>
      <trkpt lat="35.316568790" lon="-106.535840260">
        <ele>1541.700</ele>
        <time>2019-07-14T19:54:11Z</time>
      </trkpt>
      <trkpt lat="35.316582700" lon="-106.536047780">
        <ele>1542.000</ele>
        <time>2019-07-14T19:54:12Z</time>
      </trkpt>
      <trkpt lat="35.316600150" lon="-106.536238560">
        <ele>1541.300</ele>
        <time>2019-07-14T19:54:13Z</time>
      </trkpt>
      <trkpt lat="35.316619540" lon="-106.536428580">
        <ele>1540.600</ele>
        <time>2019-07-14T19:54:14Z</time>
      </trkpt>
      <trkpt lat="35.316646860" lon="-106.536635600">
        <ele>1540.600</ele>
        <time>2019-07-14T19:54:15Z</time>
      </trkpt>
      <trkpt lat="35.316661750" lon="-106.536842000">
        <ele>1539.900</ele>
        <time>2019-07-14T19:54:16Z</time>
      </trkpt>
      <trkpt lat="35.316700020" lon="-106.537054710">
        <ele>1541.100</ele>
        <time>2019-07-14T19:54:17Z</time>
      </trkpt>
      <trkpt lat="35.316719400" lon="-106.537259110">
        <ele>1540.900</ele>
        <time>2019-07-14T19:54:18Z</time>
      </trkpt>
      <trkpt lat="35.316752400" lon="-106.537451200">
        <ele>1541.500</ele>
        <time>2019-07-14T19:54:19Z</time>
      </trkpt>
      <trkpt lat="35.316784600" lon="-106.537639520">
        <ele>1541.700</ele>
        <time>2019-07-14T19:54:20Z</time>
      </trkpt>
      <trkpt lat="35.316813770" lon="-106.537830200">
        <ele>1542.100</ele>
        <time>2019-07-14T19:54:21Z</time>
      </trkpt>
      <trkpt lat="35.316841320" lon="-106.538010530">
        <ele>1542.700</ele>
        <time>2019-07-14T19:54:22Z</time>
      </trkpt>
      <trkpt lat="35.316888360" lon="-106.538195320">
        <ele>1544.200</ele>
        <time>2019-07-14T19:54:23Z</time>
      </trkpt>
      <trkpt lat="35.316912710" lon="-106.538364630">
        <ele>1543.500</ele>
        <time>2019-07-14T19:54:24Z</time>
      </trkpt>
      <trkpt lat="35.316937820" lon="-106.538517970">
        <ele>1542.600</ele>
        <time>2019-07-14T19:54:25Z</time>
      </trkpt>
      <trkpt lat="35.316973160" lon="-106.538670900">
        <ele>1543.500</ele>
        <time>2019-07-14T19:54:26Z</time>
      </trkpt>
      <trkpt lat="35.316987220" lon="-106.538826650">
        <ele>1538.900</ele>
        <time>2019-07-14T19:54:27Z</time>
      </trkpt>
      <trkpt lat="35.317002770" lon="-106.538986130">
        <ele>1534.900</ele>
        <time>2019-07-14T19:54:28Z</time>
      </trkpt>
      <trkpt lat="35.317036450" lon="-106.539124620">
        <ele>1534.900</ele>
        <time>2019-07-14T19:54:29Z</time>
      </trkpt>
      <trkpt lat="35.317076750" lon="-106.539288250">
        <ele>1533.600</ele>
        <time>2019-07-14T19:54:30Z</time>
      </trkpt>
      <trkpt lat="35.317121770" lon="-106.539438350">
        <ele>1534.000</ele>
        <time>2019-07-14T19:54:31Z</time>
      </trkpt>
      <trkpt lat="35.317171840" lon="-106.539595290">
        <ele>1533.900</ele>
        <time>2019-07-14T19:54:32Z</time>
      </trkpt>
      <trkpt lat="35.317213410" lon="-106.539752650">
        <ele>1533.000</ele>
        <time>2019-07-14T19:54:33Z</time>
      </trkpt>
      <trkpt lat="35.317249220" lon="-106.539912110">
        <ele>1531.100</ele>
        <time>2019-07-14T19:54:34Z</time>
      </trkpt>
      <trkpt lat="35.317302860" lon="-106.540079060">
        <ele>1530.300</ele>
        <time>2019-07-14T19:54:35Z</time>
      </trkpt>
      <trkpt lat="35.317354140" lon="-106.540240880">
        <ele>1530.500</ele>
        <time>2019-07-14T19:54:36Z</time>
      </trkpt>
      <trkpt lat="35.317396390" lon="-106.540417150">
        <ele>1529.800</ele>
        <time>2019-07-14T19:54:37Z</time>
      </trkpt>
      <trkpt lat="35.317443100" lon="-106.540595460">
        <ele>1529.400</ele>
        <time>2019-07-14T19:54:38Z</time>
      </trkpt>
      <trkpt lat="35.317490260" lon="-106.540774990">
        <ele>1529.100</ele>
        <time>2019-07-14T19:54:39Z</time>
      </trkpt>
      <trkpt lat="35.317537460" lon="-106.540957700">
        <ele>1529.000</ele>
        <time>2019-07-14T19:54:40Z</time>
      </trkpt>
      <trkpt lat="35.317582850" lon="-106.541135900">
        <ele>1527.900</ele>
        <time>2019-07-14T19:54:41Z</time>
      </trkpt>
      <trkpt lat="35.317626390" lon="-106.541318040">
        <ele>1526.200</ele>
        <time>2019-07-14T19:54:42Z</time>
      </trkpt>
      <trkpt lat="35.317671270" lon="-106.541501500">
        <ele>1525.800</ele>
        <time>2019-07-14T19:54:43Z</time>
      </trkpt>
      <trkpt lat="35.317708690" lon="-106.541683110">
        <ele>1525.400</ele>
        <time>2019-07-14T19:54:44Z</time>
      </trkpt>
      <trkpt lat="35.317749860" lon="-106.541864070">
        <ele>1525.000</ele>
        <time>2019-07-14T19:54:45Z</time>
      </trkpt>
      <trkpt lat="35.317783750" lon="-106.542038990">
        <ele>1524.400</ele>
        <time>2019-07-14T19:54:46Z</time>
      </trkpt>
      <trkpt lat="35.317820640" lon="-106.542214480">
        <ele>1524.600</ele>
        <time>2019-07-14T19:54:47Z</time>
      </trkpt>
      <trkpt lat="35.317859150" lon="-106.542382640">
        <ele>1525.100</ele>
        <time>2019-07-14T19:54:48Z</time>
      </trkpt>
      <trkpt lat="35.317895590" lon="-106.542555520">
        <ele>1524.700</ele>
        <time>2019-07-14T19:54:49Z</time>
      </trkpt>
      <trkpt lat="35.317934650" lon="-106.542726040">
        <ele>1524.400</ele>
        <time>2019-07-14T19:54:50Z</time>
      </trkpt>
      <trkpt lat="35.317973120" lon="-106.542880840">
        <ele>1525.200</ele>
        <time>2019-07-14T19:54:51Z</time>
      </trkpt>
      <trkpt lat="35.318010180" lon="-106.543046260">
        <ele>1525.100</ele>
        <time>2019-07-14T19:54:52Z</time>
      </trkpt>
      <trkpt lat="35.318044160" lon="-106.543210630">
        <ele>1524.500</ele>
        <time>2019-07-14T19:54:53Z</time>
      </trkpt>
      <trkpt lat="35.318086630" lon="-106.543373260">
        <ele>1524.400</ele>
        <time>2019-07-14T19:54:54Z</time>
      </trkpt>
      <trkpt lat="35.318131840" lon="-106.543536400">
        <ele>1523.800</ele>
        <time>2019-07-14T19:54:55Z</time>
      </trkpt>
      <trkpt lat="35.318178050" lon="-106.543690340">
        <ele>1523.300</ele>
        <time>2019-07-14T19:54:56Z</time>
      </trkpt>
      <trkpt lat="35.318220020" lon="-106.543857670">
        <ele>1522.500</ele>
        <time>2019-07-14T19:54:57Z</time>
      </trkpt>
      <trkpt lat="35.318271290" lon="-106.544006300">
        <ele>1521.100</ele>
        <time>2019-07-14T19:54:58Z</time>
      </trkpt>
      <trkpt lat="35.318325350" lon="-106.544138720">
        <ele>1522.100</ele>
        <time>2019-07-14T19:54:59Z</time>
      </trkpt>
      <trkpt lat="35.318376850" lon="-106.544278990">
        <ele>1521.800</ele>
        <time>2019-07-14T19:55:00Z</time>
      </trkpt>
      <trkpt lat="35.318432210" lon="-106.544419070">
        <ele>1522.500</ele>
        <time>2019-07-14T19:55:01Z</time>
      </trkpt>
      <trkpt lat="35.318491740" lon="-106.544556040">
        <ele>1523.200</ele>
        <time>2019-07-14T19:55:02Z</time>
      </trkpt>
      <trkpt lat="35.318550580" lon="-106.544695450">
        <ele>1523.700</ele>
        <time>2019-07-14T19:55:03Z</time>
      </trkpt>
      <trkpt lat="35.318605550" lon="-106.544835060">
        <ele>1523.600</ele>
        <time>2019-07-14T19:55:04Z</time>
      </trkpt>
      <trkpt lat="35.318668470" lon="-106.544977390">
        <ele>1524.100</ele>
        <time>2019-07-14T19:55:05Z</time>
      </trkpt>
      <trkpt lat="35.318724160" lon="-106.545119010">
        <ele>1523.400</ele>
        <time>2019-07-14T19:55:06Z</time>
      </trkpt>
      <trkpt lat="35.318786980" lon="-106.545254980">
        <ele>1523.300</ele>
        <time>2019-07-14T19:55:07Z</time>
      </trkpt>
      <trkpt lat="35.318845690" lon="-106.545401880">
        <ele>1523.000</ele>
        <time>2019-07-14T19:55:08Z</time>
      </trkpt>
      <trkpt lat="35.318904280" lon="-106.545542360">
        <ele>1522.600</ele>
        <time>2019-07-14T19:55:09Z</time>
      </trkpt>
      <trkpt lat="35.318960510" lon="-106.545679890">
        <ele>1522.500</ele>
        <time>2019-07-14T19:55:10Z</time>
      </trkpt>
      <trkpt lat="35.319014690" lon="-106.545811090">
        <ele>1522.400</ele>
        <time>2019-07-14T19:55:11Z</time>
      </trkpt>
      <trkpt lat="35.319069450" lon="-106.545938900">
        <ele>1522.200</ele>
        <time>2019-07-14T19:55:12Z</time>
      </trkpt>
      <trkpt lat="35.319099920" lon="-106.546068850">
        <ele>1521.900</ele>
        <time>2019-07-14T19:55:13Z</time>
      </trkpt>
      <trkpt lat="35.319134800" lon="-106.546187950">
        <ele>1522.300</ele>
        <time>2019-07-14T19:55:14Z</time>
      </trkpt>
      <trkpt lat="35.319177440" lon="-106.546303180">
        <ele>1522.900</ele>
        <time>2019-07-14T19:55:15Z</time>
      </trkpt>
      <trkpt lat="35.319206480" lon="-106.546415400">
        <ele>1524.100</ele>
        <time>2019-07-14T19:55:16Z</time>
      </trkpt>
      <trkpt lat="35.319240640" lon="-106.546528880">
        <ele>1524.300</ele>
        <time>2019-07-14T19:55:17Z</time>
      </trkpt>
      <trkpt lat="35.319273370" lon="-106.546640410">
        <ele>1523.900</ele>
        <time>2019-07-14T19:55:18Z</time>
      </trkpt>
      <trkpt lat="35.319308380" lon="-106.546761840">
        <ele>1524.000</ele>
        <time>2019-07-14T19:55:19Z</time>
      </trkpt>
      <trkpt lat="35.319350180" lon="-106.546863540">
        <ele>1522.800</ele>
        <time>2019-07-14T19:55:20Z</time>
      </trkpt>
      <trkpt lat="35.319387060" lon="-106.546989800">
        <ele>1523.100</ele>
        <time>2019-07-14T19:55:21Z</time>
      </trkpt>
      <trkpt lat="35.319424870" lon="-106.547124060">
        <ele>1522.900</ele>
        <time>2019-07-14T19:55:22Z</time>
      </trkpt>
      <trkpt lat="35.319464460" lon="-106.547266590">
        <ele>1522.800</ele>
        <time>2019-07-14T19:55:23Z</time>
      </trkpt>
      <trkpt lat="35.319504730" lon="-106.547415650">
        <ele>1522.700</ele>
        <time>2019-07-14T19:55:24Z</time>
      </trkpt>
      <trkpt lat="35.319548570" lon="-106.547561870">
        <ele>1522.500</ele>
        <time>2019-07-14T19:55:25Z</time>
      </trkpt>
      <trkpt lat="35.319590840" lon="-106.547718380">
        <ele>1522.500</ele>
        <time>2019-07-14T19:55:26Z</time>
      </trkpt>
      <trkpt lat="35.319635310" lon="-106.547870970">
        <ele>1522.400</ele>
        <time>2019-07-14T19:55:27Z</time>
      </trkpt>
      <trkpt lat="35.319677180" lon="-106.548025430">
        <ele>1522.400</ele>
        <time>2019-07-14T19:55:28Z</time>
      </trkpt>
      <trkpt lat="35.319716860" lon="-106.548185340">
        <ele>1522.100</ele>
        <time>2019-07-14T19:55:29Z</time>
      </trkpt>
      <trkpt lat="35.319762990" lon="-106.548343790">
        <ele>1522.400</ele>
        <time>2019-07-14T19:55:30Z</time>
      </trkpt>
      <trkpt lat="35.319811130" lon="-106.548499510">
        <ele>1523.100</ele>
        <time>2019-07-14T19:55:31Z</time>
      </trkpt>
      <trkpt lat="35.319846120" lon="-106.548668280">
        <ele>1522.300</ele>
        <time>2019-07-14T19:55:32Z</time>
      </trkpt>
      <trkpt lat="35.319883340" lon="-106.548837050">
        <ele>1521.500</ele>
        <time>2019-07-14T19:55:33Z</time>
      </trkpt>
      <trkpt lat="35.319928010" lon="-106.549002870">
        <ele>1521.000</ele>
        <time>2019-07-14T19:55:34Z</time>
      </trkpt>
      <trkpt lat="35.319970400" lon="-106.549167430">
        <ele>1519.600</ele>
        <time>2019-07-14T19:55:35Z</time>
      </trkpt>
      <trkpt lat="35.320012090" lon="-106.549334310">
        <ele>1518.800</ele>
        <time>2019-07-14T19:55:36Z</time>
      </trkpt>
      <trkpt lat="35.320049650" lon="-106.549494030">
        <ele>1519.100</ele>
        <time>2019-07-14T19:55:37Z</time>
      </trkpt>
      <trkpt lat="35.320090730" lon="-106.549649500">
        <ele>1518.900</ele>
        <time>2019-07-14T19:55:38Z</time>
      </trkpt>
      <trkpt lat="35.320133880" lon="-106.549797730">
        <ele>1519.000</ele>
        <time>2019-07-14T19:55:39Z</time>
      </trkpt>
      <trkpt lat="35.320172070" lon="-106.549936450">
        <ele>1518.700</ele>
        <time>2019-07-14T19:55:40Z</time>
      </trkpt>
      <trkpt lat="35.320213970" lon="-106.550051200">
        <ele>1518.200</ele>
        <time>2019-07-14T19:55:41Z</time>
      </trkpt>
      <trkpt lat="35.320237130" lon="-106.550158670">
        <ele>1517.900</ele>
        <time>2019-07-14T19:55:42Z</time>
      </trkpt>
      <trkpt lat="35.320266280" lon="-106.550248060">
        <ele>1518.300</ele>
        <time>2019-07-14T19:55:43Z</time>
      </trkpt>
      <trkpt lat="35.320285880" lon="-106.550324920">
        <ele>1517.700</ele>
        <time>2019-07-14T19:55:44Z</time>
      </trkpt>
      <trkpt lat="35.320301400" lon="-106.550378270">
        <ele>1517.900</ele>
        <time>2019-07-14T19:55:45Z</time>
      </trkpt>
      <trkpt lat="35.320319920" lon="-106.550430590">
        <ele>1518.700</ele>
        <time>2019-07-14T19:55:46Z</time>
      </trkpt>
      <trkpt lat="35.320323800" lon="-106.550504880">
        <ele>1518.100</ele>
        <time>2019-07-14T19:55:48Z</time>
      </trkpt>
      <trkpt lat="35.320336210" lon="-106.550562840">
        <ele>1516.600</ele>
        <time>2019-07-14T19:55:50Z</time>
      </trkpt>
      <trkpt lat="35.320364120" lon="-106.550608240">
        <ele>1516.700</ele>
        <time>2019-07-14T19:56:09Z</time>
      </trkpt>
      <trkpt lat="35.320381250" lon="-106.550676720">
        <ele>1517.400</ele>
        <time>2019-07-14T19:56:12Z</time>
      </trkpt>
      <trkpt lat="35.320393290" lon="-106.550718380">
        <ele>1518.000</ele>
        <time>2019-07-14T19:56:13Z</time>
      </trkpt>
      <trkpt lat="35.320413000" lon="-106.550778290">
        <ele>1517.900</ele>
        <time>2019-07-14T19:56:14Z</time>
      </trkpt>
      <trkpt lat="35.320434870" lon="-106.550845130">
        <ele>1518.000</ele>
        <time>2019-07-14T19:56:15Z</time>
      </trkpt>
      <trkpt lat="35.320459280" lon="-106.550924650">
        <ele>1517.800</ele>
        <time>2019-07-14T19:56:16Z</time>
      </trkpt>
      <trkpt lat="35.320482340" lon="-106.551013840">
        <ele>1518.400</ele>
        <time>2019-07-14T19:56:17Z</time>
      </trkpt>
      <trkpt lat="35.320512070" lon="-106.551125540">
        <ele>1517.100</ele>
        <time>2019-07-14T19:56:18Z</time>
      </trkpt>
      <trkpt lat="35.320542080" lon="-106.551246010">
        <ele>1516.700</ele>
        <time>2019-07-14T19:56:19Z</time>
      </trkpt>
      <trkpt lat="35.320576320" lon="-106.551368180">
        <ele>1516.500</ele>
        <time>2019-07-14T19:56:20Z</time>
      </trkpt>
      <trkpt lat="35.320611700" lon="-106.551503790">
        <ele>1515.700</ele>
        <time>2019-07-14T19:56:21Z</time>
      </trkpt>
      <trkpt lat="35.320652600" lon="-106.551650840">
        <ele>1516.200</ele>
        <time>2019-07-14T19:56:22Z</time>
      </trkpt>
      <trkpt lat="35.320695490" lon="-106.551801700">
        <ele>1516.700</ele>
        <time>2019-07-14T19:56:23Z</time>
      </trkpt>
      <trkpt lat="35.320734860" lon="-106.551970020">
        <ele>1516.500</ele>
        <time>2019-07-14T19:56:24Z</time>
      </trkpt>
      <trkpt lat="35.320775590" lon="-106.552145040">
        <ele>1516.000</ele>
        <time>2019-07-14T19:56:25Z</time>
      </trkpt>
      <trkpt lat="35.320819680" lon="-106.552315020">
        <ele>1516.300</ele>
        <time>2019-07-14T19:56:26Z</time>
      </trkpt>
      <trkpt lat="35.320865390" lon="-106.552501640">
        <ele>1515.900</ele>
        <time>2019-07-14T19:56:27Z</time>
      </trkpt>
      <trkpt lat="35.320911030" lon="-106.552689350">
        <ele>1515.700</ele>
        <time>2019-07-14T19:56:28Z</time>
      </trkpt>
      <trkpt lat="35.320958210" lon="-106.552880370">
        <ele>1515.600</ele>
        <time>2019-07-14T19:56:29Z</time>
      </trkpt>
      <trkpt lat="35.321005740" lon="-106.553066870">
        <ele>1516.000</ele>
        <time>2019-07-14T19:56:30Z</time>
      </trkpt>
      <trkpt lat="35.321053100" lon="-106.553249120">
        <ele>1516.500</ele>
        <time>2019-07-14T19:56:31Z</time>
      </trkpt>
      <trkpt lat="35.321100940" lon="-106.553430720">
        <ele>1516.100</ele>
        <time>2019-07-14T19:56:32Z</time>
      </trkpt>
      <trkpt lat="35.321158400" lon="-106.553624230">
        <ele>1515.800</ele>
        <time>2019-07-14T19:56:33Z</time>
      </trkpt>
      <trkpt lat="35.321201980" lon="-106.553809460">
        <ele>1516.100</ele>
        <time>2019-07-14T19:56:34Z</time>
      </trkpt>
      <trkpt lat="35.321250980" lon="-106.554002320">
        <ele>1515.800</ele>
        <time>2019-07-14T19:56:35Z</time>
      </trkpt>
      <trkpt lat="35.321300490" lon="-106.554186730">
        <ele>1516.600</ele>
        <time>2019-07-14T19:56:36Z</time>
      </trkpt>
      <trkpt lat="35.321353120" lon="-106.554373240">
        <ele>1517.400</ele>
        <time>2019-07-14T19:56:37Z</time>
      </trkpt>
      <trkpt lat="35.321407200" lon="-106.554563650">
        <ele>1517.700</ele>
        <time>2019-07-14T19:56:38Z</time>
      </trkpt>
      <trkpt lat="35.321461390" lon="-106.554746670">
        <ele>1517.100</ele>
        <time>2019-07-14T19:56:39Z</time>
      </trkpt>
      <trkpt lat="35.321514250" lon="-106.554926300">
        <ele>1517.300</ele>
        <time>2019-07-14T19:56:40Z</time>
      </trkpt>
      <trkpt lat="35.321560100" lon="-106.555110500">
        <ele>1517.200</ele>
        <time>2019-07-14T19:56:41Z</time>
      </trkpt>
      <trkpt lat="35.321626580" lon="-106.555295390">
        <ele>1517.400</ele>
        <time>2019-07-14T19:56:42Z</time>
      </trkpt>
      <trkpt lat="35.321701460" lon="-106.555467640">
        <ele>1517.200</ele>
        <time>2019-07-14T19:56:43Z</time>
      </trkpt>
      <trkpt lat="35.321770100" lon="-106.555648330">
        <ele>1517.400</ele>
        <time>2019-07-14T19:56:44Z</time>
      </trkpt>
      <trkpt lat="35.321861700" lon="-106.555828290">
        <ele>1517.200</ele>
        <time>2019-07-14T19:56:45Z</time>
      </trkpt>
      <trkpt lat="35.321933150" lon="-106.556013590">
        <ele>1517.700</ele>
        <time>2019-07-14T19:56:46Z</time>
      </trkpt>
      <trkpt lat="35.321993350" lon="-106.556207600">
        <ele>1518.000</ele>
        <time>2019-07-14T19:56:47Z</time>
      </trkpt>
      <trkpt lat="35.322048650" lon="-106.556402090">
        <ele>1517.500</ele>
        <time>2019-07-14T19:56:48Z</time>
      </trkpt>
      <trkpt lat="35.322106320" lon="-106.556602740">
        <ele>1517.100</ele>
        <time>2019-07-14T19:56:49Z</time>
      </trkpt>
      <trkpt lat="35.322158020" lon="-106.556796900">
        <ele>1517.700</ele>
        <time>2019-07-14T19:56:50Z</time>
      </trkpt>
      <trkpt lat="35.322208530" lon="-106.556994060">
        <ele>1518.400</ele>
        <time>2019-07-14T19:56:51Z</time>
      </trkpt>
      <trkpt lat="35.322260960" lon="-106.557191940">
        <ele>1518.600</ele>
        <time>2019-07-14T19:56:52Z</time>
      </trkpt>
      <trkpt lat="35.322308510" lon="-106.557394900">
        <ele>1518.900</ele>
        <time>2019-07-14T19:56:53Z</time>
      </trkpt>
      <trkpt lat="35.322369880" lon="-106.557593690">
        <ele>1519.100</ele>
        <time>2019-07-14T19:56:54Z</time>
      </trkpt>
      <trkpt lat="35.322423660" lon="-106.557791380">
        <ele>1518.800</ele>
        <time>2019-07-14T19:56:55Z</time>
      </trkpt>
      <trkpt lat="35.322486850" lon="-106.557992010">
        <ele>1518.900</ele>
        <time>2019-07-14T19:56:56Z</time>
      </trkpt>
      <trkpt lat="35.322537620" lon="-106.558196880">
        <ele>1518.500</ele>
        <time>2019-07-14T19:56:57Z</time>
      </trkpt>
      <trkpt lat="35.322610080" lon="-106.558398520">
        <ele>1518.200</ele>
        <time>2019-07-14T19:56:58Z</time>
      </trkpt>
      <trkpt lat="35.322670770" lon="-106.558604780">
        <ele>1518.300</ele>
        <time>2019-07-14T19:56:59Z</time>
      </trkpt>
      <trkpt lat="35.322733650" lon="-106.558804080">
        <ele>1518.600</ele>
        <time>2019-07-14T19:57:00Z</time>
      </trkpt>
      <trkpt lat="35.322788220" lon="-106.559012470">
        <ele>1518.600</ele>
        <time>2019-07-14T19:57:01Z</time>
      </trkpt>
      <trkpt lat="35.322841780" lon="-106.559225980">
        <ele>1519.000</ele>
        <time>2019-07-14T19:57:02Z</time>
      </trkpt>
      <trkpt lat="35.322889720" lon="-106.559428950">
        <ele>1519.400</ele>
        <time>2019-07-14T19:57:03Z</time>
      </trkpt>
      <trkpt lat="35.322941800" lon="-106.559639040">
        <ele>1519.700</ele>
        <time>2019-07-14T19:57:04Z</time>
      </trkpt>
      <trkpt lat="35.322991800" lon="-106.559847100">
        <ele>1519.400</ele>
        <time>2019-07-14T19:57:05Z</time>
      </trkpt>
      <trkpt lat="35.323051790" lon="-106.560052960">
        <ele>1519.400</ele>
        <time>2019-07-14T19:57:06Z</time>
      </trkpt>
      <trkpt lat="35.323104770" lon="-106.560257830">
        <ele>1520.100</ele>
        <time>2019-07-14T19:57:07Z</time>
      </trkpt>
      <trkpt lat="35.323163250" lon="-106.560461180">
        <ele>1520.400</ele>
        <time>2019-07-14T19:57:08Z</time>
      </trkpt>
      <trkpt lat="35.323226520" lon="-106.560665790">
        <ele>1520.400</ele>
        <time>2019-07-14T19:57:09Z</time>
      </trkpt>
      <trkpt lat="35.323289380" lon="-106.560862330">
        <ele>1520.300</ele>
        <time>2019-07-14T19:57:10Z</time>
      </trkpt>
      <trkpt lat="35.323362810" lon="-106.561056960">
        <ele>1520.800</ele>
        <time>2019-07-14T19:57:11Z</time>
      </trkpt>
      <trkpt lat="35.323439630" lon="-106.561249210">
        <ele>1521.100</ele>
        <time>2019-07-14T19:57:12Z</time>
      </trkpt>
      <trkpt lat="35.323515500" lon="-106.561432520">
        <ele>1521.300</ele>
        <time>2019-07-14T19:57:13Z</time>
      </trkpt>
      <trkpt lat="35.323596770" lon="-106.561606300">
        <ele>1521.500</ele>
        <time>2019-07-14T19:57:14Z</time>
      </trkpt>
      <trkpt lat="35.323682650" lon="-106.561773300">
        <ele>1522.600</ele>
        <time>2019-07-14T19:57:15Z</time>
      </trkpt>
      <trkpt lat="35.323768760" lon="-106.561936190">
        <ele>1524.000</ele>
        <time>2019-07-14T19:57:16Z</time>
      </trkpt>
      <trkpt lat="35.323854910" lon="-106.562092850">
        <ele>1524.400</ele>
        <time>2019-07-14T19:57:17Z</time>
      </trkpt>
      <trkpt lat="35.323935510" lon="-106.562217960">
        <ele>1525.000</ele>
        <time>2019-07-14T19:57:18Z</time>
      </trkpt>
      <trkpt lat="35.324015450" lon="-106.562324580">
        <ele>1525.400</ele>
        <time>2019-07-14T19:57:19Z</time>
      </trkpt>
      <trkpt lat="35.324091400" lon="-106.562408720">
        <ele>1526.400</ele>
        <time>2019-07-14T19:57:20Z</time>
      </trkpt>
      <trkpt lat="35.324141200" lon="-106.562462200">
        <ele>1526.700</ele>
        <time>2019-07-14T19:57:21Z</time>
      </trkpt>
      <trkpt lat="35.324196170" lon="-106.562475760">
        <ele>1526.600</ele>
        <time>2019-07-14T19:57:22Z</time>
      </trkpt>
      <trkpt lat="35.324236290" lon="-106.562502220">
        <ele>1526.500</ele>
        <time>2019-07-14T19:57:23Z</time>
      </trkpt>
      <trkpt lat="35.324284400" lon="-106.562502230">
        <ele>1526.000</ele>
        <time>2019-07-14T19:57:24Z</time>
      </trkpt>
      <trkpt lat="35.324332660" lon="-106.562480050">
        <ele>1525.300</ele>
        <time>2019-07-14T19:57:25Z</time>
      </trkpt>
      <trkpt lat="35.324383920" lon="-106.562467990">
        <ele>1525.600</ele>
        <time>2019-07-14T19:57:26Z</time>
      </trkpt>
      <trkpt lat="35.324428800" lon="-106.562464460">
        <ele>1526.600</ele>
        <time>2019-07-14T19:57:27Z</time>
      </trkpt>
      <trkpt lat="35.324473480" lon="-106.562473800">
        <ele>1527.100</ele>
        <time>2019-07-14T19:57:28Z</time>
      </trkpt>
      <trkpt lat="35.324521900" lon="-106.562477620">
        <ele>1527.500</ele>
        <time>2019-07-14T19:57:29Z</time>
      </trkpt>
      <trkpt lat="35.324536760" lon="-106.562537580">
        <ele>1526.800</ele>
        <time>2019-07-14T19:57:30Z</time>
      </trkpt>
      <trkpt lat="35.324561460" lon="-106.562584970">
        <ele>1527.700</ele>
        <time>2019-07-14T19:57:32Z</time>
      </trkpt>
      <trkpt lat="35.324606240" lon="-106.562596260">
        <ele>1533.200</ele>
        <time>2019-07-14T19:57:40Z</time>
      </trkpt>
      <trkpt lat="35.324573280" lon="-106.562625010">
        <ele>1538.700</ele>
        <time>2019-07-14T19:57:48Z</time>
      </trkpt>
      <trkpt lat="35.324620630" lon="-106.562667440">
        <ele>1543.900</ele>
        <time>2019-07-14T19:59:33Z</time>
      </trkpt>
      <trkpt lat="35.324646290" lon="-106.562699780">
        <ele>1542.000</ele>
        <time>2019-07-14T19:59:34Z</time>
      </trkpt>
      <trkpt lat="35.324699180" lon="-106.562764290">
        <ele>1541.300</ele>
        <time>2019-07-14T19:59:36Z</time>
      </trkpt>
      <trkpt lat="35.324725190" lon="-106.562800240">
        <ele>1540.000</ele>
        <time>2019-07-14T19:59:37Z</time>
      </trkpt>
      <trkpt lat="35.324797740" lon="-106.562852500">
        <ele>1538.400</ele>
        <time>2019-07-14T19:59:39Z</time>
      </trkpt>
      <trkpt lat="35.324841320" lon="-106.562884180">
        <ele>1538.000</ele>
        <time>2019-07-14T19:59:40Z</time>
      </trkpt>
      <trkpt lat="35.324882270" lon="-106.562910790">
        <ele>1538.200</ele>
        <time>2019-07-14T19:59:41Z</time>
      </trkpt>
      <trkpt lat="35.324929020" lon="-106.562937600">
        <ele>1538.500</ele>
        <time>2019-07-14T19:59:42Z</time>
      </trkpt>
      <trkpt lat="35.324961830" lon="-106.562969610">
        <ele>1538.500</ele>
        <time>2019-07-14T19:59:43Z</time>
      </trkpt>
      <trkpt lat="35.324986220" lon="-106.563015290">
        <ele>1538.400</ele>
        <time>2019-07-14T19:59:44Z</time>
      </trkpt>
      <trkpt lat="35.324988120" lon="-106.563062750">
        <ele>1537.800</ele>
        <time>2019-07-14T19:59:45Z</time>
      </trkpt>
      <trkpt lat="35.324982780" lon="-106.563140480">
        <ele>1538.100</ele>
        <time>2019-07-14T19:59:47Z</time>
      </trkpt>
      <trkpt lat="35.324966610" lon="-106.563183310">
        <ele>1538.500</ele>
        <time>2019-07-14T19:59:48Z</time>
      </trkpt>
      <trkpt lat="35.324937500" lon="-106.563213720">
        <ele>1538.100</ele>
        <time>2019-07-14T19:59:49Z</time>
      </trkpt>
      <trkpt lat="35.324885660" lon="-106.563246410">
        <ele>1537.300</ele>
        <time>2019-07-14T19:59:50Z</time>
      </trkpt>
      <trkpt lat="35.324846190" lon="-106.563276820">
        <ele>1537.300</ele>
        <time>2019-07-14T19:59:51Z</time>
      </trkpt>
      <trkpt lat="35.324818110" lon="-106.563313620">
        <ele>1537.100</ele>
        <time>2019-07-14T19:59:52Z</time>
      </trkpt>
      <trkpt lat="35.324798040" lon="-106.563350620">
        <ele>1537.400</ele>
        <time>2019-07-14T19:59:53Z</time>
      </trkpt>
      <trkpt lat="35.324788180" lon="-106.563397160">
        <ele>1537.000</ele>
        <time>2019-07-14T19:59:54Z</time>
      </trkpt>
      <trkpt lat="35.324779970" lon="-106.563444630">
        <ele>1536.900</ele>
        <time>2019-07-14T19:59:55Z</time>
      </trkpt>
      <trkpt lat="35.324802810" lon="-106.563511320">
        <ele>1536.400</ele>
        <time>2019-07-14T19:59:56Z</time>
      </trkpt>
      <trkpt lat="35.324853300" lon="-106.563587390">
        <ele>1535.800</ele>
        <time>2019-07-14T19:59:57Z</time>
      </trkpt>
      <trkpt lat="35.324939400" lon="-106.563667940">
        <ele>1535.400</ele>
        <time>2019-07-14T19:59:58Z</time>
      </trkpt>
      <trkpt lat="35.325022370" lon="-106.563770780">
        <ele>1536.500</ele>
        <time>2019-07-14T19:59:59Z</time>
      </trkpt>
      <trkpt lat="35.325103550" lon="-106.563876790">
        <ele>1536.600</ele>
        <time>2019-07-14T20:00:00Z</time>
      </trkpt>
      <trkpt lat="35.325195990" lon="-106.563994650">
        <ele>1536.900</ele>
        <time>2019-07-14T20:00:01Z</time>
      </trkpt>
      <trkpt lat="35.325298400" lon="-106.564109750">
        <ele>1537.700</ele>
        <time>2019-07-14T20:00:02Z</time>
      </trkpt>
      <trkpt lat="35.325392170" lon="-106.564225500">
        <ele>1537.000</ele>
        <time>2019-07-14T20:00:03Z</time>
      </trkpt>
      <trkpt lat="35.325494910" lon="-106.564361930">
        <ele>1537.800</ele>
        <time>2019-07-14T20:00:04Z</time>
      </trkpt>
      <trkpt lat="35.325601710" lon="-106.564504890">
        <ele>1538.400</ele>
        <time>2019-07-14T20:00:05Z</time>
      </trkpt>
      <trkpt lat="35.325712770" lon="-106.564653370">
        <ele>1539.000</ele>
        <time>2019-07-14T20:00:06Z</time>
      </trkpt>
      <trkpt lat="35.325825900" lon="-106.564803000">
        <ele>1539.200</ele>
        <time>2019-07-14T20:00:07Z</time>
      </trkpt>
      <trkpt lat="35.325945290" lon="-106.564960650">
        <ele>1539.400</ele>
        <time>2019-07-14T20:00:08Z</time>
      </trkpt>
      <trkpt lat="35.326063680" lon="-106.565108820">
        <ele>1540.300</ele>
        <time>2019-07-14T20:00:09Z</time>
      </trkpt>
      <trkpt lat="35.326184450" lon="-106.565255350">
        <ele>1540.800</ele>
        <time>2019-07-14T20:00:10Z</time>
      </trkpt>
      <trkpt lat="35.326299450" lon="-106.565405970">
        <ele>1540.400</ele>
        <time>2019-07-14T20:00:11Z</time>
      </trkpt>
      <trkpt lat="35.326417110" lon="-106.565559630">
        <ele>1540.700</ele>
        <time>2019-07-14T20:00:12Z</time>
      </trkpt>
      <trkpt lat="35.326530830" lon="-106.565711540">
        <ele>1541.200</ele>
        <time>2019-07-14T20:00:13Z</time>
      </trkpt>
      <trkpt lat="35.326645790" lon="-106.565871610">
        <ele>1541.100</ele>
        <time>2019-07-14T20:00:14Z</time>
      </trkpt>
      <trkpt lat="35.326763560" lon="-106.566022180">
        <ele>1541.000</ele>
        <time>2019-07-14T20:00:15Z</time>
      </trkpt>
      <trkpt lat="35.326881010" lon="-106.566184070">
        <ele>1540.700</ele>
        <time>2019-07-14T20:00:16Z</time>
      </trkpt>
      <trkpt lat="35.327004710" lon="-106.566355930">
        <ele>1541.900</ele>
        <time>2019-07-14T20:00:17Z</time>
      </trkpt>
      <trkpt lat="35.327124920" lon="-106.566529450">
        <ele>1542.000</ele>
        <time>2019-07-14T20:00:18Z</time>
      </trkpt>
      <trkpt lat="35.327240210" lon="-106.566701690">
        <ele>1542.900</ele>
        <time>2019-07-14T20:00:19Z</time>
      </trkpt>
      <trkpt lat="35.327346490" lon="-106.566871160">
        <ele>1541.800</ele>
        <time>2019-07-14T20:00:20Z</time>
      </trkpt>
      <trkpt lat="35.327475140" lon="-106.567032870">
        <ele>1542.800</ele>
        <time>2019-07-14T20:00:21Z</time>
      </trkpt>
      <trkpt lat="35.327593170" lon="-106.567201620">
        <ele>1543.300</ele>
        <time>2019-07-14T20:00:22Z</time>
      </trkpt>
      <trkpt lat="35.327714610" lon="-106.567368830">
        <ele>1543.700</ele>
        <time>2019-07-14T20:00:23Z</time>
      </trkpt>
      <trkpt lat="35.327823860" lon="-106.567538380">
        <ele>1543.500</ele>
        <time>2019-07-14T20:00:24Z</time>
      </trkpt>
      <trkpt lat="35.327942150" lon="-106.567703340">
        <ele>1543.800</ele>
        <time>2019-07-14T20:00:25Z</time>
      </trkpt>
      <trkpt lat="35.328060870" lon="-106.567877290">
        <ele>1545.100</ele>
        <time>2019-07-14T20:00:26Z</time>
      </trkpt>
      <trkpt lat="35.328178710" lon="-106.568040710">
        <ele>1545.900</ele>
        <time>2019-07-14T20:00:27Z</time>
      </trkpt>
      <trkpt lat="35.328293410" lon="-106.568212420">
        <ele>1546.000</ele>
        <time>2019-07-14T20:00:28Z</time>
      </trkpt>
      <trkpt lat="35.328408260" lon="-106.568381520">
        <ele>1545.800</ele>
        <time>2019-07-14T20:00:29Z</time>
      </trkpt>
      <trkpt lat="35.328518810" lon="-106.568548680">
        <ele>1546.400</ele>
        <time>2019-07-14T20:00:30Z</time>
      </trkpt>
      <trkpt lat="35.328635010" lon="-106.568714880">
        <ele>1546.100</ele>
        <time>2019-07-14T20:00:31Z</time>
      </trkpt>
      <trkpt lat="35.328744540" lon="-106.568882050">
        <ele>1546.800</ele>
        <time>2019-07-14T20:00:32Z</time>
      </trkpt>
      <trkpt lat="35.328859020" lon="-106.569049720">
        <ele>1546.900</ele>
        <time>2019-07-14T20:00:33Z</time>
      </trkpt>
      <trkpt lat="35.328979030" lon="-106.569216940">
        <ele>1547.500</ele>
        <time>2019-07-14T20:00:34Z</time>
      </trkpt>
      <trkpt lat="35.329093310" lon="-106.569384390">
        <ele>1547.900</ele>
        <time>2019-07-14T20:00:35Z</time>
      </trkpt>
      <trkpt lat="35.329203860" lon="-106.569550100">
        <ele>1547.700</ele>
        <time>2019-07-14T20:00:36Z</time>
      </trkpt>
      <trkpt lat="35.329316650" lon="-106.569704080">
        <ele>1548.600</ele>
        <time>2019-07-14T20:00:37Z</time>
      </trkpt>
      <trkpt lat="35.329415180" lon="-106.569849760">
        <ele>1549.000</ele>
        <time>2019-07-14T20:00:38Z</time>
      </trkpt>
      <trkpt lat="35.329517030" lon="-106.569985760">
        <ele>1550.000</ele>
        <time>2019-07-14T20:00:39Z</time>
      </trkpt>
      <trkpt lat="35.329608270" lon="-106.570117250">
        <ele>1549.300</ele>
        <time>2019-07-14T20:00:40Z</time>
      </trkpt>
      <trkpt lat="35.329695830" lon="-106.570241270">
        <ele>1549.900</ele>
        <time>2019-07-14T20:00:41Z</time>
      </trkpt>
      <trkpt lat="35.329771060" lon="-106.570360060">
        <ele>1549.800</ele>
        <time>2019-07-14T20:00:42Z</time>
      </trkpt>
      <trkpt lat="35.329852910" lon="-106.570473960">
        <ele>1551.000</ele>
        <time>2019-07-14T20:00:43Z</time>
      </trkpt>
      <trkpt lat="35.329928550" lon="-106.570580720">
        <ele>1551.100</ele>
        <time>2019-07-14T20:00:44Z</time>
      </trkpt>
      <trkpt lat="35.329996720" lon="-106.570678320">
        <ele>1551.300</ele>
        <time>2019-07-14T20:00:45Z</time>
      </trkpt>
      <trkpt lat="35.330060760" lon="-106.570770640">
        <ele>1551.100</ele>
        <time>2019-07-14T20:00:46Z</time>
      </trkpt>
      <trkpt lat="35.330120700" lon="-106.570854210">
        <ele>1551.300</ele>
        <time>2019-07-14T20:00:47Z</time>
      </trkpt>
      <trkpt lat="35.330172980" lon="-106.570921260">
        <ele>1551.500</ele>
        <time>2019-07-14T20:00:48Z</time>
      </trkpt>
      <trkpt lat="35.330210170" lon="-106.570987120">
        <ele>1551.700</ele>
        <time>2019-07-14T20:00:49Z</time>
      </trkpt>
      <trkpt lat="35.330237780" lon="-106.571033130">
        <ele>1552.000</ele>
        <time>2019-07-14T20:00:50Z</time>
      </trkpt>
      <trkpt lat="35.330272480" lon="-106.571055960">
        <ele>1550.600</ele>
        <time>2019-07-14T20:00:53Z</time>
      </trkpt>
      <trkpt lat="35.330286030" lon="-106.571118430">
        <ele>1553.200</ele>
        <time>2019-07-14T20:01:12Z</time>
      </trkpt>
      <trkpt lat="35.330334570" lon="-106.571201330">
        <ele>1551.100</ele>
        <time>2019-07-14T20:01:14Z</time>
      </trkpt>
      <trkpt lat="35.330370580" lon="-106.571261510">
        <ele>1551.100</ele>
        <time>2019-07-14T20:01:15Z</time>
      </trkpt>
      <trkpt lat="35.330419760" lon="-106.571327830">
        <ele>1551.500</ele>
        <time>2019-07-14T20:01:16Z</time>
      </trkpt>
      <trkpt lat="35.330467290" lon="-106.571396090">
        <ele>1552.300</ele>
        <time>2019-07-14T20:01:17Z</time>
      </trkpt>
      <trkpt lat="35.330527660" lon="-106.571474970">
        <ele>1553.400</ele>
        <time>2019-07-14T20:01:18Z</time>
      </trkpt>
      <trkpt lat="35.330577790" lon="-106.571557710">
        <ele>1540.700</ele>
        <time>2019-07-14T20:01:19Z</time>
      </trkpt>
      <trkpt lat="35.330645940" lon="-106.571643680">
        <ele>1544.600</ele>
        <time>2019-07-14T20:01:20Z</time>
      </trkpt>
      <trkpt lat="35.330717170" lon="-106.571743320">
        <ele>1546.700</ele>
        <time>2019-07-14T20:01:21Z</time>
      </trkpt>
      <trkpt lat="35.330790530" lon="-106.571839060">
        <ele>1547.600</ele>
        <time>2019-07-14T20:01:22Z</time>
      </trkpt>
      <trkpt lat="35.330866770" lon="-106.571944810">
        <ele>1548.400</ele>
        <time>2019-07-14T20:01:23Z</time>
      </trkpt>
      <trkpt lat="35.330953910" lon="-106.572059550">
        <ele>1548.000</ele>
        <time>2019-07-14T20:01:24Z</time>
      </trkpt>
      <trkpt lat="35.331030620" lon="-106.572173050">
        <ele>1549.100</ele>
        <time>2019-07-14T20:01:25Z</time>
      </trkpt>
      <trkpt lat="35.331113490" lon="-106.572284540">
        <ele>1550.000</ele>
        <time>2019-07-14T20:01:26Z</time>
      </trkpt>
      <trkpt lat="35.331200010" lon="-106.572410660">
        <ele>1551.200</ele>
        <time>2019-07-14T20:01:27Z</time>
      </trkpt>
      <trkpt lat="35.331288550" lon="-106.572538600">
        <ele>1552.000</ele>
        <time>2019-07-14T20:01:28Z</time>
      </trkpt>
      <trkpt lat="35.331382360" lon="-106.572666360">
        <ele>1552.800</ele>
        <time>2019-07-14T20:01:29Z</time>
      </trkpt>
      <trkpt lat="35.331464900" lon="-106.572802010">
        <ele>1552.600</ele>
        <time>2019-07-14T20:01:30Z</time>
      </trkpt>
      <trkpt lat="35.331555650" lon="-106.572933440">
        <ele>1553.000</ele>
        <time>2019-07-14T20:01:31Z</time>
      </trkpt>
      <trkpt lat="35.331659640" lon="-106.573070950">
        <ele>1554.900</ele>
        <time>2019-07-14T20:01:32Z</time>
      </trkpt>
      <trkpt lat="35.331755400" lon="-106.573213410">
        <ele>1555.100</ele>
        <time>2019-07-14T20:01:33Z</time>
      </trkpt>
      <trkpt lat="35.331855720" lon="-106.573353970">
        <ele>1555.100</ele>
        <time>2019-07-14T20:01:34Z</time>
      </trkpt>
      <trkpt lat="35.331957440" lon="-106.573500560">
        <ele>1555.500</ele>
        <time>2019-07-14T20:01:35Z</time>
      </trkpt>
      <trkpt lat="35.332066990" lon="-106.573650710">
        <ele>1555.600</ele>
        <time>2019-07-14T20:01:36Z</time>
      </trkpt>
      <trkpt lat="35.332169960" lon="-106.573796410">
        <ele>1555.900</ele>
        <time>2019-07-14T20:01:37Z</time>
      </trkpt>
      <trkpt lat="35.332271420" lon="-106.573948700">
        <ele>1556.600</ele>
        <time>2019-07-14T20:01:38Z</time>
      </trkpt>
      <trkpt lat="35.332385960" lon="-106.574103240">
        <ele>1557.100</ele>
        <time>2019-07-14T20:01:39Z</time>
      </trkpt>
      <trkpt lat="35.332494520" lon="-106.574264240">
        <ele>1557.800</ele>
        <time>2019-07-14T20:01:40Z</time>
      </trkpt>
      <trkpt lat="35.332608780" lon="-106.574425080">
        <ele>1558.400</ele>
        <time>2019-07-14T20:01:41Z</time>
      </trkpt>
      <trkpt lat="35.332723990" lon="-106.574592380">
        <ele>1559.700</ele>
        <time>2019-07-14T20:01:42Z</time>
      </trkpt>
      <trkpt lat="35.332841450" lon="-106.574756340">
        <ele>1560.200</ele>
        <time>2019-07-14T20:01:43Z</time>
      </trkpt>
      <trkpt lat="35.332961960" lon="-106.574922910">
        <ele>1560.900</ele>
        <time>2019-07-14T20:01:44Z</time>
      </trkpt>
      <trkpt lat="35.333076720" lon="-106.575089210">
        <ele>1560.400</ele>
        <time>2019-07-14T20:01:45Z</time>
      </trkpt>
      <trkpt lat="35.333198550" lon="-106.575262190">
        <ele>1561.800</ele>
        <time>2019-07-14T20:01:46Z</time>
      </trkpt>
      <trkpt lat="35.333323250" lon="-106.575438010">
        <ele>1563.300</ele>
        <time>2019-07-14T20:01:47Z</time>
      </trkpt>
      <trkpt lat="35.333441230" lon="-106.575600480">
        <ele>1562.700</ele>
        <time>2019-07-14T20:01:48Z</time>
      </trkpt>
      <trkpt lat="35.333564970" lon="-106.575786540">
        <ele>1546.900</ele>
        <time>2019-07-14T20:01:49Z</time>
      </trkpt>
      <trkpt lat="35.333697340" lon="-106.575969180">
        <ele>1553.100</ele>
        <time>2019-07-14T20:01:50Z</time>
      </trkpt>
      <trkpt lat="35.333821930" lon="-106.576160660">
        <ele>1557.100</ele>
        <time>2019-07-14T20:01:51Z</time>
      </trkpt>
      <trkpt lat="35.333954730" lon="-106.576343090">
        <ele>1559.200</ele>
        <time>2019-07-14T20:01:52Z</time>
      </trkpt>
      <trkpt lat="35.334074150" lon="-106.576524040">
        <ele>1560.900</ele>
        <time>2019-07-14T20:01:53Z</time>
      </trkpt>
      <trkpt lat="35.334193970" lon="-106.576712270">
        <ele>1563.400</ele>
        <time>2019-07-14T20:01:54Z</time>
      </trkpt>
      <trkpt lat="35.334323810" lon="-106.576900220">
        <ele>1565.100</ele>
        <time>2019-07-14T20:01:55Z</time>
      </trkpt>
      <trkpt lat="35.334455640" lon="-106.577087990">
        <ele>1564.700</ele>
        <time>2019-07-14T20:01:56Z</time>
      </trkpt>
      <trkpt lat="35.334586240" lon="-106.577271760">
        <ele>1565.000</ele>
        <time>2019-07-14T20:01:57Z</time>
      </trkpt>
      <trkpt lat="35.334722130" lon="-106.577456240">
        <ele>1564.900</ele>
        <time>2019-07-14T20:01:58Z</time>
      </trkpt>
      <trkpt lat="35.334853100" lon="-106.577648660">
        <ele>1566.900</ele>
        <time>2019-07-14T20:01:59Z</time>
      </trkpt>
      <trkpt lat="35.334989390" lon="-106.577837890">
        <ele>1567.700</ele>
        <time>2019-07-14T20:02:00Z</time>
      </trkpt>
      <trkpt lat="35.335125570" lon="-106.578034970">
        <ele>1568.500</ele>
        <time>2019-07-14T20:02:01Z</time>
      </trkpt>
      <trkpt lat="35.335265260" lon="-106.578229300">
        <ele>1568.800</ele>
        <time>2019-07-14T20:02:02Z</time>
      </trkpt>
      <trkpt lat="35.335399180" lon="-106.578427760">
        <ele>1569.900</ele>
        <time>2019-07-14T20:02:03Z</time>
      </trkpt>
      <trkpt lat="35.335538340" lon="-106.578630200">
        <ele>1570.300</ele>
        <time>2019-07-14T20:02:04Z</time>
      </trkpt>
      <trkpt lat="35.335671650" lon="-106.578844310">
        <ele>1572.100</ele>
        <time>2019-07-14T20:02:05Z</time>
      </trkpt>
      <trkpt lat="35.335807350" lon="-106.579047120">
        <ele>1572.800</ele>
        <time>2019-07-14T20:02:06Z</time>
      </trkpt>
      <trkpt lat="35.335935780" lon="-106.579251780">
        <ele>1573.200</ele>
        <time>2019-07-14T20:02:07Z</time>
      </trkpt>
      <trkpt lat="35.336065680" lon="-106.579467300">
        <ele>1574.700</ele>
        <time>2019-07-14T20:02:08Z</time>
      </trkpt>
      <trkpt lat="35.336199380" lon="-106.579684730">
        <ele>1575.700</ele>
        <time>2019-07-14T20:02:09Z</time>
      </trkpt>
      <trkpt lat="35.336331330" lon="-106.579905460">
        <ele>1577.200</ele>
        <time>2019-07-14T20:02:10Z</time>
      </trkpt>
      <trkpt lat="35.336464290" lon="-106.580113790">
        <ele>1577.300</ele>
        <time>2019-07-14T20:02:11Z</time>
      </trkpt>
      <trkpt lat="35.336600820" lon="-106.580325890">
        <ele>1578.000</ele>
        <time>2019-07-14T20:02:12Z</time>
      </trkpt>
      <trkpt lat="35.336736890" lon="-106.580543120">
        <ele>1578.500</ele>
        <time>2019-07-14T20:02:13Z</time>
      </trkpt>
      <trkpt lat="35.336873040" lon="-106.580768040">
        <ele>1579.300</ele>
        <time>2019-07-14T20:02:14Z</time>
      </trkpt>
      <trkpt lat="35.337011000" lon="-106.580996370">
        <ele>1580.300</ele>
        <time>2019-07-14T20:02:15Z</time>
      </trkpt>
      <trkpt lat="35.337145410" lon="-106.581223110">
        <ele>1579.900</ele>
        <time>2019-07-14T20:02:16Z</time>
      </trkpt>
      <trkpt lat="35.337277190" lon="-106.581453610">
        <ele>1580.000</ele>
        <time>2019-07-14T20:02:17Z</time>
      </trkpt>
      <trkpt lat="35.337410920" lon="-106.581687300">
        <ele>1572.400</ele>
        <time>2019-07-14T20:02:18Z</time>
      </trkpt>
      <trkpt lat="35.337550050" lon="-106.581923860">
        <ele>1575.800</ele>
        <time>2019-07-14T20:02:19Z</time>
      </trkpt>
      <trkpt lat="35.337680250" lon="-106.582169600">
        <ele>1579.400</ele>
        <time>2019-07-14T20:02:20Z</time>
      </trkpt>
      <trkpt lat="35.337822950" lon="-106.582413280">
        <ele>1580.500</ele>
        <time>2019-07-14T20:02:21Z</time>
      </trkpt>
      <trkpt lat="35.337955200" lon="-106.582656030">
        <ele>1580.500</ele>
        <time>2019-07-14T20:02:22Z</time>
      </trkpt>
      <trkpt lat="35.338099240" lon="-106.582898780">
        <ele>1580.700</ele>
        <time>2019-07-14T20:02:23Z</time>
      </trkpt>
      <trkpt lat="35.338244120" lon="-106.583154560">
        <ele>1581.400</ele>
        <time>2019-07-14T20:02:24Z</time>
      </trkpt>
      <trkpt lat="35.338384440" lon="-106.583395530">
        <ele>1582.400</ele>
        <time>2019-07-14T20:02:25Z</time>
      </trkpt>
      <trkpt lat="35.338531220" lon="-106.583645140">
        <ele>1583.600</ele>
        <time>2019-07-14T20:02:26Z</time>
      </trkpt>
      <trkpt lat="35.338673700" lon="-106.583887240">
        <ele>1584.400</ele>
        <time>2019-07-14T20:02:27Z</time>
      </trkpt>
      <trkpt lat="35.338818880" lon="-106.584130860">
        <ele>1585.700</ele>
        <time>2019-07-14T20:02:28Z</time>
      </trkpt>
      <trkpt lat="35.338962000" lon="-106.584372460">
        <ele>1585.700</ele>
        <time>2019-07-14T20:02:29Z</time>
      </trkpt>
      <trkpt lat="35.339098310" lon="-106.584610750">
        <ele>1585.700</ele>
        <time>2019-07-14T20:02:30Z</time>
      </trkpt>
      <trkpt lat="35.339239520" lon="-106.584852080">
        <ele>1586.900</ele>
        <time>2019-07-14T20:02:31Z</time>
      </trkpt>
      <trkpt lat="35.339381630" lon="-106.585094030">
        <ele>1587.600</ele>
        <time>2019-07-14T20:02:32Z</time>
      </trkpt>
      <trkpt lat="35.339521540" lon="-106.585340410">
        <ele>1588.500</ele>
        <time>2019-07-14T20:02:33Z</time>
      </trkpt>
      <trkpt lat="35.339660030" lon="-106.585585290">
        <ele>1588.500</ele>
        <time>2019-07-14T20:02:34Z</time>
      </trkpt>
      <trkpt lat="35.339798090" lon="-106.585829750">
        <ele>1589.300</ele>
        <time>2019-07-14T20:02:35Z</time>
      </trkpt>
      <trkpt lat="35.339932180" lon="-106.586073490">
        <ele>1589.600</ele>
        <time>2019-07-14T20:02:36Z</time>
      </trkpt>
      <trkpt lat="35.340072190" lon="-106.586320960">
        <ele>1589.600</ele>
        <time>2019-07-14T20:02:37Z</time>
      </trkpt>
      <trkpt lat="35.340210950" lon="-106.586573890">
        <ele>1589.800</ele>
        <time>2019-07-14T20:02:38Z</time>
      </trkpt>
      <trkpt lat="35.340351410" lon="-106.586817900">
        <ele>1589.500</ele>
        <time>2019-07-14T20:02:39Z</time>
      </trkpt>
      <trkpt lat="35.340482410" lon="-106.587064260">
        <ele>1589.000</ele>
        <time>2019-07-14T20:02:40Z</time>
      </trkpt>
      <trkpt lat="35.340623490" lon="-106.587311310">
        <ele>1588.800</ele>
        <time>2019-07-14T20:02:41Z</time>
      </trkpt>
      <trkpt lat="35.340767960" lon="-106.587562070">
        <ele>1589.400</ele>
        <time>2019-07-14T20:02:42Z</time>
      </trkpt>
      <trkpt lat="35.340914010" lon="-106.587810780">
        <ele>1590.300</ele>
        <time>2019-07-14T20:02:43Z</time>
      </trkpt>
      <trkpt lat="35.341061200" lon="-106.588069340">
        <ele>1591.200</ele>
        <time>2019-07-14T20:02:44Z</time>
      </trkpt>
      <trkpt lat="35.341208320" lon="-106.588322690">
        <ele>1591.100</ele>
        <time>2019-07-14T20:02:45Z</time>
      </trkpt>
      <trkpt lat="35.341372220" lon="-106.588583860">
        <ele>1593.100</ele>
        <time>2019-07-14T20:02:46Z</time>
      </trkpt>
      <trkpt lat="35.341515490" lon="-106.588840750">
        <ele>1593.700</ele>
        <time>2019-07-14T20:02:47Z</time>
      </trkpt>
      <trkpt lat="35.341672380" lon="-106.589097100">
        <ele>1594.600</ele>
        <time>2019-07-14T20:02:48Z</time>
      </trkpt>
      <trkpt lat="35.341820730" lon="-106.589360800">
        <ele>1592.100</ele>
        <time>2019-07-14T20:02:49Z</time>
      </trkpt>
      <trkpt lat="35.341975220" lon="-106.589624290">
        <ele>1594.000</ele>
        <time>2019-07-14T20:02:50Z</time>
      </trkpt>
      <trkpt lat="35.342124030" lon="-106.589880010">
        <ele>1594.800</ele>
        <time>2019-07-14T20:02:51Z</time>
      </trkpt>
      <trkpt lat="35.342271520" lon="-106.590146260">
        <ele>1595.600</ele>
        <time>2019-07-14T20:02:52Z</time>
      </trkpt>
      <trkpt lat="35.342424710" lon="-106.590401770">
        <ele>1597.000</ele>
        <time>2019-07-14T20:02:53Z</time>
      </trkpt>
      <trkpt lat="35.342577240" lon="-106.590664050">
        <ele>1598.000</ele>
        <time>2019-07-14T20:02:54Z</time>
      </trkpt>
      <trkpt lat="35.342727710" lon="-106.590920320">
        <ele>1599.400</ele>
        <time>2019-07-14T20:02:55Z</time>
      </trkpt>
      <trkpt lat="35.342875230" lon="-106.591180520">
        <ele>1600.200</ele>
        <time>2019-07-14T20:02:56Z</time>
      </trkpt>
      <trkpt lat="35.343022710" lon="-106.591433040">
        <ele>1600.800</ele>
        <time>2019-07-14T20:02:57Z</time>
      </trkpt>
      <trkpt lat="35.343164760" lon="-106.591687020">
        <ele>1601.300</ele>
        <time>2019-07-14T20:02:58Z</time>
      </trkpt>
      <trkpt lat="35.343310270" lon="-106.591943780">
        <ele>1602.000</ele>
        <time>2019-07-14T20:02:59Z</time>
      </trkpt>
      <trkpt lat="35.343454720" lon="-106.592208190">
        <ele>1602.400</ele>
        <time>2019-07-14T20:03:00Z</time>
      </trkpt>
      <trkpt lat="35.343599100" lon="-106.592461480">
        <ele>1603.700</ele>
        <time>2019-07-14T20:03:01Z</time>
      </trkpt>
      <trkpt lat="35.343748620" lon="-106.592715160">
        <ele>1604.400</ele>
        <time>2019-07-14T20:03:02Z</time>
      </trkpt>
      <trkpt lat="35.343899020" lon="-106.592974260">
        <ele>1605.600</ele>
        <time>2019-07-14T20:03:03Z</time>
      </trkpt>
      <trkpt lat="35.344043530" lon="-106.593230080">
        <ele>1606.000</ele>
        <time>2019-07-14T20:03:04Z</time>
      </trkpt>
      <trkpt lat="35.344190430" lon="-106.593480190">
        <ele>1606.900</ele>
        <time>2019-07-14T20:03:05Z</time>
      </trkpt>
      <trkpt lat="35.344346340" lon="-106.593734160">
        <ele>1608.300</ele>
        <time>2019-07-14T20:03:06Z</time>
      </trkpt>
      <trkpt lat="35.344494040" lon="-106.593997360">
        <ele>1609.500</ele>
        <time>2019-07-14T20:03:07Z</time>
      </trkpt>
      <trkpt lat="35.344639930" lon="-106.594250800">
        <ele>1610.600</ele>
        <time>2019-07-14T20:03:08Z</time>
      </trkpt>
      <trkpt lat="35.344789480" lon="-106.594509470">
        <ele>1610.600</ele>
        <time>2019-07-14T20:03:09Z</time>
      </trkpt>
      <trkpt lat="35.344935870" lon="-106.594766240">
        <ele>1610.800</ele>
        <time>2019-07-14T20:03:10Z</time>
      </trkpt>
      <trkpt lat="35.345082480" lon="-106.595021880">
        <ele>1611.100</ele>
        <time>2019-07-14T20:03:11Z</time>
      </trkpt>
      <trkpt lat="35.345227760" lon="-106.595282310">
        <ele>1611.400</ele>
        <time>2019-07-14T20:03:12Z</time>
      </trkpt>
      <trkpt lat="35.345383180" lon="-106.595546790">
        <ele>1613.000</ele>
        <time>2019-07-14T20:03:13Z</time>
      </trkpt>
      <trkpt lat="35.345533710" lon="-106.595806890">
        <ele>1612.500</ele>
        <time>2019-07-14T20:03:14Z</time>
      </trkpt>
      <trkpt lat="35.345686930" lon="-106.596067820">
        <ele>1612.800</ele>
        <time>2019-07-14T20:03:15Z</time>
      </trkpt>
      <trkpt lat="35.345833770" lon="-106.596331510">
        <ele>1613.600</ele>
        <time>2019-07-14T20:03:16Z</time>
      </trkpt>
      <trkpt lat="35.345985230" lon="-106.596582360">
        <ele>1615.100</ele>
        <time>2019-07-14T20:03:17Z</time>
      </trkpt>
      <trkpt lat="35.346135750" lon="-106.596831860">
        <ele>1617.400</ele>
        <time>2019-07-14T20:03:18Z</time>
      </trkpt>
      <trkpt lat="35.346284930" lon="-106.597089940">
        <ele>1618.600</ele>
        <time>2019-07-14T20:03:19Z</time>
      </trkpt>
      <trkpt lat="35.346433310" lon="-106.597349920">
        <ele>1618.800</ele>
        <time>2019-07-14T20:03:20Z</time>
      </trkpt>
      <trkpt lat="35.346579700" lon="-106.597603180">
        <ele>1620.000</ele>
        <time>2019-07-14T20:03:21Z</time>
      </trkpt>
      <trkpt lat="35.346734770" lon="-106.597858110">
        <ele>1620.900</ele>
        <time>2019-07-14T20:03:22Z</time>
      </trkpt>
      <trkpt lat="35.346885060" lon="-106.598104690">
        <ele>1622.400</ele>
        <time>2019-07-14T20:03:23Z</time>
      </trkpt>
      <trkpt lat="35.347029310" lon="-106.598366370">
        <ele>1622.500</ele>
        <time>2019-07-14T20:03:24Z</time>
      </trkpt>
      <trkpt lat="35.347167110" lon="-106.598626390">
        <ele>1622.200</ele>
        <time>2019-07-14T20:03:25Z</time>
      </trkpt>
      <trkpt lat="35.347315090" lon="-106.598880930">
        <ele>1623.200</ele>
        <time>2019-07-14T20:03:26Z</time>
      </trkpt>
      <trkpt lat="35.347465000" lon="-106.599140130">
        <ele>1623.600</ele>
        <time>2019-07-14T20:03:27Z</time>
      </trkpt>
      <trkpt lat="35.347615270" lon="-106.599396370">
        <ele>1624.400</ele>
        <time>2019-07-14T20:03:28Z</time>
      </trkpt>
      <trkpt lat="35.347764610" lon="-106.599647570">
        <ele>1625.700</ele>
        <time>2019-07-14T20:03:29Z</time>
      </trkpt>
      <trkpt lat="35.347913710" lon="-106.599902670">
        <ele>1626.900</ele>
        <time>2019-07-14T20:03:30Z</time>
      </trkpt>
      <trkpt lat="35.348068130" lon="-106.600162070">
        <ele>1628.000</ele>
        <time>2019-07-14T20:03:31Z</time>
      </trkpt>
      <trkpt lat="35.348218740" lon="-106.600419300">
        <ele>1629.200</ele>
        <time>2019-07-14T20:03:32Z</time>
      </trkpt>
      <trkpt lat="35.348367760" lon="-106.600673890">
        <ele>1629.700</ele>
        <time>2019-07-14T20:03:33Z</time>
      </trkpt>
      <trkpt lat="35.348519310" lon="-106.600934650">
        <ele>1631.200</ele>
        <time>2019-07-14T20:03:34Z</time>
      </trkpt>
      <trkpt lat="35.348665820" lon="-106.601190550">
        <ele>1631.900</ele>
        <time>2019-07-14T20:03:35Z</time>
      </trkpt>
      <trkpt lat="35.348811370" lon="-106.601442760">
        <ele>1633.200</ele>
        <time>2019-07-14T20:03:36Z</time>
      </trkpt>
      <trkpt lat="35.348965470" lon="-106.601702890">
        <ele>1633.800</ele>
        <time>2019-07-14T20:03:37Z</time>
      </trkpt>
      <trkpt lat="35.349114080" lon="-106.601966640">
        <ele>1634.600</ele>
        <time>2019-07-14T20:03:38Z</time>
      </trkpt>
      <trkpt lat="35.349261460" lon="-106.602223170">
        <ele>1635.800</ele>
        <time>2019-07-14T20:03:39Z</time>
      </trkpt>
      <trkpt lat="35.349406030" lon="-106.602485370">
        <ele>1635.900</ele>
        <time>2019-07-14T20:03:40Z</time>
      </trkpt>
      <trkpt lat="35.349550680" lon="-106.602746580">
        <ele>1636.200</ele>
        <time>2019-07-14T20:03:41Z</time>
      </trkpt>
      <trkpt lat="35.349698890" lon="-106.603001940">
        <ele>1636.900</ele>
        <time>2019-07-14T20:03:42Z</time>
      </trkpt>
      <trkpt lat="35.349845580" lon="-106.603257450">
        <ele>1637.400</ele>
        <time>2019-07-14T20:03:43Z</time>
      </trkpt>
      <trkpt lat="35.349992280" lon="-106.603524320">
        <ele>1637.200</ele>
        <time>2019-07-14T20:03:44Z</time>
      </trkpt>
      <trkpt lat="35.350135640" lon="-106.603787240">
        <ele>1638.000</ele>
        <time>2019-07-14T20:03:45Z</time>
      </trkpt>
      <trkpt lat="35.350284580" lon="-106.604043600">
        <ele>1638.700</ele>
        <time>2019-07-14T20:03:46Z</time>
      </trkpt>
      <trkpt lat="35.350435340" lon="-106.604307850">
        <ele>1639.300</ele>
        <time>2019-07-14T20:03:47Z</time>
      </trkpt>
      <trkpt lat="35.350582810" lon="-106.604557960">
        <ele>1640.200</ele>
        <time>2019-07-14T20:03:48Z</time>
      </trkpt>
      <trkpt lat="35.350732550" lon="-106.604816640">
        <ele>1640.900</ele>
        <time>2019-07-14T20:03:49Z</time>
      </trkpt>
      <trkpt lat="35.350884930" lon="-106.605077460">
        <ele>1641.400</ele>
        <time>2019-07-14T20:03:50Z</time>
      </trkpt>
      <trkpt lat="35.351036270" lon="-106.605332940">
        <ele>1642.200</ele>
        <time>2019-07-14T20:03:51Z</time>
      </trkpt>
      <trkpt lat="35.351184690" lon="-106.605592700">
        <ele>1642.900</ele>
        <time>2019-07-14T20:03:52Z</time>
      </trkpt>
      <trkpt lat="35.351334030" lon="-106.605845950">
        <ele>1644.200</ele>
        <time>2019-07-14T20:03:53Z</time>
      </trkpt>
      <trkpt lat="35.351480120" lon="-106.606107530">
        <ele>1644.500</ele>
        <time>2019-07-14T20:03:54Z</time>
      </trkpt>
      <trkpt lat="35.351626960" lon="-106.606362460">
        <ele>1645.000</ele>
        <time>2019-07-14T20:03:55Z</time>
      </trkpt>
      <trkpt lat="35.351773880" lon="-106.606621000">
        <ele>1645.400</ele>
        <time>2019-07-14T20:03:56Z</time>
      </trkpt>
      <trkpt lat="35.351927900" lon="-106.606881890">
        <ele>1646.100</ele>
        <time>2019-07-14T20:03:57Z</time>
      </trkpt>
      <trkpt lat="35.352073390" lon="-106.607142550">
        <ele>1646.100</ele>
        <time>2019-07-14T20:03:58Z</time>
      </trkpt>
      <trkpt lat="35.352229470" lon="-106.607395450">
        <ele>1646.900</ele>
        <time>2019-07-14T20:03:59Z</time>
      </trkpt>
      <trkpt lat="35.352374620" lon="-106.607647710">
        <ele>1647.300</ele>
        <time>2019-07-14T20:04:00Z</time>
      </trkpt>
      <trkpt lat="35.352523500" lon="-106.607906270">
        <ele>1648.400</ele>
        <time>2019-07-14T20:04:01Z</time>
      </trkpt>
      <trkpt lat="35.352672610" lon="-106.608163160">
        <ele>1648.900</ele>
        <time>2019-07-14T20:04:02Z</time>
      </trkpt>
      <trkpt lat="35.352825350" lon="-106.608421320">
        <ele>1649.700</ele>
        <time>2019-07-14T20:04:03Z</time>
      </trkpt>
      <trkpt lat="35.352973730" lon="-106.608681430">
        <ele>1650.000</ele>
        <time>2019-07-14T20:04:04Z</time>
      </trkpt>
      <trkpt lat="35.353129370" lon="-106.608945340">
        <ele>1650.700</ele>
        <time>2019-07-14T20:04:05Z</time>
      </trkpt>
      <trkpt lat="35.353281950" lon="-106.609214830">
        <ele>1651.100</ele>
        <time>2019-07-14T20:04:06Z</time>
      </trkpt>
      <trkpt lat="35.353432590" lon="-106.609481640">
        <ele>1651.900</ele>
        <time>2019-07-14T20:04:07Z</time>
      </trkpt>
      <trkpt lat="35.353587670" lon="-106.609752410">
        <ele>1652.100</ele>
        <time>2019-07-14T20:04:08Z</time>
      </trkpt>
      <trkpt lat="35.353743930" lon="-106.610016590">
        <ele>1652.500</ele>
        <time>2019-07-14T20:04:09Z</time>
      </trkpt>
      <trkpt lat="35.353898740" lon="-106.610293180">
        <ele>1652.900</ele>
        <time>2019-07-14T20:04:10Z</time>
      </trkpt>
      <trkpt lat="35.354059490" lon="-106.610563860">
        <ele>1653.100</ele>
        <time>2019-07-14T20:04:11Z</time>
      </trkpt>
      <trkpt lat="35.354218230" lon="-106.610837110">
        <ele>1653.600</ele>
        <time>2019-07-14T20:04:12Z</time>
      </trkpt>
      <trkpt lat="35.354380930" lon="-106.611117340">
        <ele>1654.400</ele>
        <time>2019-07-14T20:04:13Z</time>
      </trkpt>
      <trkpt lat="35.354534500" lon="-106.611395570">
        <ele>1655.000</ele>
        <time>2019-07-14T20:04:14Z</time>
      </trkpt>
      <trkpt lat="35.354690970" lon="-106.611672490">
        <ele>1655.800</ele>
        <time>2019-07-14T20:04:15Z</time>
      </trkpt>
      <trkpt lat="35.354853260" lon="-106.611942870">
        <ele>1656.300</ele>
        <time>2019-07-14T20:04:16Z</time>
      </trkpt>
      <trkpt lat="35.355012070" lon="-106.612222430">
        <ele>1656.400</ele>
        <time>2019-07-14T20:04:17Z</time>
      </trkpt>
      <trkpt lat="35.355170310" lon="-106.612493680">
        <ele>1657.700</ele>
        <time>2019-07-14T20:04:18Z</time>
      </trkpt>
      <trkpt lat="35.355322390" lon="-106.612765870">
        <ele>1658.100</ele>
        <time>2019-07-14T20:04:19Z</time>
      </trkpt>
      <trkpt lat="35.355480300" lon="-106.613034550">
        <ele>1659.000</ele>
        <time>2019-07-14T20:04:20Z</time>
      </trkpt>
      <trkpt lat="35.355636460" lon="-106.613309890">
        <ele>1659.800</ele>
        <time>2019-07-14T20:04:21Z</time>
      </trkpt>
      <trkpt lat="35.355792370" lon="-106.613579760">
        <ele>1660.500</ele>
        <time>2019-07-14T20:04:22Z</time>
      </trkpt>
      <trkpt lat="35.355953860" lon="-106.613852530">
        <ele>1661.100</ele>
        <time>2019-07-14T20:04:23Z</time>
      </trkpt>
      <trkpt lat="35.356110970" lon="-106.614122280">
        <ele>1661.900</ele>
        <time>2019-07-14T20:04:24Z</time>
      </trkpt>
      <trkpt lat="35.356273700" lon="-106.614388140">
        <ele>1663.300</ele>
        <time>2019-07-14T20:04:25Z</time>
      </trkpt>
      <trkpt lat="35.356435810" lon="-106.614655550">
        <ele>1664.600</ele>
        <time>2019-07-14T20:04:26Z</time>
      </trkpt>
      <trkpt lat="35.356590710" lon="-106.614924580">
        <ele>1665.700</ele>
        <time>2019-07-14T20:04:27Z</time>
      </trkpt>
      <trkpt lat="35.356744850" lon="-106.615196400">
        <ele>1666.400</ele>
        <time>2019-07-14T20:04:28Z</time>
      </trkpt>
      <trkpt lat="35.356902170" lon="-106.615460570">
        <ele>1667.800</ele>
        <time>2019-07-14T20:04:29Z</time>
      </trkpt>
      <trkpt lat="35.357059830" lon="-106.615728490">
        <ele>1669.300</ele>
        <time>2019-07-14T20:04:30Z</time>
      </trkpt>
      <trkpt lat="35.357204060" lon="-106.616006960">
        <ele>1670.200</ele>
        <time>2019-07-14T20:04:31Z</time>
      </trkpt>
      <trkpt lat="35.357359780" lon="-106.616276970">
        <ele>1671.200</ele>
        <time>2019-07-14T20:04:32Z</time>
      </trkpt>
      <trkpt lat="35.357517120" lon="-106.616550690">
        <ele>1672.200</ele>
        <time>2019-07-14T20:04:33Z</time>
      </trkpt>
      <trkpt lat="35.357679680" lon="-106.616828110">
        <ele>1673.200</ele>
        <time>2019-07-14T20:04:34Z</time>
      </trkpt>
      <trkpt lat="35.357839970" lon="-106.617103800">
        <ele>1674.800</ele>
        <time>2019-07-14T20:04:35Z</time>
      </trkpt>
      <trkpt lat="35.358005120" lon="-106.617383100">
        <ele>1675.900</ele>
        <time>2019-07-14T20:04:36Z</time>
      </trkpt>
      <trkpt lat="35.358172750" lon="-106.617657780">
        <ele>1677.000</ele>
        <time>2019-07-14T20:04:37Z</time>
      </trkpt>
      <trkpt lat="35.358338700" lon="-106.617936870">
        <ele>1677.800</ele>
        <time>2019-07-14T20:04:38Z</time>
      </trkpt>
      <trkpt lat="35.358505040" lon="-106.618206740">
        <ele>1679.400</ele>
        <time>2019-07-14T20:04:39Z</time>
      </trkpt>
      <trkpt lat="35.358658880" lon="-106.618480400">
        <ele>1680.000</ele>
        <time>2019-07-14T20:04:40Z</time>
      </trkpt>
      <trkpt lat="35.358813210" lon="-106.618751710">
        <ele>1681.000</ele>
        <time>2019-07-14T20:04:41Z</time>
      </trkpt>
      <trkpt lat="35.358971210" lon="-106.619025210">
        <ele>1682.300</ele>
        <time>2019-07-14T20:04:42Z</time>
      </trkpt>
      <trkpt lat="35.359130570" lon="-106.619294220">
        <ele>1682.900</ele>
        <time>2019-07-14T20:04:43Z</time>
      </trkpt>
      <trkpt lat="35.359290990" lon="-106.619564080">
        <ele>1683.600</ele>
        <time>2019-07-14T20:04:44Z</time>
      </trkpt>
      <trkpt lat="35.359446970" lon="-106.619841610">
        <ele>1684.600</ele>
        <time>2019-07-14T20:04:45Z</time>
      </trkpt>
      <trkpt lat="35.359608550" lon="-106.620115190">
        <ele>1685.800</ele>
        <time>2019-07-14T20:04:46Z</time>
      </trkpt>
      <trkpt lat="35.359767370" lon="-106.620387130">
        <ele>1686.600</ele>
        <time>2019-07-14T20:04:47Z</time>
      </trkpt>
      <trkpt lat="35.359925250" lon="-106.620655700">
        <ele>1687.700</ele>
        <time>2019-07-14T20:04:48Z</time>
      </trkpt>
      <trkpt lat="35.360086480" lon="-106.620924590">
        <ele>1689.400</ele>
        <time>2019-07-14T20:04:49Z</time>
      </trkpt>
      <trkpt lat="35.360243720" lon="-106.621202590">
        <ele>1690.100</ele>
        <time>2019-07-14T20:04:50Z</time>
      </trkpt>
      <trkpt lat="35.360404060" lon="-106.621471700">
        <ele>1691.100</ele>
        <time>2019-07-14T20:04:51Z</time>
      </trkpt>
      <trkpt lat="35.360562560" lon="-106.621744580">
        <ele>1692.200</ele>
        <time>2019-07-14T20:04:52Z</time>
      </trkpt>
      <trkpt lat="35.360715280" lon="-106.622018410">
        <ele>1693.600</ele>
        <time>2019-07-14T20:04:53Z</time>
      </trkpt>
      <trkpt lat="35.360874780" lon="-106.622291100">
        <ele>1694.800</ele>
        <time>2019-07-14T20:04:54Z</time>
      </trkpt>
      <trkpt lat="35.361037910" lon="-106.622567970">
        <ele>1695.800</ele>
        <time>2019-07-14T20:04:55Z</time>
      </trkpt>
      <trkpt lat="35.361194850" lon="-106.622846720">
        <ele>1696.500</ele>
        <time>2019-07-14T20:04:56Z</time>
      </trkpt>
      <trkpt lat="35.361356870" lon="-106.623118830">
        <ele>1697.600</ele>
        <time>2019-07-14T20:04:57Z</time>
      </trkpt>
      <trkpt lat="35.361519340" lon="-106.623393430">
        <ele>1698.400</ele>
        <time>2019-07-14T20:04:58Z</time>
      </trkpt>
      <trkpt lat="35.361678960" lon="-106.623668640">
        <ele>1699.800</ele>
        <time>2019-07-14T20:04:59Z</time>
      </trkpt>
      <trkpt lat="35.361837340" lon="-106.623941080">
        <ele>1701.000</ele>
        <time>2019-07-14T20:05:00Z</time>
      </trkpt>
      <trkpt lat="35.361993850" lon="-106.624219350">
        <ele>1701.500</ele>
        <time>2019-07-14T20:05:01Z</time>
      </trkpt>
      <trkpt lat="35.362147480" lon="-106.624494500">
        <ele>1701.900</ele>
        <time>2019-07-14T20:05:02Z</time>
      </trkpt>
      <trkpt lat="35.362307450" lon="-106.624774790">
        <ele>1702.100</ele>
        <time>2019-07-14T20:05:03Z</time>
      </trkpt>
      <trkpt lat="35.362466260" lon="-106.625048340">
        <ele>1702.400</ele>
        <time>2019-07-14T20:05:04Z</time>
      </trkpt>
      <trkpt lat="35.362617630" lon="-106.625323930">
        <ele>1704.000</ele>
        <time>2019-07-14T20:05:05Z</time>
      </trkpt>
      <trkpt lat="35.362766610" lon="-106.625598780">
        <ele>1704.200</ele>
        <time>2019-07-14T20:05:06Z</time>
      </trkpt>
      <trkpt lat="35.362928050" lon="-106.625870330">
        <ele>1704.900</ele>
        <time>2019-07-14T20:05:07Z</time>
      </trkpt>
      <trkpt lat="35.363087360" lon="-106.626151620">
        <ele>1705.300</ele>
        <time>2019-07-14T20:05:08Z</time>
      </trkpt>
      <trkpt lat="35.363245640" lon="-106.626432000">
        <ele>1705.200</ele>
        <time>2019-07-14T20:05:09Z</time>
      </trkpt>
      <trkpt lat="35.363402530" lon="-106.626705160">
        <ele>1705.500</ele>
        <time>2019-07-14T20:05:10Z</time>
      </trkpt>
      <trkpt lat="35.363559210" lon="-106.626982220">
        <ele>1706.000</ele>
        <time>2019-07-14T20:05:11Z</time>
      </trkpt>
      <trkpt lat="35.363712000" lon="-106.627257940">
        <ele>1706.300</ele>
        <time>2019-07-14T20:05:12Z</time>
      </trkpt>
      <trkpt lat="35.363870660" lon="-106.627532610">
        <ele>1706.600</ele>
        <time>2019-07-14T20:05:13Z</time>
      </trkpt>
      <trkpt lat="35.364026020" lon="-106.627811310">
        <ele>1706.900</ele>
        <time>2019-07-14T20:05:14Z</time>
      </trkpt>
      <trkpt lat="35.364178030" lon="-106.628085580">
        <ele>1707.000</ele>
        <time>2019-07-14T20:05:15Z</time>
      </trkpt>
      <trkpt lat="35.364334350" lon="-106.628349490">
        <ele>1707.300</ele>
        <time>2019-07-14T20:05:16Z</time>
      </trkpt>
      <trkpt lat="35.364498880" lon="-106.628628550">
        <ele>1706.900</ele>
        <time>2019-07-14T20:05:17Z</time>
      </trkpt>
      <trkpt lat="35.364647670" lon="-106.628920430">
        <ele>1706.700</ele>
        <time>2019-07-14T20:05:18Z</time>
      </trkpt>
      <trkpt lat="35.364815110" lon="-106.629175060">
        <ele>1685.200</ele>
        <time>2019-07-14T20:05:19Z</time>
      </trkpt>
      <trkpt lat="35.364976110" lon="-106.629435610">
        <ele>1691.900</ele>
        <time>2019-07-14T20:05:20Z</time>
      </trkpt>
      <trkpt lat="35.365140820" lon="-106.629708050">
        <ele>1696.600</ele>
        <time>2019-07-14T20:05:21Z</time>
      </trkpt>
      <trkpt lat="35.365300940" lon="-106.629969740">
        <ele>1699.800</ele>
        <time>2019-07-14T20:05:22Z</time>
      </trkpt>
      <trkpt lat="35.365461980" lon="-106.630236710">
        <ele>1702.600</ele>
        <time>2019-07-14T20:05:23Z</time>
      </trkpt>
      <trkpt lat="35.365623090" lon="-106.630511640">
        <ele>1703.700</ele>
        <time>2019-07-14T20:05:24Z</time>
      </trkpt>
      <trkpt lat="35.365794930" lon="-106.630780220">
        <ele>1705.600</ele>
        <time>2019-07-14T20:05:25Z</time>
      </trkpt>
      <trkpt lat="35.365963690" lon="-106.631045500">
        <ele>1705.900</ele>
        <time>2019-07-14T20:05:26Z</time>
      </trkpt>
      <trkpt lat="35.366142170" lon="-106.631304870">
        <ele>1706.000</ele>
        <time>2019-07-14T20:05:27Z</time>
      </trkpt>
      <trkpt lat="35.366328010" lon="-106.631560080">
        <ele>1706.200</ele>
        <time>2019-07-14T20:05:28Z</time>
      </trkpt>
      <trkpt lat="35.366526110" lon="-106.631797270">
        <ele>1706.400</ele>
        <time>2019-07-14T20:05:29Z</time>
      </trkpt>
      <trkpt lat="35.366729690" lon="-106.632007820">
        <ele>1705.800</ele>
        <time>2019-07-14T20:05:30Z</time>
      </trkpt>
      <trkpt lat="35.366946500" lon="-106.632237340">
        <ele>1704.900</ele>
        <time>2019-07-14T20:05:31Z</time>
      </trkpt>
      <trkpt lat="35.367160560" lon="-106.632443720">
        <ele>1705.200</ele>
        <time>2019-07-14T20:05:32Z</time>
      </trkpt>
      <trkpt lat="35.367384100" lon="-106.632646990">
        <ele>1705.000</ele>
        <time>2019-07-14T20:05:33Z</time>
      </trkpt>
      <trkpt lat="35.367598460" lon="-106.632821270">
        <ele>1704.400</ele>
        <time>2019-07-14T20:05:34Z</time>
      </trkpt>
      <trkpt lat="35.367856290" lon="-106.633013500">
        <ele>1704.200</ele>
        <time>2019-07-14T20:05:35Z</time>
      </trkpt>
      <trkpt lat="35.368072640" lon="-106.633166840">
        <ele>1703.400</ele>
        <time>2019-07-14T20:05:36Z</time>
      </trkpt>
      <trkpt lat="35.368325680" lon="-106.633334160">
        <ele>1703.300</ele>
        <time>2019-07-14T20:05:37Z</time>
      </trkpt>
      <trkpt lat="35.368575650" lon="-106.633480400">
        <ele>1703.400</ele>
        <time>2019-07-14T20:05:38Z</time>
      </trkpt>
      <trkpt lat="35.368838100" lon="-106.633620480">
        <ele>1703.800</ele>
        <time>2019-07-14T20:05:39Z</time>
      </trkpt>
      <trkpt lat="35.369106230" lon="-106.633750730">
        <ele>1702.700</ele>
        <time>2019-07-14T20:05:40Z</time>
      </trkpt>
      <trkpt lat="35.369382600" lon="-106.633862500">
        <ele>1702.300</ele>
        <time>2019-07-14T20:05:41Z</time>
      </trkpt>
      <trkpt lat="35.369664610" lon="-106.633961370">
        <ele>1702.000</ele>
        <time>2019-07-14T20:05:42Z</time>
      </trkpt>
      <trkpt lat="35.369950070" lon="-106.634052650">
        <ele>1701.800</ele>
        <time>2019-07-14T20:05:43Z</time>
      </trkpt>
      <trkpt lat="35.370241400" lon="-106.634128470">
        <ele>1701.200</ele>
        <time>2019-07-14T20:05:44Z</time>
      </trkpt>
      <trkpt lat="35.370527520" lon="-106.634205370">
        <ele>1699.800</ele>
        <time>2019-07-14T20:05:45Z</time>
      </trkpt>
      <trkpt lat="35.370819620" lon="-106.634278620">
        <ele>1698.900</ele>
        <time>2019-07-14T20:05:46Z</time>
      </trkpt>
      <trkpt lat="35.371108530" lon="-106.634355610">
        <ele>1698.500</ele>
        <time>2019-07-14T20:05:47Z</time>
      </trkpt>
      <trkpt lat="35.371395060" lon="-106.634430340">
        <ele>1697.300</ele>
        <time>2019-07-14T20:05:48Z</time>
      </trkpt>
      <trkpt lat="35.371679860" lon="-106.634505930">
        <ele>1696.600</ele>
        <time>2019-07-14T20:05:49Z</time>
      </trkpt>
      <trkpt lat="35.371964350" lon="-106.634574480">
        <ele>1695.500</ele>
        <time>2019-07-14T20:05:50Z</time>
      </trkpt>
      <trkpt lat="35.372246280" lon="-106.634654680">
        <ele>1695.100</ele>
        <time>2019-07-14T20:05:51Z</time>
      </trkpt>
      <trkpt lat="35.372526550" lon="-106.634746850">
        <ele>1695.400</ele>
        <time>2019-07-14T20:05:52Z</time>
      </trkpt>
      <trkpt lat="35.372808680" lon="-106.634832370">
        <ele>1695.100</ele>
        <time>2019-07-14T20:05:53Z</time>
      </trkpt>
      <trkpt lat="35.373089550" lon="-106.634918160">
        <ele>1695.200</ele>
        <time>2019-07-14T20:05:54Z</time>
      </trkpt>
      <trkpt lat="35.373368400" lon="-106.634997010">
        <ele>1691.300</ele>
        <time>2019-07-14T20:05:55Z</time>
      </trkpt>
      <trkpt lat="35.373649790" lon="-106.635078840">
        <ele>1691.300</ele>
        <time>2019-07-14T20:05:56Z</time>
      </trkpt>
      <trkpt lat="35.373934370" lon="-106.635158820">
        <ele>1689.600</ele>
        <time>2019-07-14T20:05:57Z</time>
      </trkpt>
      <trkpt lat="35.374218180" lon="-106.635242890">
        <ele>1689.300</ele>
        <time>2019-07-14T20:05:58Z</time>
      </trkpt>
      <trkpt lat="35.374504400" lon="-106.635325000">
        <ele>1688.900</ele>
        <time>2019-07-14T20:05:59Z</time>
      </trkpt>
      <trkpt lat="35.374787040" lon="-106.635401530">
        <ele>1688.100</ele>
        <time>2019-07-14T20:06:00Z</time>
      </trkpt>
      <trkpt lat="35.375069580" lon="-106.635485650">
        <ele>1686.600</ele>
        <time>2019-07-14T20:06:01Z</time>
      </trkpt>
      <trkpt lat="35.375353980" lon="-106.635559830">
        <ele>1685.900</ele>
        <time>2019-07-14T20:06:02Z</time>
      </trkpt>
      <trkpt lat="35.375640130" lon="-106.635638860">
        <ele>1684.400</ele>
        <time>2019-07-14T20:06:03Z</time>
      </trkpt>
      <trkpt lat="35.375925950" lon="-106.635719050">
        <ele>1683.500</ele>
        <time>2019-07-14T20:06:04Z</time>
      </trkpt>
      <trkpt lat="35.376204930" lon="-106.635801130">
        <ele>1682.500</ele>
        <time>2019-07-14T20:06:05Z</time>
      </trkpt>
      <trkpt lat="35.376487030" lon="-106.635878160">
        <ele>1682.100</ele>
        <time>2019-07-14T20:06:06Z</time>
      </trkpt>
      <trkpt lat="35.376763770" lon="-106.635956940">
        <ele>1681.400</ele>
        <time>2019-07-14T20:06:07Z</time>
      </trkpt>
      <trkpt lat="35.377040500" lon="-106.636036680">
        <ele>1679.700</ele>
        <time>2019-07-14T20:06:08Z</time>
      </trkpt>
      <trkpt lat="35.377321150" lon="-106.636113140">
        <ele>1679.100</ele>
        <time>2019-07-14T20:06:09Z</time>
      </trkpt>
      <trkpt lat="35.377605080" lon="-106.636193180">
        <ele>1678.500</ele>
        <time>2019-07-14T20:06:10Z</time>
      </trkpt>
      <trkpt lat="35.377890030" lon="-106.636267140">
        <ele>1677.700</ele>
        <time>2019-07-14T20:06:11Z</time>
      </trkpt>
      <trkpt lat="35.378171830" lon="-106.636345140">
        <ele>1677.100</ele>
        <time>2019-07-14T20:06:12Z</time>
      </trkpt>
      <trkpt lat="35.378452370" lon="-106.636429370">
        <ele>1676.800</ele>
        <time>2019-07-14T20:06:13Z</time>
      </trkpt>
      <trkpt lat="35.378734380" lon="-106.636514560">
        <ele>1676.400</ele>
        <time>2019-07-14T20:06:14Z</time>
      </trkpt>
      <trkpt lat="35.379017420" lon="-106.636587540">
        <ele>1676.800</ele>
        <time>2019-07-14T20:06:15Z</time>
      </trkpt>
      <trkpt lat="35.379301200" lon="-106.636661780">
        <ele>1676.200</ele>
        <time>2019-07-14T20:06:16Z</time>
      </trkpt>
      <trkpt lat="35.379585250" lon="-106.636742220">
        <ele>1676.200</ele>
        <time>2019-07-14T20:06:17Z</time>
      </trkpt>
      <trkpt lat="35.379864240" lon="-106.636818860">
        <ele>1676.300</ele>
        <time>2019-07-14T20:06:18Z</time>
      </trkpt>
      <trkpt lat="35.380143280" lon="-106.636896060">
        <ele>1676.400</ele>
        <time>2019-07-14T20:06:19Z</time>
      </trkpt>
      <trkpt lat="35.380426900" lon="-106.636976150">
        <ele>1675.800</ele>
        <time>2019-07-14T20:06:20Z</time>
      </trkpt>
      <trkpt lat="35.380712670" lon="-106.637051180">
        <ele>1675.200</ele>
        <time>2019-07-14T20:06:21Z</time>
      </trkpt>
      <trkpt lat="35.380998820" lon="-106.637130510">
        <ele>1674.200</ele>
        <time>2019-07-14T20:06:22Z</time>
      </trkpt>
      <trkpt lat="35.381285370" lon="-106.637202610">
        <ele>1674.400</ele>
        <time>2019-07-14T20:06:23Z</time>
      </trkpt>
      <trkpt lat="35.381562860" lon="-106.637284580">
        <ele>1673.000</ele>
        <time>2019-07-14T20:06:24Z</time>
      </trkpt>
      <trkpt lat="35.381845350" lon="-106.637367200">
        <ele>1673.800</ele>
        <time>2019-07-14T20:06:25Z</time>
      </trkpt>
      <trkpt lat="35.382133730" lon="-106.637445030">
        <ele>1673.000</ele>
        <time>2019-07-14T20:06:26Z</time>
      </trkpt>
      <trkpt lat="35.382421190" lon="-106.637531150">
        <ele>1671.600</ele>
        <time>2019-07-14T20:06:27Z</time>
      </trkpt>
      <trkpt lat="35.382704020" lon="-106.637614660">
        <ele>1670.600</ele>
        <time>2019-07-14T20:06:28Z</time>
      </trkpt>
      <trkpt lat="35.382986000" lon="-106.637694460">
        <ele>1670.300</ele>
        <time>2019-07-14T20:06:29Z</time>
      </trkpt>
      <trkpt lat="35.383271090" lon="-106.637772060">
        <ele>1670.400</ele>
        <time>2019-07-14T20:06:30Z</time>
      </trkpt>
      <trkpt lat="35.383549190" lon="-106.637854570">
        <ele>1670.700</ele>
        <time>2019-07-14T20:06:31Z</time>
      </trkpt>
      <trkpt lat="35.383832180" lon="-106.637932320">
        <ele>1669.600</ele>
        <time>2019-07-14T20:06:32Z</time>
      </trkpt>
      <trkpt lat="35.384109460" lon="-106.638012800">
        <ele>1669.100</ele>
        <time>2019-07-14T20:06:33Z</time>
      </trkpt>
      <trkpt lat="35.384392470" lon="-106.638098650">
        <ele>1668.500</ele>
        <time>2019-07-14T20:06:34Z</time>
      </trkpt>
      <trkpt lat="35.384676600" lon="-106.638175270">
        <ele>1668.400</ele>
        <time>2019-07-14T20:06:35Z</time>
      </trkpt>
      <trkpt lat="35.384961400" lon="-106.638257060">
        <ele>1668.700</ele>
        <time>2019-07-14T20:06:36Z</time>
      </trkpt>
      <trkpt lat="35.385242260" lon="-106.638338790">
        <ele>1668.300</ele>
        <time>2019-07-14T20:06:37Z</time>
      </trkpt>
      <trkpt lat="35.385526770" lon="-106.638415630">
        <ele>1667.900</ele>
        <time>2019-07-14T20:06:38Z</time>
      </trkpt>
      <trkpt lat="35.385813280" lon="-106.638491560">
        <ele>1667.300</ele>
        <time>2019-07-14T20:06:39Z</time>
      </trkpt>
      <trkpt lat="35.386094140" lon="-106.638565180">
        <ele>1666.300</ele>
        <time>2019-07-14T20:06:40Z</time>
      </trkpt>
      <trkpt lat="35.386374670" lon="-106.638637880">
        <ele>1666.800</ele>
        <time>2019-07-14T20:06:41Z</time>
      </trkpt>
      <trkpt lat="35.386658130" lon="-106.638702930">
        <ele>1666.900</ele>
        <time>2019-07-14T20:06:42Z</time>
      </trkpt>
      <trkpt lat="35.386939490" lon="-106.638766450">
        <ele>1667.000</ele>
        <time>2019-07-14T20:06:43Z</time>
      </trkpt>
      <trkpt lat="35.387227590" lon="-106.638819190">
        <ele>1667.600</ele>
        <time>2019-07-14T20:06:44Z</time>
      </trkpt>
      <trkpt lat="35.387516030" lon="-106.638872600">
        <ele>1666.800</ele>
        <time>2019-07-14T20:06:45Z</time>
      </trkpt>
      <trkpt lat="35.387804230" lon="-106.638930270">
        <ele>1666.500</ele>
        <time>2019-07-14T20:06:46Z</time>
      </trkpt>
      <trkpt lat="35.388100420" lon="-106.639000450">
        <ele>1666.000</ele>
        <time>2019-07-14T20:06:47Z</time>
      </trkpt>
      <trkpt lat="35.388394970" lon="-106.639055470">
        <ele>1665.900</ele>
        <time>2019-07-14T20:06:48Z</time>
      </trkpt>
      <trkpt lat="35.388676550" lon="-106.639112090">
        <ele>1665.300</ele>
        <time>2019-07-14T20:06:49Z</time>
      </trkpt>
      <trkpt lat="35.388968190" lon="-106.639159230">
        <ele>1664.500</ele>
        <time>2019-07-14T20:06:50Z</time>
      </trkpt>
      <trkpt lat="35.389255960" lon="-106.639204890">
        <ele>1664.100</ele>
        <time>2019-07-14T20:06:51Z</time>
      </trkpt>
      <trkpt lat="35.389551480" lon="-106.639247060">
        <ele>1664.100</ele>
        <time>2019-07-14T20:06:52Z</time>
      </trkpt>
      <trkpt lat="35.389832990" lon="-106.639283040">
        <ele>1663.800</ele>
        <time>2019-07-14T20:06:53Z</time>
      </trkpt>
      <trkpt lat="35.390115920" lon="-106.639318750">
        <ele>1662.600</ele>
        <time>2019-07-14T20:06:54Z</time>
      </trkpt>
      <trkpt lat="35.390397210" lon="-106.639344900">
        <ele>1661.600</ele>
        <time>2019-07-14T20:06:55Z</time>
      </trkpt>
      <trkpt lat="35.390687410" lon="-106.639371210">
        <ele>1660.700</ele>
        <time>2019-07-14T20:06:56Z</time>
      </trkpt>
      <trkpt lat="35.390979410" lon="-106.639397350">
        <ele>1660.100</ele>
        <time>2019-07-14T20:06:57Z</time>
      </trkpt>
      <trkpt lat="35.391271660" lon="-106.639419540">
        <ele>1659.400</ele>
        <time>2019-07-14T20:06:58Z</time>
      </trkpt>
      <trkpt lat="35.391574120" lon="-106.639423310">
        <ele>1657.500</ele>
        <time>2019-07-14T20:06:59Z</time>
      </trkpt>
      <trkpt lat="35.391871030" lon="-106.639436820">
        <ele>1657.000</ele>
        <time>2019-07-14T20:07:00Z</time>
      </trkpt>
      <trkpt lat="35.392157460" lon="-106.639444000">
        <ele>1655.700</ele>
        <time>2019-07-14T20:07:01Z</time>
      </trkpt>
      <trkpt lat="35.392444790" lon="-106.639456790">
        <ele>1655.400</ele>
        <time>2019-07-14T20:07:02Z</time>
      </trkpt>
      <trkpt lat="35.392738990" lon="-106.639460920">
        <ele>1653.600</ele>
        <time>2019-07-14T20:07:03Z</time>
      </trkpt>
      <trkpt lat="35.393033140" lon="-106.639454020">
        <ele>1652.000</ele>
        <time>2019-07-14T20:07:04Z</time>
      </trkpt>
      <trkpt lat="35.393326100" lon="-106.639452000">
        <ele>1650.400</ele>
        <time>2019-07-14T20:07:05Z</time>
      </trkpt>
      <trkpt lat="35.393607020" lon="-106.639453870">
        <ele>1648.400</ele>
        <time>2019-07-14T20:07:06Z</time>
      </trkpt>
      <trkpt lat="35.393903350" lon="-106.639448520">
        <ele>1647.100</ele>
        <time>2019-07-14T20:07:07Z</time>
      </trkpt>
      <trkpt lat="35.394204800" lon="-106.639440110">
        <ele>1646.100</ele>
        <time>2019-07-14T20:07:08Z</time>
      </trkpt>
      <trkpt lat="35.394504230" lon="-106.639433730">
        <ele>1645.400</ele>
        <time>2019-07-14T20:07:09Z</time>
      </trkpt>
      <trkpt lat="35.394801760" lon="-106.639424620">
        <ele>1645.200</ele>
        <time>2019-07-14T20:07:10Z</time>
      </trkpt>
      <trkpt lat="35.395098150" lon="-106.639423550">
        <ele>1643.500</ele>
        <time>2019-07-14T20:07:11Z</time>
      </trkpt>
      <trkpt lat="35.395395890" lon="-106.639422820">
        <ele>1641.600</ele>
        <time>2019-07-14T20:07:12Z</time>
      </trkpt>
      <trkpt lat="35.395689090" lon="-106.639415350">
        <ele>1640.000</ele>
        <time>2019-07-14T20:07:13Z</time>
      </trkpt>
      <trkpt lat="35.395985020" lon="-106.639408460">
        <ele>1639.000</ele>
        <time>2019-07-14T20:07:14Z</time>
      </trkpt>
      <trkpt lat="35.396282650" lon="-106.639404910">
        <ele>1638.300</ele>
        <time>2019-07-14T20:07:15Z</time>
      </trkpt>
      <trkpt lat="35.396574810" lon="-106.639401940">
        <ele>1636.200</ele>
        <time>2019-07-14T20:07:16Z</time>
      </trkpt>
      <trkpt lat="35.396867270" lon="-106.639394690">
        <ele>1635.200</ele>
        <time>2019-07-14T20:07:17Z</time>
      </trkpt>
      <trkpt lat="35.397156430" lon="-106.639394840">
        <ele>1633.500</ele>
        <time>2019-07-14T20:07:18Z</time>
      </trkpt>
      <trkpt lat="35.397449960" lon="-106.639389760">
        <ele>1632.500</ele>
        <time>2019-07-14T20:07:19Z</time>
      </trkpt>
      <trkpt lat="35.397744800" lon="-106.639380520">
        <ele>1631.800</ele>
        <time>2019-07-14T20:07:20Z</time>
      </trkpt>
      <trkpt lat="35.398044340" lon="-106.639386400">
        <ele>1630.200</ele>
        <time>2019-07-14T20:07:21Z</time>
      </trkpt>
      <trkpt lat="35.398338950" lon="-106.639388960">
        <ele>1628.600</ele>
        <time>2019-07-14T20:07:22Z</time>
      </trkpt>
      <trkpt lat="35.398637830" lon="-106.639386750">
        <ele>1627.600</ele>
        <time>2019-07-14T20:07:23Z</time>
      </trkpt>
      <trkpt lat="35.398926800" lon="-106.639377040">
        <ele>1626.100</ele>
        <time>2019-07-14T20:07:24Z</time>
      </trkpt>
      <trkpt lat="35.399218910" lon="-106.639370790">
        <ele>1625.400</ele>
        <time>2019-07-14T20:07:25Z</time>
      </trkpt>
      <trkpt lat="35.399510140" lon="-106.639366530">
        <ele>1623.900</ele>
        <time>2019-07-14T20:07:26Z</time>
      </trkpt>
      <trkpt lat="35.399804330" lon="-106.639365220">
        <ele>1623.800</ele>
        <time>2019-07-14T20:07:27Z</time>
      </trkpt>
      <trkpt lat="35.400101830" lon="-106.639368240">
        <ele>1623.500</ele>
        <time>2019-07-14T20:07:28Z</time>
      </trkpt>
      <trkpt lat="35.400390470" lon="-106.639360830">
        <ele>1622.800</ele>
        <time>2019-07-14T20:07:29Z</time>
      </trkpt>
      <trkpt lat="35.400684140" lon="-106.639356730">
        <ele>1621.900</ele>
        <time>2019-07-14T20:07:30Z</time>
      </trkpt>
      <trkpt lat="35.400981020" lon="-106.639351060">
        <ele>1621.400</ele>
        <time>2019-07-14T20:07:31Z</time>
      </trkpt>
      <trkpt lat="35.401269490" lon="-106.639341110">
        <ele>1620.200</ele>
        <time>2019-07-14T20:07:32Z</time>
      </trkpt>
      <trkpt lat="35.401563350" lon="-106.639334710">
        <ele>1618.700</ele>
        <time>2019-07-14T20:07:33Z</time>
      </trkpt>
      <trkpt lat="35.401852230" lon="-106.639329500">
        <ele>1617.700</ele>
        <time>2019-07-14T20:07:34Z</time>
      </trkpt>
      <trkpt lat="35.402142950" lon="-106.639325240">
        <ele>1616.200</ele>
        <time>2019-07-14T20:07:35Z</time>
      </trkpt>
      <trkpt lat="35.402438670" lon="-106.639322110">
        <ele>1615.100</ele>
        <time>2019-07-14T20:07:36Z</time>
      </trkpt>
      <trkpt lat="35.402730380" lon="-106.639313430">
        <ele>1614.500</ele>
        <time>2019-07-14T20:07:37Z</time>
      </trkpt>
      <trkpt lat="35.403022880" lon="-106.639302750">
        <ele>1613.700</ele>
        <time>2019-07-14T20:07:38Z</time>
      </trkpt>
      <trkpt lat="35.403320160" lon="-106.639290610">
        <ele>1613.800</ele>
        <time>2019-07-14T20:07:39Z</time>
      </trkpt>
      <trkpt lat="35.403603650" lon="-106.639284570">
        <ele>1613.100</ele>
        <time>2019-07-14T20:07:40Z</time>
      </trkpt>
      <trkpt lat="35.403895700" lon="-106.639277680">
        <ele>1613.200</ele>
        <time>2019-07-14T20:07:41Z</time>
      </trkpt>
      <trkpt lat="35.404177870" lon="-106.639273260">
        <ele>1612.800</ele>
        <time>2019-07-14T20:07:42Z</time>
      </trkpt>
      <trkpt lat="35.404471460" lon="-106.639264620">
        <ele>1612.300</ele>
        <time>2019-07-14T20:07:43Z</time>
      </trkpt>
      <trkpt lat="35.404762220" lon="-106.639265040">
        <ele>1612.100</ele>
        <time>2019-07-14T20:07:44Z</time>
      </trkpt>
      <trkpt lat="35.405058240" lon="-106.639254540">
        <ele>1612.700</ele>
        <time>2019-07-14T20:07:45Z</time>
      </trkpt>
      <trkpt lat="35.405351090" lon="-106.639247570">
        <ele>1612.800</ele>
        <time>2019-07-14T20:07:46Z</time>
      </trkpt>
      <trkpt lat="35.405648950" lon="-106.639245810">
        <ele>1612.600</ele>
        <time>2019-07-14T20:07:47Z</time>
      </trkpt>
      <trkpt lat="35.405952130" lon="-106.639247650">
        <ele>1613.600</ele>
        <time>2019-07-14T20:07:48Z</time>
      </trkpt>
      <trkpt lat="35.406254660" lon="-106.639256320">
        <ele>1613.900</ele>
        <time>2019-07-14T20:07:49Z</time>
      </trkpt>
      <trkpt lat="35.406552090" lon="-106.639270540">
        <ele>1613.500</ele>
        <time>2019-07-14T20:07:50Z</time>
      </trkpt>
      <trkpt lat="35.406830700" lon="-106.639265520">
        <ele>1613.400</ele>
        <time>2019-07-14T20:07:51Z</time>
      </trkpt>
      <trkpt lat="35.407135860" lon="-106.639263870">
        <ele>1613.800</ele>
        <time>2019-07-14T20:07:52Z</time>
      </trkpt>
      <trkpt lat="35.407417030" lon="-106.639265720">
        <ele>1613.600</ele>
        <time>2019-07-14T20:07:53Z</time>
      </trkpt>
      <trkpt lat="35.407713340" lon="-106.639258440">
        <ele>1614.100</ele>
        <time>2019-07-14T20:07:54Z</time>
      </trkpt>
      <trkpt lat="35.408012770" lon="-106.639258400">
        <ele>1614.600</ele>
        <time>2019-07-14T20:07:55Z</time>
      </trkpt>
      <trkpt lat="35.408304620" lon="-106.639261530">
        <ele>1614.800</ele>
        <time>2019-07-14T20:07:56Z</time>
      </trkpt>
      <trkpt lat="35.408594160" lon="-106.639265640">
        <ele>1615.300</ele>
        <time>2019-07-14T20:07:57Z</time>
      </trkpt>
      <trkpt lat="35.408891590" lon="-106.639262040">
        <ele>1615.200</ele>
        <time>2019-07-14T20:07:58Z</time>
      </trkpt>
      <trkpt lat="35.409187300" lon="-106.639280050">
        <ele>1615.600</ele>
        <time>2019-07-14T20:07:59Z</time>
      </trkpt>
      <trkpt lat="35.409477230" lon="-106.639308670">
        <ele>1616.200</ele>
        <time>2019-07-14T20:08:00Z</time>
      </trkpt>
      <trkpt lat="35.409774360" lon="-106.639347940">
        <ele>1616.600</ele>
        <time>2019-07-14T20:08:01Z</time>
      </trkpt>
      <trkpt lat="35.410065610" lon="-106.639392950">
        <ele>1617.400</ele>
        <time>2019-07-14T20:08:02Z</time>
      </trkpt>
      <trkpt lat="35.410365150" lon="-106.639439000">
        <ele>1617.900</ele>
        <time>2019-07-14T20:08:03Z</time>
      </trkpt>
      <trkpt lat="35.410651350" lon="-106.639515730">
        <ele>1618.100</ele>
        <time>2019-07-14T20:08:04Z</time>
      </trkpt>
      <trkpt lat="35.410929340" lon="-106.639584540">
        <ele>1618.700</ele>
        <time>2019-07-14T20:08:05Z</time>
      </trkpt>
      <trkpt lat="35.411216420" lon="-106.639661480">
        <ele>1618.500</ele>
        <time>2019-07-14T20:08:06Z</time>
      </trkpt>
      <trkpt lat="35.411496050" lon="-106.639745780">
        <ele>1618.600</ele>
        <time>2019-07-14T20:08:07Z</time>
      </trkpt>
      <trkpt lat="35.411784630" lon="-106.639838830">
        <ele>1618.400</ele>
        <time>2019-07-14T20:08:08Z</time>
      </trkpt>
      <trkpt lat="35.412058500" lon="-106.639938910">
        <ele>1617.900</ele>
        <time>2019-07-14T20:08:09Z</time>
      </trkpt>
      <trkpt lat="35.412323100" lon="-106.640058680">
        <ele>1617.500</ele>
        <time>2019-07-14T20:08:10Z</time>
      </trkpt>
      <trkpt lat="35.412601070" lon="-106.640177410">
        <ele>1617.200</ele>
        <time>2019-07-14T20:08:11Z</time>
      </trkpt>
      <trkpt lat="35.412890850" lon="-106.640308250">
        <ele>1617.500</ele>
        <time>2019-07-14T20:08:12Z</time>
      </trkpt>
      <trkpt lat="35.413155920" lon="-106.640441180">
        <ele>1616.500</ele>
        <time>2019-07-14T20:08:13Z</time>
      </trkpt>
      <trkpt lat="35.413431140" lon="-106.640584320">
        <ele>1617.000</ele>
        <time>2019-07-14T20:08:14Z</time>
      </trkpt>
      <trkpt lat="35.413710820" lon="-106.640731020">
        <ele>1616.700</ele>
        <time>2019-07-14T20:08:15Z</time>
      </trkpt>
      <trkpt lat="35.413976510" lon="-106.640888880">
        <ele>1616.800</ele>
        <time>2019-07-14T20:08:16Z</time>
      </trkpt>
      <trkpt lat="35.414237030" lon="-106.641053830">
        <ele>1617.300</ele>
        <time>2019-07-14T20:08:17Z</time>
      </trkpt>
      <trkpt lat="35.414501930" lon="-106.641223770">
        <ele>1617.200</ele>
        <time>2019-07-14T20:08:18Z</time>
      </trkpt>
      <trkpt lat="35.414759800" lon="-106.641407660">
        <ele>1616.900</ele>
        <time>2019-07-14T20:08:19Z</time>
      </trkpt>
      <trkpt lat="35.415006860" lon="-106.641595810">
        <ele>1616.300</ele>
        <time>2019-07-14T20:08:20Z</time>
      </trkpt>
      <trkpt lat="35.415262270" lon="-106.641781270">
        <ele>1617.300</ele>
        <time>2019-07-14T20:08:21Z</time>
      </trkpt>
      <trkpt lat="35.415514540" lon="-106.641976280">
        <ele>1616.400</ele>
        <time>2019-07-14T20:08:22Z</time>
      </trkpt>
      <trkpt lat="35.415760910" lon="-106.642169200">
        <ele>1616.500</ele>
        <time>2019-07-14T20:08:23Z</time>
      </trkpt>
      <trkpt lat="35.416014680" lon="-106.642361920">
        <ele>1616.400</ele>
        <time>2019-07-14T20:08:24Z</time>
      </trkpt>
      <trkpt lat="35.416263630" lon="-106.642552830">
        <ele>1616.500</ele>
        <time>2019-07-14T20:08:25Z</time>
      </trkpt>
      <trkpt lat="35.416505840" lon="-106.642738470">
        <ele>1616.700</ele>
        <time>2019-07-14T20:08:26Z</time>
      </trkpt>
      <trkpt lat="35.416758560" lon="-106.642922370">
        <ele>1640.500</ele>
        <time>2019-07-14T20:08:27Z</time>
      </trkpt>
      <trkpt lat="35.417003650" lon="-106.643111530">
        <ele>1634.200</ele>
        <time>2019-07-14T20:08:28Z</time>
      </trkpt>
      <trkpt lat="35.417259540" lon="-106.643290100">
        <ele>1631.300</ele>
        <time>2019-07-14T20:08:29Z</time>
      </trkpt>
      <trkpt lat="35.417501500" lon="-106.643483110">
        <ele>1628.500</ele>
        <time>2019-07-14T20:08:30Z</time>
      </trkpt>
      <trkpt lat="35.417711050" lon="-106.643691050">
        <ele>1622.500</ele>
        <time>2019-07-14T20:08:31Z</time>
      </trkpt>
      <trkpt lat="35.417966180" lon="-106.643874310">
        <ele>1621.300</ele>
        <time>2019-07-14T20:08:32Z</time>
      </trkpt>
      <trkpt lat="35.418214550" lon="-106.644060370">
        <ele>1620.500</ele>
        <time>2019-07-14T20:08:33Z</time>
      </trkpt>
      <trkpt lat="35.418474410" lon="-106.644245160">
        <ele>1619.900</ele>
        <time>2019-07-14T20:08:34Z</time>
      </trkpt>
      <trkpt lat="35.418727770" lon="-106.644430600">
        <ele>1614.400</ele>
        <time>2019-07-14T20:08:35Z</time>
      </trkpt>
      <trkpt lat="35.418979970" lon="-106.644619720">
        <ele>1614.400</ele>
        <time>2019-07-14T20:08:36Z</time>
      </trkpt>
      <trkpt lat="35.419248140" lon="-106.644787660">
        <ele>1614.400</ele>
        <time>2019-07-14T20:08:37Z</time>
      </trkpt>
      <trkpt lat="35.419501590" lon="-106.644973200">
        <ele>1614.500</ele>
        <time>2019-07-14T20:08:38Z</time>
      </trkpt>
      <trkpt lat="35.419740450" lon="-106.645167810">
        <ele>1614.500</ele>
        <time>2019-07-14T20:08:39Z</time>
      </trkpt>
      <trkpt lat="35.419994170" lon="-106.645362660">
        <ele>1614.400</ele>
        <time>2019-07-14T20:08:40Z</time>
      </trkpt>
      <trkpt lat="35.420248160" lon="-106.645546250">
        <ele>1614.500</ele>
        <time>2019-07-14T20:08:41Z</time>
      </trkpt>
      <trkpt lat="35.420510680" lon="-106.645724490">
        <ele>1614.700</ele>
        <time>2019-07-14T20:08:42Z</time>
      </trkpt>
      <trkpt lat="35.420766930" lon="-106.645906920">
        <ele>1614.900</ele>
        <time>2019-07-14T20:08:43Z</time>
      </trkpt>
      <trkpt lat="35.421026510" lon="-106.646094040">
        <ele>1614.900</ele>
        <time>2019-07-14T20:08:44Z</time>
      </trkpt>
      <trkpt lat="35.421271890" lon="-106.646289240">
        <ele>1614.900</ele>
        <time>2019-07-14T20:08:45Z</time>
      </trkpt>
      <trkpt lat="35.421527310" lon="-106.646478490">
        <ele>1621.700</ele>
        <time>2019-07-14T20:08:46Z</time>
      </trkpt>
      <trkpt lat="35.421769930" lon="-106.646670300">
        <ele>1620.200</ele>
        <time>2019-07-14T20:08:47Z</time>
      </trkpt>
      <trkpt lat="35.422026850" lon="-106.646855530">
        <ele>1618.700</ele>
        <time>2019-07-14T20:08:48Z</time>
      </trkpt>
      <trkpt lat="35.422280450" lon="-106.647039470">
        <ele>1618.000</ele>
        <time>2019-07-14T20:08:49Z</time>
      </trkpt>
      <trkpt lat="35.422529380" lon="-106.647223310">
        <ele>1617.400</ele>
        <time>2019-07-14T20:08:50Z</time>
      </trkpt>
      <trkpt lat="35.422773030" lon="-106.647409890">
        <ele>1617.500</ele>
        <time>2019-07-14T20:08:51Z</time>
      </trkpt>
      <trkpt lat="35.423030020" lon="-106.647597480">
        <ele>1616.900</ele>
        <time>2019-07-14T20:08:52Z</time>
      </trkpt>
      <trkpt lat="35.423274930" lon="-106.647796590">
        <ele>1616.600</ele>
        <time>2019-07-14T20:08:53Z</time>
      </trkpt>
      <trkpt lat="35.423537820" lon="-106.647973640">
        <ele>1616.700</ele>
        <time>2019-07-14T20:08:54Z</time>
      </trkpt>
      <trkpt lat="35.423792000" lon="-106.648164340">
        <ele>1616.800</ele>
        <time>2019-07-14T20:08:55Z</time>
      </trkpt>
      <trkpt lat="35.424032840" lon="-106.648364510">
        <ele>1617.800</ele>
        <time>2019-07-14T20:08:56Z</time>
      </trkpt>
      <trkpt lat="35.424289180" lon="-106.648557020">
        <ele>1618.900</ele>
        <time>2019-07-14T20:08:57Z</time>
      </trkpt>
      <trkpt lat="35.424537970" lon="-106.648738950">
        <ele>1617.800</ele>
        <time>2019-07-14T20:08:58Z</time>
      </trkpt>
      <trkpt lat="35.424796060" lon="-106.648919220">
        <ele>1617.600</ele>
        <time>2019-07-14T20:08:59Z</time>
      </trkpt>
      <trkpt lat="35.425049720" lon="-106.649108110">
        <ele>1617.200</ele>
        <time>2019-07-14T20:09:00Z</time>
      </trkpt>
      <trkpt lat="35.425294280" lon="-106.649299140">
        <ele>1620.300</ele>
        <time>2019-07-14T20:09:01Z</time>
      </trkpt>
      <trkpt lat="35.425551960" lon="-106.649484860">
        <ele>1620.000</ele>
        <time>2019-07-14T20:09:02Z</time>
      </trkpt>
      <trkpt lat="35.425810780" lon="-106.649669180">
        <ele>1619.400</ele>
        <time>2019-07-14T20:09:03Z</time>
      </trkpt>
      <trkpt lat="35.426067560" lon="-106.649855530">
        <ele>1619.000</ele>
        <time>2019-07-14T20:09:04Z</time>
      </trkpt>
      <trkpt lat="35.426345330" lon="-106.650035770">
        <ele>1622.000</ele>
        <time>2019-07-14T20:09:05Z</time>
      </trkpt>
      <trkpt lat="35.426593770" lon="-106.650215580">
        <ele>1620.400</ele>
        <time>2019-07-14T20:09:06Z</time>
      </trkpt>
      <trkpt lat="35.426838690" lon="-106.650402680">
        <ele>1619.500</ele>
        <time>2019-07-14T20:09:07Z</time>
      </trkpt>
      <trkpt lat="35.427086010" lon="-106.650594530">
        <ele>1617.000</ele>
        <time>2019-07-14T20:09:08Z</time>
      </trkpt>
      <trkpt lat="35.427333650" lon="-106.650778370">
        <ele>1617.000</ele>
        <time>2019-07-14T20:09:09Z</time>
      </trkpt>
      <trkpt lat="35.427580750" lon="-106.650975460">
        <ele>1615.800</ele>
        <time>2019-07-14T20:09:10Z</time>
      </trkpt>
      <trkpt lat="35.427834710" lon="-106.651155500">
        <ele>1616.100</ele>
        <time>2019-07-14T20:09:11Z</time>
      </trkpt>
      <trkpt lat="35.428088140" lon="-106.651339790">
        <ele>1615.700</ele>
        <time>2019-07-14T20:09:12Z</time>
      </trkpt>
      <trkpt lat="35.428339290" lon="-106.651528910">
        <ele>1615.500</ele>
        <time>2019-07-14T20:09:13Z</time>
      </trkpt>
      <trkpt lat="35.428585740" lon="-106.651725680">
        <ele>1615.400</ele>
        <time>2019-07-14T20:09:14Z</time>
      </trkpt>
      <trkpt lat="35.428834620" lon="-106.651912150">
        <ele>1615.300</ele>
        <time>2019-07-14T20:09:15Z</time>
      </trkpt>
      <trkpt lat="35.429082660" lon="-106.652102420">
        <ele>1615.600</ele>
        <time>2019-07-14T20:09:16Z</time>
      </trkpt>
      <trkpt lat="35.429335840" lon="-106.652288170">
        <ele>1615.600</ele>
        <time>2019-07-14T20:09:17Z</time>
      </trkpt>
      <trkpt lat="35.429589680" lon="-106.652465970">
        <ele>1615.100</ele>
        <time>2019-07-14T20:09:18Z</time>
      </trkpt>
      <trkpt lat="35.429836030" lon="-106.652674100">
        <ele>1618.200</ele>
        <time>2019-07-14T20:09:19Z</time>
      </trkpt>
      <trkpt lat="35.430093040" lon="-106.652863040">
        <ele>1619.500</ele>
        <time>2019-07-14T20:09:20Z</time>
      </trkpt>
      <trkpt lat="35.430319450" lon="-106.653062850">
        <ele>1618.100</ele>
        <time>2019-07-14T20:09:21Z</time>
      </trkpt>
      <trkpt lat="35.430575940" lon="-106.653234700">
        <ele>1616.500</ele>
        <time>2019-07-14T20:09:22Z</time>
      </trkpt>
      <trkpt lat="35.430829630" lon="-106.653422680">
        <ele>1616.300</ele>
        <time>2019-07-14T20:09:23Z</time>
      </trkpt>
      <trkpt lat="35.431077170" lon="-106.653612630">
        <ele>1616.100</ele>
        <time>2019-07-14T20:09:24Z</time>
      </trkpt>
      <trkpt lat="35.431327920" lon="-106.653799450">
        <ele>1616.300</ele>
        <time>2019-07-14T20:09:25Z</time>
      </trkpt>
      <trkpt lat="35.431580790" lon="-106.653988730">
        <ele>1615.700</ele>
        <time>2019-07-14T20:09:26Z</time>
      </trkpt>
      <trkpt lat="35.431832610" lon="-106.654180080">
        <ele>1615.500</ele>
        <time>2019-07-14T20:09:27Z</time>
      </trkpt>
      <trkpt lat="35.432089770" lon="-106.654374340">
        <ele>1616.800</ele>
        <time>2019-07-14T20:09:28Z</time>
      </trkpt>
      <trkpt lat="35.432339420" lon="-106.654559620">
        <ele>1616.500</ele>
        <time>2019-07-14T20:09:29Z</time>
      </trkpt>
      <trkpt lat="35.432589760" lon="-106.654748840">
        <ele>1616.700</ele>
        <time>2019-07-14T20:09:30Z</time>
      </trkpt>
      <trkpt lat="35.432838610" lon="-106.654941340">
        <ele>1615.800</ele>
        <time>2019-07-14T20:09:31Z</time>
      </trkpt>
      <trkpt lat="35.433092520" lon="-106.655137470">
        <ele>1616.000</ele>
        <time>2019-07-14T20:09:32Z</time>
      </trkpt>
      <trkpt lat="35.433335250" lon="-106.655337560">
        <ele>1615.400</ele>
        <time>2019-07-14T20:09:33Z</time>
      </trkpt>
      <trkpt lat="35.433579300" lon="-106.655540440">
        <ele>1616.300</ele>
        <time>2019-07-14T20:09:34Z</time>
      </trkpt>
      <trkpt lat="35.433819900" lon="-106.655742100">
        <ele>1615.100</ele>
        <time>2019-07-14T20:09:35Z</time>
      </trkpt>
      <trkpt lat="35.434059200" lon="-106.655949170">
        <ele>1615.200</ele>
        <time>2019-07-14T20:09:36Z</time>
      </trkpt>
      <trkpt lat="35.434299720" lon="-106.656158640">
        <ele>1615.300</ele>
        <time>2019-07-14T20:09:37Z</time>
      </trkpt>
      <trkpt lat="35.434540750" lon="-106.656368480">
        <ele>1615.700</ele>
        <time>2019-07-14T20:09:38Z</time>
      </trkpt>
      <trkpt lat="35.434775240" lon="-106.656589760">
        <ele>1615.700</ele>
        <time>2019-07-14T20:09:39Z</time>
      </trkpt>
      <trkpt lat="35.435016190" lon="-106.656808540">
        <ele>1615.800</ele>
        <time>2019-07-14T20:09:40Z</time>
      </trkpt>
      <trkpt lat="35.435244400" lon="-106.657028170">
        <ele>1615.400</ele>
        <time>2019-07-14T20:09:41Z</time>
      </trkpt>
      <trkpt lat="35.435478950" lon="-106.657249070">
        <ele>1615.600</ele>
        <time>2019-07-14T20:09:42Z</time>
      </trkpt>
      <trkpt lat="35.435715070" lon="-106.657465980">
        <ele>1615.700</ele>
        <time>2019-07-14T20:09:43Z</time>
      </trkpt>
      <trkpt lat="35.435942040" lon="-106.657691820">
        <ele>1615.700</ele>
        <time>2019-07-14T20:09:44Z</time>
      </trkpt>
      <trkpt lat="35.436172480" lon="-106.657912740">
        <ele>1615.700</ele>
        <time>2019-07-14T20:09:45Z</time>
      </trkpt>
      <trkpt lat="35.436403180" lon="-106.658134910">
        <ele>1616.500</ele>
        <time>2019-07-14T20:09:46Z</time>
      </trkpt>
      <trkpt lat="35.436636250" lon="-106.658355050">
        <ele>1616.200</ele>
        <time>2019-07-14T20:09:47Z</time>
      </trkpt>
      <trkpt lat="35.436868590" lon="-106.658568810">
        <ele>1615.300</ele>
        <time>2019-07-14T20:09:48Z</time>
      </trkpt>
      <trkpt lat="35.437107090" lon="-106.658784030">
        <ele>1615.400</ele>
        <time>2019-07-14T20:09:49Z</time>
      </trkpt>
      <trkpt lat="35.437344010" lon="-106.658997700">
        <ele>1615.600</ele>
        <time>2019-07-14T20:09:50Z</time>
      </trkpt>
      <trkpt lat="35.437584370" lon="-106.659201610">
        <ele>1616.200</ele>
        <time>2019-07-14T20:09:51Z</time>
      </trkpt>
      <trkpt lat="35.437821670" lon="-106.659415860">
        <ele>1615.900</ele>
        <time>2019-07-14T20:09:52Z</time>
      </trkpt>
      <trkpt lat="35.438059170" lon="-106.659632050">
        <ele>1615.500</ele>
        <time>2019-07-14T20:09:53Z</time>
      </trkpt>
      <trkpt lat="35.438295830" lon="-106.659850410">
        <ele>1616.200</ele>
        <time>2019-07-14T20:09:54Z</time>
      </trkpt>
      <trkpt lat="35.438526520" lon="-106.660066810">
        <ele>1615.300</ele>
        <time>2019-07-14T20:09:55Z</time>
      </trkpt>
      <trkpt lat="35.438759340" lon="-106.660286210">
        <ele>1615.300</ele>
        <time>2019-07-14T20:09:56Z</time>
      </trkpt>
      <trkpt lat="35.438979780" lon="-106.660511830">
        <ele>1614.000</ele>
        <time>2019-07-14T20:09:57Z</time>
      </trkpt>
      <trkpt lat="35.439196980" lon="-106.660727090">
        <ele>1611.500</ele>
        <time>2019-07-14T20:09:58Z</time>
      </trkpt>
      <trkpt lat="35.439431640" lon="-106.660940690">
        <ele>1611.900</ele>
        <time>2019-07-14T20:09:59Z</time>
      </trkpt>
      <trkpt lat="35.439662260" lon="-106.661163120">
        <ele>1611.800</ele>
        <time>2019-07-14T20:10:00Z</time>
      </trkpt>
      <trkpt lat="35.439884070" lon="-106.661382360">
        <ele>1611.600</ele>
        <time>2019-07-14T20:10:01Z</time>
      </trkpt>
      <trkpt lat="35.440119920" lon="-106.661598240">
        <ele>1611.400</ele>
        <time>2019-07-14T20:10:02Z</time>
      </trkpt>
      <trkpt lat="35.440356610" lon="-106.661815050">
        <ele>1611.800</ele>
        <time>2019-07-14T20:10:03Z</time>
      </trkpt>
      <trkpt lat="35.440589870" lon="-106.662035260">
        <ele>1612.200</ele>
        <time>2019-07-14T20:10:04Z</time>
      </trkpt>
      <trkpt lat="35.440824130" lon="-106.662253330">
        <ele>1612.400</ele>
        <time>2019-07-14T20:10:05Z</time>
      </trkpt>
      <trkpt lat="35.441075750" lon="-106.662473210">
        <ele>1614.000</ele>
        <time>2019-07-14T20:10:06Z</time>
      </trkpt>
      <trkpt lat="35.441287210" lon="-106.662706110">
        <ele>1611.700</ele>
        <time>2019-07-14T20:10:07Z</time>
      </trkpt>
      <trkpt lat="35.441522390" lon="-106.662924510">
        <ele>1611.900</ele>
        <time>2019-07-14T20:10:08Z</time>
      </trkpt>
      <trkpt lat="35.441759730" lon="-106.663144440">
        <ele>1612.400</ele>
        <time>2019-07-14T20:10:09Z</time>
      </trkpt>
      <trkpt lat="35.441991360" lon="-106.663367420">
        <ele>1612.900</ele>
        <time>2019-07-14T20:10:10Z</time>
      </trkpt>
      <trkpt lat="35.442227490" lon="-106.663589300">
        <ele>1613.400</ele>
        <time>2019-07-14T20:10:11Z</time>
      </trkpt>
      <trkpt lat="35.442461050" lon="-106.663805870">
        <ele>1613.700</ele>
        <time>2019-07-14T20:10:12Z</time>
      </trkpt>
      <trkpt lat="35.442691380" lon="-106.664028410">
        <ele>1612.800</ele>
        <time>2019-07-14T20:10:13Z</time>
      </trkpt>
      <trkpt lat="35.442922840" lon="-106.664247590">
        <ele>1612.800</ele>
        <time>2019-07-14T20:10:14Z</time>
      </trkpt>
      <trkpt lat="35.443153410" lon="-106.664461070">
        <ele>1612.800</ele>
        <time>2019-07-14T20:10:15Z</time>
      </trkpt>
      <trkpt lat="35.443387110" lon="-106.664678530">
        <ele>1612.600</ele>
        <time>2019-07-14T20:10:16Z</time>
      </trkpt>
      <trkpt lat="35.443624850" lon="-106.664894830">
        <ele>1612.900</ele>
        <time>2019-07-14T20:10:17Z</time>
      </trkpt>
      <trkpt lat="35.443866210" lon="-106.665111880">
        <ele>1613.400</ele>
        <time>2019-07-14T20:10:18Z</time>
      </trkpt>
      <trkpt lat="35.444108130" lon="-106.665322650">
        <ele>1613.900</ele>
        <time>2019-07-14T20:10:19Z</time>
      </trkpt>
      <trkpt lat="35.444343180" lon="-106.665546500">
        <ele>1614.000</ele>
        <time>2019-07-14T20:10:20Z</time>
      </trkpt>
      <trkpt lat="35.444571830" lon="-106.665771290">
        <ele>1612.600</ele>
        <time>2019-07-14T20:10:21Z</time>
      </trkpt>
      <trkpt lat="35.444796100" lon="-106.665998670">
        <ele>1609.700</ele>
        <time>2019-07-14T20:10:22Z</time>
      </trkpt>
      <trkpt lat="35.445031980" lon="-106.666217160">
        <ele>1609.700</ele>
        <time>2019-07-14T20:10:23Z</time>
      </trkpt>
      <trkpt lat="35.445270540" lon="-106.666436180">
        <ele>1610.200</ele>
        <time>2019-07-14T20:10:24Z</time>
      </trkpt>
      <trkpt lat="35.445505630" lon="-106.666655140">
        <ele>1610.000</ele>
        <time>2019-07-14T20:10:25Z</time>
      </trkpt>
      <trkpt lat="35.445741390" lon="-106.666868230">
        <ele>1609.500</ele>
        <time>2019-07-14T20:10:26Z</time>
      </trkpt>
      <trkpt lat="35.445977910" lon="-106.667088680">
        <ele>1610.000</ele>
        <time>2019-07-14T20:10:27Z</time>
      </trkpt>
      <trkpt lat="35.446207890" lon="-106.667304720">
        <ele>1609.200</ele>
        <time>2019-07-14T20:10:28Z</time>
      </trkpt>
      <trkpt lat="35.446441590" lon="-106.667527610">
        <ele>1609.200</ele>
        <time>2019-07-14T20:10:29Z</time>
      </trkpt>
      <trkpt lat="35.446668050" lon="-106.667750770">
        <ele>1608.800</ele>
        <time>2019-07-14T20:10:30Z</time>
      </trkpt>
      <trkpt lat="35.446906770" lon="-106.667965910">
        <ele>1609.200</ele>
        <time>2019-07-14T20:10:31Z</time>
      </trkpt>
      <trkpt lat="35.447143930" lon="-106.668184490">
        <ele>1609.000</ele>
        <time>2019-07-14T20:10:32Z</time>
      </trkpt>
      <trkpt lat="35.447373730" lon="-106.668403430">
        <ele>1608.600</ele>
        <time>2019-07-14T20:10:33Z</time>
      </trkpt>
      <trkpt lat="35.447610140" lon="-106.668616390">
        <ele>1609.000</ele>
        <time>2019-07-14T20:10:34Z</time>
      </trkpt>
      <trkpt lat="35.447839650" lon="-106.668834310">
        <ele>1608.200</ele>
        <time>2019-07-14T20:10:35Z</time>
      </trkpt>
      <trkpt lat="35.448075130" lon="-106.669061040">
        <ele>1607.800</ele>
        <time>2019-07-14T20:10:36Z</time>
      </trkpt>
      <trkpt lat="35.448308370" lon="-106.669275660">
        <ele>1608.100</ele>
        <time>2019-07-14T20:10:37Z</time>
      </trkpt>
      <trkpt lat="35.448542000" lon="-106.669490640">
        <ele>1608.200</ele>
        <time>2019-07-14T20:10:38Z</time>
      </trkpt>
      <trkpt lat="35.448774420" lon="-106.669710290">
        <ele>1608.700</ele>
        <time>2019-07-14T20:10:39Z</time>
      </trkpt>
      <trkpt lat="35.449010320" lon="-106.669925990">
        <ele>1609.100</ele>
        <time>2019-07-14T20:10:40Z</time>
      </trkpt>
      <trkpt lat="35.449245120" lon="-106.670138680">
        <ele>1609.400</ele>
        <time>2019-07-14T20:10:41Z</time>
      </trkpt>
      <trkpt lat="35.449476070" lon="-106.670354600">
        <ele>1609.600</ele>
        <time>2019-07-14T20:10:42Z</time>
      </trkpt>
      <trkpt lat="35.449709820" lon="-106.670568000">
        <ele>1610.400</ele>
        <time>2019-07-14T20:10:43Z</time>
      </trkpt>
      <trkpt lat="35.449949270" lon="-106.670784330">
        <ele>1612.400</ele>
        <time>2019-07-14T20:10:44Z</time>
      </trkpt>
      <trkpt lat="35.450180830" lon="-106.671007140">
        <ele>1613.100</ele>
        <time>2019-07-14T20:10:45Z</time>
      </trkpt>
      <trkpt lat="35.450404960" lon="-106.671230740">
        <ele>1612.400</ele>
        <time>2019-07-14T20:10:46Z</time>
      </trkpt>
      <trkpt lat="35.450636780" lon="-106.671445660">
        <ele>1612.800</ele>
        <time>2019-07-14T20:10:47Z</time>
      </trkpt>
      <trkpt lat="35.450865800" lon="-106.671666170">
        <ele>1612.900</ele>
        <time>2019-07-14T20:10:48Z</time>
      </trkpt>
      <trkpt lat="35.451096140" lon="-106.671885240">
        <ele>1613.500</ele>
        <time>2019-07-14T20:10:49Z</time>
      </trkpt>
      <trkpt lat="35.451336880" lon="-106.672096800">
        <ele>1614.200</ele>
        <time>2019-07-14T20:10:50Z</time>
      </trkpt>
      <trkpt lat="35.451572980" lon="-106.672317120">
        <ele>1615.400</ele>
        <time>2019-07-14T20:10:51Z</time>
      </trkpt>
      <trkpt lat="35.451805450" lon="-106.672531620">
        <ele>1615.700</ele>
        <time>2019-07-14T20:10:52Z</time>
      </trkpt>
      <trkpt lat="35.452044190" lon="-106.672750680">
        <ele>1616.400</ele>
        <time>2019-07-14T20:10:53Z</time>
      </trkpt>
      <trkpt lat="35.452284200" lon="-106.672967020">
        <ele>1617.100</ele>
        <time>2019-07-14T20:10:54Z</time>
      </trkpt>
      <trkpt lat="35.452516290" lon="-106.673186670">
        <ele>1617.700</ele>
        <time>2019-07-14T20:10:55Z</time>
      </trkpt>
      <trkpt lat="35.452749390" lon="-106.673404450">
        <ele>1618.200</ele>
        <time>2019-07-14T20:10:56Z</time>
      </trkpt>
      <trkpt lat="35.452975820" lon="-106.673625520">
        <ele>1618.200</ele>
        <time>2019-07-14T20:10:57Z</time>
      </trkpt>
      <trkpt lat="35.453208680" lon="-106.673844080">
        <ele>1618.500</ele>
        <time>2019-07-14T20:10:58Z</time>
      </trkpt>
      <trkpt lat="35.453433200" lon="-106.674071570">
        <ele>1618.700</ele>
        <time>2019-07-14T20:10:59Z</time>
      </trkpt>
      <trkpt lat="35.453666460" lon="-106.674290060">
        <ele>1618.500</ele>
        <time>2019-07-14T20:11:00Z</time>
      </trkpt>
      <trkpt lat="35.453896760" lon="-106.674512060">
        <ele>1618.600</ele>
        <time>2019-07-14T20:11:01Z</time>
      </trkpt>
      <trkpt lat="35.454129100" lon="-106.674732280">
        <ele>1618.400</ele>
        <time>2019-07-14T20:11:02Z</time>
      </trkpt>
      <trkpt lat="35.454365330" lon="-106.674943630">
        <ele>1619.100</ele>
        <time>2019-07-14T20:11:03Z</time>
      </trkpt>
      <trkpt lat="35.454596620" lon="-106.675163180">
        <ele>1620.200</ele>
        <time>2019-07-14T20:11:04Z</time>
      </trkpt>
      <trkpt lat="35.454835910" lon="-106.675378150">
        <ele>1620.400</ele>
        <time>2019-07-14T20:11:05Z</time>
      </trkpt>
      <trkpt lat="35.455075950" lon="-106.675597790">
        <ele>1621.100</ele>
        <time>2019-07-14T20:11:06Z</time>
      </trkpt>
      <trkpt lat="35.455318130" lon="-106.675810470">
        <ele>1622.000</ele>
        <time>2019-07-14T20:11:07Z</time>
      </trkpt>
      <trkpt lat="35.455556510" lon="-106.676027450">
        <ele>1622.600</ele>
        <time>2019-07-14T20:11:08Z</time>
      </trkpt>
      <trkpt lat="35.455793970" lon="-106.676247700">
        <ele>1623.700</ele>
        <time>2019-07-14T20:11:09Z</time>
      </trkpt>
      <trkpt lat="35.456023380" lon="-106.676469010">
        <ele>1622.700</ele>
        <time>2019-07-14T20:11:10Z</time>
      </trkpt>
      <trkpt lat="35.456268580" lon="-106.676694330">
        <ele>1622.300</ele>
        <time>2019-07-14T20:11:11Z</time>
      </trkpt>
      <trkpt lat="35.456496590" lon="-106.676909960">
        <ele>1621.900</ele>
        <time>2019-07-14T20:11:12Z</time>
      </trkpt>
      <trkpt lat="35.456726880" lon="-106.677125100">
        <ele>1622.000</ele>
        <time>2019-07-14T20:11:13Z</time>
      </trkpt>
      <trkpt lat="35.456965360" lon="-106.677347610">
        <ele>1621.900</ele>
        <time>2019-07-14T20:11:14Z</time>
      </trkpt>
      <trkpt lat="35.457200390" lon="-106.677560760">
        <ele>1622.100</ele>
        <time>2019-07-14T20:11:15Z</time>
      </trkpt>
      <trkpt lat="35.457425560" lon="-106.677786690">
        <ele>1620.000</ele>
        <time>2019-07-14T20:11:16Z</time>
      </trkpt>
      <trkpt lat="35.457659500" lon="-106.678005930">
        <ele>1620.000</ele>
        <time>2019-07-14T20:11:17Z</time>
      </trkpt>
      <trkpt lat="35.457895780" lon="-106.678224760">
        <ele>1619.700</ele>
        <time>2019-07-14T20:11:18Z</time>
      </trkpt>
      <trkpt lat="35.458127270" lon="-106.678437080">
        <ele>1619.000</ele>
        <time>2019-07-14T20:11:19Z</time>
      </trkpt>
      <trkpt lat="35.458358650" lon="-106.678654930">
        <ele>1618.700</ele>
        <time>2019-07-14T20:11:20Z</time>
      </trkpt>
      <trkpt lat="35.458593190" lon="-106.678871280">
        <ele>1618.400</ele>
        <time>2019-07-14T20:11:21Z</time>
      </trkpt>
      <trkpt lat="35.458830930" lon="-106.679094340">
        <ele>1618.700</ele>
        <time>2019-07-14T20:11:22Z</time>
      </trkpt>
      <trkpt lat="35.459068210" lon="-106.679318730">
        <ele>1619.100</ele>
        <time>2019-07-14T20:11:23Z</time>
      </trkpt>
      <trkpt lat="35.459303880" lon="-106.679532530">
        <ele>1619.100</ele>
        <time>2019-07-14T20:11:24Z</time>
      </trkpt>
      <trkpt lat="35.459538720" lon="-106.679757740">
        <ele>1618.600</ele>
        <time>2019-07-14T20:11:25Z</time>
      </trkpt>
      <trkpt lat="35.459775320" lon="-106.679976520">
        <ele>1618.600</ele>
        <time>2019-07-14T20:11:26Z</time>
      </trkpt>
      <trkpt lat="35.460014880" lon="-106.680194340">
        <ele>1619.100</ele>
        <time>2019-07-14T20:11:27Z</time>
      </trkpt>
      <trkpt lat="35.460247400" lon="-106.680406050">
        <ele>1619.000</ele>
        <time>2019-07-14T20:11:28Z</time>
      </trkpt>
      <trkpt lat="35.460477440" lon="-106.680624080">
        <ele>1618.900</ele>
        <time>2019-07-14T20:11:29Z</time>
      </trkpt>
      <trkpt lat="35.460703320" lon="-106.680833400">
        <ele>1618.600</ele>
        <time>2019-07-14T20:11:30Z</time>
      </trkpt>
      <trkpt lat="35.460949980" lon="-106.681051240">
        <ele>1619.300</ele>
        <time>2019-07-14T20:11:31Z</time>
      </trkpt>
      <trkpt lat="35.461180920" lon="-106.681263880">
        <ele>1620.100</ele>
        <time>2019-07-14T20:11:32Z</time>
      </trkpt>
      <trkpt lat="35.461421230" lon="-106.681481130">
        <ele>1621.000</ele>
        <time>2019-07-14T20:11:33Z</time>
      </trkpt>
      <trkpt lat="35.461647750" lon="-106.681698150">
        <ele>1620.800</ele>
        <time>2019-07-14T20:11:34Z</time>
      </trkpt>
      <trkpt lat="35.461879060" lon="-106.681916290">
        <ele>1620.300</ele>
        <time>2019-07-14T20:11:35Z</time>
      </trkpt>
      <trkpt lat="35.462110750" lon="-106.682135020">
        <ele>1620.300</ele>
        <time>2019-07-14T20:11:36Z</time>
      </trkpt>
      <trkpt lat="35.462347550" lon="-106.682360800">
        <ele>1620.300</ele>
        <time>2019-07-14T20:11:37Z</time>
      </trkpt>
      <trkpt lat="35.462582790" lon="-106.682581400">
        <ele>1620.600</ele>
        <time>2019-07-14T20:11:38Z</time>
      </trkpt>
      <trkpt lat="35.462819600" lon="-106.682803950">
        <ele>1620.800</ele>
        <time>2019-07-14T20:11:39Z</time>
      </trkpt>
      <trkpt lat="35.463054890" lon="-106.683021000">
        <ele>1621.300</ele>
        <time>2019-07-14T20:11:40Z</time>
      </trkpt>
      <trkpt lat="35.463296200" lon="-106.683237580">
        <ele>1622.200</ele>
        <time>2019-07-14T20:11:41Z</time>
      </trkpt>
      <trkpt lat="35.463534310" lon="-106.683458940">
        <ele>1621.800</ele>
        <time>2019-07-14T20:11:42Z</time>
      </trkpt>
      <trkpt lat="35.463766750" lon="-106.683678250">
        <ele>1621.000</ele>
        <time>2019-07-14T20:11:43Z</time>
      </trkpt>
      <trkpt lat="35.464007690" lon="-106.683900850">
        <ele>1622.000</ele>
        <time>2019-07-14T20:11:44Z</time>
      </trkpt>
      <trkpt lat="35.464241440" lon="-106.684121180">
        <ele>1621.900</ele>
        <time>2019-07-14T20:11:45Z</time>
      </trkpt>
      <trkpt lat="35.464482210" lon="-106.684338110">
        <ele>1622.600</ele>
        <time>2019-07-14T20:11:46Z</time>
      </trkpt>
      <trkpt lat="35.464707730" lon="-106.684566120">
        <ele>1620.800</ele>
        <time>2019-07-14T20:11:47Z</time>
      </trkpt>
      <trkpt lat="35.464939850" lon="-106.684783870">
        <ele>1619.800</ele>
        <time>2019-07-14T20:11:48Z</time>
      </trkpt>
      <trkpt lat="35.465170090" lon="-106.685000970">
        <ele>1619.000</ele>
        <time>2019-07-14T20:11:49Z</time>
      </trkpt>
      <trkpt lat="35.465404540" lon="-106.685217090">
        <ele>1618.800</ele>
        <time>2019-07-14T20:11:50Z</time>
      </trkpt>
      <trkpt lat="35.465637390" lon="-106.685432840">
        <ele>1618.000</ele>
        <time>2019-07-14T20:11:51Z</time>
      </trkpt>
      <trkpt lat="35.465867350" lon="-106.685651780">
        <ele>1617.800</ele>
        <time>2019-07-14T20:11:52Z</time>
      </trkpt>
      <trkpt lat="35.466104170" lon="-106.685868790">
        <ele>1617.900</ele>
        <time>2019-07-14T20:11:53Z</time>
      </trkpt>
      <trkpt lat="35.466340240" lon="-106.686083110">
        <ele>1617.700</ele>
        <time>2019-07-14T20:11:54Z</time>
      </trkpt>
      <trkpt lat="35.466575840" lon="-106.686302180">
        <ele>1617.600</ele>
        <time>2019-07-14T20:11:55Z</time>
      </trkpt>
      <trkpt lat="35.466811230" lon="-106.686515620">
        <ele>1617.600</ele>
        <time>2019-07-14T20:11:56Z</time>
      </trkpt>
      <trkpt lat="35.467045090" lon="-106.686737010">
        <ele>1617.800</ele>
        <time>2019-07-14T20:11:57Z</time>
      </trkpt>
      <trkpt lat="35.467276300" lon="-106.686951920">
        <ele>1618.100</ele>
        <time>2019-07-14T20:11:58Z</time>
      </trkpt>
      <trkpt lat="35.467510350" lon="-106.687167980">
        <ele>1618.000</ele>
        <time>2019-07-14T20:11:59Z</time>
      </trkpt>
      <trkpt lat="35.467740210" lon="-106.687389200">
        <ele>1617.600</ele>
        <time>2019-07-14T20:12:00Z</time>
      </trkpt>
      <trkpt lat="35.467975760" lon="-106.687606260">
        <ele>1617.800</ele>
        <time>2019-07-14T20:12:01Z</time>
      </trkpt>
      <trkpt lat="35.468204750" lon="-106.687823130">
        <ele>1617.500</ele>
        <time>2019-07-14T20:12:02Z</time>
      </trkpt>
      <trkpt lat="35.468432690" lon="-106.688038270">
        <ele>1617.800</ele>
        <time>2019-07-14T20:12:03Z</time>
      </trkpt>
      <trkpt lat="35.468664980" lon="-106.688262630">
        <ele>1618.100</ele>
        <time>2019-07-14T20:12:04Z</time>
      </trkpt>
      <trkpt lat="35.468899680" lon="-106.688486630">
        <ele>1617.300</ele>
        <time>2019-07-14T20:12:05Z</time>
      </trkpt>
      <trkpt lat="35.469140990" lon="-106.688708330">
        <ele>1618.200</ele>
        <time>2019-07-14T20:12:06Z</time>
      </trkpt>
      <trkpt lat="35.469376780" lon="-106.688925850">
        <ele>1618.600</ele>
        <time>2019-07-14T20:12:07Z</time>
      </trkpt>
      <trkpt lat="35.469615590" lon="-106.689143230">
        <ele>1619.500</ele>
        <time>2019-07-14T20:12:08Z</time>
      </trkpt>
      <trkpt lat="35.469847790" lon="-106.689363140">
        <ele>1619.000</ele>
        <time>2019-07-14T20:12:09Z</time>
      </trkpt>
      <trkpt lat="35.470078090" lon="-106.689575610">
        <ele>1619.200</ele>
        <time>2019-07-14T20:12:10Z</time>
      </trkpt>
      <trkpt lat="35.470315620" lon="-106.689790230">
        <ele>1619.400</ele>
        <time>2019-07-14T20:12:11Z</time>
      </trkpt>
      <trkpt lat="35.470551400" lon="-106.690004460">
        <ele>1620.500</ele>
        <time>2019-07-14T20:12:12Z</time>
      </trkpt>
      <trkpt lat="35.470781370" lon="-106.690220750">
        <ele>1621.100</ele>
        <time>2019-07-14T20:12:13Z</time>
      </trkpt>
      <trkpt lat="35.471015420" lon="-106.690438450">
        <ele>1621.800</ele>
        <time>2019-07-14T20:12:14Z</time>
      </trkpt>
      <trkpt lat="35.471250310" lon="-106.690657340">
        <ele>1621.800</ele>
        <time>2019-07-14T20:12:15Z</time>
      </trkpt>
      <trkpt lat="35.471483770" lon="-106.690874560">
        <ele>1622.400</ele>
        <time>2019-07-14T20:12:16Z</time>
      </trkpt>
      <trkpt lat="35.471714570" lon="-106.691092650">
        <ele>1622.500</ele>
        <time>2019-07-14T20:12:17Z</time>
      </trkpt>
      <trkpt lat="35.471947530" lon="-106.691310010">
        <ele>1622.700</ele>
        <time>2019-07-14T20:12:18Z</time>
      </trkpt>
      <trkpt lat="35.472179290" lon="-106.691532130">
        <ele>1622.500</ele>
        <time>2019-07-14T20:12:19Z</time>
      </trkpt>
      <trkpt lat="35.472411620" lon="-106.691755280">
        <ele>1622.200</ele>
        <time>2019-07-14T20:12:20Z</time>
      </trkpt>
      <trkpt lat="35.472645220" lon="-106.691970090">
        <ele>1622.400</ele>
        <time>2019-07-14T20:12:21Z</time>
      </trkpt>
      <trkpt lat="35.472878950" lon="-106.692186470">
        <ele>1622.400</ele>
        <time>2019-07-14T20:12:22Z</time>
      </trkpt>
      <trkpt lat="35.473118360" lon="-106.692404810">
        <ele>1622.100</ele>
        <time>2019-07-14T20:12:23Z</time>
      </trkpt>
      <trkpt lat="35.473356790" lon="-106.692620390">
        <ele>1622.600</ele>
        <time>2019-07-14T20:12:24Z</time>
      </trkpt>
      <trkpt lat="35.473592160" lon="-106.692840190">
        <ele>1622.700</ele>
        <time>2019-07-14T20:12:25Z</time>
      </trkpt>
      <trkpt lat="35.473828020" lon="-106.693054570">
        <ele>1623.400</ele>
        <time>2019-07-14T20:12:26Z</time>
      </trkpt>
      <trkpt lat="35.474061670" lon="-106.693270770">
        <ele>1624.100</ele>
        <time>2019-07-14T20:12:27Z</time>
      </trkpt>
      <trkpt lat="35.474291390" lon="-106.693492640">
        <ele>1623.500</ele>
        <time>2019-07-14T20:12:28Z</time>
      </trkpt>
      <trkpt lat="35.474531270" lon="-106.693711890">
        <ele>1624.100</ele>
        <time>2019-07-14T20:12:29Z</time>
      </trkpt>
      <trkpt lat="35.474762690" lon="-106.693931290">
        <ele>1623.500</ele>
        <time>2019-07-14T20:12:30Z</time>
      </trkpt>
      <trkpt lat="35.474990900" lon="-106.694148510">
        <ele>1623.500</ele>
        <time>2019-07-14T20:12:31Z</time>
      </trkpt>
      <trkpt lat="35.475228270" lon="-106.694369410">
        <ele>1623.400</ele>
        <time>2019-07-14T20:12:32Z</time>
      </trkpt>
      <trkpt lat="35.475460900" lon="-106.694585830">
        <ele>1623.700</ele>
        <time>2019-07-14T20:12:33Z</time>
      </trkpt>
      <trkpt lat="35.475698030" lon="-106.694803070">
        <ele>1624.400</ele>
        <time>2019-07-14T20:12:34Z</time>
      </trkpt>
      <trkpt lat="35.475930790" lon="-106.695023550">
        <ele>1624.400</ele>
        <time>2019-07-14T20:12:35Z</time>
      </trkpt>
      <trkpt lat="35.476162680" lon="-106.695245300">
        <ele>1624.700</ele>
        <time>2019-07-14T20:12:36Z</time>
      </trkpt>
      <trkpt lat="35.476393040" lon="-106.695463800">
        <ele>1624.500</ele>
        <time>2019-07-14T20:12:37Z</time>
      </trkpt>
      <trkpt lat="35.476629200" lon="-106.695679410">
        <ele>1624.500</ele>
        <time>2019-07-14T20:12:38Z</time>
      </trkpt>
      <trkpt lat="35.476862630" lon="-106.695899030">
        <ele>1624.100</ele>
        <time>2019-07-14T20:12:39Z</time>
      </trkpt>
      <trkpt lat="35.477087090" lon="-106.696114960">
        <ele>1622.700</ele>
        <time>2019-07-14T20:12:40Z</time>
      </trkpt>
      <trkpt lat="35.477320020" lon="-106.696332810">
        <ele>1622.900</ele>
        <time>2019-07-14T20:12:41Z</time>
      </trkpt>
      <trkpt lat="35.477549610" lon="-106.696558340">
        <ele>1622.500</ele>
        <time>2019-07-14T20:12:42Z</time>
      </trkpt>
      <trkpt lat="35.477777130" lon="-106.696771910">
        <ele>1622.900</ele>
        <time>2019-07-14T20:12:43Z</time>
      </trkpt>
      <trkpt lat="35.478010110" lon="-106.696990540">
        <ele>1623.100</ele>
        <time>2019-07-14T20:12:44Z</time>
      </trkpt>
      <trkpt lat="35.478240680" lon="-106.697204810">
        <ele>1623.300</ele>
        <time>2019-07-14T20:12:45Z</time>
      </trkpt>
      <trkpt lat="35.478474030" lon="-106.697420850">
        <ele>1623.600</ele>
        <time>2019-07-14T20:12:46Z</time>
      </trkpt>
      <trkpt lat="35.478712500" lon="-106.697635340">
        <ele>1624.300</ele>
        <time>2019-07-14T20:12:47Z</time>
      </trkpt>
      <trkpt lat="35.478949770" lon="-106.697858610">
        <ele>1624.000</ele>
        <time>2019-07-14T20:12:48Z</time>
      </trkpt>
      <trkpt lat="35.479191360" lon="-106.698079000">
        <ele>1625.100</ele>
        <time>2019-07-14T20:12:49Z</time>
      </trkpt>
      <trkpt lat="35.479431130" lon="-106.698295880">
        <ele>1625.600</ele>
        <time>2019-07-14T20:12:50Z</time>
      </trkpt>
      <trkpt lat="35.479670050" lon="-106.698516690">
        <ele>1625.700</ele>
        <time>2019-07-14T20:12:51Z</time>
      </trkpt>
      <trkpt lat="35.479906090" lon="-106.698742620">
        <ele>1625.600</ele>
        <time>2019-07-14T20:12:52Z</time>
      </trkpt>
      <trkpt lat="35.480142810" lon="-106.698966070">
        <ele>1625.200</ele>
        <time>2019-07-14T20:12:53Z</time>
      </trkpt>
      <trkpt lat="35.480387260" lon="-106.699179190">
        <ele>1625.700</ele>
        <time>2019-07-14T20:12:54Z</time>
      </trkpt>
      <trkpt lat="35.480624410" lon="-106.699395260">
        <ele>1625.600</ele>
        <time>2019-07-14T20:12:55Z</time>
      </trkpt>
      <trkpt lat="35.480862360" lon="-106.699621310">
        <ele>1625.200</ele>
        <time>2019-07-14T20:12:56Z</time>
      </trkpt>
      <trkpt lat="35.481091750" lon="-106.699854840">
        <ele>1624.200</ele>
        <time>2019-07-14T20:12:57Z</time>
      </trkpt>
      <trkpt lat="35.481317360" lon="-106.700077030">
        <ele>1623.300</ele>
        <time>2019-07-14T20:12:58Z</time>
      </trkpt>
      <trkpt lat="35.481541970" lon="-106.700307690">
        <ele>1622.500</ele>
        <time>2019-07-14T20:12:59Z</time>
      </trkpt>
      <trkpt lat="35.481768840" lon="-106.700531150">
        <ele>1621.000</ele>
        <time>2019-07-14T20:13:00Z</time>
      </trkpt>
      <trkpt lat="35.481994170" lon="-106.700760950">
        <ele>1620.800</ele>
        <time>2019-07-14T20:13:01Z</time>
      </trkpt>
      <trkpt lat="35.482211120" lon="-106.701002670">
        <ele>1620.000</ele>
        <time>2019-07-14T20:13:02Z</time>
      </trkpt>
      <trkpt lat="35.482421200" lon="-106.701244040">
        <ele>1619.600</ele>
        <time>2019-07-14T20:13:03Z</time>
      </trkpt>
      <trkpt lat="35.482627920" lon="-106.701494450">
        <ele>1619.400</ele>
        <time>2019-07-14T20:13:04Z</time>
      </trkpt>
      <trkpt lat="35.482829920" lon="-106.701746340">
        <ele>1619.200</ele>
        <time>2019-07-14T20:13:05Z</time>
      </trkpt>
      <trkpt lat="35.483037980" lon="-106.701999480">
        <ele>1619.100</ele>
        <time>2019-07-14T20:13:06Z</time>
      </trkpt>
      <trkpt lat="35.483231120" lon="-106.702267550">
        <ele>1618.700</ele>
        <time>2019-07-14T20:13:07Z</time>
      </trkpt>
      <trkpt lat="35.483431480" lon="-106.702526090">
        <ele>1618.100</ele>
        <time>2019-07-14T20:13:08Z</time>
      </trkpt>
      <trkpt lat="35.483624300" lon="-106.702802590">
        <ele>1618.000</ele>
        <time>2019-07-14T20:13:09Z</time>
      </trkpt>
      <trkpt lat="35.483808090" lon="-106.703077780">
        <ele>1617.900</ele>
        <time>2019-07-14T20:13:10Z</time>
      </trkpt>
      <trkpt lat="35.483996730" lon="-106.703364130">
        <ele>1617.900</ele>
        <time>2019-07-14T20:13:11Z</time>
      </trkpt>
      <trkpt lat="35.484188770" lon="-106.703652350">
        <ele>1618.100</ele>
        <time>2019-07-14T20:13:12Z</time>
      </trkpt>
      <trkpt lat="35.484355290" lon="-106.703945720">
        <ele>1617.700</ele>
        <time>2019-07-14T20:13:13Z</time>
      </trkpt>
      <trkpt lat="35.484522990" lon="-106.704230690">
        <ele>1616.600</ele>
        <time>2019-07-14T20:13:14Z</time>
      </trkpt>
      <trkpt lat="35.484694200" lon="-106.704536270">
        <ele>1616.200</ele>
        <time>2019-07-14T20:13:15Z</time>
      </trkpt>
      <trkpt lat="35.484848580" lon="-106.704836510">
        <ele>1615.700</ele>
        <time>2019-07-14T20:13:16Z</time>
      </trkpt>
      <trkpt lat="35.484996900" lon="-106.705149290">
        <ele>1616.100</ele>
        <time>2019-07-14T20:13:17Z</time>
      </trkpt>
      <trkpt lat="35.485134700" lon="-106.705447070">
        <ele>1616.000</ele>
        <time>2019-07-14T20:13:18Z</time>
      </trkpt>
      <trkpt lat="35.485272180" lon="-106.705761300">
        <ele>1615.100</ele>
        <time>2019-07-14T20:13:19Z</time>
      </trkpt>
      <trkpt lat="35.485422630" lon="-106.706079450">
        <ele>1615.700</ele>
        <time>2019-07-14T20:13:20Z</time>
      </trkpt>
      <trkpt lat="35.485565700" lon="-106.706391940">
        <ele>1616.000</ele>
        <time>2019-07-14T20:13:21Z</time>
      </trkpt>
      <trkpt lat="35.485709830" lon="-106.706704690">
        <ele>1616.600</ele>
        <time>2019-07-14T20:13:22Z</time>
      </trkpt>
      <trkpt lat="35.485846880" lon="-106.707027270">
        <ele>1616.100</ele>
        <time>2019-07-14T20:13:23Z</time>
      </trkpt>
      <trkpt lat="35.485985760" lon="-106.707340840">
        <ele>1616.200</ele>
        <time>2019-07-14T20:13:24Z</time>
      </trkpt>
      <trkpt lat="35.486124370" lon="-106.707658750">
        <ele>1615.900</ele>
        <time>2019-07-14T20:13:25Z</time>
      </trkpt>
      <trkpt lat="35.486265540" lon="-106.707988230">
        <ele>1615.600</ele>
        <time>2019-07-14T20:13:26Z</time>
      </trkpt>
      <trkpt lat="35.486403400" lon="-106.708296120">
        <ele>1615.900</ele>
        <time>2019-07-14T20:13:27Z</time>
      </trkpt>
      <trkpt lat="35.486541920" lon="-106.708612000">
        <ele>1616.400</ele>
        <time>2019-07-14T20:13:28Z</time>
      </trkpt>
      <trkpt lat="35.486681570" lon="-106.708924530">
        <ele>1616.700</ele>
        <time>2019-07-14T20:13:29Z</time>
      </trkpt>
      <trkpt lat="35.486815970" lon="-106.709249110">
        <ele>1616.900</ele>
        <time>2019-07-14T20:13:30Z</time>
      </trkpt>
      <trkpt lat="35.486964660" lon="-106.709578310">
        <ele>1616.100</ele>
        <time>2019-07-14T20:13:31Z</time>
      </trkpt>
      <trkpt lat="35.487106410" lon="-106.709888480">
        <ele>1615.900</ele>
        <time>2019-07-14T20:13:32Z</time>
      </trkpt>
      <trkpt lat="35.487241550" lon="-106.710201210">
        <ele>1616.500</ele>
        <time>2019-07-14T20:13:33Z</time>
      </trkpt>
      <trkpt lat="35.487382220" lon="-106.710512920">
        <ele>1616.500</ele>
        <time>2019-07-14T20:13:34Z</time>
      </trkpt>
      <trkpt lat="35.487522680" lon="-106.710820190">
        <ele>1616.900</ele>
        <time>2019-07-14T20:13:35Z</time>
      </trkpt>
      <trkpt lat="35.487669240" lon="-106.711133890">
        <ele>1616.800</ele>
        <time>2019-07-14T20:13:36Z</time>
      </trkpt>
      <trkpt lat="35.487810030" lon="-106.711437540">
        <ele>1617.100</ele>
        <time>2019-07-14T20:13:37Z</time>
      </trkpt>
      <trkpt lat="35.487951090" lon="-106.711746100">
        <ele>1617.300</ele>
        <time>2019-07-14T20:13:38Z</time>
      </trkpt>
      <trkpt lat="35.488094430" lon="-106.712072420">
        <ele>1617.200</ele>
        <time>2019-07-14T20:13:39Z</time>
      </trkpt>
      <trkpt lat="35.488236690" lon="-106.712381350">
        <ele>1617.600</ele>
        <time>2019-07-14T20:13:40Z</time>
      </trkpt>
      <trkpt lat="35.488375530" lon="-106.712704000">
        <ele>1618.400</ele>
        <time>2019-07-14T20:13:41Z</time>
      </trkpt>
      <trkpt lat="35.488510680" lon="-106.713016000">
        <ele>1618.100</ele>
        <time>2019-07-14T20:13:42Z</time>
      </trkpt>
      <trkpt lat="35.488649690" lon="-106.713326930">
        <ele>1618.400</ele>
        <time>2019-07-14T20:13:43Z</time>
      </trkpt>
      <trkpt lat="35.488788700" lon="-106.713646540">
        <ele>1618.300</ele>
        <time>2019-07-14T20:13:44Z</time>
      </trkpt>
      <trkpt lat="35.488932520" lon="-106.713967140">
        <ele>1618.400</ele>
        <time>2019-07-14T20:13:45Z</time>
      </trkpt>
      <trkpt lat="35.489078400" lon="-106.714282820">
        <ele>1618.200</ele>
        <time>2019-07-14T20:13:46Z</time>
      </trkpt>
      <trkpt lat="35.489222780" lon="-106.714596830">
        <ele>1618.400</ele>
        <time>2019-07-14T20:13:47Z</time>
      </trkpt>
      <trkpt lat="35.489361900" lon="-106.714918740">
        <ele>1618.800</ele>
        <time>2019-07-14T20:13:48Z</time>
      </trkpt>
      <trkpt lat="35.489502360" lon="-106.715236630">
        <ele>1618.800</ele>
        <time>2019-07-14T20:13:49Z</time>
      </trkpt>
      <trkpt lat="35.489641350" lon="-106.715556090">
        <ele>1618.800</ele>
        <time>2019-07-14T20:13:50Z</time>
      </trkpt>
      <trkpt lat="35.489786640" lon="-106.715870050">
        <ele>1618.900</ele>
        <time>2019-07-14T20:13:51Z</time>
      </trkpt>
      <trkpt lat="35.489921580" lon="-106.716181810">
        <ele>1618.500</ele>
        <time>2019-07-14T20:13:52Z</time>
      </trkpt>
      <trkpt lat="35.490061930" lon="-106.716496230">
        <ele>1618.900</ele>
        <time>2019-07-14T20:13:53Z</time>
      </trkpt>
      <trkpt lat="35.490205450" lon="-106.716818540">
        <ele>1619.200</ele>
        <time>2019-07-14T20:13:54Z</time>
      </trkpt>
      <trkpt lat="35.490347680" lon="-106.717132070">
        <ele>1619.600</ele>
        <time>2019-07-14T20:13:55Z</time>
      </trkpt>
      <trkpt lat="35.490486340" lon="-106.717455480">
        <ele>1619.800</ele>
        <time>2019-07-14T20:13:56Z</time>
      </trkpt>
      <trkpt lat="35.490628050" lon="-106.717762940">
        <ele>1620.100</ele>
        <time>2019-07-14T20:13:57Z</time>
      </trkpt>
      <trkpt lat="35.490763670" lon="-106.718079600">
        <ele>1620.400</ele>
        <time>2019-07-14T20:13:58Z</time>
      </trkpt>
      <trkpt lat="35.490898970" lon="-106.718401260">
        <ele>1620.500</ele>
        <time>2019-07-14T20:13:59Z</time>
      </trkpt>
      <trkpt lat="35.491040740" lon="-106.718710880">
        <ele>1620.700</ele>
        <time>2019-07-14T20:14:00Z</time>
      </trkpt>
      <trkpt lat="35.491179540" lon="-106.719030890">
        <ele>1620.100</ele>
        <time>2019-07-14T20:14:01Z</time>
      </trkpt>
      <trkpt lat="35.491320420" lon="-106.719347470">
        <ele>1620.000</ele>
        <time>2019-07-14T20:14:02Z</time>
      </trkpt>
      <trkpt lat="35.491464820" lon="-106.719659870">
        <ele>1620.300</ele>
        <time>2019-07-14T20:14:03Z</time>
      </trkpt>
      <trkpt lat="35.491608550" lon="-106.719974390">
        <ele>1621.000</ele>
        <time>2019-07-14T20:14:04Z</time>
      </trkpt>
      <trkpt lat="35.491749500" lon="-106.720294190">
        <ele>1620.500</ele>
        <time>2019-07-14T20:14:05Z</time>
      </trkpt>
      <trkpt lat="35.491889220" lon="-106.720612680">
        <ele>1621.000</ele>
        <time>2019-07-14T20:14:06Z</time>
      </trkpt>
      <trkpt lat="35.492033930" lon="-106.720918540">
        <ele>1621.000</ele>
        <time>2019-07-14T20:14:07Z</time>
      </trkpt>
      <trkpt lat="35.492179780" lon="-106.721238120">
        <ele>1621.600</ele>
        <time>2019-07-14T20:14:08Z</time>
      </trkpt>
      <trkpt lat="35.492323440" lon="-106.721555490">
        <ele>1622.300</ele>
        <time>2019-07-14T20:14:09Z</time>
      </trkpt>
      <trkpt lat="35.492465250" lon="-106.721875290">
        <ele>1622.700</ele>
        <time>2019-07-14T20:14:10Z</time>
      </trkpt>
      <trkpt lat="35.492605930" lon="-106.722189210">
        <ele>1622.900</ele>
        <time>2019-07-14T20:14:11Z</time>
      </trkpt>
      <trkpt lat="35.492745430" lon="-106.722501160">
        <ele>1623.500</ele>
        <time>2019-07-14T20:14:12Z</time>
      </trkpt>
      <trkpt lat="35.492888390" lon="-106.722817000">
        <ele>1623.500</ele>
        <time>2019-07-14T20:14:13Z</time>
      </trkpt>
      <trkpt lat="35.493024170" lon="-106.723134310">
        <ele>1623.600</ele>
        <time>2019-07-14T20:14:14Z</time>
      </trkpt>
      <trkpt lat="35.493159250" lon="-106.723448950">
        <ele>1623.800</ele>
        <time>2019-07-14T20:14:15Z</time>
      </trkpt>
      <trkpt lat="35.493297980" lon="-106.723761450">
        <ele>1624.100</ele>
        <time>2019-07-14T20:14:16Z</time>
      </trkpt>
      <trkpt lat="35.493439950" lon="-106.724075630">
        <ele>1625.100</ele>
        <time>2019-07-14T20:14:17Z</time>
      </trkpt>
      <trkpt lat="35.493578340" lon="-106.724388330">
        <ele>1625.100</ele>
        <time>2019-07-14T20:14:18Z</time>
      </trkpt>
      <trkpt lat="35.493718520" lon="-106.724708610">
        <ele>1625.400</ele>
        <time>2019-07-14T20:14:19Z</time>
      </trkpt>
      <trkpt lat="35.493849430" lon="-106.725025040">
        <ele>1625.300</ele>
        <time>2019-07-14T20:14:20Z</time>
      </trkpt>
      <trkpt lat="35.493990790" lon="-106.725345930">
        <ele>1626.000</ele>
        <time>2019-07-14T20:14:21Z</time>
      </trkpt>
      <trkpt lat="35.494136250" lon="-106.725661510">
        <ele>1626.600</ele>
        <time>2019-07-14T20:14:22Z</time>
      </trkpt>
      <trkpt lat="35.494283030" lon="-106.725972270">
        <ele>1627.000</ele>
        <time>2019-07-14T20:14:23Z</time>
      </trkpt>
      <trkpt lat="35.494427170" lon="-106.726284880">
        <ele>1627.400</ele>
        <time>2019-07-14T20:14:24Z</time>
      </trkpt>
      <trkpt lat="35.494572580" lon="-106.726610050">
        <ele>1627.400</ele>
        <time>2019-07-14T20:14:25Z</time>
      </trkpt>
      <trkpt lat="35.494717020" lon="-106.726923490">
        <ele>1627.900</ele>
        <time>2019-07-14T20:14:26Z</time>
      </trkpt>
      <trkpt lat="35.494858780" lon="-106.727244620">
        <ele>1628.100</ele>
        <time>2019-07-14T20:14:27Z</time>
      </trkpt>
      <trkpt lat="35.494995360" lon="-106.727567250">
        <ele>1627.700</ele>
        <time>2019-07-14T20:14:28Z</time>
      </trkpt>
      <trkpt lat="35.495138960" lon="-106.727882670">
        <ele>1627.900</ele>
        <time>2019-07-14T20:14:29Z</time>
      </trkpt>
      <trkpt lat="35.495279420" lon="-106.728201090">
        <ele>1628.600</ele>
        <time>2019-07-14T20:14:30Z</time>
      </trkpt>
      <trkpt lat="35.495424240" lon="-106.728507940">
        <ele>1628.200</ele>
        <time>2019-07-14T20:14:31Z</time>
      </trkpt>
      <trkpt lat="35.495567860" lon="-106.728821930">
        <ele>1628.500</ele>
        <time>2019-07-14T20:14:32Z</time>
      </trkpt>
      <trkpt lat="35.495705420" lon="-106.729136370">
        <ele>1628.100</ele>
        <time>2019-07-14T20:14:33Z</time>
      </trkpt>
      <trkpt lat="35.495845580" lon="-106.729447140">
        <ele>1628.800</ele>
        <time>2019-07-14T20:14:34Z</time>
      </trkpt>
      <trkpt lat="35.495985920" lon="-106.729768990">
        <ele>1628.700</ele>
        <time>2019-07-14T20:14:35Z</time>
      </trkpt>
      <trkpt lat="35.496127740" lon="-106.730084410">
        <ele>1628.900</ele>
        <time>2019-07-14T20:14:36Z</time>
      </trkpt>
      <trkpt lat="35.496268330" lon="-106.730406050">
        <ele>1629.500</ele>
        <time>2019-07-14T20:14:37Z</time>
      </trkpt>
      <trkpt lat="35.496406740" lon="-106.730720940">
        <ele>1629.400</ele>
        <time>2019-07-14T20:14:38Z</time>
      </trkpt>
      <trkpt lat="35.496545230" lon="-106.731039150">
        <ele>1629.400</ele>
        <time>2019-07-14T20:14:39Z</time>
      </trkpt>
      <trkpt lat="35.496684300" lon="-106.731358850">
        <ele>1630.100</ele>
        <time>2019-07-14T20:14:40Z</time>
      </trkpt>
      <trkpt lat="35.496819360" lon="-106.731675600">
        <ele>1630.000</ele>
        <time>2019-07-14T20:14:41Z</time>
      </trkpt>
      <trkpt lat="35.496956820" lon="-106.731994600">
        <ele>1630.300</ele>
        <time>2019-07-14T20:14:42Z</time>
      </trkpt>
      <trkpt lat="35.497099140" lon="-106.732308280">
        <ele>1630.700</ele>
        <time>2019-07-14T20:14:43Z</time>
      </trkpt>
      <trkpt lat="35.497234070" lon="-106.732629920">
        <ele>1630.600</ele>
        <time>2019-07-14T20:14:44Z</time>
      </trkpt>
      <trkpt lat="35.497375760" lon="-106.732947310">
        <ele>1631.100</ele>
        <time>2019-07-14T20:14:45Z</time>
      </trkpt>
      <trkpt lat="35.497510620" lon="-106.733263140">
        <ele>1631.500</ele>
        <time>2019-07-14T20:14:46Z</time>
      </trkpt>
      <trkpt lat="35.497650260" lon="-106.733575310">
        <ele>1631.400</ele>
        <time>2019-07-14T20:14:47Z</time>
      </trkpt>
      <trkpt lat="35.497790190" lon="-106.733894890">
        <ele>1631.900</ele>
        <time>2019-07-14T20:14:48Z</time>
      </trkpt>
      <trkpt lat="35.497932990" lon="-106.734212090">
        <ele>1632.300</ele>
        <time>2019-07-14T20:14:49Z</time>
      </trkpt>
      <trkpt lat="35.498072280" lon="-106.734531830">
        <ele>1632.700</ele>
        <time>2019-07-14T20:14:50Z</time>
      </trkpt>
      <trkpt lat="35.498212230" lon="-106.734846270">
        <ele>1632.900</ele>
        <time>2019-07-14T20:14:51Z</time>
      </trkpt>
      <trkpt lat="35.498348890" lon="-106.735165040">
        <ele>1633.300</ele>
        <time>2019-07-14T20:14:52Z</time>
      </trkpt>
      <trkpt lat="35.498483990" lon="-106.735486960">
        <ele>1633.100</ele>
        <time>2019-07-14T20:14:53Z</time>
      </trkpt>
      <trkpt lat="35.498622020" lon="-106.735804230">
        <ele>1633.400</ele>
        <time>2019-07-14T20:14:54Z</time>
      </trkpt>
      <trkpt lat="35.498764140" lon="-106.736119260">
        <ele>1633.800</ele>
        <time>2019-07-14T20:14:55Z</time>
      </trkpt>
      <trkpt lat="35.498902100" lon="-106.736439910">
        <ele>1633.900</ele>
        <time>2019-07-14T20:14:56Z</time>
      </trkpt>
      <trkpt lat="35.499045410" lon="-106.736753200">
        <ele>1633.700</ele>
        <time>2019-07-14T20:14:57Z</time>
      </trkpt>
      <trkpt lat="35.499185470" lon="-106.737068550">
        <ele>1634.000</ele>
        <time>2019-07-14T20:14:58Z</time>
      </trkpt>
      <trkpt lat="35.499323160" lon="-106.737382790">
        <ele>1633.600</ele>
        <time>2019-07-14T20:14:59Z</time>
      </trkpt>
      <trkpt lat="35.499462260" lon="-106.737701610">
        <ele>1633.400</ele>
        <time>2019-07-14T20:15:00Z</time>
      </trkpt>
      <trkpt lat="35.499596860" lon="-106.738016810">
        <ele>1633.100</ele>
        <time>2019-07-14T20:15:01Z</time>
      </trkpt>
      <trkpt lat="35.499731770" lon="-106.738333450">
        <ele>1632.800</ele>
        <time>2019-07-14T20:15:02Z</time>
      </trkpt>
      <trkpt lat="35.499873400" lon="-106.738649180">
        <ele>1632.600</ele>
        <time>2019-07-14T20:15:03Z</time>
      </trkpt>
      <trkpt lat="35.500020510" lon="-106.738960330">
        <ele>1632.800</ele>
        <time>2019-07-14T20:15:04Z</time>
      </trkpt>
      <trkpt lat="35.500165280" lon="-106.739263950">
        <ele>1632.500</ele>
        <time>2019-07-14T20:15:05Z</time>
      </trkpt>
      <trkpt lat="35.500314530" lon="-106.739581460">
        <ele>1632.100</ele>
        <time>2019-07-14T20:15:06Z</time>
      </trkpt>
      <trkpt lat="35.500459430" lon="-106.739894500">
        <ele>1632.100</ele>
        <time>2019-07-14T20:15:07Z</time>
      </trkpt>
      <trkpt lat="35.500598460" lon="-106.740211580">
        <ele>1632.300</ele>
        <time>2019-07-14T20:15:08Z</time>
      </trkpt>
      <trkpt lat="35.500736030" lon="-106.740524190">
        <ele>1632.200</ele>
        <time>2019-07-14T20:15:09Z</time>
      </trkpt>
      <trkpt lat="35.500878590" lon="-106.740841530">
        <ele>1632.200</ele>
        <time>2019-07-14T20:15:10Z</time>
      </trkpt>
      <trkpt lat="35.501020390" lon="-106.741159260">
        <ele>1632.800</ele>
        <time>2019-07-14T20:15:11Z</time>
      </trkpt>
      <trkpt lat="35.501160600" lon="-106.741483470">
        <ele>1632.900</ele>
        <time>2019-07-14T20:15:12Z</time>
      </trkpt>
      <trkpt lat="35.501304500" lon="-106.741791270">
        <ele>1632.300</ele>
        <time>2019-07-14T20:15:13Z</time>
      </trkpt>
      <trkpt lat="35.501444960" lon="-106.742103950">
        <ele>1632.700</ele>
        <time>2019-07-14T20:15:14Z</time>
      </trkpt>
      <trkpt lat="35.501583710" lon="-106.742423120">
        <ele>1632.700</ele>
        <time>2019-07-14T20:15:15Z</time>
      </trkpt>
      <trkpt lat="35.501729130" lon="-106.742737130">
        <ele>1632.500</ele>
        <time>2019-07-14T20:15:16Z</time>
      </trkpt>
      <trkpt lat="35.501871520" lon="-106.743054330">
        <ele>1632.500</ele>
        <time>2019-07-14T20:15:17Z</time>
      </trkpt>
      <trkpt lat="35.502009340" lon="-106.743368650">
        <ele>1631.800</ele>
        <time>2019-07-14T20:15:18Z</time>
      </trkpt>
      <trkpt lat="35.502149080" lon="-106.743687690">
        <ele>1632.000</ele>
        <time>2019-07-14T20:15:19Z</time>
      </trkpt>
      <trkpt lat="35.502290640" lon="-106.744005390">
        <ele>1632.500</ele>
        <time>2019-07-14T20:15:20Z</time>
      </trkpt>
      <trkpt lat="35.502430700" lon="-106.744326300">
        <ele>1632.500</ele>
        <time>2019-07-14T20:15:21Z</time>
      </trkpt>
      <trkpt lat="35.502564730" lon="-106.744643900">
        <ele>1631.900</ele>
        <time>2019-07-14T20:15:22Z</time>
      </trkpt>
      <trkpt lat="35.502706920" lon="-106.744957890">
        <ele>1632.500</ele>
        <time>2019-07-14T20:15:23Z</time>
      </trkpt>
      <trkpt lat="35.502853480" lon="-106.745270830">
        <ele>1632.200</ele>
        <time>2019-07-14T20:15:24Z</time>
      </trkpt>
      <trkpt lat="35.502994660" lon="-106.745580960">
        <ele>1632.300</ele>
        <time>2019-07-14T20:15:25Z</time>
      </trkpt>
      <trkpt lat="35.503140690" lon="-106.745892570">
        <ele>1632.000</ele>
        <time>2019-07-14T20:15:26Z</time>
      </trkpt>
      <trkpt lat="35.503280740" lon="-106.746211620">
        <ele>1632.100</ele>
        <time>2019-07-14T20:15:27Z</time>
      </trkpt>
      <trkpt lat="35.503421940" lon="-106.746528330">
        <ele>1632.000</ele>
        <time>2019-07-14T20:15:28Z</time>
      </trkpt>
      <trkpt lat="35.503570770" lon="-106.746846730">
        <ele>1632.100</ele>
        <time>2019-07-14T20:15:29Z</time>
      </trkpt>
      <trkpt lat="35.503709450" lon="-106.747155910">
        <ele>1632.200</ele>
        <time>2019-07-14T20:15:30Z</time>
      </trkpt>
      <trkpt lat="35.503852050" lon="-106.747467780">
        <ele>1632.500</ele>
        <time>2019-07-14T20:15:31Z</time>
      </trkpt>
      <trkpt lat="35.504005590" lon="-106.747779560">
        <ele>1633.100</ele>
        <time>2019-07-14T20:15:32Z</time>
      </trkpt>
      <trkpt lat="35.504154010" lon="-106.748086310">
        <ele>1632.700</ele>
        <time>2019-07-14T20:15:33Z</time>
      </trkpt>
      <trkpt lat="35.504311000" lon="-106.748388450">
        <ele>1633.100</ele>
        <time>2019-07-14T20:15:34Z</time>
      </trkpt>
      <trkpt lat="35.504469400" lon="-106.748687320">
        <ele>1633.300</ele>
        <time>2019-07-14T20:15:35Z</time>
      </trkpt>
      <trkpt lat="35.504634980" lon="-106.748980760">
        <ele>1633.500</ele>
        <time>2019-07-14T20:15:36Z</time>
      </trkpt>
      <trkpt lat="35.504806930" lon="-106.749269020">
        <ele>1633.300</ele>
        <time>2019-07-14T20:15:37Z</time>
      </trkpt>
      <trkpt lat="35.504989070" lon="-106.749562540">
        <ele>1633.300</ele>
        <time>2019-07-14T20:15:38Z</time>
      </trkpt>
      <trkpt lat="35.505165060" lon="-106.749847270">
        <ele>1634.500</ele>
        <time>2019-07-14T20:15:39Z</time>
      </trkpt>
      <trkpt lat="35.505345410" lon="-106.750130990">
        <ele>1635.100</ele>
        <time>2019-07-14T20:15:40Z</time>
      </trkpt>
      <trkpt lat="35.505519550" lon="-106.750410440">
        <ele>1635.900</ele>
        <time>2019-07-14T20:15:41Z</time>
      </trkpt>
      <trkpt lat="35.505697300" lon="-106.750696410">
        <ele>1636.000</ele>
        <time>2019-07-14T20:15:42Z</time>
      </trkpt>
      <trkpt lat="35.505883720" lon="-106.750983320">
        <ele>1636.400</ele>
        <time>2019-07-14T20:15:43Z</time>
      </trkpt>
      <trkpt lat="35.506065220" lon="-106.751273420">
        <ele>1637.300</ele>
        <time>2019-07-14T20:15:44Z</time>
      </trkpt>
      <trkpt lat="35.506243290" lon="-106.751559060">
        <ele>1637.900</ele>
        <time>2019-07-14T20:15:45Z</time>
      </trkpt>
      <trkpt lat="35.506434340" lon="-106.751841900">
        <ele>1638.300</ele>
        <time>2019-07-14T20:15:46Z</time>
      </trkpt>
      <trkpt lat="35.506622950" lon="-106.752124830">
        <ele>1639.700</ele>
        <time>2019-07-14T20:15:47Z</time>
      </trkpt>
      <trkpt lat="35.506803380" lon="-106.752405850">
        <ele>1640.400</ele>
        <time>2019-07-14T20:15:48Z</time>
      </trkpt>
      <trkpt lat="35.506977170" lon="-106.752687810">
        <ele>1640.400</ele>
        <time>2019-07-14T20:15:49Z</time>
      </trkpt>
      <trkpt lat="35.507159540" lon="-106.752968330">
        <ele>1640.700</ele>
        <time>2019-07-14T20:15:50Z</time>
      </trkpt>
      <trkpt lat="35.507341270" lon="-106.753252140">
        <ele>1641.100</ele>
        <time>2019-07-14T20:15:51Z</time>
      </trkpt>
      <trkpt lat="35.507519530" lon="-106.753534790">
        <ele>1640.600</ele>
        <time>2019-07-14T20:15:52Z</time>
      </trkpt>
      <trkpt lat="35.507703130" lon="-106.753822200">
        <ele>1640.200</ele>
        <time>2019-07-14T20:15:53Z</time>
      </trkpt>
      <trkpt lat="35.507881570" lon="-106.754107440">
        <ele>1639.700</ele>
        <time>2019-07-14T20:15:54Z</time>
      </trkpt>
      <trkpt lat="35.508064040" lon="-106.754395880">
        <ele>1639.800</ele>
        <time>2019-07-14T20:15:55Z</time>
      </trkpt>
      <trkpt lat="35.508249180" lon="-106.754681340">
        <ele>1639.500</ele>
        <time>2019-07-14T20:15:56Z</time>
      </trkpt>
      <trkpt lat="35.508430380" lon="-106.754963280">
        <ele>1639.800</ele>
        <time>2019-07-14T20:15:57Z</time>
      </trkpt>
      <trkpt lat="35.508608830" lon="-106.755249080">
        <ele>1639.500</ele>
        <time>2019-07-14T20:15:58Z</time>
      </trkpt>
      <trkpt lat="35.508779040" lon="-106.755535020">
        <ele>1638.600</ele>
        <time>2019-07-14T20:15:59Z</time>
      </trkpt>
      <trkpt lat="35.508962430" lon="-106.755819780">
        <ele>1638.600</ele>
        <time>2019-07-14T20:16:00Z</time>
      </trkpt>
      <trkpt lat="35.509143020" lon="-106.756102980">
        <ele>1638.500</ele>
        <time>2019-07-14T20:16:01Z</time>
      </trkpt>
      <trkpt lat="35.509328850" lon="-106.756386870">
        <ele>1638.100</ele>
        <time>2019-07-14T20:16:02Z</time>
      </trkpt>
      <trkpt lat="35.509513890" lon="-106.756671870">
        <ele>1638.600</ele>
        <time>2019-07-14T20:16:03Z</time>
      </trkpt>
      <trkpt lat="35.509692660" lon="-106.756956450">
        <ele>1638.200</ele>
        <time>2019-07-14T20:16:04Z</time>
      </trkpt>
      <trkpt lat="35.509880140" lon="-106.757243310">
        <ele>1637.800</ele>
        <time>2019-07-14T20:16:05Z</time>
      </trkpt>
      <trkpt lat="35.510067680" lon="-106.757531900">
        <ele>1637.100</ele>
        <time>2019-07-14T20:16:06Z</time>
      </trkpt>
      <trkpt lat="35.510253270" lon="-106.757813750">
        <ele>1637.200</ele>
        <time>2019-07-14T20:16:07Z</time>
      </trkpt>
      <trkpt lat="35.510433380" lon="-106.758092110">
        <ele>1637.600</ele>
        <time>2019-07-14T20:16:08Z</time>
      </trkpt>
      <trkpt lat="35.510614910" lon="-106.758370120">
        <ele>1638.500</ele>
        <time>2019-07-14T20:16:09Z</time>
      </trkpt>
      <trkpt lat="35.510792430" lon="-106.758647590">
        <ele>1638.500</ele>
        <time>2019-07-14T20:16:10Z</time>
      </trkpt>
      <trkpt lat="35.510970710" lon="-106.758927820">
        <ele>1638.900</ele>
        <time>2019-07-14T20:16:11Z</time>
      </trkpt>
      <trkpt lat="35.511149420" lon="-106.759209460">
        <ele>1638.400</ele>
        <time>2019-07-14T20:16:12Z</time>
      </trkpt>
      <trkpt lat="35.511329050" lon="-106.759491540">
        <ele>1638.200</ele>
        <time>2019-07-14T20:16:13Z</time>
      </trkpt>
      <trkpt lat="35.511507510" lon="-106.759777160">
        <ele>1637.800</ele>
        <time>2019-07-14T20:16:14Z</time>
      </trkpt>
      <trkpt lat="35.511692710" lon="-106.760054820">
        <ele>1637.300</ele>
        <time>2019-07-14T20:16:15Z</time>
      </trkpt>
      <trkpt lat="35.511875870" lon="-106.760337070">
        <ele>1638.000</ele>
        <time>2019-07-14T20:16:16Z</time>
      </trkpt>
      <trkpt lat="35.512054920" lon="-106.760621230">
        <ele>1638.300</ele>
        <time>2019-07-14T20:16:17Z</time>
      </trkpt>
      <trkpt lat="35.512237430" lon="-106.760907740">
        <ele>1638.400</ele>
        <time>2019-07-14T20:16:18Z</time>
      </trkpt>
      <trkpt lat="35.512424570" lon="-106.761193250">
        <ele>1638.400</ele>
        <time>2019-07-14T20:16:19Z</time>
      </trkpt>
      <trkpt lat="35.512603210" lon="-106.761480680">
        <ele>1638.600</ele>
        <time>2019-07-14T20:16:20Z</time>
      </trkpt>
      <trkpt lat="35.512781910" lon="-106.761769800">
        <ele>1638.100</ele>
        <time>2019-07-14T20:16:21Z</time>
      </trkpt>
      <trkpt lat="35.512958490" lon="-106.762053750">
        <ele>1638.100</ele>
        <time>2019-07-14T20:16:22Z</time>
      </trkpt>
      <trkpt lat="35.513142090" lon="-106.762334800">
        <ele>1638.800</ele>
        <time>2019-07-14T20:16:23Z</time>
      </trkpt>
      <trkpt lat="35.513322990" lon="-106.762617110">
        <ele>1638.400</ele>
        <time>2019-07-14T20:16:24Z</time>
      </trkpt>
      <trkpt lat="35.513505380" lon="-106.762900880">
        <ele>1638.700</ele>
        <time>2019-07-14T20:16:25Z</time>
      </trkpt>
      <trkpt lat="35.513684590" lon="-106.763183580">
        <ele>1638.600</ele>
        <time>2019-07-14T20:16:26Z</time>
      </trkpt>
      <trkpt lat="35.513864590" lon="-106.763468360">
        <ele>1639.000</ele>
        <time>2019-07-14T20:16:27Z</time>
      </trkpt>
      <trkpt lat="35.514041640" lon="-106.763749750">
        <ele>1639.100</ele>
        <time>2019-07-14T20:16:28Z</time>
      </trkpt>
      <trkpt lat="35.514222980" lon="-106.764035980">
        <ele>1639.400</ele>
        <time>2019-07-14T20:16:29Z</time>
      </trkpt>
      <trkpt lat="35.514401220" lon="-106.764320220">
        <ele>1639.400</ele>
        <time>2019-07-14T20:16:30Z</time>
      </trkpt>
      <trkpt lat="35.514585410" lon="-106.764605470">
        <ele>1639.800</ele>
        <time>2019-07-14T20:16:31Z</time>
      </trkpt>
      <trkpt lat="35.514766210" lon="-106.764885200">
        <ele>1639.900</ele>
        <time>2019-07-14T20:16:32Z</time>
      </trkpt>
      <trkpt lat="35.514947150" lon="-106.765166330">
        <ele>1640.400</ele>
        <time>2019-07-14T20:16:33Z</time>
      </trkpt>
      <trkpt lat="35.515123110" lon="-106.765448420">
        <ele>1640.700</ele>
        <time>2019-07-14T20:16:34Z</time>
      </trkpt>
      <trkpt lat="35.515306410" lon="-106.765733770">
        <ele>1641.200</ele>
        <time>2019-07-14T20:16:35Z</time>
      </trkpt>
      <trkpt lat="35.515488790" lon="-106.766016320">
        <ele>1641.600</ele>
        <time>2019-07-14T20:16:36Z</time>
      </trkpt>
      <trkpt lat="35.515672720" lon="-106.766295830">
        <ele>1641.700</ele>
        <time>2019-07-14T20:16:37Z</time>
      </trkpt>
      <trkpt lat="35.515853910" lon="-106.766579030">
        <ele>1641.600</ele>
        <time>2019-07-14T20:16:38Z</time>
      </trkpt>
      <trkpt lat="35.516037370" lon="-106.766859820">
        <ele>1641.800</ele>
        <time>2019-07-14T20:16:39Z</time>
      </trkpt>
      <trkpt lat="35.516221980" lon="-106.767142290">
        <ele>1641.800</ele>
        <time>2019-07-14T20:16:40Z</time>
      </trkpt>
      <trkpt lat="35.516399570" lon="-106.767428800">
        <ele>1641.700</ele>
        <time>2019-07-14T20:16:41Z</time>
      </trkpt>
      <trkpt lat="35.516581360" lon="-106.767711170">
        <ele>1642.100</ele>
        <time>2019-07-14T20:16:42Z</time>
      </trkpt>
      <trkpt lat="35.516762050" lon="-106.767994930">
        <ele>1642.200</ele>
        <time>2019-07-14T20:16:43Z</time>
      </trkpt>
      <trkpt lat="35.516942040" lon="-106.768278460">
        <ele>1642.500</ele>
        <time>2019-07-14T20:16:44Z</time>
      </trkpt>
      <trkpt lat="35.517124130" lon="-106.768559300">
        <ele>1642.300</ele>
        <time>2019-07-14T20:16:45Z</time>
      </trkpt>
      <trkpt lat="35.517303360" lon="-106.768845510">
        <ele>1641.900</ele>
        <time>2019-07-14T20:16:46Z</time>
      </trkpt>
      <trkpt lat="35.517483880" lon="-106.769129420">
        <ele>1642.000</ele>
        <time>2019-07-14T20:16:47Z</time>
      </trkpt>
      <trkpt lat="35.517659880" lon="-106.769419170">
        <ele>1641.800</ele>
        <time>2019-07-14T20:16:48Z</time>
      </trkpt>
      <trkpt lat="35.517842230" lon="-106.769708740">
        <ele>1641.400</ele>
        <time>2019-07-14T20:16:49Z</time>
      </trkpt>
      <trkpt lat="35.518015330" lon="-106.770001900">
        <ele>1641.800</ele>
        <time>2019-07-14T20:16:50Z</time>
      </trkpt>
      <trkpt lat="35.518173880" lon="-106.770296750">
        <ele>1641.200</ele>
        <time>2019-07-14T20:16:51Z</time>
      </trkpt>
      <trkpt lat="35.518331900" lon="-106.770593650">
        <ele>1641.300</ele>
        <time>2019-07-14T20:16:52Z</time>
      </trkpt>
      <trkpt lat="35.518488600" lon="-106.770898710">
        <ele>1641.000</ele>
        <time>2019-07-14T20:16:53Z</time>
      </trkpt>
      <trkpt lat="35.518642420" lon="-106.771208090">
        <ele>1641.300</ele>
        <time>2019-07-14T20:16:54Z</time>
      </trkpt>
      <trkpt lat="35.518789860" lon="-106.771519260">
        <ele>1641.400</ele>
        <time>2019-07-14T20:16:55Z</time>
      </trkpt>
      <trkpt lat="35.518934540" lon="-106.771831280">
        <ele>1641.700</ele>
        <time>2019-07-14T20:16:56Z</time>
      </trkpt>
      <trkpt lat="35.519068580" lon="-106.772155170">
        <ele>1641.700</ele>
        <time>2019-07-14T20:16:57Z</time>
      </trkpt>
      <trkpt lat="35.519208640" lon="-106.772478920">
        <ele>1642.000</ele>
        <time>2019-07-14T20:16:58Z</time>
      </trkpt>
      <trkpt lat="35.519337400" lon="-106.772800190">
        <ele>1642.300</ele>
        <time>2019-07-14T20:16:59Z</time>
      </trkpt>
      <trkpt lat="35.519470570" lon="-106.773116270">
        <ele>1642.500</ele>
        <time>2019-07-14T20:17:00Z</time>
      </trkpt>
      <trkpt lat="35.519599750" lon="-106.773433050">
        <ele>1642.600</ele>
        <time>2019-07-14T20:17:01Z</time>
      </trkpt>
      <trkpt lat="35.519737140" lon="-106.773763680">
        <ele>1642.100</ele>
        <time>2019-07-14T20:17:02Z</time>
      </trkpt>
      <trkpt lat="35.519870300" lon="-106.774083400">
        <ele>1642.000</ele>
        <time>2019-07-14T20:17:03Z</time>
      </trkpt>
      <trkpt lat="35.519999640" lon="-106.774404420">
        <ele>1642.100</ele>
        <time>2019-07-14T20:17:04Z</time>
      </trkpt>
      <trkpt lat="35.520134500" lon="-106.774721310">
        <ele>1642.700</ele>
        <time>2019-07-14T20:17:05Z</time>
      </trkpt>
      <trkpt lat="35.520259500" lon="-106.775046670">
        <ele>1643.200</ele>
        <time>2019-07-14T20:17:06Z</time>
      </trkpt>
      <trkpt lat="35.520393220" lon="-106.775367210">
        <ele>1642.900</ele>
        <time>2019-07-14T20:17:07Z</time>
      </trkpt>
      <trkpt lat="35.520525880" lon="-106.775686200">
        <ele>1643.300</ele>
        <time>2019-07-14T20:17:08Z</time>
      </trkpt>
      <trkpt lat="35.520650120" lon="-106.776008610">
        <ele>1642.700</ele>
        <time>2019-07-14T20:17:09Z</time>
      </trkpt>
      <trkpt lat="35.520791200" lon="-106.776327290">
        <ele>1643.100</ele>
        <time>2019-07-14T20:17:10Z</time>
      </trkpt>
      <trkpt lat="35.520937630" lon="-106.776638790">
        <ele>1643.700</ele>
        <time>2019-07-14T20:17:11Z</time>
      </trkpt>
      <trkpt lat="35.521095170" lon="-106.776943380">
        <ele>1644.000</ele>
        <time>2019-07-14T20:17:12Z</time>
      </trkpt>
      <trkpt lat="35.521267150" lon="-106.777235580">
        <ele>1644.100</ele>
        <time>2019-07-14T20:17:13Z</time>
      </trkpt>
      <trkpt lat="35.521455240" lon="-106.777506440">
        <ele>1644.000</ele>
        <time>2019-07-14T20:17:14Z</time>
      </trkpt>
      <trkpt lat="35.521651010" lon="-106.777769040">
        <ele>1643.600</ele>
        <time>2019-07-14T20:17:15Z</time>
      </trkpt>
      <trkpt lat="35.521873050" lon="-106.778014720">
        <ele>1644.400</ele>
        <time>2019-07-14T20:17:16Z</time>
      </trkpt>
      <trkpt lat="35.522086260" lon="-106.778256430">
        <ele>1643.400</ele>
        <time>2019-07-14T20:17:17Z</time>
      </trkpt>
      <trkpt lat="35.522319220" lon="-106.778477160">
        <ele>1643.200</ele>
        <time>2019-07-14T20:17:18Z</time>
      </trkpt>
      <trkpt lat="35.522564040" lon="-106.778687090">
        <ele>1643.400</ele>
        <time>2019-07-14T20:17:19Z</time>
      </trkpt>
      <trkpt lat="35.522815530" lon="-106.778885980">
        <ele>1643.300</ele>
        <time>2019-07-14T20:17:20Z</time>
      </trkpt>
      <trkpt lat="35.523070190" lon="-106.779065490">
        <ele>1643.100</ele>
        <time>2019-07-14T20:17:21Z</time>
      </trkpt>
      <trkpt lat="35.523333050" lon="-106.779229760">
        <ele>1642.900</ele>
        <time>2019-07-14T20:17:22Z</time>
      </trkpt>
      <trkpt lat="35.523601510" lon="-106.779376260">
        <ele>1643.600</ele>
        <time>2019-07-14T20:17:23Z</time>
      </trkpt>
      <trkpt lat="35.523869600" lon="-106.779526800">
        <ele>1642.700</ele>
        <time>2019-07-14T20:17:24Z</time>
      </trkpt>
      <trkpt lat="35.524134920" lon="-106.779679240">
        <ele>1642.800</ele>
        <time>2019-07-14T20:17:25Z</time>
      </trkpt>
      <trkpt lat="35.524405320" lon="-106.779831840">
        <ele>1643.100</ele>
        <time>2019-07-14T20:17:26Z</time>
      </trkpt>
      <trkpt lat="35.524675920" lon="-106.779983140">
        <ele>1643.100</ele>
        <time>2019-07-14T20:17:27Z</time>
      </trkpt>
      <trkpt lat="35.524952020" lon="-106.780128140">
        <ele>1644.000</ele>
        <time>2019-07-14T20:17:28Z</time>
      </trkpt>
      <trkpt lat="35.525219290" lon="-106.780270690">
        <ele>1643.700</ele>
        <time>2019-07-14T20:17:29Z</time>
      </trkpt>
      <trkpt lat="35.525489880" lon="-106.780413470">
        <ele>1643.700</ele>
        <time>2019-07-14T20:17:30Z</time>
      </trkpt>
      <trkpt lat="35.525756040" lon="-106.780555980">
        <ele>1643.300</ele>
        <time>2019-07-14T20:17:31Z</time>
      </trkpt>
      <trkpt lat="35.526028540" lon="-106.780695480">
        <ele>1642.700</ele>
        <time>2019-07-14T20:17:32Z</time>
      </trkpt>
      <trkpt lat="35.526298590" lon="-106.780838470">
        <ele>1642.500</ele>
        <time>2019-07-14T20:17:33Z</time>
      </trkpt>
      <trkpt lat="35.526574800" lon="-106.780988990">
        <ele>1641.800</ele>
        <time>2019-07-14T20:17:34Z</time>
      </trkpt>
      <trkpt lat="35.526842020" lon="-106.781135060">
        <ele>1641.600</ele>
        <time>2019-07-14T20:17:35Z</time>
      </trkpt>
      <trkpt lat="35.527110190" lon="-106.781278000">
        <ele>1641.600</ele>
        <time>2019-07-14T20:17:36Z</time>
      </trkpt>
      <trkpt lat="35.527375850" lon="-106.781426440">
        <ele>1641.700</ele>
        <time>2019-07-14T20:17:37Z</time>
      </trkpt>
      <trkpt lat="35.527643180" lon="-106.781568580">
        <ele>1642.100</ele>
        <time>2019-07-14T20:17:38Z</time>
      </trkpt>
      <trkpt lat="35.527913020" lon="-106.781715460">
        <ele>1642.300</ele>
        <time>2019-07-14T20:17:39Z</time>
      </trkpt>
      <trkpt lat="35.528178750" lon="-106.781855910">
        <ele>1642.300</ele>
        <time>2019-07-14T20:17:40Z</time>
      </trkpt>
      <trkpt lat="35.528443240" lon="-106.782002440">
        <ele>1642.500</ele>
        <time>2019-07-14T20:17:41Z</time>
      </trkpt>
      <trkpt lat="35.528708980" lon="-106.782147530">
        <ele>1642.900</ele>
        <time>2019-07-14T20:17:42Z</time>
      </trkpt>
      <trkpt lat="35.528974820" lon="-106.782296550">
        <ele>1642.800</ele>
        <time>2019-07-14T20:17:43Z</time>
      </trkpt>
      <trkpt lat="35.529243450" lon="-106.782444000">
        <ele>1642.800</ele>
        <time>2019-07-14T20:17:44Z</time>
      </trkpt>
      <trkpt lat="35.529517710" lon="-106.782591550">
        <ele>1641.800</ele>
        <time>2019-07-14T20:17:45Z</time>
      </trkpt>
      <trkpt lat="35.529788440" lon="-106.782730680">
        <ele>1642.300</ele>
        <time>2019-07-14T20:17:46Z</time>
      </trkpt>
      <trkpt lat="35.530059990" lon="-106.782867420">
        <ele>1642.100</ele>
        <time>2019-07-14T20:17:47Z</time>
      </trkpt>
      <trkpt lat="35.530329670" lon="-106.783009480">
        <ele>1642.600</ele>
        <time>2019-07-14T20:17:48Z</time>
      </trkpt>
      <trkpt lat="35.530597450" lon="-106.783153780">
        <ele>1642.600</ele>
        <time>2019-07-14T20:17:49Z</time>
      </trkpt>
      <trkpt lat="35.530869350" lon="-106.783291430">
        <ele>1643.000</ele>
        <time>2019-07-14T20:17:50Z</time>
      </trkpt>
      <trkpt lat="35.531136670" lon="-106.783434560">
        <ele>1643.000</ele>
        <time>2019-07-14T20:17:51Z</time>
      </trkpt>
      <trkpt lat="35.531407810" lon="-106.783578990">
        <ele>1643.100</ele>
        <time>2019-07-14T20:17:52Z</time>
      </trkpt>
      <trkpt lat="35.531682260" lon="-106.783720370">
        <ele>1644.000</ele>
        <time>2019-07-14T20:17:53Z</time>
      </trkpt>
      <trkpt lat="35.531951540" lon="-106.783868000">
        <ele>1644.000</ele>
        <time>2019-07-14T20:17:54Z</time>
      </trkpt>
      <trkpt lat="35.532224300" lon="-106.784010510">
        <ele>1643.700</ele>
        <time>2019-07-14T20:17:55Z</time>
      </trkpt>
      <trkpt lat="35.532496690" lon="-106.784148100">
        <ele>1643.800</ele>
        <time>2019-07-14T20:17:56Z</time>
      </trkpt>
      <trkpt lat="35.532769250" lon="-106.784286210">
        <ele>1643.700</ele>
        <time>2019-07-14T20:17:57Z</time>
      </trkpt>
      <trkpt lat="35.533047970" lon="-106.784414370">
        <ele>1643.600</ele>
        <time>2019-07-14T20:17:58Z</time>
      </trkpt>
      <trkpt lat="35.533331010" lon="-106.784534580">
        <ele>1642.900</ele>
        <time>2019-07-14T20:17:59Z</time>
      </trkpt>
      <trkpt lat="35.533614740" lon="-106.784646190">
        <ele>1643.200</ele>
        <time>2019-07-14T20:18:00Z</time>
      </trkpt>
      <trkpt lat="35.533894870" lon="-106.784751210">
        <ele>1642.800</ele>
        <time>2019-07-14T20:18:01Z</time>
      </trkpt>
      <trkpt lat="35.534179640" lon="-106.784843190">
        <ele>1643.300</ele>
        <time>2019-07-14T20:18:02Z</time>
      </trkpt>
      <trkpt lat="35.534464590" lon="-106.784928870">
        <ele>1643.200</ele>
        <time>2019-07-14T20:18:03Z</time>
      </trkpt>
      <trkpt lat="35.534750290" lon="-106.785016060">
        <ele>1643.800</ele>
        <time>2019-07-14T20:18:04Z</time>
      </trkpt>
      <trkpt lat="35.535035300" lon="-106.785091610">
        <ele>1643.100</ele>
        <time>2019-07-14T20:18:05Z</time>
      </trkpt>
      <trkpt lat="35.535330570" lon="-106.785163370">
        <ele>1644.900</ele>
        <time>2019-07-14T20:18:06Z</time>
      </trkpt>
      <trkpt lat="35.535624490" lon="-106.785231140">
        <ele>1646.300</ele>
        <time>2019-07-14T20:18:07Z</time>
      </trkpt>
      <trkpt lat="35.535916910" lon="-106.785289920">
        <ele>1646.800</ele>
        <time>2019-07-14T20:18:08Z</time>
      </trkpt>
      <trkpt lat="35.536210460" lon="-106.785344280">
        <ele>1646.800</ele>
        <time>2019-07-14T20:18:09Z</time>
      </trkpt>
      <trkpt lat="35.536506210" lon="-106.785393410">
        <ele>1647.000</ele>
        <time>2019-07-14T20:18:10Z</time>
      </trkpt>
      <trkpt lat="35.536791360" lon="-106.785432680">
        <ele>1645.100</ele>
        <time>2019-07-14T20:18:11Z</time>
      </trkpt>
      <trkpt lat="35.537084810" lon="-106.785459980">
        <ele>1645.600</ele>
        <time>2019-07-14T20:18:12Z</time>
      </trkpt>
      <trkpt lat="35.537371940" lon="-106.785474520">
        <ele>1645.400</ele>
        <time>2019-07-14T20:18:13Z</time>
      </trkpt>
      <trkpt lat="35.537664770" lon="-106.785488770">
        <ele>1645.200</ele>
        <time>2019-07-14T20:18:14Z</time>
      </trkpt>
      <trkpt lat="35.537953980" lon="-106.785498260">
        <ele>1645.100</ele>
        <time>2019-07-14T20:18:15Z</time>
      </trkpt>
      <trkpt lat="35.538245320" lon="-106.785500540">
        <ele>1644.700</ele>
        <time>2019-07-14T20:18:16Z</time>
      </trkpt>
      <trkpt lat="35.538539720" lon="-106.785489960">
        <ele>1644.500</ele>
        <time>2019-07-14T20:18:17Z</time>
      </trkpt>
      <trkpt lat="35.538839460" lon="-106.785475270">
        <ele>1645.200</ele>
        <time>2019-07-14T20:18:18Z</time>
      </trkpt>
      <trkpt lat="35.539136310" lon="-106.785463620">
        <ele>1645.500</ele>
        <time>2019-07-14T20:18:19Z</time>
      </trkpt>
      <trkpt lat="35.539429150" lon="-106.785438490">
        <ele>1645.400</ele>
        <time>2019-07-14T20:18:20Z</time>
      </trkpt>
      <trkpt lat="35.539718800" lon="-106.785417660">
        <ele>1644.900</ele>
        <time>2019-07-14T20:18:21Z</time>
      </trkpt>
      <trkpt lat="35.540008130" lon="-106.785388780">
        <ele>1645.400</ele>
        <time>2019-07-14T20:18:22Z</time>
      </trkpt>
      <trkpt lat="35.540301320" lon="-106.785360490">
        <ele>1644.700</ele>
        <time>2019-07-14T20:18:23Z</time>
      </trkpt>
      <trkpt lat="35.540591830" lon="-106.785334570">
        <ele>1644.500</ele>
        <time>2019-07-14T20:18:24Z</time>
      </trkpt>
      <trkpt lat="35.540873660" lon="-106.785271540">
        <ele>1644.400</ele>
        <time>2019-07-14T20:18:25Z</time>
      </trkpt>
      <trkpt lat="35.541149370" lon="-106.785205050">
        <ele>1644.500</ele>
        <time>2019-07-14T20:18:26Z</time>
      </trkpt>
      <trkpt lat="35.541423420" lon="-106.785121200">
        <ele>1644.600</ele>
        <time>2019-07-14T20:18:27Z</time>
      </trkpt>
      <trkpt lat="35.541690120" lon="-106.785015060">
        <ele>1645.000</ele>
        <time>2019-07-14T20:18:28Z</time>
      </trkpt>
      <trkpt lat="35.541947500" lon="-106.784892830">
        <ele>1644.500</ele>
        <time>2019-07-14T20:18:29Z</time>
      </trkpt>
      <trkpt lat="35.542202050" lon="-106.784758670">
        <ele>1645.300</ele>
        <time>2019-07-14T20:18:30Z</time>
      </trkpt>
      <trkpt lat="35.542434060" lon="-106.784590950">
        <ele>1645.400</ele>
        <time>2019-07-14T20:18:31Z</time>
      </trkpt>
      <trkpt lat="35.542671980" lon="-106.784430180">
        <ele>1645.700</ele>
        <time>2019-07-14T20:18:32Z</time>
      </trkpt>
      <trkpt lat="35.542913110" lon="-106.784265460">
        <ele>1646.000</ele>
        <time>2019-07-14T20:18:33Z</time>
      </trkpt>
      <trkpt lat="35.543113370" lon="-106.784091010">
        <ele>1646.100</ele>
        <time>2019-07-14T20:18:34Z</time>
      </trkpt>
      <trkpt lat="35.543340870" lon="-106.783907420">
        <ele>1646.700</ele>
        <time>2019-07-14T20:18:35Z</time>
      </trkpt>
      <trkpt lat="35.543513050" lon="-106.783674700">
        <ele>1646.100</ele>
        <time>2019-07-14T20:18:36Z</time>
      </trkpt>
      <trkpt lat="35.543702610" lon="-106.783457790">
        <ele>1646.600</ele>
        <time>2019-07-14T20:18:37Z</time>
      </trkpt>
      <trkpt lat="35.543858530" lon="-106.783217910">
        <ele>1646.300</ele>
        <time>2019-07-14T20:18:38Z</time>
      </trkpt>
      <trkpt lat="35.544014160" lon="-106.782985000">
        <ele>1646.000</ele>
        <time>2019-07-14T20:18:39Z</time>
      </trkpt>
      <trkpt lat="35.544182280" lon="-106.782736320">
        <ele>1645.700</ele>
        <time>2019-07-14T20:18:40Z</time>
      </trkpt>
      <trkpt lat="35.544346800" lon="-106.782522570">
        <ele>1645.100</ele>
        <time>2019-07-14T20:18:41Z</time>
      </trkpt>
      <trkpt lat="35.544497510" lon="-106.782281510">
        <ele>1644.200</ele>
        <time>2019-07-14T20:18:42Z</time>
      </trkpt>
      <trkpt lat="35.544675040" lon="-106.782042520">
        <ele>1644.700</ele>
        <time>2019-07-14T20:18:43Z</time>
      </trkpt>
      <trkpt lat="35.544856020" lon="-106.781812230">
        <ele>1644.700</ele>
        <time>2019-07-14T20:18:44Z</time>
      </trkpt>
      <trkpt lat="35.545015920" lon="-106.781587340">
        <ele>1644.600</ele>
        <time>2019-07-14T20:18:45Z</time>
      </trkpt>
      <trkpt lat="35.545148020" lon="-106.781370560">
        <ele>1642.800</ele>
        <time>2019-07-14T20:18:46Z</time>
      </trkpt>
      <trkpt lat="35.545325690" lon="-106.781147760">
        <ele>1643.400</ele>
        <time>2019-07-14T20:18:47Z</time>
      </trkpt>
      <trkpt lat="35.545499910" lon="-106.780919350">
        <ele>1644.200</ele>
        <time>2019-07-14T20:18:48Z</time>
      </trkpt>
      <trkpt lat="35.545672820" lon="-106.780730810">
        <ele>1638.200</ele>
        <time>2019-07-14T20:18:49Z</time>
      </trkpt>
      <trkpt lat="35.545825240" lon="-106.780512570">
        <ele>1640.400</ele>
        <time>2019-07-14T20:18:50Z</time>
      </trkpt>
      <trkpt lat="35.545998030" lon="-106.780296450">
        <ele>1641.500</ele>
        <time>2019-07-14T20:18:51Z</time>
      </trkpt>
      <trkpt lat="35.546173310" lon="-106.780100030">
        <ele>1642.600</ele>
        <time>2019-07-14T20:18:52Z</time>
      </trkpt>
      <trkpt lat="35.546350580" lon="-106.779891720">
        <ele>1643.500</ele>
        <time>2019-07-14T20:18:53Z</time>
      </trkpt>
      <trkpt lat="35.546538320" lon="-106.779697150">
        <ele>1643.700</ele>
        <time>2019-07-14T20:18:54Z</time>
      </trkpt>
      <trkpt lat="35.546730540" lon="-106.779525430">
        <ele>1645.500</ele>
        <time>2019-07-14T20:18:55Z</time>
      </trkpt>
      <trkpt lat="35.546919930" lon="-106.779362980">
        <ele>1645.300</ele>
        <time>2019-07-14T20:18:56Z</time>
      </trkpt>
      <trkpt lat="35.547112830" lon="-106.779222600">
        <ele>1645.400</ele>
        <time>2019-07-14T20:18:57Z</time>
      </trkpt>
      <trkpt lat="35.547307680" lon="-106.779096250">
        <ele>1644.600</ele>
        <time>2019-07-14T20:18:58Z</time>
      </trkpt>
      <trkpt lat="35.547507560" lon="-106.778972340">
        <ele>1645.800</ele>
        <time>2019-07-14T20:18:59Z</time>
      </trkpt>
      <trkpt lat="35.547707680" lon="-106.778866200">
        <ele>1646.200</ele>
        <time>2019-07-14T20:19:00Z</time>
      </trkpt>
      <trkpt lat="35.547906390" lon="-106.778765210">
        <ele>1645.700</ele>
        <time>2019-07-14T20:19:01Z</time>
      </trkpt>
      <trkpt lat="35.548110630" lon="-106.778683580">
        <ele>1645.500</ele>
        <time>2019-07-14T20:19:02Z</time>
      </trkpt>
      <trkpt lat="35.548311610" lon="-106.778613480">
        <ele>1646.200</ele>
        <time>2019-07-14T20:19:03Z</time>
      </trkpt>
      <trkpt lat="35.548509990" lon="-106.778550890">
        <ele>1646.200</ele>
        <time>2019-07-14T20:19:04Z</time>
      </trkpt>
      <trkpt lat="35.548702100" lon="-106.778487330">
        <ele>1645.200</ele>
        <time>2019-07-14T20:19:05Z</time>
      </trkpt>
      <trkpt lat="35.548896220" lon="-106.778437530">
        <ele>1645.100</ele>
        <time>2019-07-14T20:19:06Z</time>
      </trkpt>
      <trkpt lat="35.549089520" lon="-106.778395640">
        <ele>1645.300</ele>
        <time>2019-07-14T20:19:07Z</time>
      </trkpt>
      <trkpt lat="35.549285820" lon="-106.778364630">
        <ele>1644.700</ele>
        <time>2019-07-14T20:19:08Z</time>
      </trkpt>
      <trkpt lat="35.549476430" lon="-106.778335870">
        <ele>1644.200</ele>
        <time>2019-07-14T20:19:09Z</time>
      </trkpt>
      <trkpt lat="35.549658930" lon="-106.778322490">
        <ele>1643.900</ele>
        <time>2019-07-14T20:19:10Z</time>
      </trkpt>
      <trkpt lat="35.549842820" lon="-106.778319770">
        <ele>1643.300</ele>
        <time>2019-07-14T20:19:11Z</time>
      </trkpt>
      <trkpt lat="35.550023390" lon="-106.778320140">
        <ele>1643.800</ele>
        <time>2019-07-14T20:19:12Z</time>
      </trkpt>
      <trkpt lat="35.550202230" lon="-106.778326200">
        <ele>1644.600</ele>
        <time>2019-07-14T20:19:13Z</time>
      </trkpt>
      <trkpt lat="35.550378120" lon="-106.778325710">
        <ele>1644.800</ele>
        <time>2019-07-14T20:19:14Z</time>
      </trkpt>
      <trkpt lat="35.550558010" lon="-106.778330070">
        <ele>1645.100</ele>
        <time>2019-07-14T20:19:15Z</time>
      </trkpt>
      <trkpt lat="35.550736580" lon="-106.778340150">
        <ele>1644.900</ele>
        <time>2019-07-14T20:19:16Z</time>
      </trkpt>
      <trkpt lat="35.550914720" lon="-106.778346900">
        <ele>1644.800</ele>
        <time>2019-07-14T20:19:17Z</time>
      </trkpt>
      <trkpt lat="35.551101960" lon="-106.778347590">
        <ele>1645.300</ele>
        <time>2019-07-14T20:19:18Z</time>
      </trkpt>
      <trkpt lat="35.551282120" lon="-106.778342040">
        <ele>1645.300</ele>
        <time>2019-07-14T20:19:19Z</time>
      </trkpt>
      <trkpt lat="35.551460890" lon="-106.778347450">
        <ele>1645.200</ele>
        <time>2019-07-14T20:19:20Z</time>
      </trkpt>
      <trkpt lat="35.551640170" lon="-106.778351980">
        <ele>1645.100</ele>
        <time>2019-07-14T20:19:21Z</time>
      </trkpt>
      <trkpt lat="35.551820970" lon="-106.778355920">
        <ele>1644.900</ele>
        <time>2019-07-14T20:19:22Z</time>
      </trkpt>
      <trkpt lat="35.552005940" lon="-106.778352260">
        <ele>1645.300</ele>
        <time>2019-07-14T20:19:23Z</time>
      </trkpt>
      <trkpt lat="35.552186630" lon="-106.778356840">
        <ele>1646.100</ele>
        <time>2019-07-14T20:19:24Z</time>
      </trkpt>
      <trkpt lat="35.552368710" lon="-106.778364380">
        <ele>1646.500</ele>
        <time>2019-07-14T20:19:25Z</time>
      </trkpt>
      <trkpt lat="35.552541930" lon="-106.778372160">
        <ele>1646.700</ele>
        <time>2019-07-14T20:19:26Z</time>
      </trkpt>
      <trkpt lat="35.552719290" lon="-106.778395090">
        <ele>1646.800</ele>
        <time>2019-07-14T20:19:27Z</time>
      </trkpt>
      <trkpt lat="35.552900790" lon="-106.778414550">
        <ele>1646.500</ele>
        <time>2019-07-14T20:19:28Z</time>
      </trkpt>
      <trkpt lat="35.553081410" lon="-106.778441920">
        <ele>1646.300</ele>
        <time>2019-07-14T20:19:29Z</time>
      </trkpt>
      <trkpt lat="35.553252330" lon="-106.778476930">
        <ele>1646.600</ele>
        <time>2019-07-14T20:19:30Z</time>
      </trkpt>
      <trkpt lat="35.553424660" lon="-106.778523120">
        <ele>1646.600</ele>
        <time>2019-07-14T20:19:31Z</time>
      </trkpt>
      <trkpt lat="35.553591760" lon="-106.778576490">
        <ele>1646.800</ele>
        <time>2019-07-14T20:19:32Z</time>
      </trkpt>
      <trkpt lat="35.553753990" lon="-106.778636200">
        <ele>1647.100</ele>
        <time>2019-07-14T20:19:33Z</time>
      </trkpt>
      <trkpt lat="35.553910230" lon="-106.778704220">
        <ele>1646.100</ele>
        <time>2019-07-14T20:19:34Z</time>
      </trkpt>
      <trkpt lat="35.554069710" lon="-106.778773550">
        <ele>1646.200</ele>
        <time>2019-07-14T20:19:35Z</time>
      </trkpt>
      <trkpt lat="35.554217740" lon="-106.778839490">
        <ele>1646.200</ele>
        <time>2019-07-14T20:19:36Z</time>
      </trkpt>
      <trkpt lat="35.554367590" lon="-106.778912850">
        <ele>1646.100</ele>
        <time>2019-07-14T20:19:37Z</time>
      </trkpt>
      <trkpt lat="35.554506030" lon="-106.778991950">
        <ele>1646.000</ele>
        <time>2019-07-14T20:19:38Z</time>
      </trkpt>
      <trkpt lat="35.554638680" lon="-106.779070020">
        <ele>1645.700</ele>
        <time>2019-07-14T20:19:39Z</time>
      </trkpt>
      <trkpt lat="35.554774640" lon="-106.779143470">
        <ele>1645.700</ele>
        <time>2019-07-14T20:19:40Z</time>
      </trkpt>
      <trkpt lat="35.554906280" lon="-106.779204140">
        <ele>1645.800</ele>
        <time>2019-07-14T20:19:41Z</time>
      </trkpt>
      <trkpt lat="35.555033100" lon="-106.779255490">
        <ele>1645.400</ele>
        <time>2019-07-14T20:19:42Z</time>
      </trkpt>
      <trkpt lat="35.555164170" lon="-106.779263120">
        <ele>1645.100</ele>
        <time>2019-07-14T20:19:43Z</time>
      </trkpt>
      <trkpt lat="35.555287230" lon="-106.779247200">
        <ele>1645.100</ele>
        <time>2019-07-14T20:19:44Z</time>
      </trkpt>
      <trkpt lat="35.555407040" lon="-106.779226160">
        <ele>1645.300</ele>
        <time>2019-07-14T20:19:45Z</time>
      </trkpt>
      <trkpt lat="35.555500740" lon="-106.779144050">
        <ele>1644.200</ele>
        <time>2019-07-14T20:19:46Z</time>
      </trkpt>
      <trkpt lat="35.555592890" lon="-106.779051410">
        <ele>1644.500</ele>
        <time>2019-07-14T20:19:47Z</time>
      </trkpt>
      <trkpt lat="35.555656080" lon="-106.778943740">
        <ele>1644.200</ele>
        <time>2019-07-14T20:19:48Z</time>
      </trkpt>
      <trkpt lat="35.555738020" lon="-106.778819750">
        <ele>1645.000</ele>
        <time>2019-07-14T20:19:49Z</time>
      </trkpt>
      <trkpt lat="35.555804910" lon="-106.778697940">
        <ele>1645.400</ele>
        <time>2019-07-14T20:19:50Z</time>
      </trkpt>
      <trkpt lat="35.555854790" lon="-106.778546090">
        <ele>1645.200</ele>
        <time>2019-07-14T20:19:51Z</time>
      </trkpt>
      <trkpt lat="35.555909410" lon="-106.778385140">
        <ele>1644.300</ele>
        <time>2019-07-14T20:19:52Z</time>
      </trkpt>
      <trkpt lat="35.555967610" lon="-106.778221470">
        <ele>1644.200</ele>
        <time>2019-07-14T20:19:53Z</time>
      </trkpt>
      <trkpt lat="35.556017460" lon="-106.778058270">
        <ele>1643.900</ele>
        <time>2019-07-14T20:19:54Z</time>
      </trkpt>
      <trkpt lat="35.556053250" lon="-106.777891320">
        <ele>1644.000</ele>
        <time>2019-07-14T20:19:55Z</time>
      </trkpt>
      <trkpt lat="35.556086000" lon="-106.777720620">
        <ele>1644.200</ele>
        <time>2019-07-14T20:19:56Z</time>
      </trkpt>
      <trkpt lat="35.556110580" lon="-106.777541990">
        <ele>1644.300</ele>
        <time>2019-07-14T20:19:57Z</time>
      </trkpt>
      <trkpt lat="35.556113490" lon="-106.777351150">
        <ele>1643.900</ele>
        <time>2019-07-14T20:19:58Z</time>
      </trkpt>
      <trkpt lat="35.556109720" lon="-106.777169740">
        <ele>1643.300</ele>
        <time>2019-07-14T20:19:59Z</time>
      </trkpt>
      <trkpt lat="35.556092410" lon="-106.776985710">
        <ele>1642.800</ele>
        <time>2019-07-14T20:20:00Z</time>
      </trkpt>
      <trkpt lat="35.556074400" lon="-106.776787800">
        <ele>1642.400</ele>
        <time>2019-07-14T20:20:01Z</time>
      </trkpt>
      <trkpt lat="35.556055930" lon="-106.776584640">
        <ele>1642.500</ele>
        <time>2019-07-14T20:20:02Z</time>
      </trkpt>
      <trkpt lat="35.556049710" lon="-106.776380000">
        <ele>1642.900</ele>
        <time>2019-07-14T20:20:03Z</time>
      </trkpt>
      <trkpt lat="35.556054690" lon="-106.776176330">
        <ele>1643.100</ele>
        <time>2019-07-14T20:20:04Z</time>
      </trkpt>
      <trkpt lat="35.556056560" lon="-106.775982450">
        <ele>1642.500</ele>
        <time>2019-07-14T20:20:05Z</time>
      </trkpt>
      <trkpt lat="35.556078600" lon="-106.775790850">
        <ele>1643.500</ele>
        <time>2019-07-14T20:20:06Z</time>
      </trkpt>
      <trkpt lat="35.556106390" lon="-106.775596110">
        <ele>1642.900</ele>
        <time>2019-07-14T20:20:07Z</time>
      </trkpt>
      <trkpt lat="35.556143600" lon="-106.775399800">
        <ele>1643.100</ele>
        <time>2019-07-14T20:20:08Z</time>
      </trkpt>
      <trkpt lat="35.556194350" lon="-106.775209370">
        <ele>1643.000</ele>
        <time>2019-07-14T20:20:09Z</time>
      </trkpt>
      <trkpt lat="35.556253920" lon="-106.775019380">
        <ele>1643.000</ele>
        <time>2019-07-14T20:20:10Z</time>
      </trkpt>
      <trkpt lat="35.556318210" lon="-106.774825010">
        <ele>1642.600</ele>
        <time>2019-07-14T20:20:11Z</time>
      </trkpt>
      <trkpt lat="35.556381670" lon="-106.774633350">
        <ele>1641.700</ele>
        <time>2019-07-14T20:20:12Z</time>
      </trkpt>
      <trkpt lat="35.556444760" lon="-106.774447150">
        <ele>1642.600</ele>
        <time>2019-07-14T20:20:13Z</time>
      </trkpt>
      <trkpt lat="35.556518270" lon="-106.774262340">
        <ele>1642.400</ele>
        <time>2019-07-14T20:20:14Z</time>
      </trkpt>
      <trkpt lat="35.556601260" lon="-106.774086910">
        <ele>1642.700</ele>
        <time>2019-07-14T20:20:15Z</time>
      </trkpt>
      <trkpt lat="35.556680440" lon="-106.773922870">
        <ele>1642.300</ele>
        <time>2019-07-14T20:20:16Z</time>
      </trkpt>
      <trkpt lat="35.556766910" lon="-106.773759730">
        <ele>1641.900</ele>
        <time>2019-07-14T20:20:17Z</time>
      </trkpt>
      <trkpt lat="35.556863380" lon="-106.773606910">
        <ele>1641.700</ele>
        <time>2019-07-14T20:20:18Z</time>
      </trkpt>
      <trkpt lat="35.556963190" lon="-106.773457020">
        <ele>1641.500</ele>
        <time>2019-07-14T20:20:19Z</time>
      </trkpt>
      <trkpt lat="35.557060680" lon="-106.773311690">
        <ele>1641.600</ele>
        <time>2019-07-14T20:20:20Z</time>
      </trkpt>
      <trkpt lat="35.557162680" lon="-106.773192350">
        <ele>1641.200</ele>
        <time>2019-07-14T20:20:21Z</time>
      </trkpt>
      <trkpt lat="35.557259330" lon="-106.773060650">
        <ele>1641.100</ele>
        <time>2019-07-14T20:20:22Z</time>
      </trkpt>
      <trkpt lat="35.557384380" lon="-106.772948680">
        <ele>1641.300</ele>
        <time>2019-07-14T20:20:23Z</time>
      </trkpt>
      <trkpt lat="35.557524330" lon="-106.772839810">
        <ele>1642.500</ele>
        <time>2019-07-14T20:20:24Z</time>
      </trkpt>
      <trkpt lat="35.557655710" lon="-106.772725860">
        <ele>1643.100</ele>
        <time>2019-07-14T20:20:25Z</time>
      </trkpt>
      <trkpt lat="35.557768160" lon="-106.772623680">
        <ele>1642.200</ele>
        <time>2019-07-14T20:20:26Z</time>
      </trkpt>
      <trkpt lat="35.557897070" lon="-106.772512880">
        <ele>1642.400</ele>
        <time>2019-07-14T20:20:27Z</time>
      </trkpt>
      <trkpt lat="35.558025980" lon="-106.772400690">
        <ele>1642.300</ele>
        <time>2019-07-14T20:20:28Z</time>
      </trkpt>
      <trkpt lat="35.558156300" lon="-106.772305020">
        <ele>1642.500</ele>
        <time>2019-07-14T20:20:29Z</time>
      </trkpt>
      <trkpt lat="35.558288820" lon="-106.772194990">
        <ele>1643.500</ele>
        <time>2019-07-14T20:20:30Z</time>
      </trkpt>
      <trkpt lat="35.558429540" lon="-106.772087570">
        <ele>1645.300</ele>
        <time>2019-07-14T20:20:31Z</time>
      </trkpt>
      <trkpt lat="35.558560460" lon="-106.771976860">
        <ele>1645.400</ele>
        <time>2019-07-14T20:20:32Z</time>
      </trkpt>
      <trkpt lat="35.558679920" lon="-106.771860470">
        <ele>1645.500</ele>
        <time>2019-07-14T20:20:33Z</time>
      </trkpt>
      <trkpt lat="35.558819070" lon="-106.771756510">
        <ele>1646.700</ele>
        <time>2019-07-14T20:20:34Z</time>
      </trkpt>
      <trkpt lat="35.558959130" lon="-106.771656300">
        <ele>1648.000</ele>
        <time>2019-07-14T20:20:35Z</time>
      </trkpt>
      <trkpt lat="35.559085400" lon="-106.771554370">
        <ele>1647.700</ele>
        <time>2019-07-14T20:20:36Z</time>
      </trkpt>
      <trkpt lat="35.559228510" lon="-106.771452330">
        <ele>1649.100</ele>
        <time>2019-07-14T20:20:37Z</time>
      </trkpt>
      <trkpt lat="35.559353260" lon="-106.771355900">
        <ele>1648.800</ele>
        <time>2019-07-14T20:20:38Z</time>
      </trkpt>
      <trkpt lat="35.559487870" lon="-106.771243430">
        <ele>1649.100</ele>
        <time>2019-07-14T20:20:39Z</time>
      </trkpt>
      <trkpt lat="35.559614950" lon="-106.771154580">
        <ele>1648.700</ele>
        <time>2019-07-14T20:20:40Z</time>
      </trkpt>
      <trkpt lat="35.559765050" lon="-106.771092410">
        <ele>1649.700</ele>
        <time>2019-07-14T20:20:41Z</time>
      </trkpt>
      <trkpt lat="35.559905440" lon="-106.771010140">
        <ele>1649.700</ele>
        <time>2019-07-14T20:20:42Z</time>
      </trkpt>
      <trkpt lat="35.560034970" lon="-106.770938970">
        <ele>1649.000</ele>
        <time>2019-07-14T20:20:43Z</time>
      </trkpt>
      <trkpt lat="35.560180980" lon="-106.770876240">
        <ele>1648.600</ele>
        <time>2019-07-14T20:20:44Z</time>
      </trkpt>
      <trkpt lat="35.560330170" lon="-106.770823700">
        <ele>1648.400</ele>
        <time>2019-07-14T20:20:45Z</time>
      </trkpt>
      <trkpt lat="35.560485890" lon="-106.770791230">
        <ele>1648.000</ele>
        <time>2019-07-14T20:20:46Z</time>
      </trkpt>
      <trkpt lat="35.560636760" lon="-106.770755430">
        <ele>1648.500</ele>
        <time>2019-07-14T20:20:47Z</time>
      </trkpt>
      <trkpt lat="35.560790870" lon="-106.770734570">
        <ele>1648.300</ele>
        <time>2019-07-14T20:20:48Z</time>
      </trkpt>
      <trkpt lat="35.560940310" lon="-106.770697300">
        <ele>1646.800</ele>
        <time>2019-07-14T20:20:49Z</time>
      </trkpt>
      <trkpt lat="35.561088020" lon="-106.770667350">
        <ele>1644.800</ele>
        <time>2019-07-14T20:20:50Z</time>
      </trkpt>
      <trkpt lat="35.561250810" lon="-106.770653100">
        <ele>1644.500</ele>
        <time>2019-07-14T20:20:51Z</time>
      </trkpt>
      <trkpt lat="35.561391770" lon="-106.770630070">
        <ele>1642.700</ele>
        <time>2019-07-14T20:20:52Z</time>
      </trkpt>
      <trkpt lat="35.561539220" lon="-106.770606970">
        <ele>1642.500</ele>
        <time>2019-07-14T20:20:53Z</time>
      </trkpt>
      <trkpt lat="35.561692980" lon="-106.770585970">
        <ele>1643.200</ele>
        <time>2019-07-14T20:20:54Z</time>
      </trkpt>
      <trkpt lat="35.561848480" lon="-106.770563430">
        <ele>1643.500</ele>
        <time>2019-07-14T20:20:55Z</time>
      </trkpt>
      <trkpt lat="35.561996170" lon="-106.770541400">
        <ele>1643.100</ele>
        <time>2019-07-14T20:20:56Z</time>
      </trkpt>
      <trkpt lat="35.562149430" lon="-106.770524000">
        <ele>1643.800</ele>
        <time>2019-07-14T20:20:57Z</time>
      </trkpt>
      <trkpt lat="35.562299600" lon="-106.770501850">
        <ele>1643.900</ele>
        <time>2019-07-14T20:20:58Z</time>
      </trkpt>
      <trkpt lat="35.562457980" lon="-106.770484090">
        <ele>1644.600</ele>
        <time>2019-07-14T20:20:59Z</time>
      </trkpt>
      <trkpt lat="35.562610760" lon="-106.770472880">
        <ele>1644.700</ele>
        <time>2019-07-14T20:21:00Z</time>
      </trkpt>
      <trkpt lat="35.562764630" lon="-106.770458340">
        <ele>1644.000</ele>
        <time>2019-07-14T20:21:01Z</time>
      </trkpt>
      <trkpt lat="35.562912370" lon="-106.770441170">
        <ele>1642.300</ele>
        <time>2019-07-14T20:21:02Z</time>
      </trkpt>
      <trkpt lat="35.563072500" lon="-106.770413880">
        <ele>1641.600</ele>
        <time>2019-07-14T20:21:03Z</time>
      </trkpt>
      <trkpt lat="35.563228590" lon="-106.770372100">
        <ele>1642.900</ele>
        <time>2019-07-14T20:21:04Z</time>
      </trkpt>
      <trkpt lat="35.563378220" lon="-106.770313270">
        <ele>1643.000</ele>
        <time>2019-07-14T20:21:05Z</time>
      </trkpt>
      <trkpt lat="35.563516790" lon="-106.770234620">
        <ele>1642.500</ele>
        <time>2019-07-14T20:21:06Z</time>
      </trkpt>
      <trkpt lat="35.563656190" lon="-106.770140660">
        <ele>1642.400</ele>
        <time>2019-07-14T20:21:07Z</time>
      </trkpt>
      <trkpt lat="35.563774460" lon="-106.770027080">
        <ele>1644.600</ele>
        <time>2019-07-14T20:21:08Z</time>
      </trkpt>
      <trkpt lat="35.563900710" lon="-106.769914230">
        <ele>1644.700</ele>
        <time>2019-07-14T20:21:09Z</time>
      </trkpt>
      <trkpt lat="35.564016560" lon="-106.769782760">
        <ele>1644.900</ele>
        <time>2019-07-14T20:21:10Z</time>
      </trkpt>
      <trkpt lat="35.564114940" lon="-106.769649430">
        <ele>1644.700</ele>
        <time>2019-07-14T20:21:11Z</time>
      </trkpt>
      <trkpt lat="35.564234340" lon="-106.769532150">
        <ele>1644.200</ele>
        <time>2019-07-14T20:21:12Z</time>
      </trkpt>
      <trkpt lat="35.564353490" lon="-106.769400340">
        <ele>1645.400</ele>
        <time>2019-07-14T20:21:13Z</time>
      </trkpt>
      <trkpt lat="35.564472280" lon="-106.769269620">
        <ele>1645.400</ele>
        <time>2019-07-14T20:21:14Z</time>
      </trkpt>
      <trkpt lat="35.564583470" lon="-106.769149500">
        <ele>1645.500</ele>
        <time>2019-07-14T20:21:15Z</time>
      </trkpt>
      <trkpt lat="35.564683840" lon="-106.769018120">
        <ele>1645.300</ele>
        <time>2019-07-14T20:21:16Z</time>
      </trkpt>
      <trkpt lat="35.564795500" lon="-106.768911070">
        <ele>1644.800</ele>
        <time>2019-07-14T20:21:17Z</time>
      </trkpt>
      <trkpt lat="35.564916570" lon="-106.768802080">
        <ele>1644.500</ele>
        <time>2019-07-14T20:21:18Z</time>
      </trkpt>
      <trkpt lat="35.565069700" lon="-106.768691420">
        <ele>1647.400</ele>
        <time>2019-07-14T20:21:19Z</time>
      </trkpt>
      <trkpt lat="35.565215040" lon="-106.768614230">
        <ele>1648.800</ele>
        <time>2019-07-14T20:21:20Z</time>
      </trkpt>
      <trkpt lat="35.565356500" lon="-106.768522590">
        <ele>1648.500</ele>
        <time>2019-07-14T20:21:21Z</time>
      </trkpt>
      <trkpt lat="35.565495860" lon="-106.768438630">
        <ele>1648.800</ele>
        <time>2019-07-14T20:21:22Z</time>
      </trkpt>
      <trkpt lat="35.565635840" lon="-106.768354790">
        <ele>1650.100</ele>
        <time>2019-07-14T20:21:23Z</time>
      </trkpt>
      <trkpt lat="35.565771750" lon="-106.768277130">
        <ele>1649.300</ele>
        <time>2019-07-14T20:21:24Z</time>
      </trkpt>
      <trkpt lat="35.565912210" lon="-106.768205480">
        <ele>1648.700</ele>
        <time>2019-07-14T20:21:25Z</time>
      </trkpt>
      <trkpt lat="35.566053940" lon="-106.768128900">
        <ele>1648.500</ele>
        <time>2019-07-14T20:21:26Z</time>
      </trkpt>
      <trkpt lat="35.566209100" lon="-106.768048500">
        <ele>1650.100</ele>
        <time>2019-07-14T20:21:27Z</time>
      </trkpt>
      <trkpt lat="35.566362800" lon="-106.767966160">
        <ele>1650.800</ele>
        <time>2019-07-14T20:21:28Z</time>
      </trkpt>
      <trkpt lat="35.566506460" lon="-106.767888720">
        <ele>1651.100</ele>
        <time>2019-07-14T20:21:29Z</time>
      </trkpt>
      <trkpt lat="35.566662490" lon="-106.767807450">
        <ele>1652.400</ele>
        <time>2019-07-14T20:21:30Z</time>
      </trkpt>
      <trkpt lat="35.566815000" lon="-106.767722680">
        <ele>1652.100</ele>
        <time>2019-07-14T20:21:31Z</time>
      </trkpt>
      <trkpt lat="35.566964930" lon="-106.767638120">
        <ele>1653.000</ele>
        <time>2019-07-14T20:21:32Z</time>
      </trkpt>
      <trkpt lat="35.567110850" lon="-106.767537660">
        <ele>1653.700</ele>
        <time>2019-07-14T20:21:33Z</time>
      </trkpt>
      <trkpt lat="35.567249710" lon="-106.767427520">
        <ele>1652.100</ele>
        <time>2019-07-14T20:21:34Z</time>
      </trkpt>
      <trkpt lat="35.567362310" lon="-106.767300530">
        <ele>1649.300</ele>
        <time>2019-07-14T20:21:35Z</time>
      </trkpt>
      <trkpt lat="35.567486910" lon="-106.767180770">
        <ele>1648.200</ele>
        <time>2019-07-14T20:21:36Z</time>
      </trkpt>
      <trkpt lat="35.567611930" lon="-106.767044010">
        <ele>1648.500</ele>
        <time>2019-07-14T20:21:37Z</time>
      </trkpt>
      <trkpt lat="35.567725190" lon="-106.766904080">
        <ele>1647.800</ele>
        <time>2019-07-14T20:21:38Z</time>
      </trkpt>
      <trkpt lat="35.567837900" lon="-106.766757680">
        <ele>1648.300</ele>
        <time>2019-07-14T20:21:39Z</time>
      </trkpt>
      <trkpt lat="35.567953580" lon="-106.766605910">
        <ele>1648.400</ele>
        <time>2019-07-14T20:21:40Z</time>
      </trkpt>
      <trkpt lat="35.568091340" lon="-106.766491250">
        <ele>1648.600</ele>
        <time>2019-07-14T20:21:41Z</time>
      </trkpt>
      <trkpt lat="35.568187660" lon="-106.766326980">
        <ele>1647.600</ele>
        <time>2019-07-14T20:21:42Z</time>
      </trkpt>
      <trkpt lat="35.568295350" lon="-106.766179000">
        <ele>1646.900</ele>
        <time>2019-07-14T20:21:43Z</time>
      </trkpt>
      <trkpt lat="35.568416870" lon="-106.766030800">
        <ele>1645.300</ele>
        <time>2019-07-14T20:21:44Z</time>
      </trkpt>
      <trkpt lat="35.568536100" lon="-106.765862200">
        <ele>1646.200</ele>
        <time>2019-07-14T20:21:45Z</time>
      </trkpt>
      <trkpt lat="35.568650430" lon="-106.765709810">
        <ele>1646.500</ele>
        <time>2019-07-14T20:21:46Z</time>
      </trkpt>
      <trkpt lat="35.568782220" lon="-106.765529510">
        <ele>1646.000</ele>
        <time>2019-07-14T20:21:47Z</time>
      </trkpt>
      <trkpt lat="35.568941890" lon="-106.765350770">
        <ele>1644.800</ele>
        <time>2019-07-14T20:21:48Z</time>
      </trkpt>
      <trkpt lat="35.569078670" lon="-106.765180320">
        <ele>1646.400</ele>
        <time>2019-07-14T20:21:49Z</time>
      </trkpt>
      <trkpt lat="35.569199060" lon="-106.765019030">
        <ele>1646.900</ele>
        <time>2019-07-14T20:21:50Z</time>
      </trkpt>
      <trkpt lat="35.569333280" lon="-106.764864320">
        <ele>1646.800</ele>
        <time>2019-07-14T20:21:51Z</time>
      </trkpt>
      <trkpt lat="35.569456020" lon="-106.764704440">
        <ele>1646.600</ele>
        <time>2019-07-14T20:21:52Z</time>
      </trkpt>
      <trkpt lat="35.569576180" lon="-106.764553130">
        <ele>1647.100</ele>
        <time>2019-07-14T20:21:53Z</time>
      </trkpt>
      <trkpt lat="35.569708320" lon="-106.764393630">
        <ele>1648.300</ele>
        <time>2019-07-14T20:21:54Z</time>
      </trkpt>
      <trkpt lat="35.569841960" lon="-106.764247150">
        <ele>1648.500</ele>
        <time>2019-07-14T20:21:55Z</time>
      </trkpt>
      <trkpt lat="35.569969690" lon="-106.764079220">
        <ele>1648.900</ele>
        <time>2019-07-14T20:21:56Z</time>
      </trkpt>
      <trkpt lat="35.570111070" lon="-106.763904760">
        <ele>1649.400</ele>
        <time>2019-07-14T20:21:57Z</time>
      </trkpt>
      <trkpt lat="35.570230290" lon="-106.763746730">
        <ele>1648.600</ele>
        <time>2019-07-14T20:21:58Z</time>
      </trkpt>
      <trkpt lat="35.570354210" lon="-106.763580510">
        <ele>1648.300</ele>
        <time>2019-07-14T20:21:59Z</time>
      </trkpt>
      <trkpt lat="35.570475760" lon="-106.763431890">
        <ele>1649.500</ele>
        <time>2019-07-14T20:22:00Z</time>
      </trkpt>
      <trkpt lat="35.570576990" lon="-106.763257120">
        <ele>1647.900</ele>
        <time>2019-07-14T20:22:01Z</time>
      </trkpt>
      <trkpt lat="35.570711750" lon="-106.763098440">
        <ele>1647.700</ele>
        <time>2019-07-14T20:22:02Z</time>
      </trkpt>
      <trkpt lat="35.570842770" lon="-106.762936790">
        <ele>1647.800</ele>
        <time>2019-07-14T20:22:03Z</time>
      </trkpt>
      <trkpt lat="35.570974020" lon="-106.762763200">
        <ele>1648.500</ele>
        <time>2019-07-14T20:22:04Z</time>
      </trkpt>
      <trkpt lat="35.571081170" lon="-106.762600680">
        <ele>1648.300</ele>
        <time>2019-07-14T20:22:05Z</time>
      </trkpt>
      <trkpt lat="35.571214040" lon="-106.762431150">
        <ele>1648.700</ele>
        <time>2019-07-14T20:22:06Z</time>
      </trkpt>
      <trkpt lat="35.571335820" lon="-106.762262000">
        <ele>1648.600</ele>
        <time>2019-07-14T20:22:07Z</time>
      </trkpt>
      <trkpt lat="35.571451880" lon="-106.762087790">
        <ele>1648.300</ele>
        <time>2019-07-14T20:22:08Z</time>
      </trkpt>
      <trkpt lat="35.571586820" lon="-106.761892800">
        <ele>1647.600</ele>
        <time>2019-07-14T20:22:09Z</time>
      </trkpt>
      <trkpt lat="35.571700510" lon="-106.761708510">
        <ele>1648.800</ele>
        <time>2019-07-14T20:22:10Z</time>
      </trkpt>
      <trkpt lat="35.571833530" lon="-106.761503820">
        <ele>1648.100</ele>
        <time>2019-07-14T20:22:11Z</time>
      </trkpt>
      <trkpt lat="35.571952950" lon="-106.761310890">
        <ele>1649.400</ele>
        <time>2019-07-14T20:22:12Z</time>
      </trkpt>
      <trkpt lat="35.572072730" lon="-106.761108300">
        <ele>1649.600</ele>
        <time>2019-07-14T20:22:13Z</time>
      </trkpt>
      <trkpt lat="35.572181360" lon="-106.760901050">
        <ele>1649.500</ele>
        <time>2019-07-14T20:22:14Z</time>
      </trkpt>
      <trkpt lat="35.572282810" lon="-106.760693290">
        <ele>1649.800</ele>
        <time>2019-07-14T20:22:15Z</time>
      </trkpt>
      <trkpt lat="35.572388560" lon="-106.760482520">
        <ele>1650.300</ele>
        <time>2019-07-14T20:22:16Z</time>
      </trkpt>
      <trkpt lat="35.572483330" lon="-106.760262500">
        <ele>1651.100</ele>
        <time>2019-07-14T20:22:17Z</time>
      </trkpt>
      <trkpt lat="35.572576410" lon="-106.760048860">
        <ele>1651.100</ele>
        <time>2019-07-14T20:22:18Z</time>
      </trkpt>
      <trkpt lat="35.572642450" lon="-106.759823380">
        <ele>1650.700</ele>
        <time>2019-07-14T20:22:19Z</time>
      </trkpt>
      <trkpt lat="35.572731200" lon="-106.759597290">
        <ele>1649.800</ele>
        <time>2019-07-14T20:22:20Z</time>
      </trkpt>
      <trkpt lat="35.572813420" lon="-106.759363900">
        <ele>1650.200</ele>
        <time>2019-07-14T20:22:21Z</time>
      </trkpt>
      <trkpt lat="35.572899210" lon="-106.759133210">
        <ele>1650.200</ele>
        <time>2019-07-14T20:22:22Z</time>
      </trkpt>
      <trkpt lat="35.572991340" lon="-106.758899810">
        <ele>1651.300</ele>
        <time>2019-07-14T20:22:23Z</time>
      </trkpt>
      <trkpt lat="35.573084900" lon="-106.758669370">
        <ele>1651.800</ele>
        <time>2019-07-14T20:22:24Z</time>
      </trkpt>
      <trkpt lat="35.573170860" lon="-106.758439270">
        <ele>1652.000</ele>
        <time>2019-07-14T20:22:25Z</time>
      </trkpt>
      <trkpt lat="35.573258700" lon="-106.758207660">
        <ele>1652.200</ele>
        <time>2019-07-14T20:22:26Z</time>
      </trkpt>
      <trkpt lat="35.573346360" lon="-106.757974390">
        <ele>1653.000</ele>
        <time>2019-07-14T20:22:27Z</time>
      </trkpt>
      <trkpt lat="35.573431790" lon="-106.757745860">
        <ele>1652.900</ele>
        <time>2019-07-14T20:22:28Z</time>
      </trkpt>
      <trkpt lat="35.573512070" lon="-106.757513130">
        <ele>1652.700</ele>
        <time>2019-07-14T20:22:29Z</time>
      </trkpt>
      <trkpt lat="35.573597550" lon="-106.757283010">
        <ele>1653.200</ele>
        <time>2019-07-14T20:22:30Z</time>
      </trkpt>
      <trkpt lat="35.573693220" lon="-106.757050980">
        <ele>1653.500</ele>
        <time>2019-07-14T20:22:31Z</time>
      </trkpt>
      <trkpt lat="35.573790720" lon="-106.756828910">
        <ele>1653.800</ele>
        <time>2019-07-14T20:22:32Z</time>
      </trkpt>
      <trkpt lat="35.573896970" lon="-106.756614830">
        <ele>1652.300</ele>
        <time>2019-07-14T20:22:33Z</time>
      </trkpt>
      <trkpt lat="35.574012440" lon="-106.756403410">
        <ele>1652.100</ele>
        <time>2019-07-14T20:22:34Z</time>
      </trkpt>
      <trkpt lat="35.574135350" lon="-106.756180710">
        <ele>1650.800</ele>
        <time>2019-07-14T20:22:35Z</time>
      </trkpt>
      <trkpt lat="35.574264080" lon="-106.755967910">
        <ele>1650.800</ele>
        <time>2019-07-14T20:22:36Z</time>
      </trkpt>
      <trkpt lat="35.574392230" lon="-106.755763330">
        <ele>1650.800</ele>
        <time>2019-07-14T20:22:37Z</time>
      </trkpt>
      <trkpt lat="35.574531030" lon="-106.755568950">
        <ele>1651.000</ele>
        <time>2019-07-14T20:22:38Z</time>
      </trkpt>
      <trkpt lat="35.574670100" lon="-106.755373360">
        <ele>1651.100</ele>
        <time>2019-07-14T20:22:39Z</time>
      </trkpt>
      <trkpt lat="35.574823580" lon="-106.755180140">
        <ele>1651.800</ele>
        <time>2019-07-14T20:22:40Z</time>
      </trkpt>
      <trkpt lat="35.574971860" lon="-106.755015120">
        <ele>1651.400</ele>
        <time>2019-07-14T20:22:41Z</time>
      </trkpt>
      <trkpt lat="35.575128530" lon="-106.754834910">
        <ele>1651.100</ele>
        <time>2019-07-14T20:22:42Z</time>
      </trkpt>
      <trkpt lat="35.575295590" lon="-106.754668750">
        <ele>1651.500</ele>
        <time>2019-07-14T20:22:43Z</time>
      </trkpt>
      <trkpt lat="35.575474300" lon="-106.754516370">
        <ele>1652.000</ele>
        <time>2019-07-14T20:22:44Z</time>
      </trkpt>
      <trkpt lat="35.575651730" lon="-106.754369290">
        <ele>1651.600</ele>
        <time>2019-07-14T20:22:45Z</time>
      </trkpt>
      <trkpt lat="35.575837540" lon="-106.754241200">
        <ele>1650.600</ele>
        <time>2019-07-14T20:22:46Z</time>
      </trkpt>
      <trkpt lat="35.576021600" lon="-106.754083760">
        <ele>1650.900</ele>
        <time>2019-07-14T20:22:47Z</time>
      </trkpt>
      <trkpt lat="35.576203210" lon="-106.753922440">
        <ele>1651.500</ele>
        <time>2019-07-14T20:22:48Z</time>
      </trkpt>
      <trkpt lat="35.576376940" lon="-106.753775930">
        <ele>1651.900</ele>
        <time>2019-07-14T20:22:49Z</time>
      </trkpt>
      <trkpt lat="35.576552330" lon="-106.753634340">
        <ele>1652.500</ele>
        <time>2019-07-14T20:22:50Z</time>
      </trkpt>
      <trkpt lat="35.576735110" lon="-106.753481650">
        <ele>1653.900</ele>
        <time>2019-07-14T20:22:51Z</time>
      </trkpt>
      <trkpt lat="35.576915660" lon="-106.753338000">
        <ele>1654.300</ele>
        <time>2019-07-14T20:22:52Z</time>
      </trkpt>
      <trkpt lat="35.577086960" lon="-106.753182570">
        <ele>1654.400</ele>
        <time>2019-07-14T20:22:53Z</time>
      </trkpt>
      <trkpt lat="35.577253600" lon="-106.753031790">
        <ele>1653.200</ele>
        <time>2019-07-14T20:22:54Z</time>
      </trkpt>
      <trkpt lat="35.577439620" lon="-106.752882280">
        <ele>1654.100</ele>
        <time>2019-07-14T20:22:55Z</time>
      </trkpt>
      <trkpt lat="35.577616690" lon="-106.752733140">
        <ele>1654.100</ele>
        <time>2019-07-14T20:22:56Z</time>
      </trkpt>
      <trkpt lat="35.577790240" lon="-106.752574250">
        <ele>1654.000</ele>
        <time>2019-07-14T20:22:57Z</time>
      </trkpt>
      <trkpt lat="35.577972660" lon="-106.752429380">
        <ele>1654.200</ele>
        <time>2019-07-14T20:22:58Z</time>
      </trkpt>
      <trkpt lat="35.578157010" lon="-106.752284480">
        <ele>1654.700</ele>
        <time>2019-07-14T20:22:59Z</time>
      </trkpt>
      <trkpt lat="35.578339750" lon="-106.752137340">
        <ele>1655.600</ele>
        <time>2019-07-14T20:23:00Z</time>
      </trkpt>
      <trkpt lat="35.578515590" lon="-106.751992670">
        <ele>1654.200</ele>
        <time>2019-07-14T20:23:01Z</time>
      </trkpt>
      <trkpt lat="35.578695380" lon="-106.751838930">
        <ele>1654.000</ele>
        <time>2019-07-14T20:23:02Z</time>
      </trkpt>
      <trkpt lat="35.578875320" lon="-106.751689450">
        <ele>1653.300</ele>
        <time>2019-07-14T20:23:03Z</time>
      </trkpt>
      <trkpt lat="35.579056040" lon="-106.751532930">
        <ele>1653.500</ele>
        <time>2019-07-14T20:23:04Z</time>
      </trkpt>
      <trkpt lat="35.579239700" lon="-106.751383820">
        <ele>1653.500</ele>
        <time>2019-07-14T20:23:05Z</time>
      </trkpt>
      <trkpt lat="35.579425930" lon="-106.751222760">
        <ele>1653.800</ele>
        <time>2019-07-14T20:23:06Z</time>
      </trkpt>
      <trkpt lat="35.579600650" lon="-106.751070070">
        <ele>1652.900</ele>
        <time>2019-07-14T20:23:07Z</time>
      </trkpt>
      <trkpt lat="35.579780190" lon="-106.750932360">
        <ele>1652.800</ele>
        <time>2019-07-14T20:23:08Z</time>
      </trkpt>
      <trkpt lat="35.579955980" lon="-106.750787990">
        <ele>1652.700</ele>
        <time>2019-07-14T20:23:09Z</time>
      </trkpt>
      <trkpt lat="35.580130340" lon="-106.750643770">
        <ele>1653.100</ele>
        <time>2019-07-14T20:23:10Z</time>
      </trkpt>
      <trkpt lat="35.580313940" lon="-106.750494770">
        <ele>1652.800</ele>
        <time>2019-07-14T20:23:11Z</time>
      </trkpt>
      <trkpt lat="35.580492220" lon="-106.750343870">
        <ele>1652.100</ele>
        <time>2019-07-14T20:23:12Z</time>
      </trkpt>
      <trkpt lat="35.580662340" lon="-106.750202790">
        <ele>1652.900</ele>
        <time>2019-07-14T20:23:13Z</time>
      </trkpt>
      <trkpt lat="35.580839770" lon="-106.750057550">
        <ele>1652.500</ele>
        <time>2019-07-14T20:23:14Z</time>
      </trkpt>
      <trkpt lat="35.581019830" lon="-106.749918880">
        <ele>1652.200</ele>
        <time>2019-07-14T20:23:15Z</time>
      </trkpt>
      <trkpt lat="35.581196670" lon="-106.749770040">
        <ele>1652.400</ele>
        <time>2019-07-14T20:23:16Z</time>
      </trkpt>
      <trkpt lat="35.581380350" lon="-106.749619310">
        <ele>1653.600</ele>
        <time>2019-07-14T20:23:17Z</time>
      </trkpt>
      <trkpt lat="35.581562290" lon="-106.749463930">
        <ele>1654.400</ele>
        <time>2019-07-14T20:23:18Z</time>
      </trkpt>
      <trkpt lat="35.581754180" lon="-106.749314820">
        <ele>1655.300</ele>
        <time>2019-07-14T20:23:19Z</time>
      </trkpt>
      <trkpt lat="35.581932640" lon="-106.749159600">
        <ele>1655.800</ele>
        <time>2019-07-14T20:23:20Z</time>
      </trkpt>
      <trkpt lat="35.582109030" lon="-106.748994850">
        <ele>1656.700</ele>
        <time>2019-07-14T20:23:21Z</time>
      </trkpt>
      <trkpt lat="35.582282810" lon="-106.748821850">
        <ele>1657.500</ele>
        <time>2019-07-14T20:23:22Z</time>
      </trkpt>
      <trkpt lat="35.582439810" lon="-106.748659530">
        <ele>1657.000</ele>
        <time>2019-07-14T20:23:23Z</time>
      </trkpt>
      <trkpt lat="35.582582880" lon="-106.748460010">
        <ele>1656.000</ele>
        <time>2019-07-14T20:23:24Z</time>
      </trkpt>
      <trkpt lat="35.582711720" lon="-106.748268530">
        <ele>1654.600</ele>
        <time>2019-07-14T20:23:25Z</time>
      </trkpt>
      <trkpt lat="35.582872080" lon="-106.748079390">
        <ele>1655.000</ele>
        <time>2019-07-14T20:23:26Z</time>
      </trkpt>
      <trkpt lat="35.583012680" lon="-106.747870570">
        <ele>1656.700</ele>
        <time>2019-07-14T20:23:27Z</time>
      </trkpt>
      <trkpt lat="35.583126840" lon="-106.747661260">
        <ele>1656.800</ele>
        <time>2019-07-14T20:23:28Z</time>
      </trkpt>
      <trkpt lat="35.583236640" lon="-106.747431160">
        <ele>1658.200</ele>
        <time>2019-07-14T20:23:29Z</time>
      </trkpt>
      <trkpt lat="35.583330240" lon="-106.747192300">
        <ele>1658.900</ele>
        <time>2019-07-14T20:23:30Z</time>
      </trkpt>
      <trkpt lat="35.583420310" lon="-106.746946330">
        <ele>1660.300</ele>
        <time>2019-07-14T20:23:31Z</time>
      </trkpt>
      <trkpt lat="35.583501360" lon="-106.746702460">
        <ele>1662.300</ele>
        <time>2019-07-14T20:23:32Z</time>
      </trkpt>
      <trkpt lat="35.583569560" lon="-106.746450910">
        <ele>1663.500</ele>
        <time>2019-07-14T20:23:33Z</time>
      </trkpt>
      <trkpt lat="35.583633420" lon="-106.746199670">
        <ele>1664.900</ele>
        <time>2019-07-14T20:23:34Z</time>
      </trkpt>
      <trkpt lat="35.583701720" lon="-106.745952920">
        <ele>1665.800</ele>
        <time>2019-07-14T20:23:35Z</time>
      </trkpt>
      <trkpt lat="35.583766670" lon="-106.745705430">
        <ele>1666.200</ele>
        <time>2019-07-14T20:23:36Z</time>
      </trkpt>
      <trkpt lat="35.583850750" lon="-106.745452910">
        <ele>1666.500</ele>
        <time>2019-07-14T20:23:37Z</time>
      </trkpt>
      <trkpt lat="35.583940660" lon="-106.745209470">
        <ele>1666.200</ele>
        <time>2019-07-14T20:23:38Z</time>
      </trkpt>
      <trkpt lat="35.584062350" lon="-106.744986510">
        <ele>1666.600</ele>
        <time>2019-07-14T20:23:39Z</time>
      </trkpt>
      <trkpt lat="35.584179770" lon="-106.744747040">
        <ele>1665.600</ele>
        <time>2019-07-14T20:23:40Z</time>
      </trkpt>
      <trkpt lat="35.584316420" lon="-106.744535070">
        <ele>1665.900</ele>
        <time>2019-07-14T20:23:41Z</time>
      </trkpt>
      <trkpt lat="35.584459860" lon="-106.744327880">
        <ele>1665.400</ele>
        <time>2019-07-14T20:23:42Z</time>
      </trkpt>
      <trkpt lat="35.584609590" lon="-106.744129410">
        <ele>1664.500</ele>
        <time>2019-07-14T20:23:43Z</time>
      </trkpt>
      <trkpt lat="35.584772740" lon="-106.743948580">
        <ele>1664.100</ele>
        <time>2019-07-14T20:23:44Z</time>
      </trkpt>
      <trkpt lat="35.584945210" lon="-106.743766800">
        <ele>1663.900</ele>
        <time>2019-07-14T20:23:45Z</time>
      </trkpt>
      <trkpt lat="35.585107510" lon="-106.743594850">
        <ele>1663.100</ele>
        <time>2019-07-14T20:23:46Z</time>
      </trkpt>
      <trkpt lat="35.585274200" lon="-106.743417830">
        <ele>1662.100</ele>
        <time>2019-07-14T20:23:47Z</time>
      </trkpt>
      <trkpt lat="35.585433940" lon="-106.743243160">
        <ele>1661.300</ele>
        <time>2019-07-14T20:23:48Z</time>
      </trkpt>
      <trkpt lat="35.585605690" lon="-106.743076220">
        <ele>1661.800</ele>
        <time>2019-07-14T20:23:49Z</time>
      </trkpt>
      <trkpt lat="35.585761950" lon="-106.742889460">
        <ele>1662.100</ele>
        <time>2019-07-14T20:23:50Z</time>
      </trkpt>
      <trkpt lat="35.585904890" lon="-106.742692870">
        <ele>1661.700</ele>
        <time>2019-07-14T20:23:51Z</time>
      </trkpt>
      <trkpt lat="35.586068500" lon="-106.742561700">
        <ele>1660.500</ele>
        <time>2019-07-14T20:23:52Z</time>
      </trkpt>
      <trkpt lat="35.586217550" lon="-106.742375640">
        <ele>1659.100</ele>
        <time>2019-07-14T20:23:53Z</time>
      </trkpt>
      <trkpt lat="35.586385270" lon="-106.742217930">
        <ele>1659.200</ele>
        <time>2019-07-14T20:23:54Z</time>
      </trkpt>
      <trkpt lat="35.586552690" lon="-106.742046020">
        <ele>1659.300</ele>
        <time>2019-07-14T20:23:55Z</time>
      </trkpt>
      <trkpt lat="35.586731530" lon="-106.741896180">
        <ele>1659.900</ele>
        <time>2019-07-14T20:23:56Z</time>
      </trkpt>
      <trkpt lat="35.586919520" lon="-106.741757420">
        <ele>1660.500</ele>
        <time>2019-07-14T20:23:57Z</time>
      </trkpt>
      <trkpt lat="35.587097040" lon="-106.741596070">
        <ele>1660.800</ele>
        <time>2019-07-14T20:23:58Z</time>
      </trkpt>
      <trkpt lat="35.587274030" lon="-106.741426730">
        <ele>1661.400</ele>
        <time>2019-07-14T20:23:59Z</time>
      </trkpt>
      <trkpt lat="35.587449210" lon="-106.741253940">
        <ele>1662.100</ele>
        <time>2019-07-14T20:24:00Z</time>
      </trkpt>
      <trkpt lat="35.587624300" lon="-106.741079820">
        <ele>1662.900</ele>
        <time>2019-07-14T20:24:01Z</time>
      </trkpt>
      <trkpt lat="35.587783430" lon="-106.740916710">
        <ele>1661.800</ele>
        <time>2019-07-14T20:24:02Z</time>
      </trkpt>
      <trkpt lat="35.587921310" lon="-106.740745200">
        <ele>1659.500</ele>
        <time>2019-07-14T20:24:03Z</time>
      </trkpt>
      <trkpt lat="35.588119220" lon="-106.740581450">
        <ele>1664.100</ele>
        <time>2019-07-14T20:24:04Z</time>
      </trkpt>
      <trkpt lat="35.588276220" lon="-106.740411800">
        <ele>1662.900</ele>
        <time>2019-07-14T20:24:05Z</time>
      </trkpt>
      <trkpt lat="35.588400980" lon="-106.740218620">
        <ele>1660.800</ele>
        <time>2019-07-14T20:24:06Z</time>
      </trkpt>
      <trkpt lat="35.588578360" lon="-106.740050930">
        <ele>1662.000</ele>
        <time>2019-07-14T20:24:07Z</time>
      </trkpt>
      <trkpt lat="35.588771720" lon="-106.739888330">
        <ele>1664.400</ele>
        <time>2019-07-14T20:24:08Z</time>
      </trkpt>
      <trkpt lat="35.588935590" lon="-106.739734650">
        <ele>1663.900</ele>
        <time>2019-07-14T20:24:09Z</time>
      </trkpt>
      <trkpt lat="35.589118500" lon="-106.739567740">
        <ele>1665.500</ele>
        <time>2019-07-14T20:24:10Z</time>
      </trkpt>
      <trkpt lat="35.589312120" lon="-106.739415840">
        <ele>1668.000</ele>
        <time>2019-07-14T20:24:11Z</time>
      </trkpt>
      <trkpt lat="35.589466130" lon="-106.739255620">
        <ele>1666.900</ele>
        <time>2019-07-14T20:24:12Z</time>
      </trkpt>
      <trkpt lat="35.589629840" lon="-106.739079090">
        <ele>1667.100</ele>
        <time>2019-07-14T20:24:13Z</time>
      </trkpt>
      <trkpt lat="35.589811250" lon="-106.738906560">
        <ele>1668.800</ele>
        <time>2019-07-14T20:24:14Z</time>
      </trkpt>
      <trkpt lat="35.589987660" lon="-106.738733990">
        <ele>1670.900</ele>
        <time>2019-07-14T20:24:15Z</time>
      </trkpt>
      <trkpt lat="35.590177310" lon="-106.738591370">
        <ele>1670.300</ele>
        <time>2019-07-14T20:24:16Z</time>
      </trkpt>
      <trkpt lat="35.590351850" lon="-106.738425560">
        <ele>1670.700</ele>
        <time>2019-07-14T20:24:17Z</time>
      </trkpt>
      <trkpt lat="35.590530080" lon="-106.738270440">
        <ele>1671.200</ele>
        <time>2019-07-14T20:24:18Z</time>
      </trkpt>
      <trkpt lat="35.590705720" lon="-106.738119160">
        <ele>1671.000</ele>
        <time>2019-07-14T20:24:19Z</time>
      </trkpt>
      <trkpt lat="35.590884580" lon="-106.737959160">
        <ele>1669.100</ele>
        <time>2019-07-14T20:24:20Z</time>
      </trkpt>
      <trkpt lat="35.591070080" lon="-106.737818740">
        <ele>1669.200</ele>
        <time>2019-07-14T20:24:21Z</time>
      </trkpt>
      <trkpt lat="35.591262160" lon="-106.737677000">
        <ele>1669.100</ele>
        <time>2019-07-14T20:24:22Z</time>
      </trkpt>
      <trkpt lat="35.591456970" lon="-106.737552560">
        <ele>1669.500</ele>
        <time>2019-07-14T20:24:23Z</time>
      </trkpt>
      <trkpt lat="35.591650920" lon="-106.737425100">
        <ele>1669.300</ele>
        <time>2019-07-14T20:24:24Z</time>
      </trkpt>
      <trkpt lat="35.591846590" lon="-106.737308990">
        <ele>1669.100</ele>
        <time>2019-07-14T20:24:25Z</time>
      </trkpt>
      <trkpt lat="35.592035180" lon="-106.737188730">
        <ele>1669.900</ele>
        <time>2019-07-14T20:24:26Z</time>
      </trkpt>
      <trkpt lat="35.592234370" lon="-106.737062680">
        <ele>1670.000</ele>
        <time>2019-07-14T20:24:27Z</time>
      </trkpt>
      <trkpt lat="35.592396480" lon="-106.736961460">
        <ele>1669.800</ele>
        <time>2019-07-14T20:24:28Z</time>
      </trkpt>
      <trkpt lat="35.592577140" lon="-106.736859170">
        <ele>1670.300</ele>
        <time>2019-07-14T20:24:29Z</time>
      </trkpt>
      <trkpt lat="35.592746130" lon="-106.736752160">
        <ele>1670.100</ele>
        <time>2019-07-14T20:24:30Z</time>
      </trkpt>
      <trkpt lat="35.592913150" lon="-106.736649000">
        <ele>1671.100</ele>
        <time>2019-07-14T20:24:31Z</time>
      </trkpt>
      <trkpt lat="35.593074440" lon="-106.736547820">
        <ele>1671.900</ele>
        <time>2019-07-14T20:24:32Z</time>
      </trkpt>
      <trkpt lat="35.593231270" lon="-106.736452030">
        <ele>1672.600</ele>
        <time>2019-07-14T20:24:33Z</time>
      </trkpt>
      <trkpt lat="35.593387310" lon="-106.736361810">
        <ele>1673.400</ele>
        <time>2019-07-14T20:24:34Z</time>
      </trkpt>
      <trkpt lat="35.593540140" lon="-106.736279080">
        <ele>1673.800</ele>
        <time>2019-07-14T20:24:35Z</time>
      </trkpt>
      <trkpt lat="35.593680240" lon="-106.736207710">
        <ele>1672.600</ele>
        <time>2019-07-14T20:24:36Z</time>
      </trkpt>
      <trkpt lat="35.593831680" lon="-106.736118810">
        <ele>1673.000</ele>
        <time>2019-07-14T20:24:37Z</time>
      </trkpt>
      <trkpt lat="35.593985470" lon="-106.736032180">
        <ele>1672.900</ele>
        <time>2019-07-14T20:24:38Z</time>
      </trkpt>
      <trkpt lat="35.594137770" lon="-106.735930710">
        <ele>1672.600</ele>
        <time>2019-07-14T20:24:39Z</time>
      </trkpt>
      <trkpt lat="35.594286240" lon="-106.735839090">
        <ele>1672.300</ele>
        <time>2019-07-14T20:24:40Z</time>
      </trkpt>
      <trkpt lat="35.594430250" lon="-106.735729310">
        <ele>1673.300</ele>
        <time>2019-07-14T20:24:41Z</time>
      </trkpt>
      <trkpt lat="35.594577470" lon="-106.735628890">
        <ele>1673.500</ele>
        <time>2019-07-14T20:24:42Z</time>
      </trkpt>
      <trkpt lat="35.594722460" lon="-106.735523440">
        <ele>1673.900</ele>
        <time>2019-07-14T20:24:43Z</time>
      </trkpt>
      <trkpt lat="35.594870070" lon="-106.735417530">
        <ele>1674.000</ele>
        <time>2019-07-14T20:24:44Z</time>
      </trkpt>
      <trkpt lat="35.595002110" lon="-106.735304700">
        <ele>1673.700</ele>
        <time>2019-07-14T20:24:45Z</time>
      </trkpt>
      <trkpt lat="35.595147760" lon="-106.735195740">
        <ele>1673.000</ele>
        <time>2019-07-14T20:24:46Z</time>
      </trkpt>
      <trkpt lat="35.595277690" lon="-106.735070610">
        <ele>1672.300</ele>
        <time>2019-07-14T20:24:47Z</time>
      </trkpt>
      <trkpt lat="35.595415710" lon="-106.734961800">
        <ele>1672.200</ele>
        <time>2019-07-14T20:24:48Z</time>
      </trkpt>
      <trkpt lat="35.595552960" lon="-106.734848050">
        <ele>1670.600</ele>
        <time>2019-07-14T20:24:49Z</time>
      </trkpt>
      <trkpt lat="35.595696160" lon="-106.734733850">
        <ele>1670.000</ele>
        <time>2019-07-14T20:24:50Z</time>
      </trkpt>
      <trkpt lat="35.595830210" lon="-106.734620440">
        <ele>1670.000</ele>
        <time>2019-07-14T20:24:51Z</time>
      </trkpt>
      <trkpt lat="35.595961790" lon="-106.734496490">
        <ele>1668.800</ele>
        <time>2019-07-14T20:24:52Z</time>
      </trkpt>
      <trkpt lat="35.596090000" lon="-106.734371230">
        <ele>1668.700</ele>
        <time>2019-07-14T20:24:53Z</time>
      </trkpt>
      <trkpt lat="35.596223200" lon="-106.734249170">
        <ele>1669.800</ele>
        <time>2019-07-14T20:24:54Z</time>
      </trkpt>
      <trkpt lat="35.596351830" lon="-106.734119730">
        <ele>1670.800</ele>
        <time>2019-07-14T20:24:55Z</time>
      </trkpt>
      <trkpt lat="35.596475910" lon="-106.733994250">
        <ele>1671.200</ele>
        <time>2019-07-14T20:24:56Z</time>
      </trkpt>
      <trkpt lat="35.596597860" lon="-106.733868840">
        <ele>1671.900</ele>
        <time>2019-07-14T20:24:57Z</time>
      </trkpt>
      <trkpt lat="35.596724150" lon="-106.733746790">
        <ele>1672.400</ele>
        <time>2019-07-14T20:24:58Z</time>
      </trkpt>
      <trkpt lat="35.596852930" lon="-106.733614870">
        <ele>1673.400</ele>
        <time>2019-07-14T20:24:59Z</time>
      </trkpt>
      <trkpt lat="35.596978100" lon="-106.733477870">
        <ele>1673.400</ele>
        <time>2019-07-14T20:25:00Z</time>
      </trkpt>
      <trkpt lat="35.597109610" lon="-106.733349240">
        <ele>1673.900</ele>
        <time>2019-07-14T20:25:01Z</time>
      </trkpt>
      <trkpt lat="35.597240870" lon="-106.733214650">
        <ele>1674.500</ele>
        <time>2019-07-14T20:25:02Z</time>
      </trkpt>
      <trkpt lat="35.597372900" lon="-106.733084110">
        <ele>1675.200</ele>
        <time>2019-07-14T20:25:03Z</time>
      </trkpt>
      <trkpt lat="35.597495170" lon="-106.732950850">
        <ele>1675.000</ele>
        <time>2019-07-14T20:25:04Z</time>
      </trkpt>
      <trkpt lat="35.597619650" lon="-106.732821550">
        <ele>1675.400</ele>
        <time>2019-07-14T20:25:05Z</time>
      </trkpt>
      <trkpt lat="35.597743360" lon="-106.732691590">
        <ele>1675.100</ele>
        <time>2019-07-14T20:25:06Z</time>
      </trkpt>
      <trkpt lat="35.597876850" lon="-106.732544290">
        <ele>1674.500</ele>
        <time>2019-07-14T20:25:07Z</time>
      </trkpt>
      <trkpt lat="35.597998500" lon="-106.732406400">
        <ele>1673.800</ele>
        <time>2019-07-14T20:25:08Z</time>
      </trkpt>
      <trkpt lat="35.598127770" lon="-106.732274360">
        <ele>1673.300</ele>
        <time>2019-07-14T20:25:09Z</time>
      </trkpt>
      <trkpt lat="35.598256760" lon="-106.732145710">
        <ele>1673.300</ele>
        <time>2019-07-14T20:25:10Z</time>
      </trkpt>
      <trkpt lat="35.598376960" lon="-106.732023900">
        <ele>1673.400</ele>
        <time>2019-07-14T20:25:11Z</time>
      </trkpt>
      <trkpt lat="35.598501160" lon="-106.731897980">
        <ele>1673.800</ele>
        <time>2019-07-14T20:25:12Z</time>
      </trkpt>
      <trkpt lat="35.598609140" lon="-106.731767100">
        <ele>1672.800</ele>
        <time>2019-07-14T20:25:13Z</time>
      </trkpt>
      <trkpt lat="35.598724800" lon="-106.731648660">
        <ele>1673.000</ele>
        <time>2019-07-14T20:25:14Z</time>
      </trkpt>
      <trkpt lat="35.598838930" lon="-106.731538180">
        <ele>1672.700</ele>
        <time>2019-07-14T20:25:15Z</time>
      </trkpt>
      <trkpt lat="35.598951330" lon="-106.731427480">
        <ele>1672.400</ele>
        <time>2019-07-14T20:25:16Z</time>
      </trkpt>
      <trkpt lat="35.599060070" lon="-106.731318670">
        <ele>1672.500</ele>
        <time>2019-07-14T20:25:17Z</time>
      </trkpt>
      <trkpt lat="35.599164640" lon="-106.731213150">
        <ele>1672.600</ele>
        <time>2019-07-14T20:25:18Z</time>
      </trkpt>
      <trkpt lat="35.599265000" lon="-106.731111220">
        <ele>1672.900</ele>
        <time>2019-07-14T20:25:19Z</time>
      </trkpt>
      <trkpt lat="35.599357880" lon="-106.731012690">
        <ele>1673.000</ele>
        <time>2019-07-14T20:25:20Z</time>
      </trkpt>
      <trkpt lat="35.599439350" lon="-106.730905400">
        <ele>1670.800</ele>
        <time>2019-07-14T20:25:21Z</time>
      </trkpt>
      <trkpt lat="35.599526550" lon="-106.730804630">
        <ele>1670.600</ele>
        <time>2019-07-14T20:25:22Z</time>
      </trkpt>
      <trkpt lat="35.599613580" lon="-106.730709930">
        <ele>1670.000</ele>
        <time>2019-07-14T20:25:23Z</time>
      </trkpt>
      <trkpt lat="35.599709720" lon="-106.730614560">
        <ele>1670.500</ele>
        <time>2019-07-14T20:25:24Z</time>
      </trkpt>
      <trkpt lat="35.599809560" lon="-106.730527430">
        <ele>1671.900</ele>
        <time>2019-07-14T20:25:25Z</time>
      </trkpt>
      <trkpt lat="35.599905810" lon="-106.730438610">
        <ele>1673.000</ele>
        <time>2019-07-14T20:25:26Z</time>
      </trkpt>
      <trkpt lat="35.600004280" lon="-106.730356050">
        <ele>1673.800</ele>
        <time>2019-07-14T20:25:27Z</time>
      </trkpt>
      <trkpt lat="35.600095280" lon="-106.730261330">
        <ele>1673.400</ele>
        <time>2019-07-14T20:25:28Z</time>
      </trkpt>
      <trkpt lat="35.600189530" lon="-106.730178600">
        <ele>1673.600</ele>
        <time>2019-07-14T20:25:29Z</time>
      </trkpt>
      <trkpt lat="35.600284840" lon="-106.730091100">
        <ele>1673.500</ele>
        <time>2019-07-14T20:25:30Z</time>
      </trkpt>
      <trkpt lat="35.600380070" lon="-106.730002050">
        <ele>1672.600</ele>
        <time>2019-07-14T20:25:31Z</time>
      </trkpt>
      <trkpt lat="35.600477130" lon="-106.729920620">
        <ele>1672.500</ele>
        <time>2019-07-14T20:25:32Z</time>
      </trkpt>
      <trkpt lat="35.600574560" lon="-106.729838440">
        <ele>1672.500</ele>
        <time>2019-07-14T20:25:33Z</time>
      </trkpt>
      <trkpt lat="35.600679310" lon="-106.729762100">
        <ele>1673.400</ele>
        <time>2019-07-14T20:25:34Z</time>
      </trkpt>
      <trkpt lat="35.600782780" lon="-106.729695800">
        <ele>1673.600</ele>
        <time>2019-07-14T20:25:35Z</time>
      </trkpt>
      <trkpt lat="35.600889260" lon="-106.729626050">
        <ele>1673.500</ele>
        <time>2019-07-14T20:25:36Z</time>
      </trkpt>
      <trkpt lat="35.600991350" lon="-106.729562670">
        <ele>1673.200</ele>
        <time>2019-07-14T20:25:37Z</time>
      </trkpt>
      <trkpt lat="35.601102180" lon="-106.729498820">
        <ele>1674.000</ele>
        <time>2019-07-14T20:25:38Z</time>
      </trkpt>
      <trkpt lat="35.601212930" lon="-106.729434710">
        <ele>1674.400</ele>
        <time>2019-07-14T20:25:39Z</time>
      </trkpt>
      <trkpt lat="35.601320110" lon="-106.729364880">
        <ele>1673.500</ele>
        <time>2019-07-14T20:25:40Z</time>
      </trkpt>
      <trkpt lat="35.601428450" lon="-106.729305520">
        <ele>1673.900</ele>
        <time>2019-07-14T20:25:41Z</time>
      </trkpt>
      <trkpt lat="35.601539760" lon="-106.729238620">
        <ele>1674.600</ele>
        <time>2019-07-14T20:25:42Z</time>
      </trkpt>
      <trkpt lat="35.601632320" lon="-106.729186420">
        <ele>1672.800</ele>
        <time>2019-07-14T20:25:43Z</time>
      </trkpt>
      <trkpt lat="35.601747480" lon="-106.729123900">
        <ele>1674.700</ele>
        <time>2019-07-14T20:25:44Z</time>
      </trkpt>
      <trkpt lat="35.601851380" lon="-106.729067200">
        <ele>1674.100</ele>
        <time>2019-07-14T20:25:45Z</time>
      </trkpt>
      <trkpt lat="35.601954290" lon="-106.729000800">
        <ele>1673.800</ele>
        <time>2019-07-14T20:25:46Z</time>
      </trkpt>
      <trkpt lat="35.602059850" lon="-106.728942040">
        <ele>1674.400</ele>
        <time>2019-07-14T20:25:47Z</time>
      </trkpt>
      <trkpt lat="35.602173630" lon="-106.728882790">
        <ele>1675.900</ele>
        <time>2019-07-14T20:25:48Z</time>
      </trkpt>
      <trkpt lat="35.602282520" lon="-106.728814760">
        <ele>1676.900</ele>
        <time>2019-07-14T20:25:49Z</time>
      </trkpt>
      <trkpt lat="35.602395300" lon="-106.728760270">
        <ele>1677.000</ele>
        <time>2019-07-14T20:25:50Z</time>
      </trkpt>
      <trkpt lat="35.602512410" lon="-106.728702490">
        <ele>1677.500</ele>
        <time>2019-07-14T20:25:51Z</time>
      </trkpt>
      <trkpt lat="35.602621370" lon="-106.728643590">
        <ele>1677.400</ele>
        <time>2019-07-14T20:25:52Z</time>
      </trkpt>
      <trkpt lat="35.602740960" lon="-106.728572040">
        <ele>1679.000</ele>
        <time>2019-07-14T20:25:53Z</time>
      </trkpt>
      <trkpt lat="35.602853860" lon="-106.728512120">
        <ele>1679.400</ele>
        <time>2019-07-14T20:25:54Z</time>
      </trkpt>
      <trkpt lat="35.602967530" lon="-106.728442600">
        <ele>1680.000</ele>
        <time>2019-07-14T20:25:55Z</time>
      </trkpt>
      <trkpt lat="35.603080030" lon="-106.728378030">
        <ele>1680.300</ele>
        <time>2019-07-14T20:25:56Z</time>
      </trkpt>
      <trkpt lat="35.603201900" lon="-106.728308190">
        <ele>1682.200</ele>
        <time>2019-07-14T20:25:57Z</time>
      </trkpt>
      <trkpt lat="35.603321860" lon="-106.728237940">
        <ele>1683.600</ele>
        <time>2019-07-14T20:25:58Z</time>
      </trkpt>
      <trkpt lat="35.603436760" lon="-106.728175780">
        <ele>1684.500</ele>
        <time>2019-07-14T20:25:59Z</time>
      </trkpt>
      <trkpt lat="35.603554560" lon="-106.728109450">
        <ele>1685.700</ele>
        <time>2019-07-14T20:26:00Z</time>
      </trkpt>
      <trkpt lat="35.603660580" lon="-106.728043700">
        <ele>1685.400</ele>
        <time>2019-07-14T20:26:01Z</time>
      </trkpt>
      <trkpt lat="35.603763810" lon="-106.727990040">
        <ele>1684.200</ele>
        <time>2019-07-14T20:26:02Z</time>
      </trkpt>
      <trkpt lat="35.603876000" lon="-106.727929460">
        <ele>1684.300</ele>
        <time>2019-07-14T20:26:03Z</time>
      </trkpt>
      <trkpt lat="35.603980420" lon="-106.727869210">
        <ele>1683.700</ele>
        <time>2019-07-14T20:26:04Z</time>
      </trkpt>
      <trkpt lat="35.604092680" lon="-106.727811130">
        <ele>1684.000</ele>
        <time>2019-07-14T20:26:05Z</time>
      </trkpt>
      <trkpt lat="35.604194960" lon="-106.727746780">
        <ele>1684.000</ele>
        <time>2019-07-14T20:26:06Z</time>
      </trkpt>
      <trkpt lat="35.604306020" lon="-106.727690770">
        <ele>1684.100</ele>
        <time>2019-07-14T20:26:07Z</time>
      </trkpt>
      <trkpt lat="35.604411590" lon="-106.727625880">
        <ele>1684.400</ele>
        <time>2019-07-14T20:26:08Z</time>
      </trkpt>
      <trkpt lat="35.604517020" lon="-106.727571060">
        <ele>1684.300</ele>
        <time>2019-07-14T20:26:09Z</time>
      </trkpt>
      <trkpt lat="35.604625000" lon="-106.727516740">
        <ele>1684.000</ele>
        <time>2019-07-14T20:26:10Z</time>
      </trkpt>
      <trkpt lat="35.604742290" lon="-106.727461920">
        <ele>1683.800</ele>
        <time>2019-07-14T20:26:11Z</time>
      </trkpt>
      <trkpt lat="35.604854430" lon="-106.727412710">
        <ele>1683.200</ele>
        <time>2019-07-14T20:26:12Z</time>
      </trkpt>
      <trkpt lat="35.604974450" lon="-106.727368740">
        <ele>1682.600</ele>
        <time>2019-07-14T20:26:13Z</time>
      </trkpt>
      <trkpt lat="35.605086310" lon="-106.727316360">
        <ele>1682.700</ele>
        <time>2019-07-14T20:26:14Z</time>
      </trkpt>
      <trkpt lat="35.605191070" lon="-106.727264590">
        <ele>1682.100</ele>
        <time>2019-07-14T20:26:15Z</time>
      </trkpt>
      <trkpt lat="35.605305640" lon="-106.727209370">
        <ele>1681.800</ele>
        <time>2019-07-14T20:26:16Z</time>
      </trkpt>
      <trkpt lat="35.605414820" lon="-106.727165590">
        <ele>1681.500</ele>
        <time>2019-07-14T20:26:17Z</time>
      </trkpt>
      <trkpt lat="35.605528780" lon="-106.727119540">
        <ele>1681.500</ele>
        <time>2019-07-14T20:26:18Z</time>
      </trkpt>
      <trkpt lat="35.605643150" lon="-106.727070970">
        <ele>1681.300</ele>
        <time>2019-07-14T20:26:19Z</time>
      </trkpt>
      <trkpt lat="35.605757270" lon="-106.727023400">
        <ele>1681.700</ele>
        <time>2019-07-14T20:26:20Z</time>
      </trkpt>
      <trkpt lat="35.605870050" lon="-106.726975200">
        <ele>1681.800</ele>
        <time>2019-07-14T20:26:21Z</time>
      </trkpt>
      <trkpt lat="35.605987020" lon="-106.726930170">
        <ele>1682.400</ele>
        <time>2019-07-14T20:26:22Z</time>
      </trkpt>
      <trkpt lat="35.606099420" lon="-106.726884310">
        <ele>1682.800</ele>
        <time>2019-07-14T20:26:23Z</time>
      </trkpt>
      <trkpt lat="35.606211180" lon="-106.726837850">
        <ele>1683.200</ele>
        <time>2019-07-14T20:26:24Z</time>
      </trkpt>
      <trkpt lat="35.606322770" lon="-106.726790610">
        <ele>1683.200</ele>
        <time>2019-07-14T20:26:25Z</time>
      </trkpt>
      <trkpt lat="35.606435530" lon="-106.726741950">
        <ele>1682.900</ele>
        <time>2019-07-14T20:26:26Z</time>
      </trkpt>
      <trkpt lat="35.606549110" lon="-106.726692760">
        <ele>1682.600</ele>
        <time>2019-07-14T20:26:27Z</time>
      </trkpt>
      <trkpt lat="35.606662950" lon="-106.726647420">
        <ele>1683.100</ele>
        <time>2019-07-14T20:26:28Z</time>
      </trkpt>
      <trkpt lat="35.606777190" lon="-106.726597450">
        <ele>1683.200</ele>
        <time>2019-07-14T20:26:29Z</time>
      </trkpt>
      <trkpt lat="35.606890140" lon="-106.726552070">
        <ele>1683.200</ele>
        <time>2019-07-14T20:26:30Z</time>
      </trkpt>
      <trkpt lat="35.607004970" lon="-106.726506010">
        <ele>1683.800</ele>
        <time>2019-07-14T20:26:31Z</time>
      </trkpt>
      <trkpt lat="35.607118960" lon="-106.726459550">
        <ele>1683.900</ele>
        <time>2019-07-14T20:26:32Z</time>
      </trkpt>
      <trkpt lat="35.607234760" lon="-106.726415760">
        <ele>1684.600</ele>
        <time>2019-07-14T20:26:33Z</time>
      </trkpt>
      <trkpt lat="35.607350530" lon="-106.726372830">
        <ele>1684.800</ele>
        <time>2019-07-14T20:26:34Z</time>
      </trkpt>
      <trkpt lat="35.607468730" lon="-106.726331320">
        <ele>1685.600</ele>
        <time>2019-07-14T20:26:35Z</time>
      </trkpt>
      <trkpt lat="35.607584220" lon="-106.726281820">
        <ele>1685.700</ele>
        <time>2019-07-14T20:26:36Z</time>
      </trkpt>
      <trkpt lat="35.607699800" lon="-106.726234230">
        <ele>1686.600</ele>
        <time>2019-07-14T20:26:37Z</time>
      </trkpt>
      <trkpt lat="35.607817070" lon="-106.726187270">
        <ele>1687.100</ele>
        <time>2019-07-14T20:26:38Z</time>
      </trkpt>
      <trkpt lat="35.607932760" lon="-106.726143660">
        <ele>1688.000</ele>
        <time>2019-07-14T20:26:39Z</time>
      </trkpt>
      <trkpt lat="35.608046960" lon="-106.726096620">
        <ele>1688.100</ele>
        <time>2019-07-14T20:26:40Z</time>
      </trkpt>
      <trkpt lat="35.608158220" lon="-106.726045010">
        <ele>1687.900</ele>
        <time>2019-07-14T20:26:41Z</time>
      </trkpt>
      <trkpt lat="35.608272430" lon="-106.726000710">
        <ele>1688.300</ele>
        <time>2019-07-14T20:26:42Z</time>
      </trkpt>
      <trkpt lat="35.608387110" lon="-106.725952170">
        <ele>1688.900</ele>
        <time>2019-07-14T20:26:43Z</time>
      </trkpt>
      <trkpt lat="35.608502060" lon="-106.725902960">
        <ele>1688.800</ele>
        <time>2019-07-14T20:26:44Z</time>
      </trkpt>
      <trkpt lat="35.608617950" lon="-106.725861470">
        <ele>1689.400</ele>
        <time>2019-07-14T20:26:45Z</time>
      </trkpt>
      <trkpt lat="35.608736110" lon="-106.725815310">
        <ele>1689.000</ele>
        <time>2019-07-14T20:26:46Z</time>
      </trkpt>
      <trkpt lat="35.608853070" lon="-106.725767590">
        <ele>1689.200</ele>
        <time>2019-07-14T20:26:47Z</time>
      </trkpt>
      <trkpt lat="35.608965710" lon="-106.725720870">
        <ele>1689.600</ele>
        <time>2019-07-14T20:26:48Z</time>
      </trkpt>
      <trkpt lat="35.609085500" lon="-106.725671800">
        <ele>1689.400</ele>
        <time>2019-07-14T20:26:49Z</time>
      </trkpt>
      <trkpt lat="35.609202230" lon="-106.725624050">
        <ele>1689.800</ele>
        <time>2019-07-14T20:26:50Z</time>
      </trkpt>
      <trkpt lat="35.609316040" lon="-106.725581540">
        <ele>1689.100</ele>
        <time>2019-07-14T20:26:51Z</time>
      </trkpt>
      <trkpt lat="35.609429970" lon="-106.725532640">
        <ele>1689.300</ele>
        <time>2019-07-14T20:26:52Z</time>
      </trkpt>
      <trkpt lat="35.609545050" lon="-106.725487330">
        <ele>1689.700</ele>
        <time>2019-07-14T20:26:53Z</time>
      </trkpt>
      <trkpt lat="35.609657930" lon="-106.725435930">
        <ele>1689.200</ele>
        <time>2019-07-14T20:26:54Z</time>
      </trkpt>
      <trkpt lat="35.609771360" lon="-106.725388410">
        <ele>1689.200</ele>
        <time>2019-07-14T20:26:55Z</time>
      </trkpt>
      <trkpt lat="35.609886650" lon="-106.725347060">
        <ele>1689.700</ele>
        <time>2019-07-14T20:26:56Z</time>
      </trkpt>
      <trkpt lat="35.610000530" lon="-106.725301530">
        <ele>1689.700</ele>
        <time>2019-07-14T20:26:57Z</time>
      </trkpt>
      <trkpt lat="35.610114540" lon="-106.725254680">
        <ele>1689.600</ele>
        <time>2019-07-14T20:26:58Z</time>
      </trkpt>
      <trkpt lat="35.610229930" lon="-106.725206290">
        <ele>1689.700</ele>
        <time>2019-07-14T20:26:59Z</time>
      </trkpt>
      <trkpt lat="35.610344640" lon="-106.725151710">
        <ele>1689.000</ele>
        <time>2019-07-14T20:27:00Z</time>
      </trkpt>
      <trkpt lat="35.610454920" lon="-106.725110430">
        <ele>1688.400</ele>
        <time>2019-07-14T20:27:01Z</time>
      </trkpt>
      <trkpt lat="35.610567770" lon="-106.725066290">
        <ele>1688.600</ele>
        <time>2019-07-14T20:27:02Z</time>
      </trkpt>
      <trkpt lat="35.610683540" lon="-106.725022120">
        <ele>1689.200</ele>
        <time>2019-07-14T20:27:03Z</time>
      </trkpt>
      <trkpt lat="35.610799270" lon="-106.724979840">
        <ele>1689.500</ele>
        <time>2019-07-14T20:27:04Z</time>
      </trkpt>
      <trkpt lat="35.610915030" lon="-106.724936050">
        <ele>1689.800</ele>
        <time>2019-07-14T20:27:05Z</time>
      </trkpt>
      <trkpt lat="35.611027340" lon="-106.724888760">
        <ele>1689.700</ele>
        <time>2019-07-14T20:27:06Z</time>
      </trkpt>
      <trkpt lat="35.611141180" lon="-106.724841260">
        <ele>1689.400</ele>
        <time>2019-07-14T20:27:07Z</time>
      </trkpt>
      <trkpt lat="35.611251370" lon="-106.724795960">
        <ele>1688.900</ele>
        <time>2019-07-14T20:27:08Z</time>
      </trkpt>
      <trkpt lat="35.611357720" lon="-106.724752940">
        <ele>1688.000</ele>
        <time>2019-07-14T20:27:09Z</time>
      </trkpt>
      <trkpt lat="35.611473270" lon="-106.724702340">
        <ele>1688.000</ele>
        <time>2019-07-14T20:27:10Z</time>
      </trkpt>
      <trkpt lat="35.611587980" lon="-106.724661640">
        <ele>1687.800</ele>
        <time>2019-07-14T20:27:11Z</time>
      </trkpt>
      <trkpt lat="35.611700710" lon="-106.724614260">
        <ele>1688.000</ele>
        <time>2019-07-14T20:27:12Z</time>
      </trkpt>
      <trkpt lat="35.611814620" lon="-106.724569420">
        <ele>1688.600</ele>
        <time>2019-07-14T20:27:13Z</time>
      </trkpt>
      <trkpt lat="35.611922930" lon="-106.724529890">
        <ele>1688.800</ele>
        <time>2019-07-14T20:27:14Z</time>
      </trkpt>
      <trkpt lat="35.612039160" lon="-106.724487160">
        <ele>1688.500</ele>
        <time>2019-07-14T20:27:15Z</time>
      </trkpt>
      <trkpt lat="35.612156070" lon="-106.724451420">
        <ele>1688.800</ele>
        <time>2019-07-14T20:27:16Z</time>
      </trkpt>
      <trkpt lat="35.612275860" lon="-106.724403050">
        <ele>1688.100</ele>
        <time>2019-07-14T20:27:17Z</time>
      </trkpt>
      <trkpt lat="35.612398250" lon="-106.724383370">
        <ele>1687.700</ele>
        <time>2019-07-14T20:27:18Z</time>
      </trkpt>
      <trkpt lat="35.612519890" lon="-106.724373970">
        <ele>1687.200</ele>
        <time>2019-07-14T20:27:19Z</time>
      </trkpt>
      <trkpt lat="35.612638230" lon="-106.724360610">
        <ele>1687.100</ele>
        <time>2019-07-14T20:27:20Z</time>
      </trkpt>
      <trkpt lat="35.612759660" lon="-106.724355690">
        <ele>1686.600</ele>
        <time>2019-07-14T20:27:21Z</time>
      </trkpt>
      <trkpt lat="35.612876590" lon="-106.724366070">
        <ele>1685.500</ele>
        <time>2019-07-14T20:27:22Z</time>
      </trkpt>
      <trkpt lat="35.612999180" lon="-106.724380940">
        <ele>1685.500</ele>
        <time>2019-07-14T20:27:23Z</time>
      </trkpt>
      <trkpt lat="35.613121120" lon="-106.724406650">
        <ele>1686.100</ele>
        <time>2019-07-14T20:27:24Z</time>
      </trkpt>
      <trkpt lat="35.613236850" lon="-106.724416310">
        <ele>1685.700</ele>
        <time>2019-07-14T20:27:25Z</time>
      </trkpt>
      <trkpt lat="35.613354720" lon="-106.724433550">
        <ele>1685.300</ele>
        <time>2019-07-14T20:27:26Z</time>
      </trkpt>
      <trkpt lat="35.613475740" lon="-106.724455920">
        <ele>1685.300</ele>
        <time>2019-07-14T20:27:27Z</time>
      </trkpt>
      <trkpt lat="35.613599880" lon="-106.724475730">
        <ele>1685.300</ele>
        <time>2019-07-14T20:27:28Z</time>
      </trkpt>
      <trkpt lat="35.613722240" lon="-106.724492060">
        <ele>1685.400</ele>
        <time>2019-07-14T20:27:29Z</time>
      </trkpt>
      <trkpt lat="35.613840030" lon="-106.724513840">
        <ele>1685.000</ele>
        <time>2019-07-14T20:27:30Z</time>
      </trkpt>
      <trkpt lat="35.613959480" lon="-106.724503450">
        <ele>1684.000</ele>
        <time>2019-07-14T20:27:31Z</time>
      </trkpt>
      <trkpt lat="35.614081290" lon="-106.724495090">
        <ele>1683.500</ele>
        <time>2019-07-14T20:27:32Z</time>
      </trkpt>
      <trkpt lat="35.614210510" lon="-106.724486770">
        <ele>1682.900</ele>
        <time>2019-07-14T20:27:33Z</time>
      </trkpt>
      <trkpt lat="35.614319550" lon="-106.724459290">
        <ele>1681.100</ele>
        <time>2019-07-14T20:27:34Z</time>
      </trkpt>
      <trkpt lat="35.614435110" lon="-106.724432730">
        <ele>1680.000</ele>
        <time>2019-07-14T20:27:35Z</time>
      </trkpt>
      <trkpt lat="35.614557440" lon="-106.724402410">
        <ele>1680.100</ele>
        <time>2019-07-14T20:27:36Z</time>
      </trkpt>
      <trkpt lat="35.614665630" lon="-106.724365850">
        <ele>1679.900</ele>
        <time>2019-07-14T20:27:37Z</time>
      </trkpt>
      <trkpt lat="35.614783900" lon="-106.724326320">
        <ele>1679.300</ele>
        <time>2019-07-14T20:27:38Z</time>
      </trkpt>
      <trkpt lat="35.614899200" lon="-106.724289490">
        <ele>1679.700</ele>
        <time>2019-07-14T20:27:39Z</time>
      </trkpt>
      <trkpt lat="35.615013500" lon="-106.724250280">
        <ele>1679.900</ele>
        <time>2019-07-14T20:27:40Z</time>
      </trkpt>
      <trkpt lat="35.615126500" lon="-106.724210690">
        <ele>1680.800</ele>
        <time>2019-07-14T20:27:41Z</time>
      </trkpt>
      <trkpt lat="35.615240700" lon="-106.724176320">
        <ele>1680.600</ele>
        <time>2019-07-14T20:27:42Z</time>
      </trkpt>
      <trkpt lat="35.615357630" lon="-106.724139700">
        <ele>1681.300</ele>
        <time>2019-07-14T20:27:43Z</time>
      </trkpt>
      <trkpt lat="35.615478560" lon="-106.724111290">
        <ele>1681.800</ele>
        <time>2019-07-14T20:27:44Z</time>
      </trkpt>
      <trkpt lat="35.615593610" lon="-106.724078510">
        <ele>1682.700</ele>
        <time>2019-07-14T20:27:45Z</time>
      </trkpt>
      <trkpt lat="35.615708310" lon="-106.724042860">
        <ele>1683.100</ele>
        <time>2019-07-14T20:27:46Z</time>
      </trkpt>
      <trkpt lat="35.615822980" lon="-106.724005860">
        <ele>1683.700</ele>
        <time>2019-07-14T20:27:47Z</time>
      </trkpt>
      <trkpt lat="35.615938020" lon="-106.723971740">
        <ele>1684.100</ele>
        <time>2019-07-14T20:27:48Z</time>
      </trkpt>
      <trkpt lat="35.616056670" lon="-106.723942570">
        <ele>1684.300</ele>
        <time>2019-07-14T20:27:49Z</time>
      </trkpt>
      <trkpt lat="35.616172570" lon="-106.723913440">
        <ele>1684.300</ele>
        <time>2019-07-14T20:27:50Z</time>
      </trkpt>
      <trkpt lat="35.616292290" lon="-106.723890520">
        <ele>1684.900</ele>
        <time>2019-07-14T20:27:51Z</time>
      </trkpt>
      <trkpt lat="35.616407310" lon="-106.723864200">
        <ele>1685.900</ele>
        <time>2019-07-14T20:27:52Z</time>
      </trkpt>
      <trkpt lat="35.616526310" lon="-106.723842620">
        <ele>1686.800</ele>
        <time>2019-07-14T20:27:53Z</time>
      </trkpt>
      <trkpt lat="35.616641680" lon="-106.723813580">
        <ele>1686.400</ele>
        <time>2019-07-14T20:27:54Z</time>
      </trkpt>
      <trkpt lat="35.616759780" lon="-106.723784040">
        <ele>1685.800</ele>
        <time>2019-07-14T20:27:55Z</time>
      </trkpt>
      <trkpt lat="35.616877270" lon="-106.723759990">
        <ele>1685.900</ele>
        <time>2019-07-14T20:27:56Z</time>
      </trkpt>
      <trkpt lat="35.616998680" lon="-106.723750610">
        <ele>1685.300</ele>
        <time>2019-07-14T20:27:57Z</time>
      </trkpt>
      <trkpt lat="35.617117150" lon="-106.723729950">
        <ele>1685.100</ele>
        <time>2019-07-14T20:27:58Z</time>
      </trkpt>
      <trkpt lat="35.617241030" lon="-106.723719110">
        <ele>1686.600</ele>
        <time>2019-07-14T20:27:59Z</time>
      </trkpt>
      <trkpt lat="35.617360380" lon="-106.723706180">
        <ele>1687.900</ele>
        <time>2019-07-14T20:28:00Z</time>
      </trkpt>
      <trkpt lat="35.617481700" lon="-106.723694680">
        <ele>1688.600</ele>
        <time>2019-07-14T20:28:01Z</time>
      </trkpt>
      <trkpt lat="35.617605190" lon="-106.723685480">
        <ele>1689.300</ele>
        <time>2019-07-14T20:28:02Z</time>
      </trkpt>
      <trkpt lat="35.617728420" lon="-106.723678990">
        <ele>1690.500</ele>
        <time>2019-07-14T20:28:03Z</time>
      </trkpt>
      <trkpt lat="35.617845450" lon="-106.723676950">
        <ele>1690.200</ele>
        <time>2019-07-14T20:28:04Z</time>
      </trkpt>
      <trkpt lat="35.617969140" lon="-106.723681770">
        <ele>1691.500</ele>
        <time>2019-07-14T20:28:05Z</time>
      </trkpt>
      <trkpt lat="35.618096200" lon="-106.723684980">
        <ele>1694.600</ele>
        <time>2019-07-14T20:28:06Z</time>
      </trkpt>
      <trkpt lat="35.618212020" lon="-106.723686250">
        <ele>1694.000</ele>
        <time>2019-07-14T20:28:07Z</time>
      </trkpt>
      <trkpt lat="35.618334160" lon="-106.723690010">
        <ele>1695.900</ele>
        <time>2019-07-14T20:28:08Z</time>
      </trkpt>
      <trkpt lat="35.618447090" lon="-106.723691490">
        <ele>1695.300</ele>
        <time>2019-07-14T20:28:09Z</time>
      </trkpt>
      <trkpt lat="35.618566160" lon="-106.723700510">
        <ele>1695.200</ele>
        <time>2019-07-14T20:28:10Z</time>
      </trkpt>
      <trkpt lat="35.618683930" lon="-106.723707880">
        <ele>1695.600</ele>
        <time>2019-07-14T20:28:11Z</time>
      </trkpt>
      <trkpt lat="35.618805820" lon="-106.723718370">
        <ele>1695.600</ele>
        <time>2019-07-14T20:28:12Z</time>
      </trkpt>
      <trkpt lat="35.618934870" lon="-106.723730730">
        <ele>1696.000</ele>
        <time>2019-07-14T20:28:13Z</time>
      </trkpt>
      <trkpt lat="35.619061900" lon="-106.723730980">
        <ele>1696.500</ele>
        <time>2019-07-14T20:28:14Z</time>
      </trkpt>
      <trkpt lat="35.619176480" lon="-106.723733040">
        <ele>1697.300</ele>
        <time>2019-07-14T20:28:15Z</time>
      </trkpt>
      <trkpt lat="35.619299390" lon="-106.723739590">
        <ele>1697.200</ele>
        <time>2019-07-14T20:28:16Z</time>
      </trkpt>
      <trkpt lat="35.619422490" lon="-106.723746690">
        <ele>1697.800</ele>
        <time>2019-07-14T20:28:17Z</time>
      </trkpt>
      <trkpt lat="35.619551220" lon="-106.723760650">
        <ele>1698.000</ele>
        <time>2019-07-14T20:28:18Z</time>
      </trkpt>
      <trkpt lat="35.619673190" lon="-106.723773210">
        <ele>1697.900</ele>
        <time>2019-07-14T20:28:19Z</time>
      </trkpt>
      <trkpt lat="35.619796230" lon="-106.723780290">
        <ele>1697.500</ele>
        <time>2019-07-14T20:28:20Z</time>
      </trkpt>
      <trkpt lat="35.619918840" lon="-106.723792810">
        <ele>1697.700</ele>
        <time>2019-07-14T20:28:21Z</time>
      </trkpt>
      <trkpt lat="35.620028410" lon="-106.723813380">
        <ele>1694.600</ele>
        <time>2019-07-14T20:28:22Z</time>
      </trkpt>
      <trkpt lat="35.620148140" lon="-106.723831210">
        <ele>1696.700</ele>
        <time>2019-07-14T20:28:23Z</time>
      </trkpt>
      <trkpt lat="35.620271420" lon="-106.723837620">
        <ele>1697.500</ele>
        <time>2019-07-14T20:28:24Z</time>
      </trkpt>
      <trkpt lat="35.620383090" lon="-106.723853170">
        <ele>1696.100</ele>
        <time>2019-07-14T20:28:25Z</time>
      </trkpt>
      <trkpt lat="35.620509050" lon="-106.723855330">
        <ele>1696.100</ele>
        <time>2019-07-14T20:28:26Z</time>
      </trkpt>
      <trkpt lat="35.620632230" lon="-106.723865660">
        <ele>1696.700</ele>
        <time>2019-07-14T20:28:27Z</time>
      </trkpt>
      <trkpt lat="35.620758800" lon="-106.723874870">
        <ele>1696.700</ele>
        <time>2019-07-14T20:28:28Z</time>
      </trkpt>
      <trkpt lat="35.620885860" lon="-106.723894680">
        <ele>1697.300</ele>
        <time>2019-07-14T20:28:29Z</time>
      </trkpt>
      <trkpt lat="35.621021820" lon="-106.723918740">
        <ele>1696.200</ele>
        <time>2019-07-14T20:28:30Z</time>
      </trkpt>
      <trkpt lat="35.621150410" lon="-106.723927740">
        <ele>1696.600</ele>
        <time>2019-07-14T20:28:31Z</time>
      </trkpt>
      <trkpt lat="35.621283950" lon="-106.723929450">
        <ele>1696.300</ele>
        <time>2019-07-14T20:28:32Z</time>
      </trkpt>
      <trkpt lat="35.621425420" lon="-106.723937090">
        <ele>1696.300</ele>
        <time>2019-07-14T20:28:33Z</time>
      </trkpt>
      <trkpt lat="35.621570780" lon="-106.723944770">
        <ele>1696.600</ele>
        <time>2019-07-14T20:28:34Z</time>
      </trkpt>
      <trkpt lat="35.621721180" lon="-106.723970050">
        <ele>1695.600</ele>
        <time>2019-07-14T20:28:35Z</time>
      </trkpt>
      <trkpt lat="35.621875930" lon="-106.723967740">
        <ele>1694.800</ele>
        <time>2019-07-14T20:28:36Z</time>
      </trkpt>
      <trkpt lat="35.622022540" lon="-106.723978910">
        <ele>1694.600</ele>
        <time>2019-07-14T20:28:37Z</time>
      </trkpt>
      <trkpt lat="35.622190740" lon="-106.724013620">
        <ele>1691.900</ele>
        <time>2019-07-14T20:28:38Z</time>
      </trkpt>
      <trkpt lat="35.622349620" lon="-106.724026390">
        <ele>1692.200</ele>
        <time>2019-07-14T20:28:39Z</time>
      </trkpt>
      <trkpt lat="35.622517070" lon="-106.724027220">
        <ele>1691.100</ele>
        <time>2019-07-14T20:28:40Z</time>
      </trkpt>
      <trkpt lat="35.622692590" lon="-106.724026060">
        <ele>1689.800</ele>
        <time>2019-07-14T20:28:41Z</time>
      </trkpt>
      <trkpt lat="35.622864360" lon="-106.724036420">
        <ele>1689.600</ele>
        <time>2019-07-14T20:28:42Z</time>
      </trkpt>
      <trkpt lat="35.623037130" lon="-106.724048970">
        <ele>1689.200</ele>
        <time>2019-07-14T20:28:43Z</time>
      </trkpt>
      <trkpt lat="35.623215030" lon="-106.724061290">
        <ele>1690.000</ele>
        <time>2019-07-14T20:28:44Z</time>
      </trkpt>
      <trkpt lat="35.623395110" lon="-106.724063750">
        <ele>1688.500</ele>
        <time>2019-07-14T20:28:45Z</time>
      </trkpt>
      <trkpt lat="35.623579480" lon="-106.724078440">
        <ele>1688.300</ele>
        <time>2019-07-14T20:28:46Z</time>
      </trkpt>
      <trkpt lat="35.623753850" lon="-106.724098090">
        <ele>1687.500</ele>
        <time>2019-07-14T20:28:47Z</time>
      </trkpt>
      <trkpt lat="35.623940190" lon="-106.724118610">
        <ele>1687.800</ele>
        <time>2019-07-14T20:28:48Z</time>
      </trkpt>
      <trkpt lat="35.624147340" lon="-106.724159180">
        <ele>1688.100</ele>
        <time>2019-07-14T20:28:49Z</time>
      </trkpt>
      <trkpt lat="35.624320780" lon="-106.724158970">
        <ele>1687.600</ele>
        <time>2019-07-14T20:28:50Z</time>
      </trkpt>
      <trkpt lat="35.624512520" lon="-106.724191410">
        <ele>1686.700</ele>
        <time>2019-07-14T20:28:51Z</time>
      </trkpt>
      <trkpt lat="35.624698240" lon="-106.724206760">
        <ele>1686.200</ele>
        <time>2019-07-14T20:28:52Z</time>
      </trkpt>
      <trkpt lat="35.624888470" lon="-106.724216050">
        <ele>1685.000</ele>
        <time>2019-07-14T20:28:53Z</time>
      </trkpt>
      <trkpt lat="35.625079850" lon="-106.724235070">
        <ele>1683.200</ele>
        <time>2019-07-14T20:28:54Z</time>
      </trkpt>
      <trkpt lat="35.625263690" lon="-106.724255280">
        <ele>1683.000</ele>
        <time>2019-07-14T20:28:55Z</time>
      </trkpt>
      <trkpt lat="35.625460920" lon="-106.724272650">
        <ele>1682.700</ele>
        <time>2019-07-14T20:28:56Z</time>
      </trkpt>
      <trkpt lat="35.625662860" lon="-106.724286040">
        <ele>1682.700</ele>
        <time>2019-07-14T20:28:57Z</time>
      </trkpt>
      <trkpt lat="35.625845590" lon="-106.724297900">
        <ele>1682.200</ele>
        <time>2019-07-14T20:28:58Z</time>
      </trkpt>
      <trkpt lat="35.626044820" lon="-106.724301440">
        <ele>1681.500</ele>
        <time>2019-07-14T20:28:59Z</time>
      </trkpt>
      <trkpt lat="35.626234420" lon="-106.724314520">
        <ele>1681.800</ele>
        <time>2019-07-14T20:29:00Z</time>
      </trkpt>
      <trkpt lat="35.626418460" lon="-106.724326650">
        <ele>1681.600</ele>
        <time>2019-07-14T20:29:01Z</time>
      </trkpt>
      <trkpt lat="35.626609590" lon="-106.724339670">
        <ele>1681.700</ele>
        <time>2019-07-14T20:29:02Z</time>
      </trkpt>
      <trkpt lat="35.626809770" lon="-106.724355870">
        <ele>1682.400</ele>
        <time>2019-07-14T20:29:03Z</time>
      </trkpt>
      <trkpt lat="35.627003100" lon="-106.724373750">
        <ele>1682.900</ele>
        <time>2019-07-14T20:29:04Z</time>
      </trkpt>
      <trkpt lat="35.627195930" lon="-106.724387520">
        <ele>1683.800</ele>
        <time>2019-07-14T20:29:05Z</time>
      </trkpt>
      <trkpt lat="35.627390360" lon="-106.724399240">
        <ele>1683.900</ele>
        <time>2019-07-14T20:29:06Z</time>
      </trkpt>
      <trkpt lat="35.627590350" lon="-106.724410240">
        <ele>1684.300</ele>
        <time>2019-07-14T20:29:07Z</time>
      </trkpt>
      <trkpt lat="35.627791640" lon="-106.724420620">
        <ele>1684.800</ele>
        <time>2019-07-14T20:29:08Z</time>
      </trkpt>
      <trkpt lat="35.628006180" lon="-106.724441650">
        <ele>1685.400</ele>
        <time>2019-07-14T20:29:09Z</time>
      </trkpt>
      <trkpt lat="35.628215160" lon="-106.724452540">
        <ele>1685.500</ele>
        <time>2019-07-14T20:29:10Z</time>
      </trkpt>
      <trkpt lat="35.628435380" lon="-106.724441240">
        <ele>1685.200</ele>
        <time>2019-07-14T20:29:11Z</time>
      </trkpt>
      <trkpt lat="35.628650960" lon="-106.724413600">
        <ele>1683.700</ele>
        <time>2019-07-14T20:29:12Z</time>
      </trkpt>
      <trkpt lat="35.628871870" lon="-106.724374570">
        <ele>1683.600</ele>
        <time>2019-07-14T20:29:13Z</time>
      </trkpt>
      <trkpt lat="35.629084070" lon="-106.724314410">
        <ele>1683.700</ele>
        <time>2019-07-14T20:29:14Z</time>
      </trkpt>
      <trkpt lat="35.629293770" lon="-106.724255860">
        <ele>1683.900</ele>
        <time>2019-07-14T20:29:15Z</time>
      </trkpt>
      <trkpt lat="35.629502930" lon="-106.724197590">
        <ele>1683.800</ele>
        <time>2019-07-14T20:29:16Z</time>
      </trkpt>
      <trkpt lat="35.629714100" lon="-106.724142050">
        <ele>1681.800</ele>
        <time>2019-07-14T20:29:17Z</time>
      </trkpt>
      <trkpt lat="35.629925050" lon="-106.724110620">
        <ele>1682.800</ele>
        <time>2019-07-14T20:29:18Z</time>
      </trkpt>
      <trkpt lat="35.630135610" lon="-106.724097060">
        <ele>1681.800</ele>
        <time>2019-07-14T20:29:19Z</time>
      </trkpt>
      <trkpt lat="35.630348270" lon="-106.724096790">
        <ele>1682.400</ele>
        <time>2019-07-14T20:29:20Z</time>
      </trkpt>
      <trkpt lat="35.630556080" lon="-106.724102000">
        <ele>1681.100</ele>
        <time>2019-07-14T20:29:21Z</time>
      </trkpt>
      <trkpt lat="35.630773320" lon="-106.724109090">
        <ele>1680.100</ele>
        <time>2019-07-14T20:29:22Z</time>
      </trkpt>
      <trkpt lat="35.630979630" lon="-106.724114900">
        <ele>1681.000</ele>
        <time>2019-07-14T20:29:23Z</time>
      </trkpt>
      <trkpt lat="35.631181880" lon="-106.724131470">
        <ele>1681.500</ele>
        <time>2019-07-14T20:29:24Z</time>
      </trkpt>
      <trkpt lat="35.631382380" lon="-106.724142490">
        <ele>1682.200</ele>
        <time>2019-07-14T20:29:25Z</time>
      </trkpt>
      <trkpt lat="35.631585320" lon="-106.724151690">
        <ele>1683.300</ele>
        <time>2019-07-14T20:29:26Z</time>
      </trkpt>
      <trkpt lat="35.631787490" lon="-106.724150500">
        <ele>1684.400</ele>
        <time>2019-07-14T20:29:27Z</time>
      </trkpt>
      <trkpt lat="35.631992650" lon="-106.724151320">
        <ele>1686.100</ele>
        <time>2019-07-14T20:29:28Z</time>
      </trkpt>
      <trkpt lat="35.632197570" lon="-106.724143670">
        <ele>1687.900</ele>
        <time>2019-07-14T20:29:29Z</time>
      </trkpt>
      <trkpt lat="35.632401970" lon="-106.724125710">
        <ele>1688.200</ele>
        <time>2019-07-14T20:29:30Z</time>
      </trkpt>
      <trkpt lat="35.632597630" lon="-106.724095730">
        <ele>1688.300</ele>
        <time>2019-07-14T20:29:31Z</time>
      </trkpt>
      <trkpt lat="35.632803760" lon="-106.724054110">
        <ele>1688.400</ele>
        <time>2019-07-14T20:29:32Z</time>
      </trkpt>
      <trkpt lat="35.633009250" lon="-106.724003660">
        <ele>1689.400</ele>
        <time>2019-07-14T20:29:33Z</time>
      </trkpt>
      <trkpt lat="35.633223160" lon="-106.723940450">
        <ele>1688.600</ele>
        <time>2019-07-14T20:29:34Z</time>
      </trkpt>
      <trkpt lat="35.633434770" lon="-106.723859440">
        <ele>1687.800</ele>
        <time>2019-07-14T20:29:35Z</time>
      </trkpt>
      <trkpt lat="35.633646100" lon="-106.723777290">
        <ele>1688.600</ele>
        <time>2019-07-14T20:29:36Z</time>
      </trkpt>
      <trkpt lat="35.633862020" lon="-106.723693300">
        <ele>1688.800</ele>
        <time>2019-07-14T20:29:37Z</time>
      </trkpt>
      <trkpt lat="35.634062260" lon="-106.723605090">
        <ele>1686.800</ele>
        <time>2019-07-14T20:29:38Z</time>
      </trkpt>
      <trkpt lat="35.634272380" lon="-106.723509170">
        <ele>1686.000</ele>
        <time>2019-07-14T20:29:39Z</time>
      </trkpt>
      <trkpt lat="35.634485860" lon="-106.723429390">
        <ele>1686.600</ele>
        <time>2019-07-14T20:29:40Z</time>
      </trkpt>
      <trkpt lat="35.634710330" lon="-106.723363780">
        <ele>1686.300</ele>
        <time>2019-07-14T20:29:41Z</time>
      </trkpt>
      <trkpt lat="35.634923170" lon="-106.723297370">
        <ele>1686.300</ele>
        <time>2019-07-14T20:29:42Z</time>
      </trkpt>
      <trkpt lat="35.635133510" lon="-106.723250730">
        <ele>1685.500</ele>
        <time>2019-07-14T20:29:43Z</time>
      </trkpt>
      <trkpt lat="35.635374010" lon="-106.723216250">
        <ele>1684.700</ele>
        <time>2019-07-14T20:29:44Z</time>
      </trkpt>
      <trkpt lat="35.635574120" lon="-106.723203100">
        <ele>1683.300</ele>
        <time>2019-07-14T20:29:45Z</time>
      </trkpt>
      <trkpt lat="35.635774480" lon="-106.723198040">
        <ele>1684.000</ele>
        <time>2019-07-14T20:29:46Z</time>
      </trkpt>
      <trkpt lat="35.635988850" lon="-106.723215560">
        <ele>1683.600</ele>
        <time>2019-07-14T20:29:47Z</time>
      </trkpt>
      <trkpt lat="35.636190980" lon="-106.723238370">
        <ele>1683.900</ele>
        <time>2019-07-14T20:29:48Z</time>
      </trkpt>
      <trkpt lat="35.636393250" lon="-106.723280150">
        <ele>1684.100</ele>
        <time>2019-07-14T20:29:49Z</time>
      </trkpt>
      <trkpt lat="35.636589580" lon="-106.723335700">
        <ele>1684.100</ele>
        <time>2019-07-14T20:29:50Z</time>
      </trkpt>
      <trkpt lat="35.636783740" lon="-106.723404880">
        <ele>1685.400</ele>
        <time>2019-07-14T20:29:51Z</time>
      </trkpt>
      <trkpt lat="35.636986330" lon="-106.723481360">
        <ele>1684.600</ele>
        <time>2019-07-14T20:29:52Z</time>
      </trkpt>
      <trkpt lat="35.637178290" lon="-106.723573850">
        <ele>1685.300</ele>
        <time>2019-07-14T20:29:53Z</time>
      </trkpt>
      <trkpt lat="35.637362860" lon="-106.723659220">
        <ele>1684.800</ele>
        <time>2019-07-14T20:29:54Z</time>
      </trkpt>
      <trkpt lat="35.637545260" lon="-106.723738620">
        <ele>1684.900</ele>
        <time>2019-07-14T20:29:55Z</time>
      </trkpt>
      <trkpt lat="35.637729290" lon="-106.723815940">
        <ele>1685.900</ele>
        <time>2019-07-14T20:29:56Z</time>
      </trkpt>
      <trkpt lat="35.637908790" lon="-106.723898100">
        <ele>1686.600</ele>
        <time>2019-07-14T20:29:57Z</time>
      </trkpt>
      <trkpt lat="35.638077830" lon="-106.723972030">
        <ele>1686.400</ele>
        <time>2019-07-14T20:29:58Z</time>
      </trkpt>
      <trkpt lat="35.638251110" lon="-106.724045530">
        <ele>1687.300</ele>
        <time>2019-07-14T20:29:59Z</time>
      </trkpt>
      <trkpt lat="35.638418610" lon="-106.724110440">
        <ele>1687.200</ele>
        <time>2019-07-14T20:30:00Z</time>
      </trkpt>
      <trkpt lat="35.638581310" lon="-106.724182310">
        <ele>1687.400</ele>
        <time>2019-07-14T20:30:01Z</time>
      </trkpt>
      <trkpt lat="35.638746380" lon="-106.724243910">
        <ele>1687.200</ele>
        <time>2019-07-14T20:30:02Z</time>
      </trkpt>
      <trkpt lat="35.638910430" lon="-106.724304570">
        <ele>1687.700</ele>
        <time>2019-07-14T20:30:03Z</time>
      </trkpt>
      <trkpt lat="35.639073960" lon="-106.724365620">
        <ele>1688.200</ele>
        <time>2019-07-14T20:30:04Z</time>
      </trkpt>
      <trkpt lat="35.639242330" lon="-106.724428430">
        <ele>1688.800</ele>
        <time>2019-07-14T20:30:05Z</time>
      </trkpt>
      <trkpt lat="35.639408200" lon="-106.724480280">
        <ele>1688.800</ele>
        <time>2019-07-14T20:30:06Z</time>
      </trkpt>
      <trkpt lat="35.639567660" lon="-106.724514760">
        <ele>1688.500</ele>
        <time>2019-07-14T20:30:07Z</time>
      </trkpt>
      <trkpt lat="35.639732780" lon="-106.724549850">
        <ele>1688.000</ele>
        <time>2019-07-14T20:30:08Z</time>
      </trkpt>
      <trkpt lat="35.639895490" lon="-106.724571140">
        <ele>1688.300</ele>
        <time>2019-07-14T20:30:09Z</time>
      </trkpt>
      <trkpt lat="35.640045370" lon="-106.724589720">
        <ele>1687.300</ele>
        <time>2019-07-14T20:30:10Z</time>
      </trkpt>
      <trkpt lat="35.640203970" lon="-106.724609570">
        <ele>1687.500</ele>
        <time>2019-07-14T20:30:11Z</time>
      </trkpt>
      <trkpt lat="35.640347890" lon="-106.724630190">
        <ele>1686.000</ele>
        <time>2019-07-14T20:30:12Z</time>
      </trkpt>
      <trkpt lat="35.640503210" lon="-106.724644760">
        <ele>1685.600</ele>
        <time>2019-07-14T20:30:13Z</time>
      </trkpt>
      <trkpt lat="35.640658720" lon="-106.724655310">
        <ele>1685.200</ele>
        <time>2019-07-14T20:30:14Z</time>
      </trkpt>
      <trkpt lat="35.640808280" lon="-106.724657000">
        <ele>1684.900</ele>
        <time>2019-07-14T20:30:15Z</time>
      </trkpt>
      <trkpt lat="35.640960810" lon="-106.724659120">
        <ele>1684.900</ele>
        <time>2019-07-14T20:30:16Z</time>
      </trkpt>
      <trkpt lat="35.641104000" lon="-106.724664520">
        <ele>1685.100</ele>
        <time>2019-07-14T20:30:17Z</time>
      </trkpt>
      <trkpt lat="35.641246600" lon="-106.724663700">
        <ele>1685.000</ele>
        <time>2019-07-14T20:30:18Z</time>
      </trkpt>
      <trkpt lat="35.641373790" lon="-106.724671210">
        <ele>1684.600</ele>
        <time>2019-07-14T20:30:19Z</time>
      </trkpt>
      <trkpt lat="35.641505070" lon="-106.724676740">
        <ele>1685.000</ele>
        <time>2019-07-14T20:30:20Z</time>
      </trkpt>
      <trkpt lat="35.641639190" lon="-106.724691300">
        <ele>1685.200</ele>
        <time>2019-07-14T20:30:21Z</time>
      </trkpt>
      <trkpt lat="35.641761480" lon="-106.724688490">
        <ele>1684.600</ele>
        <time>2019-07-14T20:30:22Z</time>
      </trkpt>
      <trkpt lat="35.641885220" lon="-106.724687110">
        <ele>1684.500</ele>
        <time>2019-07-14T20:30:23Z</time>
      </trkpt>
      <trkpt lat="35.642009250" lon="-106.724680360">
        <ele>1683.600</ele>
        <time>2019-07-14T20:30:24Z</time>
      </trkpt>
      <trkpt lat="35.642135730" lon="-106.724681000">
        <ele>1683.700</ele>
        <time>2019-07-14T20:30:25Z</time>
      </trkpt>
      <trkpt lat="35.642257660" lon="-106.724684860">
        <ele>1683.200</ele>
        <time>2019-07-14T20:30:26Z</time>
      </trkpt>
      <trkpt lat="35.642360140" lon="-106.724689120">
        <ele>1680.900</ele>
        <time>2019-07-14T20:30:27Z</time>
      </trkpt>
      <trkpt lat="35.642483050" lon="-106.724694020">
        <ele>1681.000</ele>
        <time>2019-07-14T20:30:28Z</time>
      </trkpt>
      <trkpt lat="35.642604380" lon="-106.724692100">
        <ele>1679.900</ele>
        <time>2019-07-14T20:30:29Z</time>
      </trkpt>
      <trkpt lat="35.642721740" lon="-106.724698370">
        <ele>1679.700</ele>
        <time>2019-07-14T20:30:30Z</time>
      </trkpt>
      <trkpt lat="35.642840410" lon="-106.724711440">
        <ele>1680.200</ele>
        <time>2019-07-14T20:30:31Z</time>
      </trkpt>
      <trkpt lat="35.642954450" lon="-106.724721540">
        <ele>1680.100</ele>
        <time>2019-07-14T20:30:32Z</time>
      </trkpt>
      <trkpt lat="35.643069710" lon="-106.724740330">
        <ele>1680.400</ele>
        <time>2019-07-14T20:30:33Z</time>
      </trkpt>
      <trkpt lat="35.643177730" lon="-106.724762520">
        <ele>1680.300</ele>
        <time>2019-07-14T20:30:34Z</time>
      </trkpt>
      <trkpt lat="35.643286970" lon="-106.724782180">
        <ele>1678.700</ele>
        <time>2019-07-14T20:30:35Z</time>
      </trkpt>
      <trkpt lat="35.643396890" lon="-106.724811130">
        <ele>1678.500</ele>
        <time>2019-07-14T20:30:36Z</time>
      </trkpt>
      <trkpt lat="35.643501100" lon="-106.724852750">
        <ele>1679.500</ele>
        <time>2019-07-14T20:30:37Z</time>
      </trkpt>
      <trkpt lat="35.643625740" lon="-106.724892370">
        <ele>1679.300</ele>
        <time>2019-07-14T20:30:38Z</time>
      </trkpt>
      <trkpt lat="35.643745250" lon="-106.724935010">
        <ele>1680.000</ele>
        <time>2019-07-14T20:30:39Z</time>
      </trkpt>
      <trkpt lat="35.643858670" lon="-106.724968120">
        <ele>1679.800</ele>
        <time>2019-07-14T20:30:40Z</time>
      </trkpt>
      <trkpt lat="35.643973890" lon="-106.725017960">
        <ele>1680.300</ele>
        <time>2019-07-14T20:30:41Z</time>
      </trkpt>
      <trkpt lat="35.644099590" lon="-106.725051580">
        <ele>1680.600</ele>
        <time>2019-07-14T20:30:42Z</time>
      </trkpt>
      <trkpt lat="35.644221230" lon="-106.725098910">
        <ele>1680.900</ele>
        <time>2019-07-14T20:30:43Z</time>
      </trkpt>
      <trkpt lat="35.644328070" lon="-106.725160590">
        <ele>1680.200</ele>
        <time>2019-07-14T20:30:44Z</time>
      </trkpt>
      <trkpt lat="35.644442430" lon="-106.725214220">
        <ele>1680.300</ele>
        <time>2019-07-14T20:30:45Z</time>
      </trkpt>
      <trkpt lat="35.644557230" lon="-106.725281550">
        <ele>1681.200</ele>
        <time>2019-07-14T20:30:46Z</time>
      </trkpt>
      <trkpt lat="35.644665420" lon="-106.725349710">
        <ele>1681.500</ele>
        <time>2019-07-14T20:30:47Z</time>
      </trkpt>
      <trkpt lat="35.644769430" lon="-106.725423140">
        <ele>1681.400</ele>
        <time>2019-07-14T20:30:48Z</time>
      </trkpt>
      <trkpt lat="35.644872550" lon="-106.725493860">
        <ele>1681.600</ele>
        <time>2019-07-14T20:30:49Z</time>
      </trkpt>
      <trkpt lat="35.644980600" lon="-106.725574600">
        <ele>1682.600</ele>
        <time>2019-07-14T20:30:50Z</time>
      </trkpt>
      <trkpt lat="35.645085180" lon="-106.725660270">
        <ele>1682.800</ele>
        <time>2019-07-14T20:30:51Z</time>
      </trkpt>
      <trkpt lat="35.645196280" lon="-106.725751780">
        <ele>1683.600</ele>
        <time>2019-07-14T20:30:52Z</time>
      </trkpt>
      <trkpt lat="35.645293770" lon="-106.725820090">
        <ele>1683.400</ele>
        <time>2019-07-14T20:30:53Z</time>
      </trkpt>
      <trkpt lat="35.645388670" lon="-106.725904010">
        <ele>1684.800</ele>
        <time>2019-07-14T20:30:54Z</time>
      </trkpt>
      <trkpt lat="35.645485250" lon="-106.725978180">
        <ele>1684.600</ele>
        <time>2019-07-14T20:30:55Z</time>
      </trkpt>
      <trkpt lat="35.645582840" lon="-106.726058220">
        <ele>1684.700</ele>
        <time>2019-07-14T20:30:56Z</time>
      </trkpt>
      <trkpt lat="35.645690400" lon="-106.726146640">
        <ele>1684.700</ele>
        <time>2019-07-14T20:30:57Z</time>
      </trkpt>
      <trkpt lat="35.645789290" lon="-106.726245190">
        <ele>1684.300</ele>
        <time>2019-07-14T20:30:58Z</time>
      </trkpt>
      <trkpt lat="35.645894770" lon="-106.726339970">
        <ele>1685.400</ele>
        <time>2019-07-14T20:30:59Z</time>
      </trkpt>
      <trkpt lat="35.645982450" lon="-106.726420510">
        <ele>1685.500</ele>
        <time>2019-07-14T20:31:00Z</time>
      </trkpt>
      <trkpt lat="35.646077000" lon="-106.726515360">
        <ele>1684.200</ele>
        <time>2019-07-14T20:31:01Z</time>
      </trkpt>
      <trkpt lat="35.646180360" lon="-106.726604490">
        <ele>1684.800</ele>
        <time>2019-07-14T20:31:02Z</time>
      </trkpt>
      <trkpt lat="35.646281740" lon="-106.726695610">
        <ele>1684.000</ele>
        <time>2019-07-14T20:31:03Z</time>
      </trkpt>
      <trkpt lat="35.646388850" lon="-106.726792780">
        <ele>1684.500</ele>
        <time>2019-07-14T20:31:04Z</time>
      </trkpt>
      <trkpt lat="35.646496770" lon="-106.726895030">
        <ele>1685.400</ele>
        <time>2019-07-14T20:31:05Z</time>
      </trkpt>
      <trkpt lat="35.646607800" lon="-106.726984100">
        <ele>1686.300</ele>
        <time>2019-07-14T20:31:06Z</time>
      </trkpt>
      <trkpt lat="35.646718130" lon="-106.727087030">
        <ele>1686.700</ele>
        <time>2019-07-14T20:31:07Z</time>
      </trkpt>
      <trkpt lat="35.646807330" lon="-106.727168270">
        <ele>1684.000</ele>
        <time>2019-07-14T20:31:08Z</time>
      </trkpt>
      <trkpt lat="35.646913270" lon="-106.727262880">
        <ele>1683.300</ele>
        <time>2019-07-14T20:31:09Z</time>
      </trkpt>
      <trkpt lat="35.647021550" lon="-106.727368250">
        <ele>1681.500</ele>
        <time>2019-07-14T20:31:10Z</time>
      </trkpt>
      <trkpt lat="35.647140250" lon="-106.727485150">
        <ele>1683.500</ele>
        <time>2019-07-14T20:31:11Z</time>
      </trkpt>
      <trkpt lat="35.647256520" lon="-106.727597400">
        <ele>1684.100</ele>
        <time>2019-07-14T20:31:12Z</time>
      </trkpt>
      <trkpt lat="35.647371290" lon="-106.727705060">
        <ele>1685.400</ele>
        <time>2019-07-14T20:31:13Z</time>
      </trkpt>
      <trkpt lat="35.647491190" lon="-106.727819670">
        <ele>1684.300</ele>
        <time>2019-07-14T20:31:14Z</time>
      </trkpt>
      <trkpt lat="35.647611270" lon="-106.727924800">
        <ele>1684.300</ele>
        <time>2019-07-14T20:31:15Z</time>
      </trkpt>
      <trkpt lat="35.647728700" lon="-106.728039400">
        <ele>1684.200</ele>
        <time>2019-07-14T20:31:16Z</time>
      </trkpt>
      <trkpt lat="35.647859870" lon="-106.728162130">
        <ele>1685.000</ele>
        <time>2019-07-14T20:31:17Z</time>
      </trkpt>
      <trkpt lat="35.647991230" lon="-106.728281690">
        <ele>1684.900</ele>
        <time>2019-07-14T20:31:18Z</time>
      </trkpt>
      <trkpt lat="35.648122490" lon="-106.728399640">
        <ele>1685.000</ele>
        <time>2019-07-14T20:31:19Z</time>
      </trkpt>
      <trkpt lat="35.648253320" lon="-106.728515710">
        <ele>1684.200</ele>
        <time>2019-07-14T20:31:20Z</time>
      </trkpt>
      <trkpt lat="35.648383820" lon="-106.728638820">
        <ele>1684.100</ele>
        <time>2019-07-14T20:31:21Z</time>
      </trkpt>
      <trkpt lat="35.648513160" lon="-106.728761880">
        <ele>1684.200</ele>
        <time>2019-07-14T20:31:22Z</time>
      </trkpt>
      <trkpt lat="35.648644530" lon="-106.728887980">
        <ele>1684.600</ele>
        <time>2019-07-14T20:31:23Z</time>
      </trkpt>
      <trkpt lat="35.648776140" lon="-106.729013100">
        <ele>1684.500</ele>
        <time>2019-07-14T20:31:24Z</time>
      </trkpt>
      <trkpt lat="35.648909960" lon="-106.729139670">
        <ele>1684.100</ele>
        <time>2019-07-14T20:31:25Z</time>
      </trkpt>
      <trkpt lat="35.649047870" lon="-106.729273090">
        <ele>1683.500</ele>
        <time>2019-07-14T20:31:26Z</time>
      </trkpt>
      <trkpt lat="35.649183410" lon="-106.729394690">
        <ele>1682.300</ele>
        <time>2019-07-14T20:31:27Z</time>
      </trkpt>
      <trkpt lat="35.649318700" lon="-106.729522500">
        <ele>1682.300</ele>
        <time>2019-07-14T20:31:28Z</time>
      </trkpt>
      <trkpt lat="35.649452310" lon="-106.729650250">
        <ele>1682.400</ele>
        <time>2019-07-14T20:31:29Z</time>
      </trkpt>
      <trkpt lat="35.649588060" lon="-106.729770680">
        <ele>1681.700</ele>
        <time>2019-07-14T20:31:30Z</time>
      </trkpt>
      <trkpt lat="35.649725870" lon="-106.729887400">
        <ele>1680.800</ele>
        <time>2019-07-14T20:31:31Z</time>
      </trkpt>
      <trkpt lat="35.649867560" lon="-106.729995910">
        <ele>1681.900</ele>
        <time>2019-07-14T20:31:32Z</time>
      </trkpt>
      <trkpt lat="35.650006890" lon="-106.730117090">
        <ele>1683.200</ele>
        <time>2019-07-14T20:31:33Z</time>
      </trkpt>
      <trkpt lat="35.650138430" lon="-106.730244700">
        <ele>1682.600</ele>
        <time>2019-07-14T20:31:34Z</time>
      </trkpt>
      <trkpt lat="35.650275150" lon="-106.730360710">
        <ele>1682.700</ele>
        <time>2019-07-14T20:31:35Z</time>
      </trkpt>
      <trkpt lat="35.650421750" lon="-106.730491070">
        <ele>1682.100</ele>
        <time>2019-07-14T20:31:36Z</time>
      </trkpt>
      <trkpt lat="35.650565230" lon="-106.730627820">
        <ele>1682.700</ele>
        <time>2019-07-14T20:31:37Z</time>
      </trkpt>
      <trkpt lat="35.650706650" lon="-106.730758220">
        <ele>1682.800</ele>
        <time>2019-07-14T20:31:38Z</time>
      </trkpt>
      <trkpt lat="35.650836250" lon="-106.730883590">
        <ele>1680.600</ele>
        <time>2019-07-14T20:31:39Z</time>
      </trkpt>
      <trkpt lat="35.650978740" lon="-106.731014050">
        <ele>1681.400</ele>
        <time>2019-07-14T20:31:40Z</time>
      </trkpt>
      <trkpt lat="35.651123690" lon="-106.731156210">
        <ele>1681.300</ele>
        <time>2019-07-14T20:31:41Z</time>
      </trkpt>
      <trkpt lat="35.651271430" lon="-106.731294840">
        <ele>1682.300</ele>
        <time>2019-07-14T20:31:42Z</time>
      </trkpt>
      <trkpt lat="35.651418150" lon="-106.731431100">
        <ele>1682.600</ele>
        <time>2019-07-14T20:31:43Z</time>
      </trkpt>
      <trkpt lat="35.651568010" lon="-106.731561860">
        <ele>1682.800</ele>
        <time>2019-07-14T20:31:44Z</time>
      </trkpt>
      <trkpt lat="35.651713730" lon="-106.731702600">
        <ele>1683.200</ele>
        <time>2019-07-14T20:31:45Z</time>
      </trkpt>
      <trkpt lat="35.651862160" lon="-106.731838310">
        <ele>1683.100</ele>
        <time>2019-07-14T20:31:46Z</time>
      </trkpt>
      <trkpt lat="35.652007870" lon="-106.731981530">
        <ele>1683.600</ele>
        <time>2019-07-14T20:31:47Z</time>
      </trkpt>
      <trkpt lat="35.652155050" lon="-106.732105070">
        <ele>1683.100</ele>
        <time>2019-07-14T20:31:48Z</time>
      </trkpt>
      <trkpt lat="35.652295440" lon="-106.732242520">
        <ele>1683.300</ele>
        <time>2019-07-14T20:31:49Z</time>
      </trkpt>
      <trkpt lat="35.652438890" lon="-106.732383840">
        <ele>1682.800</ele>
        <time>2019-07-14T20:31:50Z</time>
      </trkpt>
      <trkpt lat="35.652588370" lon="-106.732519230">
        <ele>1683.600</ele>
        <time>2019-07-14T20:31:51Z</time>
      </trkpt>
      <trkpt lat="35.652737090" lon="-106.732653050">
        <ele>1684.200</ele>
        <time>2019-07-14T20:31:52Z</time>
      </trkpt>
      <trkpt lat="35.652888440" lon="-106.732788480">
        <ele>1685.000</ele>
        <time>2019-07-14T20:31:53Z</time>
      </trkpt>
      <trkpt lat="35.653034800" lon="-106.732922080">
        <ele>1686.300</ele>
        <time>2019-07-14T20:31:54Z</time>
      </trkpt>
      <trkpt lat="35.653184890" lon="-106.733053530">
        <ele>1687.400</ele>
        <time>2019-07-14T20:31:55Z</time>
      </trkpt>
      <trkpt lat="35.653333740" lon="-106.733182740">
        <ele>1687.800</ele>
        <time>2019-07-14T20:31:56Z</time>
      </trkpt>
      <trkpt lat="35.653475650" lon="-106.733321860">
        <ele>1688.900</ele>
        <time>2019-07-14T20:31:57Z</time>
      </trkpt>
      <trkpt lat="35.653618410" lon="-106.733457630">
        <ele>1689.200</ele>
        <time>2019-07-14T20:31:58Z</time>
      </trkpt>
      <trkpt lat="35.653754530" lon="-106.733592720">
        <ele>1689.400</ele>
        <time>2019-07-14T20:31:59Z</time>
      </trkpt>
      <trkpt lat="35.653899690" lon="-106.733720970">
        <ele>1690.100</ele>
        <time>2019-07-14T20:32:00Z</time>
      </trkpt>
      <trkpt lat="35.654052590" lon="-106.733861910">
        <ele>1690.200</ele>
        <time>2019-07-14T20:32:01Z</time>
      </trkpt>
      <trkpt lat="35.654192290" lon="-106.733995030">
        <ele>1691.500</ele>
        <time>2019-07-14T20:32:02Z</time>
      </trkpt>
      <trkpt lat="35.654313590" lon="-106.734107700">
        <ele>1688.000</ele>
        <time>2019-07-14T20:32:03Z</time>
      </trkpt>
      <trkpt lat="35.654461370" lon="-106.734234770">
        <ele>1689.600</ele>
        <time>2019-07-14T20:32:04Z</time>
      </trkpt>
      <trkpt lat="35.654595560" lon="-106.734358520">
        <ele>1687.800</ele>
        <time>2019-07-14T20:32:05Z</time>
      </trkpt>
      <trkpt lat="35.654732710" lon="-106.734482610">
        <ele>1688.000</ele>
        <time>2019-07-14T20:32:06Z</time>
      </trkpt>
      <trkpt lat="35.654870720" lon="-106.734604790">
        <ele>1689.300</ele>
        <time>2019-07-14T20:32:07Z</time>
      </trkpt>
      <trkpt lat="35.655008070" lon="-106.734737380">
        <ele>1691.500</ele>
        <time>2019-07-14T20:32:08Z</time>
      </trkpt>
      <trkpt lat="35.655148920" lon="-106.734862030">
        <ele>1688.900</ele>
        <time>2019-07-14T20:32:09Z</time>
      </trkpt>
      <trkpt lat="35.655280450" lon="-106.734991410">
        <ele>1688.600</ele>
        <time>2019-07-14T20:32:10Z</time>
      </trkpt>
      <trkpt lat="35.655431340" lon="-106.735104590">
        <ele>1690.400</ele>
        <time>2019-07-14T20:32:11Z</time>
      </trkpt>
      <trkpt lat="35.655596150" lon="-106.735214440">
        <ele>1692.200</ele>
        <time>2019-07-14T20:32:12Z</time>
      </trkpt>
      <trkpt lat="35.655760430" lon="-106.735330460">
        <ele>1693.000</ele>
        <time>2019-07-14T20:32:13Z</time>
      </trkpt>
      <trkpt lat="35.655914010" lon="-106.735437240">
        <ele>1692.600</ele>
        <time>2019-07-14T20:32:14Z</time>
      </trkpt>
      <trkpt lat="35.656089470" lon="-106.735512910">
        <ele>1693.200</ele>
        <time>2019-07-14T20:32:15Z</time>
      </trkpt>
      <trkpt lat="35.656268190" lon="-106.735599690">
        <ele>1693.100</ele>
        <time>2019-07-14T20:32:16Z</time>
      </trkpt>
      <trkpt lat="35.656452200" lon="-106.735671070">
        <ele>1695.600</ele>
        <time>2019-07-14T20:32:17Z</time>
      </trkpt>
      <trkpt lat="35.656632600" lon="-106.735732640">
        <ele>1696.400</ele>
        <time>2019-07-14T20:32:18Z</time>
      </trkpt>
      <trkpt lat="35.656810180" lon="-106.735793420">
        <ele>1692.100</ele>
        <time>2019-07-14T20:32:19Z</time>
      </trkpt>
      <trkpt lat="35.656979620" lon="-106.735850570">
        <ele>1694.200</ele>
        <time>2019-07-14T20:32:20Z</time>
      </trkpt>
      <trkpt lat="35.657160310" lon="-106.735893820">
        <ele>1697.200</ele>
        <time>2019-07-14T20:32:21Z</time>
      </trkpt>
      <trkpt lat="35.657326570" lon="-106.735936640">
        <ele>1698.500</ele>
        <time>2019-07-14T20:32:22Z</time>
      </trkpt>
      <trkpt lat="35.657498800" lon="-106.735976850">
        <ele>1701.300</ele>
        <time>2019-07-14T20:32:23Z</time>
      </trkpt>
      <trkpt lat="35.657668870" lon="-106.736007490">
        <ele>1702.700</ele>
        <time>2019-07-14T20:32:24Z</time>
      </trkpt>
      <trkpt lat="35.657848320" lon="-106.736041730">
        <ele>1704.400</ele>
        <time>2019-07-14T20:32:25Z</time>
      </trkpt>
      <trkpt lat="35.658028570" lon="-106.736075830">
        <ele>1705.900</ele>
        <time>2019-07-14T20:32:26Z</time>
      </trkpt>
      <trkpt lat="35.658217970" lon="-106.736111420">
        <ele>1705.900</ele>
        <time>2019-07-14T20:32:27Z</time>
      </trkpt>
      <trkpt lat="35.658406570" lon="-106.736144460">
        <ele>1705.900</ele>
        <time>2019-07-14T20:32:28Z</time>
      </trkpt>
      <trkpt lat="35.658598270" lon="-106.736181790">
        <ele>1706.400</ele>
        <time>2019-07-14T20:32:29Z</time>
      </trkpt>
      <trkpt lat="35.658786710" lon="-106.736217500">
        <ele>1706.400</ele>
        <time>2019-07-14T20:32:30Z</time>
      </trkpt>
      <trkpt lat="35.658977040" lon="-106.736238460">
        <ele>1706.000</ele>
        <time>2019-07-14T20:32:31Z</time>
      </trkpt>
      <trkpt lat="35.659175780" lon="-106.736267700">
        <ele>1704.000</ele>
        <time>2019-07-14T20:32:32Z</time>
      </trkpt>
      <trkpt lat="35.659366400" lon="-106.736283700">
        <ele>1702.600</ele>
        <time>2019-07-14T20:32:33Z</time>
      </trkpt>
      <trkpt lat="35.659553460" lon="-106.736315730">
        <ele>1700.900</ele>
        <time>2019-07-14T20:32:34Z</time>
      </trkpt>
      <trkpt lat="35.659742230" lon="-106.736380650">
        <ele>1700.200</ele>
        <time>2019-07-14T20:32:35Z</time>
      </trkpt>
      <trkpt lat="35.659912540" lon="-106.736453780">
        <ele>1698.100</ele>
        <time>2019-07-14T20:32:36Z</time>
      </trkpt>
      <trkpt lat="35.660082070" lon="-106.736560300">
        <ele>1696.300</ele>
        <time>2019-07-14T20:32:37Z</time>
      </trkpt>
      <trkpt lat="35.660238740" lon="-106.736689650">
        <ele>1696.100</ele>
        <time>2019-07-14T20:32:38Z</time>
      </trkpt>
      <trkpt lat="35.660382350" lon="-106.736846040">
        <ele>1695.300</ele>
        <time>2019-07-14T20:32:39Z</time>
      </trkpt>
      <trkpt lat="35.660505820" lon="-106.737020930">
        <ele>1695.200</ele>
        <time>2019-07-14T20:32:40Z</time>
      </trkpt>
      <trkpt lat="35.660613760" lon="-106.737201050">
        <ele>1695.400</ele>
        <time>2019-07-14T20:32:41Z</time>
      </trkpt>
      <trkpt lat="35.660698260" lon="-106.737403800">
        <ele>1696.000</ele>
        <time>2019-07-14T20:32:42Z</time>
      </trkpt>
      <trkpt lat="35.660774260" lon="-106.737605790">
        <ele>1696.000</ele>
        <time>2019-07-14T20:32:43Z</time>
      </trkpt>
      <trkpt lat="35.660848400" lon="-106.737798950">
        <ele>1697.500</ele>
        <time>2019-07-14T20:32:44Z</time>
      </trkpt>
      <trkpt lat="35.660914900" lon="-106.738008550">
        <ele>1699.100</ele>
        <time>2019-07-14T20:32:45Z</time>
      </trkpt>
      <trkpt lat="35.660982670" lon="-106.738200540">
        <ele>1701.000</ele>
        <time>2019-07-14T20:32:46Z</time>
      </trkpt>
      <trkpt lat="35.661050490" lon="-106.738396300">
        <ele>1703.100</ele>
        <time>2019-07-14T20:32:47Z</time>
      </trkpt>
      <trkpt lat="35.661125050" lon="-106.738588740">
        <ele>1704.900</ele>
        <time>2019-07-14T20:32:48Z</time>
      </trkpt>
      <trkpt lat="35.661209830" lon="-106.738770410">
        <ele>1706.600</ele>
        <time>2019-07-14T20:32:49Z</time>
      </trkpt>
      <trkpt lat="35.661310380" lon="-106.738938800">
        <ele>1708.200</ele>
        <time>2019-07-14T20:32:50Z</time>
      </trkpt>
      <trkpt lat="35.661423920" lon="-106.739090080">
        <ele>1709.400</ele>
        <time>2019-07-14T20:32:51Z</time>
      </trkpt>
      <trkpt lat="35.661545230" lon="-106.739245540">
        <ele>1709.200</ele>
        <time>2019-07-14T20:32:52Z</time>
      </trkpt>
      <trkpt lat="35.661686000" lon="-106.739369570">
        <ele>1711.300</ele>
        <time>2019-07-14T20:32:53Z</time>
      </trkpt>
      <trkpt lat="35.661828630" lon="-106.739496460">
        <ele>1711.700</ele>
        <time>2019-07-14T20:32:54Z</time>
      </trkpt>
      <trkpt lat="35.661982680" lon="-106.739611080">
        <ele>1712.400</ele>
        <time>2019-07-14T20:32:55Z</time>
      </trkpt>
      <trkpt lat="35.662138120" lon="-106.739726350">
        <ele>1713.600</ele>
        <time>2019-07-14T20:32:56Z</time>
      </trkpt>
      <trkpt lat="35.662291780" lon="-106.739845880">
        <ele>1715.400</ele>
        <time>2019-07-14T20:32:57Z</time>
      </trkpt>
      <trkpt lat="35.662451680" lon="-106.739980050">
        <ele>1716.400</ele>
        <time>2019-07-14T20:32:58Z</time>
      </trkpt>
      <trkpt lat="35.662604430" lon="-106.740113390">
        <ele>1716.400</ele>
        <time>2019-07-14T20:32:59Z</time>
      </trkpt>
      <trkpt lat="35.662767290" lon="-106.740249330">
        <ele>1716.600</ele>
        <time>2019-07-14T20:33:00Z</time>
      </trkpt>
      <trkpt lat="35.662928130" lon="-106.740383490">
        <ele>1717.700</ele>
        <time>2019-07-14T20:33:01Z</time>
      </trkpt>
      <trkpt lat="35.663090330" lon="-106.740508920">
        <ele>1718.700</ele>
        <time>2019-07-14T20:33:02Z</time>
      </trkpt>
      <trkpt lat="35.663256280" lon="-106.740618600">
        <ele>1718.600</ele>
        <time>2019-07-14T20:33:03Z</time>
      </trkpt>
      <trkpt lat="35.663423780" lon="-106.740722060">
        <ele>1718.600</ele>
        <time>2019-07-14T20:33:04Z</time>
      </trkpt>
      <trkpt lat="35.663603130" lon="-106.740799140">
        <ele>1718.000</ele>
        <time>2019-07-14T20:33:05Z</time>
      </trkpt>
      <trkpt lat="35.663781150" lon="-106.740877000">
        <ele>1718.400</ele>
        <time>2019-07-14T20:33:06Z</time>
      </trkpt>
      <trkpt lat="35.663947330" lon="-106.740962420">
        <ele>1717.900</ele>
        <time>2019-07-14T20:33:07Z</time>
      </trkpt>
      <trkpt lat="35.664108250" lon="-106.741072320">
        <ele>1717.500</ele>
        <time>2019-07-14T20:33:08Z</time>
      </trkpt>
      <trkpt lat="35.664253600" lon="-106.741202490">
        <ele>1717.900</ele>
        <time>2019-07-14T20:33:09Z</time>
      </trkpt>
      <trkpt lat="35.664403410" lon="-106.741328900">
        <ele>1718.400</ele>
        <time>2019-07-14T20:33:10Z</time>
      </trkpt>
      <trkpt lat="35.664513440" lon="-106.741502140">
        <ele>1717.600</ele>
        <time>2019-07-14T20:33:11Z</time>
      </trkpt>
      <trkpt lat="35.664638620" lon="-106.741650850">
        <ele>1717.600</ele>
        <time>2019-07-14T20:33:12Z</time>
      </trkpt>
      <trkpt lat="35.664762260" lon="-106.741807240">
        <ele>1717.800</ele>
        <time>2019-07-14T20:33:13Z</time>
      </trkpt>
      <trkpt lat="35.664882800" lon="-106.741962650">
        <ele>1718.000</ele>
        <time>2019-07-14T20:33:14Z</time>
      </trkpt>
      <trkpt lat="35.665007180" lon="-106.742110910">
        <ele>1718.100</ele>
        <time>2019-07-14T20:33:15Z</time>
      </trkpt>
      <trkpt lat="35.665126240" lon="-106.742260500">
        <ele>1717.800</ele>
        <time>2019-07-14T20:33:16Z</time>
      </trkpt>
      <trkpt lat="35.665247000" lon="-106.742411720">
        <ele>1718.400</ele>
        <time>2019-07-14T20:33:17Z</time>
      </trkpt>
      <trkpt lat="35.665367750" lon="-106.742548840">
        <ele>1718.300</ele>
        <time>2019-07-14T20:33:18Z</time>
      </trkpt>
      <trkpt lat="35.665496010" lon="-106.742683990">
        <ele>1717.700</ele>
        <time>2019-07-14T20:33:19Z</time>
      </trkpt>
      <trkpt lat="35.665630080" lon="-106.742818160">
        <ele>1717.500</ele>
        <time>2019-07-14T20:33:20Z</time>
      </trkpt>
      <trkpt lat="35.665768880" lon="-106.742946610">
        <ele>1717.200</ele>
        <time>2019-07-14T20:33:21Z</time>
      </trkpt>
      <trkpt lat="35.665913000" lon="-106.743068690">
        <ele>1716.500</ele>
        <time>2019-07-14T20:33:22Z</time>
      </trkpt>
      <trkpt lat="35.666061210" lon="-106.743184470">
        <ele>1715.600</ele>
        <time>2019-07-14T20:33:23Z</time>
      </trkpt>
      <trkpt lat="35.666216210" lon="-106.743298360">
        <ele>1715.100</ele>
        <time>2019-07-14T20:33:24Z</time>
      </trkpt>
      <trkpt lat="35.666379360" lon="-106.743406920">
        <ele>1714.200</ele>
        <time>2019-07-14T20:33:25Z</time>
      </trkpt>
      <trkpt lat="35.666565760" lon="-106.743494360">
        <ele>1712.300</ele>
        <time>2019-07-14T20:33:26Z</time>
      </trkpt>
      <trkpt lat="35.666738560" lon="-106.743558900">
        <ele>1709.900</ele>
        <time>2019-07-14T20:33:27Z</time>
      </trkpt>
      <trkpt lat="35.666915200" lon="-106.743582470">
        <ele>1709.100</ele>
        <time>2019-07-14T20:33:28Z</time>
      </trkpt>
      <trkpt lat="35.667095890" lon="-106.743564370">
        <ele>1706.500</ele>
        <time>2019-07-14T20:33:29Z</time>
      </trkpt>
      <trkpt lat="35.667272310" lon="-106.743516600">
        <ele>1707.600</ele>
        <time>2019-07-14T20:33:30Z</time>
      </trkpt>
      <trkpt lat="35.667435630" lon="-106.743434350">
        <ele>1707.100</ele>
        <time>2019-07-14T20:33:31Z</time>
      </trkpt>
      <trkpt lat="35.667600830" lon="-106.743353650">
        <ele>1708.800</ele>
        <time>2019-07-14T20:33:32Z</time>
      </trkpt>
      <trkpt lat="35.667734550" lon="-106.743220430">
        <ele>1707.600</ele>
        <time>2019-07-14T20:33:33Z</time>
      </trkpt>
      <trkpt lat="35.667872390" lon="-106.743092570">
        <ele>1707.300</ele>
        <time>2019-07-14T20:33:34Z</time>
      </trkpt>
      <trkpt lat="35.668013340" lon="-106.742975410">
        <ele>1706.900</ele>
        <time>2019-07-14T20:33:35Z</time>
      </trkpt>
      <trkpt lat="35.668149700" lon="-106.742843160">
        <ele>1706.500</ele>
        <time>2019-07-14T20:33:36Z</time>
      </trkpt>
      <trkpt lat="35.668289370" lon="-106.742716640">
        <ele>1705.300</ele>
        <time>2019-07-14T20:33:37Z</time>
      </trkpt>
      <trkpt lat="35.668429420" lon="-106.742594600">
        <ele>1704.700</ele>
        <time>2019-07-14T20:33:38Z</time>
      </trkpt>
      <trkpt lat="35.668569430" lon="-106.742459720">
        <ele>1704.000</ele>
        <time>2019-07-14T20:33:39Z</time>
      </trkpt>
      <trkpt lat="35.668711980" lon="-106.742335790">
        <ele>1702.400</ele>
        <time>2019-07-14T20:33:40Z</time>
      </trkpt>
      <trkpt lat="35.668862780" lon="-106.742219890">
        <ele>1700.500</ele>
        <time>2019-07-14T20:33:41Z</time>
      </trkpt>
      <trkpt lat="35.669018500" lon="-106.742117420">
        <ele>1700.100</ele>
        <time>2019-07-14T20:33:42Z</time>
      </trkpt>
      <trkpt lat="35.669181100" lon="-106.742021890">
        <ele>1700.400</ele>
        <time>2019-07-14T20:33:43Z</time>
      </trkpt>
      <trkpt lat="35.669340470" lon="-106.741937530">
        <ele>1699.700</ele>
        <time>2019-07-14T20:33:44Z</time>
      </trkpt>
      <trkpt lat="35.669507330" lon="-106.741850740">
        <ele>1699.000</ele>
        <time>2019-07-14T20:33:45Z</time>
      </trkpt>
      <trkpt lat="35.669670480" lon="-106.741751310">
        <ele>1699.500</ele>
        <time>2019-07-14T20:33:46Z</time>
      </trkpt>
      <trkpt lat="35.669837910" lon="-106.741660690">
        <ele>1699.200</ele>
        <time>2019-07-14T20:33:47Z</time>
      </trkpt>
      <trkpt lat="35.670004570" lon="-106.741568380">
        <ele>1699.000</ele>
        <time>2019-07-14T20:33:48Z</time>
      </trkpt>
      <trkpt lat="35.670165520" lon="-106.741470750">
        <ele>1698.800</ele>
        <time>2019-07-14T20:33:49Z</time>
      </trkpt>
      <trkpt lat="35.670335060" lon="-106.741368550">
        <ele>1699.400</ele>
        <time>2019-07-14T20:33:50Z</time>
      </trkpt>
      <trkpt lat="35.670500790" lon="-106.741276100">
        <ele>1699.700</ele>
        <time>2019-07-14T20:33:51Z</time>
      </trkpt>
      <trkpt lat="35.670673040" lon="-106.741192610">
        <ele>1700.900</ele>
        <time>2019-07-14T20:33:52Z</time>
      </trkpt>
      <trkpt lat="35.670837590" lon="-106.741111430">
        <ele>1701.100</ele>
        <time>2019-07-14T20:33:53Z</time>
      </trkpt>
      <trkpt lat="35.670999530" lon="-106.741030020">
        <ele>1701.700</ele>
        <time>2019-07-14T20:33:54Z</time>
      </trkpt>
      <trkpt lat="35.671159870" lon="-106.740933520">
        <ele>1701.600</ele>
        <time>2019-07-14T20:33:55Z</time>
      </trkpt>
      <trkpt lat="35.671326710" lon="-106.740847050">
        <ele>1701.400</ele>
        <time>2019-07-14T20:33:56Z</time>
      </trkpt>
      <trkpt lat="35.671494560" lon="-106.740770500">
        <ele>1701.600</ele>
        <time>2019-07-14T20:33:57Z</time>
      </trkpt>
      <trkpt lat="35.671667970" lon="-106.740711230">
        <ele>1701.900</ele>
        <time>2019-07-14T20:33:58Z</time>
      </trkpt>
      <trkpt lat="35.671842350" lon="-106.740671860">
        <ele>1701.400</ele>
        <time>2019-07-14T20:33:59Z</time>
      </trkpt>
      <trkpt lat="35.672022800" lon="-106.740645640">
        <ele>1701.700</ele>
        <time>2019-07-14T20:34:00Z</time>
      </trkpt>
      <trkpt lat="35.672202290" lon="-106.740619180">
        <ele>1702.200</ele>
        <time>2019-07-14T20:34:01Z</time>
      </trkpt>
      <trkpt lat="35.672381120" lon="-106.740588370">
        <ele>1702.100</ele>
        <time>2019-07-14T20:34:02Z</time>
      </trkpt>
      <trkpt lat="35.672562450" lon="-106.740539330">
        <ele>1702.600</ele>
        <time>2019-07-14T20:34:03Z</time>
      </trkpt>
      <trkpt lat="35.672730490" lon="-106.740465150">
        <ele>1702.800</ele>
        <time>2019-07-14T20:34:04Z</time>
      </trkpt>
      <trkpt lat="35.672883780" lon="-106.740385700">
        <ele>1702.900</ele>
        <time>2019-07-14T20:34:05Z</time>
      </trkpt>
      <trkpt lat="35.673026350" lon="-106.740272090">
        <ele>1703.700</ele>
        <time>2019-07-14T20:34:06Z</time>
      </trkpt>
      <trkpt lat="35.673152260" lon="-106.740112750">
        <ele>1700.800</ele>
        <time>2019-07-14T20:34:07Z</time>
      </trkpt>
      <trkpt lat="35.673262660" lon="-106.739937660">
        <ele>1701.800</ele>
        <time>2019-07-14T20:34:08Z</time>
      </trkpt>
      <trkpt lat="35.673319610" lon="-106.739700720">
        <ele>1703.100</ele>
        <time>2019-07-14T20:34:09Z</time>
      </trkpt>
      <trkpt lat="35.673413680" lon="-106.739525410">
        <ele>1701.200</ele>
        <time>2019-07-14T20:34:10Z</time>
      </trkpt>
      <trkpt lat="35.673524150" lon="-106.739373640">
        <ele>1702.400</ele>
        <time>2019-07-14T20:34:11Z</time>
      </trkpt>
      <trkpt lat="35.673631760" lon="-106.739233640">
        <ele>1703.400</ele>
        <time>2019-07-14T20:34:12Z</time>
      </trkpt>
      <trkpt lat="35.673763100" lon="-106.739116310">
        <ele>1699.900</ele>
        <time>2019-07-14T20:34:13Z</time>
      </trkpt>
      <trkpt lat="35.673886290" lon="-106.739004200">
        <ele>1700.400</ele>
        <time>2019-07-14T20:34:14Z</time>
      </trkpt>
      <trkpt lat="35.674019910" lon="-106.738897470">
        <ele>1701.200</ele>
        <time>2019-07-14T20:34:15Z</time>
      </trkpt>
      <trkpt lat="35.674151540" lon="-106.738799600">
        <ele>1700.900</ele>
        <time>2019-07-14T20:34:16Z</time>
      </trkpt>
      <trkpt lat="35.674287340" lon="-106.738703190">
        <ele>1701.500</ele>
        <time>2019-07-14T20:34:17Z</time>
      </trkpt>
      <trkpt lat="35.674427660" lon="-106.738622550">
        <ele>1700.800</ele>
        <time>2019-07-14T20:34:18Z</time>
      </trkpt>
      <trkpt lat="35.674574140" lon="-106.738547360">
        <ele>1701.100</ele>
        <time>2019-07-14T20:34:19Z</time>
      </trkpt>
      <trkpt lat="35.674716650" lon="-106.738478470">
        <ele>1701.100</ele>
        <time>2019-07-14T20:34:20Z</time>
      </trkpt>
      <trkpt lat="35.674858440" lon="-106.738422060">
        <ele>1702.000</ele>
        <time>2019-07-14T20:34:21Z</time>
      </trkpt>
      <trkpt lat="35.675004060" lon="-106.738367880">
        <ele>1703.400</ele>
        <time>2019-07-14T20:34:22Z</time>
      </trkpt>
      <trkpt lat="35.675147450" lon="-106.738306210">
        <ele>1702.000</ele>
        <time>2019-07-14T20:34:23Z</time>
      </trkpt>
      <trkpt lat="35.675294300" lon="-106.738260920">
        <ele>1701.700</ele>
        <time>2019-07-14T20:34:24Z</time>
      </trkpt>
      <trkpt lat="35.675446370" lon="-106.738214570">
        <ele>1704.700</ele>
        <time>2019-07-14T20:34:25Z</time>
      </trkpt>
      <trkpt lat="35.675600530" lon="-106.738180390">
        <ele>1707.300</ele>
        <time>2019-07-14T20:34:26Z</time>
      </trkpt>
      <trkpt lat="35.675759480" lon="-106.738133590">
        <ele>1709.200</ele>
        <time>2019-07-14T20:34:27Z</time>
      </trkpt>
      <trkpt lat="35.675901680" lon="-106.738086800">
        <ele>1706.300</ele>
        <time>2019-07-14T20:34:28Z</time>
      </trkpt>
      <trkpt lat="35.676067610" lon="-106.738041800">
        <ele>1706.700</ele>
        <time>2019-07-14T20:34:29Z</time>
      </trkpt>
      <trkpt lat="35.676229450" lon="-106.737994300">
        <ele>1707.100</ele>
        <time>2019-07-14T20:34:30Z</time>
      </trkpt>
      <trkpt lat="35.676396660" lon="-106.737955310">
        <ele>1707.100</ele>
        <time>2019-07-14T20:34:31Z</time>
      </trkpt>
      <trkpt lat="35.676557260" lon="-106.737922470">
        <ele>1707.200</ele>
        <time>2019-07-14T20:34:32Z</time>
      </trkpt>
      <trkpt lat="35.676718910" lon="-106.737902250">
        <ele>1708.200</ele>
        <time>2019-07-14T20:34:33Z</time>
      </trkpt>
      <trkpt lat="35.676881450" lon="-106.737892990">
        <ele>1708.800</ele>
        <time>2019-07-14T20:34:34Z</time>
      </trkpt>
      <trkpt lat="35.677037630" lon="-106.737879590">
        <ele>1708.600</ele>
        <time>2019-07-14T20:34:35Z</time>
      </trkpt>
      <trkpt lat="35.677192030" lon="-106.737859390">
        <ele>1708.600</ele>
        <time>2019-07-14T20:34:36Z</time>
      </trkpt>
      <trkpt lat="35.677356650" lon="-106.737837580">
        <ele>1708.300</ele>
        <time>2019-07-14T20:34:37Z</time>
      </trkpt>
      <trkpt lat="35.677501570" lon="-106.737779080">
        <ele>1708.700</ele>
        <time>2019-07-14T20:34:38Z</time>
      </trkpt>
      <trkpt lat="35.677656230" lon="-106.737737040">
        <ele>1709.500</ele>
        <time>2019-07-14T20:34:39Z</time>
      </trkpt>
      <trkpt lat="35.677783020" lon="-106.737671620">
        <ele>1709.800</ele>
        <time>2019-07-14T20:34:40Z</time>
      </trkpt>
      <trkpt lat="35.677903110" lon="-106.737560760">
        <ele>1710.900</ele>
        <time>2019-07-14T20:34:41Z</time>
      </trkpt>
      <trkpt lat="35.678007210" lon="-106.737477240">
        <ele>1708.600</ele>
        <time>2019-07-14T20:34:42Z</time>
      </trkpt>
      <trkpt lat="35.678126790" lon="-106.737378660">
        <ele>1710.700</ele>
        <time>2019-07-14T20:34:43Z</time>
      </trkpt>
      <trkpt lat="35.678247880" lon="-106.737280410">
        <ele>1711.000</ele>
        <time>2019-07-14T20:34:44Z</time>
      </trkpt>
      <trkpt lat="35.678369500" lon="-106.737209000">
        <ele>1711.500</ele>
        <time>2019-07-14T20:34:45Z</time>
      </trkpt>
      <trkpt lat="35.678485430" lon="-106.737121700">
        <ele>1711.700</ele>
        <time>2019-07-14T20:34:46Z</time>
      </trkpt>
      <trkpt lat="35.678615700" lon="-106.737064310">
        <ele>1712.300</ele>
        <time>2019-07-14T20:34:47Z</time>
      </trkpt>
      <trkpt lat="35.678750110" lon="-106.737006330">
        <ele>1712.400</ele>
        <time>2019-07-14T20:34:48Z</time>
      </trkpt>
      <trkpt lat="35.678886630" lon="-106.736979220">
        <ele>1711.300</ele>
        <time>2019-07-14T20:34:49Z</time>
      </trkpt>
      <trkpt lat="35.679028300" lon="-106.736973100">
        <ele>1710.200</ele>
        <time>2019-07-14T20:34:50Z</time>
      </trkpt>
      <trkpt lat="35.679165580" lon="-106.736991620">
        <ele>1710.500</ele>
        <time>2019-07-14T20:34:51Z</time>
      </trkpt>
      <trkpt lat="35.679308640" lon="-106.737020350">
        <ele>1708.300</ele>
        <time>2019-07-14T20:34:52Z</time>
      </trkpt>
      <trkpt lat="35.679453140" lon="-106.737042160">
        <ele>1708.000</ele>
        <time>2019-07-14T20:34:53Z</time>
      </trkpt>
      <trkpt lat="35.679589700" lon="-106.737071370">
        <ele>1707.000</ele>
        <time>2019-07-14T20:34:54Z</time>
      </trkpt>
      <trkpt lat="35.679728960" lon="-106.737108340">
        <ele>1707.000</ele>
        <time>2019-07-14T20:34:55Z</time>
      </trkpt>
      <trkpt lat="35.679874250" lon="-106.737143910">
        <ele>1707.300</ele>
        <time>2019-07-14T20:34:56Z</time>
      </trkpt>
      <trkpt lat="35.680012840" lon="-106.737189810">
        <ele>1707.700</ele>
        <time>2019-07-14T20:34:57Z</time>
      </trkpt>
      <trkpt lat="35.680144940" lon="-106.737246520">
        <ele>1707.300</ele>
        <time>2019-07-14T20:34:58Z</time>
      </trkpt>
      <trkpt lat="35.680278270" lon="-106.737296480">
        <ele>1706.600</ele>
        <time>2019-07-14T20:34:59Z</time>
      </trkpt>
      <trkpt lat="35.680420150" lon="-106.737339740">
        <ele>1707.000</ele>
        <time>2019-07-14T20:35:00Z</time>
      </trkpt>
      <trkpt lat="35.680564850" lon="-106.737385480">
        <ele>1708.300</ele>
        <time>2019-07-14T20:35:01Z</time>
      </trkpt>
      <trkpt lat="35.680706550" lon="-106.737417170">
        <ele>1708.100</ele>
        <time>2019-07-14T20:35:02Z</time>
      </trkpt>
      <trkpt lat="35.680841660" lon="-106.737460360">
        <ele>1708.300</ele>
        <time>2019-07-14T20:35:03Z</time>
      </trkpt>
      <trkpt lat="35.680985380" lon="-106.737502590">
        <ele>1708.700</ele>
        <time>2019-07-14T20:35:04Z</time>
      </trkpt>
      <trkpt lat="35.681125890" lon="-106.737544490">
        <ele>1709.000</ele>
        <time>2019-07-14T20:35:05Z</time>
      </trkpt>
      <trkpt lat="35.681263770" lon="-106.737585490">
        <ele>1709.400</ele>
        <time>2019-07-14T20:35:06Z</time>
      </trkpt>
      <trkpt lat="35.681404500" lon="-106.737632880">
        <ele>1711.500</ele>
        <time>2019-07-14T20:35:07Z</time>
      </trkpt>
      <trkpt lat="35.681543340" lon="-106.737671130">
        <ele>1712.900</ele>
        <time>2019-07-14T20:35:08Z</time>
      </trkpt>
      <trkpt lat="35.681683090" lon="-106.737711920">
        <ele>1713.500</ele>
        <time>2019-07-14T20:35:09Z</time>
      </trkpt>
      <trkpt lat="35.681814100" lon="-106.737757330">
        <ele>1714.200</ele>
        <time>2019-07-14T20:35:10Z</time>
      </trkpt>
      <trkpt lat="35.681950970" lon="-106.737791800">
        <ele>1713.900</ele>
        <time>2019-07-14T20:35:11Z</time>
      </trkpt>
      <trkpt lat="35.682088500" lon="-106.737829830">
        <ele>1713.800</ele>
        <time>2019-07-14T20:35:12Z</time>
      </trkpt>
      <trkpt lat="35.682228670" lon="-106.737860310">
        <ele>1715.000</ele>
        <time>2019-07-14T20:35:13Z</time>
      </trkpt>
      <trkpt lat="35.682372510" lon="-106.737894780">
        <ele>1716.300</ele>
        <time>2019-07-14T20:35:14Z</time>
      </trkpt>
      <trkpt lat="35.682521180" lon="-106.737938320">
        <ele>1716.600</ele>
        <time>2019-07-14T20:35:15Z</time>
      </trkpt>
      <trkpt lat="35.682673080" lon="-106.737972060">
        <ele>1717.300</ele>
        <time>2019-07-14T20:35:16Z</time>
      </trkpt>
      <trkpt lat="35.682817630" lon="-106.738009120">
        <ele>1717.900</ele>
        <time>2019-07-14T20:35:17Z</time>
      </trkpt>
      <trkpt lat="35.682967850" lon="-106.738045400">
        <ele>1718.200</ele>
        <time>2019-07-14T20:35:18Z</time>
      </trkpt>
      <trkpt lat="35.683119540" lon="-106.738090110">
        <ele>1718.900</ele>
        <time>2019-07-14T20:35:19Z</time>
      </trkpt>
      <trkpt lat="35.683276680" lon="-106.738120800">
        <ele>1719.700</ele>
        <time>2019-07-14T20:35:20Z</time>
      </trkpt>
      <trkpt lat="35.683427860" lon="-106.738167760">
        <ele>1720.700</ele>
        <time>2019-07-14T20:35:21Z</time>
      </trkpt>
      <trkpt lat="35.683582390" lon="-106.738198990">
        <ele>1720.600</ele>
        <time>2019-07-14T20:35:22Z</time>
      </trkpt>
      <trkpt lat="35.683731460" lon="-106.738223770">
        <ele>1718.900</ele>
        <time>2019-07-14T20:35:23Z</time>
      </trkpt>
      <trkpt lat="35.683890100" lon="-106.738241300">
        <ele>1720.200</ele>
        <time>2019-07-14T20:35:24Z</time>
      </trkpt>
      <trkpt lat="35.684048820" lon="-106.738244780">
        <ele>1720.100</ele>
        <time>2019-07-14T20:35:25Z</time>
      </trkpt>
      <trkpt lat="35.684208040" lon="-106.738253330">
        <ele>1720.100</ele>
        <time>2019-07-14T20:35:26Z</time>
      </trkpt>
      <trkpt lat="35.684363890" lon="-106.738256360">
        <ele>1719.900</ele>
        <time>2019-07-14T20:35:27Z</time>
      </trkpt>
      <trkpt lat="35.684518430" lon="-106.738238240">
        <ele>1719.000</ele>
        <time>2019-07-14T20:35:28Z</time>
      </trkpt>
      <trkpt lat="35.684674670" lon="-106.738239830">
        <ele>1718.900</ele>
        <time>2019-07-14T20:35:29Z</time>
      </trkpt>
      <trkpt lat="35.684828840" lon="-106.738239850">
        <ele>1719.200</ele>
        <time>2019-07-14T20:35:30Z</time>
      </trkpt>
      <trkpt lat="35.684979540" lon="-106.738240980">
        <ele>1719.100</ele>
        <time>2019-07-14T20:35:31Z</time>
      </trkpt>
      <trkpt lat="35.685135380" lon="-106.738232680">
        <ele>1717.900</ele>
        <time>2019-07-14T20:35:32Z</time>
      </trkpt>
      <trkpt lat="35.685282700" lon="-106.738213020">
        <ele>1718.300</ele>
        <time>2019-07-14T20:35:33Z</time>
      </trkpt>
      <trkpt lat="35.685430070" lon="-106.738188970">
        <ele>1718.700</ele>
        <time>2019-07-14T20:35:34Z</time>
      </trkpt>
      <trkpt lat="35.685588310" lon="-106.738174070">
        <ele>1719.400</ele>
        <time>2019-07-14T20:35:35Z</time>
      </trkpt>
      <trkpt lat="35.685746750" lon="-106.738147310">
        <ele>1719.000</ele>
        <time>2019-07-14T20:35:36Z</time>
      </trkpt>
      <trkpt lat="35.685904400" lon="-106.738108120">
        <ele>1719.500</ele>
        <time>2019-07-14T20:35:37Z</time>
      </trkpt>
      <trkpt lat="35.686062670" lon="-106.738051330">
        <ele>1719.300</ele>
        <time>2019-07-14T20:35:38Z</time>
      </trkpt>
      <trkpt lat="35.686212980" lon="-106.737984510">
        <ele>1719.400</ele>
        <time>2019-07-14T20:35:39Z</time>
      </trkpt>
      <trkpt lat="35.686363490" lon="-106.737906280">
        <ele>1721.200</ele>
        <time>2019-07-14T20:35:40Z</time>
      </trkpt>
      <trkpt lat="35.686504000" lon="-106.737812630">
        <ele>1721.000</ele>
        <time>2019-07-14T20:35:41Z</time>
      </trkpt>
      <trkpt lat="35.686625330" lon="-106.737692990">
        <ele>1720.300</ele>
        <time>2019-07-14T20:35:42Z</time>
      </trkpt>
      <trkpt lat="35.686751170" lon="-106.737568550">
        <ele>1720.600</ele>
        <time>2019-07-14T20:35:43Z</time>
      </trkpt>
      <trkpt lat="35.686872610" lon="-106.737455630">
        <ele>1721.200</ele>
        <time>2019-07-14T20:35:44Z</time>
      </trkpt>
      <trkpt lat="35.686983630" lon="-106.737330850">
        <ele>1721.300</ele>
        <time>2019-07-14T20:35:45Z</time>
      </trkpt>
      <trkpt lat="35.687107060" lon="-106.737205430">
        <ele>1721.100</ele>
        <time>2019-07-14T20:35:46Z</time>
      </trkpt>
      <trkpt lat="35.687219430" lon="-106.737079600">
        <ele>1720.800</ele>
        <time>2019-07-14T20:35:47Z</time>
      </trkpt>
      <trkpt lat="35.687340690" lon="-106.736958390">
        <ele>1721.800</ele>
        <time>2019-07-14T20:35:48Z</time>
      </trkpt>
      <trkpt lat="35.687456270" lon="-106.736834300">
        <ele>1717.900</ele>
        <time>2019-07-14T20:35:49Z</time>
      </trkpt>
      <trkpt lat="35.687576740" lon="-106.736712050">
        <ele>1718.500</ele>
        <time>2019-07-14T20:35:50Z</time>
      </trkpt>
      <trkpt lat="35.687695400" lon="-106.736590100">
        <ele>1718.900</ele>
        <time>2019-07-14T20:35:51Z</time>
      </trkpt>
      <trkpt lat="35.687811470" lon="-106.736474900">
        <ele>1718.100</ele>
        <time>2019-07-14T20:35:52Z</time>
      </trkpt>
      <trkpt lat="35.687930620" lon="-106.736346950">
        <ele>1718.300</ele>
        <time>2019-07-14T20:35:53Z</time>
      </trkpt>
      <trkpt lat="35.688050330" lon="-106.736217600">
        <ele>1718.700</ele>
        <time>2019-07-14T20:35:54Z</time>
      </trkpt>
      <trkpt lat="35.688172460" lon="-106.736088370">
        <ele>1718.600</ele>
        <time>2019-07-14T20:35:55Z</time>
      </trkpt>
      <trkpt lat="35.688279160" lon="-106.735952030">
        <ele>1719.800</ele>
        <time>2019-07-14T20:35:56Z</time>
      </trkpt>
      <trkpt lat="35.688399030" lon="-106.735813850">
        <ele>1720.100</ele>
        <time>2019-07-14T20:35:57Z</time>
      </trkpt>
      <trkpt lat="35.688509750" lon="-106.735677900">
        <ele>1719.300</ele>
        <time>2019-07-14T20:35:58Z</time>
      </trkpt>
      <trkpt lat="35.688629810" lon="-106.735546300">
        <ele>1717.600</ele>
        <time>2019-07-14T20:35:59Z</time>
      </trkpt>
      <trkpt lat="35.688741160" lon="-106.735421300">
        <ele>1718.400</ele>
        <time>2019-07-14T20:36:00Z</time>
      </trkpt>
      <trkpt lat="35.688853160" lon="-106.735294210">
        <ele>1719.100</ele>
        <time>2019-07-14T20:36:01Z</time>
      </trkpt>
      <trkpt lat="35.688966700" lon="-106.735165230">
        <ele>1719.800</ele>
        <time>2019-07-14T20:36:02Z</time>
      </trkpt>
      <trkpt lat="35.689076370" lon="-106.735037000">
        <ele>1720.800</ele>
        <time>2019-07-14T20:36:03Z</time>
      </trkpt>
      <trkpt lat="35.689195130" lon="-106.734912830">
        <ele>1721.200</ele>
        <time>2019-07-14T20:36:04Z</time>
      </trkpt>
      <trkpt lat="35.689312950" lon="-106.734787330">
        <ele>1720.500</ele>
        <time>2019-07-14T20:36:05Z</time>
      </trkpt>
      <trkpt lat="35.689434760" lon="-106.734663990">
        <ele>1719.900</ele>
        <time>2019-07-14T20:36:06Z</time>
      </trkpt>
      <trkpt lat="35.689561580" lon="-106.734539820">
        <ele>1720.000</ele>
        <time>2019-07-14T20:36:07Z</time>
      </trkpt>
      <trkpt lat="35.689697910" lon="-106.734421280">
        <ele>1719.600</ele>
        <time>2019-07-14T20:36:08Z</time>
      </trkpt>
      <trkpt lat="35.689820220" lon="-106.734294120">
        <ele>1718.700</ele>
        <time>2019-07-14T20:36:09Z</time>
      </trkpt>
      <trkpt lat="35.689942840" lon="-106.734169160">
        <ele>1718.900</ele>
        <time>2019-07-14T20:36:10Z</time>
      </trkpt>
      <trkpt lat="35.690066290" lon="-106.734054220">
        <ele>1717.900</ele>
        <time>2019-07-14T20:36:11Z</time>
      </trkpt>
      <trkpt lat="35.690192690" lon="-106.733942030">
        <ele>1718.200</ele>
        <time>2019-07-14T20:36:12Z</time>
      </trkpt>
      <trkpt lat="35.690312690" lon="-106.733819340">
        <ele>1718.100</ele>
        <time>2019-07-14T20:36:13Z</time>
      </trkpt>
      <trkpt lat="35.690433560" lon="-106.733703140">
        <ele>1718.700</ele>
        <time>2019-07-14T20:36:14Z</time>
      </trkpt>
      <trkpt lat="35.690556820" lon="-106.733581040">
        <ele>1718.600</ele>
        <time>2019-07-14T20:36:15Z</time>
      </trkpt>
      <trkpt lat="35.690683320" lon="-106.733473720">
        <ele>1720.000</ele>
        <time>2019-07-14T20:36:16Z</time>
      </trkpt>
      <trkpt lat="35.690817870" lon="-106.733378770">
        <ele>1719.600</ele>
        <time>2019-07-14T20:36:17Z</time>
      </trkpt>
      <trkpt lat="35.690953640" lon="-106.733284840">
        <ele>1720.400</ele>
        <time>2019-07-14T20:36:18Z</time>
      </trkpt>
      <trkpt lat="35.691091410" lon="-106.733207090">
        <ele>1720.200</ele>
        <time>2019-07-14T20:36:19Z</time>
      </trkpt>
      <trkpt lat="35.691237260" lon="-106.733143800">
        <ele>1720.200</ele>
        <time>2019-07-14T20:36:20Z</time>
      </trkpt>
      <trkpt lat="35.691387310" lon="-106.733089440">
        <ele>1720.600</ele>
        <time>2019-07-14T20:36:21Z</time>
      </trkpt>
      <trkpt lat="35.691541400" lon="-106.733063690">
        <ele>1721.300</ele>
        <time>2019-07-14T20:36:22Z</time>
      </trkpt>
      <trkpt lat="35.691700690" lon="-106.733035200">
        <ele>1721.900</ele>
        <time>2019-07-14T20:36:23Z</time>
      </trkpt>
      <trkpt lat="35.691856950" lon="-106.733007650">
        <ele>1721.900</ele>
        <time>2019-07-14T20:36:24Z</time>
      </trkpt>
      <trkpt lat="35.692019310" lon="-106.732982850">
        <ele>1723.100</ele>
        <time>2019-07-14T20:36:25Z</time>
      </trkpt>
      <trkpt lat="35.692178540" lon="-106.732954760">
        <ele>1723.800</ele>
        <time>2019-07-14T20:36:26Z</time>
      </trkpt>
      <trkpt lat="35.692337570" lon="-106.732932420">
        <ele>1723.800</ele>
        <time>2019-07-14T20:36:27Z</time>
      </trkpt>
      <trkpt lat="35.692492520" lon="-106.732914400">
        <ele>1723.800</ele>
        <time>2019-07-14T20:36:28Z</time>
      </trkpt>
      <trkpt lat="35.692646470" lon="-106.732892590">
        <ele>1724.500</ele>
        <time>2019-07-14T20:36:29Z</time>
      </trkpt>
      <trkpt lat="35.692807050" lon="-106.732874970">
        <ele>1725.200</ele>
        <time>2019-07-14T20:36:30Z</time>
      </trkpt>
      <trkpt lat="35.692963920" lon="-106.732860610">
        <ele>1724.900</ele>
        <time>2019-07-14T20:36:31Z</time>
      </trkpt>
      <trkpt lat="35.693126890" lon="-106.732856990">
        <ele>1725.200</ele>
        <time>2019-07-14T20:36:32Z</time>
      </trkpt>
      <trkpt lat="35.693289250" lon="-106.732859630">
        <ele>1725.600</ele>
        <time>2019-07-14T20:36:33Z</time>
      </trkpt>
      <trkpt lat="35.693454520" lon="-106.732867870">
        <ele>1726.400</ele>
        <time>2019-07-14T20:36:34Z</time>
      </trkpt>
      <trkpt lat="35.693618660" lon="-106.732877420">
        <ele>1727.400</ele>
        <time>2019-07-14T20:36:35Z</time>
      </trkpt>
      <trkpt lat="35.693778570" lon="-106.732894410">
        <ele>1726.100</ele>
        <time>2019-07-14T20:36:36Z</time>
      </trkpt>
      <trkpt lat="35.693940410" lon="-106.732914520">
        <ele>1724.900</ele>
        <time>2019-07-14T20:36:37Z</time>
      </trkpt>
      <trkpt lat="35.694107160" lon="-106.732937520">
        <ele>1725.800</ele>
        <time>2019-07-14T20:36:38Z</time>
      </trkpt>
      <trkpt lat="35.694266960" lon="-106.732951910">
        <ele>1726.400</ele>
        <time>2019-07-14T20:36:39Z</time>
      </trkpt>
      <trkpt lat="35.694430990" lon="-106.732972270">
        <ele>1726.800</ele>
        <time>2019-07-14T20:36:40Z</time>
      </trkpt>
      <trkpt lat="35.694593920" lon="-106.732995000">
        <ele>1727.600</ele>
        <time>2019-07-14T20:36:41Z</time>
      </trkpt>
      <trkpt lat="35.694757280" lon="-106.733021610">
        <ele>1727.900</ele>
        <time>2019-07-14T20:36:42Z</time>
      </trkpt>
      <trkpt lat="35.694925360" lon="-106.733044740">
        <ele>1728.700</ele>
        <time>2019-07-14T20:36:43Z</time>
      </trkpt>
      <trkpt lat="35.695088410" lon="-106.733066380">
        <ele>1728.600</ele>
        <time>2019-07-14T20:36:44Z</time>
      </trkpt>
      <trkpt lat="35.695246780" lon="-106.733086220">
        <ele>1727.500</ele>
        <time>2019-07-14T20:36:45Z</time>
      </trkpt>
      <trkpt lat="35.695405760" lon="-106.733106380">
        <ele>1726.900</ele>
        <time>2019-07-14T20:36:46Z</time>
      </trkpt>
      <trkpt lat="35.695571840" lon="-106.733123820">
        <ele>1726.700</ele>
        <time>2019-07-14T20:36:47Z</time>
      </trkpt>
      <trkpt lat="35.695742650" lon="-106.733154250">
        <ele>1725.500</ele>
        <time>2019-07-14T20:36:48Z</time>
      </trkpt>
      <trkpt lat="35.695909360" lon="-106.733181420">
        <ele>1725.600</ele>
        <time>2019-07-14T20:36:49Z</time>
      </trkpt>
      <trkpt lat="35.696067940" lon="-106.733198480">
        <ele>1724.800</ele>
        <time>2019-07-14T20:36:50Z</time>
      </trkpt>
      <trkpt lat="35.696223910" lon="-106.733214040">
        <ele>1726.300</ele>
        <time>2019-07-14T20:36:51Z</time>
      </trkpt>
      <trkpt lat="35.696389080" lon="-106.733235860">
        <ele>1727.200</ele>
        <time>2019-07-14T20:36:52Z</time>
      </trkpt>
      <trkpt lat="35.696551840" lon="-106.733258690">
        <ele>1727.700</ele>
        <time>2019-07-14T20:36:53Z</time>
      </trkpt>
      <trkpt lat="35.696713500" lon="-106.733276630">
        <ele>1728.200</ele>
        <time>2019-07-14T20:36:54Z</time>
      </trkpt>
      <trkpt lat="35.696873090" lon="-106.733301420">
        <ele>1727.700</ele>
        <time>2019-07-14T20:36:55Z</time>
      </trkpt>
      <trkpt lat="35.697033840" lon="-106.733313100">
        <ele>1727.500</ele>
        <time>2019-07-14T20:36:56Z</time>
      </trkpt>
      <trkpt lat="35.697195910" lon="-106.733320600">
        <ele>1727.900</ele>
        <time>2019-07-14T20:36:57Z</time>
      </trkpt>
      <trkpt lat="35.697357840" lon="-106.733314900">
        <ele>1728.300</ele>
        <time>2019-07-14T20:36:58Z</time>
      </trkpt>
      <trkpt lat="35.697519870" lon="-106.733298750">
        <ele>1729.100</ele>
        <time>2019-07-14T20:36:59Z</time>
      </trkpt>
      <trkpt lat="35.697678350" lon="-106.733272200">
        <ele>1729.900</ele>
        <time>2019-07-14T20:37:00Z</time>
      </trkpt>
      <trkpt lat="35.697834620" lon="-106.733228620">
        <ele>1729.800</ele>
        <time>2019-07-14T20:37:01Z</time>
      </trkpt>
      <trkpt lat="35.697991270" lon="-106.733180170">
        <ele>1731.100</ele>
        <time>2019-07-14T20:37:02Z</time>
      </trkpt>
      <trkpt lat="35.698144050" lon="-106.733092800">
        <ele>1731.500</ele>
        <time>2019-07-14T20:37:03Z</time>
      </trkpt>
      <trkpt lat="35.698285910" lon="-106.733011240">
        <ele>1732.600</ele>
        <time>2019-07-14T20:37:04Z</time>
      </trkpt>
      <trkpt lat="35.698434860" lon="-106.732924250">
        <ele>1733.200</ele>
        <time>2019-07-14T20:37:05Z</time>
      </trkpt>
      <trkpt lat="35.698579240" lon="-106.732840190">
        <ele>1732.900</ele>
        <time>2019-07-14T20:37:06Z</time>
      </trkpt>
      <trkpt lat="35.698722830" lon="-106.732748070">
        <ele>1733.500</ele>
        <time>2019-07-14T20:37:07Z</time>
      </trkpt>
      <trkpt lat="35.698866580" lon="-106.732653140">
        <ele>1732.700</ele>
        <time>2019-07-14T20:37:08Z</time>
      </trkpt>
      <trkpt lat="35.699004520" lon="-106.732555960">
        <ele>1733.300</ele>
        <time>2019-07-14T20:37:09Z</time>
      </trkpt>
      <trkpt lat="35.699139380" lon="-106.732443140">
        <ele>1731.500</ele>
        <time>2019-07-14T20:37:10Z</time>
      </trkpt>
      <trkpt lat="35.699273810" lon="-106.732335110">
        <ele>1730.800</ele>
        <time>2019-07-14T20:37:11Z</time>
      </trkpt>
      <trkpt lat="35.699408670" lon="-106.732226670">
        <ele>1730.200</ele>
        <time>2019-07-14T20:37:12Z</time>
      </trkpt>
      <trkpt lat="35.699541800" lon="-106.732111610">
        <ele>1729.700</ele>
        <time>2019-07-14T20:37:13Z</time>
      </trkpt>
      <trkpt lat="35.699676860" lon="-106.731992890">
        <ele>1729.700</ele>
        <time>2019-07-14T20:37:14Z</time>
      </trkpt>
      <trkpt lat="35.699818100" lon="-106.731883080">
        <ele>1729.900</ele>
        <time>2019-07-14T20:37:15Z</time>
      </trkpt>
      <trkpt lat="35.699960450" lon="-106.731783580">
        <ele>1730.200</ele>
        <time>2019-07-14T20:37:16Z</time>
      </trkpt>
      <trkpt lat="35.700095840" lon="-106.731656430">
        <ele>1730.000</ele>
        <time>2019-07-14T20:37:17Z</time>
      </trkpt>
      <trkpt lat="35.700231890" lon="-106.731561620">
        <ele>1730.600</ele>
        <time>2019-07-14T20:37:18Z</time>
      </trkpt>
      <trkpt lat="35.700359020" lon="-106.731439300">
        <ele>1729.800</ele>
        <time>2019-07-14T20:37:19Z</time>
      </trkpt>
      <trkpt lat="35.700495320" lon="-106.731327040">
        <ele>1729.100</ele>
        <time>2019-07-14T20:37:20Z</time>
      </trkpt>
      <trkpt lat="35.700637530" lon="-106.731244630">
        <ele>1728.700</ele>
        <time>2019-07-14T20:37:21Z</time>
      </trkpt>
      <trkpt lat="35.700787060" lon="-106.731176810">
        <ele>1728.900</ele>
        <time>2019-07-14T20:37:22Z</time>
      </trkpt>
      <trkpt lat="35.700943690" lon="-106.731127500">
        <ele>1728.500</ele>
        <time>2019-07-14T20:37:23Z</time>
      </trkpt>
      <trkpt lat="35.701100680" lon="-106.731104500">
        <ele>1728.700</ele>
        <time>2019-07-14T20:37:24Z</time>
      </trkpt>
      <trkpt lat="35.701259610" lon="-106.731107540">
        <ele>1728.500</ele>
        <time>2019-07-14T20:37:25Z</time>
      </trkpt>
      <trkpt lat="35.701408450" lon="-106.731105860">
        <ele>1725.300</ele>
        <time>2019-07-14T20:37:26Z</time>
      </trkpt>
      <trkpt lat="35.701569150" lon="-106.731121120">
        <ele>1725.700</ele>
        <time>2019-07-14T20:37:27Z</time>
      </trkpt>
      <trkpt lat="35.701735170" lon="-106.731141790">
        <ele>1725.300</ele>
        <time>2019-07-14T20:37:28Z</time>
      </trkpt>
      <trkpt lat="35.701892900" lon="-106.731167330">
        <ele>1725.000</ele>
        <time>2019-07-14T20:37:29Z</time>
      </trkpt>
      <trkpt lat="35.702045020" lon="-106.731192760">
        <ele>1724.300</ele>
        <time>2019-07-14T20:37:30Z</time>
      </trkpt>
      <trkpt lat="35.702186520" lon="-106.731206270">
        <ele>1724.800</ele>
        <time>2019-07-14T20:37:31Z</time>
      </trkpt>
      <trkpt lat="35.702328150" lon="-106.731229560">
        <ele>1726.100</ele>
        <time>2019-07-14T20:37:32Z</time>
      </trkpt>
      <trkpt lat="35.702475670" lon="-106.731245450">
        <ele>1727.500</ele>
        <time>2019-07-14T20:37:33Z</time>
      </trkpt>
      <trkpt lat="35.702619490" lon="-106.731245250">
        <ele>1728.300</ele>
        <time>2019-07-14T20:37:34Z</time>
      </trkpt>
      <trkpt lat="35.702756890" lon="-106.731221990">
        <ele>1728.500</ele>
        <time>2019-07-14T20:37:35Z</time>
      </trkpt>
      <trkpt lat="35.702889030" lon="-106.731166790">
        <ele>1730.000</ele>
        <time>2019-07-14T20:37:36Z</time>
      </trkpt>
      <trkpt lat="35.703014410" lon="-106.731115520">
        <ele>1730.700</ele>
        <time>2019-07-14T20:37:37Z</time>
      </trkpt>
      <trkpt lat="35.703104290" lon="-106.730995010">
        <ele>1730.700</ele>
        <time>2019-07-14T20:37:38Z</time>
      </trkpt>
      <trkpt lat="35.703205020" lon="-106.730892560">
        <ele>1730.500</ele>
        <time>2019-07-14T20:37:39Z</time>
      </trkpt>
      <trkpt lat="35.703290950" lon="-106.730787380">
        <ele>1731.400</ele>
        <time>2019-07-14T20:37:40Z</time>
      </trkpt>
      <trkpt lat="35.703338900" lon="-106.730591640">
        <ele>1730.400</ele>
        <time>2019-07-14T20:37:41Z</time>
      </trkpt>
      <trkpt lat="35.703403840" lon="-106.730423000">
        <ele>1729.300</ele>
        <time>2019-07-14T20:37:42Z</time>
      </trkpt>
      <trkpt lat="35.703464750" lon="-106.730260160">
        <ele>1730.900</ele>
        <time>2019-07-14T20:37:43Z</time>
      </trkpt>
      <trkpt lat="35.703538300" lon="-106.730109010">
        <ele>1731.400</ele>
        <time>2019-07-14T20:37:44Z</time>
      </trkpt>
      <trkpt lat="35.703617950" lon="-106.729944870">
        <ele>1731.300</ele>
        <time>2019-07-14T20:37:45Z</time>
      </trkpt>
      <trkpt lat="35.703702520" lon="-106.729786770">
        <ele>1731.300</ele>
        <time>2019-07-14T20:37:46Z</time>
      </trkpt>
      <trkpt lat="35.703778300" lon="-106.729640250">
        <ele>1731.100</ele>
        <time>2019-07-14T20:37:47Z</time>
      </trkpt>
      <trkpt lat="35.703862470" lon="-106.729494620">
        <ele>1732.600</ele>
        <time>2019-07-14T20:37:48Z</time>
      </trkpt>
      <trkpt lat="35.703954060" lon="-106.729353000">
        <ele>1734.100</ele>
        <time>2019-07-14T20:37:49Z</time>
      </trkpt>
      <trkpt lat="35.704046390" lon="-106.729213520">
        <ele>1734.400</ele>
        <time>2019-07-14T20:37:50Z</time>
      </trkpt>
      <trkpt lat="35.704161450" lon="-106.729086060">
        <ele>1736.000</ele>
        <time>2019-07-14T20:37:51Z</time>
      </trkpt>
      <trkpt lat="35.704282600" lon="-106.728956810">
        <ele>1736.900</ele>
        <time>2019-07-14T20:37:52Z</time>
      </trkpt>
      <trkpt lat="35.704402720" lon="-106.728835600">
        <ele>1737.500</ele>
        <time>2019-07-14T20:37:53Z</time>
      </trkpt>
      <trkpt lat="35.704533530" lon="-106.728717750">
        <ele>1737.700</ele>
        <time>2019-07-14T20:37:54Z</time>
      </trkpt>
      <trkpt lat="35.704666420" lon="-106.728600220">
        <ele>1737.800</ele>
        <time>2019-07-14T20:37:55Z</time>
      </trkpt>
      <trkpt lat="35.704806600" lon="-106.728476470">
        <ele>1736.500</ele>
        <time>2019-07-14T20:37:56Z</time>
      </trkpt>
      <trkpt lat="35.704951940" lon="-106.728362370">
        <ele>1737.400</ele>
        <time>2019-07-14T20:37:57Z</time>
      </trkpt>
      <trkpt lat="35.705107030" lon="-106.728253140">
        <ele>1737.000</ele>
        <time>2019-07-14T20:37:58Z</time>
      </trkpt>
      <trkpt lat="35.705268160" lon="-106.728142140">
        <ele>1737.700</ele>
        <time>2019-07-14T20:37:59Z</time>
      </trkpt>
      <trkpt lat="35.705442870" lon="-106.728050220">
        <ele>1737.800</ele>
        <time>2019-07-14T20:38:00Z</time>
      </trkpt>
      <trkpt lat="35.705631430" lon="-106.727957540">
        <ele>1738.300</ele>
        <time>2019-07-14T20:38:01Z</time>
      </trkpt>
      <trkpt lat="35.705814100" lon="-106.727866820">
        <ele>1738.500</ele>
        <time>2019-07-14T20:38:02Z</time>
      </trkpt>
      <trkpt lat="35.706005560" lon="-106.727776000">
        <ele>1738.900</ele>
        <time>2019-07-14T20:38:03Z</time>
      </trkpt>
      <trkpt lat="35.706198500" lon="-106.727674980">
        <ele>1738.400</ele>
        <time>2019-07-14T20:38:04Z</time>
      </trkpt>
      <trkpt lat="35.706396030" lon="-106.727568080">
        <ele>1739.900</ele>
        <time>2019-07-14T20:38:05Z</time>
      </trkpt>
      <trkpt lat="35.706587180" lon="-106.727462330">
        <ele>1739.100</ele>
        <time>2019-07-14T20:38:06Z</time>
      </trkpt>
      <trkpt lat="35.706769160" lon="-106.727363620">
        <ele>1739.200</ele>
        <time>2019-07-14T20:38:07Z</time>
      </trkpt>
      <trkpt lat="35.706957500" lon="-106.727261120">
        <ele>1739.100</ele>
        <time>2019-07-14T20:38:08Z</time>
      </trkpt>
      <trkpt lat="35.707146570" lon="-106.727164760">
        <ele>1739.700</ele>
        <time>2019-07-14T20:38:09Z</time>
      </trkpt>
      <trkpt lat="35.707322130" lon="-106.727073920">
        <ele>1740.600</ele>
        <time>2019-07-14T20:38:10Z</time>
      </trkpt>
      <trkpt lat="35.707497670" lon="-106.726975990">
        <ele>1741.700</ele>
        <time>2019-07-14T20:38:11Z</time>
      </trkpt>
      <trkpt lat="35.707663190" lon="-106.726883840">
        <ele>1740.100</ele>
        <time>2019-07-14T20:38:12Z</time>
      </trkpt>
      <trkpt lat="35.707834660" lon="-106.726806490">
        <ele>1741.300</ele>
        <time>2019-07-14T20:38:13Z</time>
      </trkpt>
      <trkpt lat="35.707994980" lon="-106.726713160">
        <ele>1739.800</ele>
        <time>2019-07-14T20:38:14Z</time>
      </trkpt>
      <trkpt lat="35.708160340" lon="-106.726626330">
        <ele>1739.700</ele>
        <time>2019-07-14T20:38:15Z</time>
      </trkpt>
      <trkpt lat="35.708327490" lon="-106.726535710">
        <ele>1741.000</ele>
        <time>2019-07-14T20:38:16Z</time>
      </trkpt>
      <trkpt lat="35.708489560" lon="-106.726454030">
        <ele>1743.200</ele>
        <time>2019-07-14T20:38:17Z</time>
      </trkpt>
      <trkpt lat="35.708657670" lon="-106.726369760">
        <ele>1744.800</ele>
        <time>2019-07-14T20:38:18Z</time>
      </trkpt>
      <trkpt lat="35.708827710" lon="-106.726264070">
        <ele>1744.900</ele>
        <time>2019-07-14T20:38:19Z</time>
      </trkpt>
      <trkpt lat="35.708986110" lon="-106.726173790">
        <ele>1745.000</ele>
        <time>2019-07-14T20:38:20Z</time>
      </trkpt>
      <trkpt lat="35.709143290" lon="-106.726062290">
        <ele>1744.400</ele>
        <time>2019-07-14T20:38:21Z</time>
      </trkpt>
      <trkpt lat="35.709279570" lon="-106.725903150">
        <ele>1743.500</ele>
        <time>2019-07-14T20:38:22Z</time>
      </trkpt>
      <trkpt lat="35.709414210" lon="-106.725751940">
        <ele>1744.800</ele>
        <time>2019-07-14T20:38:23Z</time>
      </trkpt>
      <trkpt lat="35.709532040" lon="-106.725568110">
        <ele>1744.500</ele>
        <time>2019-07-14T20:38:24Z</time>
      </trkpt>
      <trkpt lat="35.709639600" lon="-106.725387090">
        <ele>1745.100</ele>
        <time>2019-07-14T20:38:25Z</time>
      </trkpt>
      <trkpt lat="35.709730970" lon="-106.725187300">
        <ele>1745.000</ele>
        <time>2019-07-14T20:38:26Z</time>
      </trkpt>
      <trkpt lat="35.709817610" lon="-106.724982130">
        <ele>1744.700</ele>
        <time>2019-07-14T20:38:27Z</time>
      </trkpt>
      <trkpt lat="35.709901730" lon="-106.724785640">
        <ele>1745.100</ele>
        <time>2019-07-14T20:38:28Z</time>
      </trkpt>
      <trkpt lat="35.709996680" lon="-106.724589440">
        <ele>1745.100</ele>
        <time>2019-07-14T20:38:29Z</time>
      </trkpt>
      <trkpt lat="35.710084340" lon="-106.724398190">
        <ele>1746.000</ele>
        <time>2019-07-14T20:38:30Z</time>
      </trkpt>
      <trkpt lat="35.710169580" lon="-106.724210770">
        <ele>1745.800</ele>
        <time>2019-07-14T20:38:31Z</time>
      </trkpt>
      <trkpt lat="35.710260920" lon="-106.724014050">
        <ele>1746.900</ele>
        <time>2019-07-14T20:38:32Z</time>
      </trkpt>
      <trkpt lat="35.710345290" lon="-106.723824270">
        <ele>1747.400</ele>
        <time>2019-07-14T20:38:33Z</time>
      </trkpt>
      <trkpt lat="35.710446150" lon="-106.723657400">
        <ele>1748.800</ele>
        <time>2019-07-14T20:38:34Z</time>
      </trkpt>
      <trkpt lat="35.710571500" lon="-106.723505280">
        <ele>1750.100</ele>
        <time>2019-07-14T20:38:35Z</time>
      </trkpt>
      <trkpt lat="35.710699480" lon="-106.723365680">
        <ele>1750.800</ele>
        <time>2019-07-14T20:38:36Z</time>
      </trkpt>
      <trkpt lat="35.710827220" lon="-106.723274590">
        <ele>1751.500</ele>
        <time>2019-07-14T20:38:37Z</time>
      </trkpt>
      <trkpt lat="35.710964460" lon="-106.723177670">
        <ele>1750.900</ele>
        <time>2019-07-14T20:38:38Z</time>
      </trkpt>
      <trkpt lat="35.711126670" lon="-106.723136860">
        <ele>1750.700</ele>
        <time>2019-07-14T20:38:39Z</time>
      </trkpt>
      <trkpt lat="35.711285700" lon="-106.723095960">
        <ele>1749.600</ele>
        <time>2019-07-14T20:38:40Z</time>
      </trkpt>
      <trkpt lat="35.711442780" lon="-106.723053070">
        <ele>1748.200</ele>
        <time>2019-07-14T20:38:41Z</time>
      </trkpt>
      <trkpt lat="35.711618730" lon="-106.723012790">
        <ele>1749.000</ele>
        <time>2019-07-14T20:38:42Z</time>
      </trkpt>
      <trkpt lat="35.711793630" lon="-106.722981700">
        <ele>1749.900</ele>
        <time>2019-07-14T20:38:43Z</time>
      </trkpt>
      <trkpt lat="35.711970850" lon="-106.722944150">
        <ele>1749.000</ele>
        <time>2019-07-14T20:38:44Z</time>
      </trkpt>
      <trkpt lat="35.712156590" lon="-106.722904910">
        <ele>1749.900</ele>
        <time>2019-07-14T20:38:45Z</time>
      </trkpt>
      <trkpt lat="35.712341650" lon="-106.722877870">
        <ele>1750.600</ele>
        <time>2019-07-14T20:38:46Z</time>
      </trkpt>
      <trkpt lat="35.712526600" lon="-106.722851490">
        <ele>1750.900</ele>
        <time>2019-07-14T20:38:47Z</time>
      </trkpt>
      <trkpt lat="35.712708930" lon="-106.722823630">
        <ele>1750.100</ele>
        <time>2019-07-14T20:38:48Z</time>
      </trkpt>
      <trkpt lat="35.712895880" lon="-106.722787740">
        <ele>1750.200</ele>
        <time>2019-07-14T20:38:49Z</time>
      </trkpt>
      <trkpt lat="35.713073620" lon="-106.722734930">
        <ele>1750.600</ele>
        <time>2019-07-14T20:38:50Z</time>
      </trkpt>
      <trkpt lat="35.713255800" lon="-106.722671120">
        <ele>1752.200</ele>
        <time>2019-07-14T20:38:51Z</time>
      </trkpt>
      <trkpt lat="35.713422870" lon="-106.722601690">
        <ele>1752.700</ele>
        <time>2019-07-14T20:38:52Z</time>
      </trkpt>
      <trkpt lat="35.713588660" lon="-106.722522280">
        <ele>1754.600</ele>
        <time>2019-07-14T20:38:53Z</time>
      </trkpt>
      <trkpt lat="35.713753270" lon="-106.722441310">
        <ele>1754.000</ele>
        <time>2019-07-14T20:38:54Z</time>
      </trkpt>
      <trkpt lat="35.713912480" lon="-106.722346570">
        <ele>1754.200</ele>
        <time>2019-07-14T20:38:55Z</time>
      </trkpt>
      <trkpt lat="35.714068510" lon="-106.722248610">
        <ele>1754.900</ele>
        <time>2019-07-14T20:38:56Z</time>
      </trkpt>
      <trkpt lat="35.714228560" lon="-106.722150020">
        <ele>1755.300</ele>
        <time>2019-07-14T20:38:57Z</time>
      </trkpt>
      <trkpt lat="35.714391060" lon="-106.722055170">
        <ele>1755.900</ele>
        <time>2019-07-14T20:38:58Z</time>
      </trkpt>
      <trkpt lat="35.714558650" lon="-106.721946440">
        <ele>1756.200</ele>
        <time>2019-07-14T20:38:59Z</time>
      </trkpt>
      <trkpt lat="35.714723810" lon="-106.721840310">
        <ele>1757.200</ele>
        <time>2019-07-14T20:39:00Z</time>
      </trkpt>
      <trkpt lat="35.714891150" lon="-106.721738910">
        <ele>1757.600</ele>
        <time>2019-07-14T20:39:01Z</time>
      </trkpt>
      <trkpt lat="35.715061690" lon="-106.721631640">
        <ele>1757.100</ele>
        <time>2019-07-14T20:39:02Z</time>
      </trkpt>
      <trkpt lat="35.715235950" lon="-106.721527410">
        <ele>1756.500</ele>
        <time>2019-07-14T20:39:03Z</time>
      </trkpt>
      <trkpt lat="35.715406910" lon="-106.721425150">
        <ele>1756.100</ele>
        <time>2019-07-14T20:39:04Z</time>
      </trkpt>
      <trkpt lat="35.715579750" lon="-106.721321480">
        <ele>1757.200</ele>
        <time>2019-07-14T20:39:05Z</time>
      </trkpt>
      <trkpt lat="35.715743760" lon="-106.721216100">
        <ele>1757.100</ele>
        <time>2019-07-14T20:39:06Z</time>
      </trkpt>
      <trkpt lat="35.715915310" lon="-106.721117880">
        <ele>1757.900</ele>
        <time>2019-07-14T20:39:07Z</time>
      </trkpt>
      <trkpt lat="35.716073960" lon="-106.721002540">
        <ele>1757.200</ele>
        <time>2019-07-14T20:39:08Z</time>
      </trkpt>
      <trkpt lat="35.716243500" lon="-106.720930860">
        <ele>1759.200</ele>
        <time>2019-07-14T20:39:09Z</time>
      </trkpt>
      <trkpt lat="35.716402400" lon="-106.720844910">
        <ele>1761.300</ele>
        <time>2019-07-14T20:39:10Z</time>
      </trkpt>
      <trkpt lat="35.716558520" lon="-106.720751880">
        <ele>1763.900</ele>
        <time>2019-07-14T20:39:11Z</time>
      </trkpt>
      <trkpt lat="35.716702580" lon="-106.720658570">
        <ele>1766.500</ele>
        <time>2019-07-14T20:39:12Z</time>
      </trkpt>
      <trkpt lat="35.716851030" lon="-106.720557110">
        <ele>1766.400</ele>
        <time>2019-07-14T20:39:13Z</time>
      </trkpt>
      <trkpt lat="35.717001600" lon="-106.720455580">
        <ele>1768.000</ele>
        <time>2019-07-14T20:39:14Z</time>
      </trkpt>
      <trkpt lat="35.717152890" lon="-106.720355530">
        <ele>1768.600</ele>
        <time>2019-07-14T20:39:15Z</time>
      </trkpt>
      <trkpt lat="35.717300400" lon="-106.720226640">
        <ele>1767.600</ele>
        <time>2019-07-14T20:39:16Z</time>
      </trkpt>
      <trkpt lat="35.717441560" lon="-106.720094830">
        <ele>1768.300</ele>
        <time>2019-07-14T20:39:17Z</time>
      </trkpt>
      <trkpt lat="35.717570250" lon="-106.719934020">
        <ele>1766.800</ele>
        <time>2019-07-14T20:39:18Z</time>
      </trkpt>
      <trkpt lat="35.717694980" lon="-106.719765060">
        <ele>1766.000</ele>
        <time>2019-07-14T20:39:19Z</time>
      </trkpt>
      <trkpt lat="35.717814330" lon="-106.719597130">
        <ele>1766.700</ele>
        <time>2019-07-14T20:39:20Z</time>
      </trkpt>
      <trkpt lat="35.717924990" lon="-106.719428590">
        <ele>1767.400</ele>
        <time>2019-07-14T20:39:21Z</time>
      </trkpt>
      <trkpt lat="35.718060270" lon="-106.719270740">
        <ele>1766.500</ele>
        <time>2019-07-14T20:39:22Z</time>
      </trkpt>
      <trkpt lat="35.718201140" lon="-106.719140820">
        <ele>1764.600</ele>
        <time>2019-07-14T20:39:23Z</time>
      </trkpt>
      <trkpt lat="35.718350600" lon="-106.719033820">
        <ele>1764.300</ele>
        <time>2019-07-14T20:39:24Z</time>
      </trkpt>
      <trkpt lat="35.718504360" lon="-106.718946930">
        <ele>1763.600</ele>
        <time>2019-07-14T20:39:25Z</time>
      </trkpt>
      <trkpt lat="35.718656840" lon="-106.718854860">
        <ele>1763.700</ele>
        <time>2019-07-14T20:39:26Z</time>
      </trkpt>
      <trkpt lat="35.718808310" lon="-106.718762390">
        <ele>1762.500</ele>
        <time>2019-07-14T20:39:27Z</time>
      </trkpt>
      <trkpt lat="35.718946440" lon="-106.718638780">
        <ele>1762.100</ele>
        <time>2019-07-14T20:39:28Z</time>
      </trkpt>
      <trkpt lat="35.719070860" lon="-106.718504220">
        <ele>1761.100</ele>
        <time>2019-07-14T20:39:29Z</time>
      </trkpt>
      <trkpt lat="35.719205670" lon="-106.718381470">
        <ele>1760.200</ele>
        <time>2019-07-14T20:39:30Z</time>
      </trkpt>
      <trkpt lat="35.719319290" lon="-106.718214620">
        <ele>1761.000</ele>
        <time>2019-07-14T20:39:31Z</time>
      </trkpt>
      <trkpt lat="35.719428740" lon="-106.718043880">
        <ele>1761.700</ele>
        <time>2019-07-14T20:39:32Z</time>
      </trkpt>
      <trkpt lat="35.719552010" lon="-106.717895100">
        <ele>1763.100</ele>
        <time>2019-07-14T20:39:33Z</time>
      </trkpt>
      <trkpt lat="35.719676780" lon="-106.717750790">
        <ele>1762.300</ele>
        <time>2019-07-14T20:39:34Z</time>
      </trkpt>
      <trkpt lat="35.719816170" lon="-106.717610570">
        <ele>1763.300</ele>
        <time>2019-07-14T20:39:35Z</time>
      </trkpt>
      <trkpt lat="35.719961410" lon="-106.717479750">
        <ele>1763.600</ele>
        <time>2019-07-14T20:39:36Z</time>
      </trkpt>
      <trkpt lat="35.720105560" lon="-106.717358240">
        <ele>1764.600</ele>
        <time>2019-07-14T20:39:37Z</time>
      </trkpt>
      <trkpt lat="35.720259020" lon="-106.717243150">
        <ele>1765.000</ele>
        <time>2019-07-14T20:39:38Z</time>
      </trkpt>
      <trkpt lat="35.720430740" lon="-106.717159360">
        <ele>1765.700</ele>
        <time>2019-07-14T20:39:39Z</time>
      </trkpt>
      <trkpt lat="35.720601270" lon="-106.717064350">
        <ele>1766.000</ele>
        <time>2019-07-14T20:39:40Z</time>
      </trkpt>
      <trkpt lat="35.720776960" lon="-106.716975780">
        <ele>1766.200</ele>
        <time>2019-07-14T20:39:41Z</time>
      </trkpt>
      <trkpt lat="35.720952420" lon="-106.716888790">
        <ele>1765.900</ele>
        <time>2019-07-14T20:39:42Z</time>
      </trkpt>
      <trkpt lat="35.721126580" lon="-106.716798640">
        <ele>1766.200</ele>
        <time>2019-07-14T20:39:43Z</time>
      </trkpt>
      <trkpt lat="35.721302900" lon="-106.716712280">
        <ele>1766.500</ele>
        <time>2019-07-14T20:39:44Z</time>
      </trkpt>
      <trkpt lat="35.721474450" lon="-106.716620160">
        <ele>1766.500</ele>
        <time>2019-07-14T20:39:45Z</time>
      </trkpt>
      <trkpt lat="35.721644270" lon="-106.716527620">
        <ele>1766.900</ele>
        <time>2019-07-14T20:39:46Z</time>
      </trkpt>
      <trkpt lat="35.721807520" lon="-106.716432390">
        <ele>1767.400</ele>
        <time>2019-07-14T20:39:47Z</time>
      </trkpt>
      <trkpt lat="35.721969850" lon="-106.716338910">
        <ele>1767.300</ele>
        <time>2019-07-14T20:39:48Z</time>
      </trkpt>
      <trkpt lat="35.722133150" lon="-106.716247290">
        <ele>1767.700</ele>
        <time>2019-07-14T20:39:49Z</time>
      </trkpt>
      <trkpt lat="35.722296420" lon="-106.716150950">
        <ele>1768.000</ele>
        <time>2019-07-14T20:39:50Z</time>
      </trkpt>
      <trkpt lat="35.722462620" lon="-106.716059140">
        <ele>1768.300</ele>
        <time>2019-07-14T20:39:51Z</time>
      </trkpt>
      <trkpt lat="35.722629640" lon="-106.715964620">
        <ele>1768.200</ele>
        <time>2019-07-14T20:39:52Z</time>
      </trkpt>
      <trkpt lat="35.722798030" lon="-106.715865180">
        <ele>1768.900</ele>
        <time>2019-07-14T20:39:53Z</time>
      </trkpt>
      <trkpt lat="35.722974480" lon="-106.715772610">
        <ele>1770.000</ele>
        <time>2019-07-14T20:39:54Z</time>
      </trkpt>
      <trkpt lat="35.723151540" lon="-106.715685110">
        <ele>1770.200</ele>
        <time>2019-07-14T20:39:55Z</time>
      </trkpt>
      <trkpt lat="35.723336360" lon="-106.715606990">
        <ele>1770.500</ele>
        <time>2019-07-14T20:39:56Z</time>
      </trkpt>
      <trkpt lat="35.723524750" lon="-106.715537770">
        <ele>1771.800</ele>
        <time>2019-07-14T20:39:57Z</time>
      </trkpt>
      <trkpt lat="35.723716790" lon="-106.715475620">
        <ele>1772.800</ele>
        <time>2019-07-14T20:39:58Z</time>
      </trkpt>
      <trkpt lat="35.723909750" lon="-106.715411670">
        <ele>1773.000</ele>
        <time>2019-07-14T20:39:59Z</time>
      </trkpt>
      <trkpt lat="35.724106700" lon="-106.715358010">
        <ele>1774.200</ele>
        <time>2019-07-14T20:40:00Z</time>
      </trkpt>
      <trkpt lat="35.724291320" lon="-106.715300510">
        <ele>1773.900</ele>
        <time>2019-07-14T20:40:01Z</time>
      </trkpt>
      <trkpt lat="35.724469890" lon="-106.715227670">
        <ele>1774.300</ele>
        <time>2019-07-14T20:40:02Z</time>
      </trkpt>
      <trkpt lat="35.724656400" lon="-106.715185510">
        <ele>1776.100</ele>
        <time>2019-07-14T20:40:03Z</time>
      </trkpt>
      <trkpt lat="35.724839530" lon="-106.715131200">
        <ele>1776.500</ele>
        <time>2019-07-14T20:40:04Z</time>
      </trkpt>
      <trkpt lat="35.725018190" lon="-106.715080830">
        <ele>1776.400</ele>
        <time>2019-07-14T20:40:05Z</time>
      </trkpt>
      <trkpt lat="35.725191760" lon="-106.715019370">
        <ele>1776.600</ele>
        <time>2019-07-14T20:40:06Z</time>
      </trkpt>
      <trkpt lat="35.725363640" lon="-106.714954290">
        <ele>1776.000</ele>
        <time>2019-07-14T20:40:07Z</time>
      </trkpt>
      <trkpt lat="35.725536300" lon="-106.714897970">
        <ele>1775.100</ele>
        <time>2019-07-14T20:40:08Z</time>
      </trkpt>
      <trkpt lat="35.725716360" lon="-106.714844610">
        <ele>1775.900</ele>
        <time>2019-07-14T20:40:09Z</time>
      </trkpt>
      <trkpt lat="35.725887200" lon="-106.714783830">
        <ele>1776.500</ele>
        <time>2019-07-14T20:40:10Z</time>
      </trkpt>
      <trkpt lat="35.726069170" lon="-106.714721230">
        <ele>1777.700</ele>
        <time>2019-07-14T20:40:11Z</time>
      </trkpt>
      <trkpt lat="35.726244790" lon="-106.714636310">
        <ele>1779.100</ele>
        <time>2019-07-14T20:40:12Z</time>
      </trkpt>
      <trkpt lat="35.726424620" lon="-106.714561550">
        <ele>1778.600</ele>
        <time>2019-07-14T20:40:13Z</time>
      </trkpt>
      <trkpt lat="35.726606370" lon="-106.714471140">
        <ele>1778.900</ele>
        <time>2019-07-14T20:40:14Z</time>
      </trkpt>
      <trkpt lat="35.726790860" lon="-106.714378810">
        <ele>1779.900</ele>
        <time>2019-07-14T20:40:15Z</time>
      </trkpt>
      <trkpt lat="35.726976840" lon="-106.714290990">
        <ele>1780.900</ele>
        <time>2019-07-14T20:40:16Z</time>
      </trkpt>
      <trkpt lat="35.727149720" lon="-106.714199150">
        <ele>1780.600</ele>
        <time>2019-07-14T20:40:17Z</time>
      </trkpt>
      <trkpt lat="35.727328740" lon="-106.714110240">
        <ele>1781.000</ele>
        <time>2019-07-14T20:40:18Z</time>
      </trkpt>
      <trkpt lat="35.727501310" lon="-106.714023680">
        <ele>1781.100</ele>
        <time>2019-07-14T20:40:19Z</time>
      </trkpt>
      <trkpt lat="35.727675700" lon="-106.713953640">
        <ele>1781.300</ele>
        <time>2019-07-14T20:40:20Z</time>
      </trkpt>
      <trkpt lat="35.727859170" lon="-106.713903900">
        <ele>1782.300</ele>
        <time>2019-07-14T20:40:21Z</time>
      </trkpt>
      <trkpt lat="35.728040880" lon="-106.713844350">
        <ele>1782.300</ele>
        <time>2019-07-14T20:40:22Z</time>
      </trkpt>
      <trkpt lat="35.728234800" lon="-106.713819140">
        <ele>1782.200</ele>
        <time>2019-07-14T20:40:23Z</time>
      </trkpt>
      <trkpt lat="35.728429370" lon="-106.713831740">
        <ele>1783.100</ele>
        <time>2019-07-14T20:40:24Z</time>
      </trkpt>
      <trkpt lat="35.728614770" lon="-106.713837120">
        <ele>1783.900</ele>
        <time>2019-07-14T20:40:25Z</time>
      </trkpt>
      <trkpt lat="35.728796870" lon="-106.713846980">
        <ele>1782.700</ele>
        <time>2019-07-14T20:40:26Z</time>
      </trkpt>
      <trkpt lat="35.728981550" lon="-106.713849840">
        <ele>1782.900</ele>
        <time>2019-07-14T20:40:27Z</time>
      </trkpt>
      <trkpt lat="35.729167190" lon="-106.713840830">
        <ele>1782.500</ele>
        <time>2019-07-14T20:40:28Z</time>
      </trkpt>
      <trkpt lat="35.729351210" lon="-106.713819960">
        <ele>1782.800</ele>
        <time>2019-07-14T20:40:29Z</time>
      </trkpt>
      <trkpt lat="35.729534100" lon="-106.713785840">
        <ele>1783.200</ele>
        <time>2019-07-14T20:40:30Z</time>
      </trkpt>
      <trkpt lat="35.729716320" lon="-106.713751550">
        <ele>1783.400</ele>
        <time>2019-07-14T20:40:31Z</time>
      </trkpt>
      <trkpt lat="35.729893130" lon="-106.713694530">
        <ele>1784.400</ele>
        <time>2019-07-14T20:40:32Z</time>
      </trkpt>
      <trkpt lat="35.730074960" lon="-106.713640110">
        <ele>1783.900</ele>
        <time>2019-07-14T20:40:33Z</time>
      </trkpt>
      <trkpt lat="35.730258790" lon="-106.713606150">
        <ele>1784.600</ele>
        <time>2019-07-14T20:40:34Z</time>
      </trkpt>
      <trkpt lat="35.730443620" lon="-106.713579530">
        <ele>1784.900</ele>
        <time>2019-07-14T20:40:35Z</time>
      </trkpt>
      <trkpt lat="35.730636830" lon="-106.713581740">
        <ele>1785.400</ele>
        <time>2019-07-14T20:40:36Z</time>
      </trkpt>
      <trkpt lat="35.730827570" lon="-106.713574270">
        <ele>1784.900</ele>
        <time>2019-07-14T20:40:37Z</time>
      </trkpt>
      <trkpt lat="35.731018060" lon="-106.713562430">
        <ele>1784.700</ele>
        <time>2019-07-14T20:40:38Z</time>
      </trkpt>
      <trkpt lat="35.731211890" lon="-106.713529510">
        <ele>1782.900</ele>
        <time>2019-07-14T20:40:39Z</time>
      </trkpt>
      <trkpt lat="35.731391710" lon="-106.713489900">
        <ele>1781.600</ele>
        <time>2019-07-14T20:40:40Z</time>
      </trkpt>
      <trkpt lat="35.731573710" lon="-106.713443480">
        <ele>1781.500</ele>
        <time>2019-07-14T20:40:41Z</time>
      </trkpt>
      <trkpt lat="35.731754540" lon="-106.713397060">
        <ele>1781.800</ele>
        <time>2019-07-14T20:40:42Z</time>
      </trkpt>
      <trkpt lat="35.731932590" lon="-106.713343220">
        <ele>1782.500</ele>
        <time>2019-07-14T20:40:43Z</time>
      </trkpt>
      <trkpt lat="35.732104110" lon="-106.713266990">
        <ele>1782.300</ele>
        <time>2019-07-14T20:40:44Z</time>
      </trkpt>
      <trkpt lat="35.732273650" lon="-106.713197450">
        <ele>1783.300</ele>
        <time>2019-07-14T20:40:45Z</time>
      </trkpt>
      <trkpt lat="35.732454210" lon="-106.713102060">
        <ele>1782.200</ele>
        <time>2019-07-14T20:40:46Z</time>
      </trkpt>
      <trkpt lat="35.732642990" lon="-106.713033220">
        <ele>1782.400</ele>
        <time>2019-07-14T20:40:47Z</time>
      </trkpt>
      <trkpt lat="35.732824240" lon="-106.712962560">
        <ele>1783.400</ele>
        <time>2019-07-14T20:40:48Z</time>
      </trkpt>
      <trkpt lat="35.733014360" lon="-106.712890270">
        <ele>1783.900</ele>
        <time>2019-07-14T20:40:49Z</time>
      </trkpt>
      <trkpt lat="35.733195310" lon="-106.712829230">
        <ele>1783.200</ele>
        <time>2019-07-14T20:40:50Z</time>
      </trkpt>
      <trkpt lat="35.733366830" lon="-106.712765130">
        <ele>1783.200</ele>
        <time>2019-07-14T20:40:51Z</time>
      </trkpt>
      <trkpt lat="35.733525290" lon="-106.712701690">
        <ele>1782.200</ele>
        <time>2019-07-14T20:40:52Z</time>
      </trkpt>
      <trkpt lat="35.733705970" lon="-106.712636870">
        <ele>1783.100</ele>
        <time>2019-07-14T20:40:53Z</time>
      </trkpt>
      <trkpt lat="35.733874590" lon="-106.712574490">
        <ele>1783.800</ele>
        <time>2019-07-14T20:40:54Z</time>
      </trkpt>
      <trkpt lat="35.734055550" lon="-106.712517890">
        <ele>1784.700</ele>
        <time>2019-07-14T20:40:55Z</time>
      </trkpt>
      <trkpt lat="35.734225260" lon="-106.712457630">
        <ele>1783.300</ele>
        <time>2019-07-14T20:40:56Z</time>
      </trkpt>
      <trkpt lat="35.734428160" lon="-106.712425990">
        <ele>1783.400</ele>
        <time>2019-07-14T20:40:57Z</time>
      </trkpt>
      <trkpt lat="35.734613590" lon="-106.712422550">
        <ele>1783.800</ele>
        <time>2019-07-14T20:40:58Z</time>
      </trkpt>
      <trkpt lat="35.734798080" lon="-106.712422500">
        <ele>1784.500</ele>
        <time>2019-07-14T20:40:59Z</time>
      </trkpt>
      <trkpt lat="35.734977910" lon="-106.712447290">
        <ele>1784.200</ele>
        <time>2019-07-14T20:41:00Z</time>
      </trkpt>
      <trkpt lat="35.735164040" lon="-106.712471330">
        <ele>1786.400</ele>
        <time>2019-07-14T20:41:01Z</time>
      </trkpt>
      <trkpt lat="35.735351850" lon="-106.712501350">
        <ele>1786.800</ele>
        <time>2019-07-14T20:41:02Z</time>
      </trkpt>
      <trkpt lat="35.735534890" lon="-106.712533020">
        <ele>1787.000</ele>
        <time>2019-07-14T20:41:03Z</time>
      </trkpt>
      <trkpt lat="35.735722220" lon="-106.712539530">
        <ele>1787.600</ele>
        <time>2019-07-14T20:41:04Z</time>
      </trkpt>
      <trkpt lat="35.735908860" lon="-106.712546280">
        <ele>1787.100</ele>
        <time>2019-07-14T20:41:05Z</time>
      </trkpt>
      <trkpt lat="35.736083230" lon="-106.712524150">
        <ele>1788.500</ele>
        <time>2019-07-14T20:41:06Z</time>
      </trkpt>
      <trkpt lat="35.736269170" lon="-106.712503820">
        <ele>1789.300</ele>
        <time>2019-07-14T20:41:07Z</time>
      </trkpt>
      <trkpt lat="35.736452930" lon="-106.712482910">
        <ele>1790.500</ele>
        <time>2019-07-14T20:41:08Z</time>
      </trkpt>
      <trkpt lat="35.736640910" lon="-106.712449730">
        <ele>1791.100</ele>
        <time>2019-07-14T20:41:09Z</time>
      </trkpt>
      <trkpt lat="35.736825970" lon="-106.712409950">
        <ele>1791.800</ele>
        <time>2019-07-14T20:41:10Z</time>
      </trkpt>
      <trkpt lat="35.737008860" lon="-106.712369530">
        <ele>1792.500</ele>
        <time>2019-07-14T20:41:11Z</time>
      </trkpt>
      <trkpt lat="35.737190200" lon="-106.712330710">
        <ele>1793.700</ele>
        <time>2019-07-14T20:41:12Z</time>
      </trkpt>
      <trkpt lat="35.737384770" lon="-106.712302150">
        <ele>1793.800</ele>
        <time>2019-07-14T20:41:13Z</time>
      </trkpt>
      <trkpt lat="35.737579050" lon="-106.712246610">
        <ele>1793.900</ele>
        <time>2019-07-14T20:41:14Z</time>
      </trkpt>
      <trkpt lat="35.737776590" lon="-106.712202530">
        <ele>1794.600</ele>
        <time>2019-07-14T20:41:15Z</time>
      </trkpt>
      <trkpt lat="35.737967140" lon="-106.712147750">
        <ele>1794.700</ele>
        <time>2019-07-14T20:41:16Z</time>
      </trkpt>
      <trkpt lat="35.738159210" lon="-106.712102090">
        <ele>1794.800</ele>
        <time>2019-07-14T20:41:17Z</time>
      </trkpt>
      <trkpt lat="35.738347820" lon="-106.712040880">
        <ele>1794.300</ele>
        <time>2019-07-14T20:41:18Z</time>
      </trkpt>
      <trkpt lat="35.738539880" lon="-106.711986340">
        <ele>1794.400</ele>
        <time>2019-07-14T20:41:19Z</time>
      </trkpt>
      <trkpt lat="35.738725580" lon="-106.711930960">
        <ele>1794.600</ele>
        <time>2019-07-14T20:41:20Z</time>
      </trkpt>
      <trkpt lat="35.738915360" lon="-106.711881890">
        <ele>1794.300</ele>
        <time>2019-07-14T20:41:21Z</time>
      </trkpt>
      <trkpt lat="35.739103020" lon="-106.711832590">
        <ele>1794.500</ele>
        <time>2019-07-14T20:41:22Z</time>
      </trkpt>
      <trkpt lat="35.739288210" lon="-106.711787000">
        <ele>1794.300</ele>
        <time>2019-07-14T20:41:23Z</time>
      </trkpt>
      <trkpt lat="35.739472840" lon="-106.711742520">
        <ele>1793.300</ele>
        <time>2019-07-14T20:41:24Z</time>
      </trkpt>
      <trkpt lat="35.739656370" lon="-106.711717720">
        <ele>1793.300</ele>
        <time>2019-07-14T20:41:25Z</time>
      </trkpt>
      <trkpt lat="35.739840450" lon="-106.711703150">
        <ele>1794.300</ele>
        <time>2019-07-14T20:41:26Z</time>
      </trkpt>
      <trkpt lat="35.740020700" lon="-106.711692760">
        <ele>1794.400</ele>
        <time>2019-07-14T20:41:27Z</time>
      </trkpt>
      <trkpt lat="35.740204100" lon="-106.711687930">
        <ele>1794.700</ele>
        <time>2019-07-14T20:41:28Z</time>
      </trkpt>
      <trkpt lat="35.740385000" lon="-106.711693700">
        <ele>1795.200</ele>
        <time>2019-07-14T20:41:29Z</time>
      </trkpt>
      <trkpt lat="35.740571200" lon="-106.711695710">
        <ele>1795.600</ele>
        <time>2019-07-14T20:41:30Z</time>
      </trkpt>
      <trkpt lat="35.740748830" lon="-106.711698290">
        <ele>1796.300</ele>
        <time>2019-07-14T20:41:31Z</time>
      </trkpt>
      <trkpt lat="35.740928380" lon="-106.711705030">
        <ele>1797.000</ele>
        <time>2019-07-14T20:41:32Z</time>
      </trkpt>
      <trkpt lat="35.741103730" lon="-106.711709840">
        <ele>1797.800</ele>
        <time>2019-07-14T20:41:33Z</time>
      </trkpt>
      <trkpt lat="35.741269640" lon="-106.711720810">
        <ele>1798.600</ele>
        <time>2019-07-14T20:41:34Z</time>
      </trkpt>
      <trkpt lat="35.741434220" lon="-106.711737900">
        <ele>1799.100</ele>
        <time>2019-07-14T20:41:35Z</time>
      </trkpt>
      <trkpt lat="35.741587300" lon="-106.711751710">
        <ele>1798.500</ele>
        <time>2019-07-14T20:41:36Z</time>
      </trkpt>
      <trkpt lat="35.741742440" lon="-106.711778810">
        <ele>1798.800</ele>
        <time>2019-07-14T20:41:37Z</time>
      </trkpt>
      <trkpt lat="35.741886460" lon="-106.711798380">
        <ele>1796.000</ele>
        <time>2019-07-14T20:41:38Z</time>
      </trkpt>
      <trkpt lat="35.742029370" lon="-106.711831580">
        <ele>1795.700</ele>
        <time>2019-07-14T20:41:39Z</time>
      </trkpt>
      <trkpt lat="35.742170160" lon="-106.711864810">
        <ele>1794.700</ele>
        <time>2019-07-14T20:41:40Z</time>
      </trkpt>
      <trkpt lat="35.742320390" lon="-106.711915540">
        <ele>1794.500</ele>
        <time>2019-07-14T20:41:41Z</time>
      </trkpt>
      <trkpt lat="35.742467780" lon="-106.711966730">
        <ele>1797.000</ele>
        <time>2019-07-14T20:41:42Z</time>
      </trkpt>
      <trkpt lat="35.742610770" lon="-106.712014700">
        <ele>1798.000</ele>
        <time>2019-07-14T20:41:43Z</time>
      </trkpt>
      <trkpt lat="35.742750800" lon="-106.712065400">
        <ele>1798.900</ele>
        <time>2019-07-14T20:41:44Z</time>
      </trkpt>
      <trkpt lat="35.742890730" lon="-106.712117730">
        <ele>1799.100</ele>
        <time>2019-07-14T20:41:45Z</time>
      </trkpt>
      <trkpt lat="35.743031690" lon="-106.712156860">
        <ele>1799.900</ele>
        <time>2019-07-14T20:41:46Z</time>
      </trkpt>
      <trkpt lat="35.743191860" lon="-106.712181150">
        <ele>1798.200</ele>
        <time>2019-07-14T20:41:47Z</time>
      </trkpt>
      <trkpt lat="35.743342940" lon="-106.712194750">
        <ele>1798.800</ele>
        <time>2019-07-14T20:41:48Z</time>
      </trkpt>
      <trkpt lat="35.743490930" lon="-106.712186030">
        <ele>1799.400</ele>
        <time>2019-07-14T20:41:49Z</time>
      </trkpt>
      <trkpt lat="35.743638270" lon="-106.712166160">
        <ele>1800.300</ele>
        <time>2019-07-14T20:41:50Z</time>
      </trkpt>
      <trkpt lat="35.743790820" lon="-106.712143420">
        <ele>1801.600</ele>
        <time>2019-07-14T20:41:51Z</time>
      </trkpt>
      <trkpt lat="35.743937290" lon="-106.712105210">
        <ele>1802.400</ele>
        <time>2019-07-14T20:41:52Z</time>
      </trkpt>
      <trkpt lat="35.744065590" lon="-106.712037760">
        <ele>1802.600</ele>
        <time>2019-07-14T20:41:53Z</time>
      </trkpt>
      <trkpt lat="35.744201170" lon="-106.711947960">
        <ele>1802.600</ele>
        <time>2019-07-14T20:41:54Z</time>
      </trkpt>
      <trkpt lat="35.744338320" lon="-106.711859520">
        <ele>1803.500</ele>
        <time>2019-07-14T20:41:55Z</time>
      </trkpt>
      <trkpt lat="35.744461100" lon="-106.711768760">
        <ele>1804.400</ele>
        <time>2019-07-14T20:41:56Z</time>
      </trkpt>
      <trkpt lat="35.744589450" lon="-106.711675660">
        <ele>1804.100</ele>
        <time>2019-07-14T20:41:57Z</time>
      </trkpt>
      <trkpt lat="35.744712930" lon="-106.711592180">
        <ele>1805.300</ele>
        <time>2019-07-14T20:41:58Z</time>
      </trkpt>
      <trkpt lat="35.744826620" lon="-106.711477270">
        <ele>1806.000</ele>
        <time>2019-07-14T20:41:59Z</time>
      </trkpt>
      <trkpt lat="35.744944860" lon="-106.711368240">
        <ele>1805.300</ele>
        <time>2019-07-14T20:42:00Z</time>
      </trkpt>
      <trkpt lat="35.745066250" lon="-106.711269330">
        <ele>1806.700</ele>
        <time>2019-07-14T20:42:01Z</time>
      </trkpt>
      <trkpt lat="35.745188480" lon="-106.711167180">
        <ele>1806.900</ele>
        <time>2019-07-14T20:42:02Z</time>
      </trkpt>
      <trkpt lat="35.745309330" lon="-106.711065250">
        <ele>1806.600</ele>
        <time>2019-07-14T20:42:03Z</time>
      </trkpt>
      <trkpt lat="35.745427290" lon="-106.710950560">
        <ele>1806.400</ele>
        <time>2019-07-14T20:42:04Z</time>
      </trkpt>
      <trkpt lat="35.745548010" lon="-106.710847000">
        <ele>1806.600</ele>
        <time>2019-07-14T20:42:05Z</time>
      </trkpt>
      <trkpt lat="35.745669320" lon="-106.710748920">
        <ele>1805.800</ele>
        <time>2019-07-14T20:42:06Z</time>
      </trkpt>
      <trkpt lat="35.745795350" lon="-106.710645660">
        <ele>1806.600</ele>
        <time>2019-07-14T20:42:07Z</time>
      </trkpt>
      <trkpt lat="35.745925020" lon="-106.710547390">
        <ele>1806.500</ele>
        <time>2019-07-14T20:42:08Z</time>
      </trkpt>
      <trkpt lat="35.746061970" lon="-106.710443190">
        <ele>1805.600</ele>
        <time>2019-07-14T20:42:09Z</time>
      </trkpt>
      <trkpt lat="35.746196480" lon="-106.710341410">
        <ele>1806.100</ele>
        <time>2019-07-14T20:42:10Z</time>
      </trkpt>
      <trkpt lat="35.746333260" lon="-106.710234120">
        <ele>1806.800</ele>
        <time>2019-07-14T20:42:11Z</time>
      </trkpt>
      <trkpt lat="35.746471520" lon="-106.710140970">
        <ele>1806.700</ele>
        <time>2019-07-14T20:42:12Z</time>
      </trkpt>
      <trkpt lat="35.746635110" lon="-106.710079480">
        <ele>1807.200</ele>
        <time>2019-07-14T20:42:13Z</time>
      </trkpt>
      <trkpt lat="35.746791710" lon="-106.710013590">
        <ele>1807.100</ele>
        <time>2019-07-14T20:42:14Z</time>
      </trkpt>
      <trkpt lat="35.746954700" lon="-106.709972010">
        <ele>1806.900</ele>
        <time>2019-07-14T20:42:15Z</time>
      </trkpt>
      <trkpt lat="35.747129760" lon="-106.709961790">
        <ele>1807.900</ele>
        <time>2019-07-14T20:42:16Z</time>
      </trkpt>
      <trkpt lat="35.747295100" lon="-106.709986660">
        <ele>1808.300</ele>
        <time>2019-07-14T20:42:17Z</time>
      </trkpt>
      <trkpt lat="35.747457130" lon="-106.710005260">
        <ele>1809.200</ele>
        <time>2019-07-14T20:42:18Z</time>
      </trkpt>
      <trkpt lat="35.747621940" lon="-106.710032160">
        <ele>1810.300</ele>
        <time>2019-07-14T20:42:19Z</time>
      </trkpt>
      <trkpt lat="35.747779030" lon="-106.710085750">
        <ele>1811.400</ele>
        <time>2019-07-14T20:42:20Z</time>
      </trkpt>
      <trkpt lat="35.747934140" lon="-106.710108380">
        <ele>1811.000</ele>
        <time>2019-07-14T20:42:21Z</time>
      </trkpt>
      <trkpt lat="35.748088290" lon="-106.710148830">
        <ele>1811.200</ele>
        <time>2019-07-14T20:42:22Z</time>
      </trkpt>
      <trkpt lat="35.748250110" lon="-106.710186360">
        <ele>1811.600</ele>
        <time>2019-07-14T20:42:23Z</time>
      </trkpt>
      <trkpt lat="35.748406240" lon="-106.710223520">
        <ele>1812.000</ele>
        <time>2019-07-14T20:42:24Z</time>
      </trkpt>
      <trkpt lat="35.748573400" lon="-106.710262110">
        <ele>1812.700</ele>
        <time>2019-07-14T20:42:25Z</time>
      </trkpt>
      <trkpt lat="35.748731110" lon="-106.710274660">
        <ele>1812.300</ele>
        <time>2019-07-14T20:42:26Z</time>
      </trkpt>
      <trkpt lat="35.748897060" lon="-106.710287970">
        <ele>1812.800</ele>
        <time>2019-07-14T20:42:27Z</time>
      </trkpt>
      <trkpt lat="35.749067930" lon="-106.710293670">
        <ele>1813.600</ele>
        <time>2019-07-14T20:42:28Z</time>
      </trkpt>
      <trkpt lat="35.749224760" lon="-106.710277430">
        <ele>1814.100</ele>
        <time>2019-07-14T20:42:29Z</time>
      </trkpt>
      <trkpt lat="35.749390100" lon="-106.710257990">
        <ele>1813.900</ele>
        <time>2019-07-14T20:42:30Z</time>
      </trkpt>
      <trkpt lat="35.749543110" lon="-106.710229930">
        <ele>1813.400</ele>
        <time>2019-07-14T20:42:31Z</time>
      </trkpt>
      <trkpt lat="35.749684990" lon="-106.710158610">
        <ele>1812.800</ele>
        <time>2019-07-14T20:42:32Z</time>
      </trkpt>
      <trkpt lat="35.749792020" lon="-106.710033020">
        <ele>1811.800</ele>
        <time>2019-07-14T20:42:33Z</time>
      </trkpt>
      <trkpt lat="35.749905130" lon="-106.709916820">
        <ele>1813.100</ele>
        <time>2019-07-14T20:42:34Z</time>
      </trkpt>
      <trkpt lat="35.750019980" lon="-106.709806400">
        <ele>1812.600</ele>
        <time>2019-07-14T20:42:35Z</time>
      </trkpt>
      <trkpt lat="35.750132540" lon="-106.709708440">
        <ele>1813.200</ele>
        <time>2019-07-14T20:42:36Z</time>
      </trkpt>
      <trkpt lat="35.750241370" lon="-106.709568130">
        <ele>1813.500</ele>
        <time>2019-07-14T20:42:37Z</time>
      </trkpt>
      <trkpt lat="35.750360170" lon="-106.709445940">
        <ele>1813.800</ele>
        <time>2019-07-14T20:42:38Z</time>
      </trkpt>
      <trkpt lat="35.750481630" lon="-106.709333060">
        <ele>1812.300</ele>
        <time>2019-07-14T20:42:39Z</time>
      </trkpt>
      <trkpt lat="35.750610890" lon="-106.709237960">
        <ele>1812.400</ele>
        <time>2019-07-14T20:42:40Z</time>
      </trkpt>
      <trkpt lat="35.750741190" lon="-106.709143540">
        <ele>1812.500</ele>
        <time>2019-07-14T20:42:41Z</time>
      </trkpt>
      <trkpt lat="35.750884420" lon="-106.709079810">
        <ele>1812.600</ele>
        <time>2019-07-14T20:42:42Z</time>
      </trkpt>
      <trkpt lat="35.751022790" lon="-106.709007560">
        <ele>1812.800</ele>
        <time>2019-07-14T20:42:43Z</time>
      </trkpt>
      <trkpt lat="35.751174880" lon="-106.708971110">
        <ele>1813.600</ele>
        <time>2019-07-14T20:42:44Z</time>
      </trkpt>
      <trkpt lat="35.751327230" lon="-106.708966630">
        <ele>1813.800</ele>
        <time>2019-07-14T20:42:45Z</time>
      </trkpt>
      <trkpt lat="35.751474920" lon="-106.709000060">
        <ele>1813.500</ele>
        <time>2019-07-14T20:42:46Z</time>
      </trkpt>
      <trkpt lat="35.751630070" lon="-106.709007360">
        <ele>1814.400</ele>
        <time>2019-07-14T20:42:47Z</time>
      </trkpt>
      <trkpt lat="35.751778510" lon="-106.709035970">
        <ele>1815.300</ele>
        <time>2019-07-14T20:42:48Z</time>
      </trkpt>
      <trkpt lat="35.751916720" lon="-106.709079170">
        <ele>1815.400</ele>
        <time>2019-07-14T20:42:49Z</time>
      </trkpt>
      <trkpt lat="35.752056040" lon="-106.709121090">
        <ele>1814.900</ele>
        <time>2019-07-14T20:42:50Z</time>
      </trkpt>
      <trkpt lat="35.752188650" lon="-106.709140510">
        <ele>1815.400</ele>
        <time>2019-07-14T20:42:51Z</time>
      </trkpt>
      <trkpt lat="35.752332650" lon="-106.709166400">
        <ele>1816.000</ele>
        <time>2019-07-14T20:42:52Z</time>
      </trkpt>
      <trkpt lat="35.752483000" lon="-106.709187350">
        <ele>1816.000</ele>
        <time>2019-07-14T20:42:53Z</time>
      </trkpt>
      <trkpt lat="35.752635440" lon="-106.709196200">
        <ele>1816.900</ele>
        <time>2019-07-14T20:42:54Z</time>
      </trkpt>
      <trkpt lat="35.752781950" lon="-106.709158050">
        <ele>1816.100</ele>
        <time>2019-07-14T20:42:55Z</time>
      </trkpt>
      <trkpt lat="35.752933340" lon="-106.709135370">
        <ele>1816.800</ele>
        <time>2019-07-14T20:42:56Z</time>
      </trkpt>
      <trkpt lat="35.753069480" lon="-106.709082080">
        <ele>1815.700</ele>
        <time>2019-07-14T20:42:57Z</time>
      </trkpt>
      <trkpt lat="35.753194040" lon="-106.708969810">
        <ele>1815.300</ele>
        <time>2019-07-14T20:42:58Z</time>
      </trkpt>
      <trkpt lat="35.753304560" lon="-106.708858520">
        <ele>1815.500</ele>
        <time>2019-07-14T20:42:59Z</time>
      </trkpt>
      <trkpt lat="35.753372260" lon="-106.708684420">
        <ele>1815.200</ele>
        <time>2019-07-14T20:43:00Z</time>
      </trkpt>
      <trkpt lat="35.753437440" lon="-106.708527740">
        <ele>1817.300</ele>
        <time>2019-07-14T20:43:01Z</time>
      </trkpt>
      <trkpt lat="35.753493610" lon="-106.708371420">
        <ele>1817.600</ele>
        <time>2019-07-14T20:43:02Z</time>
      </trkpt>
      <trkpt lat="35.753540980" lon="-106.708220230">
        <ele>1816.600</ele>
        <time>2019-07-14T20:43:03Z</time>
      </trkpt>
      <trkpt lat="35.753584960" lon="-106.708063570">
        <ele>1817.400</ele>
        <time>2019-07-14T20:43:04Z</time>
      </trkpt>
      <trkpt lat="35.753614240" lon="-106.707883860">
        <ele>1817.500</ele>
        <time>2019-07-14T20:43:05Z</time>
      </trkpt>
      <trkpt lat="35.753658290" lon="-106.707702480">
        <ele>1817.700</ele>
        <time>2019-07-14T20:43:06Z</time>
      </trkpt>
      <trkpt lat="35.753707610" lon="-106.707505440">
        <ele>1816.800</ele>
        <time>2019-07-14T20:43:07Z</time>
      </trkpt>
      <trkpt lat="35.753795770" lon="-106.707357540">
        <ele>1816.200</ele>
        <time>2019-07-14T20:43:08Z</time>
      </trkpt>
      <trkpt lat="35.753885060" lon="-106.707198330">
        <ele>1817.100</ele>
        <time>2019-07-14T20:43:09Z</time>
      </trkpt>
      <trkpt lat="35.753977830" lon="-106.707052790">
        <ele>1818.100</ele>
        <time>2019-07-14T20:43:10Z</time>
      </trkpt>
      <trkpt lat="35.754062030" lon="-106.706899450">
        <ele>1819.200</ele>
        <time>2019-07-14T20:43:11Z</time>
      </trkpt>
      <trkpt lat="35.754147860" lon="-106.706746720">
        <ele>1820.600</ele>
        <time>2019-07-14T20:43:12Z</time>
      </trkpt>
      <trkpt lat="35.754221990" lon="-106.706589330">
        <ele>1821.100</ele>
        <time>2019-07-14T20:43:13Z</time>
      </trkpt>
      <trkpt lat="35.754283620" lon="-106.706423620">
        <ele>1821.300</ele>
        <time>2019-07-14T20:43:14Z</time>
      </trkpt>
      <trkpt lat="35.754339220" lon="-106.706247670">
        <ele>1821.100</ele>
        <time>2019-07-14T20:43:15Z</time>
      </trkpt>
      <trkpt lat="35.754392700" lon="-106.706077870">
        <ele>1821.600</ele>
        <time>2019-07-14T20:43:16Z</time>
      </trkpt>
      <trkpt lat="35.754444050" lon="-106.705902530">
        <ele>1821.900</ele>
        <time>2019-07-14T20:43:17Z</time>
      </trkpt>
      <trkpt lat="35.754498600" lon="-106.705724940">
        <ele>1821.300</ele>
        <time>2019-07-14T20:43:18Z</time>
      </trkpt>
      <trkpt lat="35.754544800" lon="-106.705546650">
        <ele>1821.900</ele>
        <time>2019-07-14T20:43:19Z</time>
      </trkpt>
      <trkpt lat="35.754611540" lon="-106.705395530">
        <ele>1822.100</ele>
        <time>2019-07-14T20:43:20Z</time>
      </trkpt>
      <trkpt lat="35.754692310" lon="-106.705247730">
        <ele>1822.300</ele>
        <time>2019-07-14T20:43:21Z</time>
      </trkpt>
      <trkpt lat="35.754774640" lon="-106.705095270">
        <ele>1822.100</ele>
        <time>2019-07-14T20:43:22Z</time>
      </trkpt>
      <trkpt lat="35.754864340" lon="-106.704944220">
        <ele>1822.300</ele>
        <time>2019-07-14T20:43:23Z</time>
      </trkpt>
      <trkpt lat="35.754957560" lon="-106.704797820">
        <ele>1820.500</ele>
        <time>2019-07-14T20:43:24Z</time>
      </trkpt>
      <trkpt lat="35.755055540" lon="-106.704659500">
        <ele>1821.600</ele>
        <time>2019-07-14T20:43:25Z</time>
      </trkpt>
      <trkpt lat="35.755165930" lon="-106.704533930">
        <ele>1823.100</ele>
        <time>2019-07-14T20:43:26Z</time>
      </trkpt>
      <trkpt lat="35.755266440" lon="-106.704409080">
        <ele>1822.300</ele>
        <time>2019-07-14T20:43:27Z</time>
      </trkpt>
      <trkpt lat="35.755372890" lon="-106.704280000">
        <ele>1822.500</ele>
        <time>2019-07-14T20:43:28Z</time>
      </trkpt>
      <trkpt lat="35.755485240" lon="-106.704158110">
        <ele>1822.800</ele>
        <time>2019-07-14T20:43:29Z</time>
      </trkpt>
      <trkpt lat="35.755618440" lon="-106.704079160">
        <ele>1823.800</ele>
        <time>2019-07-14T20:43:30Z</time>
      </trkpt>
      <trkpt lat="35.755742290" lon="-106.703983750">
        <ele>1824.800</ele>
        <time>2019-07-14T20:43:31Z</time>
      </trkpt>
      <trkpt lat="35.755883260" lon="-106.703901460">
        <ele>1826.200</ele>
        <time>2019-07-14T20:43:32Z</time>
      </trkpt>
      <trkpt lat="35.756021880" lon="-106.703826710">
        <ele>1826.700</ele>
        <time>2019-07-14T20:43:33Z</time>
      </trkpt>
      <trkpt lat="35.756150320" lon="-106.703742380">
        <ele>1827.300</ele>
        <time>2019-07-14T20:43:34Z</time>
      </trkpt>
      <trkpt lat="35.756289790" lon="-106.703685340">
        <ele>1827.800</ele>
        <time>2019-07-14T20:43:35Z</time>
      </trkpt>
      <trkpt lat="35.756417460" lon="-106.703607490">
        <ele>1828.500</ele>
        <time>2019-07-14T20:43:36Z</time>
      </trkpt>
      <trkpt lat="35.756548850" lon="-106.703532420">
        <ele>1829.700</ele>
        <time>2019-07-14T20:43:37Z</time>
      </trkpt>
      <trkpt lat="35.756672710" lon="-106.703446650">
        <ele>1831.000</ele>
        <time>2019-07-14T20:43:38Z</time>
      </trkpt>
      <trkpt lat="35.756804950" lon="-106.703365510">
        <ele>1831.800</ele>
        <time>2019-07-14T20:43:39Z</time>
      </trkpt>
      <trkpt lat="35.756927230" lon="-106.703263190">
        <ele>1834.900</ele>
        <time>2019-07-14T20:43:40Z</time>
      </trkpt>
      <trkpt lat="35.757048300" lon="-106.703168220">
        <ele>1833.400</ele>
        <time>2019-07-14T20:43:41Z</time>
      </trkpt>
      <trkpt lat="35.757170050" lon="-106.703070720">
        <ele>1833.200</ele>
        <time>2019-07-14T20:43:42Z</time>
      </trkpt>
      <trkpt lat="35.757298670" lon="-106.702965570">
        <ele>1834.600</ele>
        <time>2019-07-14T20:43:43Z</time>
      </trkpt>
      <trkpt lat="35.757424710" lon="-106.702849290">
        <ele>1835.900</ele>
        <time>2019-07-14T20:43:44Z</time>
      </trkpt>
      <trkpt lat="35.757550550" lon="-106.702737970">
        <ele>1836.400</ele>
        <time>2019-07-14T20:43:45Z</time>
      </trkpt>
      <trkpt lat="35.757663600" lon="-106.702633650">
        <ele>1837.100</ele>
        <time>2019-07-14T20:43:46Z</time>
      </trkpt>
      <trkpt lat="35.757756610" lon="-106.702480660">
        <ele>1837.500</ele>
        <time>2019-07-14T20:43:47Z</time>
      </trkpt>
      <trkpt lat="35.757828000" lon="-106.702303600">
        <ele>1837.500</ele>
        <time>2019-07-14T20:43:48Z</time>
      </trkpt>
      <trkpt lat="35.757902330" lon="-106.702152930">
        <ele>1836.300</ele>
        <time>2019-07-14T20:43:49Z</time>
      </trkpt>
      <trkpt lat="35.757978130" lon="-106.702004870">
        <ele>1836.700</ele>
        <time>2019-07-14T20:43:50Z</time>
      </trkpt>
      <trkpt lat="35.758052760" lon="-106.701843850">
        <ele>1838.100</ele>
        <time>2019-07-14T20:43:51Z</time>
      </trkpt>
      <trkpt lat="35.758129670" lon="-106.701678800">
        <ele>1837.400</ele>
        <time>2019-07-14T20:43:52Z</time>
      </trkpt>
      <trkpt lat="35.758212150" lon="-106.701532530">
        <ele>1837.900</ele>
        <time>2019-07-14T20:43:53Z</time>
      </trkpt>
      <trkpt lat="35.758313680" lon="-106.701394670">
        <ele>1838.500</ele>
        <time>2019-07-14T20:43:54Z</time>
      </trkpt>
      <trkpt lat="35.758426450" lon="-106.701284620">
        <ele>1838.800</ele>
        <time>2019-07-14T20:43:55Z</time>
      </trkpt>
      <trkpt lat="35.758541820" lon="-106.701168730">
        <ele>1836.500</ele>
        <time>2019-07-14T20:43:56Z</time>
      </trkpt>
      <trkpt lat="35.758663430" lon="-106.701057330">
        <ele>1836.000</ele>
        <time>2019-07-14T20:43:57Z</time>
      </trkpt>
      <trkpt lat="35.758785060" lon="-106.700954280">
        <ele>1836.300</ele>
        <time>2019-07-14T20:43:58Z</time>
      </trkpt>
      <trkpt lat="35.758906750" lon="-106.700848540">
        <ele>1836.500</ele>
        <time>2019-07-14T20:43:59Z</time>
      </trkpt>
      <trkpt lat="35.759035480" lon="-106.700744600">
        <ele>1836.800</ele>
        <time>2019-07-14T20:44:00Z</time>
      </trkpt>
      <trkpt lat="35.759152710" lon="-106.700621460">
        <ele>1836.800</ele>
        <time>2019-07-14T20:44:01Z</time>
      </trkpt>
      <trkpt lat="35.759270070" lon="-106.700507490">
        <ele>1836.500</ele>
        <time>2019-07-14T20:44:02Z</time>
      </trkpt>
      <trkpt lat="35.759394560" lon="-106.700398090">
        <ele>1836.700</ele>
        <time>2019-07-14T20:44:03Z</time>
      </trkpt>
      <trkpt lat="35.759515900" lon="-106.700284840">
        <ele>1837.000</ele>
        <time>2019-07-14T20:44:04Z</time>
      </trkpt>
      <trkpt lat="35.759637020" lon="-106.700183260">
        <ele>1838.000</ele>
        <time>2019-07-14T20:44:05Z</time>
      </trkpt>
      <trkpt lat="35.759757150" lon="-106.700085860">
        <ele>1838.300</ele>
        <time>2019-07-14T20:44:06Z</time>
      </trkpt>
      <trkpt lat="35.759881740" lon="-106.699992410">
        <ele>1837.300</ele>
        <time>2019-07-14T20:44:07Z</time>
      </trkpt>
      <trkpt lat="35.760004970" lon="-106.699910930">
        <ele>1837.900</ele>
        <time>2019-07-14T20:44:08Z</time>
      </trkpt>
      <trkpt lat="35.760138450" lon="-106.699831020">
        <ele>1838.900</ele>
        <time>2019-07-14T20:44:09Z</time>
      </trkpt>
      <trkpt lat="35.760278120" lon="-106.699766760">
        <ele>1839.100</ele>
        <time>2019-07-14T20:44:10Z</time>
      </trkpt>
      <trkpt lat="35.760414420" lon="-106.699703410">
        <ele>1839.400</ele>
        <time>2019-07-14T20:44:11Z</time>
      </trkpt>
      <trkpt lat="35.760548920" lon="-106.699629940">
        <ele>1838.400</ele>
        <time>2019-07-14T20:44:12Z</time>
      </trkpt>
      <trkpt lat="35.760696960" lon="-106.699575260">
        <ele>1839.000</ele>
        <time>2019-07-14T20:44:13Z</time>
      </trkpt>
      <trkpt lat="35.760832610" lon="-106.699508260">
        <ele>1840.000</ele>
        <time>2019-07-14T20:44:14Z</time>
      </trkpt>
      <trkpt lat="35.760958850" lon="-106.699402600">
        <ele>1839.300</ele>
        <time>2019-07-14T20:44:15Z</time>
      </trkpt>
      <trkpt lat="35.761089190" lon="-106.699309000">
        <ele>1837.900</ele>
        <time>2019-07-14T20:44:16Z</time>
      </trkpt>
      <trkpt lat="35.761187340" lon="-106.699157030">
        <ele>1841.200</ele>
        <time>2019-07-14T20:44:17Z</time>
      </trkpt>
      <trkpt lat="35.761304180" lon="-106.699044120">
        <ele>1842.100</ele>
        <time>2019-07-14T20:44:18Z</time>
      </trkpt>
      <trkpt lat="35.761356590" lon="-106.698854680">
        <ele>1843.900</ele>
        <time>2019-07-14T20:44:19Z</time>
      </trkpt>
      <trkpt lat="35.761426200" lon="-106.698703830">
        <ele>1844.800</ele>
        <time>2019-07-14T20:44:20Z</time>
      </trkpt>
      <trkpt lat="35.761473670" lon="-106.698526910">
        <ele>1844.500</ele>
        <time>2019-07-14T20:44:21Z</time>
      </trkpt>
      <trkpt lat="35.761532810" lon="-106.698360640">
        <ele>1845.000</ele>
        <time>2019-07-14T20:44:22Z</time>
      </trkpt>
      <trkpt lat="35.761593170" lon="-106.698194520">
        <ele>1845.500</ele>
        <time>2019-07-14T20:44:23Z</time>
      </trkpt>
      <trkpt lat="35.761660850" lon="-106.698030150">
        <ele>1846.400</ele>
        <time>2019-07-14T20:44:24Z</time>
      </trkpt>
      <trkpt lat="35.761740710" lon="-106.697871590">
        <ele>1846.100</ele>
        <time>2019-07-14T20:44:25Z</time>
      </trkpt>
      <trkpt lat="35.761837770" lon="-106.697720680">
        <ele>1843.500</ele>
        <time>2019-07-14T20:44:26Z</time>
      </trkpt>
      <trkpt lat="35.761942630" lon="-106.697583370">
        <ele>1843.100</ele>
        <time>2019-07-14T20:44:27Z</time>
      </trkpt>
      <trkpt lat="35.762048090" lon="-106.697456160">
        <ele>1842.300</ele>
        <time>2019-07-14T20:44:28Z</time>
      </trkpt>
      <trkpt lat="35.762159210" lon="-106.697338330">
        <ele>1841.500</ele>
        <time>2019-07-14T20:44:29Z</time>
      </trkpt>
      <trkpt lat="35.762270370" lon="-106.697216720">
        <ele>1842.400</ele>
        <time>2019-07-14T20:44:30Z</time>
      </trkpt>
      <trkpt lat="35.762382740" lon="-106.697096840">
        <ele>1842.600</ele>
        <time>2019-07-14T20:44:31Z</time>
      </trkpt>
      <trkpt lat="35.762488580" lon="-106.696961500">
        <ele>1842.700</ele>
        <time>2019-07-14T20:44:32Z</time>
      </trkpt>
      <trkpt lat="35.762591530" lon="-106.696842720">
        <ele>1842.200</ele>
        <time>2019-07-14T20:44:33Z</time>
      </trkpt>
      <trkpt lat="35.762678720" lon="-106.696713800">
        <ele>1842.400</ele>
        <time>2019-07-14T20:44:34Z</time>
      </trkpt>
      <trkpt lat="35.762763350" lon="-106.696582990">
        <ele>1842.900</ele>
        <time>2019-07-14T20:44:35Z</time>
      </trkpt>
      <trkpt lat="35.762842260" lon="-106.696456990">
        <ele>1842.500</ele>
        <time>2019-07-14T20:44:36Z</time>
      </trkpt>
      <trkpt lat="35.762918710" lon="-106.696334140">
        <ele>1843.100</ele>
        <time>2019-07-14T20:44:37Z</time>
      </trkpt>
      <trkpt lat="35.762992400" lon="-106.696222830">
        <ele>1843.500</ele>
        <time>2019-07-14T20:44:38Z</time>
      </trkpt>
      <trkpt lat="35.763065350" lon="-106.696118500">
        <ele>1844.600</ele>
        <time>2019-07-14T20:44:39Z</time>
      </trkpt>
      <trkpt lat="35.763135780" lon="-106.696025260">
        <ele>1845.100</ele>
        <time>2019-07-14T20:44:40Z</time>
      </trkpt>
      <trkpt lat="35.763209730" lon="-106.695927910">
        <ele>1843.500</ele>
        <time>2019-07-14T20:44:41Z</time>
      </trkpt>
      <trkpt lat="35.763286150" lon="-106.695851070">
        <ele>1843.700</ele>
        <time>2019-07-14T20:44:42Z</time>
      </trkpt>
      <trkpt lat="35.763378690" lon="-106.695779850">
        <ele>1844.100</ele>
        <time>2019-07-14T20:44:43Z</time>
      </trkpt>
      <trkpt lat="35.763499070" lon="-106.695746520">
        <ele>1843.900</ele>
        <time>2019-07-14T20:44:44Z</time>
      </trkpt>
      <trkpt lat="35.763600400" lon="-106.695704380">
        <ele>1843.400</ele>
        <time>2019-07-14T20:44:45Z</time>
      </trkpt>
      <trkpt lat="35.763711680" lon="-106.695672750">
        <ele>1844.000</ele>
        <time>2019-07-14T20:44:46Z</time>
      </trkpt>
      <trkpt lat="35.763816190" lon="-106.695630760">
        <ele>1844.600</ele>
        <time>2019-07-14T20:44:47Z</time>
      </trkpt>
      <trkpt lat="35.763924860" lon="-106.695595690">
        <ele>1844.800</ele>
        <time>2019-07-14T20:44:48Z</time>
      </trkpt>
      <trkpt lat="35.764027440" lon="-106.695546310">
        <ele>1845.000</ele>
        <time>2019-07-14T20:44:49Z</time>
      </trkpt>
      <trkpt lat="35.764135670" lon="-106.695504230">
        <ele>1846.100</ele>
        <time>2019-07-14T20:44:50Z</time>
      </trkpt>
      <trkpt lat="35.764224820" lon="-106.695426480">
        <ele>1847.200</ele>
        <time>2019-07-14T20:44:51Z</time>
      </trkpt>
      <trkpt lat="35.764308540" lon="-106.695335260">
        <ele>1844.500</ele>
        <time>2019-07-14T20:44:52Z</time>
      </trkpt>
      <trkpt lat="35.764391220" lon="-106.695250990">
        <ele>1843.900</ele>
        <time>2019-07-14T20:44:53Z</time>
      </trkpt>
      <trkpt lat="35.764491290" lon="-106.695178800">
        <ele>1844.000</ele>
        <time>2019-07-14T20:44:54Z</time>
      </trkpt>
      <trkpt lat="35.764578930" lon="-106.695097940">
        <ele>1844.200</ele>
        <time>2019-07-14T20:44:55Z</time>
      </trkpt>
      <trkpt lat="35.764661300" lon="-106.695026990">
        <ele>1844.500</ele>
        <time>2019-07-14T20:44:56Z</time>
      </trkpt>
      <trkpt lat="35.764742490" lon="-106.694944560">
        <ele>1845.400</ele>
        <time>2019-07-14T20:44:57Z</time>
      </trkpt>
      <trkpt lat="35.764821820" lon="-106.694852070">
        <ele>1847.100</ele>
        <time>2019-07-14T20:44:58Z</time>
      </trkpt>
      <trkpt lat="35.764912160" lon="-106.694786190">
        <ele>1845.700</ele>
        <time>2019-07-14T20:44:59Z</time>
      </trkpt>
      <trkpt lat="35.764998570" lon="-106.694714170">
        <ele>1846.300</ele>
        <time>2019-07-14T20:45:00Z</time>
      </trkpt>
      <trkpt lat="35.765094290" lon="-106.694643120">
        <ele>1847.100</ele>
        <time>2019-07-14T20:45:01Z</time>
      </trkpt>
      <trkpt lat="35.765195360" lon="-106.694571790">
        <ele>1847.400</ele>
        <time>2019-07-14T20:45:02Z</time>
      </trkpt>
      <trkpt lat="35.765300640" lon="-106.694505130">
        <ele>1848.100</ele>
        <time>2019-07-14T20:45:03Z</time>
      </trkpt>
      <trkpt lat="35.765410610" lon="-106.694439800">
        <ele>1848.600</ele>
        <time>2019-07-14T20:45:04Z</time>
      </trkpt>
      <trkpt lat="35.765501210" lon="-106.694359830">
        <ele>1849.700</ele>
        <time>2019-07-14T20:45:05Z</time>
      </trkpt>
      <trkpt lat="35.765595120" lon="-106.694279420">
        <ele>1848.900</ele>
        <time>2019-07-14T20:45:06Z</time>
      </trkpt>
      <trkpt lat="35.765680220" lon="-106.694202000">
        <ele>1848.300</ele>
        <time>2019-07-14T20:45:07Z</time>
      </trkpt>
      <trkpt lat="35.765765870" lon="-106.694131240">
        <ele>1848.500</ele>
        <time>2019-07-14T20:45:08Z</time>
      </trkpt>
      <trkpt lat="35.765848210" lon="-106.694047960">
        <ele>1849.200</ele>
        <time>2019-07-14T20:45:09Z</time>
      </trkpt>
      <trkpt lat="35.765931700" lon="-106.693968150">
        <ele>1849.900</ele>
        <time>2019-07-14T20:45:10Z</time>
      </trkpt>
      <trkpt lat="35.766009860" lon="-106.693872670">
        <ele>1851.800</ele>
        <time>2019-07-14T20:45:11Z</time>
      </trkpt>
      <trkpt lat="35.766092780" lon="-106.693781190">
        <ele>1852.600</ele>
        <time>2019-07-14T20:45:12Z</time>
      </trkpt>
      <trkpt lat="35.766182470" lon="-106.693691050">
        <ele>1853.900</ele>
        <time>2019-07-14T20:45:13Z</time>
      </trkpt>
      <trkpt lat="35.766274440" lon="-106.693610320">
        <ele>1854.200</ele>
        <time>2019-07-14T20:45:14Z</time>
      </trkpt>
      <trkpt lat="35.766363610" lon="-106.693530840">
        <ele>1853.400</ele>
        <time>2019-07-14T20:45:15Z</time>
      </trkpt>
      <trkpt lat="35.766460600" lon="-106.693467020">
        <ele>1853.200</ele>
        <time>2019-07-14T20:45:16Z</time>
      </trkpt>
      <trkpt lat="35.766547040" lon="-106.693399680">
        <ele>1853.100</ele>
        <time>2019-07-14T20:45:17Z</time>
      </trkpt>
      <trkpt lat="35.766635640" lon="-106.693331770">
        <ele>1853.200</ele>
        <time>2019-07-14T20:45:18Z</time>
      </trkpt>
      <trkpt lat="35.766721840" lon="-106.693267590">
        <ele>1853.100</ele>
        <time>2019-07-14T20:45:19Z</time>
      </trkpt>
      <trkpt lat="35.766805220" lon="-106.693208140">
        <ele>1853.300</ele>
        <time>2019-07-14T20:45:20Z</time>
      </trkpt>
      <trkpt lat="35.766883310" lon="-106.693151000">
        <ele>1853.500</ele>
        <time>2019-07-14T20:45:21Z</time>
      </trkpt>
      <trkpt lat="35.766967590" lon="-106.693103630">
        <ele>1854.000</ele>
        <time>2019-07-14T20:45:22Z</time>
      </trkpt>
      <trkpt lat="35.767048840" lon="-106.693058170">
        <ele>1854.500</ele>
        <time>2019-07-14T20:45:23Z</time>
      </trkpt>
      <trkpt lat="35.767132140" lon="-106.693016060">
        <ele>1855.700</ele>
        <time>2019-07-14T20:45:24Z</time>
      </trkpt>
      <trkpt lat="35.767213530" lon="-106.692970750">
        <ele>1855.900</ele>
        <time>2019-07-14T20:45:25Z</time>
      </trkpt>
      <trkpt lat="35.767293530" lon="-106.692922680">
        <ele>1856.300</ele>
        <time>2019-07-14T20:45:26Z</time>
      </trkpt>
      <trkpt lat="35.767376100" lon="-106.692875270">
        <ele>1855.100</ele>
        <time>2019-07-14T20:45:27Z</time>
      </trkpt>
      <trkpt lat="35.767471330" lon="-106.692851420">
        <ele>1856.100</ele>
        <time>2019-07-14T20:45:28Z</time>
      </trkpt>
      <trkpt lat="35.767558190" lon="-106.692819310">
        <ele>1847.500</ele>
        <time>2019-07-14T20:45:29Z</time>
      </trkpt>
      <trkpt lat="35.767644700" lon="-106.692773870">
        <ele>1850.600</ele>
        <time>2019-07-14T20:45:30Z</time>
      </trkpt>
      <trkpt lat="35.767730610" lon="-106.692728340">
        <ele>1852.500</ele>
        <time>2019-07-14T20:45:31Z</time>
      </trkpt>
      <trkpt lat="35.767821760" lon="-106.692695710">
        <ele>1854.400</ele>
        <time>2019-07-14T20:45:32Z</time>
      </trkpt>
      <trkpt lat="35.767921080" lon="-106.692687550">
        <ele>1856.000</ele>
        <time>2019-07-14T20:45:33Z</time>
      </trkpt>
      <trkpt lat="35.768007140" lon="-106.692632820">
        <ele>1857.100</ele>
        <time>2019-07-14T20:45:34Z</time>
      </trkpt>
      <trkpt lat="35.768101940" lon="-106.692605120">
        <ele>1858.000</ele>
        <time>2019-07-14T20:45:35Z</time>
      </trkpt>
      <trkpt lat="35.768192820" lon="-106.692554290">
        <ele>1858.200</ele>
        <time>2019-07-14T20:45:36Z</time>
      </trkpt>
      <trkpt lat="35.768287160" lon="-106.692509450">
        <ele>1858.300</ele>
        <time>2019-07-14T20:45:37Z</time>
      </trkpt>
      <trkpt lat="35.768384580" lon="-106.692460060">
        <ele>1859.000</ele>
        <time>2019-07-14T20:45:38Z</time>
      </trkpt>
      <trkpt lat="35.768478330" lon="-106.692401610">
        <ele>1860.000</ele>
        <time>2019-07-14T20:45:39Z</time>
      </trkpt>
      <trkpt lat="35.768569890" lon="-106.692339740">
        <ele>1860.900</ele>
        <time>2019-07-14T20:45:40Z</time>
      </trkpt>
      <trkpt lat="35.768667110" lon="-106.692285500">
        <ele>1861.100</ele>
        <time>2019-07-14T20:45:41Z</time>
      </trkpt>
      <trkpt lat="35.768757210" lon="-106.692235100">
        <ele>1861.900</ele>
        <time>2019-07-14T20:45:42Z</time>
      </trkpt>
      <trkpt lat="35.768856400" lon="-106.692185220">
        <ele>1863.200</ele>
        <time>2019-07-14T20:45:43Z</time>
      </trkpt>
      <trkpt lat="35.768954360" lon="-106.692132180">
        <ele>1863.100</ele>
        <time>2019-07-14T20:45:44Z</time>
      </trkpt>
      <trkpt lat="35.769056190" lon="-106.692079650">
        <ele>1864.500</ele>
        <time>2019-07-14T20:45:45Z</time>
      </trkpt>
      <trkpt lat="35.769133210" lon="-106.692011960">
        <ele>1864.100</ele>
        <time>2019-07-14T20:45:46Z</time>
      </trkpt>
      <trkpt lat="35.769223980" lon="-106.691955900">
        <ele>1865.300</ele>
        <time>2019-07-14T20:45:47Z</time>
      </trkpt>
      <trkpt lat="35.769318990" lon="-106.691905230">
        <ele>1866.200</ele>
        <time>2019-07-14T20:45:48Z</time>
      </trkpt>
      <trkpt lat="35.769404260" lon="-106.691865160">
        <ele>1867.600</ele>
        <time>2019-07-14T20:45:49Z</time>
      </trkpt>
      <trkpt lat="35.769489400" lon="-106.691815020">
        <ele>1867.800</ele>
        <time>2019-07-14T20:45:50Z</time>
      </trkpt>
      <trkpt lat="35.769571250" lon="-106.691764330">
        <ele>1869.200</ele>
        <time>2019-07-14T20:45:51Z</time>
      </trkpt>
      <trkpt lat="35.769650420" lon="-106.691710320">
        <ele>1869.800</ele>
        <time>2019-07-14T20:45:52Z</time>
      </trkpt>
      <trkpt lat="35.769732150" lon="-106.691666050">
        <ele>1868.700</ele>
        <time>2019-07-14T20:45:53Z</time>
      </trkpt>
      <trkpt lat="35.769815770" lon="-106.691617500">
        <ele>1868.200</ele>
        <time>2019-07-14T20:45:54Z</time>
      </trkpt>
      <trkpt lat="35.769911330" lon="-106.691562300">
        <ele>1867.800</ele>
        <time>2019-07-14T20:45:55Z</time>
      </trkpt>
      <trkpt lat="35.770004290" lon="-106.691507630">
        <ele>1867.700</ele>
        <time>2019-07-14T20:45:56Z</time>
      </trkpt>
      <trkpt lat="35.770103130" lon="-106.691447950">
        <ele>1867.700</ele>
        <time>2019-07-14T20:45:57Z</time>
      </trkpt>
      <trkpt lat="35.770197920" lon="-106.691401150">
        <ele>1867.100</ele>
        <time>2019-07-14T20:45:58Z</time>
      </trkpt>
      <trkpt lat="35.770300000" lon="-106.691350840">
        <ele>1867.200</ele>
        <time>2019-07-14T20:45:59Z</time>
      </trkpt>
      <trkpt lat="35.770397840" lon="-106.691281180">
        <ele>1865.800</ele>
        <time>2019-07-14T20:46:00Z</time>
      </trkpt>
      <trkpt lat="35.770461860" lon="-106.691198620">
        <ele>1862.900</ele>
        <time>2019-07-14T20:46:01Z</time>
      </trkpt>
      <trkpt lat="35.770541580" lon="-106.691132340">
        <ele>1863.300</ele>
        <time>2019-07-14T20:46:02Z</time>
      </trkpt>
      <trkpt lat="35.770620710" lon="-106.691056510">
        <ele>1863.800</ele>
        <time>2019-07-14T20:46:03Z</time>
      </trkpt>
      <trkpt lat="35.770693440" lon="-106.690983030">
        <ele>1862.700</ele>
        <time>2019-07-14T20:46:04Z</time>
      </trkpt>
      <trkpt lat="35.770763930" lon="-106.690897930">
        <ele>1861.900</ele>
        <time>2019-07-14T20:46:05Z</time>
      </trkpt>
      <trkpt lat="35.770832570" lon="-106.690832620">
        <ele>1860.700</ele>
        <time>2019-07-14T20:46:06Z</time>
      </trkpt>
      <trkpt lat="35.770898750" lon="-106.690760350">
        <ele>1860.800</ele>
        <time>2019-07-14T20:46:07Z</time>
      </trkpt>
      <trkpt lat="35.770971520" lon="-106.690686200">
        <ele>1860.800</ele>
        <time>2019-07-14T20:46:08Z</time>
      </trkpt>
      <trkpt lat="35.771035210" lon="-106.690627000">
        <ele>1859.600</ele>
        <time>2019-07-14T20:46:09Z</time>
      </trkpt>
      <trkpt lat="35.771103490" lon="-106.690550070">
        <ele>1859.500</ele>
        <time>2019-07-14T20:46:10Z</time>
      </trkpt>
      <trkpt lat="35.771173280" lon="-106.690472070">
        <ele>1861.200</ele>
        <time>2019-07-14T20:46:11Z</time>
      </trkpt>
      <trkpt lat="35.771237520" lon="-106.690405890">
        <ele>1861.000</ele>
        <time>2019-07-14T20:46:12Z</time>
      </trkpt>
      <trkpt lat="35.771301800" lon="-106.690342600">
        <ele>1861.600</ele>
        <time>2019-07-14T20:46:13Z</time>
      </trkpt>
      <trkpt lat="35.771358180" lon="-106.690280200">
        <ele>1860.900</ele>
        <time>2019-07-14T20:46:14Z</time>
      </trkpt>
      <trkpt lat="35.771410950" lon="-106.690207100">
        <ele>1859.800</ele>
        <time>2019-07-14T20:46:15Z</time>
      </trkpt>
      <trkpt lat="35.771463090" lon="-106.690142460">
        <ele>1860.500</ele>
        <time>2019-07-14T20:46:16Z</time>
      </trkpt>
      <trkpt lat="35.771510880" lon="-106.690083200">
        <ele>1861.300</ele>
        <time>2019-07-14T20:46:17Z</time>
      </trkpt>
      <trkpt lat="35.771557590" lon="-106.690033970">
        <ele>1860.600</ele>
        <time>2019-07-14T20:46:18Z</time>
      </trkpt>
      <trkpt lat="35.771609250" lon="-106.689981600">
        <ele>1861.900</ele>
        <time>2019-07-14T20:46:19Z</time>
      </trkpt>
      <trkpt lat="35.771662620" lon="-106.689923080">
        <ele>1861.800</ele>
        <time>2019-07-14T20:46:20Z</time>
      </trkpt>
      <trkpt lat="35.771718890" lon="-106.689867380">
        <ele>1863.100</ele>
        <time>2019-07-14T20:46:21Z</time>
      </trkpt>
      <trkpt lat="35.771777860" lon="-106.689810010">
        <ele>1864.400</ele>
        <time>2019-07-14T20:46:22Z</time>
      </trkpt>
      <trkpt lat="35.771839550" lon="-106.689747150">
        <ele>1865.600</ele>
        <time>2019-07-14T20:46:23Z</time>
      </trkpt>
      <trkpt lat="35.771900520" lon="-106.689676160">
        <ele>1866.900</ele>
        <time>2019-07-14T20:46:24Z</time>
      </trkpt>
      <trkpt lat="35.771969110" lon="-106.689602470">
        <ele>1866.700</ele>
        <time>2019-07-14T20:46:25Z</time>
      </trkpt>
      <trkpt lat="35.772045470" lon="-106.689528980">
        <ele>1867.400</ele>
        <time>2019-07-14T20:46:26Z</time>
      </trkpt>
      <trkpt lat="35.772120380" lon="-106.689454690">
        <ele>1867.300</ele>
        <time>2019-07-14T20:46:27Z</time>
      </trkpt>
      <trkpt lat="35.772200160" lon="-106.689371190">
        <ele>1867.900</ele>
        <time>2019-07-14T20:46:28Z</time>
      </trkpt>
      <trkpt lat="35.772287020" lon="-106.689286130">
        <ele>1867.500</ele>
        <time>2019-07-14T20:46:29Z</time>
      </trkpt>
      <trkpt lat="35.772371970" lon="-106.689199180">
        <ele>1868.400</ele>
        <time>2019-07-14T20:46:30Z</time>
      </trkpt>
      <trkpt lat="35.772454610" lon="-106.689103070">
        <ele>1868.200</ele>
        <time>2019-07-14T20:46:31Z</time>
      </trkpt>
      <trkpt lat="35.772538560" lon="-106.689018220">
        <ele>1868.300</ele>
        <time>2019-07-14T20:46:32Z</time>
      </trkpt>
      <trkpt lat="35.772635270" lon="-106.688945180">
        <ele>1869.600</ele>
        <time>2019-07-14T20:46:33Z</time>
      </trkpt>
      <trkpt lat="35.772722470" lon="-106.688863320">
        <ele>1870.700</ele>
        <time>2019-07-14T20:46:34Z</time>
      </trkpt>
      <trkpt lat="35.772821020" lon="-106.688786130">
        <ele>1871.600</ele>
        <time>2019-07-14T20:46:35Z</time>
      </trkpt>
      <trkpt lat="35.772913490" lon="-106.688711330">
        <ele>1870.800</ele>
        <time>2019-07-14T20:46:36Z</time>
      </trkpt>
      <trkpt lat="35.773013860" lon="-106.688620900">
        <ele>1870.300</ele>
        <time>2019-07-14T20:46:37Z</time>
      </trkpt>
      <trkpt lat="35.773113120" lon="-106.688543270">
        <ele>1870.100</ele>
        <time>2019-07-14T20:46:38Z</time>
      </trkpt>
      <trkpt lat="35.773217400" lon="-106.688479930">
        <ele>1869.100</ele>
        <time>2019-07-14T20:46:39Z</time>
      </trkpt>
      <trkpt lat="35.773341280" lon="-106.688412310">
        <ele>1869.100</ele>
        <time>2019-07-14T20:46:40Z</time>
      </trkpt>
      <trkpt lat="35.773459470" lon="-106.688354290">
        <ele>1868.500</ele>
        <time>2019-07-14T20:46:41Z</time>
      </trkpt>
      <trkpt lat="35.773587820" lon="-106.688299090">
        <ele>1868.300</ele>
        <time>2019-07-14T20:46:42Z</time>
      </trkpt>
      <trkpt lat="35.773711220" lon="-106.688253070">
        <ele>1869.000</ele>
        <time>2019-07-14T20:46:43Z</time>
      </trkpt>
      <trkpt lat="35.773841830" lon="-106.688224390">
        <ele>1869.700</ele>
        <time>2019-07-14T20:46:44Z</time>
      </trkpt>
      <trkpt lat="35.773970320" lon="-106.688205720">
        <ele>1869.700</ele>
        <time>2019-07-14T20:46:45Z</time>
      </trkpt>
      <trkpt lat="35.774105810" lon="-106.688202100">
        <ele>1870.400</ele>
        <time>2019-07-14T20:46:46Z</time>
      </trkpt>
      <trkpt lat="35.774229680" lon="-106.688228400">
        <ele>1870.500</ele>
        <time>2019-07-14T20:46:47Z</time>
      </trkpt>
      <trkpt lat="35.774359610" lon="-106.688252480">
        <ele>1871.200</ele>
        <time>2019-07-14T20:46:48Z</time>
      </trkpt>
      <trkpt lat="35.774489680" lon="-106.688289780">
        <ele>1871.600</ele>
        <time>2019-07-14T20:46:49Z</time>
      </trkpt>
      <trkpt lat="35.774619770" lon="-106.688330860">
        <ele>1872.300</ele>
        <time>2019-07-14T20:46:50Z</time>
      </trkpt>
      <trkpt lat="35.774746550" lon="-106.688366930">
        <ele>1872.400</ele>
        <time>2019-07-14T20:46:51Z</time>
      </trkpt>
      <trkpt lat="35.774874260" lon="-106.688397500">
        <ele>1872.900</ele>
        <time>2019-07-14T20:46:52Z</time>
      </trkpt>
      <trkpt lat="35.775007700" lon="-106.688420590">
        <ele>1873.400</ele>
        <time>2019-07-14T20:46:53Z</time>
      </trkpt>
      <trkpt lat="35.775128840" lon="-106.688434300">
        <ele>1872.400</ele>
        <time>2019-07-14T20:46:54Z</time>
      </trkpt>
      <trkpt lat="35.775269480" lon="-106.688421010">
        <ele>1871.000</ele>
        <time>2019-07-14T20:46:55Z</time>
      </trkpt>
      <trkpt lat="35.775408740" lon="-106.688387310">
        <ele>1872.600</ele>
        <time>2019-07-14T20:46:56Z</time>
      </trkpt>
      <trkpt lat="35.775528780" lon="-106.688311780">
        <ele>1872.200</ele>
        <time>2019-07-14T20:46:57Z</time>
      </trkpt>
      <trkpt lat="35.775647270" lon="-106.688244720">
        <ele>1872.600</ele>
        <time>2019-07-14T20:46:58Z</time>
      </trkpt>
      <trkpt lat="35.775768920" lon="-106.688174760">
        <ele>1874.300</ele>
        <time>2019-07-14T20:46:59Z</time>
      </trkpt>
      <trkpt lat="35.775901060" lon="-106.688113350">
        <ele>1875.000</ele>
        <time>2019-07-14T20:47:00Z</time>
      </trkpt>
      <trkpt lat="35.776025480" lon="-106.688041480">
        <ele>1876.000</ele>
        <time>2019-07-14T20:47:01Z</time>
      </trkpt>
      <trkpt lat="35.776150940" lon="-106.687980310">
        <ele>1876.500</ele>
        <time>2019-07-14T20:47:02Z</time>
      </trkpt>
      <trkpt lat="35.776284670" lon="-106.687944140">
        <ele>1876.800</ele>
        <time>2019-07-14T20:47:03Z</time>
      </trkpt>
      <trkpt lat="35.776415050" lon="-106.687908140">
        <ele>1877.000</ele>
        <time>2019-07-14T20:47:04Z</time>
      </trkpt>
      <trkpt lat="35.776554530" lon="-106.687900100">
        <ele>1878.200</ele>
        <time>2019-07-14T20:47:05Z</time>
      </trkpt>
      <trkpt lat="35.776689680" lon="-106.687909410">
        <ele>1880.200</ele>
        <time>2019-07-14T20:47:06Z</time>
      </trkpt>
      <trkpt lat="35.776819570" lon="-106.687895210">
        <ele>1881.500</ele>
        <time>2019-07-14T20:47:07Z</time>
      </trkpt>
      <trkpt lat="35.776951490" lon="-106.687885740">
        <ele>1882.000</ele>
        <time>2019-07-14T20:47:08Z</time>
      </trkpt>
      <trkpt lat="35.777095760" lon="-106.687898010">
        <ele>1884.400</ele>
        <time>2019-07-14T20:47:09Z</time>
      </trkpt>
      <trkpt lat="35.777227660" lon="-106.687891050">
        <ele>1885.100</ele>
        <time>2019-07-14T20:47:10Z</time>
      </trkpt>
      <trkpt lat="35.777355780" lon="-106.687903840">
        <ele>1885.300</ele>
        <time>2019-07-14T20:47:11Z</time>
      </trkpt>
      <trkpt lat="35.777488240" lon="-106.687900270">
        <ele>1885.100</ele>
        <time>2019-07-14T20:47:12Z</time>
      </trkpt>
      <trkpt lat="35.777612210" lon="-106.687889940">
        <ele>1884.900</ele>
        <time>2019-07-14T20:47:13Z</time>
      </trkpt>
      <trkpt lat="35.777731070" lon="-106.687885950">
        <ele>1885.200</ele>
        <time>2019-07-14T20:47:14Z</time>
      </trkpt>
      <trkpt lat="35.777846330" lon="-106.687868420">
        <ele>1886.400</ele>
        <time>2019-07-14T20:47:15Z</time>
      </trkpt>
      <trkpt lat="35.777967840" lon="-106.687867080">
        <ele>1887.400</ele>
        <time>2019-07-14T20:47:16Z</time>
      </trkpt>
      <trkpt lat="35.778098650" lon="-106.687862510">
        <ele>1888.300</ele>
        <time>2019-07-14T20:47:17Z</time>
      </trkpt>
      <trkpt lat="35.778238140" lon="-106.687855290">
        <ele>1888.600</ele>
        <time>2019-07-14T20:47:18Z</time>
      </trkpt>
      <trkpt lat="35.778376440" lon="-106.687855320">
        <ele>1889.900</ele>
        <time>2019-07-14T20:47:19Z</time>
      </trkpt>
      <trkpt lat="35.778523960" lon="-106.687854110">
        <ele>1892.200</ele>
        <time>2019-07-14T20:47:20Z</time>
      </trkpt>
      <trkpt lat="35.778666240" lon="-106.687850250">
        <ele>1892.000</ele>
        <time>2019-07-14T20:47:21Z</time>
      </trkpt>
      <trkpt lat="35.778810230" lon="-106.687850200">
        <ele>1891.900</ele>
        <time>2019-07-14T20:47:22Z</time>
      </trkpt>
      <trkpt lat="35.778952040" lon="-106.687857750">
        <ele>1892.100</ele>
        <time>2019-07-14T20:47:23Z</time>
      </trkpt>
      <trkpt lat="35.779097610" lon="-106.687850540">
        <ele>1891.300</ele>
        <time>2019-07-14T20:47:24Z</time>
      </trkpt>
      <trkpt lat="35.779241370" lon="-106.687844730">
        <ele>1890.100</ele>
        <time>2019-07-14T20:47:25Z</time>
      </trkpt>
      <trkpt lat="35.779394030" lon="-106.687827530">
        <ele>1890.100</ele>
        <time>2019-07-14T20:47:26Z</time>
      </trkpt>
      <trkpt lat="35.779540210" lon="-106.687797350">
        <ele>1889.900</ele>
        <time>2019-07-14T20:47:27Z</time>
      </trkpt>
      <trkpt lat="35.779681890" lon="-106.687761520">
        <ele>1890.300</ele>
        <time>2019-07-14T20:47:28Z</time>
      </trkpt>
      <trkpt lat="35.779829490" lon="-106.687704040">
        <ele>1889.300</ele>
        <time>2019-07-14T20:47:29Z</time>
      </trkpt>
      <trkpt lat="35.779953760" lon="-106.687613540">
        <ele>1889.700</ele>
        <time>2019-07-14T20:47:30Z</time>
      </trkpt>
      <trkpt lat="35.780088190" lon="-106.687552640">
        <ele>1889.700</ele>
        <time>2019-07-14T20:47:31Z</time>
      </trkpt>
      <trkpt lat="35.780215220" lon="-106.687488270">
        <ele>1889.700</ele>
        <time>2019-07-14T20:47:32Z</time>
      </trkpt>
      <trkpt lat="35.780344880" lon="-106.687419910">
        <ele>1890.000</ele>
        <time>2019-07-14T20:47:33Z</time>
      </trkpt>
      <trkpt lat="35.780478770" lon="-106.687354050">
        <ele>1890.400</ele>
        <time>2019-07-14T20:47:34Z</time>
      </trkpt>
      <trkpt lat="35.780610510" lon="-106.687291040">
        <ele>1890.800</ele>
        <time>2019-07-14T20:47:35Z</time>
      </trkpt>
      <trkpt lat="35.780753850" lon="-106.687252430">
        <ele>1891.300</ele>
        <time>2019-07-14T20:47:36Z</time>
      </trkpt>
      <trkpt lat="35.780890590" lon="-106.687216540">
        <ele>1891.500</ele>
        <time>2019-07-14T20:47:37Z</time>
      </trkpt>
      <trkpt lat="35.781034790" lon="-106.687194940">
        <ele>1891.500</ele>
        <time>2019-07-14T20:47:38Z</time>
      </trkpt>
      <trkpt lat="35.781179630" lon="-106.687186830">
        <ele>1892.000</ele>
        <time>2019-07-14T20:47:39Z</time>
      </trkpt>
      <trkpt lat="35.781323860" lon="-106.687192420">
        <ele>1892.400</ele>
        <time>2019-07-14T20:47:40Z</time>
      </trkpt>
      <trkpt lat="35.781470990" lon="-106.687207270">
        <ele>1892.900</ele>
        <time>2019-07-14T20:47:41Z</time>
      </trkpt>
      <trkpt lat="35.781618630" lon="-106.687229550">
        <ele>1893.500</ele>
        <time>2019-07-14T20:47:42Z</time>
      </trkpt>
      <trkpt lat="35.781776840" lon="-106.687223730">
        <ele>1888.100</ele>
        <time>2019-07-14T20:47:43Z</time>
      </trkpt>
      <trkpt lat="35.781923670" lon="-106.687235290">
        <ele>1886.800</ele>
        <time>2019-07-14T20:47:44Z</time>
      </trkpt>
      <trkpt lat="35.782076400" lon="-106.687241130">
        <ele>1887.600</ele>
        <time>2019-07-14T20:47:45Z</time>
      </trkpt>
      <trkpt lat="35.782231830" lon="-106.687215830">
        <ele>1887.600</ele>
        <time>2019-07-14T20:47:46Z</time>
      </trkpt>
      <trkpt lat="35.782392010" lon="-106.687176070">
        <ele>1888.700</ele>
        <time>2019-07-14T20:47:47Z</time>
      </trkpt>
      <trkpt lat="35.782543200" lon="-106.687152580">
        <ele>1888.900</ele>
        <time>2019-07-14T20:47:48Z</time>
      </trkpt>
      <trkpt lat="35.782694970" lon="-106.687109540">
        <ele>1889.000</ele>
        <time>2019-07-14T20:47:49Z</time>
      </trkpt>
      <trkpt lat="35.782838510" lon="-106.687073360">
        <ele>1888.300</ele>
        <time>2019-07-14T20:47:50Z</time>
      </trkpt>
      <trkpt lat="35.782998770" lon="-106.687047400">
        <ele>1890.400</ele>
        <time>2019-07-14T20:47:51Z</time>
      </trkpt>
      <trkpt lat="35.783151880" lon="-106.687022930">
        <ele>1890.200</ele>
        <time>2019-07-14T20:47:52Z</time>
      </trkpt>
      <trkpt lat="35.783303530" lon="-106.686983310">
        <ele>1890.400</ele>
        <time>2019-07-14T20:47:53Z</time>
      </trkpt>
      <trkpt lat="35.783459840" lon="-106.686943680">
        <ele>1889.500</ele>
        <time>2019-07-14T20:47:54Z</time>
      </trkpt>
      <trkpt lat="35.783610190" lon="-106.686912880">
        <ele>1889.500</ele>
        <time>2019-07-14T20:47:55Z</time>
      </trkpt>
      <trkpt lat="35.783757320" lon="-106.686878770">
        <ele>1889.700</ele>
        <time>2019-07-14T20:47:56Z</time>
      </trkpt>
      <trkpt lat="35.783904460" lon="-106.686850330">
        <ele>1890.600</ele>
        <time>2019-07-14T20:47:57Z</time>
      </trkpt>
      <trkpt lat="35.784055000" lon="-106.686821490">
        <ele>1889.600</ele>
        <time>2019-07-14T20:47:58Z</time>
      </trkpt>
      <trkpt lat="35.784194360" lon="-106.686777090">
        <ele>1885.600</ele>
        <time>2019-07-14T20:47:59Z</time>
      </trkpt>
      <trkpt lat="35.784343220" lon="-106.686745160">
        <ele>1885.500</ele>
        <time>2019-07-14T20:48:00Z</time>
      </trkpt>
      <trkpt lat="35.784495190" lon="-106.686715380">
        <ele>1886.300</ele>
        <time>2019-07-14T20:48:01Z</time>
      </trkpt>
      <trkpt lat="35.784642160" lon="-106.686674640">
        <ele>1885.300</ele>
        <time>2019-07-14T20:48:02Z</time>
      </trkpt>
      <trkpt lat="35.784799780" lon="-106.686665960">
        <ele>1886.000</ele>
        <time>2019-07-14T20:48:03Z</time>
      </trkpt>
      <trkpt lat="35.784950830" lon="-106.686658200">
        <ele>1886.500</ele>
        <time>2019-07-14T20:48:04Z</time>
      </trkpt>
      <trkpt lat="35.785103260" lon="-106.686674970">
        <ele>1887.300</ele>
        <time>2019-07-14T20:48:05Z</time>
      </trkpt>
      <trkpt lat="35.785249300" lon="-106.686684230">
        <ele>1890.000</ele>
        <time>2019-07-14T20:48:06Z</time>
      </trkpt>
      <trkpt lat="35.785399490" lon="-106.686769380">
        <ele>1889.800</ele>
        <time>2019-07-14T20:48:07Z</time>
      </trkpt>
      <trkpt lat="35.785539700" lon="-106.686844040">
        <ele>1890.400</ele>
        <time>2019-07-14T20:48:08Z</time>
      </trkpt>
      <trkpt lat="35.785676710" lon="-106.686936290">
        <ele>1890.900</ele>
        <time>2019-07-14T20:48:09Z</time>
      </trkpt>
      <trkpt lat="35.785803150" lon="-106.687041850">
        <ele>1891.100</ele>
        <time>2019-07-14T20:48:10Z</time>
      </trkpt>
      <trkpt lat="35.785930680" lon="-106.687160260">
        <ele>1890.400</ele>
        <time>2019-07-14T20:48:11Z</time>
      </trkpt>
      <trkpt lat="35.786055710" lon="-106.687274060">
        <ele>1890.500</ele>
        <time>2019-07-14T20:48:12Z</time>
      </trkpt>
      <trkpt lat="35.786185300" lon="-106.687387230">
        <ele>1890.200</ele>
        <time>2019-07-14T20:48:13Z</time>
      </trkpt>
      <trkpt lat="35.786306040" lon="-106.687496380">
        <ele>1891.100</ele>
        <time>2019-07-14T20:48:14Z</time>
      </trkpt>
      <trkpt lat="35.786427530" lon="-106.687604280">
        <ele>1892.100</ele>
        <time>2019-07-14T20:48:15Z</time>
      </trkpt>
      <trkpt lat="35.786558240" lon="-106.687703890">
        <ele>1893.100</ele>
        <time>2019-07-14T20:48:16Z</time>
      </trkpt>
      <trkpt lat="35.786699850" lon="-106.687794980">
        <ele>1893.800</ele>
        <time>2019-07-14T20:48:17Z</time>
      </trkpt>
      <trkpt lat="35.786844480" lon="-106.687871690">
        <ele>1894.100</ele>
        <time>2019-07-14T20:48:18Z</time>
      </trkpt>
      <trkpt lat="35.786990760" lon="-106.687935860">
        <ele>1894.400</ele>
        <time>2019-07-14T20:48:19Z</time>
      </trkpt>
      <trkpt lat="35.787138140" lon="-106.687997960">
        <ele>1896.000</ele>
        <time>2019-07-14T20:48:20Z</time>
      </trkpt>
      <trkpt lat="35.787285070" lon="-106.688039420">
        <ele>1895.600</ele>
        <time>2019-07-14T20:48:21Z</time>
      </trkpt>
      <trkpt lat="35.787434320" lon="-106.688079180">
        <ele>1896.200</ele>
        <time>2019-07-14T20:48:22Z</time>
      </trkpt>
      <trkpt lat="35.787584810" lon="-106.688107610">
        <ele>1896.800</ele>
        <time>2019-07-14T20:48:23Z</time>
      </trkpt>
      <trkpt lat="35.787737190" lon="-106.688132420">
        <ele>1897.400</ele>
        <time>2019-07-14T20:48:24Z</time>
      </trkpt>
      <trkpt lat="35.787891920" lon="-106.688158260">
        <ele>1898.300</ele>
        <time>2019-07-14T20:48:25Z</time>
      </trkpt>
      <trkpt lat="35.788051180" lon="-106.688173470">
        <ele>1898.000</ele>
        <time>2019-07-14T20:48:26Z</time>
      </trkpt>
      <trkpt lat="35.788200920" lon="-106.688170280">
        <ele>1898.600</ele>
        <time>2019-07-14T20:48:27Z</time>
      </trkpt>
      <trkpt lat="35.788360390" lon="-106.688152830">
        <ele>1899.600</ele>
        <time>2019-07-14T20:48:28Z</time>
      </trkpt>
      <trkpt lat="35.788509740" lon="-106.688113930">
        <ele>1900.600</ele>
        <time>2019-07-14T20:48:29Z</time>
      </trkpt>
      <trkpt lat="35.788648830" lon="-106.688053210">
        <ele>1900.700</ele>
        <time>2019-07-14T20:48:30Z</time>
      </trkpt>
      <trkpt lat="35.788788460" lon="-106.687965430">
        <ele>1901.100</ele>
        <time>2019-07-14T20:48:31Z</time>
      </trkpt>
      <trkpt lat="35.788936350" lon="-106.687908950">
        <ele>1902.000</ele>
        <time>2019-07-14T20:48:32Z</time>
      </trkpt>
      <trkpt lat="35.789065370" lon="-106.687807380">
        <ele>1901.900</ele>
        <time>2019-07-14T20:48:33Z</time>
      </trkpt>
      <trkpt lat="35.789189780" lon="-106.687701060">
        <ele>1901.300</ele>
        <time>2019-07-14T20:48:34Z</time>
      </trkpt>
      <trkpt lat="35.789314970" lon="-106.687585240">
        <ele>1901.200</ele>
        <time>2019-07-14T20:48:35Z</time>
      </trkpt>
      <trkpt lat="35.789441800" lon="-106.687492270">
        <ele>1902.200</ele>
        <time>2019-07-14T20:48:36Z</time>
      </trkpt>
      <trkpt lat="35.789574310" lon="-106.687417450">
        <ele>1901.600</ele>
        <time>2019-07-14T20:48:37Z</time>
      </trkpt>
      <trkpt lat="35.789699660" lon="-106.687338690">
        <ele>1901.800</ele>
        <time>2019-07-14T20:48:38Z</time>
      </trkpt>
      <trkpt lat="35.789827660" lon="-106.687258510">
        <ele>1902.500</ele>
        <time>2019-07-14T20:48:39Z</time>
      </trkpt>
      <trkpt lat="35.789956570" lon="-106.687200990">
        <ele>1902.900</ele>
        <time>2019-07-14T20:48:40Z</time>
      </trkpt>
      <trkpt lat="35.790086220" lon="-106.687148340">
        <ele>1904.400</ele>
        <time>2019-07-14T20:48:41Z</time>
      </trkpt>
      <trkpt lat="35.790204120" lon="-106.687085120">
        <ele>1904.300</ele>
        <time>2019-07-14T20:48:42Z</time>
      </trkpt>
      <trkpt lat="35.790319170" lon="-106.687033960">
        <ele>1905.700</ele>
        <time>2019-07-14T20:48:43Z</time>
      </trkpt>
      <trkpt lat="35.790436150" lon="-106.686990910">
        <ele>1906.500</ele>
        <time>2019-07-14T20:48:44Z</time>
      </trkpt>
      <trkpt lat="35.790547190" lon="-106.686938080">
        <ele>1907.000</ele>
        <time>2019-07-14T20:48:45Z</time>
      </trkpt>
      <trkpt lat="35.790655040" lon="-106.686908020">
        <ele>1908.400</ele>
        <time>2019-07-14T20:48:46Z</time>
      </trkpt>
      <trkpt lat="35.790755690" lon="-106.686875960">
        <ele>1909.200</ele>
        <time>2019-07-14T20:48:47Z</time>
      </trkpt>
      <trkpt lat="35.790846740" lon="-106.686855820">
        <ele>1909.500</ele>
        <time>2019-07-14T20:48:48Z</time>
      </trkpt>
      <trkpt lat="35.790932300" lon="-106.686833540">
        <ele>1898.700</ele>
        <time>2019-07-14T20:48:49Z</time>
      </trkpt>
      <trkpt lat="35.791008590" lon="-106.686805230">
        <ele>1899.800</ele>
        <time>2019-07-14T20:48:50Z</time>
      </trkpt>
      <trkpt lat="35.791076950" lon="-106.686769170">
        <ele>1902.600</ele>
        <time>2019-07-14T20:48:51Z</time>
      </trkpt>
      <trkpt lat="35.791151500" lon="-106.686755670">
        <ele>1904.200</ele>
        <time>2019-07-14T20:48:52Z</time>
      </trkpt>
      <trkpt lat="35.791209220" lon="-106.686717360">
        <ele>1906.100</ele>
        <time>2019-07-14T20:48:53Z</time>
      </trkpt>
      <trkpt lat="35.791260260" lon="-106.686669480">
        <ele>1907.200</ele>
        <time>2019-07-14T20:48:54Z</time>
      </trkpt>
      <trkpt lat="35.791329720" lon="-106.686671450">
        <ele>1908.300</ele>
        <time>2019-07-14T20:48:55Z</time>
      </trkpt>
      <trkpt lat="35.791385270" lon="-106.686661740">
        <ele>1908.900</ele>
        <time>2019-07-14T20:48:56Z</time>
      </trkpt>
      <trkpt lat="35.791434560" lon="-106.686651650">
        <ele>1909.900</ele>
        <time>2019-07-14T20:48:57Z</time>
      </trkpt>
      <trkpt lat="35.791482380" lon="-106.686644610">
        <ele>1910.200</ele>
        <time>2019-07-14T20:48:58Z</time>
      </trkpt>
      <trkpt lat="35.791522390" lon="-106.686630090">
        <ele>1911.100</ele>
        <time>2019-07-14T20:48:59Z</time>
      </trkpt>
      <trkpt lat="35.791558900" lon="-106.686620160">
        <ele>1912.000</ele>
        <time>2019-07-14T20:49:00Z</time>
      </trkpt>
      <trkpt lat="35.791598580" lon="-106.686613750">
        <ele>1912.400</ele>
        <time>2019-07-14T20:49:01Z</time>
      </trkpt>
      <trkpt lat="35.791634440" lon="-106.686594290">
        <ele>1911.100</ele>
        <time>2019-07-14T20:49:02Z</time>
      </trkpt>
      <trkpt lat="35.791699040" lon="-106.686579800">
        <ele>1912.000</ele>
        <time>2019-07-14T20:49:04Z</time>
      </trkpt>
      <trkpt lat="35.791763150" lon="-106.686577500">
        <ele>1913.000</ele>
        <time>2019-07-14T20:49:06Z</time>
      </trkpt>
      <trkpt lat="35.791832860" lon="-106.686580940">
        <ele>1915.200</ele>
        <time>2019-07-14T20:49:08Z</time>
      </trkpt>
      <trkpt lat="35.791898490" lon="-106.686581090">
        <ele>1915.600</ele>
        <time>2019-07-14T20:49:10Z</time>
      </trkpt>
      <trkpt lat="35.791965970" lon="-106.686588700">
        <ele>1917.400</ele>
        <time>2019-07-14T20:49:12Z</time>
      </trkpt>
      <trkpt lat="35.792032740" lon="-106.686600690">
        <ele>1918.000</ele>
        <time>2019-07-14T20:49:14Z</time>
      </trkpt>
      <trkpt lat="35.792099460" lon="-106.686615710">
        <ele>1917.600</ele>
        <time>2019-07-14T20:49:16Z</time>
      </trkpt>
      <trkpt lat="35.792158090" lon="-106.686635680">
        <ele>1920.200</ele>
        <time>2019-07-14T20:49:18Z</time>
      </trkpt>
      <trkpt lat="35.792217010" lon="-106.686660600">
        <ele>1919.600</ele>
        <time>2019-07-14T20:49:20Z</time>
      </trkpt>
      <trkpt lat="35.792279690" lon="-106.686690170">
        <ele>1920.900</ele>
        <time>2019-07-14T20:49:22Z</time>
      </trkpt>
      <trkpt lat="35.792343380" lon="-106.686724560">
        <ele>1921.800</ele>
        <time>2019-07-14T20:49:24Z</time>
      </trkpt>
      <trkpt lat="35.792378770" lon="-106.686742470">
        <ele>1922.100</ele>
        <time>2019-07-14T20:49:25Z</time>
      </trkpt>
      <trkpt lat="35.792417660" lon="-106.686763990">
        <ele>1922.600</ele>
        <time>2019-07-14T20:49:26Z</time>
      </trkpt>
      <trkpt lat="35.792458780" lon="-106.686784880">
        <ele>1922.800</ele>
        <time>2019-07-14T20:49:27Z</time>
      </trkpt>
      <trkpt lat="35.792511880" lon="-106.686793540">
        <ele>1922.300</ele>
        <time>2019-07-14T20:49:28Z</time>
      </trkpt>
      <trkpt lat="35.792550670" lon="-106.686840480">
        <ele>1920.800</ele>
        <time>2019-07-14T20:49:29Z</time>
      </trkpt>
      <trkpt lat="35.792592410" lon="-106.686881890">
        <ele>1919.400</ele>
        <time>2019-07-14T20:49:30Z</time>
      </trkpt>
      <trkpt lat="35.792638840" lon="-106.686913680">
        <ele>1919.300</ele>
        <time>2019-07-14T20:49:31Z</time>
      </trkpt>
      <trkpt lat="35.792679870" lon="-106.686938090">
        <ele>1918.700</ele>
        <time>2019-07-14T20:49:32Z</time>
      </trkpt>
      <trkpt lat="35.792734830" lon="-106.686973170">
        <ele>1917.900</ele>
        <time>2019-07-14T20:49:33Z</time>
      </trkpt>
      <trkpt lat="35.792789820" lon="-106.687008270">
        <ele>1918.600</ele>
        <time>2019-07-14T20:49:34Z</time>
      </trkpt>
      <trkpt lat="35.792851690" lon="-106.687038530">
        <ele>1917.600</ele>
        <time>2019-07-14T20:49:35Z</time>
      </trkpt>
      <trkpt lat="35.792913290" lon="-106.687073400">
        <ele>1918.600</ele>
        <time>2019-07-14T20:49:36Z</time>
      </trkpt>
      <trkpt lat="35.792971750" lon="-106.687099230">
        <ele>1918.500</ele>
        <time>2019-07-14T20:49:37Z</time>
      </trkpt>
      <trkpt lat="35.793037470" lon="-106.687129000">
        <ele>1918.800</ele>
        <time>2019-07-14T20:49:38Z</time>
      </trkpt>
      <trkpt lat="35.793110050" lon="-106.687161050">
        <ele>1918.800</ele>
        <time>2019-07-14T20:49:39Z</time>
      </trkpt>
      <trkpt lat="35.793189630" lon="-106.687192760">
        <ele>1918.300</ele>
        <time>2019-07-14T20:49:40Z</time>
      </trkpt>
      <trkpt lat="35.793274110" lon="-106.687211240">
        <ele>1919.600</ele>
        <time>2019-07-14T20:49:41Z</time>
      </trkpt>
      <trkpt lat="35.793363100" lon="-106.687248860">
        <ele>1920.400</ele>
        <time>2019-07-14T20:49:42Z</time>
      </trkpt>
      <trkpt lat="35.793451370" lon="-106.687276420">
        <ele>1922.000</ele>
        <time>2019-07-14T20:49:43Z</time>
      </trkpt>
      <trkpt lat="35.793547210" lon="-106.687297190">
        <ele>1923.000</ele>
        <time>2019-07-14T20:49:44Z</time>
      </trkpt>
      <trkpt lat="35.793645240" lon="-106.687300000">
        <ele>1921.800</ele>
        <time>2019-07-14T20:49:45Z</time>
      </trkpt>
      <trkpt lat="35.793748370" lon="-106.687312330">
        <ele>1922.100</ele>
        <time>2019-07-14T20:49:46Z</time>
      </trkpt>
      <trkpt lat="35.793850320" lon="-106.687306630">
        <ele>1921.800</ele>
        <time>2019-07-14T20:49:47Z</time>
      </trkpt>
      <trkpt lat="35.793960810" lon="-106.687302190">
        <ele>1922.800</ele>
        <time>2019-07-14T20:49:48Z</time>
      </trkpt>
      <trkpt lat="35.794062200" lon="-106.687298270">
        <ele>1922.900</ele>
        <time>2019-07-14T20:49:49Z</time>
      </trkpt>
      <trkpt lat="35.794175370" lon="-106.687278160">
        <ele>1922.800</ele>
        <time>2019-07-14T20:49:50Z</time>
      </trkpt>
      <trkpt lat="35.794289670" lon="-106.687253180">
        <ele>1924.300</ele>
        <time>2019-07-14T20:49:51Z</time>
      </trkpt>
      <trkpt lat="35.794413240" lon="-106.687214540">
        <ele>1923.900</ele>
        <time>2019-07-14T20:49:52Z</time>
      </trkpt>
      <trkpt lat="35.794542490" lon="-106.687184230">
        <ele>1924.900</ele>
        <time>2019-07-14T20:49:53Z</time>
      </trkpt>
      <trkpt lat="35.794672000" lon="-106.687117190">
        <ele>1925.700</ele>
        <time>2019-07-14T20:49:54Z</time>
      </trkpt>
      <trkpt lat="35.794804850" lon="-106.687045090">
        <ele>1924.500</ele>
        <time>2019-07-14T20:49:55Z</time>
      </trkpt>
      <trkpt lat="35.794942760" lon="-106.686984170">
        <ele>1924.800</ele>
        <time>2019-07-14T20:49:56Z</time>
      </trkpt>
      <trkpt lat="35.795091050" lon="-106.686913410">
        <ele>1925.000</ele>
        <time>2019-07-14T20:49:57Z</time>
      </trkpt>
      <trkpt lat="35.795245170" lon="-106.686840410">
        <ele>1924.300</ele>
        <time>2019-07-14T20:49:58Z</time>
      </trkpt>
      <trkpt lat="35.795391860" lon="-106.686751200">
        <ele>1925.700</ele>
        <time>2019-07-14T20:49:59Z</time>
      </trkpt>
      <trkpt lat="35.795548120" lon="-106.686657350">
        <ele>1925.900</ele>
        <time>2019-07-14T20:50:00Z</time>
      </trkpt>
      <trkpt lat="35.795706720" lon="-106.686573670">
        <ele>1926.100</ele>
        <time>2019-07-14T20:50:01Z</time>
      </trkpt>
      <trkpt lat="35.795886270" lon="-106.686469790">
        <ele>1925.300</ele>
        <time>2019-07-14T20:50:02Z</time>
      </trkpt>
      <trkpt lat="35.796058670" lon="-106.686400330">
        <ele>1925.900</ele>
        <time>2019-07-14T20:50:03Z</time>
      </trkpt>
      <trkpt lat="35.796212030" lon="-106.686321990">
        <ele>1926.200</ele>
        <time>2019-07-14T20:50:04Z</time>
      </trkpt>
      <trkpt lat="35.796371910" lon="-106.686243800">
        <ele>1926.700</ele>
        <time>2019-07-14T20:50:05Z</time>
      </trkpt>
      <trkpt lat="35.796529540" lon="-106.686172880">
        <ele>1927.700</ele>
        <time>2019-07-14T20:50:06Z</time>
      </trkpt>
      <trkpt lat="35.796693580" lon="-106.686109740">
        <ele>1928.600</ele>
        <time>2019-07-14T20:50:07Z</time>
      </trkpt>
      <trkpt lat="35.796854280" lon="-106.686041870">
        <ele>1929.200</ele>
        <time>2019-07-14T20:50:08Z</time>
      </trkpt>
      <trkpt lat="35.797011430" lon="-106.685973250">
        <ele>1929.700</ele>
        <time>2019-07-14T20:50:09Z</time>
      </trkpt>
      <trkpt lat="35.797175790" lon="-106.685916600">
        <ele>1930.200</ele>
        <time>2019-07-14T20:50:10Z</time>
      </trkpt>
      <trkpt lat="35.797350410" lon="-106.685882700">
        <ele>1929.900</ele>
        <time>2019-07-14T20:50:11Z</time>
      </trkpt>
      <trkpt lat="35.797511920" lon="-106.685824800">
        <ele>1930.500</ele>
        <time>2019-07-14T20:50:12Z</time>
      </trkpt>
      <trkpt lat="35.797691520" lon="-106.685783250">
        <ele>1932.500</ele>
        <time>2019-07-14T20:50:13Z</time>
      </trkpt>
      <trkpt lat="35.797852470" lon="-106.685715480">
        <ele>1932.900</ele>
        <time>2019-07-14T20:50:14Z</time>
      </trkpt>
      <trkpt lat="35.797993980" lon="-106.685620320">
        <ele>1931.800</ele>
        <time>2019-07-14T20:50:15Z</time>
      </trkpt>
      <trkpt lat="35.798206000" lon="-106.685600420">
        <ele>1931.700</ele>
        <time>2019-07-14T20:50:16Z</time>
      </trkpt>
      <trkpt lat="35.798378290" lon="-106.685558760">
        <ele>1931.300</ele>
        <time>2019-07-14T20:50:17Z</time>
      </trkpt>
      <trkpt lat="35.798578930" lon="-106.685546060">
        <ele>1930.400</ele>
        <time>2019-07-14T20:50:18Z</time>
      </trkpt>
      <trkpt lat="35.798788660" lon="-106.685584810">
        <ele>1929.800</ele>
        <time>2019-07-14T20:50:19Z</time>
      </trkpt>
      <trkpt lat="35.798934630" lon="-106.685440870">
        <ele>1931.100</ele>
        <time>2019-07-14T20:50:20Z</time>
      </trkpt>
      <trkpt lat="35.799083190" lon="-106.685320260">
        <ele>1931.200</ele>
        <time>2019-07-14T20:50:21Z</time>
      </trkpt>
      <trkpt lat="35.799259400" lon="-106.685264070">
        <ele>1931.000</ele>
        <time>2019-07-14T20:50:22Z</time>
      </trkpt>
      <trkpt lat="35.799429560" lon="-106.685178940">
        <ele>1931.600</ele>
        <time>2019-07-14T20:50:23Z</time>
      </trkpt>
      <trkpt lat="35.799602410" lon="-106.685116680">
        <ele>1932.000</ele>
        <time>2019-07-14T20:50:24Z</time>
      </trkpt>
      <trkpt lat="35.799729040" lon="-106.684917200">
        <ele>1935.500</ele>
        <time>2019-07-14T20:50:25Z</time>
      </trkpt>
      <trkpt lat="35.799886080" lon="-106.684845620">
        <ele>1935.000</ele>
        <time>2019-07-14T20:50:26Z</time>
      </trkpt>
      <trkpt lat="35.800037180" lon="-106.684709290">
        <ele>1937.600</ele>
        <time>2019-07-14T20:50:27Z</time>
      </trkpt>
      <trkpt lat="35.800194320" lon="-106.684591740">
        <ele>1937.900</ele>
        <time>2019-07-14T20:50:28Z</time>
      </trkpt>
      <trkpt lat="35.800333960" lon="-106.684475980">
        <ele>1939.700</ele>
        <time>2019-07-14T20:50:29Z</time>
      </trkpt>
      <trkpt lat="35.800478850" lon="-106.684341380">
        <ele>1937.400</ele>
        <time>2019-07-14T20:50:30Z</time>
      </trkpt>
      <trkpt lat="35.800618850" lon="-106.684219770">
        <ele>1938.500</ele>
        <time>2019-07-14T20:50:31Z</time>
      </trkpt>
      <trkpt lat="35.800760070" lon="-106.684085440">
        <ele>1940.000</ele>
        <time>2019-07-14T20:50:32Z</time>
      </trkpt>
      <trkpt lat="35.800903910" lon="-106.683943340">
        <ele>1940.500</ele>
        <time>2019-07-14T20:50:33Z</time>
      </trkpt>
      <trkpt lat="35.801048940" lon="-106.683804850">
        <ele>1940.200</ele>
        <time>2019-07-14T20:50:34Z</time>
      </trkpt>
      <trkpt lat="35.801185830" lon="-106.683654480">
        <ele>1940.800</ele>
        <time>2019-07-14T20:50:35Z</time>
      </trkpt>
      <trkpt lat="35.801318680" lon="-106.683491490">
        <ele>1941.800</ele>
        <time>2019-07-14T20:50:36Z</time>
      </trkpt>
      <trkpt lat="35.801431470" lon="-106.683315130">
        <ele>1942.200</ele>
        <time>2019-07-14T20:50:37Z</time>
      </trkpt>
      <trkpt lat="35.801532480" lon="-106.683136550">
        <ele>1942.400</ele>
        <time>2019-07-14T20:50:38Z</time>
      </trkpt>
      <trkpt lat="35.801610970" lon="-106.682944180">
        <ele>1941.000</ele>
        <time>2019-07-14T20:50:39Z</time>
      </trkpt>
      <trkpt lat="35.801691530" lon="-106.682742040">
        <ele>1942.700</ele>
        <time>2019-07-14T20:50:40Z</time>
      </trkpt>
      <trkpt lat="35.801768420" lon="-106.682541160">
        <ele>1942.800</ele>
        <time>2019-07-14T20:50:41Z</time>
      </trkpt>
      <trkpt lat="35.801853510" lon="-106.682348590">
        <ele>1943.200</ele>
        <time>2019-07-14T20:50:42Z</time>
      </trkpt>
      <trkpt lat="35.801943150" lon="-106.682166900">
        <ele>1943.600</ele>
        <time>2019-07-14T20:50:43Z</time>
      </trkpt>
      <trkpt lat="35.802032290" lon="-106.681981180">
        <ele>1944.400</ele>
        <time>2019-07-14T20:50:44Z</time>
      </trkpt>
      <trkpt lat="35.802121530" lon="-106.681803430">
        <ele>1943.900</ele>
        <time>2019-07-14T20:50:45Z</time>
      </trkpt>
      <trkpt lat="35.802211730" lon="-106.681623900">
        <ele>1944.300</ele>
        <time>2019-07-14T20:50:46Z</time>
      </trkpt>
      <trkpt lat="35.802307580" lon="-106.681456940">
        <ele>1944.800</ele>
        <time>2019-07-14T20:50:47Z</time>
      </trkpt>
      <trkpt lat="35.802408020" lon="-106.681294000">
        <ele>1946.100</ele>
        <time>2019-07-14T20:50:48Z</time>
      </trkpt>
      <trkpt lat="35.802534630" lon="-106.681155690">
        <ele>1947.000</ele>
        <time>2019-07-14T20:50:49Z</time>
      </trkpt>
      <trkpt lat="35.802659520" lon="-106.681019570">
        <ele>1946.500</ele>
        <time>2019-07-14T20:50:50Z</time>
      </trkpt>
      <trkpt lat="35.802794440" lon="-106.680910790">
        <ele>1948.400</ele>
        <time>2019-07-14T20:50:51Z</time>
      </trkpt>
      <trkpt lat="35.802937950" lon="-106.680813280">
        <ele>1951.000</ele>
        <time>2019-07-14T20:50:52Z</time>
      </trkpt>
      <trkpt lat="35.803080050" lon="-106.680717680">
        <ele>1951.100</ele>
        <time>2019-07-14T20:50:53Z</time>
      </trkpt>
      <trkpt lat="35.803236280" lon="-106.680652620">
        <ele>1950.900</ele>
        <time>2019-07-14T20:50:54Z</time>
      </trkpt>
      <trkpt lat="35.803395210" lon="-106.680607170">
        <ele>1951.000</ele>
        <time>2019-07-14T20:50:55Z</time>
      </trkpt>
      <trkpt lat="35.803563450" lon="-106.680582120">
        <ele>1951.200</ele>
        <time>2019-07-14T20:50:56Z</time>
      </trkpt>
      <trkpt lat="35.803729050" lon="-106.680544800">
        <ele>1951.700</ele>
        <time>2019-07-14T20:50:57Z</time>
      </trkpt>
      <trkpt lat="35.803901470" lon="-106.680506190">
        <ele>1951.600</ele>
        <time>2019-07-14T20:50:58Z</time>
      </trkpt>
      <trkpt lat="35.804055560" lon="-106.680451880">
        <ele>1951.500</ele>
        <time>2019-07-14T20:50:59Z</time>
      </trkpt>
      <trkpt lat="35.804211430" lon="-106.680365130">
        <ele>1951.800</ele>
        <time>2019-07-14T20:51:00Z</time>
      </trkpt>
      <trkpt lat="35.804327910" lon="-106.680204960">
        <ele>1950.800</ele>
        <time>2019-07-14T20:51:01Z</time>
      </trkpt>
      <trkpt lat="35.804476360" lon="-106.680120100">
        <ele>1950.600</ele>
        <time>2019-07-14T20:51:02Z</time>
      </trkpt>
      <trkpt lat="35.804615370" lon="-106.679998810">
        <ele>1951.900</ele>
        <time>2019-07-14T20:51:03Z</time>
      </trkpt>
      <trkpt lat="35.804750400" lon="-106.679882270">
        <ele>1952.500</ele>
        <time>2019-07-14T20:51:04Z</time>
      </trkpt>
      <trkpt lat="35.804884510" lon="-106.679756950">
        <ele>1953.200</ele>
        <time>2019-07-14T20:51:05Z</time>
      </trkpt>
      <trkpt lat="35.805017720" lon="-106.679627290">
        <ele>1954.200</ele>
        <time>2019-07-14T20:51:06Z</time>
      </trkpt>
      <trkpt lat="35.805143100" lon="-106.679494470">
        <ele>1953.900</ele>
        <time>2019-07-14T20:51:07Z</time>
      </trkpt>
      <trkpt lat="35.805285490" lon="-106.679380710">
        <ele>1954.400</ele>
        <time>2019-07-14T20:51:08Z</time>
      </trkpt>
      <trkpt lat="35.805434570" lon="-106.679286900">
        <ele>1955.200</ele>
        <time>2019-07-14T20:51:09Z</time>
      </trkpt>
      <trkpt lat="35.805583910" lon="-106.679202260">
        <ele>1957.200</ele>
        <time>2019-07-14T20:51:10Z</time>
      </trkpt>
      <trkpt lat="35.805742280" lon="-106.679131400">
        <ele>1957.900</ele>
        <time>2019-07-14T20:51:11Z</time>
      </trkpt>
      <trkpt lat="35.805899960" lon="-106.679061250">
        <ele>1958.600</ele>
        <time>2019-07-14T20:51:12Z</time>
      </trkpt>
      <trkpt lat="35.806073160" lon="-106.679023620">
        <ele>1959.600</ele>
        <time>2019-07-14T20:51:13Z</time>
      </trkpt>
      <trkpt lat="35.806235130" lon="-106.678957790">
        <ele>1960.600</ele>
        <time>2019-07-14T20:51:14Z</time>
      </trkpt>
      <trkpt lat="35.806399330" lon="-106.678890120">
        <ele>1959.700</ele>
        <time>2019-07-14T20:51:15Z</time>
      </trkpt>
      <trkpt lat="35.806522990" lon="-106.678752300">
        <ele>1959.800</ele>
        <time>2019-07-14T20:51:16Z</time>
      </trkpt>
      <trkpt lat="35.806654270" lon="-106.678637350">
        <ele>1959.900</ele>
        <time>2019-07-14T20:51:17Z</time>
      </trkpt>
      <trkpt lat="35.806786550" lon="-106.678512290">
        <ele>1960.300</ele>
        <time>2019-07-14T20:51:18Z</time>
      </trkpt>
      <trkpt lat="35.806892260" lon="-106.678371090">
        <ele>1959.700</ele>
        <time>2019-07-14T20:51:19Z</time>
      </trkpt>
      <trkpt lat="35.806947830" lon="-106.678174660">
        <ele>1962.400</ele>
        <time>2019-07-14T20:51:20Z</time>
      </trkpt>
      <trkpt lat="35.807033670" lon="-106.678021160">
        <ele>1962.100</ele>
        <time>2019-07-14T20:51:21Z</time>
      </trkpt>
      <trkpt lat="35.807111500" lon="-106.677844650">
        <ele>1963.700</ele>
        <time>2019-07-14T20:51:22Z</time>
      </trkpt>
      <trkpt lat="35.807186040" lon="-106.677670550">
        <ele>1964.700</ele>
        <time>2019-07-14T20:51:23Z</time>
      </trkpt>
      <trkpt lat="35.807263480" lon="-106.677494110">
        <ele>1964.600</ele>
        <time>2019-07-14T20:51:24Z</time>
      </trkpt>
      <trkpt lat="35.807353790" lon="-106.677331370">
        <ele>1964.300</ele>
        <time>2019-07-14T20:51:25Z</time>
      </trkpt>
      <trkpt lat="35.807428310" lon="-106.677147200">
        <ele>1962.200</ele>
        <time>2019-07-14T20:51:26Z</time>
      </trkpt>
      <trkpt lat="35.807511890" lon="-106.676981350">
        <ele>1962.000</ele>
        <time>2019-07-14T20:51:27Z</time>
      </trkpt>
      <trkpt lat="35.807595820" lon="-106.676807860">
        <ele>1962.700</ele>
        <time>2019-07-14T20:51:28Z</time>
      </trkpt>
      <trkpt lat="35.807685750" lon="-106.676635810">
        <ele>1963.400</ele>
        <time>2019-07-14T20:51:29Z</time>
      </trkpt>
      <trkpt lat="35.807786790" lon="-106.676490180">
        <ele>1963.700</ele>
        <time>2019-07-14T20:51:30Z</time>
      </trkpt>
      <trkpt lat="35.807898740" lon="-106.676362560">
        <ele>1964.300</ele>
        <time>2019-07-14T20:51:31Z</time>
      </trkpt>
      <trkpt lat="35.808004100" lon="-106.676203190">
        <ele>1963.100</ele>
        <time>2019-07-14T20:51:32Z</time>
      </trkpt>
      <trkpt lat="35.808112870" lon="-106.676061660">
        <ele>1961.900</ele>
        <time>2019-07-14T20:51:33Z</time>
      </trkpt>
      <trkpt lat="35.808212210" lon="-106.675921580">
        <ele>1962.100</ele>
        <time>2019-07-14T20:51:34Z</time>
      </trkpt>
      <trkpt lat="35.808326030" lon="-106.675773550">
        <ele>1962.600</ele>
        <time>2019-07-14T20:51:35Z</time>
      </trkpt>
      <trkpt lat="35.808420460" lon="-106.675616020">
        <ele>1963.700</ele>
        <time>2019-07-14T20:51:36Z</time>
      </trkpt>
      <trkpt lat="35.808519880" lon="-106.675465680">
        <ele>1964.100</ele>
        <time>2019-07-14T20:51:37Z</time>
      </trkpt>
      <trkpt lat="35.808604470" lon="-106.675309700">
        <ele>1964.300</ele>
        <time>2019-07-14T20:51:38Z</time>
      </trkpt>
      <trkpt lat="35.808689200" lon="-106.675150420">
        <ele>1964.500</ele>
        <time>2019-07-14T20:51:39Z</time>
      </trkpt>
      <trkpt lat="35.808767010" lon="-106.674985270">
        <ele>1964.800</ele>
        <time>2019-07-14T20:51:40Z</time>
      </trkpt>
      <trkpt lat="35.808841870" lon="-106.674809220">
        <ele>1964.400</ele>
        <time>2019-07-14T20:51:41Z</time>
      </trkpt>
      <trkpt lat="35.808925470" lon="-106.674650310">
        <ele>1965.000</ele>
        <time>2019-07-14T20:51:42Z</time>
      </trkpt>
      <trkpt lat="35.809013990" lon="-106.674490830">
        <ele>1964.800</ele>
        <time>2019-07-14T20:51:43Z</time>
      </trkpt>
      <trkpt lat="35.809105020" lon="-106.674329030">
        <ele>1966.600</ele>
        <time>2019-07-14T20:51:44Z</time>
      </trkpt>
      <trkpt lat="35.809205530" lon="-106.674192510">
        <ele>1965.900</ele>
        <time>2019-07-14T20:51:45Z</time>
      </trkpt>
      <trkpt lat="35.809297780" lon="-106.674021210">
        <ele>1966.500</ele>
        <time>2019-07-14T20:51:46Z</time>
      </trkpt>
      <trkpt lat="35.809387860" lon="-106.673842230">
        <ele>1966.100</ele>
        <time>2019-07-14T20:51:47Z</time>
      </trkpt>
      <trkpt lat="35.809511830" lon="-106.673678840">
        <ele>1967.400</ele>
        <time>2019-07-14T20:51:48Z</time>
      </trkpt>
      <trkpt lat="35.809624660" lon="-106.673515610">
        <ele>1968.200</ele>
        <time>2019-07-14T20:51:49Z</time>
      </trkpt>
      <trkpt lat="35.809756970" lon="-106.673353360">
        <ele>1968.700</ele>
        <time>2019-07-14T20:51:50Z</time>
      </trkpt>
      <trkpt lat="35.809888150" lon="-106.673209760">
        <ele>1968.700</ele>
        <time>2019-07-14T20:51:51Z</time>
      </trkpt>
      <trkpt lat="35.810029180" lon="-106.673068550">
        <ele>1969.100</ele>
        <time>2019-07-14T20:51:52Z</time>
      </trkpt>
      <trkpt lat="35.810179660" lon="-106.672950400">
        <ele>1969.000</ele>
        <time>2019-07-14T20:51:53Z</time>
      </trkpt>
      <trkpt lat="35.810342470" lon="-106.672843430">
        <ele>1969.500</ele>
        <time>2019-07-14T20:51:54Z</time>
      </trkpt>
      <trkpt lat="35.810507220" lon="-106.672758310">
        <ele>1970.200</ele>
        <time>2019-07-14T20:51:55Z</time>
      </trkpt>
      <trkpt lat="35.810672130" lon="-106.672668860">
        <ele>1970.600</ele>
        <time>2019-07-14T20:51:56Z</time>
      </trkpt>
      <trkpt lat="35.810840430" lon="-106.672579460">
        <ele>1971.500</ele>
        <time>2019-07-14T20:51:57Z</time>
      </trkpt>
      <trkpt lat="35.811007710" lon="-106.672486090">
        <ele>1972.200</ele>
        <time>2019-07-14T20:51:58Z</time>
      </trkpt>
      <trkpt lat="35.811175870" lon="-106.672394180">
        <ele>1973.200</ele>
        <time>2019-07-14T20:51:59Z</time>
      </trkpt>
      <trkpt lat="35.811341870" lon="-106.672303450">
        <ele>1973.700</ele>
        <time>2019-07-14T20:52:00Z</time>
      </trkpt>
      <trkpt lat="35.811524540" lon="-106.672204610">
        <ele>1973.100</ele>
        <time>2019-07-14T20:52:01Z</time>
      </trkpt>
      <trkpt lat="35.811700370" lon="-106.672105020">
        <ele>1973.200</ele>
        <time>2019-07-14T20:52:02Z</time>
      </trkpt>
      <trkpt lat="35.811868580" lon="-106.671993240">
        <ele>1971.700</ele>
        <time>2019-07-14T20:52:03Z</time>
      </trkpt>
      <trkpt lat="35.812022090" lon="-106.671869150">
        <ele>1971.100</ele>
        <time>2019-07-14T20:52:04Z</time>
      </trkpt>
      <trkpt lat="35.812147930" lon="-106.671704550">
        <ele>1970.000</ele>
        <time>2019-07-14T20:52:05Z</time>
      </trkpt>
      <trkpt lat="35.812272690" lon="-106.671533580">
        <ele>1971.800</ele>
        <time>2019-07-14T20:52:06Z</time>
      </trkpt>
      <trkpt lat="35.812393860" lon="-106.671348830">
        <ele>1973.500</ele>
        <time>2019-07-14T20:52:07Z</time>
      </trkpt>
      <trkpt lat="35.812516100" lon="-106.671169010">
        <ele>1974.900</ele>
        <time>2019-07-14T20:52:08Z</time>
      </trkpt>
      <trkpt lat="35.812639770" lon="-106.670996770">
        <ele>1974.000</ele>
        <time>2019-07-14T20:52:09Z</time>
      </trkpt>
      <trkpt lat="35.812757480" lon="-106.670803160">
        <ele>1975.200</ele>
        <time>2019-07-14T20:52:10Z</time>
      </trkpt>
      <trkpt lat="35.812879570" lon="-106.670625310">
        <ele>1975.300</ele>
        <time>2019-07-14T20:52:11Z</time>
      </trkpt>
      <trkpt lat="35.813003840" lon="-106.670438970">
        <ele>1976.300</ele>
        <time>2019-07-14T20:52:12Z</time>
      </trkpt>
      <trkpt lat="35.813132870" lon="-106.670254940">
        <ele>1977.300</ele>
        <time>2019-07-14T20:52:13Z</time>
      </trkpt>
      <trkpt lat="35.813259170" lon="-106.670069150">
        <ele>1978.300</ele>
        <time>2019-07-14T20:52:14Z</time>
      </trkpt>
      <trkpt lat="35.813383480" lon="-106.669884650">
        <ele>1978.900</ele>
        <time>2019-07-14T20:52:15Z</time>
      </trkpt>
      <trkpt lat="35.813531730" lon="-106.669743060">
        <ele>1979.500</ele>
        <time>2019-07-14T20:52:16Z</time>
      </trkpt>
      <trkpt lat="35.813673070" lon="-106.669579210">
        <ele>1979.200</ele>
        <time>2019-07-14T20:52:17Z</time>
      </trkpt>
      <trkpt lat="35.813808360" lon="-106.669418380">
        <ele>1978.100</ele>
        <time>2019-07-14T20:52:18Z</time>
      </trkpt>
      <trkpt lat="35.813959130" lon="-106.669286910">
        <ele>1977.600</ele>
        <time>2019-07-14T20:52:19Z</time>
      </trkpt>
      <trkpt lat="35.814114070" lon="-106.669156650">
        <ele>1978.800</ele>
        <time>2019-07-14T20:52:20Z</time>
      </trkpt>
      <trkpt lat="35.814273540" lon="-106.669054640">
        <ele>1978.800</ele>
        <time>2019-07-14T20:52:21Z</time>
      </trkpt>
      <trkpt lat="35.814430870" lon="-106.668938480">
        <ele>1979.300</ele>
        <time>2019-07-14T20:52:22Z</time>
      </trkpt>
      <trkpt lat="35.814595680" lon="-106.668833800">
        <ele>1979.100</ele>
        <time>2019-07-14T20:52:23Z</time>
      </trkpt>
      <trkpt lat="35.814757790" lon="-106.668709090">
        <ele>1976.900</ele>
        <time>2019-07-14T20:52:24Z</time>
      </trkpt>
      <trkpt lat="35.814913660" lon="-106.668590520">
        <ele>1977.000</ele>
        <time>2019-07-14T20:52:25Z</time>
      </trkpt>
      <trkpt lat="35.815069210" lon="-106.668468360">
        <ele>1978.800</ele>
        <time>2019-07-14T20:52:26Z</time>
      </trkpt>
      <trkpt lat="35.815238190" lon="-106.668369390">
        <ele>1978.100</ele>
        <time>2019-07-14T20:52:27Z</time>
      </trkpt>
      <trkpt lat="35.815404310" lon="-106.668268730">
        <ele>1980.800</ele>
        <time>2019-07-14T20:52:28Z</time>
      </trkpt>
      <trkpt lat="35.815572450" lon="-106.668181130">
        <ele>1981.200</ele>
        <time>2019-07-14T20:52:29Z</time>
      </trkpt>
      <trkpt lat="35.815752550" lon="-106.668105080">
        <ele>1981.500</ele>
        <time>2019-07-14T20:52:30Z</time>
      </trkpt>
      <trkpt lat="35.815941420" lon="-106.668049940">
        <ele>1982.200</ele>
        <time>2019-07-14T20:52:31Z</time>
      </trkpt>
      <trkpt lat="35.816127420" lon="-106.667997840">
        <ele>1982.800</ele>
        <time>2019-07-14T20:52:32Z</time>
      </trkpt>
      <trkpt lat="35.816308680" lon="-106.667930940">
        <ele>1983.100</ele>
        <time>2019-07-14T20:52:33Z</time>
      </trkpt>
      <trkpt lat="35.816491720" lon="-106.667870510">
        <ele>1984.000</ele>
        <time>2019-07-14T20:52:34Z</time>
      </trkpt>
      <trkpt lat="35.816678980" lon="-106.667822880">
        <ele>1983.700</ele>
        <time>2019-07-14T20:52:35Z</time>
      </trkpt>
      <trkpt lat="35.816862390" lon="-106.667772650">
        <ele>1984.000</ele>
        <time>2019-07-14T20:52:36Z</time>
      </trkpt>
      <trkpt lat="35.817040260" lon="-106.667718280">
        <ele>1984.500</ele>
        <time>2019-07-14T20:52:37Z</time>
      </trkpt>
      <trkpt lat="35.817222470" lon="-106.667650740">
        <ele>1985.700</ele>
        <time>2019-07-14T20:52:38Z</time>
      </trkpt>
      <trkpt lat="35.817406630" lon="-106.667608220">
        <ele>1986.100</ele>
        <time>2019-07-14T20:52:39Z</time>
      </trkpt>
      <trkpt lat="35.817589150" lon="-106.667547540">
        <ele>1987.300</ele>
        <time>2019-07-14T20:52:40Z</time>
      </trkpt>
      <trkpt lat="35.817773050" lon="-106.667479770">
        <ele>1988.200</ele>
        <time>2019-07-14T20:52:41Z</time>
      </trkpt>
      <trkpt lat="35.817943850" lon="-106.667408180">
        <ele>1990.300</ele>
        <time>2019-07-14T20:52:42Z</time>
      </trkpt>
      <trkpt lat="35.818120610" lon="-106.667330970">
        <ele>1989.300</ele>
        <time>2019-07-14T20:52:43Z</time>
      </trkpt>
      <trkpt lat="35.818284830" lon="-106.667213720">
        <ele>1988.200</ele>
        <time>2019-07-14T20:52:44Z</time>
      </trkpt>
      <trkpt lat="35.818435500" lon="-106.667090380">
        <ele>1990.000</ele>
        <time>2019-07-14T20:52:45Z</time>
      </trkpt>
      <trkpt lat="35.818590440" lon="-106.666969460">
        <ele>1990.500</ele>
        <time>2019-07-14T20:52:46Z</time>
      </trkpt>
      <trkpt lat="35.818673570" lon="-106.666736630">
        <ele>1992.100</ele>
        <time>2019-07-14T20:52:47Z</time>
      </trkpt>
      <trkpt lat="35.818790700" lon="-106.666576130">
        <ele>1992.600</ele>
        <time>2019-07-14T20:52:48Z</time>
      </trkpt>
      <trkpt lat="35.818892200" lon="-106.666381140">
        <ele>1989.900</ele>
        <time>2019-07-14T20:52:49Z</time>
      </trkpt>
      <trkpt lat="35.818996320" lon="-106.666187990">
        <ele>1990.100</ele>
        <time>2019-07-14T20:52:50Z</time>
      </trkpt>
      <trkpt lat="35.819105900" lon="-106.666005650">
        <ele>1990.200</ele>
        <time>2019-07-14T20:52:51Z</time>
      </trkpt>
      <trkpt lat="35.819221120" lon="-106.665818700">
        <ele>1988.900</ele>
        <time>2019-07-14T20:52:52Z</time>
      </trkpt>
      <trkpt lat="35.819346480" lon="-106.665642790">
        <ele>1990.300</ele>
        <time>2019-07-14T20:52:53Z</time>
      </trkpt>
      <trkpt lat="35.819474310" lon="-106.665460620">
        <ele>1990.800</ele>
        <time>2019-07-14T20:52:54Z</time>
      </trkpt>
      <trkpt lat="35.819633070" lon="-106.665314780">
        <ele>1990.600</ele>
        <time>2019-07-14T20:52:55Z</time>
      </trkpt>
      <trkpt lat="35.819779950" lon="-106.665183020">
        <ele>1989.800</ele>
        <time>2019-07-14T20:52:56Z</time>
      </trkpt>
      <trkpt lat="35.819937510" lon="-106.665032870">
        <ele>1989.400</ele>
        <time>2019-07-14T20:52:57Z</time>
      </trkpt>
      <trkpt lat="35.820078680" lon="-106.664871010">
        <ele>1989.500</ele>
        <time>2019-07-14T20:52:58Z</time>
      </trkpt>
      <trkpt lat="35.820204910" lon="-106.664695900">
        <ele>1990.300</ele>
        <time>2019-07-14T20:52:59Z</time>
      </trkpt>
      <trkpt lat="35.820326910" lon="-106.664516640">
        <ele>1992.500</ele>
        <time>2019-07-14T20:53:00Z</time>
      </trkpt>
      <trkpt lat="35.820443570" lon="-106.664341610">
        <ele>1993.000</ele>
        <time>2019-07-14T20:53:01Z</time>
      </trkpt>
      <trkpt lat="35.820556190" lon="-106.664166230">
        <ele>1992.800</ele>
        <time>2019-07-14T20:53:02Z</time>
      </trkpt>
      <trkpt lat="35.820678420" lon="-106.664008730">
        <ele>1992.900</ele>
        <time>2019-07-14T20:53:03Z</time>
      </trkpt>
      <trkpt lat="35.820805400" lon="-106.663850140">
        <ele>1994.000</ele>
        <time>2019-07-14T20:53:04Z</time>
      </trkpt>
      <trkpt lat="35.820949430" lon="-106.663719390">
        <ele>1994.400</ele>
        <time>2019-07-14T20:53:05Z</time>
      </trkpt>
      <trkpt lat="35.821107370" lon="-106.663615480">
        <ele>1994.400</ele>
        <time>2019-07-14T20:53:06Z</time>
      </trkpt>
      <trkpt lat="35.821260450" lon="-106.663509220">
        <ele>1996.000</ele>
        <time>2019-07-14T20:53:07Z</time>
      </trkpt>
      <trkpt lat="35.821417070" lon="-106.663404250">
        <ele>1997.600</ele>
        <time>2019-07-14T20:53:08Z</time>
      </trkpt>
      <trkpt lat="35.821586170" lon="-106.663317380">
        <ele>1999.200</ele>
        <time>2019-07-14T20:53:09Z</time>
      </trkpt>
      <trkpt lat="35.821755700" lon="-106.663230910">
        <ele>2000.300</ele>
        <time>2019-07-14T20:53:10Z</time>
      </trkpt>
      <trkpt lat="35.821920920" lon="-106.663133760">
        <ele>2000.400</ele>
        <time>2019-07-14T20:53:11Z</time>
      </trkpt>
      <trkpt lat="35.822084840" lon="-106.663025020">
        <ele>2000.000</ele>
        <time>2019-07-14T20:53:12Z</time>
      </trkpt>
      <trkpt lat="35.822249050" lon="-106.662914850">
        <ele>2000.200</ele>
        <time>2019-07-14T20:53:13Z</time>
      </trkpt>
      <trkpt lat="35.822411450" lon="-106.662802780">
        <ele>2002.800</ele>
        <time>2019-07-14T20:53:14Z</time>
      </trkpt>
      <trkpt lat="35.822569750" lon="-106.662686370">
        <ele>2003.400</ele>
        <time>2019-07-14T20:53:15Z</time>
      </trkpt>
      <trkpt lat="35.822731180" lon="-106.662564400">
        <ele>2005.000</ele>
        <time>2019-07-14T20:53:16Z</time>
      </trkpt>
      <trkpt lat="35.822890560" lon="-106.662440640">
        <ele>2006.400</ele>
        <time>2019-07-14T20:53:17Z</time>
      </trkpt>
      <trkpt lat="35.823050840" lon="-106.662316390">
        <ele>2007.800</ele>
        <time>2019-07-14T20:53:18Z</time>
      </trkpt>
      <trkpt lat="35.823205030" lon="-106.662185340">
        <ele>2009.600</ele>
        <time>2019-07-14T20:53:19Z</time>
      </trkpt>
      <trkpt lat="35.823357210" lon="-106.662051800">
        <ele>2011.500</ele>
        <time>2019-07-14T20:53:20Z</time>
      </trkpt>
      <trkpt lat="35.823509090" lon="-106.661917530">
        <ele>2011.800</ele>
        <time>2019-07-14T20:53:21Z</time>
      </trkpt>
      <trkpt lat="35.823661140" lon="-106.661783760">
        <ele>2012.600</ele>
        <time>2019-07-14T20:53:22Z</time>
      </trkpt>
      <trkpt lat="35.823802590" lon="-106.661625470">
        <ele>2013.500</ele>
        <time>2019-07-14T20:53:23Z</time>
      </trkpt>
      <trkpt lat="35.823955520" lon="-106.661486910">
        <ele>2014.500</ele>
        <time>2019-07-14T20:53:24Z</time>
      </trkpt>
      <trkpt lat="35.824106120" lon="-106.661342080">
        <ele>2015.400</ele>
        <time>2019-07-14T20:53:25Z</time>
      </trkpt>
      <trkpt lat="35.824250930" lon="-106.661191770">
        <ele>2016.500</ele>
        <time>2019-07-14T20:53:26Z</time>
      </trkpt>
      <trkpt lat="35.824381760" lon="-106.661019380">
        <ele>2016.900</ele>
        <time>2019-07-14T20:53:27Z</time>
      </trkpt>
      <trkpt lat="35.824519830" lon="-106.660846080">
        <ele>2017.600</ele>
        <time>2019-07-14T20:53:28Z</time>
      </trkpt>
      <trkpt lat="35.824606700" lon="-106.660627750">
        <ele>2018.200</ele>
        <time>2019-07-14T20:53:29Z</time>
      </trkpt>
      <trkpt lat="35.824713860" lon="-106.660439100">
        <ele>2018.200</ele>
        <time>2019-07-14T20:53:30Z</time>
      </trkpt>
      <trkpt lat="35.824799640" lon="-106.660231390">
        <ele>2018.000</ele>
        <time>2019-07-14T20:53:31Z</time>
      </trkpt>
      <trkpt lat="35.824871660" lon="-106.660032950">
        <ele>2018.500</ele>
        <time>2019-07-14T20:53:32Z</time>
      </trkpt>
      <trkpt lat="35.824945670" lon="-106.659822850">
        <ele>2019.500</ele>
        <time>2019-07-14T20:53:33Z</time>
      </trkpt>
      <trkpt lat="35.825021910" lon="-106.659610660">
        <ele>2019.500</ele>
        <time>2019-07-14T20:53:34Z</time>
      </trkpt>
      <trkpt lat="35.825094730" lon="-106.659409400">
        <ele>2021.000</ele>
        <time>2019-07-14T20:53:35Z</time>
      </trkpt>
      <trkpt lat="35.825155140" lon="-106.659189630">
        <ele>2020.800</ele>
        <time>2019-07-14T20:53:36Z</time>
      </trkpt>
      <trkpt lat="35.825212590" lon="-106.658977180">
        <ele>2019.600</ele>
        <time>2019-07-14T20:53:37Z</time>
      </trkpt>
      <trkpt lat="35.825246080" lon="-106.658754320">
        <ele>2019.500</ele>
        <time>2019-07-14T20:53:38Z</time>
      </trkpt>
      <trkpt lat="35.825273600" lon="-106.658520710">
        <ele>2018.900</ele>
        <time>2019-07-14T20:53:39Z</time>
      </trkpt>
      <trkpt lat="35.825289720" lon="-106.658288450">
        <ele>2018.700</ele>
        <time>2019-07-14T20:53:40Z</time>
      </trkpt>
      <trkpt lat="35.825297450" lon="-106.658064040">
        <ele>2018.900</ele>
        <time>2019-07-14T20:53:41Z</time>
      </trkpt>
      <trkpt lat="35.825317590" lon="-106.657827710">
        <ele>2018.300</ele>
        <time>2019-07-14T20:53:42Z</time>
      </trkpt>
      <trkpt lat="35.825342490" lon="-106.657605770">
        <ele>2018.000</ele>
        <time>2019-07-14T20:53:43Z</time>
      </trkpt>
      <trkpt lat="35.825378950" lon="-106.657387110">
        <ele>2017.700</ele>
        <time>2019-07-14T20:53:44Z</time>
      </trkpt>
      <trkpt lat="35.825451500" lon="-106.657171040">
        <ele>2016.000</ele>
        <time>2019-07-14T20:53:45Z</time>
      </trkpt>
      <trkpt lat="35.825519720" lon="-106.656971470">
        <ele>2016.500</ele>
        <time>2019-07-14T20:53:46Z</time>
      </trkpt>
      <trkpt lat="35.825612620" lon="-106.656780550">
        <ele>2018.300</ele>
        <time>2019-07-14T20:53:47Z</time>
      </trkpt>
      <trkpt lat="35.825710220" lon="-106.656589670">
        <ele>2019.100</ele>
        <time>2019-07-14T20:53:48Z</time>
      </trkpt>
      <trkpt lat="35.825811880" lon="-106.656408550">
        <ele>2019.100</ele>
        <time>2019-07-14T20:53:49Z</time>
      </trkpt>
      <trkpt lat="35.825919170" lon="-106.656223480">
        <ele>2019.500</ele>
        <time>2019-07-14T20:53:50Z</time>
      </trkpt>
      <trkpt lat="35.826020290" lon="-106.656036850">
        <ele>2020.500</ele>
        <time>2019-07-14T20:53:51Z</time>
      </trkpt>
      <trkpt lat="35.826119550" lon="-106.655838940">
        <ele>2021.000</ele>
        <time>2019-07-14T20:53:52Z</time>
      </trkpt>
      <trkpt lat="35.826219130" lon="-106.655647790">
        <ele>2022.800</ele>
        <time>2019-07-14T20:53:53Z</time>
      </trkpt>
      <trkpt lat="35.826301180" lon="-106.655432470">
        <ele>2024.400</ele>
        <time>2019-07-14T20:53:54Z</time>
      </trkpt>
      <trkpt lat="35.826372710" lon="-106.655219220">
        <ele>2025.900</ele>
        <time>2019-07-14T20:53:55Z</time>
      </trkpt>
      <trkpt lat="35.826434760" lon="-106.654994820">
        <ele>2025.700</ele>
        <time>2019-07-14T20:53:56Z</time>
      </trkpt>
      <trkpt lat="35.826478530" lon="-106.654769000">
        <ele>2026.700</ele>
        <time>2019-07-14T20:53:57Z</time>
      </trkpt>
      <trkpt lat="35.826512860" lon="-106.654535430">
        <ele>2026.400</ele>
        <time>2019-07-14T20:53:58Z</time>
      </trkpt>
      <trkpt lat="35.826525570" lon="-106.654306370">
        <ele>2026.600</ele>
        <time>2019-07-14T20:53:59Z</time>
      </trkpt>
      <trkpt lat="35.826536960" lon="-106.654085070">
        <ele>2027.400</ele>
        <time>2019-07-14T20:54:00Z</time>
      </trkpt>
      <trkpt lat="35.826549390" lon="-106.653842200">
        <ele>2026.600</ele>
        <time>2019-07-14T20:54:01Z</time>
      </trkpt>
      <trkpt lat="35.826533420" lon="-106.653612760">
        <ele>2026.700</ele>
        <time>2019-07-14T20:54:02Z</time>
      </trkpt>
      <trkpt lat="35.826507720" lon="-106.653383070">
        <ele>2026.800</ele>
        <time>2019-07-14T20:54:03Z</time>
      </trkpt>
      <trkpt lat="35.826469070" lon="-106.653158140">
        <ele>2026.900</ele>
        <time>2019-07-14T20:54:04Z</time>
      </trkpt>
      <trkpt lat="35.826433320" lon="-106.652936910">
        <ele>2027.300</ele>
        <time>2019-07-14T20:54:05Z</time>
      </trkpt>
      <trkpt lat="35.826414250" lon="-106.652715670">
        <ele>2027.600</ele>
        <time>2019-07-14T20:54:06Z</time>
      </trkpt>
      <trkpt lat="35.826420130" lon="-106.652471840">
        <ele>2026.300</ele>
        <time>2019-07-14T20:54:07Z</time>
      </trkpt>
      <trkpt lat="35.826439070" lon="-106.652241570">
        <ele>2025.500</ele>
        <time>2019-07-14T20:54:08Z</time>
      </trkpt>
      <trkpt lat="35.826475630" lon="-106.652025440">
        <ele>2023.600</ele>
        <time>2019-07-14T20:54:09Z</time>
      </trkpt>
      <trkpt lat="35.826520790" lon="-106.651799930">
        <ele>2024.100</ele>
        <time>2019-07-14T20:54:10Z</time>
      </trkpt>
      <trkpt lat="35.826578250" lon="-106.651588410">
        <ele>2024.100</ele>
        <time>2019-07-14T20:54:11Z</time>
      </trkpt>
      <trkpt lat="35.826636280" lon="-106.651378150">
        <ele>2024.600</ele>
        <time>2019-07-14T20:54:12Z</time>
      </trkpt>
      <trkpt lat="35.826707240" lon="-106.651169410">
        <ele>2025.100</ele>
        <time>2019-07-14T20:54:13Z</time>
      </trkpt>
      <trkpt lat="35.826784490" lon="-106.650948300">
        <ele>2023.800</ele>
        <time>2019-07-14T20:54:14Z</time>
      </trkpt>
      <trkpt lat="35.826876110" lon="-106.650735690">
        <ele>2023.100</ele>
        <time>2019-07-14T20:54:15Z</time>
      </trkpt>
      <trkpt lat="35.826978170" lon="-106.650553910">
        <ele>2022.800</ele>
        <time>2019-07-14T20:54:16Z</time>
      </trkpt>
      <trkpt lat="35.827120510" lon="-106.650410590">
        <ele>2023.600</ele>
        <time>2019-07-14T20:54:17Z</time>
      </trkpt>
      <trkpt lat="35.827243800" lon="-106.650236610">
        <ele>2024.100</ele>
        <time>2019-07-14T20:54:18Z</time>
      </trkpt>
      <trkpt lat="35.827379160" lon="-106.650069190">
        <ele>2024.000</ele>
        <time>2019-07-14T20:54:19Z</time>
      </trkpt>
      <trkpt lat="35.827510680" lon="-106.649919060">
        <ele>2024.400</ele>
        <time>2019-07-14T20:54:20Z</time>
      </trkpt>
      <trkpt lat="35.827643910" lon="-106.649769160">
        <ele>2025.800</ele>
        <time>2019-07-14T20:54:21Z</time>
      </trkpt>
      <trkpt lat="35.827783490" lon="-106.649601360">
        <ele>2025.300</ele>
        <time>2019-07-14T20:54:22Z</time>
      </trkpt>
      <trkpt lat="35.827922700" lon="-106.649448450">
        <ele>2027.500</ele>
        <time>2019-07-14T20:54:23Z</time>
      </trkpt>
      <trkpt lat="35.828052030" lon="-106.649278120">
        <ele>2028.200</ele>
        <time>2019-07-14T20:54:24Z</time>
      </trkpt>
      <trkpt lat="35.828184500" lon="-106.649114280">
        <ele>2029.900</ele>
        <time>2019-07-14T20:54:25Z</time>
      </trkpt>
      <trkpt lat="35.828318790" lon="-106.648944600">
        <ele>2031.000</ele>
        <time>2019-07-14T20:54:26Z</time>
      </trkpt>
      <trkpt lat="35.828450400" lon="-106.648773920">
        <ele>2032.700</ele>
        <time>2019-07-14T20:54:27Z</time>
      </trkpt>
      <trkpt lat="35.828585990" lon="-106.648623270">
        <ele>2032.800</ele>
        <time>2019-07-14T20:54:28Z</time>
      </trkpt>
      <trkpt lat="35.828726280" lon="-106.648470740">
        <ele>2034.200</ele>
        <time>2019-07-14T20:54:29Z</time>
      </trkpt>
      <trkpt lat="35.828865440" lon="-106.648312770">
        <ele>2035.300</ele>
        <time>2019-07-14T20:54:30Z</time>
      </trkpt>
      <trkpt lat="35.829002040" lon="-106.648157900">
        <ele>2036.000</ele>
        <time>2019-07-14T20:54:31Z</time>
      </trkpt>
      <trkpt lat="35.829136410" lon="-106.647996710">
        <ele>2036.300</ele>
        <time>2019-07-14T20:54:32Z</time>
      </trkpt>
      <trkpt lat="35.829255850" lon="-106.647816510">
        <ele>2036.300</ele>
        <time>2019-07-14T20:54:33Z</time>
      </trkpt>
      <trkpt lat="35.829352880" lon="-106.647618350">
        <ele>2038.000</ele>
        <time>2019-07-14T20:54:34Z</time>
      </trkpt>
      <trkpt lat="35.829422210" lon="-106.647406640">
        <ele>2039.300</ele>
        <time>2019-07-14T20:54:35Z</time>
      </trkpt>
      <trkpt lat="35.829474340" lon="-106.647191480">
        <ele>2040.100</ele>
        <time>2019-07-14T20:54:36Z</time>
      </trkpt>
      <trkpt lat="35.829525580" lon="-106.646973780">
        <ele>2040.700</ele>
        <time>2019-07-14T20:54:37Z</time>
      </trkpt>
      <trkpt lat="35.829538420" lon="-106.646749500">
        <ele>2040.800</ele>
        <time>2019-07-14T20:54:38Z</time>
      </trkpt>
      <trkpt lat="35.829517570" lon="-106.646533410">
        <ele>2040.600</ele>
        <time>2019-07-14T20:54:39Z</time>
      </trkpt>
      <trkpt lat="35.829400690" lon="-106.646363440">
        <ele>2041.000</ele>
        <time>2019-07-14T20:54:40Z</time>
      </trkpt>
      <trkpt lat="35.829365210" lon="-106.646145180">
        <ele>2040.600</ele>
        <time>2019-07-14T20:54:41Z</time>
      </trkpt>
      <trkpt lat="35.829312770" lon="-106.645953770">
        <ele>2040.500</ele>
        <time>2019-07-14T20:54:42Z</time>
      </trkpt>
      <trkpt lat="35.829267010" lon="-106.645790620">
        <ele>2040.600</ele>
        <time>2019-07-14T20:54:43Z</time>
      </trkpt>
      <trkpt lat="35.829217010" lon="-106.645627400">
        <ele>2040.300</ele>
        <time>2019-07-14T20:54:44Z</time>
      </trkpt>
      <trkpt lat="35.829177740" lon="-106.645482490">
        <ele>2040.500</ele>
        <time>2019-07-14T20:54:45Z</time>
      </trkpt>
      <trkpt lat="35.829152470" lon="-106.645357990">
        <ele>2040.600</ele>
        <time>2019-07-14T20:54:46Z</time>
      </trkpt>
      <trkpt lat="35.829135770" lon="-106.645238880">
        <ele>2041.700</ele>
        <time>2019-07-14T20:54:47Z</time>
      </trkpt>
      <trkpt lat="35.829123960" lon="-106.645129690">
        <ele>2042.700</ele>
        <time>2019-07-14T20:54:48Z</time>
      </trkpt>
      <trkpt lat="35.829130450" lon="-106.645044830">
        <ele>2045.800</ele>
        <time>2019-07-14T20:54:49Z</time>
      </trkpt>
      <trkpt lat="35.829137070" lon="-106.644938790">
        <ele>2046.300</ele>
        <time>2019-07-14T20:54:50Z</time>
      </trkpt>
      <trkpt lat="35.829160470" lon="-106.644874740">
        <ele>2046.700</ele>
        <time>2019-07-14T20:54:51Z</time>
      </trkpt>
      <trkpt lat="35.829186020" lon="-106.644800390">
        <ele>2047.900</ele>
        <time>2019-07-14T20:54:52Z</time>
      </trkpt>
      <trkpt lat="35.829203020" lon="-106.644711360">
        <ele>2048.900</ele>
        <time>2019-07-14T20:54:53Z</time>
      </trkpt>
      <trkpt lat="35.829225440" lon="-106.644631890">
        <ele>2049.500</ele>
        <time>2019-07-14T20:54:54Z</time>
      </trkpt>
      <trkpt lat="35.829254310" lon="-106.644541960">
        <ele>2051.300</ele>
        <time>2019-07-14T20:54:55Z</time>
      </trkpt>
      <trkpt lat="35.829284090" lon="-106.644455230">
        <ele>2051.800</ele>
        <time>2019-07-14T20:54:56Z</time>
      </trkpt>
      <trkpt lat="35.829316640" lon="-106.644372410">
        <ele>2051.900</ele>
        <time>2019-07-14T20:54:57Z</time>
      </trkpt>
      <trkpt lat="35.829365280" lon="-106.644301960">
        <ele>2052.600</ele>
        <time>2019-07-14T20:54:58Z</time>
      </trkpt>
      <trkpt lat="35.829412310" lon="-106.644232090">
        <ele>2053.700</ele>
        <time>2019-07-14T20:54:59Z</time>
      </trkpt>
      <trkpt lat="35.829464980" lon="-106.644160070">
        <ele>2054.600</ele>
        <time>2019-07-14T20:55:00Z</time>
      </trkpt>
      <trkpt lat="35.829528920" lon="-106.644104550">
        <ele>2054.900</ele>
        <time>2019-07-14T20:55:01Z</time>
      </trkpt>
      <trkpt lat="35.829590930" lon="-106.644053470">
        <ele>2055.800</ele>
        <time>2019-07-14T20:55:02Z</time>
      </trkpt>
      <trkpt lat="35.829655480" lon="-106.643997750">
        <ele>2056.100</ele>
        <time>2019-07-14T20:55:03Z</time>
      </trkpt>
      <trkpt lat="35.829729360" lon="-106.643952790">
        <ele>2056.700</ele>
        <time>2019-07-14T20:55:04Z</time>
      </trkpt>
      <trkpt lat="35.829810510" lon="-106.643901980">
        <ele>2057.800</ele>
        <time>2019-07-14T20:55:05Z</time>
      </trkpt>
      <trkpt lat="35.829884750" lon="-106.643846350">
        <ele>2059.000</ele>
        <time>2019-07-14T20:55:06Z</time>
      </trkpt>
      <trkpt lat="35.829972100" lon="-106.643794350">
        <ele>2058.600</ele>
        <time>2019-07-14T20:55:07Z</time>
      </trkpt>
      <trkpt lat="35.830063120" lon="-106.643738280">
        <ele>2058.500</ele>
        <time>2019-07-14T20:55:08Z</time>
      </trkpt>
      <trkpt lat="35.830152710" lon="-106.643677600">
        <ele>2058.700</ele>
        <time>2019-07-14T20:55:09Z</time>
      </trkpt>
      <trkpt lat="35.830240040" lon="-106.643599610">
        <ele>2058.500</ele>
        <time>2019-07-14T20:55:10Z</time>
      </trkpt>
      <trkpt lat="35.830336280" lon="-106.643505230">
        <ele>2060.600</ele>
        <time>2019-07-14T20:55:11Z</time>
      </trkpt>
      <trkpt lat="35.830425990" lon="-106.643409250">
        <ele>2060.800</ele>
        <time>2019-07-14T20:55:12Z</time>
      </trkpt>
      <trkpt lat="35.830517070" lon="-106.643304280">
        <ele>2060.400</ele>
        <time>2019-07-14T20:55:13Z</time>
      </trkpt>
      <trkpt lat="35.830609830" lon="-106.643200660">
        <ele>2060.500</ele>
        <time>2019-07-14T20:55:14Z</time>
      </trkpt>
      <trkpt lat="35.830711550" lon="-106.643091690">
        <ele>2061.500</ele>
        <time>2019-07-14T20:55:15Z</time>
      </trkpt>
      <trkpt lat="35.830812760" lon="-106.642977430">
        <ele>2062.200</ele>
        <time>2019-07-14T20:55:16Z</time>
      </trkpt>
      <trkpt lat="35.830920780" lon="-106.642858520">
        <ele>2062.000</ele>
        <time>2019-07-14T20:55:17Z</time>
      </trkpt>
      <trkpt lat="35.831035280" lon="-106.642746820">
        <ele>2062.300</ele>
        <time>2019-07-14T20:55:18Z</time>
      </trkpt>
      <trkpt lat="35.831161990" lon="-106.642649050">
        <ele>2062.700</ele>
        <time>2019-07-14T20:55:19Z</time>
      </trkpt>
      <trkpt lat="35.831295550" lon="-106.642564740">
        <ele>2063.600</ele>
        <time>2019-07-14T20:55:20Z</time>
      </trkpt>
      <trkpt lat="35.831434830" lon="-106.642502710">
        <ele>2064.700</ele>
        <time>2019-07-14T20:55:21Z</time>
      </trkpt>
      <trkpt lat="35.831588580" lon="-106.642451020">
        <ele>2064.300</ele>
        <time>2019-07-14T20:55:22Z</time>
      </trkpt>
      <trkpt lat="35.831742810" lon="-106.642399600">
        <ele>2065.600</ele>
        <time>2019-07-14T20:55:23Z</time>
      </trkpt>
      <trkpt lat="35.831894890" lon="-106.642344680">
        <ele>2065.200</ele>
        <time>2019-07-14T20:55:24Z</time>
      </trkpt>
      <trkpt lat="35.832018160" lon="-106.642237580">
        <ele>2066.500</ele>
        <time>2019-07-14T20:55:25Z</time>
      </trkpt>
      <trkpt lat="35.832176300" lon="-106.642143020">
        <ele>2065.000</ele>
        <time>2019-07-14T20:55:26Z</time>
      </trkpt>
      <trkpt lat="35.832290460" lon="-106.642023050">
        <ele>2063.100</ele>
        <time>2019-07-14T20:55:27Z</time>
      </trkpt>
      <trkpt lat="35.832441400" lon="-106.641880220">
        <ele>2061.200</ele>
        <time>2019-07-14T20:55:28Z</time>
      </trkpt>
      <trkpt lat="35.832576560" lon="-106.641741800">
        <ele>2062.100</ele>
        <time>2019-07-14T20:55:29Z</time>
      </trkpt>
      <trkpt lat="35.832682660" lon="-106.641579960">
        <ele>2061.200</ele>
        <time>2019-07-14T20:55:30Z</time>
      </trkpt>
      <trkpt lat="35.832795310" lon="-106.641417520">
        <ele>2062.400</ele>
        <time>2019-07-14T20:55:31Z</time>
      </trkpt>
      <trkpt lat="35.832925300" lon="-106.641267340">
        <ele>2063.700</ele>
        <time>2019-07-14T20:55:32Z</time>
      </trkpt>
      <trkpt lat="35.833033780" lon="-106.641099230">
        <ele>2066.000</ele>
        <time>2019-07-14T20:55:33Z</time>
      </trkpt>
      <trkpt lat="35.833152390" lon="-106.640938450">
        <ele>2068.500</ele>
        <time>2019-07-14T20:55:34Z</time>
      </trkpt>
      <trkpt lat="35.833272670" lon="-106.640789650">
        <ele>2069.600</ele>
        <time>2019-07-14T20:55:35Z</time>
      </trkpt>
      <trkpt lat="35.833392240" lon="-106.640641810">
        <ele>2070.100</ele>
        <time>2019-07-14T20:55:36Z</time>
      </trkpt>
      <trkpt lat="35.833518390" lon="-106.640509920">
        <ele>2072.400</ele>
        <time>2019-07-14T20:55:37Z</time>
      </trkpt>
      <trkpt lat="35.833665860" lon="-106.640421220">
        <ele>2074.800</ele>
        <time>2019-07-14T20:55:38Z</time>
      </trkpt>
      <trkpt lat="35.833808840" lon="-106.640335460">
        <ele>2075.300</ele>
        <time>2019-07-14T20:55:39Z</time>
      </trkpt>
      <trkpt lat="35.833967040" lon="-106.640281030">
        <ele>2075.800</ele>
        <time>2019-07-14T20:55:40Z</time>
      </trkpt>
      <trkpt lat="35.834133400" lon="-106.640276310">
        <ele>2076.900</ele>
        <time>2019-07-14T20:55:41Z</time>
      </trkpt>
      <trkpt lat="35.834294350" lon="-106.640280530">
        <ele>2076.200</ele>
        <time>2019-07-14T20:55:42Z</time>
      </trkpt>
      <trkpt lat="35.834466180" lon="-106.640319410">
        <ele>2076.800</ele>
        <time>2019-07-14T20:55:43Z</time>
      </trkpt>
      <trkpt lat="35.834637290" lon="-106.640375180">
        <ele>2076.700</ele>
        <time>2019-07-14T20:55:44Z</time>
      </trkpt>
      <trkpt lat="35.834809120" lon="-106.640451960">
        <ele>2077.000</ele>
        <time>2019-07-14T20:55:45Z</time>
      </trkpt>
      <trkpt lat="35.834972640" lon="-106.640525530">
        <ele>2076.300</ele>
        <time>2019-07-14T20:55:46Z</time>
      </trkpt>
      <trkpt lat="35.835143110" lon="-106.640611150">
        <ele>2077.200</ele>
        <time>2019-07-14T20:55:47Z</time>
      </trkpt>
      <trkpt lat="35.835316410" lon="-106.640692060">
        <ele>2077.600</ele>
        <time>2019-07-14T20:55:48Z</time>
      </trkpt>
      <trkpt lat="35.835491180" lon="-106.640764440">
        <ele>2078.600</ele>
        <time>2019-07-14T20:55:49Z</time>
      </trkpt>
      <trkpt lat="35.835663470" lon="-106.640829080">
        <ele>2078.300</ele>
        <time>2019-07-14T20:55:50Z</time>
      </trkpt>
      <trkpt lat="35.835842690" lon="-106.640863780">
        <ele>2076.200</ele>
        <time>2019-07-14T20:55:51Z</time>
      </trkpt>
      <trkpt lat="35.836018270" lon="-106.640900340">
        <ele>2076.600</ele>
        <time>2019-07-14T20:55:52Z</time>
      </trkpt>
      <trkpt lat="35.836189560" lon="-106.640909430">
        <ele>2078.900</ele>
        <time>2019-07-14T20:55:53Z</time>
      </trkpt>
      <trkpt lat="35.836365890" lon="-106.640923920">
        <ele>2078.700</ele>
        <time>2019-07-14T20:55:54Z</time>
      </trkpt>
      <trkpt lat="35.836547210" lon="-106.640917740">
        <ele>2078.400</ele>
        <time>2019-07-14T20:55:55Z</time>
      </trkpt>
      <trkpt lat="35.836720250" lon="-106.640920170">
        <ele>2078.800</ele>
        <time>2019-07-14T20:55:56Z</time>
      </trkpt>
      <trkpt lat="35.836896000" lon="-106.640893640">
        <ele>2079.100</ele>
        <time>2019-07-14T20:55:57Z</time>
      </trkpt>
      <trkpt lat="35.837085070" lon="-106.640877490">
        <ele>2079.900</ele>
        <time>2019-07-14T20:55:58Z</time>
      </trkpt>
      <trkpt lat="35.837264270" lon="-106.640841440">
        <ele>2080.000</ele>
        <time>2019-07-14T20:55:59Z</time>
      </trkpt>
      <trkpt lat="35.837408610" lon="-106.640757150">
        <ele>2080.700</ele>
        <time>2019-07-14T20:56:00Z</time>
      </trkpt>
      <trkpt lat="35.837562880" lon="-106.640662690">
        <ele>2080.900</ele>
        <time>2019-07-14T20:56:01Z</time>
      </trkpt>
      <trkpt lat="35.837704760" lon="-106.640555790">
        <ele>2081.800</ele>
        <time>2019-07-14T20:56:02Z</time>
      </trkpt>
      <trkpt lat="35.837891280" lon="-106.640513330">
        <ele>2084.500</ele>
        <time>2019-07-14T20:56:03Z</time>
      </trkpt>
      <trkpt lat="35.838062390" lon="-106.640463020">
        <ele>2085.000</ele>
        <time>2019-07-14T20:56:04Z</time>
      </trkpt>
      <trkpt lat="35.838240180" lon="-106.640446410">
        <ele>2085.400</ele>
        <time>2019-07-14T20:56:05Z</time>
      </trkpt>
      <trkpt lat="35.838434990" lon="-106.640465950">
        <ele>2087.500</ele>
        <time>2019-07-14T20:56:06Z</time>
      </trkpt>
      <trkpt lat="35.838617230" lon="-106.640453170">
        <ele>2086.000</ele>
        <time>2019-07-14T20:56:07Z</time>
      </trkpt>
      <trkpt lat="35.838786470" lon="-106.640443100">
        <ele>2087.700</ele>
        <time>2019-07-14T20:56:08Z</time>
      </trkpt>
      <trkpt lat="35.838963860" lon="-106.640421810">
        <ele>2087.200</ele>
        <time>2019-07-14T20:56:09Z</time>
      </trkpt>
      <trkpt lat="35.839146630" lon="-106.640386450">
        <ele>2087.000</ele>
        <time>2019-07-14T20:56:10Z</time>
      </trkpt>
      <trkpt lat="35.839311110" lon="-106.640293990">
        <ele>2088.200</ele>
        <time>2019-07-14T20:56:11Z</time>
      </trkpt>
      <trkpt lat="35.839461490" lon="-106.640194710">
        <ele>2089.800</ele>
        <time>2019-07-14T20:56:12Z</time>
      </trkpt>
      <trkpt lat="35.839606610" lon="-106.640037120">
        <ele>2090.700</ele>
        <time>2019-07-14T20:56:13Z</time>
      </trkpt>
      <trkpt lat="35.839712740" lon="-106.639870150">
        <ele>2091.600</ele>
        <time>2019-07-14T20:56:14Z</time>
      </trkpt>
      <trkpt lat="35.839839530" lon="-106.639736420">
        <ele>2092.500</ele>
        <time>2019-07-14T20:56:15Z</time>
      </trkpt>
      <trkpt lat="35.839967350" lon="-106.639591700">
        <ele>2093.400</ele>
        <time>2019-07-14T20:56:16Z</time>
      </trkpt>
      <trkpt lat="35.840111980" lon="-106.639462430">
        <ele>2095.400</ele>
        <time>2019-07-14T20:56:17Z</time>
      </trkpt>
      <trkpt lat="35.840262800" lon="-106.639353470">
        <ele>2097.100</ele>
        <time>2019-07-14T20:56:18Z</time>
      </trkpt>
      <trkpt lat="35.840421020" lon="-106.639265170">
        <ele>2097.800</ele>
        <time>2019-07-14T20:56:19Z</time>
      </trkpt>
      <trkpt lat="35.840584390" lon="-106.639199990">
        <ele>2099.200</ele>
        <time>2019-07-14T20:56:20Z</time>
      </trkpt>
      <trkpt lat="35.840746620" lon="-106.639136740">
        <ele>2100.300</ele>
        <time>2019-07-14T20:56:21Z</time>
      </trkpt>
      <trkpt lat="35.840922460" lon="-106.639115120">
        <ele>2100.600</ele>
        <time>2019-07-14T20:56:22Z</time>
      </trkpt>
      <trkpt lat="35.841098480" lon="-106.639095050">
        <ele>2101.200</ele>
        <time>2019-07-14T20:56:23Z</time>
      </trkpt>
      <trkpt lat="35.841275690" lon="-106.639066190">
        <ele>2101.600</ele>
        <time>2019-07-14T20:56:24Z</time>
      </trkpt>
      <trkpt lat="35.841451560" lon="-106.639028160">
        <ele>2103.700</ele>
        <time>2019-07-14T20:56:25Z</time>
      </trkpt>
      <trkpt lat="35.841608540" lon="-106.638966340">
        <ele>2105.300</ele>
        <time>2019-07-14T20:56:26Z</time>
      </trkpt>
      <trkpt lat="35.841774600" lon="-106.638848670">
        <ele>2104.200</ele>
        <time>2019-07-14T20:56:27Z</time>
      </trkpt>
      <trkpt lat="35.841911640" lon="-106.638709200">
        <ele>2105.700</ele>
        <time>2019-07-14T20:56:28Z</time>
      </trkpt>
      <trkpt lat="35.842023750" lon="-106.638550110">
        <ele>2107.100</ele>
        <time>2019-07-14T20:56:29Z</time>
      </trkpt>
      <trkpt lat="35.842137340" lon="-106.638401510">
        <ele>2109.300</ele>
        <time>2019-07-14T20:56:30Z</time>
      </trkpt>
      <trkpt lat="35.842269320" lon="-106.638242570">
        <ele>2114.000</ele>
        <time>2019-07-14T20:56:31Z</time>
      </trkpt>
      <trkpt lat="35.842412000" lon="-106.638124330">
        <ele>2115.000</ele>
        <time>2019-07-14T20:56:32Z</time>
      </trkpt>
      <trkpt lat="35.842553330" lon="-106.638000710">
        <ele>2117.100</ele>
        <time>2019-07-14T20:56:33Z</time>
      </trkpt>
      <trkpt lat="35.842708380" lon="-106.637895720">
        <ele>2117.800</ele>
        <time>2019-07-14T20:56:34Z</time>
      </trkpt>
      <trkpt lat="35.842859950" lon="-106.637788300">
        <ele>2117.900</ele>
        <time>2019-07-14T20:56:35Z</time>
      </trkpt>
      <trkpt lat="35.842992680" lon="-106.637692600">
        <ele>2118.900</ele>
        <time>2019-07-14T20:56:36Z</time>
      </trkpt>
      <trkpt lat="35.843122570" lon="-106.637594900">
        <ele>2119.800</ele>
        <time>2019-07-14T20:56:37Z</time>
      </trkpt>
      <trkpt lat="35.843244040" lon="-106.637491260">
        <ele>2121.000</ele>
        <time>2019-07-14T20:56:38Z</time>
      </trkpt>
      <trkpt lat="35.843352540" lon="-106.637394730">
        <ele>2121.600</ele>
        <time>2019-07-14T20:56:39Z</time>
      </trkpt>
      <trkpt lat="35.843458680" lon="-106.637271920">
        <ele>2121.900</ele>
        <time>2019-07-14T20:56:40Z</time>
      </trkpt>
      <trkpt lat="35.843554030" lon="-106.637135440">
        <ele>2123.000</ele>
        <time>2019-07-14T20:56:41Z</time>
      </trkpt>
      <trkpt lat="35.843644880" lon="-106.636985710">
        <ele>2124.300</ele>
        <time>2019-07-14T20:56:42Z</time>
      </trkpt>
      <trkpt lat="35.843724800" lon="-106.636831070">
        <ele>2125.800</ele>
        <time>2019-07-14T20:56:43Z</time>
      </trkpt>
      <trkpt lat="35.843813270" lon="-106.636681750">
        <ele>2126.400</ele>
        <time>2019-07-14T20:56:44Z</time>
      </trkpt>
      <trkpt lat="35.843916060" lon="-106.636541950">
        <ele>2128.500</ele>
        <time>2019-07-14T20:56:45Z</time>
      </trkpt>
      <trkpt lat="35.844027850" lon="-106.636411780">
        <ele>2130.300</ele>
        <time>2019-07-14T20:56:46Z</time>
      </trkpt>
      <trkpt lat="35.844142490" lon="-106.636292920">
        <ele>2131.500</ele>
        <time>2019-07-14T20:56:47Z</time>
      </trkpt>
      <trkpt lat="35.844257400" lon="-106.636185370">
        <ele>2132.900</ele>
        <time>2019-07-14T20:56:48Z</time>
      </trkpt>
      <trkpt lat="35.844375140" lon="-106.636096060">
        <ele>2133.800</ele>
        <time>2019-07-14T20:56:49Z</time>
      </trkpt>
      <trkpt lat="35.844492740" lon="-106.636006080">
        <ele>2134.100</ele>
        <time>2019-07-14T20:56:50Z</time>
      </trkpt>
      <trkpt lat="35.844611130" lon="-106.635913750">
        <ele>2135.200</ele>
        <time>2019-07-14T20:56:51Z</time>
      </trkpt>
      <trkpt lat="35.844732950" lon="-106.635831170">
        <ele>2137.400</ele>
        <time>2019-07-14T20:56:52Z</time>
      </trkpt>
      <trkpt lat="35.844857750" lon="-106.635754240">
        <ele>2140.200</ele>
        <time>2019-07-14T20:56:53Z</time>
      </trkpt>
      <trkpt lat="35.844985320" lon="-106.635702280">
        <ele>2142.000</ele>
        <time>2019-07-14T20:56:54Z</time>
      </trkpt>
      <trkpt lat="35.845132040" lon="-106.635667170">
        <ele>2143.300</ele>
        <time>2019-07-14T20:56:55Z</time>
      </trkpt>
      <trkpt lat="35.845272010" lon="-106.635628380">
        <ele>2144.000</ele>
        <time>2019-07-14T20:56:56Z</time>
      </trkpt>
      <trkpt lat="35.845414980" lon="-106.635603290">
        <ele>2144.200</ele>
        <time>2019-07-14T20:56:57Z</time>
      </trkpt>
      <trkpt lat="35.845554730" lon="-106.635556160">
        <ele>2144.700</ele>
        <time>2019-07-14T20:56:58Z</time>
      </trkpt>
      <trkpt lat="35.845684870" lon="-106.635499700">
        <ele>2145.100</ele>
        <time>2019-07-14T20:56:59Z</time>
      </trkpt>
      <trkpt lat="35.845806720" lon="-106.635443610">
        <ele>2146.500</ele>
        <time>2019-07-14T20:57:00Z</time>
      </trkpt>
      <trkpt lat="35.845920230" lon="-106.635354950">
        <ele>2147.500</ele>
        <time>2019-07-14T20:57:01Z</time>
      </trkpt>
      <trkpt lat="35.846038280" lon="-106.635281350">
        <ele>2148.500</ele>
        <time>2019-07-14T20:57:02Z</time>
      </trkpt>
      <trkpt lat="35.846135870" lon="-106.635171850">
        <ele>2147.500</ele>
        <time>2019-07-14T20:57:03Z</time>
      </trkpt>
      <trkpt lat="35.846242150" lon="-106.635079940">
        <ele>2148.600</ele>
        <time>2019-07-14T20:57:04Z</time>
      </trkpt>
      <trkpt lat="35.846353490" lon="-106.634978630">
        <ele>2149.600</ele>
        <time>2019-07-14T20:57:05Z</time>
      </trkpt>
      <trkpt lat="35.846473680" lon="-106.634891960">
        <ele>2151.000</ele>
        <time>2019-07-14T20:57:06Z</time>
      </trkpt>
      <trkpt lat="35.846593710" lon="-106.634791990">
        <ele>2152.300</ele>
        <time>2019-07-14T20:57:07Z</time>
      </trkpt>
      <trkpt lat="35.846700660" lon="-106.634684130">
        <ele>2153.900</ele>
        <time>2019-07-14T20:57:08Z</time>
      </trkpt>
      <trkpt lat="35.846814310" lon="-106.634576730">
        <ele>2155.900</ele>
        <time>2019-07-14T20:57:09Z</time>
      </trkpt>
      <trkpt lat="35.846918860" lon="-106.634450040">
        <ele>2157.300</ele>
        <time>2019-07-14T20:57:10Z</time>
      </trkpt>
      <trkpt lat="35.847023280" lon="-106.634299600">
        <ele>2161.700</ele>
        <time>2019-07-14T20:57:11Z</time>
      </trkpt>
      <trkpt lat="35.847127330" lon="-106.634157790">
        <ele>2163.400</ele>
        <time>2019-07-14T20:57:12Z</time>
      </trkpt>
      <trkpt lat="35.847237260" lon="-106.634022690">
        <ele>2165.700</ele>
        <time>2019-07-14T20:57:13Z</time>
      </trkpt>
      <trkpt lat="35.847327690" lon="-106.633876540">
        <ele>2166.300</ele>
        <time>2019-07-14T20:57:14Z</time>
      </trkpt>
      <trkpt lat="35.847422100" lon="-106.633735040">
        <ele>2166.600</ele>
        <time>2019-07-14T20:57:15Z</time>
      </trkpt>
      <trkpt lat="35.847511490" lon="-106.633592270">
        <ele>2168.300</ele>
        <time>2019-07-14T20:57:16Z</time>
      </trkpt>
      <trkpt lat="35.847612220" lon="-106.633459150">
        <ele>2169.900</ele>
        <time>2019-07-14T20:57:17Z</time>
      </trkpt>
      <trkpt lat="35.847717210" lon="-106.633320240">
        <ele>2171.200</ele>
        <time>2019-07-14T20:57:18Z</time>
      </trkpt>
      <trkpt lat="35.847850640" lon="-106.633238120">
        <ele>2170.800</ele>
        <time>2019-07-14T20:57:19Z</time>
      </trkpt>
      <trkpt lat="35.847980970" lon="-106.633147580">
        <ele>2173.100</ele>
        <time>2019-07-14T20:57:20Z</time>
      </trkpt>
      <trkpt lat="35.848117320" lon="-106.633078980">
        <ele>2174.200</ele>
        <time>2019-07-14T20:57:21Z</time>
      </trkpt>
      <trkpt lat="35.848252520" lon="-106.633026340">
        <ele>2175.300</ele>
        <time>2019-07-14T20:57:22Z</time>
      </trkpt>
      <trkpt lat="35.848386210" lon="-106.632970870">
        <ele>2175.800</ele>
        <time>2019-07-14T20:57:23Z</time>
      </trkpt>
      <trkpt lat="35.848517220" lon="-106.632913520">
        <ele>2177.800</ele>
        <time>2019-07-14T20:57:24Z</time>
      </trkpt>
      <trkpt lat="35.848646840" lon="-106.632844680">
        <ele>2180.100</ele>
        <time>2019-07-14T20:57:25Z</time>
      </trkpt>
      <trkpt lat="35.848760560" lon="-106.632757460">
        <ele>2180.200</ele>
        <time>2019-07-14T20:57:26Z</time>
      </trkpt>
      <trkpt lat="35.848873530" lon="-106.632666930">
        <ele>2180.900</ele>
        <time>2019-07-14T20:57:27Z</time>
      </trkpt>
      <trkpt lat="35.848961770" lon="-106.632549410">
        <ele>2183.800</ele>
        <time>2019-07-14T20:57:28Z</time>
      </trkpt>
      <trkpt lat="35.849054280" lon="-106.632433260">
        <ele>2186.200</ele>
        <time>2019-07-14T20:57:29Z</time>
      </trkpt>
      <trkpt lat="35.849154060" lon="-106.632320180">
        <ele>2187.500</ele>
        <time>2019-07-14T20:57:30Z</time>
      </trkpt>
      <trkpt lat="35.849261960" lon="-106.632208440">
        <ele>2190.300</ele>
        <time>2019-07-14T20:57:31Z</time>
      </trkpt>
      <trkpt lat="35.849378440" lon="-106.632101920">
        <ele>2192.000</ele>
        <time>2019-07-14T20:57:32Z</time>
      </trkpt>
      <trkpt lat="35.849502190" lon="-106.632003140">
        <ele>2192.800</ele>
        <time>2019-07-14T20:57:33Z</time>
      </trkpt>
      <trkpt lat="35.849629650" lon="-106.631922390">
        <ele>2194.100</ele>
        <time>2019-07-14T20:57:34Z</time>
      </trkpt>
      <trkpt lat="35.849763160" lon="-106.631846220">
        <ele>2195.000</ele>
        <time>2019-07-14T20:57:35Z</time>
      </trkpt>
      <trkpt lat="35.849894670" lon="-106.631780090">
        <ele>2196.100</ele>
        <time>2019-07-14T20:57:36Z</time>
      </trkpt>
      <trkpt lat="35.850023050" lon="-106.631722440">
        <ele>2197.300</ele>
        <time>2019-07-14T20:57:37Z</time>
      </trkpt>
      <trkpt lat="35.850163120" lon="-106.631662670">
        <ele>2196.300</ele>
        <time>2019-07-14T20:57:38Z</time>
      </trkpt>
      <trkpt lat="35.850295260" lon="-106.631618280">
        <ele>2196.600</ele>
        <time>2019-07-14T20:57:39Z</time>
      </trkpt>
      <trkpt lat="35.850434080" lon="-106.631590880">
        <ele>2197.300</ele>
        <time>2019-07-14T20:57:40Z</time>
      </trkpt>
      <trkpt lat="35.850573500" lon="-106.631565790">
        <ele>2197.600</ele>
        <time>2019-07-14T20:57:41Z</time>
      </trkpt>
      <trkpt lat="35.850713040" lon="-106.631550090">
        <ele>2198.600</ele>
        <time>2019-07-14T20:57:42Z</time>
      </trkpt>
      <trkpt lat="35.850844300" lon="-106.631545200">
        <ele>2199.800</ele>
        <time>2019-07-14T20:57:43Z</time>
      </trkpt>
      <trkpt lat="35.850992750" lon="-106.631553050">
        <ele>2200.400</ele>
        <time>2019-07-14T20:57:44Z</time>
      </trkpt>
      <trkpt lat="35.851132400" lon="-106.631553900">
        <ele>2201.700</ele>
        <time>2019-07-14T20:57:45Z</time>
      </trkpt>
      <trkpt lat="35.851280160" lon="-106.631566780">
        <ele>2202.600</ele>
        <time>2019-07-14T20:57:46Z</time>
      </trkpt>
      <trkpt lat="35.851420170" lon="-106.631571150">
        <ele>2203.800</ele>
        <time>2019-07-14T20:57:47Z</time>
      </trkpt>
      <trkpt lat="35.851561730" lon="-106.631574790">
        <ele>2204.500</ele>
        <time>2019-07-14T20:57:48Z</time>
      </trkpt>
      <trkpt lat="35.851704430" lon="-106.631581760">
        <ele>2206.300</ele>
        <time>2019-07-14T20:57:49Z</time>
      </trkpt>
      <trkpt lat="35.851840860" lon="-106.631585920">
        <ele>2208.400</ele>
        <time>2019-07-14T20:57:50Z</time>
      </trkpt>
      <trkpt lat="35.851980580" lon="-106.631591000">
        <ele>2210.100</ele>
        <time>2019-07-14T20:57:51Z</time>
      </trkpt>
      <trkpt lat="35.852122700" lon="-106.631604680">
        <ele>2211.500</ele>
        <time>2019-07-14T20:57:52Z</time>
      </trkpt>
      <trkpt lat="35.852265470" lon="-106.631625420">
        <ele>2213.500</ele>
        <time>2019-07-14T20:57:53Z</time>
      </trkpt>
      <trkpt lat="35.852401050" lon="-106.631630240">
        <ele>2215.800</ele>
        <time>2019-07-14T20:57:54Z</time>
      </trkpt>
      <trkpt lat="35.852539020" lon="-106.631636320">
        <ele>2217.900</ele>
        <time>2019-07-14T20:57:55Z</time>
      </trkpt>
      <trkpt lat="35.852676370" lon="-106.631651110">
        <ele>2219.900</ele>
        <time>2019-07-14T20:57:56Z</time>
      </trkpt>
      <trkpt lat="35.852815440" lon="-106.631667910">
        <ele>2220.800</ele>
        <time>2019-07-14T20:57:57Z</time>
      </trkpt>
      <trkpt lat="35.852965610" lon="-106.631707400">
        <ele>2221.500</ele>
        <time>2019-07-14T20:57:58Z</time>
      </trkpt>
      <trkpt lat="35.853108030" lon="-106.631726240">
        <ele>2222.300</ele>
        <time>2019-07-14T20:57:59Z</time>
      </trkpt>
      <trkpt lat="35.853251540" lon="-106.631756790">
        <ele>2223.800</ele>
        <time>2019-07-14T20:58:00Z</time>
      </trkpt>
      <trkpt lat="35.853394460" lon="-106.631792870">
        <ele>2225.900</ele>
        <time>2019-07-14T20:58:01Z</time>
      </trkpt>
      <trkpt lat="35.853533030" lon="-106.631823330">
        <ele>2226.900</ele>
        <time>2019-07-14T20:58:02Z</time>
      </trkpt>
      <trkpt lat="35.853672810" lon="-106.631852940">
        <ele>2228.200</ele>
        <time>2019-07-14T20:58:03Z</time>
      </trkpt>
      <trkpt lat="35.853804760" lon="-106.631867500">
        <ele>2227.300</ele>
        <time>2019-07-14T20:58:04Z</time>
      </trkpt>
      <trkpt lat="35.853935130" lon="-106.631892540">
        <ele>2228.200</ele>
        <time>2019-07-14T20:58:05Z</time>
      </trkpt>
      <trkpt lat="35.854058490" lon="-106.631912680">
        <ele>2229.600</ele>
        <time>2019-07-14T20:58:06Z</time>
      </trkpt>
      <trkpt lat="35.854178070" lon="-106.631929430">
        <ele>2230.000</ele>
        <time>2019-07-14T20:58:07Z</time>
      </trkpt>
      <trkpt lat="35.854299520" lon="-106.631951740">
        <ele>2231.600</ele>
        <time>2019-07-14T20:58:08Z</time>
      </trkpt>
      <trkpt lat="35.854421590" lon="-106.631971230">
        <ele>2233.200</ele>
        <time>2019-07-14T20:58:09Z</time>
      </trkpt>
      <trkpt lat="35.854541580" lon="-106.631979710">
        <ele>2234.500</ele>
        <time>2019-07-14T20:58:10Z</time>
      </trkpt>
      <trkpt lat="35.854664210" lon="-106.631976250">
        <ele>2236.600</ele>
        <time>2019-07-14T20:58:11Z</time>
      </trkpt>
      <trkpt lat="35.854791540" lon="-106.631954380">
        <ele>2237.500</ele>
        <time>2019-07-14T20:58:12Z</time>
      </trkpt>
      <trkpt lat="35.854912960" lon="-106.631896870">
        <ele>2238.000</ele>
        <time>2019-07-14T20:58:13Z</time>
      </trkpt>
      <trkpt lat="35.855036290" lon="-106.631869180">
        <ele>2238.800</ele>
        <time>2019-07-14T20:58:14Z</time>
      </trkpt>
      <trkpt lat="35.855156190" lon="-106.631809270">
        <ele>2241.600</ele>
        <time>2019-07-14T20:58:15Z</time>
      </trkpt>
      <trkpt lat="35.855269260" lon="-106.631750650">
        <ele>2241.400</ele>
        <time>2019-07-14T20:58:16Z</time>
      </trkpt>
      <trkpt lat="35.855373740" lon="-106.631670080">
        <ele>2243.200</ele>
        <time>2019-07-14T20:58:17Z</time>
      </trkpt>
      <trkpt lat="35.855477690" lon="-106.631613590">
        <ele>2244.200</ele>
        <time>2019-07-14T20:58:18Z</time>
      </trkpt>
      <trkpt lat="35.855564890" lon="-106.631555930">
        <ele>2245.100</ele>
        <time>2019-07-14T20:58:19Z</time>
      </trkpt>
      <trkpt lat="35.855710130" lon="-106.631511560">
        <ele>2245.800</ele>
        <time>2019-07-14T20:58:20Z</time>
      </trkpt>
      <trkpt lat="35.855865090" lon="-106.631450960">
        <ele>2247.600</ele>
        <time>2019-07-14T20:58:21Z</time>
      </trkpt>
      <trkpt lat="35.855986550" lon="-106.631393930">
        <ele>2249.000</ele>
        <time>2019-07-14T20:58:22Z</time>
      </trkpt>
      <trkpt lat="35.856114770" lon="-106.631347580">
        <ele>2250.500</ele>
        <time>2019-07-14T20:58:23Z</time>
      </trkpt>
      <trkpt lat="35.856223240" lon="-106.631266550">
        <ele>2251.900</ele>
        <time>2019-07-14T20:58:24Z</time>
      </trkpt>
      <trkpt lat="35.856351660" lon="-106.631219420">
        <ele>2253.400</ele>
        <time>2019-07-14T20:58:25Z</time>
      </trkpt>
      <trkpt lat="35.856476380" lon="-106.631172870">
        <ele>2254.000</ele>
        <time>2019-07-14T20:58:26Z</time>
      </trkpt>
      <trkpt lat="35.856599960" lon="-106.631128900">
        <ele>2254.800</ele>
        <time>2019-07-14T20:58:27Z</time>
      </trkpt>
      <trkpt lat="35.856716290" lon="-106.631071580">
        <ele>2256.300</ele>
        <time>2019-07-14T20:58:28Z</time>
      </trkpt>
      <trkpt lat="35.856833800" lon="-106.631034610">
        <ele>2254.700</ele>
        <time>2019-07-14T20:58:29Z</time>
      </trkpt>
      <trkpt lat="35.856958470" lon="-106.630986740">
        <ele>2256.200</ele>
        <time>2019-07-14T20:58:30Z</time>
      </trkpt>
      <trkpt lat="35.857082160" lon="-106.630933450">
        <ele>2257.900</ele>
        <time>2019-07-14T20:58:31Z</time>
      </trkpt>
      <trkpt lat="35.857206340" lon="-106.630894060">
        <ele>2257.400</ele>
        <time>2019-07-14T20:58:32Z</time>
      </trkpt>
      <trkpt lat="35.857329700" lon="-106.630846980">
        <ele>2258.400</ele>
        <time>2019-07-14T20:58:33Z</time>
      </trkpt>
      <trkpt lat="35.857456500" lon="-106.630827210">
        <ele>2260.400</ele>
        <time>2019-07-14T20:58:34Z</time>
      </trkpt>
      <trkpt lat="35.857582370" lon="-106.630814280">
        <ele>2260.800</ele>
        <time>2019-07-14T20:58:35Z</time>
      </trkpt>
      <trkpt lat="35.857712750" lon="-106.630823330">
        <ele>2261.800</ele>
        <time>2019-07-14T20:58:36Z</time>
      </trkpt>
      <trkpt lat="35.857840670" lon="-106.630839550">
        <ele>2261.600</ele>
        <time>2019-07-14T20:58:37Z</time>
      </trkpt>
      <trkpt lat="35.857963250" lon="-106.630868210">
        <ele>2263.000</ele>
        <time>2019-07-14T20:58:38Z</time>
      </trkpt>
      <trkpt lat="35.858085420" lon="-106.630908030">
        <ele>2263.700</ele>
        <time>2019-07-14T20:58:39Z</time>
      </trkpt>
      <trkpt lat="35.858209680" lon="-106.630950780">
        <ele>2263.700</ele>
        <time>2019-07-14T20:58:40Z</time>
      </trkpt>
      <trkpt lat="35.858327330" lon="-106.631004520">
        <ele>2265.200</ele>
        <time>2019-07-14T20:58:41Z</time>
      </trkpt>
      <trkpt lat="35.858445960" lon="-106.631062480">
        <ele>2267.300</ele>
        <time>2019-07-14T20:58:42Z</time>
      </trkpt>
      <trkpt lat="35.858571610" lon="-106.631122630">
        <ele>2268.300</ele>
        <time>2019-07-14T20:58:43Z</time>
      </trkpt>
      <trkpt lat="35.858693920" lon="-106.631187830">
        <ele>2268.800</ele>
        <time>2019-07-14T20:58:44Z</time>
      </trkpt>
      <trkpt lat="35.858814420" lon="-106.631253920">
        <ele>2270.200</ele>
        <time>2019-07-14T20:58:45Z</time>
      </trkpt>
      <trkpt lat="35.858933730" lon="-106.631324600">
        <ele>2271.300</ele>
        <time>2019-07-14T20:58:46Z</time>
      </trkpt>
      <trkpt lat="35.859052320" lon="-106.631400070">
        <ele>2272.200</ele>
        <time>2019-07-14T20:58:47Z</time>
      </trkpt>
      <trkpt lat="35.859166450" lon="-106.631490310">
        <ele>2273.300</ele>
        <time>2019-07-14T20:58:48Z</time>
      </trkpt>
      <trkpt lat="35.859272730" lon="-106.631596780">
        <ele>2271.500</ele>
        <time>2019-07-14T20:58:49Z</time>
      </trkpt>
      <trkpt lat="35.859380630" lon="-106.631699520">
        <ele>2270.700</ele>
        <time>2019-07-14T20:58:50Z</time>
      </trkpt>
      <trkpt lat="35.859458750" lon="-106.631833490">
        <ele>2270.700</ele>
        <time>2019-07-14T20:58:51Z</time>
      </trkpt>
      <trkpt lat="35.859546370" lon="-106.631953400">
        <ele>2271.100</ele>
        <time>2019-07-14T20:58:52Z</time>
      </trkpt>
      <trkpt lat="35.859617060" lon="-106.632099690">
        <ele>2269.700</ele>
        <time>2019-07-14T20:58:53Z</time>
      </trkpt>
      <trkpt lat="35.859686090" lon="-106.632239870">
        <ele>2270.300</ele>
        <time>2019-07-14T20:58:54Z</time>
      </trkpt>
      <trkpt lat="35.859761840" lon="-106.632372070">
        <ele>2271.400</ele>
        <time>2019-07-14T20:58:55Z</time>
      </trkpt>
      <trkpt lat="35.859844700" lon="-106.632508220">
        <ele>2271.800</ele>
        <time>2019-07-14T20:58:56Z</time>
      </trkpt>
      <trkpt lat="35.859925630" lon="-106.632627300">
        <ele>2272.200</ele>
        <time>2019-07-14T20:58:57Z</time>
      </trkpt>
      <trkpt lat="35.860013580" lon="-106.632750480">
        <ele>2273.200</ele>
        <time>2019-07-14T20:58:58Z</time>
      </trkpt>
      <trkpt lat="35.860099450" lon="-106.632870120">
        <ele>2273.400</ele>
        <time>2019-07-14T20:58:59Z</time>
      </trkpt>
      <trkpt lat="35.860182770" lon="-106.632997260">
        <ele>2273.600</ele>
        <time>2019-07-14T20:59:00Z</time>
      </trkpt>
      <trkpt lat="35.860232540" lon="-106.633152000">
        <ele>2274.800</ele>
        <time>2019-07-14T20:59:01Z</time>
      </trkpt>
      <trkpt lat="35.860300420" lon="-106.633285910">
        <ele>2275.100</ele>
        <time>2019-07-14T20:59:02Z</time>
      </trkpt>
      <trkpt lat="35.860343630" lon="-106.633443460">
        <ele>2274.700</ele>
        <time>2019-07-14T20:59:03Z</time>
      </trkpt>
      <trkpt lat="35.860366120" lon="-106.633604320">
        <ele>2276.200</ele>
        <time>2019-07-14T20:59:04Z</time>
      </trkpt>
      <trkpt lat="35.860405420" lon="-106.633752750">
        <ele>2276.400</ele>
        <time>2019-07-14T20:59:05Z</time>
      </trkpt>
      <trkpt lat="35.860457400" lon="-106.633898730">
        <ele>2277.200</ele>
        <time>2019-07-14T20:59:06Z</time>
      </trkpt>
      <trkpt lat="35.860518390" lon="-106.634054850">
        <ele>2278.900</ele>
        <time>2019-07-14T20:59:07Z</time>
      </trkpt>
      <trkpt lat="35.860587850" lon="-106.634200700">
        <ele>2278.800</ele>
        <time>2019-07-14T20:59:08Z</time>
      </trkpt>
      <trkpt lat="35.860665430" lon="-106.634345790">
        <ele>2280.100</ele>
        <time>2019-07-14T20:59:09Z</time>
      </trkpt>
      <trkpt lat="35.860745800" lon="-106.634471880">
        <ele>2282.300</ele>
        <time>2019-07-14T20:59:10Z</time>
      </trkpt>
      <trkpt lat="35.860846420" lon="-106.634603690">
        <ele>2283.500</ele>
        <time>2019-07-14T20:59:11Z</time>
      </trkpt>
      <trkpt lat="35.860953580" lon="-106.634715580">
        <ele>2284.100</ele>
        <time>2019-07-14T20:59:12Z</time>
      </trkpt>
      <trkpt lat="35.861070500" lon="-106.634817300">
        <ele>2285.200</ele>
        <time>2019-07-14T20:59:13Z</time>
      </trkpt>
      <trkpt lat="35.861188440" lon="-106.634917040">
        <ele>2285.300</ele>
        <time>2019-07-14T20:59:14Z</time>
      </trkpt>
      <trkpt lat="35.861334590" lon="-106.634982520">
        <ele>2286.800</ele>
        <time>2019-07-14T20:59:15Z</time>
      </trkpt>
      <trkpt lat="35.861474170" lon="-106.635046620">
        <ele>2287.700</ele>
        <time>2019-07-14T20:59:16Z</time>
      </trkpt>
      <trkpt lat="35.861614410" lon="-106.635098690">
        <ele>2288.400</ele>
        <time>2019-07-14T20:59:17Z</time>
      </trkpt>
      <trkpt lat="35.861758480" lon="-106.635156380">
        <ele>2288.700</ele>
        <time>2019-07-14T20:59:18Z</time>
      </trkpt>
      <trkpt lat="35.861907150" lon="-106.635210560">
        <ele>2290.100</ele>
        <time>2019-07-14T20:59:19Z</time>
      </trkpt>
      <trkpt lat="35.862054840" lon="-106.635265970">
        <ele>2291.400</ele>
        <time>2019-07-14T20:59:20Z</time>
      </trkpt>
      <trkpt lat="35.862208510" lon="-106.635317230">
        <ele>2291.200</ele>
        <time>2019-07-14T20:59:21Z</time>
      </trkpt>
      <trkpt lat="35.862357260" lon="-106.635379800">
        <ele>2292.600</ele>
        <time>2019-07-14T20:59:22Z</time>
      </trkpt>
      <trkpt lat="35.862500590" lon="-106.635453890">
        <ele>2293.500</ele>
        <time>2019-07-14T20:59:23Z</time>
      </trkpt>
      <trkpt lat="35.862639400" lon="-106.635546670">
        <ele>2294.000</ele>
        <time>2019-07-14T20:59:24Z</time>
      </trkpt>
      <trkpt lat="35.862769180" lon="-106.635660800">
        <ele>2294.700</ele>
        <time>2019-07-14T20:59:25Z</time>
      </trkpt>
      <trkpt lat="35.862888340" lon="-106.635791730">
        <ele>2295.800</ele>
        <time>2019-07-14T20:59:26Z</time>
      </trkpt>
      <trkpt lat="35.862991930" lon="-106.635953140">
        <ele>2297.100</ele>
        <time>2019-07-14T20:59:27Z</time>
      </trkpt>
      <trkpt lat="35.863082710" lon="-106.636119990">
        <ele>2299.000</ele>
        <time>2019-07-14T20:59:28Z</time>
      </trkpt>
      <trkpt lat="35.863146520" lon="-106.636308220">
        <ele>2299.600</ele>
        <time>2019-07-14T20:59:29Z</time>
      </trkpt>
      <trkpt lat="35.863198490" lon="-106.636497820">
        <ele>2301.800</ele>
        <time>2019-07-14T20:59:30Z</time>
      </trkpt>
      <trkpt lat="35.863224960" lon="-106.636702280">
        <ele>2302.300</ele>
        <time>2019-07-14T20:59:31Z</time>
      </trkpt>
      <trkpt lat="35.863246350" lon="-106.636907090">
        <ele>2303.800</ele>
        <time>2019-07-14T20:59:32Z</time>
      </trkpt>
      <trkpt lat="35.863277260" lon="-106.637117100">
        <ele>2304.500</ele>
        <time>2019-07-14T20:59:33Z</time>
      </trkpt>
      <trkpt lat="35.863318940" lon="-106.637318540">
        <ele>2304.300</ele>
        <time>2019-07-14T20:59:34Z</time>
      </trkpt>
      <trkpt lat="35.863386320" lon="-106.637513860">
        <ele>2305.100</ele>
        <time>2019-07-14T20:59:35Z</time>
      </trkpt>
      <trkpt lat="35.863446620" lon="-106.637704220">
        <ele>2305.000</ele>
        <time>2019-07-14T20:59:36Z</time>
      </trkpt>
      <trkpt lat="35.863546070" lon="-106.637853910">
        <ele>2305.700</ele>
        <time>2019-07-14T20:59:37Z</time>
      </trkpt>
      <trkpt lat="35.863653020" lon="-106.638014750">
        <ele>2306.900</ele>
        <time>2019-07-14T20:59:38Z</time>
      </trkpt>
      <trkpt lat="35.863750970" lon="-106.638180870">
        <ele>2306.600</ele>
        <time>2019-07-14T20:59:39Z</time>
      </trkpt>
      <trkpt lat="35.863900250" lon="-106.638294940">
        <ele>2306.600</ele>
        <time>2019-07-14T20:59:40Z</time>
      </trkpt>
      <trkpt lat="35.864030690" lon="-106.638421300">
        <ele>2306.100</ele>
        <time>2019-07-14T20:59:41Z</time>
      </trkpt>
      <trkpt lat="35.864157220" lon="-106.638553740">
        <ele>2305.800</ele>
        <time>2019-07-14T20:59:42Z</time>
      </trkpt>
      <trkpt lat="35.864292750" lon="-106.638681770">
        <ele>2306.500</ele>
        <time>2019-07-14T20:59:43Z</time>
      </trkpt>
      <trkpt lat="35.864421720" lon="-106.638804890">
        <ele>2306.200</ele>
        <time>2019-07-14T20:59:44Z</time>
      </trkpt>
      <trkpt lat="35.864557260" lon="-106.638917170">
        <ele>2306.200</ele>
        <time>2019-07-14T20:59:45Z</time>
      </trkpt>
      <trkpt lat="35.864704880" lon="-106.639011980">
        <ele>2305.200</ele>
        <time>2019-07-14T20:59:46Z</time>
      </trkpt>
      <trkpt lat="35.864861730" lon="-106.639089000">
        <ele>2305.400</ele>
        <time>2019-07-14T20:59:47Z</time>
      </trkpt>
      <trkpt lat="35.865025410" lon="-106.639109610">
        <ele>2305.800</ele>
        <time>2019-07-14T20:59:48Z</time>
      </trkpt>
      <trkpt lat="35.865173500" lon="-106.639141590">
        <ele>2307.000</ele>
        <time>2019-07-14T20:59:49Z</time>
      </trkpt>
      <trkpt lat="35.865323610" lon="-106.639139210">
        <ele>2306.300</ele>
        <time>2019-07-14T20:59:50Z</time>
      </trkpt>
      <trkpt lat="35.865471990" lon="-106.639103290">
        <ele>2306.500</ele>
        <time>2019-07-14T20:59:51Z</time>
      </trkpt>
      <trkpt lat="35.865591660" lon="-106.639002750">
        <ele>2306.800</ele>
        <time>2019-07-14T20:59:52Z</time>
      </trkpt>
      <trkpt lat="35.865743710" lon="-106.638947830">
        <ele>2307.300</ele>
        <time>2019-07-14T20:59:53Z</time>
      </trkpt>
      <trkpt lat="35.865890000" lon="-106.638868850">
        <ele>2306.300</ele>
        <time>2019-07-14T20:59:54Z</time>
      </trkpt>
      <trkpt lat="35.866007200" lon="-106.638766360">
        <ele>2307.100</ele>
        <time>2019-07-14T20:59:55Z</time>
      </trkpt>
      <trkpt lat="35.866153760" lon="-106.638672780">
        <ele>2306.600</ele>
        <time>2019-07-14T20:59:56Z</time>
      </trkpt>
      <trkpt lat="35.866290650" lon="-106.638584210">
        <ele>2306.700</ele>
        <time>2019-07-14T20:59:57Z</time>
      </trkpt>
      <trkpt lat="35.866428530" lon="-106.638483790">
        <ele>2307.600</ele>
        <time>2019-07-14T20:59:58Z</time>
      </trkpt>
      <trkpt lat="35.866553820" lon="-106.638388700">
        <ele>2308.200</ele>
        <time>2019-07-14T20:59:59Z</time>
      </trkpt>
      <trkpt lat="35.866681190" lon="-106.638294920">
        <ele>2308.800</ele>
        <time>2019-07-14T21:00:00Z</time>
      </trkpt>
      <trkpt lat="35.866805380" lon="-106.638187520">
        <ele>2309.700</ele>
        <time>2019-07-14T21:00:01Z</time>
      </trkpt>
      <trkpt lat="35.866948960" lon="-106.638106810">
        <ele>2307.900</ele>
        <time>2019-07-14T21:00:02Z</time>
      </trkpt>
      <trkpt lat="35.867081540" lon="-106.638009380">
        <ele>2308.700</ele>
        <time>2019-07-14T21:00:03Z</time>
      </trkpt>
      <trkpt lat="35.867216380" lon="-106.637916700">
        <ele>2308.700</ele>
        <time>2019-07-14T21:00:04Z</time>
      </trkpt>
      <trkpt lat="35.867352410" lon="-106.637819520">
        <ele>2308.400</ele>
        <time>2019-07-14T21:00:05Z</time>
      </trkpt>
      <trkpt lat="35.867500440" lon="-106.637734740">
        <ele>2308.500</ele>
        <time>2019-07-14T21:00:06Z</time>
      </trkpt>
      <trkpt lat="35.867645790" lon="-106.637647400">
        <ele>2308.500</ele>
        <time>2019-07-14T21:00:07Z</time>
      </trkpt>
      <trkpt lat="35.867796140" lon="-106.637563370">
        <ele>2310.600</ele>
        <time>2019-07-14T21:00:08Z</time>
      </trkpt>
      <trkpt lat="35.867960720" lon="-106.637500440">
        <ele>2312.000</ele>
        <time>2019-07-14T21:00:09Z</time>
      </trkpt>
      <trkpt lat="35.868122280" lon="-106.637441230">
        <ele>2312.800</ele>
        <time>2019-07-14T21:00:10Z</time>
      </trkpt>
      <trkpt lat="35.868279770" lon="-106.637392920">
        <ele>2312.700</ele>
        <time>2019-07-14T21:00:11Z</time>
      </trkpt>
      <trkpt lat="35.868455990" lon="-106.637366770">
        <ele>2313.600</ele>
        <time>2019-07-14T21:00:12Z</time>
      </trkpt>
      <trkpt lat="35.868640990" lon="-106.637359880">
        <ele>2313.500</ele>
        <time>2019-07-14T21:00:13Z</time>
      </trkpt>
      <trkpt lat="35.868817740" lon="-106.637374390">
        <ele>2314.200</ele>
        <time>2019-07-14T21:00:14Z</time>
      </trkpt>
      <trkpt lat="35.868982980" lon="-106.637401720">
        <ele>2314.200</ele>
        <time>2019-07-14T21:00:15Z</time>
      </trkpt>
      <trkpt lat="35.869150160" lon="-106.637436950">
        <ele>2314.100</ele>
        <time>2019-07-14T21:00:16Z</time>
      </trkpt>
      <trkpt lat="35.869325360" lon="-106.637515120">
        <ele>2314.700</ele>
        <time>2019-07-14T21:00:17Z</time>
      </trkpt>
      <trkpt lat="35.869493710" lon="-106.637580910">
        <ele>2315.700</ele>
        <time>2019-07-14T21:00:18Z</time>
      </trkpt>
      <trkpt lat="35.869669020" lon="-106.637644180">
        <ele>2315.100</ele>
        <time>2019-07-14T21:00:19Z</time>
      </trkpt>
      <trkpt lat="35.869847510" lon="-106.637715550">
        <ele>2314.500</ele>
        <time>2019-07-14T21:00:20Z</time>
      </trkpt>
      <trkpt lat="35.870023230" lon="-106.637776120">
        <ele>2314.800</ele>
        <time>2019-07-14T21:00:21Z</time>
      </trkpt>
      <trkpt lat="35.870203640" lon="-106.637844550">
        <ele>2315.500</ele>
        <time>2019-07-14T21:00:22Z</time>
      </trkpt>
      <trkpt lat="35.870383730" lon="-106.637913850">
        <ele>2314.700</ele>
        <time>2019-07-14T21:00:23Z</time>
      </trkpt>
      <trkpt lat="35.870566590" lon="-106.637976080">
        <ele>2315.000</ele>
        <time>2019-07-14T21:00:24Z</time>
      </trkpt>
      <trkpt lat="35.870753630" lon="-106.638033850">
        <ele>2315.100</ele>
        <time>2019-07-14T21:00:25Z</time>
      </trkpt>
      <trkpt lat="35.870945050" lon="-106.638084490">
        <ele>2315.100</ele>
        <time>2019-07-14T21:00:26Z</time>
      </trkpt>
      <trkpt lat="35.871140120" lon="-106.638108590">
        <ele>2313.600</ele>
        <time>2019-07-14T21:00:27Z</time>
      </trkpt>
      <trkpt lat="35.871325470" lon="-106.638131460">
        <ele>2314.100</ele>
        <time>2019-07-14T21:00:28Z</time>
      </trkpt>
      <trkpt lat="35.871518760" lon="-106.638144530">
        <ele>2313.700</ele>
        <time>2019-07-14T21:00:29Z</time>
      </trkpt>
      <trkpt lat="35.871721060" lon="-106.638129070">
        <ele>2313.200</ele>
        <time>2019-07-14T21:00:30Z</time>
      </trkpt>
      <trkpt lat="35.871891600" lon="-106.638083660">
        <ele>2313.800</ele>
        <time>2019-07-14T21:00:31Z</time>
      </trkpt>
      <trkpt lat="35.872087820" lon="-106.638028150">
        <ele>2314.400</ele>
        <time>2019-07-14T21:00:32Z</time>
      </trkpt>
      <trkpt lat="35.872259170" lon="-106.637956260">
        <ele>2316.700</ele>
        <time>2019-07-14T21:00:33Z</time>
      </trkpt>
      <trkpt lat="35.872442310" lon="-106.637881570">
        <ele>2316.900</ele>
        <time>2019-07-14T21:00:34Z</time>
      </trkpt>
      <trkpt lat="35.872633520" lon="-106.637814740">
        <ele>2317.600</ele>
        <time>2019-07-14T21:00:35Z</time>
      </trkpt>
      <trkpt lat="35.872796240" lon="-106.637757560">
        <ele>2317.900</ele>
        <time>2019-07-14T21:00:36Z</time>
      </trkpt>
      <trkpt lat="35.872961580" lon="-106.637684330">
        <ele>2318.700</ele>
        <time>2019-07-14T21:00:37Z</time>
      </trkpt>
      <trkpt lat="35.873117350" lon="-106.637612710">
        <ele>2319.000</ele>
        <time>2019-07-14T21:00:38Z</time>
      </trkpt>
      <trkpt lat="35.873281080" lon="-106.637542590">
        <ele>2319.700</ele>
        <time>2019-07-14T21:00:39Z</time>
      </trkpt>
      <trkpt lat="35.873443440" lon="-106.637459720">
        <ele>2319.800</ele>
        <time>2019-07-14T21:00:40Z</time>
      </trkpt>
      <trkpt lat="35.873594990" lon="-106.637361310">
        <ele>2321.000</ele>
        <time>2019-07-14T21:00:41Z</time>
      </trkpt>
      <trkpt lat="35.873729400" lon="-106.637214400">
        <ele>2319.900</ele>
        <time>2019-07-14T21:00:42Z</time>
      </trkpt>
      <trkpt lat="35.873879050" lon="-106.637083310">
        <ele>2320.700</ele>
        <time>2019-07-14T21:00:43Z</time>
      </trkpt>
      <trkpt lat="35.874014290" lon="-106.636925070">
        <ele>2320.200</ele>
        <time>2019-07-14T21:00:44Z</time>
      </trkpt>
      <trkpt lat="35.874142930" lon="-106.636756310">
        <ele>2321.500</ele>
        <time>2019-07-14T21:00:45Z</time>
      </trkpt>
      <trkpt lat="35.874266040" lon="-106.636594020">
        <ele>2322.100</ele>
        <time>2019-07-14T21:00:46Z</time>
      </trkpt>
      <trkpt lat="35.874384410" lon="-106.636415430">
        <ele>2323.500</ele>
        <time>2019-07-14T21:00:47Z</time>
      </trkpt>
      <trkpt lat="35.874502910" lon="-106.636220840">
        <ele>2324.200</ele>
        <time>2019-07-14T21:00:48Z</time>
      </trkpt>
      <trkpt lat="35.874626950" lon="-106.636041390">
        <ele>2324.900</ele>
        <time>2019-07-14T21:00:49Z</time>
      </trkpt>
      <trkpt lat="35.874764310" lon="-106.635875060">
        <ele>2325.800</ele>
        <time>2019-07-14T21:00:50Z</time>
      </trkpt>
      <trkpt lat="35.874914150" lon="-106.635729680">
        <ele>2326.700</ele>
        <time>2019-07-14T21:00:51Z</time>
      </trkpt>
      <trkpt lat="35.875072550" lon="-106.635594820">
        <ele>2326.900</ele>
        <time>2019-07-14T21:00:52Z</time>
      </trkpt>
      <trkpt lat="35.875233950" lon="-106.635466750">
        <ele>2328.000</ele>
        <time>2019-07-14T21:00:53Z</time>
      </trkpt>
      <trkpt lat="35.875398020" lon="-106.635338180">
        <ele>2329.700</ele>
        <time>2019-07-14T21:00:54Z</time>
      </trkpt>
      <trkpt lat="35.875552970" lon="-106.635207800">
        <ele>2330.500</ele>
        <time>2019-07-14T21:00:55Z</time>
      </trkpt>
      <trkpt lat="35.875704850" lon="-106.635069680">
        <ele>2332.200</ele>
        <time>2019-07-14T21:00:56Z</time>
      </trkpt>
      <trkpt lat="35.875849360" lon="-106.634923320">
        <ele>2333.200</ele>
        <time>2019-07-14T21:00:57Z</time>
      </trkpt>
      <trkpt lat="35.875973580" lon="-106.634752300">
        <ele>2334.400</ele>
        <time>2019-07-14T21:00:58Z</time>
      </trkpt>
      <trkpt lat="35.876092270" lon="-106.634583390">
        <ele>2334.700</ele>
        <time>2019-07-14T21:00:59Z</time>
      </trkpt>
      <trkpt lat="35.876218400" lon="-106.634416610">
        <ele>2335.000</ele>
        <time>2019-07-14T21:01:00Z</time>
      </trkpt>
      <trkpt lat="35.876329330" lon="-106.634221110">
        <ele>2335.300</ele>
        <time>2019-07-14T21:01:01Z</time>
      </trkpt>
      <trkpt lat="35.876446700" lon="-106.634036360">
        <ele>2336.000</ele>
        <time>2019-07-14T21:01:02Z</time>
      </trkpt>
      <trkpt lat="35.876564370" lon="-106.633845410">
        <ele>2336.600</ele>
        <time>2019-07-14T21:01:03Z</time>
      </trkpt>
      <trkpt lat="35.876678280" lon="-106.633638020">
        <ele>2338.400</ele>
        <time>2019-07-14T21:01:04Z</time>
      </trkpt>
      <trkpt lat="35.876800750" lon="-106.633447300">
        <ele>2338.500</ele>
        <time>2019-07-14T21:01:05Z</time>
      </trkpt>
      <trkpt lat="35.876915990" lon="-106.633262110">
        <ele>2339.200</ele>
        <time>2019-07-14T21:01:06Z</time>
      </trkpt>
      <trkpt lat="35.877029220" lon="-106.633070570">
        <ele>2339.300</ele>
        <time>2019-07-14T21:01:07Z</time>
      </trkpt>
      <trkpt lat="35.877124960" lon="-106.632856970">
        <ele>2339.500</ele>
        <time>2019-07-14T21:01:08Z</time>
      </trkpt>
      <trkpt lat="35.877207610" lon="-106.632628690">
        <ele>2340.500</ele>
        <time>2019-07-14T21:01:09Z</time>
      </trkpt>
      <trkpt lat="35.877283930" lon="-106.632412000">
        <ele>2341.100</ele>
        <time>2019-07-14T21:01:10Z</time>
      </trkpt>
      <trkpt lat="35.877346970" lon="-106.632192340">
        <ele>2341.900</ele>
        <time>2019-07-14T21:01:11Z</time>
      </trkpt>
      <trkpt lat="35.877401050" lon="-106.631964280">
        <ele>2342.400</ele>
        <time>2019-07-14T21:01:12Z</time>
      </trkpt>
      <trkpt lat="35.877437240" lon="-106.631746080">
        <ele>2340.400</ele>
        <time>2019-07-14T21:01:13Z</time>
      </trkpt>
      <trkpt lat="35.877453700" lon="-106.631512120">
        <ele>2342.300</ele>
        <time>2019-07-14T21:01:14Z</time>
      </trkpt>
      <trkpt lat="35.877459640" lon="-106.631279360">
        <ele>2342.000</ele>
        <time>2019-07-14T21:01:15Z</time>
      </trkpt>
      <trkpt lat="35.877465760" lon="-106.631054800">
        <ele>2340.600</ele>
        <time>2019-07-14T21:01:16Z</time>
      </trkpt>
      <trkpt lat="35.877437190" lon="-106.630804980">
        <ele>2341.600</ele>
        <time>2019-07-14T21:01:17Z</time>
      </trkpt>
      <trkpt lat="35.877399210" lon="-106.630581590">
        <ele>2342.100</ele>
        <time>2019-07-14T21:01:18Z</time>
      </trkpt>
      <trkpt lat="35.877349600" lon="-106.630351180">
        <ele>2341.900</ele>
        <time>2019-07-14T21:01:19Z</time>
      </trkpt>
      <trkpt lat="35.877287030" lon="-106.630127570">
        <ele>2342.300</ele>
        <time>2019-07-14T21:01:20Z</time>
      </trkpt>
      <trkpt lat="35.877214090" lon="-106.629907530">
        <ele>2343.600</ele>
        <time>2019-07-14T21:01:21Z</time>
      </trkpt>
      <trkpt lat="35.877126490" lon="-106.629696550">
        <ele>2343.100</ele>
        <time>2019-07-14T21:01:22Z</time>
      </trkpt>
      <trkpt lat="35.877031090" lon="-106.629481980">
        <ele>2342.400</ele>
        <time>2019-07-14T21:01:23Z</time>
      </trkpt>
      <trkpt lat="35.876916290" lon="-106.629277510">
        <ele>2342.300</ele>
        <time>2019-07-14T21:01:24Z</time>
      </trkpt>
      <trkpt lat="35.876794160" lon="-106.629125380">
        <ele>2340.800</ele>
        <time>2019-07-14T21:01:25Z</time>
      </trkpt>
      <trkpt lat="35.876662560" lon="-106.628964000">
        <ele>2339.800</ele>
        <time>2019-07-14T21:01:26Z</time>
      </trkpt>
      <trkpt lat="35.876516050" lon="-106.628802740">
        <ele>2339.800</ele>
        <time>2019-07-14T21:01:27Z</time>
      </trkpt>
      <trkpt lat="35.876362910" lon="-106.628658030">
        <ele>2339.800</ele>
        <time>2019-07-14T21:01:28Z</time>
      </trkpt>
      <trkpt lat="35.876200360" lon="-106.628538870">
        <ele>2341.100</ele>
        <time>2019-07-14T21:01:29Z</time>
      </trkpt>
      <trkpt lat="35.876032160" lon="-106.628425520">
        <ele>2340.400</ele>
        <time>2019-07-14T21:01:30Z</time>
      </trkpt>
      <trkpt lat="35.875854380" lon="-106.628341720">
        <ele>2340.300</ele>
        <time>2019-07-14T21:01:31Z</time>
      </trkpt>
      <trkpt lat="35.875676030" lon="-106.628261630">
        <ele>2340.900</ele>
        <time>2019-07-14T21:01:32Z</time>
      </trkpt>
      <trkpt lat="35.875498140" lon="-106.628199460">
        <ele>2341.400</ele>
        <time>2019-07-14T21:01:33Z</time>
      </trkpt>
      <trkpt lat="35.875320040" lon="-106.628144670">
        <ele>2341.300</ele>
        <time>2019-07-14T21:01:34Z</time>
      </trkpt>
      <trkpt lat="35.875133780" lon="-106.628113740">
        <ele>2343.400</ele>
        <time>2019-07-14T21:01:35Z</time>
      </trkpt>
      <trkpt lat="35.874947300" lon="-106.628095630">
        <ele>2344.000</ele>
        <time>2019-07-14T21:01:36Z</time>
      </trkpt>
      <trkpt lat="35.874760010" lon="-106.628073950">
        <ele>2344.400</ele>
        <time>2019-07-14T21:01:37Z</time>
      </trkpt>
      <trkpt lat="35.874571800" lon="-106.628108910">
        <ele>2343.900</ele>
        <time>2019-07-14T21:01:38Z</time>
      </trkpt>
      <trkpt lat="35.874387220" lon="-106.628145170">
        <ele>2344.400</ele>
        <time>2019-07-14T21:01:39Z</time>
      </trkpt>
      <trkpt lat="35.874205270" lon="-106.628182360">
        <ele>2344.500</ele>
        <time>2019-07-14T21:01:40Z</time>
      </trkpt>
      <trkpt lat="35.874030240" lon="-106.628258140">
        <ele>2344.700</ele>
        <time>2019-07-14T21:01:41Z</time>
      </trkpt>
      <trkpt lat="35.873848770" lon="-106.628353730">
        <ele>2349.100</ele>
        <time>2019-07-14T21:01:42Z</time>
      </trkpt>
      <trkpt lat="35.873677030" lon="-106.628432730">
        <ele>2348.700</ele>
        <time>2019-07-14T21:01:43Z</time>
      </trkpt>
      <trkpt lat="35.873500840" lon="-106.628544500">
        <ele>2348.800</ele>
        <time>2019-07-14T21:01:44Z</time>
      </trkpt>
      <trkpt lat="35.873330210" lon="-106.628648000">
        <ele>2349.800</ele>
        <time>2019-07-14T21:01:45Z</time>
      </trkpt>
      <trkpt lat="35.873153890" lon="-106.628743300">
        <ele>2352.300</ele>
        <time>2019-07-14T21:01:46Z</time>
      </trkpt>
      <trkpt lat="35.872973840" lon="-106.628829320">
        <ele>2354.300</ele>
        <time>2019-07-14T21:01:47Z</time>
      </trkpt>
      <trkpt lat="35.872789530" lon="-106.628890250">
        <ele>2356.600</ele>
        <time>2019-07-14T21:01:48Z</time>
      </trkpt>
      <trkpt lat="35.872610430" lon="-106.628964010">
        <ele>2357.600</ele>
        <time>2019-07-14T21:01:49Z</time>
      </trkpt>
      <trkpt lat="35.872422590" lon="-106.629000540">
        <ele>2359.900</ele>
        <time>2019-07-14T21:01:50Z</time>
      </trkpt>
      <trkpt lat="35.872230740" lon="-106.629021860">
        <ele>2361.900</ele>
        <time>2019-07-14T21:01:51Z</time>
      </trkpt>
      <trkpt lat="35.872044170" lon="-106.629022440">
        <ele>2362.600</ele>
        <time>2019-07-14T21:01:52Z</time>
      </trkpt>
      <trkpt lat="35.871855900" lon="-106.629021540">
        <ele>2364.300</ele>
        <time>2019-07-14T21:01:53Z</time>
      </trkpt>
      <trkpt lat="35.871661170" lon="-106.629007300">
        <ele>2364.500</ele>
        <time>2019-07-14T21:01:54Z</time>
      </trkpt>
      <trkpt lat="35.871470860" lon="-106.628989290">
        <ele>2363.800</ele>
        <time>2019-07-14T21:01:55Z</time>
      </trkpt>
      <trkpt lat="35.871274030" lon="-106.628980190">
        <ele>2363.600</ele>
        <time>2019-07-14T21:01:56Z</time>
      </trkpt>
      <trkpt lat="35.871083480" lon="-106.628974970">
        <ele>2364.600</ele>
        <time>2019-07-14T21:01:57Z</time>
      </trkpt>
      <trkpt lat="35.870889280" lon="-106.628971980">
        <ele>2366.000</ele>
        <time>2019-07-14T21:01:58Z</time>
      </trkpt>
      <trkpt lat="35.870696530" lon="-106.628979480">
        <ele>2367.500</ele>
        <time>2019-07-14T21:01:59Z</time>
      </trkpt>
      <trkpt lat="35.870507210" lon="-106.628995160">
        <ele>2369.000</ele>
        <time>2019-07-14T21:02:00Z</time>
      </trkpt>
      <trkpt lat="35.870316570" lon="-106.629019640">
        <ele>2370.400</ele>
        <time>2019-07-14T21:02:01Z</time>
      </trkpt>
      <trkpt lat="35.870135320" lon="-106.629067000">
        <ele>2371.900</ele>
        <time>2019-07-14T21:02:02Z</time>
      </trkpt>
      <trkpt lat="35.869948120" lon="-106.629125570">
        <ele>2373.700</ele>
        <time>2019-07-14T21:02:03Z</time>
      </trkpt>
      <trkpt lat="35.869769990" lon="-106.629171290">
        <ele>2374.400</ele>
        <time>2019-07-14T21:02:04Z</time>
      </trkpt>
      <trkpt lat="35.869592320" lon="-106.629232190">
        <ele>2376.600</ele>
        <time>2019-07-14T21:02:05Z</time>
      </trkpt>
      <trkpt lat="35.869409860" lon="-106.629304690">
        <ele>2378.600</ele>
        <time>2019-07-14T21:02:06Z</time>
      </trkpt>
      <trkpt lat="35.869231540" lon="-106.629388900">
        <ele>2380.900</ele>
        <time>2019-07-14T21:02:07Z</time>
      </trkpt>
      <trkpt lat="35.869054080" lon="-106.629480770">
        <ele>2383.900</ele>
        <time>2019-07-14T21:02:08Z</time>
      </trkpt>
      <trkpt lat="35.868882040" lon="-106.629573410">
        <ele>2383.400</ele>
        <time>2019-07-14T21:02:09Z</time>
      </trkpt>
      <trkpt lat="35.868703620" lon="-106.629674300">
        <ele>2385.100</ele>
        <time>2019-07-14T21:02:10Z</time>
      </trkpt>
      <trkpt lat="35.868530650" lon="-106.629777830">
        <ele>2386.700</ele>
        <time>2019-07-14T21:02:11Z</time>
      </trkpt>
      <trkpt lat="35.868356700" lon="-106.629888710">
        <ele>2387.600</ele>
        <time>2019-07-14T21:02:12Z</time>
      </trkpt>
      <trkpt lat="35.868187570" lon="-106.630014540">
        <ele>2387.800</ele>
        <time>2019-07-14T21:02:13Z</time>
      </trkpt>
      <trkpt lat="35.868010400" lon="-106.630122880">
        <ele>2389.200</ele>
        <time>2019-07-14T21:02:14Z</time>
      </trkpt>
      <trkpt lat="35.867836300" lon="-106.630241020">
        <ele>2390.600</ele>
        <time>2019-07-14T21:02:15Z</time>
      </trkpt>
      <trkpt lat="35.867673940" lon="-106.630337660">
        <ele>2392.600</ele>
        <time>2019-07-14T21:02:16Z</time>
      </trkpt>
      <trkpt lat="35.867498010" lon="-106.630459650">
        <ele>2393.400</ele>
        <time>2019-07-14T21:02:17Z</time>
      </trkpt>
      <trkpt lat="35.867331490" lon="-106.630569210">
        <ele>2393.900</ele>
        <time>2019-07-14T21:02:18Z</time>
      </trkpt>
      <trkpt lat="35.867152530" lon="-106.630651420">
        <ele>2395.800</ele>
        <time>2019-07-14T21:02:19Z</time>
      </trkpt>
      <trkpt lat="35.866978260" lon="-106.630720930">
        <ele>2399.700</ele>
        <time>2019-07-14T21:02:20Z</time>
      </trkpt>
      <trkpt lat="35.866797780" lon="-106.630787400">
        <ele>2401.200</ele>
        <time>2019-07-14T21:02:21Z</time>
      </trkpt>
      <trkpt lat="35.866614540" lon="-106.630848820">
        <ele>2403.600</ele>
        <time>2019-07-14T21:02:22Z</time>
      </trkpt>
      <trkpt lat="35.866425180" lon="-106.630899050">
        <ele>2405.900</ele>
        <time>2019-07-14T21:02:23Z</time>
      </trkpt>
      <trkpt lat="35.866232510" lon="-106.630923780">
        <ele>2407.800</ele>
        <time>2019-07-14T21:02:24Z</time>
      </trkpt>
      <trkpt lat="35.866039020" lon="-106.630940460">
        <ele>2410.300</ele>
        <time>2019-07-14T21:02:25Z</time>
      </trkpt>
      <trkpt lat="35.865849150" lon="-106.630959470">
        <ele>2413.300</ele>
        <time>2019-07-14T21:02:26Z</time>
      </trkpt>
      <trkpt lat="35.865657540" lon="-106.630954580">
        <ele>2413.600</ele>
        <time>2019-07-14T21:02:27Z</time>
      </trkpt>
      <trkpt lat="35.865462400" lon="-106.630948160">
        <ele>2416.600</ele>
        <time>2019-07-14T21:02:28Z</time>
      </trkpt>
      <trkpt lat="35.865274850" lon="-106.630923560">
        <ele>2418.000</ele>
        <time>2019-07-14T21:02:29Z</time>
      </trkpt>
      <trkpt lat="35.865078760" lon="-106.630894040">
        <ele>2418.900</ele>
        <time>2019-07-14T21:02:30Z</time>
      </trkpt>
      <trkpt lat="35.864894330" lon="-106.630847560">
        <ele>2422.900</ele>
        <time>2019-07-14T21:02:31Z</time>
      </trkpt>
      <trkpt lat="35.864704820" lon="-106.630795420">
        <ele>2424.000</ele>
        <time>2019-07-14T21:02:32Z</time>
      </trkpt>
      <trkpt lat="35.864519720" lon="-106.630724820">
        <ele>2424.700</ele>
        <time>2019-07-14T21:02:33Z</time>
      </trkpt>
      <trkpt lat="35.864341860" lon="-106.630641910">
        <ele>2425.300</ele>
        <time>2019-07-14T21:02:34Z</time>
      </trkpt>
      <trkpt lat="35.864163190" lon="-106.630548500">
        <ele>2425.400</ele>
        <time>2019-07-14T21:02:35Z</time>
      </trkpt>
      <trkpt lat="35.863990670" lon="-106.630451920">
        <ele>2426.500</ele>
        <time>2019-07-14T21:02:36Z</time>
      </trkpt>
      <trkpt lat="35.863821760" lon="-106.630336800">
        <ele>2427.600</ele>
        <time>2019-07-14T21:02:37Z</time>
      </trkpt>
      <trkpt lat="35.863658340" lon="-106.630223210">
        <ele>2428.000</ele>
        <time>2019-07-14T21:02:38Z</time>
      </trkpt>
      <trkpt lat="35.863492810" lon="-106.630107110">
        <ele>2428.500</ele>
        <time>2019-07-14T21:02:39Z</time>
      </trkpt>
      <trkpt lat="35.863326770" lon="-106.629984510">
        <ele>2429.400</ele>
        <time>2019-07-14T21:02:40Z</time>
      </trkpt>
      <trkpt lat="35.863162420" lon="-106.629861890">
        <ele>2429.800</ele>
        <time>2019-07-14T21:02:41Z</time>
      </trkpt>
      <trkpt lat="35.862989850" lon="-106.629728650">
        <ele>2428.700</ele>
        <time>2019-07-14T21:02:42Z</time>
      </trkpt>
      <trkpt lat="35.862828330" lon="-106.629585220">
        <ele>2430.700</ele>
        <time>2019-07-14T21:02:43Z</time>
      </trkpt>
      <trkpt lat="35.862649260" lon="-106.629449200">
        <ele>2431.700</ele>
        <time>2019-07-14T21:02:44Z</time>
      </trkpt>
      <trkpt lat="35.862479750" lon="-106.629312530">
        <ele>2432.400</ele>
        <time>2019-07-14T21:02:45Z</time>
      </trkpt>
      <trkpt lat="35.862301180" lon="-106.629182480">
        <ele>2433.200</ele>
        <time>2019-07-14T21:02:46Z</time>
      </trkpt>
      <trkpt lat="35.862128050" lon="-106.629044690">
        <ele>2432.400</ele>
        <time>2019-07-14T21:02:47Z</time>
      </trkpt>
      <trkpt lat="35.861949040" lon="-106.628910990">
        <ele>2433.400</ele>
        <time>2019-07-14T21:02:48Z</time>
      </trkpt>
      <trkpt lat="35.861772080" lon="-106.628777890">
        <ele>2434.000</ele>
        <time>2019-07-14T21:02:49Z</time>
      </trkpt>
      <trkpt lat="35.861592630" lon="-106.628650190">
        <ele>2435.200</ele>
        <time>2019-07-14T21:02:50Z</time>
      </trkpt>
      <trkpt lat="35.861413560" lon="-106.628511630">
        <ele>2435.900</ele>
        <time>2019-07-14T21:02:51Z</time>
      </trkpt>
      <trkpt lat="35.861240830" lon="-106.628382280">
        <ele>2435.800</ele>
        <time>2019-07-14T21:02:52Z</time>
      </trkpt>
      <trkpt lat="35.861062470" lon="-106.628240220">
        <ele>2436.200</ele>
        <time>2019-07-14T21:02:53Z</time>
      </trkpt>
      <trkpt lat="35.860890370" lon="-106.628109770">
        <ele>2436.100</ele>
        <time>2019-07-14T21:02:54Z</time>
      </trkpt>
      <trkpt lat="35.860714490" lon="-106.627988820">
        <ele>2434.900</ele>
        <time>2019-07-14T21:02:55Z</time>
      </trkpt>
      <trkpt lat="35.860537390" lon="-106.627848830">
        <ele>2434.700</ele>
        <time>2019-07-14T21:02:56Z</time>
      </trkpt>
      <trkpt lat="35.860356610" lon="-106.627713150">
        <ele>2435.700</ele>
        <time>2019-07-14T21:02:57Z</time>
      </trkpt>
      <trkpt lat="35.860180560" lon="-106.627587670">
        <ele>2437.200</ele>
        <time>2019-07-14T21:02:58Z</time>
      </trkpt>
      <trkpt lat="35.860000030" lon="-106.627459760">
        <ele>2439.400</ele>
        <time>2019-07-14T21:02:59Z</time>
      </trkpt>
      <trkpt lat="35.859823880" lon="-106.627320860">
        <ele>2439.300</ele>
        <time>2019-07-14T21:03:00Z</time>
      </trkpt>
      <trkpt lat="35.859648190" lon="-106.627176650">
        <ele>2439.000</ele>
        <time>2019-07-14T21:03:01Z</time>
      </trkpt>
      <trkpt lat="35.859469540" lon="-106.627039670">
        <ele>2439.200</ele>
        <time>2019-07-14T21:03:02Z</time>
      </trkpt>
      <trkpt lat="35.859293750" lon="-106.626908530">
        <ele>2441.100</ele>
        <time>2019-07-14T21:03:03Z</time>
      </trkpt>
      <trkpt lat="35.859117920" lon="-106.626777300">
        <ele>2441.200</ele>
        <time>2019-07-14T21:03:04Z</time>
      </trkpt>
      <trkpt lat="35.858942910" lon="-106.626644720">
        <ele>2441.800</ele>
        <time>2019-07-14T21:03:05Z</time>
      </trkpt>
      <trkpt lat="35.858766880" lon="-106.626499850">
        <ele>2441.700</ele>
        <time>2019-07-14T21:03:06Z</time>
      </trkpt>
      <trkpt lat="35.858589710" lon="-106.626362670">
        <ele>2442.500</ele>
        <time>2019-07-14T21:03:07Z</time>
      </trkpt>
      <trkpt lat="35.858411460" lon="-106.626231610">
        <ele>2443.400</ele>
        <time>2019-07-14T21:03:08Z</time>
      </trkpt>
      <trkpt lat="35.858240590" lon="-106.626091380">
        <ele>2442.900</ele>
        <time>2019-07-14T21:03:09Z</time>
      </trkpt>
      <trkpt lat="35.858065840" lon="-106.625959050">
        <ele>2444.200</ele>
        <time>2019-07-14T21:03:10Z</time>
      </trkpt>
      <trkpt lat="35.857887820" lon="-106.625828840">
        <ele>2444.800</ele>
        <time>2019-07-14T21:03:11Z</time>
      </trkpt>
      <trkpt lat="35.857707360" lon="-106.625692580">
        <ele>2446.200</ele>
        <time>2019-07-14T21:03:12Z</time>
      </trkpt>
      <trkpt lat="35.857532600" lon="-106.625554980">
        <ele>2446.000</ele>
        <time>2019-07-14T21:03:13Z</time>
      </trkpt>
      <trkpt lat="35.857363390" lon="-106.625424160">
        <ele>2447.500</ele>
        <time>2019-07-14T21:03:14Z</time>
      </trkpt>
      <trkpt lat="35.857182950" lon="-106.625291230">
        <ele>2447.600</ele>
        <time>2019-07-14T21:03:15Z</time>
      </trkpt>
      <trkpt lat="35.857003770" lon="-106.625143390">
        <ele>2449.500</ele>
        <time>2019-07-14T21:03:16Z</time>
      </trkpt>
      <trkpt lat="35.856827710" lon="-106.625010030">
        <ele>2450.400</ele>
        <time>2019-07-14T21:03:17Z</time>
      </trkpt>
      <trkpt lat="35.856646400" lon="-106.624878640">
        <ele>2450.800</ele>
        <time>2019-07-14T21:03:18Z</time>
      </trkpt>
      <trkpt lat="35.856468500" lon="-106.624743880">
        <ele>2451.200</ele>
        <time>2019-07-14T21:03:19Z</time>
      </trkpt>
      <trkpt lat="35.856293170" lon="-106.624606360">
        <ele>2450.900</ele>
        <time>2019-07-14T21:03:20Z</time>
      </trkpt>
      <trkpt lat="35.856110220" lon="-106.624471250">
        <ele>2452.100</ele>
        <time>2019-07-14T21:03:21Z</time>
      </trkpt>
      <trkpt lat="35.855939780" lon="-106.624341570">
        <ele>2452.300</ele>
        <time>2019-07-14T21:03:22Z</time>
      </trkpt>
      <trkpt lat="35.855760950" lon="-106.624211870">
        <ele>2454.000</ele>
        <time>2019-07-14T21:03:23Z</time>
      </trkpt>
      <trkpt lat="35.855586360" lon="-106.624089160">
        <ele>2454.500</ele>
        <time>2019-07-14T21:03:24Z</time>
      </trkpt>
      <trkpt lat="35.855410740" lon="-106.623966120">
        <ele>2455.400</ele>
        <time>2019-07-14T21:03:25Z</time>
      </trkpt>
      <trkpt lat="35.855237470" lon="-106.623843540">
        <ele>2456.000</ele>
        <time>2019-07-14T21:03:26Z</time>
      </trkpt>
      <trkpt lat="35.855057030" lon="-106.623720330">
        <ele>2456.800</ele>
        <time>2019-07-14T21:03:27Z</time>
      </trkpt>
      <trkpt lat="35.854875860" lon="-106.623603640">
        <ele>2457.600</ele>
        <time>2019-07-14T21:03:28Z</time>
      </trkpt>
      <trkpt lat="35.854689640" lon="-106.623491060">
        <ele>2457.100</ele>
        <time>2019-07-14T21:03:29Z</time>
      </trkpt>
      <trkpt lat="35.854503480" lon="-106.623389730">
        <ele>2457.800</ele>
        <time>2019-07-14T21:03:30Z</time>
      </trkpt>
      <trkpt lat="35.854310570" lon="-106.623287310">
        <ele>2457.600</ele>
        <time>2019-07-14T21:03:31Z</time>
      </trkpt>
      <trkpt lat="35.854116980" lon="-106.623191000">
        <ele>2458.100</ele>
        <time>2019-07-14T21:03:32Z</time>
      </trkpt>
      <trkpt lat="35.853925090" lon="-106.623096060">
        <ele>2458.600</ele>
        <time>2019-07-14T21:03:33Z</time>
      </trkpt>
      <trkpt lat="35.853730280" lon="-106.623000590">
        <ele>2458.200</ele>
        <time>2019-07-14T21:03:34Z</time>
      </trkpt>
      <trkpt lat="35.853538750" lon="-106.622907310">
        <ele>2459.000</ele>
        <time>2019-07-14T21:03:35Z</time>
      </trkpt>
      <trkpt lat="35.853341650" lon="-106.622803020">
        <ele>2457.700</ele>
        <time>2019-07-14T21:03:36Z</time>
      </trkpt>
      <trkpt lat="35.853136850" lon="-106.622702370">
        <ele>2458.600</ele>
        <time>2019-07-14T21:03:37Z</time>
      </trkpt>
      <trkpt lat="35.852937880" lon="-106.622605020">
        <ele>2458.300</ele>
        <time>2019-07-14T21:03:38Z</time>
      </trkpt>
      <trkpt lat="35.852737420" lon="-106.622509150">
        <ele>2458.700</ele>
        <time>2019-07-14T21:03:39Z</time>
      </trkpt>
      <trkpt lat="35.852533340" lon="-106.622415940">
        <ele>2459.300</ele>
        <time>2019-07-14T21:03:40Z</time>
      </trkpt>
      <trkpt lat="35.852329170" lon="-106.622319830">
        <ele>2459.700</ele>
        <time>2019-07-14T21:03:41Z</time>
      </trkpt>
      <trkpt lat="35.852129250" lon="-106.622210060">
        <ele>2459.200</ele>
        <time>2019-07-14T21:03:42Z</time>
      </trkpt>
      <trkpt lat="35.851923010" lon="-106.622111480">
        <ele>2458.700</ele>
        <time>2019-07-14T21:03:43Z</time>
      </trkpt>
      <trkpt lat="35.851715740" lon="-106.622011470">
        <ele>2459.400</ele>
        <time>2019-07-14T21:03:44Z</time>
      </trkpt>
      <trkpt lat="35.851508070" lon="-106.621914320">
        <ele>2459.500</ele>
        <time>2019-07-14T21:03:45Z</time>
      </trkpt>
      <trkpt lat="35.851305150" lon="-106.621813770">
        <ele>2460.200</ele>
        <time>2019-07-14T21:03:46Z</time>
      </trkpt>
      <trkpt lat="35.851098060" lon="-106.621710040">
        <ele>2460.800</ele>
        <time>2019-07-14T21:03:47Z</time>
      </trkpt>
      <trkpt lat="35.850901580" lon="-106.621618090">
        <ele>2462.100</ele>
        <time>2019-07-14T21:03:48Z</time>
      </trkpt>
      <trkpt lat="35.850689500" lon="-106.621517230">
        <ele>2462.500</ele>
        <time>2019-07-14T21:03:49Z</time>
      </trkpt>
      <trkpt lat="35.850486420" lon="-106.621419410">
        <ele>2463.100</ele>
        <time>2019-07-14T21:03:50Z</time>
      </trkpt>
      <trkpt lat="35.850280950" lon="-106.621321060">
        <ele>2463.600</ele>
        <time>2019-07-14T21:03:51Z</time>
      </trkpt>
      <trkpt lat="35.850080610" lon="-106.621215430">
        <ele>2463.400</ele>
        <time>2019-07-14T21:03:52Z</time>
      </trkpt>
      <trkpt lat="35.849876790" lon="-106.621119490">
        <ele>2462.900</ele>
        <time>2019-07-14T21:03:53Z</time>
      </trkpt>
      <trkpt lat="35.849672100" lon="-106.621024290">
        <ele>2462.900</ele>
        <time>2019-07-14T21:03:54Z</time>
      </trkpt>
      <trkpt lat="35.849466770" lon="-106.620929900">
        <ele>2463.000</ele>
        <time>2019-07-14T21:03:55Z</time>
      </trkpt>
      <trkpt lat="35.849264800" lon="-106.620831170">
        <ele>2462.700</ele>
        <time>2019-07-14T21:03:56Z</time>
      </trkpt>
      <trkpt lat="35.849058130" lon="-106.620734040">
        <ele>2463.300</ele>
        <time>2019-07-14T21:03:57Z</time>
      </trkpt>
      <trkpt lat="35.848854890" lon="-106.620633940">
        <ele>2463.100</ele>
        <time>2019-07-14T21:03:58Z</time>
      </trkpt>
      <trkpt lat="35.848646240" lon="-106.620539050">
        <ele>2464.000</ele>
        <time>2019-07-14T21:03:59Z</time>
      </trkpt>
      <trkpt lat="35.848441910" lon="-106.620441450">
        <ele>2463.700</ele>
        <time>2019-07-14T21:04:00Z</time>
      </trkpt>
      <trkpt lat="35.848236750" lon="-106.620350470">
        <ele>2463.900</ele>
        <time>2019-07-14T21:04:01Z</time>
      </trkpt>
      <trkpt lat="35.848033480" lon="-106.620249550">
        <ele>2464.400</ele>
        <time>2019-07-14T21:04:02Z</time>
      </trkpt>
      <trkpt lat="35.847828430" lon="-106.620153360">
        <ele>2464.300</ele>
        <time>2019-07-14T21:04:03Z</time>
      </trkpt>
      <trkpt lat="35.847627340" lon="-106.620054230">
        <ele>2463.800</ele>
        <time>2019-07-14T21:04:04Z</time>
      </trkpt>
      <trkpt lat="35.847421160" lon="-106.619962300">
        <ele>2463.600</ele>
        <time>2019-07-14T21:04:05Z</time>
      </trkpt>
      <trkpt lat="35.847217780" lon="-106.619859780">
        <ele>2463.400</ele>
        <time>2019-07-14T21:04:06Z</time>
      </trkpt>
      <trkpt lat="35.847015340" lon="-106.619763640">
        <ele>2462.900</ele>
        <time>2019-07-14T21:04:07Z</time>
      </trkpt>
      <trkpt lat="35.846812270" lon="-106.619658690">
        <ele>2462.000</ele>
        <time>2019-07-14T21:04:08Z</time>
      </trkpt>
      <trkpt lat="35.846604090" lon="-106.619557960">
        <ele>2463.000</ele>
        <time>2019-07-14T21:04:09Z</time>
      </trkpt>
      <trkpt lat="35.846394710" lon="-106.619461650">
        <ele>2463.100</ele>
        <time>2019-07-14T21:04:10Z</time>
      </trkpt>
      <trkpt lat="35.846193270" lon="-106.619361830">
        <ele>2463.000</ele>
        <time>2019-07-14T21:04:11Z</time>
      </trkpt>
      <trkpt lat="35.845993910" lon="-106.619258420">
        <ele>2463.400</ele>
        <time>2019-07-14T21:04:12Z</time>
      </trkpt>
      <trkpt lat="35.845786120" lon="-106.619160800">
        <ele>2463.700</ele>
        <time>2019-07-14T21:04:13Z</time>
      </trkpt>
      <trkpt lat="35.845583440" lon="-106.619061590">
        <ele>2462.400</ele>
        <time>2019-07-14T21:04:14Z</time>
      </trkpt>
      <trkpt lat="35.845379330" lon="-106.618969730">
        <ele>2461.900</ele>
        <time>2019-07-14T21:04:15Z</time>
      </trkpt>
      <trkpt lat="35.845169250" lon="-106.618887940">
        <ele>2462.700</ele>
        <time>2019-07-14T21:04:16Z</time>
      </trkpt>
      <trkpt lat="35.844961630" lon="-106.618806510">
        <ele>2462.800</ele>
        <time>2019-07-14T21:04:17Z</time>
      </trkpt>
      <trkpt lat="35.844752430" lon="-106.618735030">
        <ele>2463.100</ele>
        <time>2019-07-14T21:04:18Z</time>
      </trkpt>
      <trkpt lat="35.844538890" lon="-106.618669740">
        <ele>2463.200</ele>
        <time>2019-07-14T21:04:19Z</time>
      </trkpt>
      <trkpt lat="35.844329580" lon="-106.618613880">
        <ele>2462.700</ele>
        <time>2019-07-14T21:04:20Z</time>
      </trkpt>
      <trkpt lat="35.844119930" lon="-106.618565370">
        <ele>2463.400</ele>
        <time>2019-07-14T21:04:21Z</time>
      </trkpt>
      <trkpt lat="35.843916530" lon="-106.618532260">
        <ele>2460.700</ele>
        <time>2019-07-14T21:04:22Z</time>
      </trkpt>
      <trkpt lat="35.843704430" lon="-106.618487940">
        <ele>2462.800</ele>
        <time>2019-07-14T21:04:23Z</time>
      </trkpt>
      <trkpt lat="35.843496380" lon="-106.618448510">
        <ele>2463.900</ele>
        <time>2019-07-14T21:04:24Z</time>
      </trkpt>
      <trkpt lat="35.843283480" lon="-106.618424130">
        <ele>2464.600</ele>
        <time>2019-07-14T21:04:25Z</time>
      </trkpt>
      <trkpt lat="35.843079050" lon="-106.618391320">
        <ele>2465.700</ele>
        <time>2019-07-14T21:04:26Z</time>
      </trkpt>
      <trkpt lat="35.842867150" lon="-106.618358650">
        <ele>2467.100</ele>
        <time>2019-07-14T21:04:27Z</time>
      </trkpt>
      <trkpt lat="35.842653450" lon="-106.618316690">
        <ele>2467.300</ele>
        <time>2019-07-14T21:04:28Z</time>
      </trkpt>
      <trkpt lat="35.842436080" lon="-106.618279800">
        <ele>2468.700</ele>
        <time>2019-07-14T21:04:29Z</time>
      </trkpt>
      <trkpt lat="35.842215310" lon="-106.618239510">
        <ele>2468.900</ele>
        <time>2019-07-14T21:04:30Z</time>
      </trkpt>
      <trkpt lat="35.842008930" lon="-106.618196120">
        <ele>2469.000</ele>
        <time>2019-07-14T21:04:31Z</time>
      </trkpt>
      <trkpt lat="35.841782330" lon="-106.618149420">
        <ele>2469.300</ele>
        <time>2019-07-14T21:04:32Z</time>
      </trkpt>
      <trkpt lat="35.841564400" lon="-106.618112190">
        <ele>2470.100</ele>
        <time>2019-07-14T21:04:33Z</time>
      </trkpt>
      <trkpt lat="35.841341280" lon="-106.618080100">
        <ele>2471.400</ele>
        <time>2019-07-14T21:04:34Z</time>
      </trkpt>
      <trkpt lat="35.841123360" lon="-106.618053730">
        <ele>2472.000</ele>
        <time>2019-07-14T21:04:35Z</time>
      </trkpt>
      <trkpt lat="35.840910360" lon="-106.618010790">
        <ele>2471.700</ele>
        <time>2019-07-14T21:04:36Z</time>
      </trkpt>
      <trkpt lat="35.840692990" lon="-106.617980330">
        <ele>2472.200</ele>
        <time>2019-07-14T21:04:37Z</time>
      </trkpt>
      <trkpt lat="35.840466290" lon="-106.617943890">
        <ele>2472.400</ele>
        <time>2019-07-14T21:04:38Z</time>
      </trkpt>
      <trkpt lat="35.840250610" lon="-106.617921930">
        <ele>2472.700</ele>
        <time>2019-07-14T21:04:39Z</time>
      </trkpt>
      <trkpt lat="35.840035190" lon="-106.617891710">
        <ele>2473.700</ele>
        <time>2019-07-14T21:04:40Z</time>
      </trkpt>
      <trkpt lat="35.839809840" lon="-106.617865340">
        <ele>2474.900</ele>
        <time>2019-07-14T21:04:41Z</time>
      </trkpt>
      <trkpt lat="35.839587180" lon="-106.617838870">
        <ele>2476.400</ele>
        <time>2019-07-14T21:04:42Z</time>
      </trkpt>
      <trkpt lat="35.839366890" lon="-106.617810150">
        <ele>2476.800</ele>
        <time>2019-07-14T21:04:43Z</time>
      </trkpt>
      <trkpt lat="35.839125130" lon="-106.617799620">
        <ele>2478.800</ele>
        <time>2019-07-14T21:04:44Z</time>
      </trkpt>
      <trkpt lat="35.838902070" lon="-106.617765590">
        <ele>2477.800</ele>
        <time>2019-07-14T21:04:45Z</time>
      </trkpt>
      <trkpt lat="35.838674540" lon="-106.617742280">
        <ele>2479.500</ele>
        <time>2019-07-14T21:04:46Z</time>
      </trkpt>
      <trkpt lat="35.838454540" lon="-106.617716370">
        <ele>2479.100</ele>
        <time>2019-07-14T21:04:47Z</time>
      </trkpt>
      <trkpt lat="35.838228260" lon="-106.617681240">
        <ele>2480.000</ele>
        <time>2019-07-14T21:04:48Z</time>
      </trkpt>
      <trkpt lat="35.838005320" lon="-106.617649610">
        <ele>2480.600</ele>
        <time>2019-07-14T21:04:49Z</time>
      </trkpt>
      <trkpt lat="35.837781020" lon="-106.617620280">
        <ele>2480.500</ele>
        <time>2019-07-14T21:04:50Z</time>
      </trkpt>
      <trkpt lat="35.837557070" lon="-106.617592630">
        <ele>2479.900</ele>
        <time>2019-07-14T21:04:51Z</time>
      </trkpt>
      <trkpt lat="35.837337090" lon="-106.617569830">
        <ele>2479.700</ele>
        <time>2019-07-14T21:04:52Z</time>
      </trkpt>
      <trkpt lat="35.837120040" lon="-106.617538980">
        <ele>2478.500</ele>
        <time>2019-07-14T21:04:53Z</time>
      </trkpt>
      <trkpt lat="35.836903880" lon="-106.617519700">
        <ele>2478.500</ele>
        <time>2019-07-14T21:04:54Z</time>
      </trkpt>
      <trkpt lat="35.836683350" lon="-106.617491480">
        <ele>2479.500</ele>
        <time>2019-07-14T21:04:55Z</time>
      </trkpt>
      <trkpt lat="35.836478350" lon="-106.617456180">
        <ele>2478.200</ele>
        <time>2019-07-14T21:04:56Z</time>
      </trkpt>
      <trkpt lat="35.836262550" lon="-106.617388090">
        <ele>2477.000</ele>
        <time>2019-07-14T21:04:57Z</time>
      </trkpt>
      <trkpt lat="35.836043520" lon="-106.617320030">
        <ele>2476.600</ele>
        <time>2019-07-14T21:04:58Z</time>
      </trkpt>
      <trkpt lat="35.835832150" lon="-106.617239240">
        <ele>2476.800</ele>
        <time>2019-07-14T21:04:59Z</time>
      </trkpt>
      <trkpt lat="35.835626880" lon="-106.617133650">
        <ele>2476.500</ele>
        <time>2019-07-14T21:05:00Z</time>
      </trkpt>
      <trkpt lat="35.835425090" lon="-106.617023670">
        <ele>2476.600</ele>
        <time>2019-07-14T21:05:01Z</time>
      </trkpt>
      <trkpt lat="35.835229960" lon="-106.616894150">
        <ele>2475.800</ele>
        <time>2019-07-14T21:05:02Z</time>
      </trkpt>
      <trkpt lat="35.835041100" lon="-106.616758350">
        <ele>2475.800</ele>
        <time>2019-07-14T21:05:03Z</time>
      </trkpt>
      <trkpt lat="35.834856810" lon="-106.616615250">
        <ele>2476.400</ele>
        <time>2019-07-14T21:05:04Z</time>
      </trkpt>
      <trkpt lat="35.834680190" lon="-106.616450180">
        <ele>2477.000</ele>
        <time>2019-07-14T21:05:05Z</time>
      </trkpt>
      <trkpt lat="35.834514470" lon="-106.616265000">
        <ele>2477.500</ele>
        <time>2019-07-14T21:05:06Z</time>
      </trkpt>
      <trkpt lat="35.834356000" lon="-106.616091980">
        <ele>2478.200</ele>
        <time>2019-07-14T21:05:07Z</time>
      </trkpt>
      <trkpt lat="35.834216560" lon="-106.615878820">
        <ele>2480.400</ele>
        <time>2019-07-14T21:05:08Z</time>
      </trkpt>
      <trkpt lat="35.834086150" lon="-106.615673640">
        <ele>2478.300</ele>
        <time>2019-07-14T21:05:09Z</time>
      </trkpt>
      <trkpt lat="35.833955640" lon="-106.615464970">
        <ele>2479.900</ele>
        <time>2019-07-14T21:05:10Z</time>
      </trkpt>
      <trkpt lat="35.833829510" lon="-106.615238740">
        <ele>2480.000</ele>
        <time>2019-07-14T21:05:11Z</time>
      </trkpt>
      <trkpt lat="35.833725250" lon="-106.615004730">
        <ele>2480.100</ele>
        <time>2019-07-14T21:05:12Z</time>
      </trkpt>
      <trkpt lat="35.833625380" lon="-106.614784000">
        <ele>2477.900</ele>
        <time>2019-07-14T21:05:13Z</time>
      </trkpt>
      <trkpt lat="35.833536410" lon="-106.614533750">
        <ele>2478.200</ele>
        <time>2019-07-14T21:05:14Z</time>
      </trkpt>
      <trkpt lat="35.833444580" lon="-106.614279720">
        <ele>2476.400</ele>
        <time>2019-07-14T21:05:15Z</time>
      </trkpt>
      <trkpt lat="35.833368320" lon="-106.613975890">
        <ele>2475.400</ele>
        <time>2019-07-14T21:05:16Z</time>
      </trkpt>
      <trkpt lat="35.833332420" lon="-106.613710620">
        <ele>2475.800</ele>
        <time>2019-07-14T21:05:17Z</time>
      </trkpt>
      <trkpt lat="35.833290760" lon="-106.613456480">
        <ele>2475.700</ele>
        <time>2019-07-14T21:05:18Z</time>
      </trkpt>
      <trkpt lat="35.833258910" lon="-106.613185280">
        <ele>2476.800</ele>
        <time>2019-07-14T21:05:19Z</time>
      </trkpt>
      <trkpt lat="35.833221990" lon="-106.612923560">
        <ele>2476.800</ele>
        <time>2019-07-14T21:05:20Z</time>
      </trkpt>
      <trkpt lat="35.833187070" lon="-106.612656550">
        <ele>2477.100</ele>
        <time>2019-07-14T21:05:21Z</time>
      </trkpt>
      <trkpt lat="35.833158800" lon="-106.612387850">
        <ele>2477.600</ele>
        <time>2019-07-14T21:05:22Z</time>
      </trkpt>
      <trkpt lat="35.833125420" lon="-106.612123530">
        <ele>2477.900</ele>
        <time>2019-07-14T21:05:23Z</time>
      </trkpt>
      <trkpt lat="35.833092530" lon="-106.611857500">
        <ele>2478.400</ele>
        <time>2019-07-14T21:05:24Z</time>
      </trkpt>
      <trkpt lat="35.833072210" lon="-106.611592280">
        <ele>2477.200</ele>
        <time>2019-07-14T21:05:25Z</time>
      </trkpt>
      <trkpt lat="35.833033060" lon="-106.611315140">
        <ele>2474.700</ele>
        <time>2019-07-14T21:05:26Z</time>
      </trkpt>
      <trkpt lat="35.833010970" lon="-106.611056400">
        <ele>2472.500</ele>
        <time>2019-07-14T21:05:27Z</time>
      </trkpt>
      <trkpt lat="35.832979120" lon="-106.610788110">
        <ele>2472.100</ele>
        <time>2019-07-14T21:05:28Z</time>
      </trkpt>
      <trkpt lat="35.832941120" lon="-106.610520360">
        <ele>2471.800</ele>
        <time>2019-07-14T21:05:29Z</time>
      </trkpt>
      <trkpt lat="35.832895560" lon="-106.610251960">
        <ele>2471.700</ele>
        <time>2019-07-14T21:05:30Z</time>
      </trkpt>
      <trkpt lat="35.832839510" lon="-106.609980450">
        <ele>2470.900</ele>
        <time>2019-07-14T21:05:31Z</time>
      </trkpt>
      <trkpt lat="35.832785380" lon="-106.609722420">
        <ele>2470.400</ele>
        <time>2019-07-14T21:05:32Z</time>
      </trkpt>
      <trkpt lat="35.832720450" lon="-106.609457500">
        <ele>2468.400</ele>
        <time>2019-07-14T21:05:33Z</time>
      </trkpt>
      <trkpt lat="35.832639580" lon="-106.609192730">
        <ele>2467.000</ele>
        <time>2019-07-14T21:05:34Z</time>
      </trkpt>
      <trkpt lat="35.832556920" lon="-106.608930250">
        <ele>2467.000</ele>
        <time>2019-07-14T21:05:35Z</time>
      </trkpt>
      <trkpt lat="35.832461410" lon="-106.608679980">
        <ele>2463.400</ele>
        <time>2019-07-14T21:05:36Z</time>
      </trkpt>
      <trkpt lat="35.832359220" lon="-106.608430110">
        <ele>2459.900</ele>
        <time>2019-07-14T21:05:37Z</time>
      </trkpt>
      <trkpt lat="35.832248830" lon="-106.608180700">
        <ele>2458.400</ele>
        <time>2019-07-14T21:05:38Z</time>
      </trkpt>
      <trkpt lat="35.832124430" lon="-106.607935270">
        <ele>2457.100</ele>
        <time>2019-07-14T21:05:39Z</time>
      </trkpt>
      <trkpt lat="35.831984930" lon="-106.607693300">
        <ele>2455.000</ele>
        <time>2019-07-14T21:05:40Z</time>
      </trkpt>
      <trkpt lat="35.831855580" lon="-106.607447560">
        <ele>2454.100</ele>
        <time>2019-07-14T21:05:41Z</time>
      </trkpt>
      <trkpt lat="35.831716070" lon="-106.607208860">
        <ele>2452.200</ele>
        <time>2019-07-14T21:05:42Z</time>
      </trkpt>
      <trkpt lat="35.831586800" lon="-106.606967890">
        <ele>2451.100</ele>
        <time>2019-07-14T21:05:43Z</time>
      </trkpt>
      <trkpt lat="35.831453220" lon="-106.606730900">
        <ele>2451.700</ele>
        <time>2019-07-14T21:05:44Z</time>
      </trkpt>
      <trkpt lat="35.831315660" lon="-106.606499400">
        <ele>2450.900</ele>
        <time>2019-07-14T21:05:45Z</time>
      </trkpt>
      <trkpt lat="35.831182650" lon="-106.606261800">
        <ele>2449.900</ele>
        <time>2019-07-14T21:05:46Z</time>
      </trkpt>
      <trkpt lat="35.831049390" lon="-106.606040440">
        <ele>2449.300</ele>
        <time>2019-07-14T21:05:47Z</time>
      </trkpt>
      <trkpt lat="35.830917940" lon="-106.605810850">
        <ele>2447.200</ele>
        <time>2019-07-14T21:05:48Z</time>
      </trkpt>
      <trkpt lat="35.830782680" lon="-106.605587260">
        <ele>2444.700</ele>
        <time>2019-07-14T21:05:49Z</time>
      </trkpt>
      <trkpt lat="35.830654540" lon="-106.605356090">
        <ele>2442.600</ele>
        <time>2019-07-14T21:05:50Z</time>
      </trkpt>
      <trkpt lat="35.830520090" lon="-106.605136310">
        <ele>2443.100</ele>
        <time>2019-07-14T21:05:51Z</time>
      </trkpt>
      <trkpt lat="35.830389550" lon="-106.604913380">
        <ele>2443.200</ele>
        <time>2019-07-14T21:05:52Z</time>
      </trkpt>
      <trkpt lat="35.830255140" lon="-106.604682310">
        <ele>2443.500</ele>
        <time>2019-07-14T21:05:53Z</time>
      </trkpt>
      <trkpt lat="35.830150090" lon="-106.604453230">
        <ele>2440.500</ele>
        <time>2019-07-14T21:05:54Z</time>
      </trkpt>
      <trkpt lat="35.830028340" lon="-106.604223590">
        <ele>2441.100</ele>
        <time>2019-07-14T21:05:55Z</time>
      </trkpt>
      <trkpt lat="35.829922600" lon="-106.603977170">
        <ele>2439.400</ele>
        <time>2019-07-14T21:05:56Z</time>
      </trkpt>
      <trkpt lat="35.829820180" lon="-106.603734610">
        <ele>2438.600</ele>
        <time>2019-07-14T21:05:57Z</time>
      </trkpt>
      <trkpt lat="35.829710030" lon="-106.603490480">
        <ele>2437.300</ele>
        <time>2019-07-14T21:05:58Z</time>
      </trkpt>
      <trkpt lat="35.829618470" lon="-106.603232840">
        <ele>2435.600</ele>
        <time>2019-07-14T21:05:59Z</time>
      </trkpt>
      <trkpt lat="35.829531030" lon="-106.602971130">
        <ele>2435.600</ele>
        <time>2019-07-14T21:06:00Z</time>
      </trkpt>
      <trkpt lat="35.829447820" lon="-106.602708770">
        <ele>2435.600</ele>
        <time>2019-07-14T21:06:01Z</time>
      </trkpt>
      <trkpt lat="35.829372380" lon="-106.602443710">
        <ele>2435.300</ele>
        <time>2019-07-14T21:06:02Z</time>
      </trkpt>
      <trkpt lat="35.829312940" lon="-106.602168580">
        <ele>2433.100</ele>
        <time>2019-07-14T21:06:03Z</time>
      </trkpt>
      <trkpt lat="35.829256110" lon="-106.601878340">
        <ele>2430.000</ele>
        <time>2019-07-14T21:06:04Z</time>
      </trkpt>
      <trkpt lat="35.829197390" lon="-106.601603140">
        <ele>2429.200</ele>
        <time>2019-07-14T21:06:05Z</time>
      </trkpt>
      <trkpt lat="35.829149860" lon="-106.601329910">
        <ele>2429.100</ele>
        <time>2019-07-14T21:06:06Z</time>
      </trkpt>
      <trkpt lat="35.829123250" lon="-106.601034390">
        <ele>2427.400</ele>
        <time>2019-07-14T21:06:07Z</time>
      </trkpt>
      <trkpt lat="35.829075890" lon="-106.600756780">
        <ele>2427.300</ele>
        <time>2019-07-14T21:06:08Z</time>
      </trkpt>
      <trkpt lat="35.829034050" lon="-106.600484970">
        <ele>2427.300</ele>
        <time>2019-07-14T21:06:09Z</time>
      </trkpt>
      <trkpt lat="35.829001600" lon="-106.600206930">
        <ele>2427.700</ele>
        <time>2019-07-14T21:06:10Z</time>
      </trkpt>
      <trkpt lat="35.828962640" lon="-106.599936930">
        <ele>2427.500</ele>
        <time>2019-07-14T21:06:11Z</time>
      </trkpt>
      <trkpt lat="35.828924100" lon="-106.599663950">
        <ele>2428.000</ele>
        <time>2019-07-14T21:06:12Z</time>
      </trkpt>
      <trkpt lat="35.828873600" lon="-106.599390120">
        <ele>2428.100</ele>
        <time>2019-07-14T21:06:13Z</time>
      </trkpt>
      <trkpt lat="35.828847620" lon="-106.599136510">
        <ele>2427.600</ele>
        <time>2019-07-14T21:06:14Z</time>
      </trkpt>
      <trkpt lat="35.828815890" lon="-106.598878830">
        <ele>2427.800</ele>
        <time>2019-07-14T21:06:15Z</time>
      </trkpt>
      <trkpt lat="35.828789920" lon="-106.598623580">
        <ele>2427.900</ele>
        <time>2019-07-14T21:06:16Z</time>
      </trkpt>
      <trkpt lat="35.828750520" lon="-106.598357810">
        <ele>2428.700</ele>
        <time>2019-07-14T21:06:17Z</time>
      </trkpt>
      <trkpt lat="35.828711310" lon="-106.598090850">
        <ele>2428.000</ele>
        <time>2019-07-14T21:06:18Z</time>
      </trkpt>
      <trkpt lat="35.828681240" lon="-106.597823190">
        <ele>2427.800</ele>
        <time>2019-07-14T21:06:19Z</time>
      </trkpt>
      <trkpt lat="35.828642060" lon="-106.597562960">
        <ele>2427.500</ele>
        <time>2019-07-14T21:06:20Z</time>
      </trkpt>
      <trkpt lat="35.828607060" lon="-106.597302320">
        <ele>2426.900</ele>
        <time>2019-07-14T21:06:21Z</time>
      </trkpt>
      <trkpt lat="35.828567550" lon="-106.597036920">
        <ele>2426.400</ele>
        <time>2019-07-14T21:06:22Z</time>
      </trkpt>
      <trkpt lat="35.828536840" lon="-106.596774100">
        <ele>2426.100</ele>
        <time>2019-07-14T21:06:23Z</time>
      </trkpt>
      <trkpt lat="35.828500460" lon="-106.596502360">
        <ele>2425.600</ele>
        <time>2019-07-14T21:06:24Z</time>
      </trkpt>
      <trkpt lat="35.828460390" lon="-106.596232280">
        <ele>2425.400</ele>
        <time>2019-07-14T21:06:25Z</time>
      </trkpt>
      <trkpt lat="35.828427380" lon="-106.595966350">
        <ele>2425.700</ele>
        <time>2019-07-14T21:06:26Z</time>
      </trkpt>
      <trkpt lat="35.828395520" lon="-106.595704970">
        <ele>2425.700</ele>
        <time>2019-07-14T21:06:27Z</time>
      </trkpt>
      <trkpt lat="35.828372660" lon="-106.595433490">
        <ele>2425.900</ele>
        <time>2019-07-14T21:06:28Z</time>
      </trkpt>
      <trkpt lat="35.828337240" lon="-106.595171810">
        <ele>2425.500</ele>
        <time>2019-07-14T21:06:29Z</time>
      </trkpt>
      <trkpt lat="35.828305260" lon="-106.594903170">
        <ele>2425.800</ele>
        <time>2019-07-14T21:06:30Z</time>
      </trkpt>
      <trkpt lat="35.828272060" lon="-106.594639210">
        <ele>2425.700</ele>
        <time>2019-07-14T21:06:31Z</time>
      </trkpt>
      <trkpt lat="35.828236870" lon="-106.594364490">
        <ele>2425.800</ele>
        <time>2019-07-14T21:06:32Z</time>
      </trkpt>
      <trkpt lat="35.828210160" lon="-106.594103180">
        <ele>2426.800</ele>
        <time>2019-07-14T21:06:33Z</time>
      </trkpt>
      <trkpt lat="35.828185810" lon="-106.593826870">
        <ele>2426.400</ele>
        <time>2019-07-14T21:06:34Z</time>
      </trkpt>
      <trkpt lat="35.828160100" lon="-106.593553870">
        <ele>2425.300</ele>
        <time>2019-07-14T21:06:35Z</time>
      </trkpt>
      <trkpt lat="35.828136920" lon="-106.593278830">
        <ele>2422.100</ele>
        <time>2019-07-14T21:06:36Z</time>
      </trkpt>
      <trkpt lat="35.828113880" lon="-106.593011640">
        <ele>2421.200</ele>
        <time>2019-07-14T21:06:37Z</time>
      </trkpt>
      <trkpt lat="35.828083280" lon="-106.592738330">
        <ele>2418.400</ele>
        <time>2019-07-14T21:06:38Z</time>
      </trkpt>
      <trkpt lat="35.828066190" lon="-106.592454790">
        <ele>2416.600</ele>
        <time>2019-07-14T21:06:39Z</time>
      </trkpt>
      <trkpt lat="35.828038600" lon="-106.592179370">
        <ele>2414.700</ele>
        <time>2019-07-14T21:06:40Z</time>
      </trkpt>
      <trkpt lat="35.828014080" lon="-106.591901740">
        <ele>2412.900</ele>
        <time>2019-07-14T21:06:41Z</time>
      </trkpt>
      <trkpt lat="35.827985070" lon="-106.591622420">
        <ele>2412.000</ele>
        <time>2019-07-14T21:06:42Z</time>
      </trkpt>
      <trkpt lat="35.827956640" lon="-106.591328720">
        <ele>2411.700</ele>
        <time>2019-07-14T21:06:43Z</time>
      </trkpt>
      <trkpt lat="35.827915460" lon="-106.591040450">
        <ele>2411.200</ele>
        <time>2019-07-14T21:06:44Z</time>
      </trkpt>
      <trkpt lat="35.827857020" lon="-106.590763060">
        <ele>2410.500</ele>
        <time>2019-07-14T21:06:45Z</time>
      </trkpt>
      <trkpt lat="35.827792040" lon="-106.590480270">
        <ele>2409.100</ele>
        <time>2019-07-14T21:06:46Z</time>
      </trkpt>
      <trkpt lat="35.827731740" lon="-106.590185170">
        <ele>2409.400</ele>
        <time>2019-07-14T21:06:47Z</time>
      </trkpt>
      <trkpt lat="35.827580400" lon="-106.590019680">
        <ele>2408.900</ele>
        <time>2019-07-14T21:06:48Z</time>
      </trkpt>
      <trkpt lat="35.827432150" lon="-106.589812800">
        <ele>2406.200</ele>
        <time>2019-07-14T21:06:49Z</time>
      </trkpt>
      <trkpt lat="35.827261860" lon="-106.589607890">
        <ele>2406.400</ele>
        <time>2019-07-14T21:06:50Z</time>
      </trkpt>
      <trkpt lat="35.827066900" lon="-106.589492640">
        <ele>2407.600</ele>
        <time>2019-07-14T21:06:51Z</time>
      </trkpt>
      <trkpt lat="35.826876950" lon="-106.589395330">
        <ele>2409.000</ele>
        <time>2019-07-14T21:06:52Z</time>
      </trkpt>
      <trkpt lat="35.826687020" lon="-106.589286240">
        <ele>2410.900</ele>
        <time>2019-07-14T21:06:53Z</time>
      </trkpt>
      <trkpt lat="35.826468320" lon="-106.589195060">
        <ele>2410.500</ele>
        <time>2019-07-14T21:06:54Z</time>
      </trkpt>
      <trkpt lat="35.826255100" lon="-106.589141730">
        <ele>2409.800</ele>
        <time>2019-07-14T21:06:55Z</time>
      </trkpt>
      <trkpt lat="35.826047090" lon="-106.589134320">
        <ele>2409.700</ele>
        <time>2019-07-14T21:06:56Z</time>
      </trkpt>
      <trkpt lat="35.825847590" lon="-106.589231780">
        <ele>2410.900</ele>
        <time>2019-07-14T21:06:57Z</time>
      </trkpt>
      <trkpt lat="35.825638210" lon="-106.589261980">
        <ele>2411.900</ele>
        <time>2019-07-14T21:06:58Z</time>
      </trkpt>
      <trkpt lat="35.825434630" lon="-106.589286970">
        <ele>2413.300</ele>
        <time>2019-07-14T21:06:59Z</time>
      </trkpt>
      <trkpt lat="35.825230820" lon="-106.589310780">
        <ele>2413.400</ele>
        <time>2019-07-14T21:07:00Z</time>
      </trkpt>
      <trkpt lat="35.825025880" lon="-106.589341030">
        <ele>2414.500</ele>
        <time>2019-07-14T21:07:01Z</time>
      </trkpt>
      <trkpt lat="35.824823130" lon="-106.589375870">
        <ele>2413.500</ele>
        <time>2019-07-14T21:07:02Z</time>
      </trkpt>
      <trkpt lat="35.824611650" lon="-106.589405020">
        <ele>2416.300</ele>
        <time>2019-07-14T21:07:03Z</time>
      </trkpt>
      <trkpt lat="35.824395630" lon="-106.589432680">
        <ele>2418.100</ele>
        <time>2019-07-14T21:07:04Z</time>
      </trkpt>
      <trkpt lat="35.824180430" lon="-106.589465420">
        <ele>2419.100</ele>
        <time>2019-07-14T21:07:05Z</time>
      </trkpt>
      <trkpt lat="35.823961280" lon="-106.589495820">
        <ele>2419.300</ele>
        <time>2019-07-14T21:07:06Z</time>
      </trkpt>
      <trkpt lat="35.823733420" lon="-106.589522420">
        <ele>2419.300</ele>
        <time>2019-07-14T21:07:07Z</time>
      </trkpt>
      <trkpt lat="35.823512450" lon="-106.589556420">
        <ele>2420.600</ele>
        <time>2019-07-14T21:07:08Z</time>
      </trkpt>
      <trkpt lat="35.823294880" lon="-106.589590420">
        <ele>2423.600</ele>
        <time>2019-07-14T21:07:09Z</time>
      </trkpt>
      <trkpt lat="35.823075440" lon="-106.589622440">
        <ele>2425.800</ele>
        <time>2019-07-14T21:07:10Z</time>
      </trkpt>
      <trkpt lat="35.822862930" lon="-106.589682540">
        <ele>2427.400</ele>
        <time>2019-07-14T21:07:11Z</time>
      </trkpt>
      <trkpt lat="35.822664810" lon="-106.589767450">
        <ele>2427.700</ele>
        <time>2019-07-14T21:07:12Z</time>
      </trkpt>
      <trkpt lat="35.822457820" lon="-106.589855170">
        <ele>2426.300</ele>
        <time>2019-07-14T21:07:13Z</time>
      </trkpt>
      <trkpt lat="35.822292590" lon="-106.590039620">
        <ele>2427.100</ele>
        <time>2019-07-14T21:07:14Z</time>
      </trkpt>
      <trkpt lat="35.822118620" lon="-106.590182430">
        <ele>2426.800</ele>
        <time>2019-07-14T21:07:15Z</time>
      </trkpt>
      <trkpt lat="35.821937350" lon="-106.590350730">
        <ele>2426.700</ele>
        <time>2019-07-14T21:07:16Z</time>
      </trkpt>
      <trkpt lat="35.821760960" lon="-106.590500890">
        <ele>2428.100</ele>
        <time>2019-07-14T21:07:17Z</time>
      </trkpt>
      <trkpt lat="35.821582320" lon="-106.590676510">
        <ele>2428.400</ele>
        <time>2019-07-14T21:07:18Z</time>
      </trkpt>
      <trkpt lat="35.821400850" lon="-106.590834250">
        <ele>2430.100</ele>
        <time>2019-07-14T21:07:19Z</time>
      </trkpt>
      <trkpt lat="35.821221190" lon="-106.590996140">
        <ele>2429.400</ele>
        <time>2019-07-14T21:07:20Z</time>
      </trkpt>
      <trkpt lat="35.821036310" lon="-106.591145760">
        <ele>2429.900</ele>
        <time>2019-07-14T21:07:21Z</time>
      </trkpt>
      <trkpt lat="35.820854120" lon="-106.591307560">
        <ele>2430.900</ele>
        <time>2019-07-14T21:07:22Z</time>
      </trkpt>
      <trkpt lat="35.820662260" lon="-106.591464340">
        <ele>2431.700</ele>
        <time>2019-07-14T21:07:23Z</time>
      </trkpt>
      <trkpt lat="35.820471960" lon="-106.591554050">
        <ele>2431.900</ele>
        <time>2019-07-14T21:07:24Z</time>
      </trkpt>
      <trkpt lat="35.820300800" lon="-106.591594270">
        <ele>2434.800</ele>
        <time>2019-07-14T21:07:25Z</time>
      </trkpt>
      <trkpt lat="35.820095810" lon="-106.591640770">
        <ele>2434.900</ele>
        <time>2019-07-14T21:07:26Z</time>
      </trkpt>
      <trkpt lat="35.819862320" lon="-106.591626570">
        <ele>2434.000</ele>
        <time>2019-07-14T21:07:27Z</time>
      </trkpt>
      <trkpt lat="35.819656020" lon="-106.591627900">
        <ele>2434.000</ele>
        <time>2019-07-14T21:07:28Z</time>
      </trkpt>
      <trkpt lat="35.819429450" lon="-106.591575910">
        <ele>2435.400</ele>
        <time>2019-07-14T21:07:29Z</time>
      </trkpt>
      <trkpt lat="35.819214300" lon="-106.591520050">
        <ele>2434.300</ele>
        <time>2019-07-14T21:07:30Z</time>
      </trkpt>
      <trkpt lat="35.818995810" lon="-106.591437630">
        <ele>2434.000</ele>
        <time>2019-07-14T21:07:31Z</time>
      </trkpt>
      <trkpt lat="35.818780840" lon="-106.591369490">
        <ele>2433.800</ele>
        <time>2019-07-14T21:07:32Z</time>
      </trkpt>
      <trkpt lat="35.818582140" lon="-106.591223100">
        <ele>2432.900</ele>
        <time>2019-07-14T21:07:33Z</time>
      </trkpt>
      <trkpt lat="35.818370270" lon="-106.591118130">
        <ele>2432.500</ele>
        <time>2019-07-14T21:07:34Z</time>
      </trkpt>
      <trkpt lat="35.818156130" lon="-106.590986720">
        <ele>2432.900</ele>
        <time>2019-07-14T21:07:35Z</time>
      </trkpt>
      <trkpt lat="35.817936350" lon="-106.590858170">
        <ele>2432.900</ele>
        <time>2019-07-14T21:07:36Z</time>
      </trkpt>
      <trkpt lat="35.817720750" lon="-106.590674080">
        <ele>2434.200</ele>
        <time>2019-07-14T21:07:37Z</time>
      </trkpt>
      <trkpt lat="35.817651640" lon="-106.590365020">
        <ele>2434.300</ele>
        <time>2019-07-14T21:07:38Z</time>
      </trkpt>
      <trkpt lat="35.817575890" lon="-106.590123400">
        <ele>2433.600</ele>
        <time>2019-07-14T21:07:39Z</time>
      </trkpt>
      <trkpt lat="35.817479400" lon="-106.589874260">
        <ele>2434.200</ele>
        <time>2019-07-14T21:07:40Z</time>
      </trkpt>
      <trkpt lat="35.817417740" lon="-106.589638460">
        <ele>2432.500</ele>
        <time>2019-07-14T21:07:41Z</time>
      </trkpt>
      <trkpt lat="35.817357230" lon="-106.589382740">
        <ele>2431.000</ele>
        <time>2019-07-14T21:07:42Z</time>
      </trkpt>
      <trkpt lat="35.817290140" lon="-106.589139720">
        <ele>2428.900</ele>
        <time>2019-07-14T21:07:43Z</time>
      </trkpt>
      <trkpt lat="35.817223430" lon="-106.588900970">
        <ele>2427.800</ele>
        <time>2019-07-14T21:07:44Z</time>
      </trkpt>
      <trkpt lat="35.817159200" lon="-106.588671220">
        <ele>2428.600</ele>
        <time>2019-07-14T21:07:45Z</time>
      </trkpt>
      <trkpt lat="35.817094130" lon="-106.588436130">
        <ele>2429.800</ele>
        <time>2019-07-14T21:07:46Z</time>
      </trkpt>
      <trkpt lat="35.817027120" lon="-106.588206530">
        <ele>2430.800</ele>
        <time>2019-07-14T21:07:47Z</time>
      </trkpt>
      <trkpt lat="35.816959610" lon="-106.587976840">
        <ele>2431.200</ele>
        <time>2019-07-14T21:07:48Z</time>
      </trkpt>
      <trkpt lat="35.816886870" lon="-106.587747780">
        <ele>2431.500</ele>
        <time>2019-07-14T21:07:49Z</time>
      </trkpt>
      <trkpt lat="35.816808200" lon="-106.587508560">
        <ele>2428.500</ele>
        <time>2019-07-14T21:07:50Z</time>
      </trkpt>
      <trkpt lat="35.816703560" lon="-106.587298900">
        <ele>2431.300</ele>
        <time>2019-07-14T21:07:51Z</time>
      </trkpt>
      <trkpt lat="35.816601800" lon="-106.587087220">
        <ele>2431.800</ele>
        <time>2019-07-14T21:07:52Z</time>
      </trkpt>
      <trkpt lat="35.816487230" lon="-106.586879810">
        <ele>2432.600</ele>
        <time>2019-07-14T21:07:53Z</time>
      </trkpt>
      <trkpt lat="35.816375900" lon="-106.586694460">
        <ele>2431.500</ele>
        <time>2019-07-14T21:07:54Z</time>
      </trkpt>
      <trkpt lat="35.816247820" lon="-106.586496650">
        <ele>2431.800</ele>
        <time>2019-07-14T21:07:55Z</time>
      </trkpt>
      <trkpt lat="35.816128190" lon="-106.586295050">
        <ele>2430.700</ele>
        <time>2019-07-14T21:07:56Z</time>
      </trkpt>
      <trkpt lat="35.816000940" lon="-106.586101050">
        <ele>2431.700</ele>
        <time>2019-07-14T21:07:57Z</time>
      </trkpt>
      <trkpt lat="35.815877410" lon="-106.585901950">
        <ele>2433.500</ele>
        <time>2019-07-14T21:07:58Z</time>
      </trkpt>
      <trkpt lat="35.815751810" lon="-106.585706250">
        <ele>2435.100</ele>
        <time>2019-07-14T21:07:59Z</time>
      </trkpt>
      <trkpt lat="35.815623210" lon="-106.585498200">
        <ele>2435.500</ele>
        <time>2019-07-14T21:08:00Z</time>
      </trkpt>
      <trkpt lat="35.815531500" lon="-106.585294870">
        <ele>2436.600</ele>
        <time>2019-07-14T21:08:01Z</time>
      </trkpt>
      <trkpt lat="35.815429380" lon="-106.585072670">
        <ele>2440.400</ele>
        <time>2019-07-14T21:08:02Z</time>
      </trkpt>
      <trkpt lat="35.815349020" lon="-106.584842940">
        <ele>2443.700</ele>
        <time>2019-07-14T21:08:03Z</time>
      </trkpt>
      <trkpt lat="35.815268940" lon="-106.584603450">
        <ele>2444.800</ele>
        <time>2019-07-14T21:08:04Z</time>
      </trkpt>
      <trkpt lat="35.815199540" lon="-106.584362580">
        <ele>2446.500</ele>
        <time>2019-07-14T21:08:05Z</time>
      </trkpt>
      <trkpt lat="35.815132510" lon="-106.584121040">
        <ele>2446.700</ele>
        <time>2019-07-14T21:08:06Z</time>
      </trkpt>
      <trkpt lat="35.815084180" lon="-106.583876090">
        <ele>2447.300</ele>
        <time>2019-07-14T21:08:07Z</time>
      </trkpt>
      <trkpt lat="35.815031960" lon="-106.583598790">
        <ele>2447.200</ele>
        <time>2019-07-14T21:08:08Z</time>
      </trkpt>
      <trkpt lat="35.814983280" lon="-106.583383710">
        <ele>2447.200</ele>
        <time>2019-07-14T21:08:09Z</time>
      </trkpt>
      <trkpt lat="35.814928550" lon="-106.583143360">
        <ele>2447.900</ele>
        <time>2019-07-14T21:08:10Z</time>
      </trkpt>
      <trkpt lat="35.814871380" lon="-106.582916880">
        <ele>2449.500</ele>
        <time>2019-07-14T21:08:11Z</time>
      </trkpt>
      <trkpt lat="35.814819540" lon="-106.582675450">
        <ele>2449.300</ele>
        <time>2019-07-14T21:08:12Z</time>
      </trkpt>
      <trkpt lat="35.814757220" lon="-106.582446220">
        <ele>2450.600</ele>
        <time>2019-07-14T21:08:13Z</time>
      </trkpt>
      <trkpt lat="35.814696020" lon="-106.582190030">
        <ele>2449.900</ele>
        <time>2019-07-14T21:08:14Z</time>
      </trkpt>
      <trkpt lat="35.814639620" lon="-106.581954560">
        <ele>2449.200</ele>
        <time>2019-07-14T21:08:15Z</time>
      </trkpt>
      <trkpt lat="35.814581530" lon="-106.581706960">
        <ele>2450.000</ele>
        <time>2019-07-14T21:08:16Z</time>
      </trkpt>
      <trkpt lat="35.814525690" lon="-106.581452240">
        <ele>2448.800</ele>
        <time>2019-07-14T21:08:17Z</time>
      </trkpt>
      <trkpt lat="35.814464970" lon="-106.581208950">
        <ele>2450.100</ele>
        <time>2019-07-14T21:08:18Z</time>
      </trkpt>
      <trkpt lat="35.814402140" lon="-106.580968490">
        <ele>2450.600</ele>
        <time>2019-07-14T21:08:19Z</time>
      </trkpt>
      <trkpt lat="35.814338090" lon="-106.580728940">
        <ele>2451.700</ele>
        <time>2019-07-14T21:08:20Z</time>
      </trkpt>
      <trkpt lat="35.814283950" lon="-106.580493950">
        <ele>2450.900</ele>
        <time>2019-07-14T21:08:21Z</time>
      </trkpt>
      <trkpt lat="35.814230980" lon="-106.580262480">
        <ele>2449.500</ele>
        <time>2019-07-14T21:08:22Z</time>
      </trkpt>
      <trkpt lat="35.814173390" lon="-106.580027390">
        <ele>2450.700</ele>
        <time>2019-07-14T21:08:23Z</time>
      </trkpt>
      <trkpt lat="35.814114350" lon="-106.579788000">
        <ele>2452.200</ele>
        <time>2019-07-14T21:08:24Z</time>
      </trkpt>
      <trkpt lat="35.814081700" lon="-106.579547000">
        <ele>2452.600</ele>
        <time>2019-07-14T21:08:25Z</time>
      </trkpt>
      <trkpt lat="35.814045980" lon="-106.579302840">
        <ele>2453.700</ele>
        <time>2019-07-14T21:08:26Z</time>
      </trkpt>
      <trkpt lat="35.814023280" lon="-106.579059920">
        <ele>2454.800</ele>
        <time>2019-07-14T21:08:27Z</time>
      </trkpt>
      <trkpt lat="35.814009450" lon="-106.578814840">
        <ele>2455.600</ele>
        <time>2019-07-14T21:08:28Z</time>
      </trkpt>
      <trkpt lat="35.814011820" lon="-106.578571820">
        <ele>2456.700</ele>
        <time>2019-07-14T21:08:29Z</time>
      </trkpt>
      <trkpt lat="35.814016330" lon="-106.578332870">
        <ele>2457.400</ele>
        <time>2019-07-14T21:08:30Z</time>
      </trkpt>
      <trkpt lat="35.814037120" lon="-106.578088030">
        <ele>2457.700</ele>
        <time>2019-07-14T21:08:31Z</time>
      </trkpt>
      <trkpt lat="35.814072480" lon="-106.577849490">
        <ele>2457.400</ele>
        <time>2019-07-14T21:08:32Z</time>
      </trkpt>
      <trkpt lat="35.814102680" lon="-106.577610500">
        <ele>2459.100</ele>
        <time>2019-07-14T21:08:33Z</time>
      </trkpt>
      <trkpt lat="35.814154090" lon="-106.577379870">
        <ele>2460.700</ele>
        <time>2019-07-14T21:08:34Z</time>
      </trkpt>
      <trkpt lat="35.814207390" lon="-106.577143580">
        <ele>2461.500</ele>
        <time>2019-07-14T21:08:35Z</time>
      </trkpt>
      <trkpt lat="35.814286100" lon="-106.576914400">
        <ele>2465.800</ele>
        <time>2019-07-14T21:08:36Z</time>
      </trkpt>
      <trkpt lat="35.814362300" lon="-106.576671400">
        <ele>2466.700</ele>
        <time>2019-07-14T21:08:37Z</time>
      </trkpt>
      <trkpt lat="35.814439950" lon="-106.576421220">
        <ele>2470.600</ele>
        <time>2019-07-14T21:08:38Z</time>
      </trkpt>
      <trkpt lat="35.814519960" lon="-106.576182330">
        <ele>2473.100</ele>
        <time>2019-07-14T21:08:39Z</time>
      </trkpt>
      <trkpt lat="35.814597410" lon="-106.575943730">
        <ele>2474.900</ele>
        <time>2019-07-14T21:08:40Z</time>
      </trkpt>
      <trkpt lat="35.814677700" lon="-106.575708570">
        <ele>2476.700</ele>
        <time>2019-07-14T21:08:41Z</time>
      </trkpt>
      <trkpt lat="35.814760360" lon="-106.575470150">
        <ele>2477.500</ele>
        <time>2019-07-14T21:08:42Z</time>
      </trkpt>
      <trkpt lat="35.814839310" lon="-106.575238380">
        <ele>2479.300</ele>
        <time>2019-07-14T21:08:43Z</time>
      </trkpt>
      <trkpt lat="35.814924410" lon="-106.575004930">
        <ele>2479.700</ele>
        <time>2019-07-14T21:08:44Z</time>
      </trkpt>
      <trkpt lat="35.814998540" lon="-106.574779280">
        <ele>2481.500</ele>
        <time>2019-07-14T21:08:45Z</time>
      </trkpt>
      <trkpt lat="35.815071500" lon="-106.574550310">
        <ele>2482.200</ele>
        <time>2019-07-14T21:08:46Z</time>
      </trkpt>
      <trkpt lat="35.815139490" lon="-106.574328050">
        <ele>2484.400</ele>
        <time>2019-07-14T21:08:47Z</time>
      </trkpt>
      <trkpt lat="35.815189510" lon="-106.574088030">
        <ele>2486.400</ele>
        <time>2019-07-14T21:08:48Z</time>
      </trkpt>
      <trkpt lat="35.815242400" lon="-106.573851910">
        <ele>2487.300</ele>
        <time>2019-07-14T21:08:49Z</time>
      </trkpt>
      <trkpt lat="35.815276580" lon="-106.573635900">
        <ele>2488.400</ele>
        <time>2019-07-14T21:08:50Z</time>
      </trkpt>
      <trkpt lat="35.815300390" lon="-106.573390020">
        <ele>2489.100</ele>
        <time>2019-07-14T21:08:51Z</time>
      </trkpt>
      <trkpt lat="35.815297850" lon="-106.573135340">
        <ele>2494.800</ele>
        <time>2019-07-14T21:08:52Z</time>
      </trkpt>
      <trkpt lat="35.815290290" lon="-106.572893500">
        <ele>2498.400</ele>
        <time>2019-07-14T21:08:53Z</time>
      </trkpt>
      <trkpt lat="35.815278090" lon="-106.572657260">
        <ele>2500.500</ele>
        <time>2019-07-14T21:08:54Z</time>
      </trkpt>
      <trkpt lat="35.815245760" lon="-106.572389950">
        <ele>2502.900</ele>
        <time>2019-07-14T21:08:55Z</time>
      </trkpt>
      <trkpt lat="35.815220460" lon="-106.572145150">
        <ele>2503.000</ele>
        <time>2019-07-14T21:08:56Z</time>
      </trkpt>
      <trkpt lat="35.815179880" lon="-106.571901900">
        <ele>2504.000</ele>
        <time>2019-07-14T21:08:57Z</time>
      </trkpt>
      <trkpt lat="35.815127990" lon="-106.571643400">
        <ele>2504.400</ele>
        <time>2019-07-14T21:08:58Z</time>
      </trkpt>
      <trkpt lat="35.815060100" lon="-106.571409380">
        <ele>2506.500</ele>
        <time>2019-07-14T21:08:59Z</time>
      </trkpt>
      <trkpt lat="35.814999830" lon="-106.571180240">
        <ele>2507.500</ele>
        <time>2019-07-14T21:09:00Z</time>
      </trkpt>
      <trkpt lat="35.814938610" lon="-106.570945670">
        <ele>2509.200</ele>
        <time>2019-07-14T21:09:01Z</time>
      </trkpt>
      <trkpt lat="35.814869620" lon="-106.570711650">
        <ele>2510.700</ele>
        <time>2019-07-14T21:09:02Z</time>
      </trkpt>
      <trkpt lat="35.814797970" lon="-106.570486000">
        <ele>2511.400</ele>
        <time>2019-07-14T21:09:03Z</time>
      </trkpt>
      <trkpt lat="35.814722320" lon="-106.570249930">
        <ele>2513.300</ele>
        <time>2019-07-14T21:09:04Z</time>
      </trkpt>
      <trkpt lat="35.814649560" lon="-106.570014050">
        <ele>2514.900</ele>
        <time>2019-07-14T21:09:05Z</time>
      </trkpt>
      <trkpt lat="35.814577770" lon="-106.569775230">
        <ele>2516.300</ele>
        <time>2019-07-14T21:09:06Z</time>
      </trkpt>
      <trkpt lat="35.814501250" lon="-106.569546190">
        <ele>2517.000</ele>
        <time>2019-07-14T21:09:07Z</time>
      </trkpt>
      <trkpt lat="35.814443920" lon="-106.569304260">
        <ele>2518.000</ele>
        <time>2019-07-14T21:09:08Z</time>
      </trkpt>
      <trkpt lat="35.814371420" lon="-106.569071420">
        <ele>2519.700</ele>
        <time>2019-07-14T21:09:09Z</time>
      </trkpt>
      <trkpt lat="35.814302550" lon="-106.568841260">
        <ele>2519.900</ele>
        <time>2019-07-14T21:09:10Z</time>
      </trkpt>
      <trkpt lat="35.814246200" lon="-106.568601130">
        <ele>2521.700</ele>
        <time>2019-07-14T21:09:11Z</time>
      </trkpt>
      <trkpt lat="35.814185300" lon="-106.568360850">
        <ele>2522.500</ele>
        <time>2019-07-14T21:09:12Z</time>
      </trkpt>
      <trkpt lat="35.814125550" lon="-106.568120070">
        <ele>2523.800</ele>
        <time>2019-07-14T21:09:13Z</time>
      </trkpt>
      <trkpt lat="35.814066700" lon="-106.567881270">
        <ele>2525.000</ele>
        <time>2019-07-14T21:09:14Z</time>
      </trkpt>
      <trkpt lat="35.814005630" lon="-106.567637990">
        <ele>2526.600</ele>
        <time>2019-07-14T21:09:15Z</time>
      </trkpt>
      <trkpt lat="35.813938930" lon="-106.567393870">
        <ele>2527.500</ele>
        <time>2019-07-14T21:09:16Z</time>
      </trkpt>
      <trkpt lat="35.813873110" lon="-106.567152200">
        <ele>2527.900</ele>
        <time>2019-07-14T21:09:17Z</time>
      </trkpt>
      <trkpt lat="35.813810940" lon="-106.566914810">
        <ele>2528.900</ele>
        <time>2019-07-14T21:09:18Z</time>
      </trkpt>
      <trkpt lat="35.813746940" lon="-106.566682020">
        <ele>2530.600</ele>
        <time>2019-07-14T21:09:19Z</time>
      </trkpt>
      <trkpt lat="35.813680810" lon="-106.566439190">
        <ele>2531.100</ele>
        <time>2019-07-14T21:09:20Z</time>
      </trkpt>
      <trkpt lat="35.813620770" lon="-106.566205870">
        <ele>2531.600</ele>
        <time>2019-07-14T21:09:21Z</time>
      </trkpt>
      <trkpt lat="35.813555540" lon="-106.565972130">
        <ele>2533.100</ele>
        <time>2019-07-14T21:09:22Z</time>
      </trkpt>
      <trkpt lat="35.813486580" lon="-106.565729680">
        <ele>2532.100</ele>
        <time>2019-07-14T21:09:23Z</time>
      </trkpt>
      <trkpt lat="35.813420340" lon="-106.565494010">
        <ele>2533.600</ele>
        <time>2019-07-14T21:09:24Z</time>
      </trkpt>
      <trkpt lat="35.813368990" lon="-106.565247880">
        <ele>2535.300</ele>
        <time>2019-07-14T21:09:25Z</time>
      </trkpt>
      <trkpt lat="35.813324750" lon="-106.565003690">
        <ele>2535.500</ele>
        <time>2019-07-14T21:09:26Z</time>
      </trkpt>
      <trkpt lat="35.813286170" lon="-106.564752560">
        <ele>2536.100</ele>
        <time>2019-07-14T21:09:27Z</time>
      </trkpt>
      <trkpt lat="35.813257000" lon="-106.564504720">
        <ele>2536.600</ele>
        <time>2019-07-14T21:09:28Z</time>
      </trkpt>
      <trkpt lat="35.813237010" lon="-106.564258200">
        <ele>2537.900</ele>
        <time>2019-07-14T21:09:29Z</time>
      </trkpt>
      <trkpt lat="35.813230590" lon="-106.564005450">
        <ele>2537.900</ele>
        <time>2019-07-14T21:09:30Z</time>
      </trkpt>
      <trkpt lat="35.813228910" lon="-106.563752440">
        <ele>2538.100</ele>
        <time>2019-07-14T21:09:31Z</time>
      </trkpt>
      <trkpt lat="35.813243940" lon="-106.563494990">
        <ele>2538.300</ele>
        <time>2019-07-14T21:09:32Z</time>
      </trkpt>
      <trkpt lat="35.813275990" lon="-106.563245850">
        <ele>2537.800</ele>
        <time>2019-07-14T21:09:33Z</time>
      </trkpt>
      <trkpt lat="35.813322370" lon="-106.562999350">
        <ele>2538.000</ele>
        <time>2019-07-14T21:09:34Z</time>
      </trkpt>
      <trkpt lat="35.813378320" lon="-106.562751020">
        <ele>2538.400</ele>
        <time>2019-07-14T21:09:35Z</time>
      </trkpt>
      <trkpt lat="35.813438160" lon="-106.562500730">
        <ele>2538.300</ele>
        <time>2019-07-14T21:09:36Z</time>
      </trkpt>
      <trkpt lat="35.813498680" lon="-106.562241700">
        <ele>2538.300</ele>
        <time>2019-07-14T21:09:37Z</time>
      </trkpt>
      <trkpt lat="35.813567940" lon="-106.561978050">
        <ele>2537.500</ele>
        <time>2019-07-14T21:09:38Z</time>
      </trkpt>
      <trkpt lat="35.813643320" lon="-106.561740780">
        <ele>2537.800</ele>
        <time>2019-07-14T21:09:39Z</time>
      </trkpt>
      <trkpt lat="35.813734650" lon="-106.561520550">
        <ele>2537.800</ele>
        <time>2019-07-14T21:09:40Z</time>
      </trkpt>
      <trkpt lat="35.813808420" lon="-106.561285550">
        <ele>2537.600</ele>
        <time>2019-07-14T21:09:41Z</time>
      </trkpt>
      <trkpt lat="35.813884640" lon="-106.561055880">
        <ele>2538.800</ele>
        <time>2019-07-14T21:09:42Z</time>
      </trkpt>
      <trkpt lat="35.813951120" lon="-106.560836070">
        <ele>2539.000</ele>
        <time>2019-07-14T21:09:43Z</time>
      </trkpt>
      <trkpt lat="35.814014440" lon="-106.560604570">
        <ele>2539.500</ele>
        <time>2019-07-14T21:09:44Z</time>
      </trkpt>
      <trkpt lat="35.814072290" lon="-106.560372300">
        <ele>2539.800</ele>
        <time>2019-07-14T21:09:45Z</time>
      </trkpt>
      <trkpt lat="35.814141800" lon="-106.560163440">
        <ele>2541.300</ele>
        <time>2019-07-14T21:09:46Z</time>
      </trkpt>
      <trkpt lat="35.814225100" lon="-106.559930160">
        <ele>2541.200</ele>
        <time>2019-07-14T21:09:47Z</time>
      </trkpt>
      <trkpt lat="35.814304970" lon="-106.559699100">
        <ele>2541.800</ele>
        <time>2019-07-14T21:09:48Z</time>
      </trkpt>
      <trkpt lat="35.814364730" lon="-106.559461890">
        <ele>2541.400</ele>
        <time>2019-07-14T21:09:49Z</time>
      </trkpt>
      <trkpt lat="35.814434490" lon="-106.559238360">
        <ele>2542.500</ele>
        <time>2019-07-14T21:09:50Z</time>
      </trkpt>
      <trkpt lat="35.814504840" lon="-106.558997440">
        <ele>2542.200</ele>
        <time>2019-07-14T21:09:51Z</time>
      </trkpt>
      <trkpt lat="35.814585650" lon="-106.558758600">
        <ele>2542.500</ele>
        <time>2019-07-14T21:09:52Z</time>
      </trkpt>
      <trkpt lat="35.814671810" lon="-106.558505050">
        <ele>2540.700</ele>
        <time>2019-07-14T21:09:53Z</time>
      </trkpt>
      <trkpt lat="35.814745650" lon="-106.558273950">
        <ele>2541.400</ele>
        <time>2019-07-14T21:09:54Z</time>
      </trkpt>
      <trkpt lat="35.814829340" lon="-106.558034260">
        <ele>2540.500</ele>
        <time>2019-07-14T21:09:55Z</time>
      </trkpt>
      <trkpt lat="35.814884050" lon="-106.557802150">
        <ele>2540.000</ele>
        <time>2019-07-14T21:09:56Z</time>
      </trkpt>
      <trkpt lat="35.814962680" lon="-106.557565110">
        <ele>2540.300</ele>
        <time>2019-07-14T21:09:57Z</time>
      </trkpt>
      <trkpt lat="35.815044040" lon="-106.557337120">
        <ele>2541.300</ele>
        <time>2019-07-14T21:09:58Z</time>
      </trkpt>
      <trkpt lat="35.815124650" lon="-106.557114970">
        <ele>2541.800</ele>
        <time>2019-07-14T21:09:59Z</time>
      </trkpt>
      <trkpt lat="35.815209140" lon="-106.556885750">
        <ele>2543.100</ele>
        <time>2019-07-14T21:10:00Z</time>
      </trkpt>
      <trkpt lat="35.815293150" lon="-106.556653250">
        <ele>2541.800</ele>
        <time>2019-07-14T21:10:01Z</time>
      </trkpt>
      <trkpt lat="35.815348740" lon="-106.556431820">
        <ele>2542.400</ele>
        <time>2019-07-14T21:10:02Z</time>
      </trkpt>
      <trkpt lat="35.815422840" lon="-106.556196420">
        <ele>2543.700</ele>
        <time>2019-07-14T21:10:03Z</time>
      </trkpt>
      <trkpt lat="35.815486580" lon="-106.555966880">
        <ele>2544.900</ele>
        <time>2019-07-14T21:10:04Z</time>
      </trkpt>
      <trkpt lat="35.815540560" lon="-106.555728500">
        <ele>2544.300</ele>
        <time>2019-07-14T21:10:05Z</time>
      </trkpt>
      <trkpt lat="35.815597690" lon="-106.555506330">
        <ele>2545.400</ele>
        <time>2019-07-14T21:10:06Z</time>
      </trkpt>
      <trkpt lat="35.815645310" lon="-106.555265720">
        <ele>2545.900</ele>
        <time>2019-07-14T21:10:07Z</time>
      </trkpt>
      <trkpt lat="35.815689720" lon="-106.555035010">
        <ele>2547.200</ele>
        <time>2019-07-14T21:10:08Z</time>
      </trkpt>
      <trkpt lat="35.815733620" lon="-106.554797400">
        <ele>2548.600</ele>
        <time>2019-07-14T21:10:09Z</time>
      </trkpt>
      <trkpt lat="35.815764760" lon="-106.554561080">
        <ele>2547.900</ele>
        <time>2019-07-14T21:10:10Z</time>
      </trkpt>
      <trkpt lat="35.815811750" lon="-106.554313870">
        <ele>2547.400</ele>
        <time>2019-07-14T21:10:11Z</time>
      </trkpt>
      <trkpt lat="35.815884740" lon="-106.554077730">
        <ele>2548.800</ele>
        <time>2019-07-14T21:10:12Z</time>
      </trkpt>
      <trkpt lat="35.815998680" lon="-106.553842030">
        <ele>2544.500</ele>
        <time>2019-07-14T21:10:13Z</time>
      </trkpt>
      <trkpt lat="35.816080600" lon="-106.553615780">
        <ele>2546.500</ele>
        <time>2019-07-14T21:10:14Z</time>
      </trkpt>
      <trkpt lat="35.816182900" lon="-106.553396210">
        <ele>2548.500</ele>
        <time>2019-07-14T21:10:15Z</time>
      </trkpt>
      <trkpt lat="35.816281090" lon="-106.553184170">
        <ele>2549.100</ele>
        <time>2019-07-14T21:10:16Z</time>
      </trkpt>
      <trkpt lat="35.816390140" lon="-106.552977910">
        <ele>2548.900</ele>
        <time>2019-07-14T21:10:17Z</time>
      </trkpt>
      <trkpt lat="35.816505570" lon="-106.552774990">
        <ele>2547.300</ele>
        <time>2019-07-14T21:10:18Z</time>
      </trkpt>
      <trkpt lat="35.816620570" lon="-106.552583800">
        <ele>2548.400</ele>
        <time>2019-07-14T21:10:19Z</time>
      </trkpt>
      <trkpt lat="35.816722490" lon="-106.552383870">
        <ele>2548.400</ele>
        <time>2019-07-14T21:10:20Z</time>
      </trkpt>
      <trkpt lat="35.816796180" lon="-106.552176410">
        <ele>2548.400</ele>
        <time>2019-07-14T21:10:21Z</time>
      </trkpt>
      <trkpt lat="35.816861150" lon="-106.551977190">
        <ele>2549.300</ele>
        <time>2019-07-14T21:10:22Z</time>
      </trkpt>
      <trkpt lat="35.816903290" lon="-106.551772500">
        <ele>2550.500</ele>
        <time>2019-07-14T21:10:23Z</time>
      </trkpt>
      <trkpt lat="35.816927580" lon="-106.551552710">
        <ele>2551.100</ele>
        <time>2019-07-14T21:10:24Z</time>
      </trkpt>
      <trkpt lat="35.816912080" lon="-106.551332920">
        <ele>2550.700</ele>
        <time>2019-07-14T21:10:25Z</time>
      </trkpt>
      <trkpt lat="35.816856370" lon="-106.551077380">
        <ele>2550.300</ele>
        <time>2019-07-14T21:10:26Z</time>
      </trkpt>
      <trkpt lat="35.816819120" lon="-106.550844760">
        <ele>2551.300</ele>
        <time>2019-07-14T21:10:27Z</time>
      </trkpt>
      <trkpt lat="35.816788330" lon="-106.550615520">
        <ele>2551.900</ele>
        <time>2019-07-14T21:10:28Z</time>
      </trkpt>
      <trkpt lat="35.816763970" lon="-106.550396630">
        <ele>2552.200</ele>
        <time>2019-07-14T21:10:29Z</time>
      </trkpt>
      <trkpt lat="35.816767610" lon="-106.550174200">
        <ele>2553.200</ele>
        <time>2019-07-14T21:10:30Z</time>
      </trkpt>
      <trkpt lat="35.816765470" lon="-106.549940830">
        <ele>2554.300</ele>
        <time>2019-07-14T21:10:31Z</time>
      </trkpt>
      <trkpt lat="35.816775200" lon="-106.549711880">
        <ele>2554.100</ele>
        <time>2019-07-14T21:10:32Z</time>
      </trkpt>
      <trkpt lat="35.816842920" lon="-106.549480920">
        <ele>2555.800</ele>
        <time>2019-07-14T21:10:33Z</time>
      </trkpt>
      <trkpt lat="35.816881980" lon="-106.549271960">
        <ele>2557.200</ele>
        <time>2019-07-14T21:10:34Z</time>
      </trkpt>
      <trkpt lat="35.816905710" lon="-106.549031920">
        <ele>2559.000</ele>
        <time>2019-07-14T21:10:35Z</time>
      </trkpt>
      <trkpt lat="35.816909780" lon="-106.548815300">
        <ele>2559.300</ele>
        <time>2019-07-14T21:10:36Z</time>
      </trkpt>
      <trkpt lat="35.816917790" lon="-106.548621470">
        <ele>2557.700</ele>
        <time>2019-07-14T21:10:37Z</time>
      </trkpt>
      <trkpt lat="35.816861290" lon="-106.548368740">
        <ele>2557.900</ele>
        <time>2019-07-14T21:10:38Z</time>
      </trkpt>
      <trkpt lat="35.816814840" lon="-106.548127050">
        <ele>2558.500</ele>
        <time>2019-07-14T21:10:39Z</time>
      </trkpt>
      <trkpt lat="35.816704350" lon="-106.547954290">
        <ele>2559.700</ele>
        <time>2019-07-14T21:10:40Z</time>
      </trkpt>
      <trkpt lat="35.816564480" lon="-106.547789260">
        <ele>2561.300</ele>
        <time>2019-07-14T21:10:41Z</time>
      </trkpt>
      <trkpt lat="35.816420600" lon="-106.547647000">
        <ele>2561.800</ele>
        <time>2019-07-14T21:10:42Z</time>
      </trkpt>
      <trkpt lat="35.816219720" lon="-106.547557770">
        <ele>2563.800</ele>
        <time>2019-07-14T21:10:43Z</time>
      </trkpt>
      <trkpt lat="35.816063560" lon="-106.547417310">
        <ele>2565.500</ele>
        <time>2019-07-14T21:10:44Z</time>
      </trkpt>
      <trkpt lat="35.815911800" lon="-106.547294890">
        <ele>2567.400</ele>
        <time>2019-07-14T21:10:45Z</time>
      </trkpt>
      <trkpt lat="35.815765180" lon="-106.547150500">
        <ele>2570.600</ele>
        <time>2019-07-14T21:10:46Z</time>
      </trkpt>
      <trkpt lat="35.815629300" lon="-106.547000040">
        <ele>2571.300</ele>
        <time>2019-07-14T21:10:47Z</time>
      </trkpt>
      <trkpt lat="35.815509940" lon="-106.546828330">
        <ele>2574.700</ele>
        <time>2019-07-14T21:10:48Z</time>
      </trkpt>
      <trkpt lat="35.815448590" lon="-106.546646110">
        <ele>2576.300</ele>
        <time>2019-07-14T21:10:49Z</time>
      </trkpt>
      <trkpt lat="35.815383520" lon="-106.546445780">
        <ele>2576.900</ele>
        <time>2019-07-14T21:10:50Z</time>
      </trkpt>
      <trkpt lat="35.815322900" lon="-106.546250160">
        <ele>2576.700</ele>
        <time>2019-07-14T21:10:51Z</time>
      </trkpt>
      <trkpt lat="35.815283300" lon="-106.546037800">
        <ele>2577.300</ele>
        <time>2019-07-14T21:10:52Z</time>
      </trkpt>
      <trkpt lat="35.815268130" lon="-106.545829930">
        <ele>2577.900</ele>
        <time>2019-07-14T21:10:53Z</time>
      </trkpt>
      <trkpt lat="35.815256870" lon="-106.545624010">
        <ele>2578.900</ele>
        <time>2019-07-14T21:10:54Z</time>
      </trkpt>
      <trkpt lat="35.815242800" lon="-106.545416750">
        <ele>2579.500</ele>
        <time>2019-07-14T21:10:55Z</time>
      </trkpt>
      <trkpt lat="35.815240580" lon="-106.545200160">
        <ele>2579.500</ele>
        <time>2019-07-14T21:10:56Z</time>
      </trkpt>
      <trkpt lat="35.815243570" lon="-106.544994660">
        <ele>2580.200</ele>
        <time>2019-07-14T21:10:57Z</time>
      </trkpt>
      <trkpt lat="35.815233250" lon="-106.544769810">
        <ele>2581.100</ele>
        <time>2019-07-14T21:10:58Z</time>
      </trkpt>
      <trkpt lat="35.815247870" lon="-106.544577870">
        <ele>2581.100</ele>
        <time>2019-07-14T21:10:59Z</time>
      </trkpt>
      <trkpt lat="35.815282960" lon="-106.544372350">
        <ele>2582.000</ele>
        <time>2019-07-14T21:11:00Z</time>
      </trkpt>
      <trkpt lat="35.815297160" lon="-106.544143590">
        <ele>2583.000</ele>
        <time>2019-07-14T21:11:01Z</time>
      </trkpt>
      <trkpt lat="35.815282020" lon="-106.543885030">
        <ele>2585.400</ele>
        <time>2019-07-14T21:11:02Z</time>
      </trkpt>
      <trkpt lat="35.815285160" lon="-106.543640710">
        <ele>2587.100</ele>
        <time>2019-07-14T21:11:03Z</time>
      </trkpt>
      <trkpt lat="35.815296440" lon="-106.543402700">
        <ele>2586.000</ele>
        <time>2019-07-14T21:11:04Z</time>
      </trkpt>
      <trkpt lat="35.815300630" lon="-106.543154240">
        <ele>2586.500</ele>
        <time>2019-07-14T21:11:05Z</time>
      </trkpt>
      <trkpt lat="35.815271320" lon="-106.542880170">
        <ele>2584.600</ele>
        <time>2019-07-14T21:11:06Z</time>
      </trkpt>
      <trkpt lat="35.815285480" lon="-106.542614240">
        <ele>2585.300</ele>
        <time>2019-07-14T21:11:07Z</time>
      </trkpt>
      <trkpt lat="35.815297650" lon="-106.542361990">
        <ele>2584.600</ele>
        <time>2019-07-14T21:11:08Z</time>
      </trkpt>
      <trkpt lat="35.815301780" lon="-106.542097600">
        <ele>2584.200</ele>
        <time>2019-07-14T21:11:09Z</time>
      </trkpt>
      <trkpt lat="35.815303730" lon="-106.541832820">
        <ele>2584.500</ele>
        <time>2019-07-14T21:11:10Z</time>
      </trkpt>
      <trkpt lat="35.815312110" lon="-106.541573420">
        <ele>2583.900</ele>
        <time>2019-07-14T21:11:11Z</time>
      </trkpt>
      <trkpt lat="35.815325150" lon="-106.541318510">
        <ele>2583.200</ele>
        <time>2019-07-14T21:11:12Z</time>
      </trkpt>
      <trkpt lat="35.815329490" lon="-106.541054710">
        <ele>2582.700</ele>
        <time>2019-07-14T21:11:13Z</time>
      </trkpt>
      <trkpt lat="35.815346280" lon="-106.540806710">
        <ele>2579.700</ele>
        <time>2019-07-14T21:11:14Z</time>
      </trkpt>
      <trkpt lat="35.815363230" lon="-106.540554670">
        <ele>2579.600</ele>
        <time>2019-07-14T21:11:15Z</time>
      </trkpt>
      <trkpt lat="35.815360950" lon="-106.540296020">
        <ele>2578.200</ele>
        <time>2019-07-14T21:11:16Z</time>
      </trkpt>
      <trkpt lat="35.815374480" lon="-106.540040910">
        <ele>2577.700</ele>
        <time>2019-07-14T21:11:17Z</time>
      </trkpt>
      <trkpt lat="35.815383780" lon="-106.539773510">
        <ele>2575.700</ele>
        <time>2019-07-14T21:11:18Z</time>
      </trkpt>
      <trkpt lat="35.815387630" lon="-106.539505390">
        <ele>2572.900</ele>
        <time>2019-07-14T21:11:19Z</time>
      </trkpt>
      <trkpt lat="35.815396540" lon="-106.539243090">
        <ele>2572.500</ele>
        <time>2019-07-14T21:11:20Z</time>
      </trkpt>
      <trkpt lat="35.815408810" lon="-106.538974430">
        <ele>2571.900</ele>
        <time>2019-07-14T21:11:21Z</time>
      </trkpt>
      <trkpt lat="35.815438870" lon="-106.538706510">
        <ele>2570.300</ele>
        <time>2019-07-14T21:11:22Z</time>
      </trkpt>
      <trkpt lat="35.815465660" lon="-106.538432860">
        <ele>2569.000</ele>
        <time>2019-07-14T21:11:23Z</time>
      </trkpt>
      <trkpt lat="35.815504780" lon="-106.538173520">
        <ele>2568.800</ele>
        <time>2019-07-14T21:11:24Z</time>
      </trkpt>
      <trkpt lat="35.815546770" lon="-106.537916330">
        <ele>2569.200</ele>
        <time>2019-07-14T21:11:25Z</time>
      </trkpt>
      <trkpt lat="35.815595270" lon="-106.537660670">
        <ele>2568.400</ele>
        <time>2019-07-14T21:11:26Z</time>
      </trkpt>
      <trkpt lat="35.815636890" lon="-106.537407320">
        <ele>2568.100</ele>
        <time>2019-07-14T21:11:27Z</time>
      </trkpt>
      <trkpt lat="35.815687960" lon="-106.537159420">
        <ele>2568.600</ele>
        <time>2019-07-14T21:11:28Z</time>
      </trkpt>
      <trkpt lat="35.815744960" lon="-106.536910120">
        <ele>2569.200</ele>
        <time>2019-07-14T21:11:29Z</time>
      </trkpt>
      <trkpt lat="35.815793990" lon="-106.536650070">
        <ele>2568.700</ele>
        <time>2019-07-14T21:11:30Z</time>
      </trkpt>
      <trkpt lat="35.815846470" lon="-106.536395850">
        <ele>2568.400</ele>
        <time>2019-07-14T21:11:31Z</time>
      </trkpt>
      <trkpt lat="35.815886390" lon="-106.536158340">
        <ele>2568.300</ele>
        <time>2019-07-14T21:11:32Z</time>
      </trkpt>
      <trkpt lat="35.815915890" lon="-106.535908050">
        <ele>2568.000</ele>
        <time>2019-07-14T21:11:33Z</time>
      </trkpt>
      <trkpt lat="35.815893040" lon="-106.535632270">
        <ele>2565.300</ele>
        <time>2019-07-14T21:11:34Z</time>
      </trkpt>
      <trkpt lat="35.815877260" lon="-106.535390130">
        <ele>2563.600</ele>
        <time>2019-07-14T21:11:35Z</time>
      </trkpt>
      <trkpt lat="35.815852290" lon="-106.535149480">
        <ele>2562.500</ele>
        <time>2019-07-14T21:11:36Z</time>
      </trkpt>
      <trkpt lat="35.815803460" lon="-106.534895130">
        <ele>2563.100</ele>
        <time>2019-07-14T21:11:37Z</time>
      </trkpt>
      <trkpt lat="35.815737320" lon="-106.534677010">
        <ele>2563.000</ele>
        <time>2019-07-14T21:11:38Z</time>
      </trkpt>
      <trkpt lat="35.815709420" lon="-106.534482340">
        <ele>2560.500</ele>
        <time>2019-07-14T21:11:39Z</time>
      </trkpt>
      <trkpt lat="35.815614350" lon="-106.534310810">
        <ele>2557.800</ele>
        <time>2019-07-14T21:11:40Z</time>
      </trkpt>
      <trkpt lat="35.815524220" lon="-106.534126330">
        <ele>2557.600</ele>
        <time>2019-07-14T21:11:41Z</time>
      </trkpt>
      <trkpt lat="35.815452040" lon="-106.533938510">
        <ele>2557.900</ele>
        <time>2019-07-14T21:11:42Z</time>
      </trkpt>
      <trkpt lat="35.815370100" lon="-106.533764770">
        <ele>2557.600</ele>
        <time>2019-07-14T21:11:43Z</time>
      </trkpt>
      <trkpt lat="35.815288770" lon="-106.533595140">
        <ele>2557.200</ele>
        <time>2019-07-14T21:11:44Z</time>
      </trkpt>
      <trkpt lat="35.815212070" lon="-106.533430540">
        <ele>2556.800</ele>
        <time>2019-07-14T21:11:45Z</time>
      </trkpt>
      <trkpt lat="35.815152130" lon="-106.533292400">
        <ele>2554.000</ele>
        <time>2019-07-14T21:11:46Z</time>
      </trkpt>
      <trkpt lat="35.815069110" lon="-106.533131100">
        <ele>2551.900</ele>
        <time>2019-07-14T21:11:47Z</time>
      </trkpt>
      <trkpt lat="35.814992570" lon="-106.532978030">
        <ele>2550.600</ele>
        <time>2019-07-14T21:11:48Z</time>
      </trkpt>
      <trkpt lat="35.814920390" lon="-106.532835580">
        <ele>2550.300</ele>
        <time>2019-07-14T21:11:49Z</time>
      </trkpt>
      <trkpt lat="35.814851280" lon="-106.532688830">
        <ele>2549.000</ele>
        <time>2019-07-14T21:11:50Z</time>
      </trkpt>
      <trkpt lat="35.814784580" lon="-106.532547520">
        <ele>2548.900</ele>
        <time>2019-07-14T21:11:51Z</time>
      </trkpt>
      <trkpt lat="35.814718740" lon="-106.532407160">
        <ele>2548.000</ele>
        <time>2019-07-14T21:11:52Z</time>
      </trkpt>
      <trkpt lat="35.814640120" lon="-106.532253780">
        <ele>2547.900</ele>
        <time>2019-07-14T21:11:53Z</time>
      </trkpt>
      <trkpt lat="35.814578570" lon="-106.532114710">
        <ele>2544.800</ele>
        <time>2019-07-14T21:11:54Z</time>
      </trkpt>
      <trkpt lat="35.814508530" lon="-106.531974050">
        <ele>2544.000</ele>
        <time>2019-07-14T21:11:55Z</time>
      </trkpt>
      <trkpt lat="35.814450900" lon="-106.531848370">
        <ele>2545.200</ele>
        <time>2019-07-14T21:11:56Z</time>
      </trkpt>
      <trkpt lat="35.814372530" lon="-106.531724200">
        <ele>2543.600</ele>
        <time>2019-07-14T21:11:57Z</time>
      </trkpt>
      <trkpt lat="35.814313390" lon="-106.531607260">
        <ele>2543.400</ele>
        <time>2019-07-14T21:11:58Z</time>
      </trkpt>
      <trkpt lat="35.814267470" lon="-106.531524850">
        <ele>2544.600</ele>
        <time>2019-07-14T21:11:59Z</time>
      </trkpt>
      <trkpt lat="35.814220950" lon="-106.531426690">
        <ele>2543.700</ele>
        <time>2019-07-14T21:12:00Z</time>
      </trkpt>
      <trkpt lat="35.814171800" lon="-106.531350150">
        <ele>2543.500</ele>
        <time>2019-07-14T21:12:01Z</time>
      </trkpt>
      <trkpt lat="35.814125000" lon="-106.531264410">
        <ele>2544.000</ele>
        <time>2019-07-14T21:12:02Z</time>
      </trkpt>
      <trkpt lat="35.814087440" lon="-106.531194560">
        <ele>2543.900</ele>
        <time>2019-07-14T21:12:03Z</time>
      </trkpt>
      <trkpt lat="35.814067290" lon="-106.531131390">
        <ele>2543.900</ele>
        <time>2019-07-14T21:12:04Z</time>
      </trkpt>
      <trkpt lat="35.814032900" lon="-106.531055530">
        <ele>2545.300</ele>
        <time>2019-07-14T21:12:05Z</time>
      </trkpt>
      <trkpt lat="35.814005990" lon="-106.530999210">
        <ele>2543.800</ele>
        <time>2019-07-14T21:12:06Z</time>
      </trkpt>
      <trkpt lat="35.813978350" lon="-106.530938000">
        <ele>2544.100</ele>
        <time>2019-07-14T21:12:07Z</time>
      </trkpt>
      <trkpt lat="35.813951980" lon="-106.530890750">
        <ele>2543.600</ele>
        <time>2019-07-14T21:12:08Z</time>
      </trkpt>
      <trkpt lat="35.813921440" lon="-106.530823960">
        <ele>2544.600</ele>
        <time>2019-07-14T21:12:09Z</time>
      </trkpt>
      <trkpt lat="35.813894320" lon="-106.530758650">
        <ele>2545.100</ele>
        <time>2019-07-14T21:12:10Z</time>
      </trkpt>
      <trkpt lat="35.813866200" lon="-106.530700060">
        <ele>2543.400</ele>
        <time>2019-07-14T21:12:11Z</time>
      </trkpt>
      <trkpt lat="35.813835830" lon="-106.530629910">
        <ele>2543.500</ele>
        <time>2019-07-14T21:12:12Z</time>
      </trkpt>
      <trkpt lat="35.813796940" lon="-106.530546520">
        <ele>2543.900</ele>
        <time>2019-07-14T21:12:13Z</time>
      </trkpt>
      <trkpt lat="35.813756010" lon="-106.530453860">
        <ele>2544.400</ele>
        <time>2019-07-14T21:12:14Z</time>
      </trkpt>
      <trkpt lat="35.813715910" lon="-106.530355740">
        <ele>2544.700</ele>
        <time>2019-07-14T21:12:15Z</time>
      </trkpt>
      <trkpt lat="35.813671340" lon="-106.530255240">
        <ele>2544.800</ele>
        <time>2019-07-14T21:12:16Z</time>
      </trkpt>
      <trkpt lat="35.813628730" lon="-106.530144920">
        <ele>2544.200</ele>
        <time>2019-07-14T21:12:17Z</time>
      </trkpt>
      <trkpt lat="35.813585860" lon="-106.530037790">
        <ele>2545.100</ele>
        <time>2019-07-14T21:12:18Z</time>
      </trkpt>
      <trkpt lat="35.813554410" lon="-106.529899530">
        <ele>2546.400</ele>
        <time>2019-07-14T21:12:19Z</time>
      </trkpt>
      <trkpt lat="35.813521680" lon="-106.529774690">
        <ele>2546.400</ele>
        <time>2019-07-14T21:12:20Z</time>
      </trkpt>
      <trkpt lat="35.813494140" lon="-106.529623420">
        <ele>2546.200</ele>
        <time>2019-07-14T21:12:21Z</time>
      </trkpt>
      <trkpt lat="35.813469960" lon="-106.529496390">
        <ele>2547.100</ele>
        <time>2019-07-14T21:12:22Z</time>
      </trkpt>
      <trkpt lat="35.813444480" lon="-106.529351790">
        <ele>2547.000</ele>
        <time>2019-07-14T21:12:23Z</time>
      </trkpt>
      <trkpt lat="35.813439010" lon="-106.529187290">
        <ele>2547.100</ele>
        <time>2019-07-14T21:12:24Z</time>
      </trkpt>
      <trkpt lat="35.813433320" lon="-106.529028300">
        <ele>2547.300</ele>
        <time>2019-07-14T21:12:25Z</time>
      </trkpt>
      <trkpt lat="35.813439700" lon="-106.528866130">
        <ele>2547.700</ele>
        <time>2019-07-14T21:12:26Z</time>
      </trkpt>
      <trkpt lat="35.813451030" lon="-106.528688710">
        <ele>2547.200</ele>
        <time>2019-07-14T21:12:27Z</time>
      </trkpt>
      <trkpt lat="35.813471630" lon="-106.528499120">
        <ele>2545.500</ele>
        <time>2019-07-14T21:12:28Z</time>
      </trkpt>
      <trkpt lat="35.813514270" lon="-106.528341250">
        <ele>2542.600</ele>
        <time>2019-07-14T21:12:29Z</time>
      </trkpt>
      <trkpt lat="35.813562960" lon="-106.528162360">
        <ele>2542.900</ele>
        <time>2019-07-14T21:12:30Z</time>
      </trkpt>
      <trkpt lat="35.813610920" lon="-106.527988620">
        <ele>2543.800</ele>
        <time>2019-07-14T21:12:31Z</time>
      </trkpt>
      <trkpt lat="35.813664850" lon="-106.527814380">
        <ele>2545.000</ele>
        <time>2019-07-14T21:12:32Z</time>
      </trkpt>
      <trkpt lat="35.813712310" lon="-106.527625080">
        <ele>2544.500</ele>
        <time>2019-07-14T21:12:33Z</time>
      </trkpt>
      <trkpt lat="35.813770130" lon="-106.527436780">
        <ele>2546.100</ele>
        <time>2019-07-14T21:12:34Z</time>
      </trkpt>
      <trkpt lat="35.813831600" lon="-106.527239630">
        <ele>2546.600</ele>
        <time>2019-07-14T21:12:35Z</time>
      </trkpt>
      <trkpt lat="35.813890040" lon="-106.527049090">
        <ele>2547.700</ele>
        <time>2019-07-14T21:12:36Z</time>
      </trkpt>
      <trkpt lat="35.813951750" lon="-106.526848980">
        <ele>2547.700</ele>
        <time>2019-07-14T21:12:37Z</time>
      </trkpt>
      <trkpt lat="35.814015270" lon="-106.526644540">
        <ele>2548.000</ele>
        <time>2019-07-14T21:12:38Z</time>
      </trkpt>
      <trkpt lat="35.814074460" lon="-106.526424420">
        <ele>2549.200</ele>
        <time>2019-07-14T21:12:39Z</time>
      </trkpt>
      <trkpt lat="35.814131600" lon="-106.526212630">
        <ele>2550.200</ele>
        <time>2019-07-14T21:12:40Z</time>
      </trkpt>
      <trkpt lat="35.814180080" lon="-106.525988730">
        <ele>2550.100</ele>
        <time>2019-07-14T21:12:41Z</time>
      </trkpt>
      <trkpt lat="35.814229340" lon="-106.525754860">
        <ele>2550.100</ele>
        <time>2019-07-14T21:12:42Z</time>
      </trkpt>
      <trkpt lat="35.814268830" lon="-106.525512890">
        <ele>2551.400</ele>
        <time>2019-07-14T21:12:43Z</time>
      </trkpt>
      <trkpt lat="35.814301160" lon="-106.525270360">
        <ele>2551.400</ele>
        <time>2019-07-14T21:12:44Z</time>
      </trkpt>
      <trkpt lat="35.814329930" lon="-106.525022760">
        <ele>2552.800</ele>
        <time>2019-07-14T21:12:45Z</time>
      </trkpt>
      <trkpt lat="35.814357790" lon="-106.524784400">
        <ele>2553.700</ele>
        <time>2019-07-14T21:12:46Z</time>
      </trkpt>
      <trkpt lat="35.814384830" lon="-106.524540200">
        <ele>2553.900</ele>
        <time>2019-07-14T21:12:47Z</time>
      </trkpt>
      <trkpt lat="35.814414020" lon="-106.524292110">
        <ele>2551.900</ele>
        <time>2019-07-14T21:12:48Z</time>
      </trkpt>
      <trkpt lat="35.814434500" lon="-106.524043390">
        <ele>2552.900</ele>
        <time>2019-07-14T21:12:49Z</time>
      </trkpt>
      <trkpt lat="35.814456190" lon="-106.523787760">
        <ele>2552.500</ele>
        <time>2019-07-14T21:12:50Z</time>
      </trkpt>
      <trkpt lat="35.814481580" lon="-106.523543310">
        <ele>2552.900</ele>
        <time>2019-07-14T21:12:51Z</time>
      </trkpt>
      <trkpt lat="35.814498680" lon="-106.523294710">
        <ele>2551.500</ele>
        <time>2019-07-14T21:12:52Z</time>
      </trkpt>
      <trkpt lat="35.814541480" lon="-106.523030320">
        <ele>2550.400</ele>
        <time>2019-07-14T21:12:53Z</time>
      </trkpt>
      <trkpt lat="35.814580990" lon="-106.522773370">
        <ele>2550.800</ele>
        <time>2019-07-14T21:12:54Z</time>
      </trkpt>
      <trkpt lat="35.814587400" lon="-106.522531750">
        <ele>2550.800</ele>
        <time>2019-07-14T21:12:55Z</time>
      </trkpt>
      <trkpt lat="35.814605430" lon="-106.522292170">
        <ele>2550.700</ele>
        <time>2019-07-14T21:12:56Z</time>
      </trkpt>
      <trkpt lat="35.814626630" lon="-106.522049930">
        <ele>2550.600</ele>
        <time>2019-07-14T21:12:57Z</time>
      </trkpt>
      <trkpt lat="35.814656010" lon="-106.521801090">
        <ele>2551.000</ele>
        <time>2019-07-14T21:12:58Z</time>
      </trkpt>
      <trkpt lat="35.814688040" lon="-106.521551210">
        <ele>2551.500</ele>
        <time>2019-07-14T21:12:59Z</time>
      </trkpt>
      <trkpt lat="35.814726880" lon="-106.521298080">
        <ele>2549.000</ele>
        <time>2019-07-14T21:13:00Z</time>
      </trkpt>
      <trkpt lat="35.814785530" lon="-106.521050240">
        <ele>2550.400</ele>
        <time>2019-07-14T21:13:01Z</time>
      </trkpt>
      <trkpt lat="35.814845820" lon="-106.520799410">
        <ele>2547.300</ele>
        <time>2019-07-14T21:13:02Z</time>
      </trkpt>
      <trkpt lat="35.814863250" lon="-106.520570590">
        <ele>2551.400</ele>
        <time>2019-07-14T21:13:03Z</time>
      </trkpt>
      <trkpt lat="35.814914100" lon="-106.520329280">
        <ele>2551.700</ele>
        <time>2019-07-14T21:13:04Z</time>
      </trkpt>
      <trkpt lat="35.814961650" lon="-106.520077010">
        <ele>2552.700</ele>
        <time>2019-07-14T21:13:05Z</time>
      </trkpt>
      <trkpt lat="35.815024950" lon="-106.519842430">
        <ele>2553.600</ele>
        <time>2019-07-14T21:13:06Z</time>
      </trkpt>
      <trkpt lat="35.815095130" lon="-106.519595110">
        <ele>2553.600</ele>
        <time>2019-07-14T21:13:07Z</time>
      </trkpt>
      <trkpt lat="35.815164110" lon="-106.519352330">
        <ele>2553.900</ele>
        <time>2019-07-14T21:13:08Z</time>
      </trkpt>
      <trkpt lat="35.815246790" lon="-106.519124090">
        <ele>2555.800</ele>
        <time>2019-07-14T21:13:09Z</time>
      </trkpt>
      <trkpt lat="35.815331300" lon="-106.518902520">
        <ele>2557.900</ele>
        <time>2019-07-14T21:13:10Z</time>
      </trkpt>
      <trkpt lat="35.815421780" lon="-106.518672590">
        <ele>2558.500</ele>
        <time>2019-07-14T21:13:11Z</time>
      </trkpt>
      <trkpt lat="35.815513530" lon="-106.518449910">
        <ele>2559.300</ele>
        <time>2019-07-14T21:13:12Z</time>
      </trkpt>
      <trkpt lat="35.815621530" lon="-106.518233530">
        <ele>2560.400</ele>
        <time>2019-07-14T21:13:13Z</time>
      </trkpt>
      <trkpt lat="35.815727110" lon="-106.518014450">
        <ele>2556.900</ele>
        <time>2019-07-14T21:13:14Z</time>
      </trkpt>
      <trkpt lat="35.815852330" lon="-106.517813410">
        <ele>2558.300</ele>
        <time>2019-07-14T21:13:15Z</time>
      </trkpt>
      <trkpt lat="35.815972610" lon="-106.517623430">
        <ele>2558.300</ele>
        <time>2019-07-14T21:13:16Z</time>
      </trkpt>
      <trkpt lat="35.816092720" lon="-106.517421800">
        <ele>2560.600</ele>
        <time>2019-07-14T21:13:17Z</time>
      </trkpt>
      <trkpt lat="35.816216340" lon="-106.517230310">
        <ele>2561.300</ele>
        <time>2019-07-14T21:13:18Z</time>
      </trkpt>
      <trkpt lat="35.816349860" lon="-106.517033560">
        <ele>2563.000</ele>
        <time>2019-07-14T21:13:19Z</time>
      </trkpt>
      <trkpt lat="35.816476830" lon="-106.516852040">
        <ele>2563.400</ele>
        <time>2019-07-14T21:13:20Z</time>
      </trkpt>
      <trkpt lat="35.816608840" lon="-106.516654600">
        <ele>2566.000</ele>
        <time>2019-07-14T21:13:21Z</time>
      </trkpt>
      <trkpt lat="35.816744890" lon="-106.516469820">
        <ele>2567.100</ele>
        <time>2019-07-14T21:13:22Z</time>
      </trkpt>
      <trkpt lat="35.816875450" lon="-106.516290030">
        <ele>2568.300</ele>
        <time>2019-07-14T21:13:23Z</time>
      </trkpt>
      <trkpt lat="35.817015510" lon="-106.516104970">
        <ele>2567.800</ele>
        <time>2019-07-14T21:13:24Z</time>
      </trkpt>
      <trkpt lat="35.817151370" lon="-106.515913010">
        <ele>2568.500</ele>
        <time>2019-07-14T21:13:25Z</time>
      </trkpt>
      <trkpt lat="35.817286390" lon="-106.515723510">
        <ele>2568.300</ele>
        <time>2019-07-14T21:13:26Z</time>
      </trkpt>
      <trkpt lat="35.817421810" lon="-106.515540870">
        <ele>2568.800</ele>
        <time>2019-07-14T21:13:27Z</time>
      </trkpt>
      <trkpt lat="35.817555490" lon="-106.515343090">
        <ele>2570.000</ele>
        <time>2019-07-14T21:13:28Z</time>
      </trkpt>
      <trkpt lat="35.817677620" lon="-106.515148920">
        <ele>2572.200</ele>
        <time>2019-07-14T21:13:29Z</time>
      </trkpt>
      <trkpt lat="35.817796600" lon="-106.514962140">
        <ele>2572.200</ele>
        <time>2019-07-14T21:13:30Z</time>
      </trkpt>
      <trkpt lat="35.817914970" lon="-106.514774080">
        <ele>2572.500</ele>
        <time>2019-07-14T21:13:31Z</time>
      </trkpt>
      <trkpt lat="35.818022470" lon="-106.514537650">
        <ele>2571.900</ele>
        <time>2019-07-14T21:13:32Z</time>
      </trkpt>
      <trkpt lat="35.818126310" lon="-106.514328570">
        <ele>2572.800</ele>
        <time>2019-07-14T21:13:33Z</time>
      </trkpt>
      <trkpt lat="35.818226440" lon="-106.514110020">
        <ele>2573.400</ele>
        <time>2019-07-14T21:13:34Z</time>
      </trkpt>
      <trkpt lat="35.818319620" lon="-106.513885550">
        <ele>2573.900</ele>
        <time>2019-07-14T21:13:35Z</time>
      </trkpt>
      <trkpt lat="35.818399310" lon="-106.513651300">
        <ele>2574.000</ele>
        <time>2019-07-14T21:13:36Z</time>
      </trkpt>
      <trkpt lat="35.818474250" lon="-106.513430740">
        <ele>2575.500</ele>
        <time>2019-07-14T21:13:37Z</time>
      </trkpt>
      <trkpt lat="35.818549040" lon="-106.513199130">
        <ele>2575.400</ele>
        <time>2019-07-14T21:13:38Z</time>
      </trkpt>
      <trkpt lat="35.818605600" lon="-106.512951340">
        <ele>2575.900</ele>
        <time>2019-07-14T21:13:39Z</time>
      </trkpt>
      <trkpt lat="35.818671050" lon="-106.512718820">
        <ele>2576.800</ele>
        <time>2019-07-14T21:13:40Z</time>
      </trkpt>
      <trkpt lat="35.818738520" lon="-106.512478400">
        <ele>2576.900</ele>
        <time>2019-07-14T21:13:41Z</time>
      </trkpt>
      <trkpt lat="35.818792590" lon="-106.512238760">
        <ele>2577.000</ele>
        <time>2019-07-14T21:13:42Z</time>
      </trkpt>
      <trkpt lat="35.818853220" lon="-106.512006980">
        <ele>2577.700</ele>
        <time>2019-07-14T21:13:43Z</time>
      </trkpt>
      <trkpt lat="35.818926770" lon="-106.511775280">
        <ele>2579.400</ele>
        <time>2019-07-14T21:13:44Z</time>
      </trkpt>
      <trkpt lat="35.818998060" lon="-106.511544000">
        <ele>2581.100</ele>
        <time>2019-07-14T21:13:45Z</time>
      </trkpt>
      <trkpt lat="35.819097380" lon="-106.511313340">
        <ele>2581.300</ele>
        <time>2019-07-14T21:13:46Z</time>
      </trkpt>
      <trkpt lat="35.819206850" lon="-106.511090040">
        <ele>2582.400</ele>
        <time>2019-07-14T21:13:47Z</time>
      </trkpt>
      <trkpt lat="35.819323540" lon="-106.510893700">
        <ele>2583.200</ele>
        <time>2019-07-14T21:13:48Z</time>
      </trkpt>
      <trkpt lat="35.819452840" lon="-106.510704550">
        <ele>2585.400</ele>
        <time>2019-07-14T21:13:49Z</time>
      </trkpt>
      <trkpt lat="35.819593420" lon="-106.510514230">
        <ele>2587.200</ele>
        <time>2019-07-14T21:13:50Z</time>
      </trkpt>
      <trkpt lat="35.819727470" lon="-106.510328240">
        <ele>2589.900</ele>
        <time>2019-07-14T21:13:51Z</time>
      </trkpt>
      <trkpt lat="35.819857310" lon="-106.510138560">
        <ele>2591.800</ele>
        <time>2019-07-14T21:13:52Z</time>
      </trkpt>
      <trkpt lat="35.819981690" lon="-106.509950410">
        <ele>2592.700</ele>
        <time>2019-07-14T21:13:53Z</time>
      </trkpt>
      <trkpt lat="35.820087550" lon="-106.509733220">
        <ele>2594.100</ele>
        <time>2019-07-14T21:13:54Z</time>
      </trkpt>
      <trkpt lat="35.820183620" lon="-106.509515920">
        <ele>2593.900</ele>
        <time>2019-07-14T21:13:55Z</time>
      </trkpt>
      <trkpt lat="35.820256460" lon="-106.509290580">
        <ele>2596.400</ele>
        <time>2019-07-14T21:13:56Z</time>
      </trkpt>
      <trkpt lat="35.820326220" lon="-106.509057160">
        <ele>2595.000</ele>
        <time>2019-07-14T21:13:57Z</time>
      </trkpt>
      <trkpt lat="35.820357950" lon="-106.508808110">
        <ele>2597.300</ele>
        <time>2019-07-14T21:13:58Z</time>
      </trkpt>
      <trkpt lat="35.820377710" lon="-106.508574750">
        <ele>2600.100</ele>
        <time>2019-07-14T21:13:59Z</time>
      </trkpt>
      <trkpt lat="35.820375090" lon="-106.508326150">
        <ele>2602.600</ele>
        <time>2019-07-14T21:14:00Z</time>
      </trkpt>
      <trkpt lat="35.820374570" lon="-106.508086940">
        <ele>2604.000</ele>
        <time>2019-07-14T21:14:01Z</time>
      </trkpt>
      <trkpt lat="35.820366360" lon="-106.507840830">
        <ele>2605.000</ele>
        <time>2019-07-14T21:14:02Z</time>
      </trkpt>
      <trkpt lat="35.820379470" lon="-106.507588940">
        <ele>2604.100</ele>
        <time>2019-07-14T21:14:03Z</time>
      </trkpt>
      <trkpt lat="35.820386940" lon="-106.507334310">
        <ele>2606.000</ele>
        <time>2019-07-14T21:14:04Z</time>
      </trkpt>
      <trkpt lat="35.820402870" lon="-106.507079280">
        <ele>2607.800</ele>
        <time>2019-07-14T21:14:05Z</time>
      </trkpt>
      <trkpt lat="35.820406630" lon="-106.506819900">
        <ele>2608.800</ele>
        <time>2019-07-14T21:14:06Z</time>
      </trkpt>
      <trkpt lat="35.820427610" lon="-106.506571640">
        <ele>2609.400</ele>
        <time>2019-07-14T21:14:07Z</time>
      </trkpt>
      <trkpt lat="35.820447730" lon="-106.506316120">
        <ele>2610.300</ele>
        <time>2019-07-14T21:14:08Z</time>
      </trkpt>
      <trkpt lat="35.820486920" lon="-106.506041300">
        <ele>2610.700</ele>
        <time>2019-07-14T21:14:09Z</time>
      </trkpt>
      <trkpt lat="35.820525720" lon="-106.505787320">
        <ele>2611.300</ele>
        <time>2019-07-14T21:14:10Z</time>
      </trkpt>
      <trkpt lat="35.820640010" lon="-106.505574000">
        <ele>2612.800</ele>
        <time>2019-07-14T21:14:11Z</time>
      </trkpt>
      <trkpt lat="35.820715120" lon="-106.505347100">
        <ele>2613.900</ele>
        <time>2019-07-14T21:14:12Z</time>
      </trkpt>
      <trkpt lat="35.820786540" lon="-106.505097950">
        <ele>2615.000</ele>
        <time>2019-07-14T21:14:13Z</time>
      </trkpt>
      <trkpt lat="35.820865000" lon="-106.504830940">
        <ele>2615.400</ele>
        <time>2019-07-14T21:14:14Z</time>
      </trkpt>
      <trkpt lat="35.820961200" lon="-106.504602560">
        <ele>2617.400</ele>
        <time>2019-07-14T21:14:15Z</time>
      </trkpt>
      <trkpt lat="35.821068980" lon="-106.504386050">
        <ele>2615.200</ele>
        <time>2019-07-14T21:14:16Z</time>
      </trkpt>
      <trkpt lat="35.821179470" lon="-106.504169900">
        <ele>2616.800</ele>
        <time>2019-07-14T21:14:17Z</time>
      </trkpt>
      <trkpt lat="35.821294110" lon="-106.503967990">
        <ele>2618.200</ele>
        <time>2019-07-14T21:14:18Z</time>
      </trkpt>
      <trkpt lat="35.821407100" lon="-106.503772010">
        <ele>2618.700</ele>
        <time>2019-07-14T21:14:19Z</time>
      </trkpt>
      <trkpt lat="35.821525720" lon="-106.503564840">
        <ele>2621.800</ele>
        <time>2019-07-14T21:14:20Z</time>
      </trkpt>
      <trkpt lat="35.821645520" lon="-106.503372720">
        <ele>2623.700</ele>
        <time>2019-07-14T21:14:21Z</time>
      </trkpt>
      <trkpt lat="35.821767530" lon="-106.503178520">
        <ele>2624.300</ele>
        <time>2019-07-14T21:14:22Z</time>
      </trkpt>
      <trkpt lat="35.821891370" lon="-106.502988320">
        <ele>2625.200</ele>
        <time>2019-07-14T21:14:23Z</time>
      </trkpt>
      <trkpt lat="35.822018210" lon="-106.502797080">
        <ele>2626.200</ele>
        <time>2019-07-14T21:14:24Z</time>
      </trkpt>
      <trkpt lat="35.822148100" lon="-106.502611880">
        <ele>2627.200</ele>
        <time>2019-07-14T21:14:25Z</time>
      </trkpt>
      <trkpt lat="35.822279320" lon="-106.502421240">
        <ele>2628.500</ele>
        <time>2019-07-14T21:14:26Z</time>
      </trkpt>
      <trkpt lat="35.822412460" lon="-106.502231050">
        <ele>2629.200</ele>
        <time>2019-07-14T21:14:27Z</time>
      </trkpt>
      <trkpt lat="35.822552010" lon="-106.502052370">
        <ele>2630.400</ele>
        <time>2019-07-14T21:14:28Z</time>
      </trkpt>
      <trkpt lat="35.822685030" lon="-106.501869020">
        <ele>2630.100</ele>
        <time>2019-07-14T21:14:29Z</time>
      </trkpt>
      <trkpt lat="35.822835370" lon="-106.501685910">
        <ele>2630.000</ele>
        <time>2019-07-14T21:14:30Z</time>
      </trkpt>
      <trkpt lat="35.822980740" lon="-106.501509000">
        <ele>2629.900</ele>
        <time>2019-07-14T21:14:31Z</time>
      </trkpt>
      <trkpt lat="35.823131240" lon="-106.501342100">
        <ele>2631.200</ele>
        <time>2019-07-14T21:14:32Z</time>
      </trkpt>
      <trkpt lat="35.823283250" lon="-106.501182240">
        <ele>2631.800</ele>
        <time>2019-07-14T21:14:33Z</time>
      </trkpt>
      <trkpt lat="35.823427600" lon="-106.501015700">
        <ele>2632.100</ele>
        <time>2019-07-14T21:14:34Z</time>
      </trkpt>
      <trkpt lat="35.823579610" lon="-106.500852890">
        <ele>2632.900</ele>
        <time>2019-07-14T21:14:35Z</time>
      </trkpt>
      <trkpt lat="35.823737730" lon="-106.500687390">
        <ele>2632.500</ele>
        <time>2019-07-14T21:14:36Z</time>
      </trkpt>
      <trkpt lat="35.823897050" lon="-106.500519330">
        <ele>2632.200</ele>
        <time>2019-07-14T21:14:37Z</time>
      </trkpt>
      <trkpt lat="35.824055070" lon="-106.500359330">
        <ele>2632.300</ele>
        <time>2019-07-14T21:14:38Z</time>
      </trkpt>
      <trkpt lat="35.824208190" lon="-106.500200050">
        <ele>2633.200</ele>
        <time>2019-07-14T21:14:39Z</time>
      </trkpt>
      <trkpt lat="35.824372080" lon="-106.500049720">
        <ele>2633.800</ele>
        <time>2019-07-14T21:14:40Z</time>
      </trkpt>
      <trkpt lat="35.824538430" lon="-106.499902960">
        <ele>2633.200</ele>
        <time>2019-07-14T21:14:41Z</time>
      </trkpt>
      <trkpt lat="35.824707230" lon="-106.499755730">
        <ele>2633.300</ele>
        <time>2019-07-14T21:14:42Z</time>
      </trkpt>
      <trkpt lat="35.824877700" lon="-106.499611270">
        <ele>2633.200</ele>
        <time>2019-07-14T21:14:43Z</time>
      </trkpt>
      <trkpt lat="35.825052260" lon="-106.499473520">
        <ele>2633.100</ele>
        <time>2019-07-14T21:14:44Z</time>
      </trkpt>
      <trkpt lat="35.825220730" lon="-106.499335510">
        <ele>2632.700</ele>
        <time>2019-07-14T21:14:45Z</time>
      </trkpt>
      <trkpt lat="35.825389700" lon="-106.499206240">
        <ele>2632.700</ele>
        <time>2019-07-14T21:14:46Z</time>
      </trkpt>
      <trkpt lat="35.825557400" lon="-106.499088900">
        <ele>2632.200</ele>
        <time>2019-07-14T21:14:47Z</time>
      </trkpt>
      <trkpt lat="35.825719800" lon="-106.498946290">
        <ele>2630.900</ele>
        <time>2019-07-14T21:14:48Z</time>
      </trkpt>
      <trkpt lat="35.825888580" lon="-106.498820820">
        <ele>2631.300</ele>
        <time>2019-07-14T21:14:49Z</time>
      </trkpt>
      <trkpt lat="35.826053740" lon="-106.498680010">
        <ele>2631.600</ele>
        <time>2019-07-14T21:14:50Z</time>
      </trkpt>
      <trkpt lat="35.826222420" lon="-106.498553440">
        <ele>2630.700</ele>
        <time>2019-07-14T21:14:51Z</time>
      </trkpt>
      <trkpt lat="35.826394560" lon="-106.498410120">
        <ele>2627.800</ele>
        <time>2019-07-14T21:14:52Z</time>
      </trkpt>
      <trkpt lat="35.826564570" lon="-106.498284640">
        <ele>2626.700</ele>
        <time>2019-07-14T21:14:53Z</time>
      </trkpt>
      <trkpt lat="35.826734200" lon="-106.498158020">
        <ele>2625.200</ele>
        <time>2019-07-14T21:14:54Z</time>
      </trkpt>
      <trkpt lat="35.826902990" lon="-106.498014980">
        <ele>2622.600</ele>
        <time>2019-07-14T21:14:55Z</time>
      </trkpt>
      <trkpt lat="35.827071610" lon="-106.497884550">
        <ele>2621.200</ele>
        <time>2019-07-14T21:14:56Z</time>
      </trkpt>
      <trkpt lat="35.827240070" lon="-106.497737060">
        <ele>2620.500</ele>
        <time>2019-07-14T21:14:57Z</time>
      </trkpt>
      <trkpt lat="35.827405270" lon="-106.497590520">
        <ele>2620.600</ele>
        <time>2019-07-14T21:14:58Z</time>
      </trkpt>
      <trkpt lat="35.827556120" lon="-106.497431800">
        <ele>2620.400</ele>
        <time>2019-07-14T21:14:59Z</time>
      </trkpt>
      <trkpt lat="35.827697620" lon="-106.497262050">
        <ele>2619.700</ele>
        <time>2019-07-14T21:15:00Z</time>
      </trkpt>
      <trkpt lat="35.827826040" lon="-106.497073200">
        <ele>2619.000</ele>
        <time>2019-07-14T21:15:01Z</time>
      </trkpt>
      <trkpt lat="35.827939420" lon="-106.496880080">
        <ele>2619.600</ele>
        <time>2019-07-14T21:15:02Z</time>
      </trkpt>
      <trkpt lat="35.828009630" lon="-106.496646690">
        <ele>2620.000</ele>
        <time>2019-07-14T21:15:03Z</time>
      </trkpt>
      <trkpt lat="35.828091090" lon="-106.496430990">
        <ele>2619.300</ele>
        <time>2019-07-14T21:15:04Z</time>
      </trkpt>
      <trkpt lat="35.828141130" lon="-106.496183570">
        <ele>2619.200</ele>
        <time>2019-07-14T21:15:05Z</time>
      </trkpt>
      <trkpt lat="35.828181240" lon="-106.495947280">
        <ele>2619.300</ele>
        <time>2019-07-14T21:15:06Z</time>
      </trkpt>
      <trkpt lat="35.828205960" lon="-106.495715240">
        <ele>2617.200</ele>
        <time>2019-07-14T21:15:07Z</time>
      </trkpt>
      <trkpt lat="35.828187220" lon="-106.495484230">
        <ele>2616.900</ele>
        <time>2019-07-14T21:15:08Z</time>
      </trkpt>
      <trkpt lat="35.828159920" lon="-106.495219080">
        <ele>2617.300</ele>
        <time>2019-07-14T21:15:09Z</time>
      </trkpt>
      <trkpt lat="35.828128500" lon="-106.494964330">
        <ele>2618.800</ele>
        <time>2019-07-14T21:15:10Z</time>
      </trkpt>
      <trkpt lat="35.828082450" lon="-106.494724790">
        <ele>2619.600</ele>
        <time>2019-07-14T21:15:11Z</time>
      </trkpt>
      <trkpt lat="35.828054620" lon="-106.494485510">
        <ele>2620.300</ele>
        <time>2019-07-14T21:15:12Z</time>
      </trkpt>
      <trkpt lat="35.828022210" lon="-106.494243740">
        <ele>2620.400</ele>
        <time>2019-07-14T21:15:13Z</time>
      </trkpt>
      <trkpt lat="35.827986860" lon="-106.494007340">
        <ele>2621.300</ele>
        <time>2019-07-14T21:15:14Z</time>
      </trkpt>
      <trkpt lat="35.827963910" lon="-106.493764600">
        <ele>2621.700</ele>
        <time>2019-07-14T21:15:15Z</time>
      </trkpt>
      <trkpt lat="35.827968680" lon="-106.493520090">
        <ele>2620.500</ele>
        <time>2019-07-14T21:15:16Z</time>
      </trkpt>
      <trkpt lat="35.827982500" lon="-106.493271900">
        <ele>2620.300</ele>
        <time>2019-07-14T21:15:17Z</time>
      </trkpt>
      <trkpt lat="35.828001940" lon="-106.493015420">
        <ele>2620.200</ele>
        <time>2019-07-14T21:15:18Z</time>
      </trkpt>
      <trkpt lat="35.828018130" lon="-106.492753740">
        <ele>2620.000</ele>
        <time>2019-07-14T21:15:19Z</time>
      </trkpt>
      <trkpt lat="35.828092120" lon="-106.492518750">
        <ele>2620.800</ele>
        <time>2019-07-14T21:15:20Z</time>
      </trkpt>
      <trkpt lat="35.828144870" lon="-106.492264740">
        <ele>2620.600</ele>
        <time>2019-07-14T21:15:21Z</time>
      </trkpt>
      <trkpt lat="35.828242730" lon="-106.492024560">
        <ele>2621.200</ele>
        <time>2019-07-14T21:15:22Z</time>
      </trkpt>
      <trkpt lat="35.828321580" lon="-106.491767070">
        <ele>2622.000</ele>
        <time>2019-07-14T21:15:23Z</time>
      </trkpt>
      <trkpt lat="35.828450780" lon="-106.491576860">
        <ele>2623.400</ele>
        <time>2019-07-14T21:15:24Z</time>
      </trkpt>
      <trkpt lat="35.828567700" lon="-106.491381100">
        <ele>2623.100</ele>
        <time>2019-07-14T21:15:25Z</time>
      </trkpt>
      <trkpt lat="35.828708930" lon="-106.491195850">
        <ele>2622.300</ele>
        <time>2019-07-14T21:15:26Z</time>
      </trkpt>
      <trkpt lat="35.828852690" lon="-106.491026570">
        <ele>2620.500</ele>
        <time>2019-07-14T21:15:27Z</time>
      </trkpt>
      <trkpt lat="35.828988400" lon="-106.490836570">
        <ele>2620.400</ele>
        <time>2019-07-14T21:15:28Z</time>
      </trkpt>
      <trkpt lat="35.829128560" lon="-106.490657240">
        <ele>2621.100</ele>
        <time>2019-07-14T21:15:29Z</time>
      </trkpt>
      <trkpt lat="35.829254730" lon="-106.490463040">
        <ele>2622.700</ele>
        <time>2019-07-14T21:15:30Z</time>
      </trkpt>
      <trkpt lat="35.829384430" lon="-106.490270730">
        <ele>2622.000</ele>
        <time>2019-07-14T21:15:31Z</time>
      </trkpt>
      <trkpt lat="35.829498930" lon="-106.490072860">
        <ele>2623.300</ele>
        <time>2019-07-14T21:15:32Z</time>
      </trkpt>
      <trkpt lat="35.829601990" lon="-106.489873270">
        <ele>2623.900</ele>
        <time>2019-07-14T21:15:33Z</time>
      </trkpt>
      <trkpt lat="35.829699490" lon="-106.489659080">
        <ele>2624.600</ele>
        <time>2019-07-14T21:15:34Z</time>
      </trkpt>
      <trkpt lat="35.829795900" lon="-106.489437880">
        <ele>2624.100</ele>
        <time>2019-07-14T21:15:35Z</time>
      </trkpt>
      <trkpt lat="35.829887290" lon="-106.489226510">
        <ele>2624.200</ele>
        <time>2019-07-14T21:15:36Z</time>
      </trkpt>
      <trkpt lat="35.829979280" lon="-106.489016370">
        <ele>2624.300</ele>
        <time>2019-07-14T21:15:37Z</time>
      </trkpt>
      <trkpt lat="35.830074280" lon="-106.488798130">
        <ele>2625.000</ele>
        <time>2019-07-14T21:15:38Z</time>
      </trkpt>
      <trkpt lat="35.830165680" lon="-106.488590220">
        <ele>2626.300</ele>
        <time>2019-07-14T21:15:39Z</time>
      </trkpt>
      <trkpt lat="35.830261500" lon="-106.488408050">
        <ele>2627.300</ele>
        <time>2019-07-14T21:15:40Z</time>
      </trkpt>
      <trkpt lat="35.830375310" lon="-106.488248780">
        <ele>2629.400</ele>
        <time>2019-07-14T21:15:41Z</time>
      </trkpt>
      <trkpt lat="35.830487520" lon="-106.488076650">
        <ele>2630.200</ele>
        <time>2019-07-14T21:15:42Z</time>
      </trkpt>
      <trkpt lat="35.830602520" lon="-106.487923430">
        <ele>2630.100</ele>
        <time>2019-07-14T21:15:43Z</time>
      </trkpt>
      <trkpt lat="35.830721710" lon="-106.487785730">
        <ele>2630.900</ele>
        <time>2019-07-14T21:15:44Z</time>
      </trkpt>
      <trkpt lat="35.830843610" lon="-106.487659820">
        <ele>2631.200</ele>
        <time>2019-07-14T21:15:45Z</time>
      </trkpt>
      <trkpt lat="35.830977050" lon="-106.487548860">
        <ele>2631.900</ele>
        <time>2019-07-14T21:15:46Z</time>
      </trkpt>
      <trkpt lat="35.831109440" lon="-106.487435810">
        <ele>2631.900</ele>
        <time>2019-07-14T21:15:47Z</time>
      </trkpt>
      <trkpt lat="35.831242900" lon="-106.487338570">
        <ele>2632.400</ele>
        <time>2019-07-14T21:15:48Z</time>
      </trkpt>
      <trkpt lat="35.831371770" lon="-106.487246030">
        <ele>2633.200</ele>
        <time>2019-07-14T21:15:49Z</time>
      </trkpt>
      <trkpt lat="35.831504820" lon="-106.487197620">
        <ele>2632.300</ele>
        <time>2019-07-14T21:15:50Z</time>
      </trkpt>
      <trkpt lat="35.831633190" lon="-106.487138180">
        <ele>2631.700</ele>
        <time>2019-07-14T21:15:51Z</time>
      </trkpt>
      <trkpt lat="35.831751390" lon="-106.487085370">
        <ele>2631.000</ele>
        <time>2019-07-14T21:15:52Z</time>
      </trkpt>
      <trkpt lat="35.831855130" lon="-106.487050450">
        <ele>2631.000</ele>
        <time>2019-07-14T21:15:53Z</time>
      </trkpt>
      <trkpt lat="35.831950910" lon="-106.487045940">
        <ele>2629.200</ele>
        <time>2019-07-14T21:15:54Z</time>
      </trkpt>
      <trkpt lat="35.832037260" lon="-106.487062950">
        <ele>2628.800</ele>
        <time>2019-07-14T21:15:55Z</time>
      </trkpt>
      <trkpt lat="35.832104020" lon="-106.487109670">
        <ele>2628.800</ele>
        <time>2019-07-14T21:15:56Z</time>
      </trkpt>
      <trkpt lat="35.832174050" lon="-106.487157270">
        <ele>2628.000</ele>
        <time>2019-07-14T21:15:57Z</time>
      </trkpt>
      <trkpt lat="35.832197600" lon="-106.487243880">
        <ele>2629.800</ele>
        <time>2019-07-14T21:15:58Z</time>
      </trkpt>
      <trkpt lat="35.832225430" lon="-106.487329390">
        <ele>2628.300</ele>
        <time>2019-07-14T21:15:59Z</time>
      </trkpt>
      <trkpt lat="35.832247970" lon="-106.487408050">
        <ele>2628.400</ele>
        <time>2019-07-14T21:16:00Z</time>
      </trkpt>
      <trkpt lat="35.832278840" lon="-106.487481470">
        <ele>2629.500</ele>
        <time>2019-07-14T21:16:01Z</time>
      </trkpt>
      <trkpt lat="35.832319850" lon="-106.487559110">
        <ele>2627.000</ele>
        <time>2019-07-14T21:16:02Z</time>
      </trkpt>
      <trkpt lat="35.832363310" lon="-106.487638760">
        <ele>2625.800</ele>
        <time>2019-07-14T21:16:03Z</time>
      </trkpt>
      <trkpt lat="35.832402780" lon="-106.487728690">
        <ele>2625.000</ele>
        <time>2019-07-14T21:16:04Z</time>
      </trkpt>
      <trkpt lat="35.832441700" lon="-106.487804630">
        <ele>2625.200</ele>
        <time>2019-07-14T21:16:05Z</time>
      </trkpt>
      <trkpt lat="35.832479850" lon="-106.487876700">
        <ele>2624.700</ele>
        <time>2019-07-14T21:16:06Z</time>
      </trkpt>
      <trkpt lat="35.832506420" lon="-106.487951410">
        <ele>2623.800</ele>
        <time>2019-07-14T21:16:07Z</time>
      </trkpt>
      <trkpt lat="35.832540400" lon="-106.488029090">
        <ele>2622.200</ele>
        <time>2019-07-14T21:16:08Z</time>
      </trkpt>
      <trkpt lat="35.832574820" lon="-106.488099440">
        <ele>2621.400</ele>
        <time>2019-07-14T21:16:09Z</time>
      </trkpt>
      <trkpt lat="35.832619870" lon="-106.488172730">
        <ele>2619.600</ele>
        <time>2019-07-14T21:16:10Z</time>
      </trkpt>
      <trkpt lat="35.832662100" lon="-106.488239660">
        <ele>2619.200</ele>
        <time>2019-07-14T21:16:11Z</time>
      </trkpt>
      <trkpt lat="35.832710640" lon="-106.488313450">
        <ele>2618.900</ele>
        <time>2019-07-14T21:16:12Z</time>
      </trkpt>
      <trkpt lat="35.832756970" lon="-106.488384700">
        <ele>2618.900</ele>
        <time>2019-07-14T21:16:13Z</time>
      </trkpt>
      <trkpt lat="35.832804140" lon="-106.488442580">
        <ele>2619.100</ele>
        <time>2019-07-14T21:16:14Z</time>
      </trkpt>
      <trkpt lat="35.832856420" lon="-106.488504690">
        <ele>2617.900</ele>
        <time>2019-07-14T21:16:15Z</time>
      </trkpt>
      <trkpt lat="35.832918610" lon="-106.488571750">
        <ele>2615.400</ele>
        <time>2019-07-14T21:16:16Z</time>
      </trkpt>
      <trkpt lat="35.832971550" lon="-106.488642540">
        <ele>2615.600</ele>
        <time>2019-07-14T21:16:17Z</time>
      </trkpt>
      <trkpt lat="35.833027440" lon="-106.488715380">
        <ele>2615.200</ele>
        <time>2019-07-14T21:16:18Z</time>
      </trkpt>
      <trkpt lat="35.833080070" lon="-106.488787790">
        <ele>2615.400</ele>
        <time>2019-07-14T21:16:19Z</time>
      </trkpt>
      <trkpt lat="35.833146030" lon="-106.488864800">
        <ele>2614.000</ele>
        <time>2019-07-14T21:16:20Z</time>
      </trkpt>
      <trkpt lat="35.833198640" lon="-106.488939850">
        <ele>2613.900</ele>
        <time>2019-07-14T21:16:21Z</time>
      </trkpt>
      <trkpt lat="35.833248140" lon="-106.489009720">
        <ele>2614.100</ele>
        <time>2019-07-14T21:16:22Z</time>
      </trkpt>
      <trkpt lat="35.833302380" lon="-106.489082900">
        <ele>2613.900</ele>
        <time>2019-07-14T21:16:23Z</time>
      </trkpt>
      <trkpt lat="35.833351520" lon="-106.489161170">
        <ele>2614.300</ele>
        <time>2019-07-14T21:16:24Z</time>
      </trkpt>
      <trkpt lat="35.833398310" lon="-106.489240410">
        <ele>2613.900</ele>
        <time>2019-07-14T21:16:25Z</time>
      </trkpt>
      <trkpt lat="35.833449790" lon="-106.489315010">
        <ele>2613.900</ele>
        <time>2019-07-14T21:16:26Z</time>
      </trkpt>
      <trkpt lat="35.833498000" lon="-106.489402450">
        <ele>2613.600</ele>
        <time>2019-07-14T21:16:27Z</time>
      </trkpt>
      <trkpt lat="35.833547490" lon="-106.489486290">
        <ele>2613.500</ele>
        <time>2019-07-14T21:16:28Z</time>
      </trkpt>
      <trkpt lat="35.833599020" lon="-106.489565290">
        <ele>2613.300</ele>
        <time>2019-07-14T21:16:29Z</time>
      </trkpt>
      <trkpt lat="35.833655150" lon="-106.489662060">
        <ele>2610.700</ele>
        <time>2019-07-14T21:16:30Z</time>
      </trkpt>
      <trkpt lat="35.833709420" lon="-106.489733140">
        <ele>2612.000</ele>
        <time>2019-07-14T21:16:31Z</time>
      </trkpt>
      <trkpt lat="35.833766990" lon="-106.489816160">
        <ele>2610.500</ele>
        <time>2019-07-14T21:16:32Z</time>
      </trkpt>
      <trkpt lat="35.833819750" lon="-106.489905080">
        <ele>2610.700</ele>
        <time>2019-07-14T21:16:33Z</time>
      </trkpt>
      <trkpt lat="35.833876510" lon="-106.489998500">
        <ele>2608.000</ele>
        <time>2019-07-14T21:16:34Z</time>
      </trkpt>
      <trkpt lat="35.833934860" lon="-106.490073720">
        <ele>2607.900</ele>
        <time>2019-07-14T21:16:35Z</time>
      </trkpt>
      <trkpt lat="35.833989820" lon="-106.490126650">
        <ele>2608.600</ele>
        <time>2019-07-14T21:16:36Z</time>
      </trkpt>
      <trkpt lat="35.834052150" lon="-106.490195330">
        <ele>2607.700</ele>
        <time>2019-07-14T21:16:37Z</time>
      </trkpt>
      <trkpt lat="35.834115150" lon="-106.490256150">
        <ele>2608.400</ele>
        <time>2019-07-14T21:16:38Z</time>
      </trkpt>
      <trkpt lat="35.834181540" lon="-106.490314620">
        <ele>2607.800</ele>
        <time>2019-07-14T21:16:39Z</time>
      </trkpt>
      <trkpt lat="35.834254650" lon="-106.490370460">
        <ele>2607.300</ele>
        <time>2019-07-14T21:16:40Z</time>
      </trkpt>
      <trkpt lat="35.834312490" lon="-106.490424090">
        <ele>2607.900</ele>
        <time>2019-07-14T21:16:41Z</time>
      </trkpt>
      <trkpt lat="35.834390050" lon="-106.490483240">
        <ele>2606.100</ele>
        <time>2019-07-14T21:16:42Z</time>
      </trkpt>
      <trkpt lat="35.834461660" lon="-106.490537260">
        <ele>2606.900</ele>
        <time>2019-07-14T21:16:43Z</time>
      </trkpt>
      <trkpt lat="35.834536540" lon="-106.490596460">
        <ele>2605.600</ele>
        <time>2019-07-14T21:16:44Z</time>
      </trkpt>
      <trkpt lat="35.834612460" lon="-106.490645440">
        <ele>2605.600</ele>
        <time>2019-07-14T21:16:45Z</time>
      </trkpt>
      <trkpt lat="35.834684680" lon="-106.490701180">
        <ele>2605.700</ele>
        <time>2019-07-14T21:16:46Z</time>
      </trkpt>
      <trkpt lat="35.834761250" lon="-106.490758100">
        <ele>2603.900</ele>
        <time>2019-07-14T21:16:47Z</time>
      </trkpt>
      <trkpt lat="35.834837300" lon="-106.490803680">
        <ele>2603.400</ele>
        <time>2019-07-14T21:16:48Z</time>
      </trkpt>
      <trkpt lat="35.834921610" lon="-106.490848520">
        <ele>2601.300</ele>
        <time>2019-07-14T21:16:49Z</time>
      </trkpt>
      <trkpt lat="35.835007680" lon="-106.490897450">
        <ele>2598.700</ele>
        <time>2019-07-14T21:16:50Z</time>
      </trkpt>
      <trkpt lat="35.835090940" lon="-106.490937530">
        <ele>2598.200</ele>
        <time>2019-07-14T21:16:51Z</time>
      </trkpt>
      <trkpt lat="35.835175510" lon="-106.490970770">
        <ele>2598.000</ele>
        <time>2019-07-14T21:16:52Z</time>
      </trkpt>
      <trkpt lat="35.835270450" lon="-106.491010950">
        <ele>2598.100</ele>
        <time>2019-07-14T21:16:53Z</time>
      </trkpt>
      <trkpt lat="35.835356280" lon="-106.491034460">
        <ele>2597.700</ele>
        <time>2019-07-14T21:16:54Z</time>
      </trkpt>
      <trkpt lat="35.835448950" lon="-106.491061430">
        <ele>2597.200</ele>
        <time>2019-07-14T21:16:55Z</time>
      </trkpt>
      <trkpt lat="35.835541550" lon="-106.491079850">
        <ele>2596.700</ele>
        <time>2019-07-14T21:16:56Z</time>
      </trkpt>
      <trkpt lat="35.835635910" lon="-106.491080480">
        <ele>2597.400</ele>
        <time>2019-07-14T21:16:57Z</time>
      </trkpt>
      <trkpt lat="35.835717780" lon="-106.491087320">
        <ele>2597.600</ele>
        <time>2019-07-14T21:16:58Z</time>
      </trkpt>
      <trkpt lat="35.835800230" lon="-106.491096430">
        <ele>2597.000</ele>
        <time>2019-07-14T21:16:59Z</time>
      </trkpt>
      <trkpt lat="35.835879380" lon="-106.491108600">
        <ele>2596.400</ele>
        <time>2019-07-14T21:17:00Z</time>
      </trkpt>
      <trkpt lat="35.835957990" lon="-106.491114820">
        <ele>2595.900</ele>
        <time>2019-07-14T21:17:01Z</time>
      </trkpt>
      <trkpt lat="35.836017520" lon="-106.491112340">
        <ele>2594.800</ele>
        <time>2019-07-14T21:17:02Z</time>
      </trkpt>
      <trkpt lat="35.836098740" lon="-106.491126240">
        <ele>2594.400</ele>
        <time>2019-07-14T21:17:03Z</time>
      </trkpt>
      <trkpt lat="35.836180350" lon="-106.491135060">
        <ele>2593.100</ele>
        <time>2019-07-14T21:17:04Z</time>
      </trkpt>
      <trkpt lat="35.836260700" lon="-106.491152200">
        <ele>2592.800</ele>
        <time>2019-07-14T21:17:05Z</time>
      </trkpt>
      <trkpt lat="35.836341180" lon="-106.491167310">
        <ele>2593.000</ele>
        <time>2019-07-14T21:17:06Z</time>
      </trkpt>
      <trkpt lat="35.836416160" lon="-106.491186680">
        <ele>2592.500</ele>
        <time>2019-07-14T21:17:07Z</time>
      </trkpt>
      <trkpt lat="35.836486450" lon="-106.491211530">
        <ele>2591.500</ele>
        <time>2019-07-14T21:17:08Z</time>
      </trkpt>
      <trkpt lat="35.836568570" lon="-106.491231970">
        <ele>2591.200</ele>
        <time>2019-07-14T21:17:09Z</time>
      </trkpt>
      <trkpt lat="35.836649490" lon="-106.491262430">
        <ele>2591.800</ele>
        <time>2019-07-14T21:17:10Z</time>
      </trkpt>
      <trkpt lat="35.836744510" lon="-106.491294910">
        <ele>2590.200</ele>
        <time>2019-07-14T21:17:11Z</time>
      </trkpt>
      <trkpt lat="35.836832850" lon="-106.491319090">
        <ele>2590.100</ele>
        <time>2019-07-14T21:17:12Z</time>
      </trkpt>
      <trkpt lat="35.836931770" lon="-106.491341010">
        <ele>2589.500</ele>
        <time>2019-07-14T21:17:13Z</time>
      </trkpt>
      <trkpt lat="35.837028540" lon="-106.491344860">
        <ele>2588.400</ele>
        <time>2019-07-14T21:17:14Z</time>
      </trkpt>
      <trkpt lat="35.837123070" lon="-106.491352270">
        <ele>2586.400</ele>
        <time>2019-07-14T21:17:15Z</time>
      </trkpt>
      <trkpt lat="35.837208640" lon="-106.491368150">
        <ele>2586.900</ele>
        <time>2019-07-14T21:17:16Z</time>
      </trkpt>
      <trkpt lat="35.837295820" lon="-106.491386480">
        <ele>2586.600</ele>
        <time>2019-07-14T21:17:17Z</time>
      </trkpt>
      <trkpt lat="35.837388520" lon="-106.491405710">
        <ele>2586.100</ele>
        <time>2019-07-14T21:17:18Z</time>
      </trkpt>
      <trkpt lat="35.837486930" lon="-106.491424490">
        <ele>2585.100</ele>
        <time>2019-07-14T21:17:19Z</time>
      </trkpt>
      <trkpt lat="35.837583200" lon="-106.491444040">
        <ele>2584.900</ele>
        <time>2019-07-14T21:17:20Z</time>
      </trkpt>
      <trkpt lat="35.837682790" lon="-106.491467080">
        <ele>2584.300</ele>
        <time>2019-07-14T21:17:21Z</time>
      </trkpt>
      <trkpt lat="35.837776200" lon="-106.491495520">
        <ele>2584.400</ele>
        <time>2019-07-14T21:17:22Z</time>
      </trkpt>
      <trkpt lat="35.837876000" lon="-106.491525530">
        <ele>2583.800</ele>
        <time>2019-07-14T21:17:23Z</time>
      </trkpt>
      <trkpt lat="35.837977040" lon="-106.491562820">
        <ele>2583.900</ele>
        <time>2019-07-14T21:17:24Z</time>
      </trkpt>
      <trkpt lat="35.838074210" lon="-106.491605350">
        <ele>2584.100</ele>
        <time>2019-07-14T21:17:25Z</time>
      </trkpt>
      <trkpt lat="35.838158790" lon="-106.491640250">
        <ele>2584.900</ele>
        <time>2019-07-14T21:17:26Z</time>
      </trkpt>
      <trkpt lat="35.838253890" lon="-106.491681810">
        <ele>2584.000</ele>
        <time>2019-07-14T21:17:27Z</time>
      </trkpt>
      <trkpt lat="35.838343830" lon="-106.491722770">
        <ele>2584.200</ele>
        <time>2019-07-14T21:17:28Z</time>
      </trkpt>
      <trkpt lat="35.838431360" lon="-106.491761300">
        <ele>2584.100</ele>
        <time>2019-07-14T21:17:29Z</time>
      </trkpt>
      <trkpt lat="35.838527570" lon="-106.491790470">
        <ele>2584.000</ele>
        <time>2019-07-14T21:17:30Z</time>
      </trkpt>
      <trkpt lat="35.838640060" lon="-106.491779650">
        <ele>2582.200</ele>
        <time>2019-07-14T21:17:31Z</time>
      </trkpt>
      <trkpt lat="35.838725380" lon="-106.491787460">
        <ele>2583.300</ele>
        <time>2019-07-14T21:17:32Z</time>
      </trkpt>
      <trkpt lat="35.838814920" lon="-106.491782510">
        <ele>2584.400</ele>
        <time>2019-07-14T21:17:33Z</time>
      </trkpt>
      <trkpt lat="35.838907790" lon="-106.491777670">
        <ele>2584.300</ele>
        <time>2019-07-14T21:17:34Z</time>
      </trkpt>
      <trkpt lat="35.839002640" lon="-106.491780610">
        <ele>2583.200</ele>
        <time>2019-07-14T21:17:35Z</time>
      </trkpt>
      <trkpt lat="35.839098700" lon="-106.491763170">
        <ele>2581.700</ele>
        <time>2019-07-14T21:17:36Z</time>
      </trkpt>
      <trkpt lat="35.839183170" lon="-106.491750080">
        <ele>2582.400</ele>
        <time>2019-07-14T21:17:37Z</time>
      </trkpt>
      <trkpt lat="35.839270080" lon="-106.491741310">
        <ele>2581.900</ele>
        <time>2019-07-14T21:17:38Z</time>
      </trkpt>
      <trkpt lat="35.839358350" lon="-106.491740920">
        <ele>2581.800</ele>
        <time>2019-07-14T21:17:39Z</time>
      </trkpt>
      <trkpt lat="35.839444840" lon="-106.491737330">
        <ele>2581.300</ele>
        <time>2019-07-14T21:17:40Z</time>
      </trkpt>
      <trkpt lat="35.839527520" lon="-106.491728780">
        <ele>2580.800</ele>
        <time>2019-07-14T21:17:41Z</time>
      </trkpt>
      <trkpt lat="35.839612720" lon="-106.491730930">
        <ele>2581.300</ele>
        <time>2019-07-14T21:17:42Z</time>
      </trkpt>
      <trkpt lat="35.839698280" lon="-106.491740600">
        <ele>2581.300</ele>
        <time>2019-07-14T21:17:43Z</time>
      </trkpt>
      <trkpt lat="35.839778970" lon="-106.491759880">
        <ele>2580.900</ele>
        <time>2019-07-14T21:17:44Z</time>
      </trkpt>
      <trkpt lat="35.839863840" lon="-106.491779460">
        <ele>2580.700</ele>
        <time>2019-07-14T21:17:45Z</time>
      </trkpt>
      <trkpt lat="35.839945590" lon="-106.491802790">
        <ele>2580.800</ele>
        <time>2019-07-14T21:17:46Z</time>
      </trkpt>
      <trkpt lat="35.840024660" lon="-106.491822620">
        <ele>2580.500</ele>
        <time>2019-07-14T21:17:47Z</time>
      </trkpt>
      <trkpt lat="35.840101110" lon="-106.491846660">
        <ele>2580.700</ele>
        <time>2019-07-14T21:17:48Z</time>
      </trkpt>
      <trkpt lat="35.840177930" lon="-106.491875630">
        <ele>2580.600</ele>
        <time>2019-07-14T21:17:49Z</time>
      </trkpt>
      <trkpt lat="35.840247060" lon="-106.491908120">
        <ele>2580.800</ele>
        <time>2019-07-14T21:17:50Z</time>
      </trkpt>
      <trkpt lat="35.840316120" lon="-106.491944590">
        <ele>2580.200</ele>
        <time>2019-07-14T21:17:51Z</time>
      </trkpt>
      <trkpt lat="35.840391840" lon="-106.491990500">
        <ele>2579.500</ele>
        <time>2019-07-14T21:17:52Z</time>
      </trkpt>
      <trkpt lat="35.840468120" lon="-106.492041150">
        <ele>2578.900</ele>
        <time>2019-07-14T21:17:53Z</time>
      </trkpt>
      <trkpt lat="35.840537000" lon="-106.492097880">
        <ele>2578.100</ele>
        <time>2019-07-14T21:17:54Z</time>
      </trkpt>
      <trkpt lat="35.840611700" lon="-106.492150210">
        <ele>2575.900</ele>
        <time>2019-07-14T21:17:55Z</time>
      </trkpt>
      <trkpt lat="35.840680320" lon="-106.492200540">
        <ele>2574.900</ele>
        <time>2019-07-14T21:17:56Z</time>
      </trkpt>
      <trkpt lat="35.840750070" lon="-106.492251430">
        <ele>2574.800</ele>
        <time>2019-07-14T21:17:57Z</time>
      </trkpt>
      <trkpt lat="35.840825560" lon="-106.492297420">
        <ele>2574.600</ele>
        <time>2019-07-14T21:17:58Z</time>
      </trkpt>
      <trkpt lat="35.840906580" lon="-106.492344440">
        <ele>2574.600</ele>
        <time>2019-07-14T21:17:59Z</time>
      </trkpt>
      <trkpt lat="35.840989240" lon="-106.492380850">
        <ele>2575.000</ele>
        <time>2019-07-14T21:18:00Z</time>
      </trkpt>
      <trkpt lat="35.841065690" lon="-106.492424060">
        <ele>2575.200</ele>
        <time>2019-07-14T21:18:01Z</time>
      </trkpt>
      <trkpt lat="35.841138770" lon="-106.492462480">
        <ele>2575.400</ele>
        <time>2019-07-14T21:18:02Z</time>
      </trkpt>
      <trkpt lat="35.841233200" lon="-106.492495040">
        <ele>2575.500</ele>
        <time>2019-07-14T21:18:03Z</time>
      </trkpt>
      <trkpt lat="35.841303060" lon="-106.492492650">
        <ele>2576.000</ele>
        <time>2019-07-14T21:18:04Z</time>
      </trkpt>
      <trkpt lat="35.841388650" lon="-106.492502740">
        <ele>2575.800</ele>
        <time>2019-07-14T21:18:05Z</time>
      </trkpt>
      <trkpt lat="35.841466470" lon="-106.492491400">
        <ele>2575.400</ele>
        <time>2019-07-14T21:18:06Z</time>
      </trkpt>
      <trkpt lat="35.841542870" lon="-106.492478980">
        <ele>2575.600</ele>
        <time>2019-07-14T21:18:07Z</time>
      </trkpt>
      <trkpt lat="35.841615550" lon="-106.492445310">
        <ele>2575.300</ele>
        <time>2019-07-14T21:18:08Z</time>
      </trkpt>
      <trkpt lat="35.841695760" lon="-106.492427260">
        <ele>2574.700</ele>
        <time>2019-07-14T21:18:09Z</time>
      </trkpt>
      <trkpt lat="35.841773500" lon="-106.492396130">
        <ele>2574.000</ele>
        <time>2019-07-14T21:18:10Z</time>
      </trkpt>
      <trkpt lat="35.841847950" lon="-106.492369360">
        <ele>2574.300</ele>
        <time>2019-07-14T21:18:11Z</time>
      </trkpt>
      <trkpt lat="35.841925620" lon="-106.492347060">
        <ele>2573.700</ele>
        <time>2019-07-14T21:18:12Z</time>
      </trkpt>
      <trkpt lat="35.842011670" lon="-106.492318890">
        <ele>2573.100</ele>
        <time>2019-07-14T21:18:13Z</time>
      </trkpt>
      <trkpt lat="35.842094970" lon="-106.492289320">
        <ele>2573.200</ele>
        <time>2019-07-14T21:18:14Z</time>
      </trkpt>
      <trkpt lat="35.842178030" lon="-106.492251420">
        <ele>2573.200</ele>
        <time>2019-07-14T21:18:15Z</time>
      </trkpt>
      <trkpt lat="35.842268030" lon="-106.492214710">
        <ele>2573.700</ele>
        <time>2019-07-14T21:18:16Z</time>
      </trkpt>
      <trkpt lat="35.842353160" lon="-106.492182540">
        <ele>2574.200</ele>
        <time>2019-07-14T21:18:17Z</time>
      </trkpt>
      <trkpt lat="35.842439090" lon="-106.492148310">
        <ele>2574.100</ele>
        <time>2019-07-14T21:18:18Z</time>
      </trkpt>
      <trkpt lat="35.842526830" lon="-106.492120540">
        <ele>2574.400</ele>
        <time>2019-07-14T21:18:19Z</time>
      </trkpt>
      <trkpt lat="35.842615400" lon="-106.492081010">
        <ele>2573.800</ele>
        <time>2019-07-14T21:18:20Z</time>
      </trkpt>
      <trkpt lat="35.842703370" lon="-106.492046180">
        <ele>2573.800</ele>
        <time>2019-07-14T21:18:21Z</time>
      </trkpt>
      <trkpt lat="35.842784380" lon="-106.492010870">
        <ele>2573.500</ele>
        <time>2019-07-14T21:18:22Z</time>
      </trkpt>
      <trkpt lat="35.842875930" lon="-106.491976500">
        <ele>2573.700</ele>
        <time>2019-07-14T21:18:23Z</time>
      </trkpt>
      <trkpt lat="35.842975210" lon="-106.491941870">
        <ele>2573.000</ele>
        <time>2019-07-14T21:18:24Z</time>
      </trkpt>
      <trkpt lat="35.843069160" lon="-106.491909340">
        <ele>2573.000</ele>
        <time>2019-07-14T21:18:25Z</time>
      </trkpt>
      <trkpt lat="35.843169370" lon="-106.491883430">
        <ele>2572.500</ele>
        <time>2019-07-14T21:18:26Z</time>
      </trkpt>
      <trkpt lat="35.843262430" lon="-106.491857520">
        <ele>2574.100</ele>
        <time>2019-07-14T21:18:27Z</time>
      </trkpt>
      <trkpt lat="35.843359000" lon="-106.491840460">
        <ele>2574.600</ele>
        <time>2019-07-14T21:18:28Z</time>
      </trkpt>
      <trkpt lat="35.843454980" lon="-106.491827680">
        <ele>2574.300</ele>
        <time>2019-07-14T21:18:29Z</time>
      </trkpt>
      <trkpt lat="35.843552220" lon="-106.491819730">
        <ele>2574.500</ele>
        <time>2019-07-14T21:18:30Z</time>
      </trkpt>
      <trkpt lat="35.843643480" lon="-106.491812300">
        <ele>2573.900</ele>
        <time>2019-07-14T21:18:31Z</time>
      </trkpt>
      <trkpt lat="35.843737380" lon="-106.491802010">
        <ele>2573.200</ele>
        <time>2019-07-14T21:18:32Z</time>
      </trkpt>
      <trkpt lat="35.843830630" lon="-106.491795160">
        <ele>2572.400</ele>
        <time>2019-07-14T21:18:33Z</time>
      </trkpt>
      <trkpt lat="35.843922120" lon="-106.491781430">
        <ele>2572.100</ele>
        <time>2019-07-14T21:18:34Z</time>
      </trkpt>
      <trkpt lat="35.844005210" lon="-106.491759300">
        <ele>2572.800</ele>
        <time>2019-07-14T21:18:35Z</time>
      </trkpt>
      <trkpt lat="35.844089950" lon="-106.491741250">
        <ele>2572.500</ele>
        <time>2019-07-14T21:18:36Z</time>
      </trkpt>
      <trkpt lat="35.844174510" lon="-106.491712220">
        <ele>2572.700</ele>
        <time>2019-07-14T21:18:37Z</time>
      </trkpt>
      <trkpt lat="35.844254490" lon="-106.491680850">
        <ele>2573.200</ele>
        <time>2019-07-14T21:18:38Z</time>
      </trkpt>
      <trkpt lat="35.844330300" lon="-106.491654050">
        <ele>2573.400</ele>
        <time>2019-07-14T21:18:39Z</time>
      </trkpt>
      <trkpt lat="35.844407020" lon="-106.491638180">
        <ele>2573.600</ele>
        <time>2019-07-14T21:18:40Z</time>
      </trkpt>
      <trkpt lat="35.844486170" lon="-106.491614570">
        <ele>2573.200</ele>
        <time>2019-07-14T21:18:41Z</time>
      </trkpt>
      <trkpt lat="35.844566450" lon="-106.491587050">
        <ele>2573.400</ele>
        <time>2019-07-14T21:18:42Z</time>
      </trkpt>
      <trkpt lat="35.844646790" lon="-106.491563350">
        <ele>2573.900</ele>
        <time>2019-07-14T21:18:43Z</time>
      </trkpt>
      <trkpt lat="35.844724230" lon="-106.491536830">
        <ele>2573.400</ele>
        <time>2019-07-14T21:18:44Z</time>
      </trkpt>
      <trkpt lat="35.844803110" lon="-106.491510630">
        <ele>2574.200</ele>
        <time>2019-07-14T21:18:45Z</time>
      </trkpt>
      <trkpt lat="35.844884180" lon="-106.491489470">
        <ele>2574.100</ele>
        <time>2019-07-14T21:18:46Z</time>
      </trkpt>
      <trkpt lat="35.844956490" lon="-106.491461950">
        <ele>2573.600</ele>
        <time>2019-07-14T21:18:47Z</time>
      </trkpt>
      <trkpt lat="35.845029610" lon="-106.491422590">
        <ele>2573.200</ele>
        <time>2019-07-14T21:18:48Z</time>
      </trkpt>
      <trkpt lat="35.845102700" lon="-106.491384210">
        <ele>2573.000</ele>
        <time>2019-07-14T21:18:49Z</time>
      </trkpt>
      <trkpt lat="35.845173920" lon="-106.491338310">
        <ele>2572.500</ele>
        <time>2019-07-14T21:18:50Z</time>
      </trkpt>
      <trkpt lat="35.845244990" lon="-106.491291850">
        <ele>2572.600</ele>
        <time>2019-07-14T21:18:51Z</time>
      </trkpt>
      <trkpt lat="35.845315870" lon="-106.491240130">
        <ele>2572.200</ele>
        <time>2019-07-14T21:18:52Z</time>
      </trkpt>
      <trkpt lat="35.845387740" lon="-106.491195060">
        <ele>2571.600</ele>
        <time>2019-07-14T21:18:53Z</time>
      </trkpt>
      <trkpt lat="35.845457860" lon="-106.491139290">
        <ele>2571.700</ele>
        <time>2019-07-14T21:18:54Z</time>
      </trkpt>
      <trkpt lat="35.845522910" lon="-106.491076910">
        <ele>2571.900</ele>
        <time>2019-07-14T21:18:55Z</time>
      </trkpt>
      <trkpt lat="35.845592040" lon="-106.491015620">
        <ele>2572.300</ele>
        <time>2019-07-14T21:18:56Z</time>
      </trkpt>
      <trkpt lat="35.845661160" lon="-106.490960260">
        <ele>2572.400</ele>
        <time>2019-07-14T21:18:57Z</time>
      </trkpt>
      <trkpt lat="35.845720590" lon="-106.490899130">
        <ele>2572.500</ele>
        <time>2019-07-14T21:18:58Z</time>
      </trkpt>
      <trkpt lat="35.845791670" lon="-106.490835320">
        <ele>2572.000</ele>
        <time>2019-07-14T21:18:59Z</time>
      </trkpt>
      <trkpt lat="35.845870240" lon="-106.490773660">
        <ele>2571.100</ele>
        <time>2019-07-14T21:19:00Z</time>
      </trkpt>
      <trkpt lat="35.845944420" lon="-106.490717800">
        <ele>2570.700</ele>
        <time>2019-07-14T21:19:01Z</time>
      </trkpt>
      <trkpt lat="35.846014990" lon="-106.490660000">
        <ele>2570.700</ele>
        <time>2019-07-14T21:19:02Z</time>
      </trkpt>
      <trkpt lat="35.846095960" lon="-106.490616150">
        <ele>2570.600</ele>
        <time>2019-07-14T21:19:03Z</time>
      </trkpt>
      <trkpt lat="35.846165590" lon="-106.490544540">
        <ele>2570.900</ele>
        <time>2019-07-14T21:19:04Z</time>
      </trkpt>
      <trkpt lat="35.846235330" lon="-106.490509990">
        <ele>2570.300</ele>
        <time>2019-07-14T21:19:05Z</time>
      </trkpt>
      <trkpt lat="35.846305830" lon="-106.490495070">
        <ele>2569.800</ele>
        <time>2019-07-14T21:19:06Z</time>
      </trkpt>
      <trkpt lat="35.846377840" lon="-106.490467440">
        <ele>2570.500</ele>
        <time>2019-07-14T21:19:07Z</time>
      </trkpt>
      <trkpt lat="35.846455470" lon="-106.490443930">
        <ele>2567.800</ele>
        <time>2019-07-14T21:19:08Z</time>
      </trkpt>
      <trkpt lat="35.846522210" lon="-106.490417580">
        <ele>2568.100</ele>
        <time>2019-07-14T21:19:09Z</time>
      </trkpt>
      <trkpt lat="35.846585810" lon="-106.490402590">
        <ele>2567.800</ele>
        <time>2019-07-14T21:19:10Z</time>
      </trkpt>
      <trkpt lat="35.846649750" lon="-106.490377030">
        <ele>2567.000</ele>
        <time>2019-07-14T21:19:11Z</time>
      </trkpt>
      <trkpt lat="35.846713690" lon="-106.490358590">
        <ele>2566.400</ele>
        <time>2019-07-14T21:19:12Z</time>
      </trkpt>
      <trkpt lat="35.846779120" lon="-106.490337010">
        <ele>2566.700</ele>
        <time>2019-07-14T21:19:13Z</time>
      </trkpt>
      <trkpt lat="35.846841800" lon="-106.490308600">
        <ele>2567.100</ele>
        <time>2019-07-14T21:19:14Z</time>
      </trkpt>
      <trkpt lat="35.846908010" lon="-106.490279090">
        <ele>2567.200</ele>
        <time>2019-07-14T21:19:15Z</time>
      </trkpt>
      <trkpt lat="35.846981130" lon="-106.490253320">
        <ele>2566.800</ele>
        <time>2019-07-14T21:19:16Z</time>
      </trkpt>
      <trkpt lat="35.847053250" lon="-106.490219800">
        <ele>2566.600</ele>
        <time>2019-07-14T21:19:17Z</time>
      </trkpt>
      <trkpt lat="35.847126220" lon="-106.490188470">
        <ele>2566.500</ele>
        <time>2019-07-14T21:19:18Z</time>
      </trkpt>
      <trkpt lat="35.847195050" lon="-106.490156930">
        <ele>2566.900</ele>
        <time>2019-07-14T21:19:19Z</time>
      </trkpt>
      <trkpt lat="35.847266730" lon="-106.490130180">
        <ele>2566.800</ele>
        <time>2019-07-14T21:19:20Z</time>
      </trkpt>
      <trkpt lat="35.847337870" lon="-106.490113820">
        <ele>2565.800</ele>
        <time>2019-07-14T21:19:21Z</time>
      </trkpt>
      <trkpt lat="35.847414480" lon="-106.490102300">
        <ele>2565.500</ele>
        <time>2019-07-14T21:19:22Z</time>
      </trkpt>
      <trkpt lat="35.847484780" lon="-106.490097910">
        <ele>2565.400</ele>
        <time>2019-07-14T21:19:23Z</time>
      </trkpt>
      <trkpt lat="35.847560910" lon="-106.490103980">
        <ele>2564.800</ele>
        <time>2019-07-14T21:19:24Z</time>
      </trkpt>
      <trkpt lat="35.847630190" lon="-106.490123470">
        <ele>2564.600</ele>
        <time>2019-07-14T21:19:25Z</time>
      </trkpt>
      <trkpt lat="35.847701270" lon="-106.490144270">
        <ele>2565.200</ele>
        <time>2019-07-14T21:19:26Z</time>
      </trkpt>
      <trkpt lat="35.847767900" lon="-106.490169020">
        <ele>2565.600</ele>
        <time>2019-07-14T21:19:27Z</time>
      </trkpt>
      <trkpt lat="35.847836690" lon="-106.490191550">
        <ele>2565.800</ele>
        <time>2019-07-14T21:19:28Z</time>
      </trkpt>
      <trkpt lat="35.847902680" lon="-106.490227700">
        <ele>2565.800</ele>
        <time>2019-07-14T21:19:29Z</time>
      </trkpt>
      <trkpt lat="35.847962640" lon="-106.490263510">
        <ele>2565.300</ele>
        <time>2019-07-14T21:19:30Z</time>
      </trkpt>
      <trkpt lat="35.848028340" lon="-106.490301010">
        <ele>2564.700</ele>
        <time>2019-07-14T21:19:31Z</time>
      </trkpt>
      <trkpt lat="35.848088680" lon="-106.490339840">
        <ele>2564.700</ele>
        <time>2019-07-14T21:19:32Z</time>
      </trkpt>
      <trkpt lat="35.848147240" lon="-106.490378810">
        <ele>2565.500</ele>
        <time>2019-07-14T21:19:33Z</time>
      </trkpt>
      <trkpt lat="35.848202040" lon="-106.490419580">
        <ele>2565.300</ele>
        <time>2019-07-14T21:19:34Z</time>
      </trkpt>
      <trkpt lat="35.848258720" lon="-106.490462470">
        <ele>2565.200</ele>
        <time>2019-07-14T21:19:35Z</time>
      </trkpt>
      <trkpt lat="35.848311110" lon="-106.490506100">
        <ele>2565.300</ele>
        <time>2019-07-14T21:19:36Z</time>
      </trkpt>
      <trkpt lat="35.848350520" lon="-106.490543980">
        <ele>2565.500</ele>
        <time>2019-07-14T21:19:37Z</time>
      </trkpt>
      <trkpt lat="35.848400120" lon="-106.490583890">
        <ele>2565.700</ele>
        <time>2019-07-14T21:19:38Z</time>
      </trkpt>
      <trkpt lat="35.848444790" lon="-106.490629640">
        <ele>2565.600</ele>
        <time>2019-07-14T21:19:39Z</time>
      </trkpt>
      <trkpt lat="35.848491410" lon="-106.490666680">
        <ele>2566.300</ele>
        <time>2019-07-14T21:19:40Z</time>
      </trkpt>
      <trkpt lat="35.848545800" lon="-106.490708680">
        <ele>2566.000</ele>
        <time>2019-07-14T21:19:41Z</time>
      </trkpt>
      <trkpt lat="35.848602950" lon="-106.490735890">
        <ele>2566.200</ele>
        <time>2019-07-14T21:19:42Z</time>
      </trkpt>
      <trkpt lat="35.848669670" lon="-106.490766240">
        <ele>2566.800</ele>
        <time>2019-07-14T21:19:43Z</time>
      </trkpt>
      <trkpt lat="35.848737160" lon="-106.490794970">
        <ele>2566.800</ele>
        <time>2019-07-14T21:19:44Z</time>
      </trkpt>
      <trkpt lat="35.848796770" lon="-106.490824950">
        <ele>2566.200</ele>
        <time>2019-07-14T21:19:45Z</time>
      </trkpt>
      <trkpt lat="35.848866990" lon="-106.490854230">
        <ele>2566.600</ele>
        <time>2019-07-14T21:19:46Z</time>
      </trkpt>
      <trkpt lat="35.848931550" lon="-106.490873670">
        <ele>2567.200</ele>
        <time>2019-07-14T21:19:47Z</time>
      </trkpt>
      <trkpt lat="35.848999030" lon="-106.490896010">
        <ele>2567.300</ele>
        <time>2019-07-14T21:19:48Z</time>
      </trkpt>
      <trkpt lat="35.849071040" lon="-106.490925150">
        <ele>2567.200</ele>
        <time>2019-07-14T21:19:49Z</time>
      </trkpt>
      <trkpt lat="35.849144610" lon="-106.490938490">
        <ele>2567.900</ele>
        <time>2019-07-14T21:19:50Z</time>
      </trkpt>
      <trkpt lat="35.849218490" lon="-106.490968190">
        <ele>2568.100</ele>
        <time>2019-07-14T21:19:51Z</time>
      </trkpt>
      <trkpt lat="35.849299940" lon="-106.490993900">
        <ele>2566.000</ele>
        <time>2019-07-14T21:19:52Z</time>
      </trkpt>
      <trkpt lat="35.849370400" lon="-106.491004170">
        <ele>2567.600</ele>
        <time>2019-07-14T21:19:53Z</time>
      </trkpt>
      <trkpt lat="35.849441050" lon="-106.491015780">
        <ele>2568.200</ele>
        <time>2019-07-14T21:19:54Z</time>
      </trkpt>
      <trkpt lat="35.849520000" lon="-106.491013410">
        <ele>2566.600</ele>
        <time>2019-07-14T21:19:55Z</time>
      </trkpt>
      <trkpt lat="35.849595960" lon="-106.491003460">
        <ele>2566.000</ele>
        <time>2019-07-14T21:19:56Z</time>
      </trkpt>
      <trkpt lat="35.849670450" lon="-106.490990210">
        <ele>2566.500</ele>
        <time>2019-07-14T21:19:57Z</time>
      </trkpt>
      <trkpt lat="35.849750560" lon="-106.491004420">
        <ele>2565.000</ele>
        <time>2019-07-14T21:19:58Z</time>
      </trkpt>
      <trkpt lat="35.849823790" lon="-106.490998990">
        <ele>2564.800</ele>
        <time>2019-07-14T21:19:59Z</time>
      </trkpt>
      <trkpt lat="35.849886320" lon="-106.491010300">
        <ele>2564.900</ele>
        <time>2019-07-14T21:20:00Z</time>
      </trkpt>
      <trkpt lat="35.849964600" lon="-106.491008590">
        <ele>2563.800</ele>
        <time>2019-07-14T21:20:01Z</time>
      </trkpt>
      <trkpt lat="35.850042410" lon="-106.490994780">
        <ele>2563.600</ele>
        <time>2019-07-14T21:20:02Z</time>
      </trkpt>
      <trkpt lat="35.850114060" lon="-106.490979590">
        <ele>2564.500</ele>
        <time>2019-07-14T21:20:03Z</time>
      </trkpt>
      <trkpt lat="35.850194440" lon="-106.490952760">
        <ele>2565.000</ele>
        <time>2019-07-14T21:20:04Z</time>
      </trkpt>
      <trkpt lat="35.850272170" lon="-106.490934490">
        <ele>2565.000</ele>
        <time>2019-07-14T21:20:05Z</time>
      </trkpt>
      <trkpt lat="35.850350730" lon="-106.490906560">
        <ele>2565.700</ele>
        <time>2019-07-14T21:20:06Z</time>
      </trkpt>
      <trkpt lat="35.850426800" lon="-106.490867740">
        <ele>2567.100</ele>
        <time>2019-07-14T21:20:07Z</time>
      </trkpt>
      <trkpt lat="35.850503710" lon="-106.490845020">
        <ele>2567.900</ele>
        <time>2019-07-14T21:20:08Z</time>
      </trkpt>
      <trkpt lat="35.850579210" lon="-106.490837820">
        <ele>2567.900</ele>
        <time>2019-07-14T21:20:09Z</time>
      </trkpt>
      <trkpt lat="35.850657860" lon="-106.490823170">
        <ele>2567.500</ele>
        <time>2019-07-14T21:20:10Z</time>
      </trkpt>
      <trkpt lat="35.850735350" lon="-106.490817380">
        <ele>2568.600</ele>
        <time>2019-07-14T21:20:11Z</time>
      </trkpt>
      <trkpt lat="35.850812810" lon="-106.490808060">
        <ele>2569.500</ele>
        <time>2019-07-14T21:20:12Z</time>
      </trkpt>
      <trkpt lat="35.850893440" lon="-106.490805200">
        <ele>2569.100</ele>
        <time>2019-07-14T21:20:13Z</time>
      </trkpt>
      <trkpt lat="35.850971700" lon="-106.490797780">
        <ele>2569.800</ele>
        <time>2019-07-14T21:20:14Z</time>
      </trkpt>
      <trkpt lat="35.851046730" lon="-106.490791570">
        <ele>2570.400</ele>
        <time>2019-07-14T21:20:15Z</time>
      </trkpt>
      <trkpt lat="35.851121410" lon="-106.490784470">
        <ele>2570.400</ele>
        <time>2019-07-14T21:20:16Z</time>
      </trkpt>
      <trkpt lat="35.851204480" lon="-106.490775490">
        <ele>2570.100</ele>
        <time>2019-07-14T21:20:17Z</time>
      </trkpt>
      <trkpt lat="35.851283920" lon="-106.490775480">
        <ele>2569.900</ele>
        <time>2019-07-14T21:20:18Z</time>
      </trkpt>
      <trkpt lat="35.851362050" lon="-106.490777630">
        <ele>2570.000</ele>
        <time>2019-07-14T21:20:19Z</time>
      </trkpt>
      <trkpt lat="35.851443710" lon="-106.490796030">
        <ele>2570.600</ele>
        <time>2019-07-14T21:20:20Z</time>
      </trkpt>
      <trkpt lat="35.851521270" lon="-106.490794190">
        <ele>2571.200</ele>
        <time>2019-07-14T21:20:21Z</time>
      </trkpt>
      <trkpt lat="35.851607410" lon="-106.490813880">
        <ele>2570.700</ele>
        <time>2019-07-14T21:20:22Z</time>
      </trkpt>
      <trkpt lat="35.851675760" lon="-106.490819610">
        <ele>2571.400</ele>
        <time>2019-07-14T21:20:23Z</time>
      </trkpt>
      <trkpt lat="35.851771860" lon="-106.490827420">
        <ele>2569.700</ele>
        <time>2019-07-14T21:20:24Z</time>
      </trkpt>
      <trkpt lat="35.851846610" lon="-106.490835110">
        <ele>2569.800</ele>
        <time>2019-07-14T21:20:25Z</time>
      </trkpt>
      <trkpt lat="35.851925450" lon="-106.490840440">
        <ele>2570.000</ele>
        <time>2019-07-14T21:20:26Z</time>
      </trkpt>
      <trkpt lat="35.851994590" lon="-106.490844010">
        <ele>2571.200</ele>
        <time>2019-07-14T21:20:27Z</time>
      </trkpt>
      <trkpt lat="35.852069550" lon="-106.490841060">
        <ele>2572.100</ele>
        <time>2019-07-14T21:20:28Z</time>
      </trkpt>
      <trkpt lat="35.852145450" lon="-106.490856450">
        <ele>2572.200</ele>
        <time>2019-07-14T21:20:29Z</time>
      </trkpt>
      <trkpt lat="35.852227260" lon="-106.490854720">
        <ele>2572.000</ele>
        <time>2019-07-14T21:20:30Z</time>
      </trkpt>
      <trkpt lat="35.852295150" lon="-106.490854330">
        <ele>2573.100</ele>
        <time>2019-07-14T21:20:31Z</time>
      </trkpt>
      <trkpt lat="35.852366120" lon="-106.490855490">
        <ele>2573.700</ele>
        <time>2019-07-14T21:20:32Z</time>
      </trkpt>
      <trkpt lat="35.852437810" lon="-106.490867910">
        <ele>2574.100</ele>
        <time>2019-07-14T21:20:33Z</time>
      </trkpt>
      <trkpt lat="35.852508620" lon="-106.490861950">
        <ele>2576.500</ele>
        <time>2019-07-14T21:20:34Z</time>
      </trkpt>
      <trkpt lat="35.852578940" lon="-106.490863750">
        <ele>2576.800</ele>
        <time>2019-07-14T21:20:35Z</time>
      </trkpt>
      <trkpt lat="35.852656560" lon="-106.490868280">
        <ele>2575.500</ele>
        <time>2019-07-14T21:20:36Z</time>
      </trkpt>
      <trkpt lat="35.852737520" lon="-106.490870760">
        <ele>2574.100</ele>
        <time>2019-07-14T21:20:37Z</time>
      </trkpt>
      <trkpt lat="35.852811970" lon="-106.490872020">
        <ele>2574.700</ele>
        <time>2019-07-14T21:20:38Z</time>
      </trkpt>
      <trkpt lat="35.852892180" lon="-106.490875290">
        <ele>2573.100</ele>
        <time>2019-07-14T21:20:39Z</time>
      </trkpt>
      <trkpt lat="35.852969250" lon="-106.490875520">
        <ele>2573.300</ele>
        <time>2019-07-14T21:20:40Z</time>
      </trkpt>
      <trkpt lat="35.853048990" lon="-106.490873090">
        <ele>2572.900</ele>
        <time>2019-07-14T21:20:41Z</time>
      </trkpt>
      <trkpt lat="35.853129730" lon="-106.490885230">
        <ele>2572.400</ele>
        <time>2019-07-14T21:20:42Z</time>
      </trkpt>
      <trkpt lat="35.853210160" lon="-106.490882260">
        <ele>2572.300</ele>
        <time>2019-07-14T21:20:43Z</time>
      </trkpt>
      <trkpt lat="35.853289210" lon="-106.490881360">
        <ele>2572.900</ele>
        <time>2019-07-14T21:20:44Z</time>
      </trkpt>
      <trkpt lat="35.853390410" lon="-106.490864330">
        <ele>2570.100</ele>
        <time>2019-07-14T21:20:45Z</time>
      </trkpt>
      <trkpt lat="35.853482410" lon="-106.490871890">
        <ele>2569.700</ele>
        <time>2019-07-14T21:20:46Z</time>
      </trkpt>
      <trkpt lat="35.853562430" lon="-106.490879540">
        <ele>2568.400</ele>
        <time>2019-07-14T21:20:47Z</time>
      </trkpt>
      <trkpt lat="35.853621390" lon="-106.490879340">
        <ele>2568.400</ele>
        <time>2019-07-14T21:20:48Z</time>
      </trkpt>
      <trkpt lat="35.853682160" lon="-106.490877420">
        <ele>2568.300</ele>
        <time>2019-07-14T21:20:49Z</time>
      </trkpt>
      <trkpt lat="35.853725720" lon="-106.490877680">
        <ele>2568.200</ele>
        <time>2019-07-14T21:20:50Z</time>
      </trkpt>
      <trkpt lat="35.853772050" lon="-106.490875330">
        <ele>2568.900</ele>
        <time>2019-07-14T21:20:51Z</time>
      </trkpt>
      <trkpt lat="35.853808410" lon="-106.490865440">
        <ele>2568.500</ele>
        <time>2019-07-14T21:20:52Z</time>
      </trkpt>
      <trkpt lat="35.853844570" lon="-106.490859560">
        <ele>2568.200</ele>
        <time>2019-07-14T21:20:53Z</time>
      </trkpt>
      <trkpt lat="35.853886870" lon="-106.490866700">
        <ele>2568.300</ele>
        <time>2019-07-14T21:20:54Z</time>
      </trkpt>
      <trkpt lat="35.853962480" lon="-106.490865540">
        <ele>2569.100</ele>
        <time>2019-07-14T21:20:56Z</time>
      </trkpt>
      <trkpt lat="35.853995900" lon="-106.490848360">
        <ele>2569.600</ele>
        <time>2019-07-14T21:20:57Z</time>
      </trkpt>
      <trkpt lat="35.854033180" lon="-106.490852670">
        <ele>2570.600</ele>
        <time>2019-07-14T21:20:58Z</time>
      </trkpt>
      <trkpt lat="35.854070370" lon="-106.490841510">
        <ele>2571.800</ele>
        <time>2019-07-14T21:20:59Z</time>
      </trkpt>
      <trkpt lat="35.854111470" lon="-106.490835610">
        <ele>2573.800</ele>
        <time>2019-07-14T21:21:02Z</time>
      </trkpt>
      <trkpt lat="35.854162820" lon="-106.490854250">
        <ele>2572.900</ele>
        <time>2019-07-14T21:21:08Z</time>
      </trkpt>
      <trkpt lat="35.854217450" lon="-106.490864620">
        <ele>2570.000</ele>
        <time>2019-07-14T21:21:10Z</time>
      </trkpt>
      <trkpt lat="35.854280260" lon="-106.490869750">
        <ele>2569.800</ele>
        <time>2019-07-14T21:21:12Z</time>
      </trkpt>
      <trkpt lat="35.854331560" lon="-106.490869810">
        <ele>2570.100</ele>
        <time>2019-07-14T21:21:14Z</time>
      </trkpt>
      <trkpt lat="35.854380230" lon="-106.490871800">
        <ele>2570.300</ele>
        <time>2019-07-14T21:21:16Z</time>
      </trkpt>
      <trkpt lat="35.854432060" lon="-106.490870490">
        <ele>2571.200</ele>
        <time>2019-07-14T21:21:18Z</time>
      </trkpt>
      <trkpt lat="35.854480830" lon="-106.490863370">
        <ele>2572.500</ele>
        <time>2019-07-14T21:21:20Z</time>
      </trkpt>
      <trkpt lat="35.854533610" lon="-106.490854460">
        <ele>2573.300</ele>
        <time>2019-07-14T21:21:22Z</time>
      </trkpt>
      <trkpt lat="35.854599810" lon="-106.490844670">
        <ele>2572.800</ele>
        <time>2019-07-14T21:21:24Z</time>
      </trkpt>
      <trkpt lat="35.854636500" lon="-106.490837570">
        <ele>2572.400</ele>
        <time>2019-07-14T21:21:25Z</time>
      </trkpt>
      <trkpt lat="35.854673140" lon="-106.490831130">
        <ele>2571.800</ele>
        <time>2019-07-14T21:21:26Z</time>
      </trkpt>
      <trkpt lat="35.854709830" lon="-106.490825140">
        <ele>2571.700</ele>
        <time>2019-07-14T21:21:27Z</time>
      </trkpt>
      <trkpt lat="35.854747740" lon="-106.490818840">
        <ele>2572.600</ele>
        <time>2019-07-14T21:21:28Z</time>
      </trkpt>
      <trkpt lat="35.854786860" lon="-106.490811700">
        <ele>2573.200</ele>
        <time>2019-07-14T21:21:29Z</time>
      </trkpt>
      <trkpt lat="35.854825460" lon="-106.490804220">
        <ele>2573.600</ele>
        <time>2019-07-14T21:21:30Z</time>
      </trkpt>
      <trkpt lat="35.854862770" lon="-106.490795900">
        <ele>2574.000</ele>
        <time>2019-07-14T21:21:31Z</time>
      </trkpt>
      <trkpt lat="35.854901060" lon="-106.490790670">
        <ele>2574.300</ele>
        <time>2019-07-14T21:21:32Z</time>
      </trkpt>
      <trkpt lat="35.854938220" lon="-106.490786490">
        <ele>2574.100</ele>
        <time>2019-07-14T21:21:33Z</time>
      </trkpt>
      <trkpt lat="35.855007550" lon="-106.490779620">
        <ele>2574.400</ele>
        <time>2019-07-14T21:21:35Z</time>
      </trkpt>
      <trkpt lat="35.855074310" lon="-106.490771450">
        <ele>2574.300</ele>
        <time>2019-07-14T21:21:37Z</time>
      </trkpt>
      <trkpt lat="35.855147410" lon="-106.490756170">
        <ele>2574.600</ele>
        <time>2019-07-14T21:21:39Z</time>
      </trkpt>
      <trkpt lat="35.855186290" lon="-106.490747910">
        <ele>2573.900</ele>
        <time>2019-07-14T21:21:40Z</time>
      </trkpt>
      <trkpt lat="35.855224500" lon="-106.490738980">
        <ele>2574.700</ele>
        <time>2019-07-14T21:21:41Z</time>
      </trkpt>
      <trkpt lat="35.855262700" lon="-106.490729680">
        <ele>2575.100</ele>
        <time>2019-07-14T21:21:42Z</time>
      </trkpt>
      <trkpt lat="35.855299970" lon="-106.490718430">
        <ele>2576.200</ele>
        <time>2019-07-14T21:21:43Z</time>
      </trkpt>
      <trkpt lat="35.855335420" lon="-106.490706850">
        <ele>2576.200</ele>
        <time>2019-07-14T21:21:44Z</time>
      </trkpt>
      <trkpt lat="35.855370820" lon="-106.490693370">
        <ele>2576.000</ele>
        <time>2019-07-14T21:21:45Z</time>
      </trkpt>
      <trkpt lat="35.855407850" lon="-106.490679130">
        <ele>2576.400</ele>
        <time>2019-07-14T21:21:46Z</time>
      </trkpt>
      <trkpt lat="35.855447060" lon="-106.490662720">
        <ele>2576.100</ele>
        <time>2019-07-14T21:21:47Z</time>
      </trkpt>
      <trkpt lat="35.855487500" lon="-106.490644850">
        <ele>2576.400</ele>
        <time>2019-07-14T21:21:48Z</time>
      </trkpt>
      <trkpt lat="35.855528840" lon="-106.490627750">
        <ele>2575.400</ele>
        <time>2019-07-14T21:21:49Z</time>
      </trkpt>
      <trkpt lat="35.855569860" lon="-106.490610260">
        <ele>2575.600</ele>
        <time>2019-07-14T21:21:50Z</time>
      </trkpt>
      <trkpt lat="35.855609970" lon="-106.490592680">
        <ele>2575.300</ele>
        <time>2019-07-14T21:21:51Z</time>
      </trkpt>
      <trkpt lat="35.855649240" lon="-106.490575570">
        <ele>2575.500</ele>
        <time>2019-07-14T21:21:52Z</time>
      </trkpt>
      <trkpt lat="35.855689150" lon="-106.490558000">
        <ele>2575.700</ele>
        <time>2019-07-14T21:21:53Z</time>
      </trkpt>
      <trkpt lat="35.855730840" lon="-106.490538980">
        <ele>2575.900</ele>
        <time>2019-07-14T21:21:54Z</time>
      </trkpt>
      <trkpt lat="35.855772830" lon="-106.490514290">
        <ele>2575.700</ele>
        <time>2019-07-14T21:21:55Z</time>
      </trkpt>
      <trkpt lat="35.855817170" lon="-106.490498220">
        <ele>2575.500</ele>
        <time>2019-07-14T21:21:56Z</time>
      </trkpt>
      <trkpt lat="35.855865250" lon="-106.490477250">
        <ele>2575.100</ele>
        <time>2019-07-14T21:21:57Z</time>
      </trkpt>
      <trkpt lat="35.855907920" lon="-106.490462680">
        <ele>2575.000</ele>
        <time>2019-07-14T21:21:58Z</time>
      </trkpt>
      <trkpt lat="35.855949280" lon="-106.490442760">
        <ele>2575.000</ele>
        <time>2019-07-14T21:21:59Z</time>
      </trkpt>
      <trkpt lat="35.855993800" lon="-106.490425190">
        <ele>2575.000</ele>
        <time>2019-07-14T21:22:00Z</time>
      </trkpt>
      <trkpt lat="35.856038770" lon="-106.490406100">
        <ele>2575.100</ele>
        <time>2019-07-14T21:22:01Z</time>
      </trkpt>
      <trkpt lat="35.856088220" lon="-106.490395860">
        <ele>2575.400</ele>
        <time>2019-07-14T21:22:02Z</time>
      </trkpt>
      <trkpt lat="35.856133580" lon="-106.490391890">
        <ele>2575.500</ele>
        <time>2019-07-14T21:22:03Z</time>
      </trkpt>
      <trkpt lat="35.856191190" lon="-106.490390930">
        <ele>2575.500</ele>
        <time>2019-07-14T21:22:04Z</time>
      </trkpt>
      <trkpt lat="35.856260020" lon="-106.490434620">
        <ele>2576.300</ele>
        <time>2019-07-14T21:22:06Z</time>
      </trkpt>
      <trkpt lat="35.856298620" lon="-106.490459640">
        <ele>2575.700</ele>
        <time>2019-07-14T21:22:07Z</time>
      </trkpt>
      <trkpt lat="35.856327770" lon="-106.490496550">
        <ele>2576.400</ele>
        <time>2019-07-14T21:22:08Z</time>
      </trkpt>
      <trkpt lat="35.856345650" lon="-106.490536420">
        <ele>2576.700</ele>
        <time>2019-07-14T21:22:09Z</time>
      </trkpt>
      <trkpt lat="35.856362950" lon="-106.490577100">
        <ele>2576.700</ele>
        <time>2019-07-14T21:22:10Z</time>
      </trkpt>
      <trkpt lat="35.856380830" lon="-106.490631750">
        <ele>2576.100</ele>
        <time>2019-07-14T21:22:11Z</time>
      </trkpt>
      <trkpt lat="35.856400710" lon="-106.490678010">
        <ele>2575.700</ele>
        <time>2019-07-14T21:22:12Z</time>
      </trkpt>
      <trkpt lat="35.856415550" lon="-106.490723890">
        <ele>2576.200</ele>
        <time>2019-07-14T21:22:13Z</time>
      </trkpt>
      <trkpt lat="35.856438500" lon="-106.490768210">
        <ele>2575.800</ele>
        <time>2019-07-14T21:22:14Z</time>
      </trkpt>
      <trkpt lat="35.856469010" lon="-106.490804220">
        <ele>2575.900</ele>
        <time>2019-07-14T21:22:15Z</time>
      </trkpt>
      <trkpt lat="35.856503640" lon="-106.490824260">
        <ele>2576.000</ele>
        <time>2019-07-14T21:22:16Z</time>
      </trkpt>
      <trkpt lat="35.856543060" lon="-106.490842930">
        <ele>2575.700</ele>
        <time>2019-07-14T21:22:17Z</time>
      </trkpt>
      <trkpt lat="35.856579050" lon="-106.490839970">
        <ele>2576.500</ele>
        <time>2019-07-14T21:22:18Z</time>
      </trkpt>
      <trkpt lat="35.856615840" lon="-106.490837920">
        <ele>2575.500</ele>
        <time>2019-07-14T21:22:19Z</time>
      </trkpt>
      <trkpt lat="35.856679830" lon="-106.490798490">
        <ele>2576.800</ele>
        <time>2019-07-14T21:22:21Z</time>
      </trkpt>
      <trkpt lat="35.856715300" lon="-106.490779780">
        <ele>2576.400</ele>
        <time>2019-07-14T21:22:22Z</time>
      </trkpt>
      <trkpt lat="35.856780640" lon="-106.490748710">
        <ele>2576.300</ele>
        <time>2019-07-14T21:22:24Z</time>
      </trkpt>
      <trkpt lat="35.856845270" lon="-106.490736560">
        <ele>2577.200</ele>
        <time>2019-07-14T21:22:26Z</time>
      </trkpt>
      <trkpt lat="35.856908640" lon="-106.490760980">
        <ele>2576.800</ele>
        <time>2019-07-14T21:22:28Z</time>
      </trkpt>
      <trkpt lat="35.856954240" lon="-106.490808020">
        <ele>2577.000</ele>
        <time>2019-07-14T21:22:30Z</time>
      </trkpt>
      <trkpt lat="35.856985000" lon="-106.490886150">
        <ele>2577.600</ele>
        <time>2019-07-14T21:22:32Z</time>
      </trkpt>
      <trkpt lat="35.856987020" lon="-106.490930520">
        <ele>2577.900</ele>
        <time>2019-07-14T21:22:33Z</time>
      </trkpt>
      <trkpt lat="35.856976900" lon="-106.490975090">
        <ele>2577.600</ele>
        <time>2019-07-14T21:22:34Z</time>
      </trkpt>
      <trkpt lat="35.856956860" lon="-106.491011960">
        <ele>2578.100</ele>
        <time>2019-07-14T21:22:35Z</time>
      </trkpt>
      <trkpt lat="35.856915910" lon="-106.491041830">
        <ele>2577.500</ele>
        <time>2019-07-14T21:22:37Z</time>
      </trkpt>
      <trkpt lat="35.856878620" lon="-106.491034570">
        <ele>2578.200</ele>
        <time>2019-07-14T21:22:42Z</time>
      </trkpt>
      <trkpt lat="35.856869440" lon="-106.491078010">
        <ele>2576.600</ele>
        <time>2019-07-14T21:23:25Z</time>
      </trkpt>
      <trkpt lat="35.856832120" lon="-106.491058820">
        <ele>2577.600</ele>
        <time>2019-07-14T21:30:45Z</time>
      </trkpt>
      <trkpt lat="35.856793300" lon="-106.491052400">
        <ele>2578.000</ele>
        <time>2019-07-14T21:30:47Z</time>
      </trkpt>
      <trkpt lat="35.856750750" lon="-106.491033080">
        <ele>2578.100</ele>
        <time>2019-07-14T21:30:49Z</time>
      </trkpt>
      <trkpt lat="35.856710240" lon="-106.491007030">
        <ele>2578.100</ele>
        <time>2019-07-14T21:30:51Z</time>
      </trkpt>
      <trkpt lat="35.856673380" lon="-106.490976270">
        <ele>2578.300</ele>
        <time>2019-07-14T21:30:53Z</time>
      </trkpt>
      <trkpt lat="35.856635530" lon="-106.490945260">
        <ele>2578.300</ele>
        <time>2019-07-14T21:30:55Z</time>
      </trkpt>
      <trkpt lat="35.856591760" lon="-106.490911990">
        <ele>2578.300</ele>
        <time>2019-07-14T21:30:57Z</time>
      </trkpt>
      <trkpt lat="35.856541850" lon="-106.490893210">
        <ele>2577.600</ele>
        <time>2019-07-14T21:30:59Z</time>
      </trkpt>
      <trkpt lat="35.856493000" lon="-106.490913650">
        <ele>2578.100</ele>
        <time>2019-07-14T21:31:01Z</time>
      </trkpt>
      <trkpt lat="35.856479460" lon="-106.490975750">
        <ele>2576.800</ele>
        <time>2019-07-14T21:31:03Z</time>
      </trkpt>
      <trkpt lat="35.856503540" lon="-106.491045550">
        <ele>2577.300</ele>
        <time>2019-07-14T21:31:05Z</time>
      </trkpt>
      <trkpt lat="35.856533790" lon="-106.491104180">
        <ele>2577.200</ele>
        <time>2019-07-14T21:31:07Z</time>
      </trkpt>
      <trkpt lat="35.856556580" lon="-106.491164280">
        <ele>2577.500</ele>
        <time>2019-07-14T21:31:09Z</time>
      </trkpt>
      <trkpt lat="35.856575550" lon="-106.491212800">
        <ele>2575.700</ele>
        <time>2019-07-14T21:31:11Z</time>
      </trkpt>
      <trkpt lat="35.856601010" lon="-106.491244990">
        <ele>2578.000</ele>
        <time>2019-07-14T21:31:30Z</time>
      </trkpt>
      <trkpt lat="35.856616580" lon="-106.491291490">
        <ele>2581.100</ele>
        <time>2019-07-14T21:31:34Z</time>
      </trkpt>
      <trkpt lat="35.856644030" lon="-106.491373090">
        <ele>2580.500</ele>
        <time>2019-07-14T21:31:36Z</time>
      </trkpt>
      <trkpt lat="35.856661570" lon="-106.491418280">
        <ele>2579.000</ele>
        <time>2019-07-14T21:31:37Z</time>
      </trkpt>
      <trkpt lat="35.856677230" lon="-106.491464670">
        <ele>2579.600</ele>
        <time>2019-07-14T21:31:38Z</time>
      </trkpt>
      <trkpt lat="35.856693270" lon="-106.491513580">
        <ele>2580.500</ele>
        <time>2019-07-14T21:31:39Z</time>
      </trkpt>
      <trkpt lat="35.856711430" lon="-106.491561740">
        <ele>2578.700</ele>
        <time>2019-07-14T21:31:40Z</time>
      </trkpt>
      <trkpt lat="35.856733710" lon="-106.491619970">
        <ele>2578.600</ele>
        <time>2019-07-14T21:31:41Z</time>
      </trkpt>
      <trkpt lat="35.856750050" lon="-106.491680040">
        <ele>2578.800</ele>
        <time>2019-07-14T21:31:42Z</time>
      </trkpt>
      <trkpt lat="35.856765070" lon="-106.491733170">
        <ele>2578.400</ele>
        <time>2019-07-14T21:31:43Z</time>
      </trkpt>
      <trkpt lat="35.856782640" lon="-106.491797430">
        <ele>2578.700</ele>
        <time>2019-07-14T21:31:44Z</time>
      </trkpt>
      <trkpt lat="35.856797910" lon="-106.491857170">
        <ele>2579.500</ele>
        <time>2019-07-14T21:31:45Z</time>
      </trkpt>
      <trkpt lat="35.856817990" lon="-106.491907450">
        <ele>2578.500</ele>
        <time>2019-07-14T21:31:46Z</time>
      </trkpt>
      <trkpt lat="35.856837110" lon="-106.491973900">
        <ele>2578.300</ele>
        <time>2019-07-14T21:31:47Z</time>
      </trkpt>
      <trkpt lat="35.856856860" lon="-106.492016820">
        <ele>2578.800</ele>
        <time>2019-07-14T21:31:48Z</time>
      </trkpt>
      <trkpt lat="35.856877650" lon="-106.492076400">
        <ele>2578.500</ele>
        <time>2019-07-14T21:31:49Z</time>
      </trkpt>
      <trkpt lat="35.856901470" lon="-106.492130780">
        <ele>2578.700</ele>
        <time>2019-07-14T21:31:50Z</time>
      </trkpt>
      <trkpt lat="35.856920580" lon="-106.492191950">
        <ele>2578.500</ele>
        <time>2019-07-14T21:31:51Z</time>
      </trkpt>
      <trkpt lat="35.856942830" lon="-106.492256130">
        <ele>2579.200</ele>
        <time>2019-07-14T21:31:52Z</time>
      </trkpt>
      <trkpt lat="35.856965410" lon="-106.492312540">
        <ele>2579.000</ele>
        <time>2019-07-14T21:31:53Z</time>
      </trkpt>
      <trkpt lat="35.856985750" lon="-106.492378450">
        <ele>2579.500</ele>
        <time>2019-07-14T21:31:54Z</time>
      </trkpt>
      <trkpt lat="35.857005120" lon="-106.492435440">
        <ele>2579.700</ele>
        <time>2019-07-14T21:31:55Z</time>
      </trkpt>
      <trkpt lat="35.857018790" lon="-106.492498420">
        <ele>2580.900</ele>
        <time>2019-07-14T21:31:56Z</time>
      </trkpt>
      <trkpt lat="35.857037220" lon="-106.492571970">
        <ele>2581.100</ele>
        <time>2019-07-14T21:31:57Z</time>
      </trkpt>
      <trkpt lat="35.857055420" lon="-106.492633420">
        <ele>2581.800</ele>
        <time>2019-07-14T21:31:58Z</time>
      </trkpt>
      <trkpt lat="35.857074790" lon="-106.492695020">
        <ele>2581.300</ele>
        <time>2019-07-14T21:31:59Z</time>
      </trkpt>
      <trkpt lat="35.857094690" lon="-106.492762830">
        <ele>2581.100</ele>
        <time>2019-07-14T21:32:00Z</time>
      </trkpt>
      <trkpt lat="35.857117280" lon="-106.492827530">
        <ele>2581.400</ele>
        <time>2019-07-14T21:32:01Z</time>
      </trkpt>
      <trkpt lat="35.857140000" lon="-106.492889930">
        <ele>2581.500</ele>
        <time>2019-07-14T21:32:02Z</time>
      </trkpt>
      <trkpt lat="35.857160920" lon="-106.492959450">
        <ele>2581.300</ele>
        <time>2019-07-14T21:32:03Z</time>
      </trkpt>
      <trkpt lat="35.857192370" lon="-106.493030460">
        <ele>2578.800</ele>
        <time>2019-07-14T21:32:04Z</time>
      </trkpt>
      <trkpt lat="35.857211360" lon="-106.493113260">
        <ele>2579.100</ele>
        <time>2019-07-14T21:32:05Z</time>
      </trkpt>
      <trkpt lat="35.857232920" lon="-106.493183850">
        <ele>2578.900</ele>
        <time>2019-07-14T21:32:06Z</time>
      </trkpt>
      <trkpt lat="35.857257190" lon="-106.493246040">
        <ele>2579.100</ele>
        <time>2019-07-14T21:32:07Z</time>
      </trkpt>
      <trkpt lat="35.857282850" lon="-106.493306110">
        <ele>2579.300</ele>
        <time>2019-07-14T21:32:08Z</time>
      </trkpt>
      <trkpt lat="35.857296560" lon="-106.493381870">
        <ele>2579.100</ele>
        <time>2019-07-14T21:32:09Z</time>
      </trkpt>
      <trkpt lat="35.857306290" lon="-106.493455210">
        <ele>2578.900</ele>
        <time>2019-07-14T21:32:10Z</time>
      </trkpt>
      <trkpt lat="35.857324220" lon="-106.493519820">
        <ele>2580.800</ele>
        <time>2019-07-14T21:32:11Z</time>
      </trkpt>
      <trkpt lat="35.857337440" lon="-106.493588630">
        <ele>2580.300</ele>
        <time>2019-07-14T21:32:12Z</time>
      </trkpt>
      <trkpt lat="35.857339960" lon="-106.493655790">
        <ele>2580.400</ele>
        <time>2019-07-14T21:32:13Z</time>
      </trkpt>
      <trkpt lat="35.857365530" lon="-106.493724150">
        <ele>2579.500</ele>
        <time>2019-07-14T21:32:14Z</time>
      </trkpt>
      <trkpt lat="35.857382260" lon="-106.493790770">
        <ele>2579.500</ele>
        <time>2019-07-14T21:32:15Z</time>
      </trkpt>
      <trkpt lat="35.857393610" lon="-106.493848400">
        <ele>2579.100</ele>
        <time>2019-07-14T21:32:16Z</time>
      </trkpt>
      <trkpt lat="35.857418410" lon="-106.493904450">
        <ele>2579.900</ele>
        <time>2019-07-14T21:32:17Z</time>
      </trkpt>
      <trkpt lat="35.857435400" lon="-106.493980550">
        <ele>2579.800</ele>
        <time>2019-07-14T21:32:18Z</time>
      </trkpt>
      <trkpt lat="35.857439800" lon="-106.494063560">
        <ele>2579.600</ele>
        <time>2019-07-14T21:32:19Z</time>
      </trkpt>
      <trkpt lat="35.857465720" lon="-106.494137180">
        <ele>2579.100</ele>
        <time>2019-07-14T21:32:20Z</time>
      </trkpt>
      <trkpt lat="35.857478160" lon="-106.494205640">
        <ele>2579.300</ele>
        <time>2019-07-14T21:32:21Z</time>
      </trkpt>
      <trkpt lat="35.857498030" lon="-106.494277540">
        <ele>2579.300</ele>
        <time>2019-07-14T21:32:22Z</time>
      </trkpt>
      <trkpt lat="35.857510680" lon="-106.494330960">
        <ele>2578.500</ele>
        <time>2019-07-14T21:32:23Z</time>
      </trkpt>
      <trkpt lat="35.857533890" lon="-106.494410680">
        <ele>2577.800</ele>
        <time>2019-07-14T21:32:24Z</time>
      </trkpt>
      <trkpt lat="35.857545410" lon="-106.494496050">
        <ele>2579.500</ele>
        <time>2019-07-14T21:32:25Z</time>
      </trkpt>
      <trkpt lat="35.857554200" lon="-106.494577890">
        <ele>2580.000</ele>
        <time>2019-07-14T21:32:26Z</time>
      </trkpt>
      <trkpt lat="35.857560300" lon="-106.494646450">
        <ele>2580.100</ele>
        <time>2019-07-14T21:32:27Z</time>
      </trkpt>
      <trkpt lat="35.857566890" lon="-106.494722750">
        <ele>2580.200</ele>
        <time>2019-07-14T21:32:28Z</time>
      </trkpt>
      <trkpt lat="35.857572820" lon="-106.494806200">
        <ele>2579.900</ele>
        <time>2019-07-14T21:32:29Z</time>
      </trkpt>
      <trkpt lat="35.857584480" lon="-106.494885530">
        <ele>2580.000</ele>
        <time>2019-07-14T21:32:30Z</time>
      </trkpt>
      <trkpt lat="35.857599130" lon="-106.494955580">
        <ele>2578.900</ele>
        <time>2019-07-14T21:32:31Z</time>
      </trkpt>
      <trkpt lat="35.857609700" lon="-106.495036480">
        <ele>2579.000</ele>
        <time>2019-07-14T21:32:32Z</time>
      </trkpt>
      <trkpt lat="35.857618300" lon="-106.495117340">
        <ele>2579.000</ele>
        <time>2019-07-14T21:32:33Z</time>
      </trkpt>
      <trkpt lat="35.857628930" lon="-106.495198710">
        <ele>2579.100</ele>
        <time>2019-07-14T21:32:34Z</time>
      </trkpt>
      <trkpt lat="35.857634870" lon="-106.495277180">
        <ele>2579.200</ele>
        <time>2019-07-14T21:32:35Z</time>
      </trkpt>
      <trkpt lat="35.857641370" lon="-106.495351730">
        <ele>2579.700</ele>
        <time>2019-07-14T21:32:36Z</time>
      </trkpt>
      <trkpt lat="35.857646640" lon="-106.495429000">
        <ele>2580.200</ele>
        <time>2019-07-14T21:32:37Z</time>
      </trkpt>
      <trkpt lat="35.857665960" lon="-106.495510320">
        <ele>2579.900</ele>
        <time>2019-07-14T21:32:38Z</time>
      </trkpt>
      <trkpt lat="35.857673070" lon="-106.495599800">
        <ele>2580.000</ele>
        <time>2019-07-14T21:32:39Z</time>
      </trkpt>
      <trkpt lat="35.857672060" lon="-106.495674740">
        <ele>2581.200</ele>
        <time>2019-07-14T21:32:40Z</time>
      </trkpt>
      <trkpt lat="35.857671700" lon="-106.495758580">
        <ele>2581.300</ele>
        <time>2019-07-14T21:32:41Z</time>
      </trkpt>
      <trkpt lat="35.857675140" lon="-106.495850590">
        <ele>2581.200</ele>
        <time>2019-07-14T21:32:42Z</time>
      </trkpt>
      <trkpt lat="35.857677800" lon="-106.495932640">
        <ele>2580.800</ele>
        <time>2019-07-14T21:32:43Z</time>
      </trkpt>
      <trkpt lat="35.857677770" lon="-106.496022330">
        <ele>2581.700</ele>
        <time>2019-07-14T21:32:44Z</time>
      </trkpt>
      <trkpt lat="35.857681540" lon="-106.496105670">
        <ele>2582.900</ele>
        <time>2019-07-14T21:32:45Z</time>
      </trkpt>
      <trkpt lat="35.857681630" lon="-106.496183910">
        <ele>2582.800</ele>
        <time>2019-07-14T21:32:46Z</time>
      </trkpt>
      <trkpt lat="35.857687330" lon="-106.496266320">
        <ele>2583.200</ele>
        <time>2019-07-14T21:32:47Z</time>
      </trkpt>
      <trkpt lat="35.857688490" lon="-106.496346910">
        <ele>2583.300</ele>
        <time>2019-07-14T21:32:48Z</time>
      </trkpt>
      <trkpt lat="35.857690370" lon="-106.496427910">
        <ele>2583.500</ele>
        <time>2019-07-14T21:32:49Z</time>
      </trkpt>
      <trkpt lat="35.857690340" lon="-106.496510630">
        <ele>2583.400</ele>
        <time>2019-07-14T21:32:50Z</time>
      </trkpt>
      <trkpt lat="35.857699530" lon="-106.496595520">
        <ele>2584.000</ele>
        <time>2019-07-14T21:32:51Z</time>
      </trkpt>
      <trkpt lat="35.857709430" lon="-106.496667680">
        <ele>2584.100</ele>
        <time>2019-07-14T21:32:52Z</time>
      </trkpt>
      <trkpt lat="35.857711700" lon="-106.496747150">
        <ele>2584.400</ele>
        <time>2019-07-14T21:32:53Z</time>
      </trkpt>
      <trkpt lat="35.857713230" lon="-106.496828450">
        <ele>2584.800</ele>
        <time>2019-07-14T21:32:54Z</time>
      </trkpt>
      <trkpt lat="35.857712360" lon="-106.496896750">
        <ele>2584.700</ele>
        <time>2019-07-14T21:32:55Z</time>
      </trkpt>
      <trkpt lat="35.857719850" lon="-106.496977760">
        <ele>2585.400</ele>
        <time>2019-07-14T21:32:56Z</time>
      </trkpt>
      <trkpt lat="35.857726360" lon="-106.497049360">
        <ele>2586.000</ele>
        <time>2019-07-14T21:32:57Z</time>
      </trkpt>
      <trkpt lat="35.857729110" lon="-106.497123430">
        <ele>2586.000</ele>
        <time>2019-07-14T21:32:58Z</time>
      </trkpt>
      <trkpt lat="35.857729580" lon="-106.497207270">
        <ele>2586.000</ele>
        <time>2019-07-14T21:32:59Z</time>
      </trkpt>
      <trkpt lat="35.857737100" lon="-106.497291210">
        <ele>2586.600</ele>
        <time>2019-07-14T21:33:00Z</time>
      </trkpt>
      <trkpt lat="35.857745280" lon="-106.497376320">
        <ele>2586.100</ele>
        <time>2019-07-14T21:33:01Z</time>
      </trkpt>
      <trkpt lat="35.857744790" lon="-106.497459370">
        <ele>2586.300</ele>
        <time>2019-07-14T21:33:02Z</time>
      </trkpt>
      <trkpt lat="35.857745250" lon="-106.497555260">
        <ele>2586.100</ele>
        <time>2019-07-14T21:33:03Z</time>
      </trkpt>
      <trkpt lat="35.857748740" lon="-106.497646740">
        <ele>2586.300</ele>
        <time>2019-07-14T21:33:04Z</time>
      </trkpt>
      <trkpt lat="35.857748230" lon="-106.497740460">
        <ele>2585.700</ele>
        <time>2019-07-14T21:33:05Z</time>
      </trkpt>
      <trkpt lat="35.857753240" lon="-106.497831790">
        <ele>2585.200</ele>
        <time>2019-07-14T21:33:06Z</time>
      </trkpt>
      <trkpt lat="35.857755880" lon="-106.497927500">
        <ele>2585.400</ele>
        <time>2019-07-14T21:33:07Z</time>
      </trkpt>
      <trkpt lat="35.857757000" lon="-106.498020860">
        <ele>2585.400</ele>
        <time>2019-07-14T21:33:08Z</time>
      </trkpt>
      <trkpt lat="35.857759540" lon="-106.498119260">
        <ele>2585.800</ele>
        <time>2019-07-14T21:33:09Z</time>
      </trkpt>
      <trkpt lat="35.857761220" lon="-106.498210530">
        <ele>2585.900</ele>
        <time>2019-07-14T21:33:10Z</time>
      </trkpt>
      <trkpt lat="35.857762110" lon="-106.498304240">
        <ele>2586.100</ele>
        <time>2019-07-14T21:33:11Z</time>
      </trkpt>
      <trkpt lat="35.857760740" lon="-106.498386950">
        <ele>2585.800</ele>
        <time>2019-07-14T21:33:12Z</time>
      </trkpt>
      <trkpt lat="35.857759960" lon="-106.498471480">
        <ele>2586.000</ele>
        <time>2019-07-14T21:33:13Z</time>
      </trkpt>
      <trkpt lat="35.857759450" lon="-106.498559290">
        <ele>2586.500</ele>
        <time>2019-07-14T21:33:14Z</time>
      </trkpt>
      <trkpt lat="35.857755340" lon="-106.498635810">
        <ele>2587.100</ele>
        <time>2019-07-14T21:33:15Z</time>
      </trkpt>
      <trkpt lat="35.857757960" lon="-106.498717910">
        <ele>2587.100</ele>
        <time>2019-07-14T21:33:16Z</time>
      </trkpt>
      <trkpt lat="35.857753370" lon="-106.498787330">
        <ele>2588.100</ele>
        <time>2019-07-14T21:33:17Z</time>
      </trkpt>
      <trkpt lat="35.857758720" lon="-106.498854430">
        <ele>2589.100</ele>
        <time>2019-07-14T21:33:18Z</time>
      </trkpt>
      <trkpt lat="35.857764290" lon="-106.498931200">
        <ele>2588.600</ele>
        <time>2019-07-14T21:33:19Z</time>
      </trkpt>
      <trkpt lat="35.857758670" lon="-106.499006000">
        <ele>2589.000</ele>
        <time>2019-07-14T21:33:20Z</time>
      </trkpt>
      <trkpt lat="35.857755020" lon="-106.499089810">
        <ele>2589.000</ele>
        <time>2019-07-14T21:33:21Z</time>
      </trkpt>
      <trkpt lat="35.857750480" lon="-106.499170750">
        <ele>2588.700</ele>
        <time>2019-07-14T21:33:22Z</time>
      </trkpt>
      <trkpt lat="35.857746880" lon="-106.499250670">
        <ele>2590.100</ele>
        <time>2019-07-14T21:33:23Z</time>
      </trkpt>
      <trkpt lat="35.857743880" lon="-106.499329110">
        <ele>2590.400</ele>
        <time>2019-07-14T21:33:24Z</time>
      </trkpt>
      <trkpt lat="35.857743080" lon="-106.499412230">
        <ele>2591.000</ele>
        <time>2019-07-14T21:33:25Z</time>
      </trkpt>
      <trkpt lat="35.857742960" lon="-106.499486830">
        <ele>2590.600</ele>
        <time>2019-07-14T21:33:26Z</time>
      </trkpt>
      <trkpt lat="35.857731080" lon="-106.499567260">
        <ele>2590.900</ele>
        <time>2019-07-14T21:33:27Z</time>
      </trkpt>
      <trkpt lat="35.857723030" lon="-106.499640380">
        <ele>2590.700</ele>
        <time>2019-07-14T21:33:28Z</time>
      </trkpt>
      <trkpt lat="35.857715610" lon="-106.499718410">
        <ele>2590.300</ele>
        <time>2019-07-14T21:33:29Z</time>
      </trkpt>
      <trkpt lat="35.857711620" lon="-106.499796570">
        <ele>2590.300</ele>
        <time>2019-07-14T21:33:30Z</time>
      </trkpt>
      <trkpt lat="35.857708720" lon="-106.499869600">
        <ele>2590.200</ele>
        <time>2019-07-14T21:33:31Z</time>
      </trkpt>
      <trkpt lat="35.857711980" lon="-106.499944620">
        <ele>2589.200</ele>
        <time>2019-07-14T21:33:32Z</time>
      </trkpt>
      <trkpt lat="35.857705500" lon="-106.500028360">
        <ele>2588.900</ele>
        <time>2019-07-14T21:33:33Z</time>
      </trkpt>
      <trkpt lat="35.857703810" lon="-106.500105120">
        <ele>2588.900</ele>
        <time>2019-07-14T21:33:34Z</time>
      </trkpt>
      <trkpt lat="35.857698420" lon="-106.500187100">
        <ele>2588.900</ele>
        <time>2019-07-14T21:33:35Z</time>
      </trkpt>
      <trkpt lat="35.857695270" lon="-106.500270050">
        <ele>2589.200</ele>
        <time>2019-07-14T21:33:36Z</time>
      </trkpt>
      <trkpt lat="35.857690630" lon="-106.500357230">
        <ele>2588.600</ele>
        <time>2019-07-14T21:33:37Z</time>
      </trkpt>
      <trkpt lat="35.857693040" lon="-106.500434390">
        <ele>2588.700</ele>
        <time>2019-07-14T21:33:38Z</time>
      </trkpt>
      <trkpt lat="35.857693160" lon="-106.500515370">
        <ele>2588.400</ele>
        <time>2019-07-14T21:33:39Z</time>
      </trkpt>
      <trkpt lat="35.857696460" lon="-106.500595540">
        <ele>2588.300</ele>
        <time>2019-07-14T21:33:40Z</time>
      </trkpt>
      <trkpt lat="35.857692910" lon="-106.500673910">
        <ele>2587.900</ele>
        <time>2019-07-14T21:33:41Z</time>
      </trkpt>
      <trkpt lat="35.857693730" lon="-106.500760700">
        <ele>2588.200</ele>
        <time>2019-07-14T21:33:42Z</time>
      </trkpt>
      <trkpt lat="35.857690890" lon="-106.500844880">
        <ele>2589.000</ele>
        <time>2019-07-14T21:33:43Z</time>
      </trkpt>
      <trkpt lat="35.857694200" lon="-106.500933680">
        <ele>2589.200</ele>
        <time>2019-07-14T21:33:44Z</time>
      </trkpt>
      <trkpt lat="35.857698610" lon="-106.501028230">
        <ele>2588.900</ele>
        <time>2019-07-14T21:33:45Z</time>
      </trkpt>
      <trkpt lat="35.857699630" lon="-106.501122020">
        <ele>2589.400</ele>
        <time>2019-07-14T21:33:46Z</time>
      </trkpt>
      <trkpt lat="35.857700010" lon="-106.501209770">
        <ele>2589.300</ele>
        <time>2019-07-14T21:33:47Z</time>
      </trkpt>
      <trkpt lat="35.857701300" lon="-106.501303160">
        <ele>2589.000</ele>
        <time>2019-07-14T21:33:48Z</time>
      </trkpt>
      <trkpt lat="35.857700170" lon="-106.501387080">
        <ele>2589.700</ele>
        <time>2019-07-14T21:33:49Z</time>
      </trkpt>
      <trkpt lat="35.857700570" lon="-106.501471250">
        <ele>2588.900</ele>
        <time>2019-07-14T21:33:50Z</time>
      </trkpt>
      <trkpt lat="35.857703480" lon="-106.501557770">
        <ele>2589.400</ele>
        <time>2019-07-14T21:33:51Z</time>
      </trkpt>
      <trkpt lat="35.857705880" lon="-106.501646730">
        <ele>2589.200</ele>
        <time>2019-07-14T21:33:52Z</time>
      </trkpt>
      <trkpt lat="35.857711500" lon="-106.501739690">
        <ele>2589.000</ele>
        <time>2019-07-14T21:33:53Z</time>
      </trkpt>
      <trkpt lat="35.857718190" lon="-106.501833050">
        <ele>2588.600</ele>
        <time>2019-07-14T21:33:54Z</time>
      </trkpt>
      <trkpt lat="35.857720580" lon="-106.501917800">
        <ele>2588.500</ele>
        <time>2019-07-14T21:33:55Z</time>
      </trkpt>
      <trkpt lat="35.857722800" lon="-106.502008730">
        <ele>2588.100</ele>
        <time>2019-07-14T21:33:56Z</time>
      </trkpt>
      <trkpt lat="35.857726690" lon="-106.502101870">
        <ele>2588.400</ele>
        <time>2019-07-14T21:33:57Z</time>
      </trkpt>
      <trkpt lat="35.857731360" lon="-106.502185140">
        <ele>2588.300</ele>
        <time>2019-07-14T21:33:58Z</time>
      </trkpt>
      <trkpt lat="35.857739780" lon="-106.502270300">
        <ele>2589.900</ele>
        <time>2019-07-14T21:33:59Z</time>
      </trkpt>
      <trkpt lat="35.857742800" lon="-106.502353530">
        <ele>2590.100</ele>
        <time>2019-07-14T21:34:00Z</time>
      </trkpt>
      <trkpt lat="35.857753470" lon="-106.502443810">
        <ele>2590.100</ele>
        <time>2019-07-14T21:34:01Z</time>
      </trkpt>
      <trkpt lat="35.857753550" lon="-106.502527700">
        <ele>2590.300</ele>
        <time>2019-07-14T21:34:02Z</time>
      </trkpt>
      <trkpt lat="35.857756020" lon="-106.502621440">
        <ele>2590.800</ele>
        <time>2019-07-14T21:34:03Z</time>
      </trkpt>
      <trkpt lat="35.857755020" lon="-106.502703110">
        <ele>2591.500</ele>
        <time>2019-07-14T21:34:04Z</time>
      </trkpt>
      <trkpt lat="35.857760590" lon="-106.502787890">
        <ele>2591.600</ele>
        <time>2019-07-14T21:34:05Z</time>
      </trkpt>
      <trkpt lat="35.857765070" lon="-106.502858980">
        <ele>2592.300</ele>
        <time>2019-07-14T21:34:06Z</time>
      </trkpt>
      <trkpt lat="35.857765770" lon="-106.502921220">
        <ele>2593.400</ele>
        <time>2019-07-14T21:34:07Z</time>
      </trkpt>
      <trkpt lat="35.857764910" lon="-106.502996770">
        <ele>2593.400</ele>
        <time>2019-07-14T21:34:08Z</time>
      </trkpt>
      <trkpt lat="35.857770530" lon="-106.503073620">
        <ele>2593.300</ele>
        <time>2019-07-14T21:34:09Z</time>
      </trkpt>
      <trkpt lat="35.857777020" lon="-106.503156270">
        <ele>2593.400</ele>
        <time>2019-07-14T21:34:10Z</time>
      </trkpt>
      <trkpt lat="35.857778140" lon="-106.503247100">
        <ele>2593.200</ele>
        <time>2019-07-14T21:34:11Z</time>
      </trkpt>
      <trkpt lat="35.857776480" lon="-106.503329710">
        <ele>2593.300</ele>
        <time>2019-07-14T21:34:12Z</time>
      </trkpt>
      <trkpt lat="35.857773930" lon="-106.503420370">
        <ele>2593.000</ele>
        <time>2019-07-14T21:34:13Z</time>
      </trkpt>
      <trkpt lat="35.857774930" lon="-106.503510740">
        <ele>2593.500</ele>
        <time>2019-07-14T21:34:14Z</time>
      </trkpt>
      <trkpt lat="35.857774230" lon="-106.503600210">
        <ele>2593.500</ele>
        <time>2019-07-14T21:34:15Z</time>
      </trkpt>
      <trkpt lat="35.857772660" lon="-106.503692710">
        <ele>2593.800</ele>
        <time>2019-07-14T21:34:16Z</time>
      </trkpt>
      <trkpt lat="35.857770880" lon="-106.503773240">
        <ele>2593.700</ele>
        <time>2019-07-14T21:34:17Z</time>
      </trkpt>
      <trkpt lat="35.857770130" lon="-106.503854410">
        <ele>2594.100</ele>
        <time>2019-07-14T21:34:18Z</time>
      </trkpt>
      <trkpt lat="35.857765040" lon="-106.503930470">
        <ele>2595.400</ele>
        <time>2019-07-14T21:34:19Z</time>
      </trkpt>
      <trkpt lat="35.857767680" lon="-106.504007400">
        <ele>2596.000</ele>
        <time>2019-07-14T21:34:20Z</time>
      </trkpt>
      <trkpt lat="35.857770650" lon="-106.504086820">
        <ele>2596.000</ele>
        <time>2019-07-14T21:34:21Z</time>
      </trkpt>
      <trkpt lat="35.857778200" lon="-106.504161850">
        <ele>2596.500</ele>
        <time>2019-07-14T21:34:22Z</time>
      </trkpt>
      <trkpt lat="35.857788610" lon="-106.504243190">
        <ele>2596.800</ele>
        <time>2019-07-14T21:34:23Z</time>
      </trkpt>
      <trkpt lat="35.857799190" lon="-106.504326300">
        <ele>2596.900</ele>
        <time>2019-07-14T21:34:24Z</time>
      </trkpt>
      <trkpt lat="35.857805600" lon="-106.504410190">
        <ele>2597.100</ele>
        <time>2019-07-14T21:34:25Z</time>
      </trkpt>
      <trkpt lat="35.857815590" lon="-106.504499610">
        <ele>2597.300</ele>
        <time>2019-07-14T21:34:26Z</time>
      </trkpt>
      <trkpt lat="35.857826590" lon="-106.504585690">
        <ele>2597.500</ele>
        <time>2019-07-14T21:34:27Z</time>
      </trkpt>
      <trkpt lat="35.857840610" lon="-106.504679340">
        <ele>2597.300</ele>
        <time>2019-07-14T21:34:28Z</time>
      </trkpt>
      <trkpt lat="35.857856660" lon="-106.504776750">
        <ele>2597.100</ele>
        <time>2019-07-14T21:34:29Z</time>
      </trkpt>
      <trkpt lat="35.857869270" lon="-106.504860030">
        <ele>2596.700</ele>
        <time>2019-07-14T21:34:30Z</time>
      </trkpt>
      <trkpt lat="35.857882720" lon="-106.504951960">
        <ele>2596.400</ele>
        <time>2019-07-14T21:34:31Z</time>
      </trkpt>
      <trkpt lat="35.857901790" lon="-106.505052970">
        <ele>2596.200</ele>
        <time>2019-07-14T21:34:32Z</time>
      </trkpt>
      <trkpt lat="35.857915530" lon="-106.505138270">
        <ele>2595.900</ele>
        <time>2019-07-14T21:34:33Z</time>
      </trkpt>
      <trkpt lat="35.857938230" lon="-106.505238540">
        <ele>2596.100</ele>
        <time>2019-07-14T21:34:34Z</time>
      </trkpt>
      <trkpt lat="35.857961340" lon="-106.505337400">
        <ele>2596.200</ele>
        <time>2019-07-14T21:34:35Z</time>
      </trkpt>
      <trkpt lat="35.857978410" lon="-106.505443070">
        <ele>2596.400</ele>
        <time>2019-07-14T21:34:36Z</time>
      </trkpt>
      <trkpt lat="35.857984350" lon="-106.505546950">
        <ele>2596.400</ele>
        <time>2019-07-14T21:34:37Z</time>
      </trkpt>
      <trkpt lat="35.858003430" lon="-106.505648620">
        <ele>2596.900</ele>
        <time>2019-07-14T21:34:38Z</time>
      </trkpt>
      <trkpt lat="35.858029210" lon="-106.505743500">
        <ele>2596.400</ele>
        <time>2019-07-14T21:34:39Z</time>
      </trkpt>
      <trkpt lat="35.858054860" lon="-106.505845170">
        <ele>2596.000</ele>
        <time>2019-07-14T21:34:40Z</time>
      </trkpt>
      <trkpt lat="35.858073960" lon="-106.505945120">
        <ele>2596.000</ele>
        <time>2019-07-14T21:34:41Z</time>
      </trkpt>
      <trkpt lat="35.858100080" lon="-106.506060230">
        <ele>2596.900</ele>
        <time>2019-07-14T21:34:42Z</time>
      </trkpt>
      <trkpt lat="35.858120920" lon="-106.506151810">
        <ele>2597.600</ele>
        <time>2019-07-14T21:34:43Z</time>
      </trkpt>
      <trkpt lat="35.858134180" lon="-106.506258230">
        <ele>2597.900</ele>
        <time>2019-07-14T21:34:44Z</time>
      </trkpt>
      <trkpt lat="35.858146360" lon="-106.506372910">
        <ele>2597.900</ele>
        <time>2019-07-14T21:34:45Z</time>
      </trkpt>
      <trkpt lat="35.858162840" lon="-106.506481600">
        <ele>2598.200</ele>
        <time>2019-07-14T21:34:46Z</time>
      </trkpt>
      <trkpt lat="35.858184690" lon="-106.506594430">
        <ele>2598.500</ele>
        <time>2019-07-14T21:34:47Z</time>
      </trkpt>
      <trkpt lat="35.858210320" lon="-106.506700270">
        <ele>2597.900</ele>
        <time>2019-07-14T21:34:48Z</time>
      </trkpt>
      <trkpt lat="35.858227880" lon="-106.506799920">
        <ele>2597.700</ele>
        <time>2019-07-14T21:34:49Z</time>
      </trkpt>
      <trkpt lat="35.858246610" lon="-106.506908810">
        <ele>2598.400</ele>
        <time>2019-07-14T21:34:50Z</time>
      </trkpt>
      <trkpt lat="35.858260240" lon="-106.506992070">
        <ele>2596.400</ele>
        <time>2019-07-14T21:34:51Z</time>
      </trkpt>
      <trkpt lat="35.858285350" lon="-106.507096250">
        <ele>2596.500</ele>
        <time>2019-07-14T21:34:52Z</time>
      </trkpt>
      <trkpt lat="35.858304870" lon="-106.507186550">
        <ele>2596.600</ele>
        <time>2019-07-14T21:34:53Z</time>
      </trkpt>
      <trkpt lat="35.858314310" lon="-106.507304380">
        <ele>2596.400</ele>
        <time>2019-07-14T21:34:54Z</time>
      </trkpt>
      <trkpt lat="35.858324780" lon="-106.507407800">
        <ele>2597.000</ele>
        <time>2019-07-14T21:34:55Z</time>
      </trkpt>
      <trkpt lat="35.858353800" lon="-106.507508930">
        <ele>2595.300</ele>
        <time>2019-07-14T21:34:56Z</time>
      </trkpt>
      <trkpt lat="35.858367280" lon="-106.507620720">
        <ele>2594.300</ele>
        <time>2019-07-14T21:34:57Z</time>
      </trkpt>
      <trkpt lat="35.858377360" lon="-106.507718250">
        <ele>2594.000</ele>
        <time>2019-07-14T21:34:58Z</time>
      </trkpt>
      <trkpt lat="35.858393980" lon="-106.507833530">
        <ele>2594.400</ele>
        <time>2019-07-14T21:34:59Z</time>
      </trkpt>
      <trkpt lat="35.858404980" lon="-106.507939350">
        <ele>2594.600</ele>
        <time>2019-07-14T21:35:00Z</time>
      </trkpt>
      <trkpt lat="35.858419810" lon="-106.508042850">
        <ele>2594.300</ele>
        <time>2019-07-14T21:35:01Z</time>
      </trkpt>
      <trkpt lat="35.858433470" lon="-106.508145740">
        <ele>2594.000</ele>
        <time>2019-07-14T21:35:02Z</time>
      </trkpt>
      <trkpt lat="35.858446160" lon="-106.508256180">
        <ele>2594.600</ele>
        <time>2019-07-14T21:35:03Z</time>
      </trkpt>
      <trkpt lat="35.858457370" lon="-106.508365950">
        <ele>2593.900</ele>
        <time>2019-07-14T21:35:04Z</time>
      </trkpt>
      <trkpt lat="35.858468990" lon="-106.508478740">
        <ele>2594.300</ele>
        <time>2019-07-14T21:35:05Z</time>
      </trkpt>
      <trkpt lat="35.858481940" lon="-106.508582560">
        <ele>2595.600</ele>
        <time>2019-07-14T21:35:06Z</time>
      </trkpt>
      <trkpt lat="35.858494490" lon="-106.508692520">
        <ele>2595.500</ele>
        <time>2019-07-14T21:35:07Z</time>
      </trkpt>
      <trkpt lat="35.858514230" lon="-106.508789060">
        <ele>2595.400</ele>
        <time>2019-07-14T21:35:08Z</time>
      </trkpt>
      <trkpt lat="35.858535630" lon="-106.508888780">
        <ele>2594.100</ele>
        <time>2019-07-14T21:35:09Z</time>
      </trkpt>
      <trkpt lat="35.858552380" lon="-106.508993580">
        <ele>2594.900</ele>
        <time>2019-07-14T21:35:10Z</time>
      </trkpt>
      <trkpt lat="35.858574130" lon="-106.509102070">
        <ele>2593.900</ele>
        <time>2019-07-14T21:35:11Z</time>
      </trkpt>
      <trkpt lat="35.858591570" lon="-106.509210990">
        <ele>2593.900</ele>
        <time>2019-07-14T21:35:12Z</time>
      </trkpt>
      <trkpt lat="35.858616820" lon="-106.509319300">
        <ele>2594.100</ele>
        <time>2019-07-14T21:35:13Z</time>
      </trkpt>
      <trkpt lat="35.858646110" lon="-106.509437000">
        <ele>2594.200</ele>
        <time>2019-07-14T21:35:14Z</time>
      </trkpt>
      <trkpt lat="35.858667170" lon="-106.509536390">
        <ele>2594.500</ele>
        <time>2019-07-14T21:35:15Z</time>
      </trkpt>
      <trkpt lat="35.858696260" lon="-106.509648500">
        <ele>2594.300</ele>
        <time>2019-07-14T21:35:16Z</time>
      </trkpt>
      <trkpt lat="35.858743170" lon="-106.509747370">
        <ele>2593.900</ele>
        <time>2019-07-14T21:35:17Z</time>
      </trkpt>
      <trkpt lat="35.858771040" lon="-106.509845710">
        <ele>2593.600</ele>
        <time>2019-07-14T21:35:18Z</time>
      </trkpt>
      <trkpt lat="35.858803110" lon="-106.509932470">
        <ele>2593.600</ele>
        <time>2019-07-14T21:35:19Z</time>
      </trkpt>
      <trkpt lat="35.858832670" lon="-106.510009110">
        <ele>2594.400</ele>
        <time>2019-07-14T21:35:20Z</time>
      </trkpt>
      <trkpt lat="35.858867040" lon="-106.510081540">
        <ele>2595.600</ele>
        <time>2019-07-14T21:35:21Z</time>
      </trkpt>
      <trkpt lat="35.858902390" lon="-106.510155010">
        <ele>2596.500</ele>
        <time>2019-07-14T21:35:22Z</time>
      </trkpt>
      <trkpt lat="35.858944760" lon="-106.510239580">
        <ele>2595.800</ele>
        <time>2019-07-14T21:35:23Z</time>
      </trkpt>
      <trkpt lat="35.858983600" lon="-106.510306400">
        <ele>2597.500</ele>
        <time>2019-07-14T21:35:24Z</time>
      </trkpt>
      <trkpt lat="35.859038420" lon="-106.510361130">
        <ele>2597.100</ele>
        <time>2019-07-14T21:35:25Z</time>
      </trkpt>
      <trkpt lat="35.859085260" lon="-106.510430570">
        <ele>2596.400</ele>
        <time>2019-07-14T21:35:26Z</time>
      </trkpt>
      <trkpt lat="35.859134160" lon="-106.510483960">
        <ele>2597.700</ele>
        <time>2019-07-14T21:35:27Z</time>
      </trkpt>
      <trkpt lat="35.859193650" lon="-106.510535120">
        <ele>2598.600</ele>
        <time>2019-07-14T21:35:28Z</time>
      </trkpt>
      <trkpt lat="35.859257600" lon="-106.510586130">
        <ele>2598.700</ele>
        <time>2019-07-14T21:35:29Z</time>
      </trkpt>
      <trkpt lat="35.859334510" lon="-106.510633910">
        <ele>2596.900</ele>
        <time>2019-07-14T21:35:30Z</time>
      </trkpt>
      <trkpt lat="35.859397470" lon="-106.510682210">
        <ele>2597.300</ele>
        <time>2019-07-14T21:35:31Z</time>
      </trkpt>
      <trkpt lat="35.859454130" lon="-106.510723720">
        <ele>2598.400</ele>
        <time>2019-07-14T21:35:32Z</time>
      </trkpt>
      <trkpt lat="35.859512490" lon="-106.510774540">
        <ele>2598.200</ele>
        <time>2019-07-14T21:35:33Z</time>
      </trkpt>
      <trkpt lat="35.859572040" lon="-106.510823780">
        <ele>2597.100</ele>
        <time>2019-07-14T21:35:34Z</time>
      </trkpt>
      <trkpt lat="35.859627020" lon="-106.510874460">
        <ele>2596.800</ele>
        <time>2019-07-14T21:35:35Z</time>
      </trkpt>
      <trkpt lat="35.859676440" lon="-106.510920810">
        <ele>2597.600</ele>
        <time>2019-07-14T21:35:36Z</time>
      </trkpt>
      <trkpt lat="35.859732560" lon="-106.510970700">
        <ele>2598.100</ele>
        <time>2019-07-14T21:35:37Z</time>
      </trkpt>
      <trkpt lat="35.859792120" lon="-106.511020750">
        <ele>2598.800</ele>
        <time>2019-07-14T21:35:38Z</time>
      </trkpt>
      <trkpt lat="35.859854130" lon="-106.511072830">
        <ele>2599.000</ele>
        <time>2019-07-14T21:35:39Z</time>
      </trkpt>
      <trkpt lat="35.859912530" lon="-106.511116970">
        <ele>2598.900</ele>
        <time>2019-07-14T21:35:40Z</time>
      </trkpt>
      <trkpt lat="35.859971670" lon="-106.511172760">
        <ele>2599.200</ele>
        <time>2019-07-14T21:35:41Z</time>
      </trkpt>
      <trkpt lat="35.860032400" lon="-106.511239430">
        <ele>2599.300</ele>
        <time>2019-07-14T21:35:42Z</time>
      </trkpt>
      <trkpt lat="35.860098800" lon="-106.511294830">
        <ele>2599.500</ele>
        <time>2019-07-14T21:35:43Z</time>
      </trkpt>
      <trkpt lat="35.860155730" lon="-106.511345580">
        <ele>2600.200</ele>
        <time>2019-07-14T21:35:44Z</time>
      </trkpt>
      <trkpt lat="35.860218170" lon="-106.511395470">
        <ele>2601.000</ele>
        <time>2019-07-14T21:35:45Z</time>
      </trkpt>
      <trkpt lat="35.860274980" lon="-106.511444720">
        <ele>2601.900</ele>
        <time>2019-07-14T21:35:46Z</time>
      </trkpt>
      <trkpt lat="35.860337380" lon="-106.511490240">
        <ele>2603.300</ele>
        <time>2019-07-14T21:35:47Z</time>
      </trkpt>
      <trkpt lat="35.860392890" lon="-106.511542740">
        <ele>2603.800</ele>
        <time>2019-07-14T21:35:48Z</time>
      </trkpt>
      <trkpt lat="35.860455130" lon="-106.511587510">
        <ele>2604.500</ele>
        <time>2019-07-14T21:35:49Z</time>
      </trkpt>
      <trkpt lat="35.860516730" lon="-106.511634300">
        <ele>2604.000</ele>
        <time>2019-07-14T21:35:50Z</time>
      </trkpt>
      <trkpt lat="35.860572930" lon="-106.511678500">
        <ele>2605.100</ele>
        <time>2019-07-14T21:35:51Z</time>
      </trkpt>
      <trkpt lat="35.860621640" lon="-106.511712620">
        <ele>2605.900</ele>
        <time>2019-07-14T21:35:52Z</time>
      </trkpt>
      <trkpt lat="35.860677380" lon="-106.511762090">
        <ele>2605.800</ele>
        <time>2019-07-14T21:35:53Z</time>
      </trkpt>
      <trkpt lat="35.860728990" lon="-106.511817340">
        <ele>2606.400</ele>
        <time>2019-07-14T21:35:54Z</time>
      </trkpt>
      <trkpt lat="35.860789590" lon="-106.511866670">
        <ele>2607.300</ele>
        <time>2019-07-14T21:35:55Z</time>
      </trkpt>
      <trkpt lat="35.860851120" lon="-106.511920210">
        <ele>2608.600</ele>
        <time>2019-07-14T21:35:56Z</time>
      </trkpt>
      <trkpt lat="35.860908470" lon="-106.511976330">
        <ele>2608.500</ele>
        <time>2019-07-14T21:35:57Z</time>
      </trkpt>
      <trkpt lat="35.860967280" lon="-106.512029170">
        <ele>2608.400</ele>
        <time>2019-07-14T21:35:58Z</time>
      </trkpt>
      <trkpt lat="35.861023620" lon="-106.512086660">
        <ele>2608.200</ele>
        <time>2019-07-14T21:35:59Z</time>
      </trkpt>
      <trkpt lat="35.861078020" lon="-106.512134570">
        <ele>2609.000</ele>
        <time>2019-07-14T21:36:00Z</time>
      </trkpt>
      <trkpt lat="35.861134000" lon="-106.512188310">
        <ele>2609.400</ele>
        <time>2019-07-14T21:36:01Z</time>
      </trkpt>
      <trkpt lat="35.861193170" lon="-106.512240450">
        <ele>2609.300</ele>
        <time>2019-07-14T21:36:02Z</time>
      </trkpt>
      <trkpt lat="35.861247170" lon="-106.512303410">
        <ele>2610.900</ele>
        <time>2019-07-14T21:36:03Z</time>
      </trkpt>
      <trkpt lat="35.861308930" lon="-106.512363060">
        <ele>2610.100</ele>
        <time>2019-07-14T21:36:04Z</time>
      </trkpt>
      <trkpt lat="35.861365950" lon="-106.512418930">
        <ele>2609.100</ele>
        <time>2019-07-14T21:36:05Z</time>
      </trkpt>
      <trkpt lat="35.861418870" lon="-106.512469520">
        <ele>2608.300</ele>
        <time>2019-07-14T21:36:06Z</time>
      </trkpt>
      <trkpt lat="35.861472210" lon="-106.512523340">
        <ele>2608.200</ele>
        <time>2019-07-14T21:36:07Z</time>
      </trkpt>
      <trkpt lat="35.861527690" lon="-106.512592620">
        <ele>2608.900</ele>
        <time>2019-07-14T21:36:08Z</time>
      </trkpt>
      <trkpt lat="35.861580620" lon="-106.512656790">
        <ele>2609.400</ele>
        <time>2019-07-14T21:36:09Z</time>
      </trkpt>
      <trkpt lat="35.861634070" lon="-106.512730580">
        <ele>2607.900</ele>
        <time>2019-07-14T21:36:10Z</time>
      </trkpt>
      <trkpt lat="35.861676810" lon="-106.512808590">
        <ele>2608.600</ele>
        <time>2019-07-14T21:36:11Z</time>
      </trkpt>
      <trkpt lat="35.861711570" lon="-106.512899280">
        <ele>2608.900</ele>
        <time>2019-07-14T21:36:12Z</time>
      </trkpt>
      <trkpt lat="35.861751130" lon="-106.512978860">
        <ele>2610.000</ele>
        <time>2019-07-14T21:36:13Z</time>
      </trkpt>
      <trkpt lat="35.861781950" lon="-106.513062970">
        <ele>2611.700</ele>
        <time>2019-07-14T21:36:14Z</time>
      </trkpt>
      <trkpt lat="35.861814360" lon="-106.513147770">
        <ele>2612.000</ele>
        <time>2019-07-14T21:36:15Z</time>
      </trkpt>
      <trkpt lat="35.861846920" lon="-106.513234360">
        <ele>2611.800</ele>
        <time>2019-07-14T21:36:16Z</time>
      </trkpt>
      <trkpt lat="35.861873430" lon="-106.513323710">
        <ele>2612.100</ele>
        <time>2019-07-14T21:36:17Z</time>
      </trkpt>
      <trkpt lat="35.861899020" lon="-106.513411230">
        <ele>2611.900</ele>
        <time>2019-07-14T21:36:18Z</time>
      </trkpt>
      <trkpt lat="35.861930150" lon="-106.513505910">
        <ele>2610.900</ele>
        <time>2019-07-14T21:36:19Z</time>
      </trkpt>
      <trkpt lat="35.861949110" lon="-106.513584240">
        <ele>2612.400</ele>
        <time>2019-07-14T21:36:20Z</time>
      </trkpt>
      <trkpt lat="35.861968360" lon="-106.513671520">
        <ele>2613.600</ele>
        <time>2019-07-14T21:36:21Z</time>
      </trkpt>
      <trkpt lat="35.861991840" lon="-106.513757160">
        <ele>2614.100</ele>
        <time>2019-07-14T21:36:22Z</time>
      </trkpt>
      <trkpt lat="35.862020820" lon="-106.513832260">
        <ele>2615.500</ele>
        <time>2019-07-14T21:36:23Z</time>
      </trkpt>
      <trkpt lat="35.862054920" lon="-106.513905430">
        <ele>2614.600</ele>
        <time>2019-07-14T21:36:24Z</time>
      </trkpt>
      <trkpt lat="35.862094010" lon="-106.513975920">
        <ele>2614.400</ele>
        <time>2019-07-14T21:36:25Z</time>
      </trkpt>
      <trkpt lat="35.862127460" lon="-106.514040500">
        <ele>2614.600</ele>
        <time>2019-07-14T21:36:26Z</time>
      </trkpt>
      <trkpt lat="35.862162170" lon="-106.514105460">
        <ele>2615.400</ele>
        <time>2019-07-14T21:36:27Z</time>
      </trkpt>
      <trkpt lat="35.862199430" lon="-106.514174830">
        <ele>2615.500</ele>
        <time>2019-07-14T21:36:28Z</time>
      </trkpt>
      <trkpt lat="35.862245360" lon="-106.514242720">
        <ele>2615.900</ele>
        <time>2019-07-14T21:36:29Z</time>
      </trkpt>
      <trkpt lat="35.862290920" lon="-106.514325450">
        <ele>2615.700</ele>
        <time>2019-07-14T21:36:30Z</time>
      </trkpt>
      <trkpt lat="35.862339510" lon="-106.514401150">
        <ele>2615.800</ele>
        <time>2019-07-14T21:36:31Z</time>
      </trkpt>
      <trkpt lat="35.862381450" lon="-106.514473080">
        <ele>2616.100</ele>
        <time>2019-07-14T21:36:32Z</time>
      </trkpt>
      <trkpt lat="35.862422210" lon="-106.514549870">
        <ele>2616.700</ele>
        <time>2019-07-14T21:36:33Z</time>
      </trkpt>
      <trkpt lat="35.862462350" lon="-106.514629850">
        <ele>2617.400</ele>
        <time>2019-07-14T21:36:34Z</time>
      </trkpt>
      <trkpt lat="35.862503420" lon="-106.514699530">
        <ele>2618.200</ele>
        <time>2019-07-14T21:36:35Z</time>
      </trkpt>
      <trkpt lat="35.862543850" lon="-106.514776760">
        <ele>2618.000</ele>
        <time>2019-07-14T21:36:36Z</time>
      </trkpt>
      <trkpt lat="35.862582350" lon="-106.514849660">
        <ele>2618.500</ele>
        <time>2019-07-14T21:36:37Z</time>
      </trkpt>
      <trkpt lat="35.862621850" lon="-106.514923610">
        <ele>2619.300</ele>
        <time>2019-07-14T21:36:38Z</time>
      </trkpt>
      <trkpt lat="35.862670070" lon="-106.514995800">
        <ele>2619.400</ele>
        <time>2019-07-14T21:36:39Z</time>
      </trkpt>
      <trkpt lat="35.862703490" lon="-106.515071750">
        <ele>2620.600</ele>
        <time>2019-07-14T21:36:40Z</time>
      </trkpt>
      <trkpt lat="35.862744610" lon="-106.515144920">
        <ele>2620.700</ele>
        <time>2019-07-14T21:36:41Z</time>
      </trkpt>
      <trkpt lat="35.862784780" lon="-106.515231180">
        <ele>2621.500</ele>
        <time>2019-07-14T21:36:42Z</time>
      </trkpt>
      <trkpt lat="35.862835020" lon="-106.515309070">
        <ele>2620.600</ele>
        <time>2019-07-14T21:36:43Z</time>
      </trkpt>
      <trkpt lat="35.862874320" lon="-106.515386110">
        <ele>2621.600</ele>
        <time>2019-07-14T21:36:44Z</time>
      </trkpt>
      <trkpt lat="35.862920060" lon="-106.515469260">
        <ele>2622.400</ele>
        <time>2019-07-14T21:36:45Z</time>
      </trkpt>
      <trkpt lat="35.862957660" lon="-106.515550540">
        <ele>2623.000</ele>
        <time>2019-07-14T21:36:46Z</time>
      </trkpt>
      <trkpt lat="35.863001990" lon="-106.515632460">
        <ele>2623.200</ele>
        <time>2019-07-14T21:36:47Z</time>
      </trkpt>
      <trkpt lat="35.863038370" lon="-106.515713040">
        <ele>2625.000</ele>
        <time>2019-07-14T21:36:48Z</time>
      </trkpt>
      <trkpt lat="35.863082930" lon="-106.515792910">
        <ele>2625.100</ele>
        <time>2019-07-14T21:36:49Z</time>
      </trkpt>
      <trkpt lat="35.863118070" lon="-106.515874570">
        <ele>2625.100</ele>
        <time>2019-07-14T21:36:50Z</time>
      </trkpt>
      <trkpt lat="35.863160420" lon="-106.515955920">
        <ele>2624.800</ele>
        <time>2019-07-14T21:36:51Z</time>
      </trkpt>
      <trkpt lat="35.863198170" lon="-106.516027880">
        <ele>2626.000</ele>
        <time>2019-07-14T21:36:52Z</time>
      </trkpt>
      <trkpt lat="35.863237520" lon="-106.516106930">
        <ele>2626.300</ele>
        <time>2019-07-14T21:36:53Z</time>
      </trkpt>
      <trkpt lat="35.863262560" lon="-106.516156720">
        <ele>2627.500</ele>
        <time>2019-07-14T21:36:54Z</time>
      </trkpt>
      <trkpt lat="35.863292690" lon="-106.516218330">
        <ele>2627.700</ele>
        <time>2019-07-14T21:36:55Z</time>
      </trkpt>
      <trkpt lat="35.863328380" lon="-106.516279560">
        <ele>2628.200</ele>
        <time>2019-07-14T21:36:56Z</time>
      </trkpt>
      <trkpt lat="35.863360280" lon="-106.516345120">
        <ele>2629.400</ele>
        <time>2019-07-14T21:36:57Z</time>
      </trkpt>
      <trkpt lat="35.863401380" lon="-106.516416710">
        <ele>2628.800</ele>
        <time>2019-07-14T21:36:58Z</time>
      </trkpt>
      <trkpt lat="35.863436990" lon="-106.516493630">
        <ele>2628.600</ele>
        <time>2019-07-14T21:36:59Z</time>
      </trkpt>
      <trkpt lat="35.863474050" lon="-106.516564070">
        <ele>2629.700</ele>
        <time>2019-07-14T21:37:00Z</time>
      </trkpt>
      <trkpt lat="35.863512920" lon="-106.516648650">
        <ele>2629.600</ele>
        <time>2019-07-14T21:37:01Z</time>
      </trkpt>
      <trkpt lat="35.863546390" lon="-106.516723940">
        <ele>2630.300</ele>
        <time>2019-07-14T21:37:02Z</time>
      </trkpt>
      <trkpt lat="35.863586130" lon="-106.516792600">
        <ele>2631.400</ele>
        <time>2019-07-14T21:37:03Z</time>
      </trkpt>
      <trkpt lat="35.863622630" lon="-106.516867160">
        <ele>2632.000</ele>
        <time>2019-07-14T21:37:04Z</time>
      </trkpt>
      <trkpt lat="35.863657830" lon="-106.516940620">
        <ele>2632.600</ele>
        <time>2019-07-14T21:37:05Z</time>
      </trkpt>
      <trkpt lat="35.863696310" lon="-106.517013710">
        <ele>2632.600</ele>
        <time>2019-07-14T21:37:06Z</time>
      </trkpt>
      <trkpt lat="35.863733740" lon="-106.517083920">
        <ele>2632.800</ele>
        <time>2019-07-14T21:37:07Z</time>
      </trkpt>
      <trkpt lat="35.863777020" lon="-106.517156410">
        <ele>2633.700</ele>
        <time>2019-07-14T21:37:08Z</time>
      </trkpt>
      <trkpt lat="35.863817360" lon="-106.517227540">
        <ele>2633.900</ele>
        <time>2019-07-14T21:37:09Z</time>
      </trkpt>
      <trkpt lat="35.863861410" lon="-106.517292660">
        <ele>2634.100</ele>
        <time>2019-07-14T21:37:10Z</time>
      </trkpt>
      <trkpt lat="35.863898490" lon="-106.517361670">
        <ele>2634.200</ele>
        <time>2019-07-14T21:37:11Z</time>
      </trkpt>
      <trkpt lat="35.863941180" lon="-106.517427760">
        <ele>2634.600</ele>
        <time>2019-07-14T21:37:12Z</time>
      </trkpt>
      <trkpt lat="35.863986400" lon="-106.517493580">
        <ele>2633.300</ele>
        <time>2019-07-14T21:37:13Z</time>
      </trkpt>
      <trkpt lat="35.864034650" lon="-106.517561350">
        <ele>2632.700</ele>
        <time>2019-07-14T21:37:14Z</time>
      </trkpt>
      <trkpt lat="35.864071090" lon="-106.517618840">
        <ele>2633.600</ele>
        <time>2019-07-14T21:37:15Z</time>
      </trkpt>
      <trkpt lat="35.864106860" lon="-106.517686540">
        <ele>2635.800</ele>
        <time>2019-07-14T21:37:16Z</time>
      </trkpt>
      <trkpt lat="35.864144950" lon="-106.517750300">
        <ele>2636.300</ele>
        <time>2019-07-14T21:37:17Z</time>
      </trkpt>
      <trkpt lat="35.864193750" lon="-106.517810570">
        <ele>2635.900</ele>
        <time>2019-07-14T21:37:18Z</time>
      </trkpt>
      <trkpt lat="35.864239680" lon="-106.517875470">
        <ele>2636.900</ele>
        <time>2019-07-14T21:37:19Z</time>
      </trkpt>
      <trkpt lat="35.864291130" lon="-106.517935400">
        <ele>2637.000</ele>
        <time>2019-07-14T21:37:20Z</time>
      </trkpt>
      <trkpt lat="35.864331860" lon="-106.517981460">
        <ele>2638.700</ele>
        <time>2019-07-14T21:37:21Z</time>
      </trkpt>
      <trkpt lat="35.864389930" lon="-106.518016230">
        <ele>2639.200</ele>
        <time>2019-07-14T21:37:22Z</time>
      </trkpt>
      <trkpt lat="35.864450930" lon="-106.518050530">
        <ele>2639.400</ele>
        <time>2019-07-14T21:37:23Z</time>
      </trkpt>
      <trkpt lat="35.864522680" lon="-106.518073140">
        <ele>2637.600</ele>
        <time>2019-07-14T21:37:24Z</time>
      </trkpt>
      <trkpt lat="35.864587680" lon="-106.518082760">
        <ele>2639.300</ele>
        <time>2019-07-14T21:37:25Z</time>
      </trkpt>
      <trkpt lat="35.864647130" lon="-106.518081930">
        <ele>2639.000</ele>
        <time>2019-07-14T21:37:26Z</time>
      </trkpt>
      <trkpt lat="35.864699850" lon="-106.518069370">
        <ele>2641.600</ele>
        <time>2019-07-14T21:37:27Z</time>
      </trkpt>
      <trkpt lat="35.864759180" lon="-106.518045230">
        <ele>2641.900</ele>
        <time>2019-07-14T21:37:28Z</time>
      </trkpt>
      <trkpt lat="35.864806380" lon="-106.518003580">
        <ele>2642.600</ele>
        <time>2019-07-14T21:37:29Z</time>
      </trkpt>
      <trkpt lat="35.864863320" lon="-106.517967780">
        <ele>2642.800</ele>
        <time>2019-07-14T21:37:30Z</time>
      </trkpt>
      <trkpt lat="35.864920530" lon="-106.517928470">
        <ele>2641.500</ele>
        <time>2019-07-14T21:37:31Z</time>
      </trkpt>
      <trkpt lat="35.864971430" lon="-106.517878480">
        <ele>2642.300</ele>
        <time>2019-07-14T21:37:32Z</time>
      </trkpt>
      <trkpt lat="35.865012130" lon="-106.517804620">
        <ele>2641.300</ele>
        <time>2019-07-14T21:37:33Z</time>
      </trkpt>
      <trkpt lat="35.865060700" lon="-106.517734500">
        <ele>2639.800</ele>
        <time>2019-07-14T21:37:34Z</time>
      </trkpt>
      <trkpt lat="35.865099930" lon="-106.517654470">
        <ele>2639.600</ele>
        <time>2019-07-14T21:37:35Z</time>
      </trkpt>
      <trkpt lat="35.865143390" lon="-106.517574140">
        <ele>2640.000</ele>
        <time>2019-07-14T21:37:36Z</time>
      </trkpt>
      <trkpt lat="35.865185990" lon="-106.517500600">
        <ele>2640.100</ele>
        <time>2019-07-14T21:37:37Z</time>
      </trkpt>
      <trkpt lat="35.865248170" lon="-106.517438250">
        <ele>2639.700</ele>
        <time>2019-07-14T21:37:38Z</time>
      </trkpt>
      <trkpt lat="35.865293810" lon="-106.517387260">
        <ele>2641.000</ele>
        <time>2019-07-14T21:37:39Z</time>
      </trkpt>
      <trkpt lat="35.865343440" lon="-106.517349180">
        <ele>2641.400</ele>
        <time>2019-07-14T21:37:40Z</time>
      </trkpt>
      <trkpt lat="35.865385790" lon="-106.517307320">
        <ele>2642.000</ele>
        <time>2019-07-14T21:37:41Z</time>
      </trkpt>
      <trkpt lat="35.865427960" lon="-106.517269400">
        <ele>2642.600</ele>
        <time>2019-07-14T21:37:42Z</time>
      </trkpt>
      <trkpt lat="35.865462230" lon="-106.517236740">
        <ele>2643.300</ele>
        <time>2019-07-14T21:37:43Z</time>
      </trkpt>
      <trkpt lat="35.865504690" lon="-106.517202990">
        <ele>2643.200</ele>
        <time>2019-07-14T21:37:44Z</time>
      </trkpt>
      <trkpt lat="35.865551270" lon="-106.517153200">
        <ele>2643.100</ele>
        <time>2019-07-14T21:37:45Z</time>
      </trkpt>
      <trkpt lat="35.865589900" lon="-106.517102580">
        <ele>2641.200</ele>
        <time>2019-07-14T21:37:46Z</time>
      </trkpt>
      <trkpt lat="35.865645050" lon="-106.517059660">
        <ele>2641.300</ele>
        <time>2019-07-14T21:37:47Z</time>
      </trkpt>
      <trkpt lat="35.865691770" lon="-106.517014370">
        <ele>2642.100</ele>
        <time>2019-07-14T21:37:48Z</time>
      </trkpt>
      <trkpt lat="35.865752200" lon="-106.516955510">
        <ele>2642.600</ele>
        <time>2019-07-14T21:37:49Z</time>
      </trkpt>
      <trkpt lat="35.865798710" lon="-106.516894140">
        <ele>2642.600</ele>
        <time>2019-07-14T21:37:50Z</time>
      </trkpt>
      <trkpt lat="35.865845540" lon="-106.516832270">
        <ele>2642.800</ele>
        <time>2019-07-14T21:37:51Z</time>
      </trkpt>
      <trkpt lat="35.865891220" lon="-106.516766320">
        <ele>2642.900</ele>
        <time>2019-07-14T21:37:52Z</time>
      </trkpt>
      <trkpt lat="35.865943550" lon="-106.516716850">
        <ele>2643.100</ele>
        <time>2019-07-14T21:37:53Z</time>
      </trkpt>
      <trkpt lat="35.865983980" lon="-106.516672580">
        <ele>2642.600</ele>
        <time>2019-07-14T21:37:54Z</time>
      </trkpt>
      <trkpt lat="35.866031750" lon="-106.516625250">
        <ele>2641.600</ele>
        <time>2019-07-14T21:37:55Z</time>
      </trkpt>
      <trkpt lat="35.866064140" lon="-106.516576780">
        <ele>2642.900</ele>
        <time>2019-07-14T21:37:56Z</time>
      </trkpt>
      <trkpt lat="35.866102790" lon="-106.516527850">
        <ele>2642.700</ele>
        <time>2019-07-14T21:37:57Z</time>
      </trkpt>
      <trkpt lat="35.866139690" lon="-106.516498920">
        <ele>2641.100</ele>
        <time>2019-07-14T21:37:58Z</time>
      </trkpt>
      <trkpt lat="35.866181310" lon="-106.516456620">
        <ele>2639.600</ele>
        <time>2019-07-14T21:38:00Z</time>
      </trkpt>
      <trkpt lat="35.866161120" lon="-106.516499840">
        <ele>2640.000</ele>
        <time>2019-07-14T21:40:47Z</time>
      </trkpt>
      <trkpt lat="35.866126670" lon="-106.516529970">
        <ele>2641.200</ele>
        <time>2019-07-14T21:40:49Z</time>
      </trkpt>
      <trkpt lat="35.866097270" lon="-106.516556130">
        <ele>2642.600</ele>
        <time>2019-07-14T21:40:52Z</time>
      </trkpt>
      <trkpt lat="35.866066890" lon="-106.516531530">
        <ele>2647.400</ele>
        <time>2019-07-14T21:41:44Z</time>
      </trkpt>
      <trkpt lat="35.866095110" lon="-106.516498940">
        <ele>2645.100</ele>
        <time>2019-07-14T21:42:43Z</time>
      </trkpt>
      <trkpt lat="35.866128250" lon="-106.516455100">
        <ele>2646.200</ele>
        <time>2019-07-14T21:42:45Z</time>
      </trkpt>
      <trkpt lat="35.866162150" lon="-106.516402240">
        <ele>2645.100</ele>
        <time>2019-07-14T21:42:47Z</time>
      </trkpt>
      <trkpt lat="35.866200570" lon="-106.516342730">
        <ele>2645.800</ele>
        <time>2019-07-14T21:42:49Z</time>
      </trkpt>
      <trkpt lat="35.866249220" lon="-106.516273530">
        <ele>2645.500</ele>
        <time>2019-07-14T21:42:51Z</time>
      </trkpt>
      <trkpt lat="35.866270010" lon="-106.516230200">
        <ele>2647.000</ele>
        <time>2019-07-14T21:42:52Z</time>
      </trkpt>
      <trkpt lat="35.866312700" lon="-106.516206460">
        <ele>2645.900</ele>
        <time>2019-07-14T21:42:53Z</time>
      </trkpt>
      <trkpt lat="35.866349640" lon="-106.516170990">
        <ele>2643.600</ele>
        <time>2019-07-14T21:42:54Z</time>
      </trkpt>
      <trkpt lat="35.866392420" lon="-106.516140400">
        <ele>2643.100</ele>
        <time>2019-07-14T21:42:55Z</time>
      </trkpt>
      <trkpt lat="35.866433400" lon="-106.516119820">
        <ele>2642.400</ele>
        <time>2019-07-14T21:42:56Z</time>
      </trkpt>
      <trkpt lat="35.866471690" lon="-106.516096860">
        <ele>2642.400</ele>
        <time>2019-07-14T21:42:57Z</time>
      </trkpt>
      <trkpt lat="35.866514640" lon="-106.516075170">
        <ele>2642.100</ele>
        <time>2019-07-14T21:42:58Z</time>
      </trkpt>
      <trkpt lat="35.866553050" lon="-106.516062000">
        <ele>2641.800</ele>
        <time>2019-07-14T21:42:59Z</time>
      </trkpt>
      <trkpt lat="35.866590900" lon="-106.516039600">
        <ele>2641.600</ele>
        <time>2019-07-14T21:43:00Z</time>
      </trkpt>
      <trkpt lat="35.866648980" lon="-106.516005900">
        <ele>2641.300</ele>
        <time>2019-07-14T21:43:02Z</time>
      </trkpt>
      <trkpt lat="35.866691550" lon="-106.515995180">
        <ele>2640.400</ele>
        <time>2019-07-14T21:43:03Z</time>
      </trkpt>
      <trkpt lat="35.866763060" lon="-106.515956050">
        <ele>2639.600</ele>
        <time>2019-07-14T21:43:05Z</time>
      </trkpt>
      <trkpt lat="35.866798260" lon="-106.515928700">
        <ele>2639.300</ele>
        <time>2019-07-14T21:43:06Z</time>
      </trkpt>
      <trkpt lat="35.866829910" lon="-106.515888170">
        <ele>2641.200</ele>
        <time>2019-07-14T21:43:07Z</time>
      </trkpt>
      <trkpt lat="35.866866080" lon="-106.515851710">
        <ele>2641.000</ele>
        <time>2019-07-14T21:43:08Z</time>
      </trkpt>
      <trkpt lat="35.866906850" lon="-106.515818720">
        <ele>2640.900</ele>
        <time>2019-07-14T21:43:09Z</time>
      </trkpt>
      <trkpt lat="35.866949390" lon="-106.515794440">
        <ele>2640.400</ele>
        <time>2019-07-14T21:43:10Z</time>
      </trkpt>
      <trkpt lat="35.866993480" lon="-106.515764710">
        <ele>2640.500</ele>
        <time>2019-07-14T21:43:11Z</time>
      </trkpt>
      <trkpt lat="35.867037370" lon="-106.515735590">
        <ele>2640.300</ele>
        <time>2019-07-14T21:43:12Z</time>
      </trkpt>
      <trkpt lat="35.867090470" lon="-106.515716250">
        <ele>2641.000</ele>
        <time>2019-07-14T21:43:13Z</time>
      </trkpt>
      <trkpt lat="35.867139710" lon="-106.515699200">
        <ele>2640.900</ele>
        <time>2019-07-14T21:43:14Z</time>
      </trkpt>
      <trkpt lat="35.867189610" lon="-106.515690600">
        <ele>2641.100</ele>
        <time>2019-07-14T21:43:15Z</time>
      </trkpt>
      <trkpt lat="35.867244060" lon="-106.515693300">
        <ele>2639.200</ele>
        <time>2019-07-14T21:43:16Z</time>
      </trkpt>
      <trkpt lat="35.867303090" lon="-106.515713310">
        <ele>2636.400</ele>
        <time>2019-07-14T21:43:17Z</time>
      </trkpt>
      <trkpt lat="35.867352740" lon="-106.515715100">
        <ele>2635.900</ele>
        <time>2019-07-14T21:43:18Z</time>
      </trkpt>
      <trkpt lat="35.867405420" lon="-106.515718590">
        <ele>2635.800</ele>
        <time>2019-07-14T21:43:19Z</time>
      </trkpt>
      <trkpt lat="35.867452100" lon="-106.515725550">
        <ele>2635.600</ele>
        <time>2019-07-14T21:43:20Z</time>
      </trkpt>
      <trkpt lat="35.867499000" lon="-106.515731420">
        <ele>2635.300</ele>
        <time>2019-07-14T21:43:21Z</time>
      </trkpt>
      <trkpt lat="35.867541680" lon="-106.515727050">
        <ele>2635.300</ele>
        <time>2019-07-14T21:43:22Z</time>
      </trkpt>
      <trkpt lat="35.867586090" lon="-106.515738320">
        <ele>2636.200</ele>
        <time>2019-07-14T21:43:23Z</time>
      </trkpt>
      <trkpt lat="35.867630260" lon="-106.515729100">
        <ele>2636.100</ele>
        <time>2019-07-14T21:43:24Z</time>
      </trkpt>
      <trkpt lat="35.867673300" lon="-106.515732900">
        <ele>2636.400</ele>
        <time>2019-07-14T21:43:25Z</time>
      </trkpt>
      <trkpt lat="35.867716130" lon="-106.515724500">
        <ele>2635.400</ele>
        <time>2019-07-14T21:43:26Z</time>
      </trkpt>
      <trkpt lat="35.867756910" lon="-106.515736370">
        <ele>2634.000</ele>
        <time>2019-07-14T21:43:27Z</time>
      </trkpt>
      <trkpt lat="35.867796190" lon="-106.515737880">
        <ele>2633.800</ele>
        <time>2019-07-14T21:43:28Z</time>
      </trkpt>
      <trkpt lat="35.867839860" lon="-106.515737750">
        <ele>2633.200</ele>
        <time>2019-07-14T21:43:29Z</time>
      </trkpt>
      <trkpt lat="35.867882340" lon="-106.515739190">
        <ele>2634.300</ele>
        <time>2019-07-14T21:43:30Z</time>
      </trkpt>
      <trkpt lat="35.867920710" lon="-106.515738490">
        <ele>2635.100</ele>
        <time>2019-07-14T21:43:31Z</time>
      </trkpt>
      <trkpt lat="35.867975120" lon="-106.515746370">
        <ele>2634.500</ele>
        <time>2019-07-14T21:43:32Z</time>
      </trkpt>
      <trkpt lat="35.868021860" lon="-106.515746670">
        <ele>2636.500</ele>
        <time>2019-07-14T21:43:33Z</time>
      </trkpt>
      <trkpt lat="35.868065800" lon="-106.515766720">
        <ele>2636.500</ele>
        <time>2019-07-14T21:43:34Z</time>
      </trkpt>
      <trkpt lat="35.868125720" lon="-106.515776360">
        <ele>2636.100</ele>
        <time>2019-07-14T21:43:35Z</time>
      </trkpt>
      <trkpt lat="35.868178280" lon="-106.515789320">
        <ele>2636.500</ele>
        <time>2019-07-14T21:43:36Z</time>
      </trkpt>
      <trkpt lat="35.868231470" lon="-106.515803360">
        <ele>2637.000</ele>
        <time>2019-07-14T21:43:37Z</time>
      </trkpt>
      <trkpt lat="35.868286790" lon="-106.515814850">
        <ele>2637.600</ele>
        <time>2019-07-14T21:43:38Z</time>
      </trkpt>
      <trkpt lat="35.868341960" lon="-106.515826790">
        <ele>2637.900</ele>
        <time>2019-07-14T21:43:39Z</time>
      </trkpt>
      <trkpt lat="35.868401850" lon="-106.515840830">
        <ele>2638.200</ele>
        <time>2019-07-14T21:43:40Z</time>
      </trkpt>
      <trkpt lat="35.868459980" lon="-106.515854570">
        <ele>2638.700</ele>
        <time>2019-07-14T21:43:41Z</time>
      </trkpt>
      <trkpt lat="35.868518360" lon="-106.515872920">
        <ele>2638.700</ele>
        <time>2019-07-14T21:43:42Z</time>
      </trkpt>
      <trkpt lat="35.868580580" lon="-106.515897980">
        <ele>2638.400</ele>
        <time>2019-07-14T21:43:43Z</time>
      </trkpt>
      <trkpt lat="35.868644780" lon="-106.515922420">
        <ele>2638.500</ele>
        <time>2019-07-14T21:43:44Z</time>
      </trkpt>
      <trkpt lat="35.868701440" lon="-106.515936800">
        <ele>2639.400</ele>
        <time>2019-07-14T21:43:45Z</time>
      </trkpt>
      <trkpt lat="35.868758120" lon="-106.515957240">
        <ele>2639.600</ele>
        <time>2019-07-14T21:43:46Z</time>
      </trkpt>
      <trkpt lat="35.868814960" lon="-106.515965330">
        <ele>2640.400</ele>
        <time>2019-07-14T21:43:47Z</time>
      </trkpt>
      <trkpt lat="35.868869360" lon="-106.515979830">
        <ele>2639.800</ele>
        <time>2019-07-14T21:43:48Z</time>
      </trkpt>
      <trkpt lat="35.868923270" lon="-106.515996350">
        <ele>2640.500</ele>
        <time>2019-07-14T21:43:49Z</time>
      </trkpt>
      <trkpt lat="35.868981750" lon="-106.515993840">
        <ele>2642.200</ele>
        <time>2019-07-14T21:43:50Z</time>
      </trkpt>
      <trkpt lat="35.869037510" lon="-106.515994230">
        <ele>2643.400</ele>
        <time>2019-07-14T21:43:51Z</time>
      </trkpt>
      <trkpt lat="35.869089690" lon="-106.515977700">
        <ele>2644.800</ele>
        <time>2019-07-14T21:43:52Z</time>
      </trkpt>
      <trkpt lat="35.869151590" lon="-106.515950930">
        <ele>2644.000</ele>
        <time>2019-07-14T21:43:53Z</time>
      </trkpt>
      <trkpt lat="35.869215110" lon="-106.515924120">
        <ele>2643.000</ele>
        <time>2019-07-14T21:43:54Z</time>
      </trkpt>
      <trkpt lat="35.869268580" lon="-106.515889040">
        <ele>2642.900</ele>
        <time>2019-07-14T21:43:55Z</time>
      </trkpt>
      <trkpt lat="35.869329360" lon="-106.515853720">
        <ele>2644.400</ele>
        <time>2019-07-14T21:43:56Z</time>
      </trkpt>
      <trkpt lat="35.869389370" lon="-106.515812560">
        <ele>2644.700</ele>
        <time>2019-07-14T21:43:57Z</time>
      </trkpt>
      <trkpt lat="35.869447380" lon="-106.515772520">
        <ele>2645.200</ele>
        <time>2019-07-14T21:43:58Z</time>
      </trkpt>
      <trkpt lat="35.869509040" lon="-106.515736410">
        <ele>2644.400</ele>
        <time>2019-07-14T21:43:59Z</time>
      </trkpt>
      <trkpt lat="35.869575660" lon="-106.515702160">
        <ele>2643.800</ele>
        <time>2019-07-14T21:44:00Z</time>
      </trkpt>
      <trkpt lat="35.869645220" lon="-106.515667110">
        <ele>2643.800</ele>
        <time>2019-07-14T21:44:01Z</time>
      </trkpt>
      <trkpt lat="35.869710290" lon="-106.515632060">
        <ele>2645.100</ele>
        <time>2019-07-14T21:44:02Z</time>
      </trkpt>
      <trkpt lat="35.869787390" lon="-106.515600840">
        <ele>2642.700</ele>
        <time>2019-07-14T21:44:03Z</time>
      </trkpt>
      <trkpt lat="35.869847510" lon="-106.515578020">
        <ele>2642.000</ele>
        <time>2019-07-14T21:44:04Z</time>
      </trkpt>
      <trkpt lat="35.869916630" lon="-106.515549980">
        <ele>2642.200</ele>
        <time>2019-07-14T21:44:05Z</time>
      </trkpt>
      <trkpt lat="35.869990440" lon="-106.515531820">
        <ele>2643.000</ele>
        <time>2019-07-14T21:44:06Z</time>
      </trkpt>
      <trkpt lat="35.870055230" lon="-106.515504110">
        <ele>2641.900</ele>
        <time>2019-07-14T21:44:07Z</time>
      </trkpt>
      <trkpt lat="35.870118890" lon="-106.515483880">
        <ele>2642.700</ele>
        <time>2019-07-14T21:44:08Z</time>
      </trkpt>
      <trkpt lat="35.870174110" lon="-106.515452730">
        <ele>2643.000</ele>
        <time>2019-07-14T21:44:09Z</time>
      </trkpt>
      <trkpt lat="35.870242150" lon="-106.515416660">
        <ele>2644.200</ele>
        <time>2019-07-14T21:44:10Z</time>
      </trkpt>
      <trkpt lat="35.870298790" lon="-106.515381040">
        <ele>2644.300</ele>
        <time>2019-07-14T21:44:11Z</time>
      </trkpt>
      <trkpt lat="35.870361870" lon="-106.515345000">
        <ele>2644.100</ele>
        <time>2019-07-14T21:44:12Z</time>
      </trkpt>
      <trkpt lat="35.870420750" lon="-106.515304230">
        <ele>2644.100</ele>
        <time>2019-07-14T21:44:13Z</time>
      </trkpt>
      <trkpt lat="35.870475310" lon="-106.515260780">
        <ele>2644.100</ele>
        <time>2019-07-14T21:44:14Z</time>
      </trkpt>
      <trkpt lat="35.870532630" lon="-106.515219990">
        <ele>2643.700</ele>
        <time>2019-07-14T21:44:15Z</time>
      </trkpt>
      <trkpt lat="35.870591150" lon="-106.515176380">
        <ele>2644.300</ele>
        <time>2019-07-14T21:44:16Z</time>
      </trkpt>
      <trkpt lat="35.870643350" lon="-106.515135780">
        <ele>2644.500</ele>
        <time>2019-07-14T21:44:17Z</time>
      </trkpt>
      <trkpt lat="35.870699530" lon="-106.515104490">
        <ele>2643.200</ele>
        <time>2019-07-14T21:44:18Z</time>
      </trkpt>
      <trkpt lat="35.870758000" lon="-106.515074600">
        <ele>2642.900</ele>
        <time>2019-07-14T21:44:19Z</time>
      </trkpt>
      <trkpt lat="35.870822830" lon="-106.515042030">
        <ele>2643.900</ele>
        <time>2019-07-14T21:44:20Z</time>
      </trkpt>
      <trkpt lat="35.870878800" lon="-106.515015540">
        <ele>2643.900</ele>
        <time>2019-07-14T21:44:21Z</time>
      </trkpt>
      <trkpt lat="35.870934760" lon="-106.514988730">
        <ele>2644.000</ele>
        <time>2019-07-14T21:44:22Z</time>
      </trkpt>
      <trkpt lat="35.870985960" lon="-106.514959890">
        <ele>2643.300</ele>
        <time>2019-07-14T21:44:23Z</time>
      </trkpt>
      <trkpt lat="35.871037690" lon="-106.514929780">
        <ele>2642.700</ele>
        <time>2019-07-14T21:44:24Z</time>
      </trkpt>
      <trkpt lat="35.871090030" lon="-106.514895230">
        <ele>2643.500</ele>
        <time>2019-07-14T21:44:25Z</time>
      </trkpt>
      <trkpt lat="35.871146490" lon="-106.514856240">
        <ele>2643.500</ele>
        <time>2019-07-14T21:44:26Z</time>
      </trkpt>
      <trkpt lat="35.871198140" lon="-106.514811310">
        <ele>2644.300</ele>
        <time>2019-07-14T21:44:27Z</time>
      </trkpt>
      <trkpt lat="35.871251050" lon="-106.514766280">
        <ele>2644.100</ele>
        <time>2019-07-14T21:44:28Z</time>
      </trkpt>
      <trkpt lat="35.871304840" lon="-106.514712890">
        <ele>2644.300</ele>
        <time>2019-07-14T21:44:29Z</time>
      </trkpt>
      <trkpt lat="35.871356530" lon="-106.514661140">
        <ele>2642.100</ele>
        <time>2019-07-14T21:44:30Z</time>
      </trkpt>
      <trkpt lat="35.871407230" lon="-106.514607510">
        <ele>2640.600</ele>
        <time>2019-07-14T21:44:31Z</time>
      </trkpt>
      <trkpt lat="35.871450400" lon="-106.514544060">
        <ele>2640.700</ele>
        <time>2019-07-14T21:44:32Z</time>
      </trkpt>
      <trkpt lat="35.871500980" lon="-106.514480860">
        <ele>2639.400</ele>
        <time>2019-07-14T21:44:33Z</time>
      </trkpt>
      <trkpt lat="35.871551360" lon="-106.514408410">
        <ele>2638.900</ele>
        <time>2019-07-14T21:44:34Z</time>
      </trkpt>
      <trkpt lat="35.871608060" lon="-106.514330090">
        <ele>2637.900</ele>
        <time>2019-07-14T21:44:35Z</time>
      </trkpt>
      <trkpt lat="35.871665870" lon="-106.514244820">
        <ele>2637.300</ele>
        <time>2019-07-14T21:44:36Z</time>
      </trkpt>
      <trkpt lat="35.871722330" lon="-106.514158510">
        <ele>2637.000</ele>
        <time>2019-07-14T21:44:37Z</time>
      </trkpt>
      <trkpt lat="35.871776510" lon="-106.514076290">
        <ele>2637.000</ele>
        <time>2019-07-14T21:44:38Z</time>
      </trkpt>
      <trkpt lat="35.871830330" lon="-106.513998390">
        <ele>2636.700</ele>
        <time>2019-07-14T21:44:39Z</time>
      </trkpt>
      <trkpt lat="35.871884940" lon="-106.513919450">
        <ele>2636.000</ele>
        <time>2019-07-14T21:44:40Z</time>
      </trkpt>
      <trkpt lat="35.871941680" lon="-106.513839430">
        <ele>2636.800</ele>
        <time>2019-07-14T21:44:41Z</time>
      </trkpt>
      <trkpt lat="35.871998700" lon="-106.513762530">
        <ele>2636.400</ele>
        <time>2019-07-14T21:44:42Z</time>
      </trkpt>
      <trkpt lat="35.872058560" lon="-106.513683700">
        <ele>2636.500</ele>
        <time>2019-07-14T21:44:43Z</time>
      </trkpt>
      <trkpt lat="35.872115550" lon="-106.513603770">
        <ele>2637.700</ele>
        <time>2019-07-14T21:44:44Z</time>
      </trkpt>
      <trkpt lat="35.872171160" lon="-106.513535940">
        <ele>2637.900</ele>
        <time>2019-07-14T21:44:45Z</time>
      </trkpt>
      <trkpt lat="35.872223500" lon="-106.513475390">
        <ele>2638.000</ele>
        <time>2019-07-14T21:44:46Z</time>
      </trkpt>
      <trkpt lat="35.872280510" lon="-106.513417110">
        <ele>2637.400</ele>
        <time>2019-07-14T21:44:47Z</time>
      </trkpt>
      <trkpt lat="35.872333400" lon="-106.513365070">
        <ele>2637.200</ele>
        <time>2019-07-14T21:44:48Z</time>
      </trkpt>
      <trkpt lat="35.872395490" lon="-106.513300960">
        <ele>2636.500</ele>
        <time>2019-07-14T21:44:49Z</time>
      </trkpt>
      <trkpt lat="35.872450680" lon="-106.513254290">
        <ele>2636.300</ele>
        <time>2019-07-14T21:44:50Z</time>
      </trkpt>
      <trkpt lat="35.872506050" lon="-106.513198150">
        <ele>2636.800</ele>
        <time>2019-07-14T21:44:51Z</time>
      </trkpt>
      <trkpt lat="35.872566770" lon="-106.513145510">
        <ele>2637.100</ele>
        <time>2019-07-14T21:44:52Z</time>
      </trkpt>
      <trkpt lat="35.872631820" lon="-106.513101850">
        <ele>2637.400</ele>
        <time>2019-07-14T21:44:53Z</time>
      </trkpt>
      <trkpt lat="35.872690550" lon="-106.513060100">
        <ele>2637.400</ele>
        <time>2019-07-14T21:44:54Z</time>
      </trkpt>
      <trkpt lat="35.872744640" lon="-106.513010240">
        <ele>2638.100</ele>
        <time>2019-07-14T21:44:55Z</time>
      </trkpt>
      <trkpt lat="35.872799310" lon="-106.512961860">
        <ele>2637.900</ele>
        <time>2019-07-14T21:44:56Z</time>
      </trkpt>
      <trkpt lat="35.872849760" lon="-106.512911050">
        <ele>2637.800</ele>
        <time>2019-07-14T21:44:57Z</time>
      </trkpt>
      <trkpt lat="35.872893000" lon="-106.512833900">
        <ele>2637.800</ele>
        <time>2019-07-14T21:44:58Z</time>
      </trkpt>
      <trkpt lat="35.872931240" lon="-106.512755790">
        <ele>2637.100</ele>
        <time>2019-07-14T21:44:59Z</time>
      </trkpt>
      <trkpt lat="35.872945250" lon="-106.512680840">
        <ele>2636.800</ele>
        <time>2019-07-14T21:45:00Z</time>
      </trkpt>
      <trkpt lat="35.872957040" lon="-106.512608180">
        <ele>2636.300</ele>
        <time>2019-07-14T21:45:01Z</time>
      </trkpt>
      <trkpt lat="35.872950930" lon="-106.512519830">
        <ele>2636.800</ele>
        <time>2019-07-14T21:45:02Z</time>
      </trkpt>
      <trkpt lat="35.872940710" lon="-106.512434160">
        <ele>2636.300</ele>
        <time>2019-07-14T21:45:03Z</time>
      </trkpt>
      <trkpt lat="35.872913920" lon="-106.512354700">
        <ele>2636.300</ele>
        <time>2019-07-14T21:45:04Z</time>
      </trkpt>
      <trkpt lat="35.872888910" lon="-106.512253820">
        <ele>2636.800</ele>
        <time>2019-07-14T21:45:05Z</time>
      </trkpt>
      <trkpt lat="35.872873850" lon="-106.512172450">
        <ele>2637.000</ele>
        <time>2019-07-14T21:45:06Z</time>
      </trkpt>
      <trkpt lat="35.872869820" lon="-106.512097350">
        <ele>2636.200</ele>
        <time>2019-07-14T21:45:07Z</time>
      </trkpt>
      <trkpt lat="35.872880200" lon="-106.512012760">
        <ele>2636.900</ele>
        <time>2019-07-14T21:45:08Z</time>
      </trkpt>
      <trkpt lat="35.872910590" lon="-106.511934680">
        <ele>2635.800</ele>
        <time>2019-07-14T21:45:09Z</time>
      </trkpt>
      <trkpt lat="35.872940060" lon="-106.511860410">
        <ele>2635.500</ele>
        <time>2019-07-14T21:45:10Z</time>
      </trkpt>
      <trkpt lat="35.873000770" lon="-106.511811750">
        <ele>2636.300</ele>
        <time>2019-07-14T21:45:11Z</time>
      </trkpt>
      <trkpt lat="35.873050690" lon="-106.511762310">
        <ele>2637.200</ele>
        <time>2019-07-14T21:45:12Z</time>
      </trkpt>
      <trkpt lat="35.873127320" lon="-106.511771020">
        <ele>2635.300</ele>
        <time>2019-07-14T21:45:13Z</time>
      </trkpt>
      <trkpt lat="35.873187250" lon="-106.511751180">
        <ele>2635.800</ele>
        <time>2019-07-14T21:45:14Z</time>
      </trkpt>
      <trkpt lat="35.873256310" lon="-106.511733290">
        <ele>2635.200</ele>
        <time>2019-07-14T21:45:15Z</time>
      </trkpt>
      <trkpt lat="35.873318670" lon="-106.511712920">
        <ele>2635.000</ele>
        <time>2019-07-14T21:45:16Z</time>
      </trkpt>
      <trkpt lat="35.873356320" lon="-106.511643220">
        <ele>2635.700</ele>
        <time>2019-07-14T21:45:17Z</time>
      </trkpt>
      <trkpt lat="35.873384520" lon="-106.511591670">
        <ele>2634.000</ele>
        <time>2019-07-14T21:45:18Z</time>
      </trkpt>
      <trkpt lat="35.873415680" lon="-106.511528810">
        <ele>2635.700</ele>
        <time>2019-07-14T21:45:19Z</time>
      </trkpt>
      <trkpt lat="35.873458540" lon="-106.511479010">
        <ele>2634.900</ele>
        <time>2019-07-14T21:45:20Z</time>
      </trkpt>
      <trkpt lat="35.873485270" lon="-106.511399020">
        <ele>2635.400</ele>
        <time>2019-07-14T21:45:21Z</time>
      </trkpt>
      <trkpt lat="35.873521020" lon="-106.511342240">
        <ele>2636.000</ele>
        <time>2019-07-14T21:45:22Z</time>
      </trkpt>
      <trkpt lat="35.873575570" lon="-106.511285650">
        <ele>2637.200</ele>
        <time>2019-07-14T21:45:23Z</time>
      </trkpt>
      <trkpt lat="35.873620160" lon="-106.511235520">
        <ele>2637.400</ele>
        <time>2019-07-14T21:45:24Z</time>
      </trkpt>
      <trkpt lat="35.873675600" lon="-106.511189230">
        <ele>2637.700</ele>
        <time>2019-07-14T21:45:25Z</time>
      </trkpt>
      <trkpt lat="35.873723370" lon="-106.511139400">
        <ele>2638.700</ele>
        <time>2019-07-14T21:45:26Z</time>
      </trkpt>
      <trkpt lat="35.873767590" lon="-106.511117710">
        <ele>2638.400</ele>
        <time>2019-07-14T21:45:27Z</time>
      </trkpt>
      <trkpt lat="35.873822480" lon="-106.511079300">
        <ele>2639.200</ele>
        <time>2019-07-14T21:45:28Z</time>
      </trkpt>
      <trkpt lat="35.873882960" lon="-106.511039840">
        <ele>2639.300</ele>
        <time>2019-07-14T21:45:29Z</time>
      </trkpt>
      <trkpt lat="35.873936610" lon="-106.510990200">
        <ele>2639.500</ele>
        <time>2019-07-14T21:45:30Z</time>
      </trkpt>
      <trkpt lat="35.873999850" lon="-106.510971020">
        <ele>2639.800</ele>
        <time>2019-07-14T21:45:31Z</time>
      </trkpt>
      <trkpt lat="35.874059020" lon="-106.510928870">
        <ele>2639.600</ele>
        <time>2019-07-14T21:45:32Z</time>
      </trkpt>
      <trkpt lat="35.874120760" lon="-106.510887230">
        <ele>2638.800</ele>
        <time>2019-07-14T21:45:33Z</time>
      </trkpt>
      <trkpt lat="35.874189550" lon="-106.510849840">
        <ele>2639.700</ele>
        <time>2019-07-14T21:45:34Z</time>
      </trkpt>
      <trkpt lat="35.874240240" lon="-106.510807140">
        <ele>2640.900</ele>
        <time>2019-07-14T21:45:35Z</time>
      </trkpt>
      <trkpt lat="35.874279040" lon="-106.510746930">
        <ele>2641.700</ele>
        <time>2019-07-14T21:45:36Z</time>
      </trkpt>
      <trkpt lat="35.874314020" lon="-106.510706850">
        <ele>2643.400</ele>
        <time>2019-07-14T21:45:37Z</time>
      </trkpt>
      <trkpt lat="35.874365660" lon="-106.510664530">
        <ele>2642.800</ele>
        <time>2019-07-14T21:45:38Z</time>
      </trkpt>
      <trkpt lat="35.874411740" lon="-106.510607580">
        <ele>2642.200</ele>
        <time>2019-07-14T21:45:39Z</time>
      </trkpt>
      <trkpt lat="35.874459740" lon="-106.510549800">
        <ele>2644.400</ele>
        <time>2019-07-14T21:45:40Z</time>
      </trkpt>
      <trkpt lat="35.874520540" lon="-106.510500110">
        <ele>2643.700</ele>
        <time>2019-07-14T21:45:41Z</time>
      </trkpt>
      <trkpt lat="35.874571810" lon="-106.510450020">
        <ele>2643.100</ele>
        <time>2019-07-14T21:45:42Z</time>
      </trkpt>
      <trkpt lat="35.874624790" lon="-106.510425780">
        <ele>2642.400</ele>
        <time>2019-07-14T21:45:43Z</time>
      </trkpt>
      <trkpt lat="35.874685190" lon="-106.510414990">
        <ele>2640.000</ele>
        <time>2019-07-14T21:45:44Z</time>
      </trkpt>
      <trkpt lat="35.874741790" lon="-106.510391620">
        <ele>2641.700</ele>
        <time>2019-07-14T21:45:45Z</time>
      </trkpt>
      <trkpt lat="35.874807620" lon="-106.510355150">
        <ele>2641.900</ele>
        <time>2019-07-14T21:45:46Z</time>
      </trkpt>
      <trkpt lat="35.874859910" lon="-106.510326880">
        <ele>2643.100</ele>
        <time>2019-07-14T21:45:47Z</time>
      </trkpt>
      <trkpt lat="35.874918260" lon="-106.510298230">
        <ele>2643.500</ele>
        <time>2019-07-14T21:45:48Z</time>
      </trkpt>
      <trkpt lat="35.874969580" lon="-106.510259650">
        <ele>2644.700</ele>
        <time>2019-07-14T21:45:49Z</time>
      </trkpt>
      <trkpt lat="35.875026330" lon="-106.510221080">
        <ele>2644.600</ele>
        <time>2019-07-14T21:45:50Z</time>
      </trkpt>
      <trkpt lat="35.875091880" lon="-106.510168710">
        <ele>2645.800</ele>
        <time>2019-07-14T21:45:51Z</time>
      </trkpt>
      <trkpt lat="35.875144320" lon="-106.510118980">
        <ele>2646.800</ele>
        <time>2019-07-14T21:45:52Z</time>
      </trkpt>
      <trkpt lat="35.875196830" lon="-106.510066540">
        <ele>2647.900</ele>
        <time>2019-07-14T21:45:53Z</time>
      </trkpt>
      <trkpt lat="35.875237830" lon="-106.510008200">
        <ele>2651.200</ele>
        <time>2019-07-14T21:45:54Z</time>
      </trkpt>
      <trkpt lat="35.875290300" lon="-106.509961600">
        <ele>2651.900</ele>
        <time>2019-07-14T21:45:55Z</time>
      </trkpt>
      <trkpt lat="35.875360320" lon="-106.509916630">
        <ele>2652.500</ele>
        <time>2019-07-14T21:45:56Z</time>
      </trkpt>
      <trkpt lat="35.875420140" lon="-106.509877050">
        <ele>2653.900</ele>
        <time>2019-07-14T21:45:57Z</time>
      </trkpt>
      <trkpt lat="35.875481090" lon="-106.509838190">
        <ele>2654.300</ele>
        <time>2019-07-14T21:45:58Z</time>
      </trkpt>
      <trkpt lat="35.875542640" lon="-106.509806740">
        <ele>2654.400</ele>
        <time>2019-07-14T21:45:59Z</time>
      </trkpt>
      <trkpt lat="35.875608410" lon="-106.509766800">
        <ele>2655.200</ele>
        <time>2019-07-14T21:46:00Z</time>
      </trkpt>
      <trkpt lat="35.875677180" lon="-106.509740000">
        <ele>2654.100</ele>
        <time>2019-07-14T21:46:01Z</time>
      </trkpt>
      <trkpt lat="35.875750840" lon="-106.509704090">
        <ele>2632.200</ele>
        <time>2019-07-14T21:46:02Z</time>
      </trkpt>
      <trkpt lat="35.875803670" lon="-106.509664120">
        <ele>2636.400</ele>
        <time>2019-07-14T21:46:03Z</time>
      </trkpt>
      <trkpt lat="35.875875970" lon="-106.509608620">
        <ele>2636.300</ele>
        <time>2019-07-14T21:46:04Z</time>
      </trkpt>
      <trkpt lat="35.875947680" lon="-106.509562380">
        <ele>2640.000</ele>
        <time>2019-07-14T21:46:05Z</time>
      </trkpt>
      <trkpt lat="35.876006500" lon="-106.509513950">
        <ele>2643.000</ele>
        <time>2019-07-14T21:46:06Z</time>
      </trkpt>
      <trkpt lat="35.876054450" lon="-106.509480240">
        <ele>2644.500</ele>
        <time>2019-07-14T21:46:07Z</time>
      </trkpt>
      <trkpt lat="35.876101720" lon="-106.509439580">
        <ele>2644.700</ele>
        <time>2019-07-14T21:46:08Z</time>
      </trkpt>
      <trkpt lat="35.876140760" lon="-106.509338160">
        <ele>2648.500</ele>
        <time>2019-07-14T21:46:09Z</time>
      </trkpt>
      <trkpt lat="35.876179030" lon="-106.509253720">
        <ele>2649.000</ele>
        <time>2019-07-14T21:46:10Z</time>
      </trkpt>
      <trkpt lat="35.876179980" lon="-106.509155590">
        <ele>2649.900</ele>
        <time>2019-07-14T21:46:11Z</time>
      </trkpt>
      <trkpt lat="35.876199120" lon="-106.509071050">
        <ele>2649.700</ele>
        <time>2019-07-14T21:46:12Z</time>
      </trkpt>
      <trkpt lat="35.876201860" lon="-106.508948630">
        <ele>2649.000</ele>
        <time>2019-07-14T21:46:13Z</time>
      </trkpt>
      <trkpt lat="35.876196710" lon="-106.508852060">
        <ele>2650.100</ele>
        <time>2019-07-14T21:46:14Z</time>
      </trkpt>
      <trkpt lat="35.876208630" lon="-106.508771630">
        <ele>2651.600</ele>
        <time>2019-07-14T21:46:15Z</time>
      </trkpt>
      <trkpt lat="35.876201180" lon="-106.508653840">
        <ele>2653.200</ele>
        <time>2019-07-14T21:46:16Z</time>
      </trkpt>
      <trkpt lat="35.876204800" lon="-106.508565920">
        <ele>2653.000</ele>
        <time>2019-07-14T21:46:17Z</time>
      </trkpt>
      <trkpt lat="35.876217930" lon="-106.508501640">
        <ele>2653.300</ele>
        <time>2019-07-14T21:46:18Z</time>
      </trkpt>
      <trkpt lat="35.876232410" lon="-106.508416810">
        <ele>2653.200</ele>
        <time>2019-07-14T21:46:19Z</time>
      </trkpt>
      <trkpt lat="35.876254180" lon="-106.508333310">
        <ele>2654.300</ele>
        <time>2019-07-14T21:46:20Z</time>
      </trkpt>
      <trkpt lat="35.876284070" lon="-106.508244500">
        <ele>2655.500</ele>
        <time>2019-07-14T21:46:21Z</time>
      </trkpt>
      <trkpt lat="35.876316400" lon="-106.508157490">
        <ele>2655.900</ele>
        <time>2019-07-14T21:46:22Z</time>
      </trkpt>
      <trkpt lat="35.876359510" lon="-106.508085700">
        <ele>2654.600</ele>
        <time>2019-07-14T21:46:23Z</time>
      </trkpt>
      <trkpt lat="35.876396760" lon="-106.508020590">
        <ele>2653.000</ele>
        <time>2019-07-14T21:46:24Z</time>
      </trkpt>
      <trkpt lat="35.876425980" lon="-106.507935540">
        <ele>2653.700</ele>
        <time>2019-07-14T21:46:25Z</time>
      </trkpt>
      <trkpt lat="35.876449710" lon="-106.507857980">
        <ele>2653.200</ele>
        <time>2019-07-14T21:46:26Z</time>
      </trkpt>
      <trkpt lat="35.876472910" lon="-106.507791220">
        <ele>2651.800</ele>
        <time>2019-07-14T21:46:27Z</time>
      </trkpt>
      <trkpt lat="35.876486700" lon="-106.507719990">
        <ele>2651.700</ele>
        <time>2019-07-14T21:46:28Z</time>
      </trkpt>
      <trkpt lat="35.876505810" lon="-106.507659300">
        <ele>2650.600</ele>
        <time>2019-07-14T21:46:29Z</time>
      </trkpt>
      <trkpt lat="35.876526250" lon="-106.507588780">
        <ele>2650.400</ele>
        <time>2019-07-14T21:46:30Z</time>
      </trkpt>
      <trkpt lat="35.876545490" lon="-106.507514510">
        <ele>2650.600</ele>
        <time>2019-07-14T21:46:31Z</time>
      </trkpt>
      <trkpt lat="35.876567610" lon="-106.507432100">
        <ele>2651.200</ele>
        <time>2019-07-14T21:46:32Z</time>
      </trkpt>
      <trkpt lat="35.876592510" lon="-106.507354260">
        <ele>2651.300</ele>
        <time>2019-07-14T21:46:33Z</time>
      </trkpt>
      <trkpt lat="35.876617290" lon="-106.507277340">
        <ele>2651.500</ele>
        <time>2019-07-14T21:46:34Z</time>
      </trkpt>
      <trkpt lat="35.876641050" lon="-106.507201410">
        <ele>2651.200</ele>
        <time>2019-07-14T21:46:35Z</time>
      </trkpt>
      <trkpt lat="35.876666170" lon="-106.507121690">
        <ele>2650.400</ele>
        <time>2019-07-14T21:46:36Z</time>
      </trkpt>
      <trkpt lat="35.876694090" lon="-106.507051530">
        <ele>2649.500</ele>
        <time>2019-07-14T21:46:37Z</time>
      </trkpt>
      <trkpt lat="35.876715500" lon="-106.506982850">
        <ele>2649.600</ele>
        <time>2019-07-14T21:46:38Z</time>
      </trkpt>
      <trkpt lat="35.876747450" lon="-106.506929760">
        <ele>2647.900</ele>
        <time>2019-07-14T21:46:39Z</time>
      </trkpt>
      <trkpt lat="35.876769170" lon="-106.506861340">
        <ele>2647.800</ele>
        <time>2019-07-14T21:46:40Z</time>
      </trkpt>
      <trkpt lat="35.876804850" lon="-106.506801830">
        <ele>2643.900</ele>
        <time>2019-07-14T21:46:41Z</time>
      </trkpt>
      <trkpt lat="35.876841370" lon="-106.506742100">
        <ele>2640.500</ele>
        <time>2019-07-14T21:46:42Z</time>
      </trkpt>
      <trkpt lat="35.876864740" lon="-106.506661170">
        <ele>2639.400</ele>
        <time>2019-07-14T21:46:43Z</time>
      </trkpt>
      <trkpt lat="35.876889900" lon="-106.506583810">
        <ele>2639.700</ele>
        <time>2019-07-14T21:46:44Z</time>
      </trkpt>
      <trkpt lat="35.876911100" lon="-106.506508460">
        <ele>2639.300</ele>
        <time>2019-07-14T21:46:45Z</time>
      </trkpt>
      <trkpt lat="35.876927330" lon="-106.506430260">
        <ele>2640.500</ele>
        <time>2019-07-14T21:46:46Z</time>
      </trkpt>
      <trkpt lat="35.876946330" lon="-106.506356440">
        <ele>2640.300</ele>
        <time>2019-07-14T21:46:47Z</time>
      </trkpt>
      <trkpt lat="35.876979490" lon="-106.506292560">
        <ele>2636.700</ele>
        <time>2019-07-14T21:46:48Z</time>
      </trkpt>
      <trkpt lat="35.877012210" lon="-106.506218030">
        <ele>2637.300</ele>
        <time>2019-07-14T21:46:49Z</time>
      </trkpt>
      <trkpt lat="35.877065620" lon="-106.506164370">
        <ele>2636.100</ele>
        <time>2019-07-14T21:46:50Z</time>
      </trkpt>
      <trkpt lat="35.877126040" lon="-106.506112500">
        <ele>2634.400</ele>
        <time>2019-07-14T21:46:51Z</time>
      </trkpt>
      <trkpt lat="35.877184790" lon="-106.506058670">
        <ele>2633.100</ele>
        <time>2019-07-14T21:46:52Z</time>
      </trkpt>
      <trkpt lat="35.877233690" lon="-106.505989510">
        <ele>2632.900</ele>
        <time>2019-07-14T21:46:53Z</time>
      </trkpt>
      <trkpt lat="35.877284070" lon="-106.505921360">
        <ele>2633.200</ele>
        <time>2019-07-14T21:46:54Z</time>
      </trkpt>
      <trkpt lat="35.877338480" lon="-106.505853080">
        <ele>2633.200</ele>
        <time>2019-07-14T21:46:55Z</time>
      </trkpt>
      <trkpt lat="35.877390490" lon="-106.505777530">
        <ele>2632.600</ele>
        <time>2019-07-14T21:46:56Z</time>
      </trkpt>
      <trkpt lat="35.877441570" lon="-106.505701130">
        <ele>2632.700</ele>
        <time>2019-07-14T21:46:57Z</time>
      </trkpt>
      <trkpt lat="35.877492440" lon="-106.505607570">
        <ele>2633.400</ele>
        <time>2019-07-14T21:46:58Z</time>
      </trkpt>
      <trkpt lat="35.877536170" lon="-106.505518650">
        <ele>2632.600</ele>
        <time>2019-07-14T21:46:59Z</time>
      </trkpt>
      <trkpt lat="35.877573060" lon="-106.505437060">
        <ele>2632.200</ele>
        <time>2019-07-14T21:47:00Z</time>
      </trkpt>
      <trkpt lat="35.877598100" lon="-106.505346640">
        <ele>2631.900</ele>
        <time>2019-07-14T21:47:01Z</time>
      </trkpt>
      <trkpt lat="35.877621190" lon="-106.505254140">
        <ele>2631.000</ele>
        <time>2019-07-14T21:47:02Z</time>
      </trkpt>
      <trkpt lat="35.877637890" lon="-106.505166100">
        <ele>2631.600</ele>
        <time>2019-07-14T21:47:03Z</time>
      </trkpt>
      <trkpt lat="35.877654160" lon="-106.505076910">
        <ele>2631.400</ele>
        <time>2019-07-14T21:47:04Z</time>
      </trkpt>
      <trkpt lat="35.877674000" lon="-106.504991340">
        <ele>2632.500</ele>
        <time>2019-07-14T21:47:05Z</time>
      </trkpt>
      <trkpt lat="35.877690520" lon="-106.504911320">
        <ele>2633.500</ele>
        <time>2019-07-14T21:47:06Z</time>
      </trkpt>
      <trkpt lat="35.877702780" lon="-106.504841320">
        <ele>2633.100</ele>
        <time>2019-07-14T21:47:07Z</time>
      </trkpt>
      <trkpt lat="35.877725420" lon="-106.504769810">
        <ele>2632.900</ele>
        <time>2019-07-14T21:47:08Z</time>
      </trkpt>
      <trkpt lat="35.877739610" lon="-106.504685370">
        <ele>2633.300</ele>
        <time>2019-07-14T21:47:09Z</time>
      </trkpt>
      <trkpt lat="35.877753950" lon="-106.504600870">
        <ele>2633.300</ele>
        <time>2019-07-14T21:47:10Z</time>
      </trkpt>
      <trkpt lat="35.877772330" lon="-106.504517930">
        <ele>2633.400</ele>
        <time>2019-07-14T21:47:11Z</time>
      </trkpt>
      <trkpt lat="35.877781970" lon="-106.504435490">
        <ele>2633.700</ele>
        <time>2019-07-14T21:47:12Z</time>
      </trkpt>
      <trkpt lat="35.877783820" lon="-106.504353860">
        <ele>2634.000</ele>
        <time>2019-07-14T21:47:13Z</time>
      </trkpt>
      <trkpt lat="35.877773940" lon="-106.504258250">
        <ele>2634.500</ele>
        <time>2019-07-14T21:47:14Z</time>
      </trkpt>
      <trkpt lat="35.877760890" lon="-106.504165700">
        <ele>2634.200</ele>
        <time>2019-07-14T21:47:15Z</time>
      </trkpt>
      <trkpt lat="35.877742990" lon="-106.504086550">
        <ele>2632.100</ele>
        <time>2019-07-14T21:47:16Z</time>
      </trkpt>
      <trkpt lat="35.877730670" lon="-106.503995860">
        <ele>2631.700</ele>
        <time>2019-07-14T21:47:17Z</time>
      </trkpt>
      <trkpt lat="35.877714800" lon="-106.503911400">
        <ele>2631.800</ele>
        <time>2019-07-14T21:47:18Z</time>
      </trkpt>
      <trkpt lat="35.877693130" lon="-106.503819310">
        <ele>2632.100</ele>
        <time>2019-07-14T21:47:19Z</time>
      </trkpt>
      <trkpt lat="35.877670490" lon="-106.503734270">
        <ele>2631.600</ele>
        <time>2019-07-14T21:47:20Z</time>
      </trkpt>
      <trkpt lat="35.877651190" lon="-106.503650740">
        <ele>2631.200</ele>
        <time>2019-07-14T21:47:21Z</time>
      </trkpt>
      <trkpt lat="35.877642010" lon="-106.503561230">
        <ele>2630.800</ele>
        <time>2019-07-14T21:47:22Z</time>
      </trkpt>
      <trkpt lat="35.877646300" lon="-106.503479390">
        <ele>2629.400</ele>
        <time>2019-07-14T21:47:23Z</time>
      </trkpt>
      <trkpt lat="35.877652600" lon="-106.503397380">
        <ele>2630.000</ele>
        <time>2019-07-14T21:47:24Z</time>
      </trkpt>
      <trkpt lat="35.877656370" lon="-106.503304630">
        <ele>2630.200</ele>
        <time>2019-07-14T21:47:25Z</time>
      </trkpt>
      <trkpt lat="35.877659560" lon="-106.503210600">
        <ele>2631.000</ele>
        <time>2019-07-14T21:47:26Z</time>
      </trkpt>
      <trkpt lat="35.877680420" lon="-106.503119490">
        <ele>2630.800</ele>
        <time>2019-07-14T21:47:27Z</time>
      </trkpt>
      <trkpt lat="35.877703780" lon="-106.503027360">
        <ele>2630.600</ele>
        <time>2019-07-14T21:47:28Z</time>
      </trkpt>
      <trkpt lat="35.877726420" lon="-106.502930460">
        <ele>2630.600</ele>
        <time>2019-07-14T21:47:29Z</time>
      </trkpt>
      <trkpt lat="35.877745390" lon="-106.502840980">
        <ele>2630.700</ele>
        <time>2019-07-14T21:47:30Z</time>
      </trkpt>
      <trkpt lat="35.877761780" lon="-106.502759180">
        <ele>2630.200</ele>
        <time>2019-07-14T21:47:31Z</time>
      </trkpt>
      <trkpt lat="35.877775240" lon="-106.502684990">
        <ele>2630.300</ele>
        <time>2019-07-14T21:47:32Z</time>
      </trkpt>
      <trkpt lat="35.877791970" lon="-106.502614420">
        <ele>2630.200</ele>
        <time>2019-07-14T21:47:33Z</time>
      </trkpt>
      <trkpt lat="35.877803220" lon="-106.502534490">
        <ele>2630.700</ele>
        <time>2019-07-14T21:47:34Z</time>
      </trkpt>
      <trkpt lat="35.877819640" lon="-106.502467090">
        <ele>2629.300</ele>
        <time>2019-07-14T21:47:35Z</time>
      </trkpt>
      <trkpt lat="35.877839800" lon="-106.502381220">
        <ele>2627.900</ele>
        <time>2019-07-14T21:47:36Z</time>
      </trkpt>
      <trkpt lat="35.877866330" lon="-106.502292400">
        <ele>2627.200</ele>
        <time>2019-07-14T21:47:37Z</time>
      </trkpt>
      <trkpt lat="35.877898570" lon="-106.502217320">
        <ele>2626.600</ele>
        <time>2019-07-14T21:47:38Z</time>
      </trkpt>
      <trkpt lat="35.877930080" lon="-106.502129260">
        <ele>2626.500</ele>
        <time>2019-07-14T21:47:39Z</time>
      </trkpt>
      <trkpt lat="35.877965730" lon="-106.502045360">
        <ele>2626.400</ele>
        <time>2019-07-14T21:47:40Z</time>
      </trkpt>
      <trkpt lat="35.878010060" lon="-106.501974400">
        <ele>2624.700</ele>
        <time>2019-07-14T21:47:41Z</time>
      </trkpt>
      <trkpt lat="35.878050690" lon="-106.501900340">
        <ele>2623.900</ele>
        <time>2019-07-14T21:47:42Z</time>
      </trkpt>
      <trkpt lat="35.878092090" lon="-106.501834150">
        <ele>2622.400</ele>
        <time>2019-07-14T21:47:43Z</time>
      </trkpt>
      <trkpt lat="35.878136190" lon="-106.501761930">
        <ele>2620.700</ele>
        <time>2019-07-14T21:47:44Z</time>
      </trkpt>
      <trkpt lat="35.878172250" lon="-106.501691070">
        <ele>2619.900</ele>
        <time>2019-07-14T21:47:45Z</time>
      </trkpt>
      <trkpt lat="35.878213200" lon="-106.501613960">
        <ele>2619.400</ele>
        <time>2019-07-14T21:47:46Z</time>
      </trkpt>
      <trkpt lat="35.878254410" lon="-106.501539270">
        <ele>2619.300</ele>
        <time>2019-07-14T21:47:47Z</time>
      </trkpt>
      <trkpt lat="35.878303460" lon="-106.501454660">
        <ele>2619.100</ele>
        <time>2019-07-14T21:47:48Z</time>
      </trkpt>
      <trkpt lat="35.878352820" lon="-106.501375790">
        <ele>2618.900</ele>
        <time>2019-07-14T21:47:49Z</time>
      </trkpt>
      <trkpt lat="35.878397840" lon="-106.501303860">
        <ele>2618.500</ele>
        <time>2019-07-14T21:47:50Z</time>
      </trkpt>
      <trkpt lat="35.878444570" lon="-106.501225540">
        <ele>2618.300</ele>
        <time>2019-07-14T21:47:51Z</time>
      </trkpt>
      <trkpt lat="35.878495380" lon="-106.501145150">
        <ele>2617.900</ele>
        <time>2019-07-14T21:47:52Z</time>
      </trkpt>
      <trkpt lat="35.878547320" lon="-106.501059170">
        <ele>2617.900</ele>
        <time>2019-07-14T21:47:53Z</time>
      </trkpt>
      <trkpt lat="35.878595720" lon="-106.500977040">
        <ele>2618.500</ele>
        <time>2019-07-14T21:47:54Z</time>
      </trkpt>
      <trkpt lat="35.878647570" lon="-106.500907510">
        <ele>2617.600</ele>
        <time>2019-07-14T21:47:55Z</time>
      </trkpt>
      <trkpt lat="35.878700980" lon="-106.500834860">
        <ele>2616.900</ele>
        <time>2019-07-14T21:47:56Z</time>
      </trkpt>
      <trkpt lat="35.878748700" lon="-106.500760350">
        <ele>2616.900</ele>
        <time>2019-07-14T21:47:57Z</time>
      </trkpt>
      <trkpt lat="35.878793710" lon="-106.500690870">
        <ele>2617.000</ele>
        <time>2019-07-14T21:47:58Z</time>
      </trkpt>
      <trkpt lat="35.878839370" lon="-106.500619300">
        <ele>2617.200</ele>
        <time>2019-07-14T21:47:59Z</time>
      </trkpt>
      <trkpt lat="35.878890180" lon="-106.500549440">
        <ele>2617.500</ele>
        <time>2019-07-14T21:48:00Z</time>
      </trkpt>
      <trkpt lat="35.878941490" lon="-106.500481170">
        <ele>2617.300</ele>
        <time>2019-07-14T21:48:01Z</time>
      </trkpt>
      <trkpt lat="35.878996770" lon="-106.500419650">
        <ele>2617.600</ele>
        <time>2019-07-14T21:48:02Z</time>
      </trkpt>
      <trkpt lat="35.879054890" lon="-106.500371400">
        <ele>2616.500</ele>
        <time>2019-07-14T21:48:03Z</time>
      </trkpt>
      <trkpt lat="35.879111910" lon="-106.500339160">
        <ele>2615.500</ele>
        <time>2019-07-14T21:48:04Z</time>
      </trkpt>
      <trkpt lat="35.879160370" lon="-106.500290320">
        <ele>2614.900</ele>
        <time>2019-07-14T21:48:05Z</time>
      </trkpt>
      <trkpt lat="35.879203140" lon="-106.500227360">
        <ele>2615.200</ele>
        <time>2019-07-14T21:48:06Z</time>
      </trkpt>
      <trkpt lat="35.879249540" lon="-106.500180460">
        <ele>2615.700</ele>
        <time>2019-07-14T21:48:07Z</time>
      </trkpt>
      <trkpt lat="35.879294170" lon="-106.500123470">
        <ele>2614.700</ele>
        <time>2019-07-14T21:48:08Z</time>
      </trkpt>
      <trkpt lat="35.879331430" lon="-106.500055940">
        <ele>2615.000</ele>
        <time>2019-07-14T21:48:09Z</time>
      </trkpt>
      <trkpt lat="35.879373410" lon="-106.499983790">
        <ele>2616.500</ele>
        <time>2019-07-14T21:48:10Z</time>
      </trkpt>
      <trkpt lat="35.879399110" lon="-106.499932990">
        <ele>2616.400</ele>
        <time>2019-07-14T21:48:11Z</time>
      </trkpt>
      <trkpt lat="35.879433630" lon="-106.499892030">
        <ele>2616.300</ele>
        <time>2019-07-14T21:48:12Z</time>
      </trkpt>
      <trkpt lat="35.879475200" lon="-106.499828090">
        <ele>2616.200</ele>
        <time>2019-07-14T21:48:13Z</time>
      </trkpt>
      <trkpt lat="35.879514650" lon="-106.499768710">
        <ele>2616.100</ele>
        <time>2019-07-14T21:48:14Z</time>
      </trkpt>
      <trkpt lat="35.879551430" lon="-106.499700470">
        <ele>2616.200</ele>
        <time>2019-07-14T21:48:15Z</time>
      </trkpt>
      <trkpt lat="35.879585750" lon="-106.499631140">
        <ele>2616.600</ele>
        <time>2019-07-14T21:48:16Z</time>
      </trkpt>
      <trkpt lat="35.879621940" lon="-106.499567400">
        <ele>2616.100</ele>
        <time>2019-07-14T21:48:17Z</time>
      </trkpt>
      <trkpt lat="35.879666360" lon="-106.499502750">
        <ele>2616.400</ele>
        <time>2019-07-14T21:48:18Z</time>
      </trkpt>
      <trkpt lat="35.879707920" lon="-106.499447650">
        <ele>2614.800</ele>
        <time>2019-07-14T21:48:19Z</time>
      </trkpt>
      <trkpt lat="35.879756080" lon="-106.499377820">
        <ele>2614.900</ele>
        <time>2019-07-14T21:48:20Z</time>
      </trkpt>
      <trkpt lat="35.879803080" lon="-106.499320510">
        <ele>2614.400</ele>
        <time>2019-07-14T21:48:21Z</time>
      </trkpt>
      <trkpt lat="35.879857450" lon="-106.499257260">
        <ele>2614.100</ele>
        <time>2019-07-14T21:48:22Z</time>
      </trkpt>
      <trkpt lat="35.879914310" lon="-106.499197930">
        <ele>2614.100</ele>
        <time>2019-07-14T21:48:23Z</time>
      </trkpt>
      <trkpt lat="35.879970980" lon="-106.499140940">
        <ele>2613.300</ele>
        <time>2019-07-14T21:48:24Z</time>
      </trkpt>
      <trkpt lat="35.880028900" lon="-106.499082320">
        <ele>2612.900</ele>
        <time>2019-07-14T21:48:25Z</time>
      </trkpt>
      <trkpt lat="35.880082790" lon="-106.499017600">
        <ele>2613.200</ele>
        <time>2019-07-14T21:48:26Z</time>
      </trkpt>
      <trkpt lat="35.880141400" lon="-106.498958610">
        <ele>2612.000</ele>
        <time>2019-07-14T21:48:27Z</time>
      </trkpt>
      <trkpt lat="35.880192120" lon="-106.498880090">
        <ele>2612.300</ele>
        <time>2019-07-14T21:48:28Z</time>
      </trkpt>
      <trkpt lat="35.880246130" lon="-106.498806220">
        <ele>2612.000</ele>
        <time>2019-07-14T21:48:29Z</time>
      </trkpt>
      <trkpt lat="35.880300070" lon="-106.498722690">
        <ele>2611.500</ele>
        <time>2019-07-14T21:48:30Z</time>
      </trkpt>
      <trkpt lat="35.880352160" lon="-106.498634210">
        <ele>2612.100</ele>
        <time>2019-07-14T21:48:31Z</time>
      </trkpt>
      <trkpt lat="35.880408390" lon="-106.498552160">
        <ele>2612.400</ele>
        <time>2019-07-14T21:48:32Z</time>
      </trkpt>
      <trkpt lat="35.880461780" lon="-106.498470160">
        <ele>2612.800</ele>
        <time>2019-07-14T21:48:33Z</time>
      </trkpt>
      <trkpt lat="35.880521390" lon="-106.498390610">
        <ele>2612.200</ele>
        <time>2019-07-14T21:48:34Z</time>
      </trkpt>
      <trkpt lat="35.880579010" lon="-106.498308200">
        <ele>2612.500</ele>
        <time>2019-07-14T21:48:35Z</time>
      </trkpt>
      <trkpt lat="35.880636650" lon="-106.498231450">
        <ele>2612.100</ele>
        <time>2019-07-14T21:48:36Z</time>
      </trkpt>
      <trkpt lat="35.880683800" lon="-106.498150660">
        <ele>2612.700</ele>
        <time>2019-07-14T21:48:37Z</time>
      </trkpt>
      <trkpt lat="35.880736790" lon="-106.498068040">
        <ele>2612.500</ele>
        <time>2019-07-14T21:48:38Z</time>
      </trkpt>
      <trkpt lat="35.880781370" lon="-106.497997850">
        <ele>2612.600</ele>
        <time>2019-07-14T21:48:39Z</time>
      </trkpt>
      <trkpt lat="35.880829960" lon="-106.497905320">
        <ele>2613.000</ele>
        <time>2019-07-14T21:48:40Z</time>
      </trkpt>
      <trkpt lat="35.880877760" lon="-106.497825640">
        <ele>2614.200</ele>
        <time>2019-07-14T21:48:41Z</time>
      </trkpt>
      <trkpt lat="35.880924060" lon="-106.497745600">
        <ele>2615.500</ele>
        <time>2019-07-14T21:48:42Z</time>
      </trkpt>
      <trkpt lat="35.880972440" lon="-106.497667100">
        <ele>2616.000</ele>
        <time>2019-07-14T21:48:43Z</time>
      </trkpt>
      <trkpt lat="35.881023980" lon="-106.497589650">
        <ele>2616.000</ele>
        <time>2019-07-14T21:48:44Z</time>
      </trkpt>
      <trkpt lat="35.881078120" lon="-106.497510330">
        <ele>2617.200</ele>
        <time>2019-07-14T21:48:45Z</time>
      </trkpt>
      <trkpt lat="35.881132990" lon="-106.497435280">
        <ele>2617.300</ele>
        <time>2019-07-14T21:48:46Z</time>
      </trkpt>
      <trkpt lat="35.881187920" lon="-106.497356060">
        <ele>2617.500</ele>
        <time>2019-07-14T21:48:47Z</time>
      </trkpt>
      <trkpt lat="35.881246310" lon="-106.497285200">
        <ele>2617.700</ele>
        <time>2019-07-14T21:48:48Z</time>
      </trkpt>
      <trkpt lat="35.881297220" lon="-106.497203460">
        <ele>2617.900</ele>
        <time>2019-07-14T21:48:49Z</time>
      </trkpt>
      <trkpt lat="35.881356700" lon="-106.497131250">
        <ele>2617.700</ele>
        <time>2019-07-14T21:48:50Z</time>
      </trkpt>
      <trkpt lat="35.881418660" lon="-106.497057500">
        <ele>2617.300</ele>
        <time>2019-07-14T21:48:51Z</time>
      </trkpt>
      <trkpt lat="35.881478930" lon="-106.496979570">
        <ele>2616.400</ele>
        <time>2019-07-14T21:48:52Z</time>
      </trkpt>
      <trkpt lat="35.881541230" lon="-106.496899350">
        <ele>2616.300</ele>
        <time>2019-07-14T21:48:53Z</time>
      </trkpt>
      <trkpt lat="35.881605160" lon="-106.496812290">
        <ele>2616.700</ele>
        <time>2019-07-14T21:48:54Z</time>
      </trkpt>
      <trkpt lat="35.881669880" lon="-106.496730790">
        <ele>2616.600</ele>
        <time>2019-07-14T21:48:55Z</time>
      </trkpt>
      <trkpt lat="35.881737440" lon="-106.496660240">
        <ele>2616.100</ele>
        <time>2019-07-14T21:48:56Z</time>
      </trkpt>
      <trkpt lat="35.881803570" lon="-106.496589150">
        <ele>2616.100</ele>
        <time>2019-07-14T21:48:57Z</time>
      </trkpt>
      <trkpt lat="35.881874260" lon="-106.496518470">
        <ele>2615.300</ele>
        <time>2019-07-14T21:48:58Z</time>
      </trkpt>
      <trkpt lat="35.881940080" lon="-106.496453620">
        <ele>2615.600</ele>
        <time>2019-07-14T21:48:59Z</time>
      </trkpt>
      <trkpt lat="35.882014050" lon="-106.496384200">
        <ele>2616.000</ele>
        <time>2019-07-14T21:49:00Z</time>
      </trkpt>
      <trkpt lat="35.882087860" lon="-106.496314470">
        <ele>2615.500</ele>
        <time>2019-07-14T21:49:01Z</time>
      </trkpt>
      <trkpt lat="35.882165420" lon="-106.496239030">
        <ele>2615.400</ele>
        <time>2019-07-14T21:49:02Z</time>
      </trkpt>
      <trkpt lat="35.882243340" lon="-106.496171480">
        <ele>2614.700</ele>
        <time>2019-07-14T21:49:03Z</time>
      </trkpt>
      <trkpt lat="35.882317770" lon="-106.496101020">
        <ele>2614.800</ele>
        <time>2019-07-14T21:49:04Z</time>
      </trkpt>
      <trkpt lat="35.882390190" lon="-106.496028150">
        <ele>2614.800</ele>
        <time>2019-07-14T21:49:05Z</time>
      </trkpt>
      <trkpt lat="35.882463290" lon="-106.495955170">
        <ele>2615.100</ele>
        <time>2019-07-14T21:49:06Z</time>
      </trkpt>
      <trkpt lat="35.882547070" lon="-106.495884770">
        <ele>2614.700</ele>
        <time>2019-07-14T21:49:07Z</time>
      </trkpt>
      <trkpt lat="35.882620120" lon="-106.495821040">
        <ele>2614.000</ele>
        <time>2019-07-14T21:49:08Z</time>
      </trkpt>
      <trkpt lat="35.882688730" lon="-106.495747020">
        <ele>2614.100</ele>
        <time>2019-07-14T21:49:09Z</time>
      </trkpt>
      <trkpt lat="35.882757900" lon="-106.495678450">
        <ele>2614.100</ele>
        <time>2019-07-14T21:49:10Z</time>
      </trkpt>
      <trkpt lat="35.882828670" lon="-106.495609920">
        <ele>2613.800</ele>
        <time>2019-07-14T21:49:11Z</time>
      </trkpt>
      <trkpt lat="35.882899400" lon="-106.495545030">
        <ele>2613.600</ele>
        <time>2019-07-14T21:49:12Z</time>
      </trkpt>
      <trkpt lat="35.882965800" lon="-106.495469710">
        <ele>2614.300</ele>
        <time>2019-07-14T21:49:13Z</time>
      </trkpt>
      <trkpt lat="35.883034190" lon="-106.495401560">
        <ele>2614.600</ele>
        <time>2019-07-14T21:49:14Z</time>
      </trkpt>
      <trkpt lat="35.883094160" lon="-106.495337490">
        <ele>2614.500</ele>
        <time>2019-07-14T21:49:15Z</time>
      </trkpt>
      <trkpt lat="35.883161960" lon="-106.495281930">
        <ele>2614.400</ele>
        <time>2019-07-14T21:49:16Z</time>
      </trkpt>
      <trkpt lat="35.883228140" lon="-106.495212260">
        <ele>2615.000</ele>
        <time>2019-07-14T21:49:17Z</time>
      </trkpt>
      <trkpt lat="35.883290130" lon="-106.495139340">
        <ele>2615.600</ele>
        <time>2019-07-14T21:49:18Z</time>
      </trkpt>
      <trkpt lat="35.883363060" lon="-106.495068510">
        <ele>2616.200</ele>
        <time>2019-07-14T21:49:19Z</time>
      </trkpt>
      <trkpt lat="35.883430470" lon="-106.495003410">
        <ele>2617.000</ele>
        <time>2019-07-14T21:49:20Z</time>
      </trkpt>
      <trkpt lat="35.883503430" lon="-106.494946030">
        <ele>2617.400</ele>
        <time>2019-07-14T21:49:21Z</time>
      </trkpt>
      <trkpt lat="35.883584260" lon="-106.494899730">
        <ele>2616.900</ele>
        <time>2019-07-14T21:49:22Z</time>
      </trkpt>
      <trkpt lat="35.883652180" lon="-106.494843240">
        <ele>2617.100</ele>
        <time>2019-07-14T21:49:23Z</time>
      </trkpt>
      <trkpt lat="35.883713170" lon="-106.494804430">
        <ele>2618.300</ele>
        <time>2019-07-14T21:49:24Z</time>
      </trkpt>
      <trkpt lat="35.883780440" lon="-106.494752850">
        <ele>2617.900</ele>
        <time>2019-07-14T21:49:25Z</time>
      </trkpt>
      <trkpt lat="35.883839280" lon="-106.494727060">
        <ele>2618.200</ele>
        <time>2019-07-14T21:49:26Z</time>
      </trkpt>
      <trkpt lat="35.883905980" lon="-106.494695890">
        <ele>2617.400</ele>
        <time>2019-07-14T21:49:27Z</time>
      </trkpt>
      <trkpt lat="35.883960180" lon="-106.494648540">
        <ele>2620.000</ele>
        <time>2019-07-14T21:49:28Z</time>
      </trkpt>
      <trkpt lat="35.884031680" lon="-106.494642390">
        <ele>2619.900</ele>
        <time>2019-07-14T21:49:29Z</time>
      </trkpt>
      <trkpt lat="35.884097460" lon="-106.494614710">
        <ele>2619.600</ele>
        <time>2019-07-14T21:49:30Z</time>
      </trkpt>
      <trkpt lat="35.884163110" lon="-106.494596410">
        <ele>2620.300</ele>
        <time>2019-07-14T21:49:31Z</time>
      </trkpt>
      <trkpt lat="35.884247780" lon="-106.494587280">
        <ele>2617.500</ele>
        <time>2019-07-14T21:49:32Z</time>
      </trkpt>
      <trkpt lat="35.884312670" lon="-106.494592350">
        <ele>2616.800</ele>
        <time>2019-07-14T21:49:33Z</time>
      </trkpt>
      <trkpt lat="35.884373570" lon="-106.494586460">
        <ele>2617.200</ele>
        <time>2019-07-14T21:49:34Z</time>
      </trkpt>
      <trkpt lat="35.884441720" lon="-106.494575000">
        <ele>2617.100</ele>
        <time>2019-07-14T21:49:35Z</time>
      </trkpt>
      <trkpt lat="35.884504160" lon="-106.494622240">
        <ele>2617.300</ele>
        <time>2019-07-14T21:49:36Z</time>
      </trkpt>
      <trkpt lat="35.884545580" lon="-106.494697910">
        <ele>2620.100</ele>
        <time>2019-07-14T21:49:37Z</time>
      </trkpt>
      <trkpt lat="35.884607650" lon="-106.494739770">
        <ele>2620.900</ele>
        <time>2019-07-14T21:49:38Z</time>
      </trkpt>
      <trkpt lat="35.884645200" lon="-106.494806460">
        <ele>2619.900</ele>
        <time>2019-07-14T21:49:39Z</time>
      </trkpt>
      <trkpt lat="35.884700140" lon="-106.494889110">
        <ele>2618.800</ele>
        <time>2019-07-14T21:49:40Z</time>
      </trkpt>
      <trkpt lat="35.884744900" lon="-106.494973810">
        <ele>2619.000</ele>
        <time>2019-07-14T21:49:41Z</time>
      </trkpt>
      <trkpt lat="35.884786050" lon="-106.495048330">
        <ele>2619.400</ele>
        <time>2019-07-14T21:49:42Z</time>
      </trkpt>
      <trkpt lat="35.884804610" lon="-106.495122510">
        <ele>2620.500</ele>
        <time>2019-07-14T21:49:43Z</time>
      </trkpt>
      <trkpt lat="35.884817880" lon="-106.495211570">
        <ele>2620.700</ele>
        <time>2019-07-14T21:49:44Z</time>
      </trkpt>
      <trkpt lat="35.884837530" lon="-106.495311170">
        <ele>2619.800</ele>
        <time>2019-07-14T21:49:45Z</time>
      </trkpt>
      <trkpt lat="35.884857470" lon="-106.495397450">
        <ele>2618.900</ele>
        <time>2019-07-14T21:49:46Z</time>
      </trkpt>
      <trkpt lat="35.884882070" lon="-106.495480700">
        <ele>2619.800</ele>
        <time>2019-07-14T21:49:47Z</time>
      </trkpt>
      <trkpt lat="35.884905580" lon="-106.495558160">
        <ele>2620.700</ele>
        <time>2019-07-14T21:49:48Z</time>
      </trkpt>
      <trkpt lat="35.884932600" lon="-106.495632030">
        <ele>2622.000</ele>
        <time>2019-07-14T21:49:49Z</time>
      </trkpt>
      <trkpt lat="35.884960870" lon="-106.495698320">
        <ele>2622.000</ele>
        <time>2019-07-14T21:49:50Z</time>
      </trkpt>
      <trkpt lat="35.884990630" lon="-106.495760710">
        <ele>2620.300</ele>
        <time>2019-07-14T21:49:51Z</time>
      </trkpt>
      <trkpt lat="35.885015740" lon="-106.495803200">
        <ele>2622.500</ele>
        <time>2019-07-14T21:49:52Z</time>
      </trkpt>
      <trkpt lat="35.885049130" lon="-106.495845550">
        <ele>2622.500</ele>
        <time>2019-07-14T21:49:53Z</time>
      </trkpt>
      <trkpt lat="35.885089340" lon="-106.495890190">
        <ele>2622.600</ele>
        <time>2019-07-14T21:49:54Z</time>
      </trkpt>
      <trkpt lat="35.885122530" lon="-106.495924140">
        <ele>2622.500</ele>
        <time>2019-07-14T21:49:55Z</time>
      </trkpt>
      <trkpt lat="35.885157070" lon="-106.495967020">
        <ele>2623.100</ele>
        <time>2019-07-14T21:49:56Z</time>
      </trkpt>
      <trkpt lat="35.885201420" lon="-106.496012590">
        <ele>2622.800</ele>
        <time>2019-07-14T21:49:57Z</time>
      </trkpt>
      <trkpt lat="35.885238930" lon="-106.496048550">
        <ele>2623.300</ele>
        <time>2019-07-14T21:49:58Z</time>
      </trkpt>
      <trkpt lat="35.885283270" lon="-106.496084380">
        <ele>2623.500</ele>
        <time>2019-07-14T21:49:59Z</time>
      </trkpt>
      <trkpt lat="35.885337510" lon="-106.496120770">
        <ele>2623.700</ele>
        <time>2019-07-14T21:50:00Z</time>
      </trkpt>
      <trkpt lat="35.885386290" lon="-106.496146700">
        <ele>2624.100</ele>
        <time>2019-07-14T21:50:01Z</time>
      </trkpt>
      <trkpt lat="35.885443400" lon="-106.496178880">
        <ele>2624.400</ele>
        <time>2019-07-14T21:50:02Z</time>
      </trkpt>
      <trkpt lat="35.885511450" lon="-106.496206580">
        <ele>2624.400</ele>
        <time>2019-07-14T21:50:03Z</time>
      </trkpt>
      <trkpt lat="35.885583600" lon="-106.496236500">
        <ele>2624.600</ele>
        <time>2019-07-14T21:50:04Z</time>
      </trkpt>
      <trkpt lat="35.885648830" lon="-106.496271250">
        <ele>2624.000</ele>
        <time>2019-07-14T21:50:05Z</time>
      </trkpt>
      <trkpt lat="35.885711040" lon="-106.496302890">
        <ele>2624.600</ele>
        <time>2019-07-14T21:50:06Z</time>
      </trkpt>
      <trkpt lat="35.885782040" lon="-106.496338590">
        <ele>2625.000</ele>
        <time>2019-07-14T21:50:07Z</time>
      </trkpt>
      <trkpt lat="35.885860260" lon="-106.496361580">
        <ele>2625.900</ele>
        <time>2019-07-14T21:50:08Z</time>
      </trkpt>
      <trkpt lat="35.885932310" lon="-106.496386190">
        <ele>2626.300</ele>
        <time>2019-07-14T21:50:09Z</time>
      </trkpt>
      <trkpt lat="35.885989660" lon="-106.496407690">
        <ele>2627.200</ele>
        <time>2019-07-14T21:50:10Z</time>
      </trkpt>
      <trkpt lat="35.886050250" lon="-106.496430310">
        <ele>2627.100</ele>
        <time>2019-07-14T21:50:11Z</time>
      </trkpt>
      <trkpt lat="35.886123390" lon="-106.496444340">
        <ele>2627.600</ele>
        <time>2019-07-14T21:50:12Z</time>
      </trkpt>
      <trkpt lat="35.886192850" lon="-106.496452700">
        <ele>2628.500</ele>
        <time>2019-07-14T21:50:13Z</time>
      </trkpt>
      <trkpt lat="35.886252930" lon="-106.496456290">
        <ele>2629.000</ele>
        <time>2019-07-14T21:50:14Z</time>
      </trkpt>
      <trkpt lat="35.886320650" lon="-106.496469210">
        <ele>2628.600</ele>
        <time>2019-07-14T21:50:15Z</time>
      </trkpt>
      <trkpt lat="35.886391880" lon="-106.496488550">
        <ele>2626.500</ele>
        <time>2019-07-14T21:50:16Z</time>
      </trkpt>
      <trkpt lat="35.886472170" lon="-106.496487350">
        <ele>2626.500</ele>
        <time>2019-07-14T21:50:17Z</time>
      </trkpt>
      <trkpt lat="35.886548190" lon="-106.496486140">
        <ele>2627.500</ele>
        <time>2019-07-14T21:50:18Z</time>
      </trkpt>
      <trkpt lat="35.886623270" lon="-106.496502950">
        <ele>2627.300</ele>
        <time>2019-07-14T21:50:19Z</time>
      </trkpt>
      <trkpt lat="35.886704270" lon="-106.496527540">
        <ele>2627.500</ele>
        <time>2019-07-14T21:50:20Z</time>
      </trkpt>
      <trkpt lat="35.886783610" lon="-106.496565120">
        <ele>2628.300</ele>
        <time>2019-07-14T21:50:21Z</time>
      </trkpt>
      <trkpt lat="35.886866930" lon="-106.496603620">
        <ele>2628.500</ele>
        <time>2019-07-14T21:50:22Z</time>
      </trkpt>
      <trkpt lat="35.886944850" lon="-106.496657970">
        <ele>2628.400</ele>
        <time>2019-07-14T21:50:23Z</time>
      </trkpt>
      <trkpt lat="35.887011310" lon="-106.496716860">
        <ele>2629.400</ele>
        <time>2019-07-14T21:50:24Z</time>
      </trkpt>
      <trkpt lat="35.887077350" lon="-106.496775180">
        <ele>2629.500</ele>
        <time>2019-07-14T21:50:25Z</time>
      </trkpt>
      <trkpt lat="35.887145350" lon="-106.496836550">
        <ele>2629.600</ele>
        <time>2019-07-14T21:50:26Z</time>
      </trkpt>
      <trkpt lat="35.887219630" lon="-106.496882950">
        <ele>2629.800</ele>
        <time>2019-07-14T21:50:27Z</time>
      </trkpt>
      <trkpt lat="35.887281910" lon="-106.496931590">
        <ele>2630.100</ele>
        <time>2019-07-14T21:50:28Z</time>
      </trkpt>
      <trkpt lat="35.887340710" lon="-106.496977160">
        <ele>2630.700</ele>
        <time>2019-07-14T21:50:29Z</time>
      </trkpt>
      <trkpt lat="35.887401280" lon="-106.497027500">
        <ele>2631.000</ele>
        <time>2019-07-14T21:50:30Z</time>
      </trkpt>
      <trkpt lat="35.887466060" lon="-106.497076330">
        <ele>2630.200</ele>
        <time>2019-07-14T21:50:31Z</time>
      </trkpt>
      <trkpt lat="35.887525400" lon="-106.497131100">
        <ele>2630.900</ele>
        <time>2019-07-14T21:50:32Z</time>
      </trkpt>
      <trkpt lat="35.887573500" lon="-106.497184580">
        <ele>2631.600</ele>
        <time>2019-07-14T21:50:33Z</time>
      </trkpt>
      <trkpt lat="35.887631720" lon="-106.497233340">
        <ele>2631.100</ele>
        <time>2019-07-14T21:50:34Z</time>
      </trkpt>
      <trkpt lat="35.887680280" lon="-106.497280520">
        <ele>2631.300</ele>
        <time>2019-07-14T21:50:35Z</time>
      </trkpt>
      <trkpt lat="35.887750320" lon="-106.497339480">
        <ele>2631.100</ele>
        <time>2019-07-14T21:50:36Z</time>
      </trkpt>
      <trkpt lat="35.887815800" lon="-106.497390960">
        <ele>2630.900</ele>
        <time>2019-07-14T21:50:37Z</time>
      </trkpt>
      <trkpt lat="35.887867580" lon="-106.497438070">
        <ele>2631.000</ele>
        <time>2019-07-14T21:50:38Z</time>
      </trkpt>
      <trkpt lat="35.887931700" lon="-106.497484050">
        <ele>2631.200</ele>
        <time>2019-07-14T21:50:39Z</time>
      </trkpt>
      <trkpt lat="35.888004900" lon="-106.497502150">
        <ele>2631.500</ele>
        <time>2019-07-14T21:50:40Z</time>
      </trkpt>
      <trkpt lat="35.888057200" lon="-106.497535990">
        <ele>2632.700</ele>
        <time>2019-07-14T21:50:41Z</time>
      </trkpt>
      <trkpt lat="35.888122220" lon="-106.497566710">
        <ele>2633.500</ele>
        <time>2019-07-14T21:50:42Z</time>
      </trkpt>
      <trkpt lat="35.888186930" lon="-106.497595380">
        <ele>2633.100</ele>
        <time>2019-07-14T21:50:43Z</time>
      </trkpt>
      <trkpt lat="35.888251480" lon="-106.497621530">
        <ele>2633.400</ele>
        <time>2019-07-14T21:50:44Z</time>
      </trkpt>
      <trkpt lat="35.888326220" lon="-106.497653040">
        <ele>2633.600</ele>
        <time>2019-07-14T21:50:45Z</time>
      </trkpt>
      <trkpt lat="35.888403280" lon="-106.497687240">
        <ele>2633.800</ele>
        <time>2019-07-14T21:50:46Z</time>
      </trkpt>
      <trkpt lat="35.888473040" lon="-106.497716110">
        <ele>2634.400</ele>
        <time>2019-07-14T21:50:47Z</time>
      </trkpt>
      <trkpt lat="35.888551650" lon="-106.497746670">
        <ele>2634.500</ele>
        <time>2019-07-14T21:50:48Z</time>
      </trkpt>
      <trkpt lat="35.888624090" lon="-106.497780920">
        <ele>2635.200</ele>
        <time>2019-07-14T21:50:49Z</time>
      </trkpt>
      <trkpt lat="35.888705070" lon="-106.497817810">
        <ele>2635.600</ele>
        <time>2019-07-14T21:50:50Z</time>
      </trkpt>
      <trkpt lat="35.888787590" lon="-106.497848710">
        <ele>2635.200</ele>
        <time>2019-07-14T21:50:51Z</time>
      </trkpt>
      <trkpt lat="35.888862910" lon="-106.497876040">
        <ele>2635.600</ele>
        <time>2019-07-14T21:50:52Z</time>
      </trkpt>
      <trkpt lat="35.888939280" lon="-106.497918650">
        <ele>2635.300</ele>
        <time>2019-07-14T21:50:53Z</time>
      </trkpt>
      <trkpt lat="35.889004650" lon="-106.497961980">
        <ele>2635.300</ele>
        <time>2019-07-14T21:50:54Z</time>
      </trkpt>
      <trkpt lat="35.889077230" lon="-106.497990080">
        <ele>2635.400</ele>
        <time>2019-07-14T21:50:55Z</time>
      </trkpt>
      <trkpt lat="35.889139630" lon="-106.498011930">
        <ele>2635.900</ele>
        <time>2019-07-14T21:50:56Z</time>
      </trkpt>
      <trkpt lat="35.889213910" lon="-106.498012150">
        <ele>2636.600</ele>
        <time>2019-07-14T21:50:57Z</time>
      </trkpt>
      <trkpt lat="35.889288800" lon="-106.498029260">
        <ele>2636.900</ele>
        <time>2019-07-14T21:50:58Z</time>
      </trkpt>
      <trkpt lat="35.889354830" lon="-106.498027420">
        <ele>2637.800</ele>
        <time>2019-07-14T21:50:59Z</time>
      </trkpt>
      <trkpt lat="35.889436120" lon="-106.498046640">
        <ele>2637.200</ele>
        <time>2019-07-14T21:51:00Z</time>
      </trkpt>
      <trkpt lat="35.889516800" lon="-106.498037830">
        <ele>2637.500</ele>
        <time>2019-07-14T21:51:01Z</time>
      </trkpt>
      <trkpt lat="35.889581990" lon="-106.498021570">
        <ele>2637.300</ele>
        <time>2019-07-14T21:51:02Z</time>
      </trkpt>
      <trkpt lat="35.889643170" lon="-106.497999820">
        <ele>2637.300</ele>
        <time>2019-07-14T21:51:03Z</time>
      </trkpt>
      <trkpt lat="35.889705910" lon="-106.497962980">
        <ele>2637.200</ele>
        <time>2019-07-14T21:51:04Z</time>
      </trkpt>
      <trkpt lat="35.889773580" lon="-106.497930230">
        <ele>2636.700</ele>
        <time>2019-07-14T21:51:05Z</time>
      </trkpt>
      <trkpt lat="35.889834920" lon="-106.497899490">
        <ele>2635.700</ele>
        <time>2019-07-14T21:51:06Z</time>
      </trkpt>
      <trkpt lat="35.889894790" lon="-106.497874980">
        <ele>2635.600</ele>
        <time>2019-07-14T21:51:07Z</time>
      </trkpt>
      <trkpt lat="35.889966920" lon="-106.497872170">
        <ele>2633.200</ele>
        <time>2019-07-14T21:51:08Z</time>
      </trkpt>
      <trkpt lat="35.890023040" lon="-106.497846060">
        <ele>2632.600</ele>
        <time>2019-07-14T21:51:09Z</time>
      </trkpt>
      <trkpt lat="35.890083920" lon="-106.497820780">
        <ele>2633.000</ele>
        <time>2019-07-14T21:51:10Z</time>
      </trkpt>
      <trkpt lat="35.890138380" lon="-106.497791490">
        <ele>2631.900</ele>
        <time>2019-07-14T21:51:11Z</time>
      </trkpt>
      <trkpt lat="35.890190490" lon="-106.497770800">
        <ele>2632.200</ele>
        <time>2019-07-14T21:51:12Z</time>
      </trkpt>
      <trkpt lat="35.890226190" lon="-106.497742280">
        <ele>2632.000</ele>
        <time>2019-07-14T21:51:13Z</time>
      </trkpt>
      <trkpt lat="35.890264200" lon="-106.497710090">
        <ele>2632.400</ele>
        <time>2019-07-14T21:51:14Z</time>
      </trkpt>
      <trkpt lat="35.890303520" lon="-106.497668710">
        <ele>2631.800</ele>
        <time>2019-07-14T21:51:15Z</time>
      </trkpt>
      <trkpt lat="35.890347910" lon="-106.497642190">
        <ele>2631.500</ele>
        <time>2019-07-14T21:51:16Z</time>
      </trkpt>
      <trkpt lat="35.890396100" lon="-106.497608690">
        <ele>2631.900</ele>
        <time>2019-07-14T21:51:17Z</time>
      </trkpt>
      <trkpt lat="35.890456820" lon="-106.497579530">
        <ele>2631.000</ele>
        <time>2019-07-14T21:51:18Z</time>
      </trkpt>
      <trkpt lat="35.890516450" lon="-106.497548920">
        <ele>2630.300</ele>
        <time>2019-07-14T21:51:19Z</time>
      </trkpt>
      <trkpt lat="35.890577130" lon="-106.497511450">
        <ele>2629.400</ele>
        <time>2019-07-14T21:51:20Z</time>
      </trkpt>
      <trkpt lat="35.890633790" lon="-106.497470230">
        <ele>2628.700</ele>
        <time>2019-07-14T21:51:21Z</time>
      </trkpt>
      <trkpt lat="35.890693140" lon="-106.497419560">
        <ele>2628.900</ele>
        <time>2019-07-14T21:51:22Z</time>
      </trkpt>
      <trkpt lat="35.890746380" lon="-106.497360250">
        <ele>2628.700</ele>
        <time>2019-07-14T21:51:23Z</time>
      </trkpt>
      <trkpt lat="35.890774590" lon="-106.497272230">
        <ele>2628.400</ele>
        <time>2019-07-14T21:51:24Z</time>
      </trkpt>
      <trkpt lat="35.890812160" lon="-106.497192680">
        <ele>2628.900</ele>
        <time>2019-07-14T21:51:25Z</time>
      </trkpt>
      <trkpt lat="35.890833720" lon="-106.497118630">
        <ele>2628.000</ele>
        <time>2019-07-14T21:51:26Z</time>
      </trkpt>
      <trkpt lat="35.890855620" lon="-106.497038070">
        <ele>2628.900</ele>
        <time>2019-07-14T21:51:27Z</time>
      </trkpt>
      <trkpt lat="35.890874270" lon="-106.496959160">
        <ele>2628.800</ele>
        <time>2019-07-14T21:51:28Z</time>
      </trkpt>
      <trkpt lat="35.890900020" lon="-106.496882710">
        <ele>2628.200</ele>
        <time>2019-07-14T21:51:29Z</time>
      </trkpt>
      <trkpt lat="35.890922760" lon="-106.496804640">
        <ele>2627.200</ele>
        <time>2019-07-14T21:51:30Z</time>
      </trkpt>
      <trkpt lat="35.890930280" lon="-106.496719630">
        <ele>2625.000</ele>
        <time>2019-07-14T21:51:31Z</time>
      </trkpt>
      <trkpt lat="35.890930790" lon="-106.496645670">
        <ele>2625.500</ele>
        <time>2019-07-14T21:51:32Z</time>
      </trkpt>
      <trkpt lat="35.890935970" lon="-106.496591870">
        <ele>2624.900</ele>
        <time>2019-07-14T21:51:33Z</time>
      </trkpt>
      <trkpt lat="35.890935540" lon="-106.496541380">
        <ele>2625.400</ele>
        <time>2019-07-14T21:51:34Z</time>
      </trkpt>
      <trkpt lat="35.890933690" lon="-106.496486140">
        <ele>2623.400</ele>
        <time>2019-07-14T21:51:36Z</time>
      </trkpt>
      <trkpt lat="35.890937880" lon="-106.496415410">
        <ele>2622.100</ele>
        <time>2019-07-14T21:51:38Z</time>
      </trkpt>
      <trkpt lat="35.890954600" lon="-106.496352500">
        <ele>2614.500</ele>
        <time>2019-07-14T21:51:40Z</time>
      </trkpt>
      <trkpt lat="35.890946250" lon="-106.496292830">
        <ele>2613.600</ele>
        <time>2019-07-14T21:51:41Z</time>
      </trkpt>
      <trkpt lat="35.890905200" lon="-106.496212510">
        <ele>2613.100</ele>
        <time>2019-07-14T21:51:42Z</time>
      </trkpt>
      <trkpt lat="35.890879490" lon="-106.496156870">
        <ele>2610.200</ele>
        <time>2019-07-14T21:51:43Z</time>
      </trkpt>
      <trkpt lat="35.890825670" lon="-106.496083220">
        <ele>2610.100</ele>
        <time>2019-07-14T21:51:44Z</time>
      </trkpt>
      <trkpt lat="35.890772390" lon="-106.496017330">
        <ele>2610.000</ele>
        <time>2019-07-14T21:51:45Z</time>
      </trkpt>
      <trkpt lat="35.890720240" lon="-106.495962230">
        <ele>2609.800</ele>
        <time>2019-07-14T21:51:46Z</time>
      </trkpt>
      <trkpt lat="35.890671040" lon="-106.495912130">
        <ele>2610.500</ele>
        <time>2019-07-14T21:51:47Z</time>
      </trkpt>
      <trkpt lat="35.890632180" lon="-106.495877510">
        <ele>2609.200</ele>
        <time>2019-07-14T21:51:48Z</time>
      </trkpt>
      <trkpt lat="35.890583760" lon="-106.495818330">
        <ele>2607.800</ele>
        <time>2019-07-14T21:51:50Z</time>
      </trkpt>
      <trkpt lat="35.890547240" lon="-106.495762210">
        <ele>2606.600</ele>
        <time>2019-07-14T21:51:52Z</time>
      </trkpt>
      <trkpt lat="35.890521340" lon="-106.495727410">
        <ele>2605.400</ele>
        <time>2019-07-14T21:51:53Z</time>
      </trkpt>
      <trkpt lat="35.890486750" lon="-106.495682590">
        <ele>2605.200</ele>
        <time>2019-07-14T21:51:54Z</time>
      </trkpt>
      <trkpt lat="35.890445140" lon="-106.495637280">
        <ele>2606.000</ele>
        <time>2019-07-14T21:51:55Z</time>
      </trkpt>
      <trkpt lat="35.890396230" lon="-106.495594270">
        <ele>2605.900</ele>
        <time>2019-07-14T21:51:56Z</time>
      </trkpt>
      <trkpt lat="35.890334440" lon="-106.495558810">
        <ele>2606.600</ele>
        <time>2019-07-14T21:51:57Z</time>
      </trkpt>
      <trkpt lat="35.890279300" lon="-106.495519980">
        <ele>2606.400</ele>
        <time>2019-07-14T21:51:58Z</time>
      </trkpt>
      <trkpt lat="35.890225140" lon="-106.495499190">
        <ele>2606.100</ele>
        <time>2019-07-14T21:51:59Z</time>
      </trkpt>
      <trkpt lat="35.890168510" lon="-106.495474670">
        <ele>2606.000</ele>
        <time>2019-07-14T21:52:00Z</time>
      </trkpt>
      <trkpt lat="35.890112510" lon="-106.495450430">
        <ele>2605.400</ele>
        <time>2019-07-14T21:52:01Z</time>
      </trkpt>
      <trkpt lat="35.890054720" lon="-106.495423980">
        <ele>2605.900</ele>
        <time>2019-07-14T21:52:02Z</time>
      </trkpt>
      <trkpt lat="35.889996430" lon="-106.495388980">
        <ele>2606.000</ele>
        <time>2019-07-14T21:52:03Z</time>
      </trkpt>
      <trkpt lat="35.889942210" lon="-106.495357360">
        <ele>2605.900</ele>
        <time>2019-07-14T21:52:04Z</time>
      </trkpt>
      <trkpt lat="35.889890270" lon="-106.495315360">
        <ele>2606.100</ele>
        <time>2019-07-14T21:52:05Z</time>
      </trkpt>
      <trkpt lat="35.889846790" lon="-106.495257430">
        <ele>2606.300</ele>
        <time>2019-07-14T21:52:06Z</time>
      </trkpt>
      <trkpt lat="35.889796680" lon="-106.495222550">
        <ele>2605.800</ele>
        <time>2019-07-14T21:52:07Z</time>
      </trkpt>
      <trkpt lat="35.889752730" lon="-106.495166030">
        <ele>2605.400</ele>
        <time>2019-07-14T21:52:08Z</time>
      </trkpt>
      <trkpt lat="35.889707730" lon="-106.495107590">
        <ele>2605.500</ele>
        <time>2019-07-14T21:52:09Z</time>
      </trkpt>
      <trkpt lat="35.889670240" lon="-106.495043840">
        <ele>2605.000</ele>
        <time>2019-07-14T21:52:10Z</time>
      </trkpt>
      <trkpt lat="35.889636240" lon="-106.494985660">
        <ele>2604.900</ele>
        <time>2019-07-14T21:52:11Z</time>
      </trkpt>
      <trkpt lat="35.889607720" lon="-106.494915530">
        <ele>2603.600</ele>
        <time>2019-07-14T21:52:12Z</time>
      </trkpt>
      <trkpt lat="35.889581600" lon="-106.494841500">
        <ele>2603.400</ele>
        <time>2019-07-14T21:52:13Z</time>
      </trkpt>
      <trkpt lat="35.889559790" lon="-106.494766380">
        <ele>2602.800</ele>
        <time>2019-07-14T21:52:14Z</time>
      </trkpt>
      <trkpt lat="35.889535330" lon="-106.494697790">
        <ele>2603.000</ele>
        <time>2019-07-14T21:52:15Z</time>
      </trkpt>
      <trkpt lat="35.889512210" lon="-106.494621290">
        <ele>2602.400</ele>
        <time>2019-07-14T21:52:16Z</time>
      </trkpt>
      <trkpt lat="35.889492490" lon="-106.494556750">
        <ele>2603.300</ele>
        <time>2019-07-14T21:52:17Z</time>
      </trkpt>
      <trkpt lat="35.889475990" lon="-106.494473970">
        <ele>2603.200</ele>
        <time>2019-07-14T21:52:18Z</time>
      </trkpt>
      <trkpt lat="35.889457590" lon="-106.494401760">
        <ele>2603.300</ele>
        <time>2019-07-14T21:52:19Z</time>
      </trkpt>
      <trkpt lat="35.889432760" lon="-106.494321180">
        <ele>2603.600</ele>
        <time>2019-07-14T21:52:20Z</time>
      </trkpt>
      <trkpt lat="35.889409700" lon="-106.494252730">
        <ele>2604.600</ele>
        <time>2019-07-14T21:52:21Z</time>
      </trkpt>
      <trkpt lat="35.889392520" lon="-106.494177340">
        <ele>2604.700</ele>
        <time>2019-07-14T21:52:22Z</time>
      </trkpt>
      <trkpt lat="35.889368620" lon="-106.494102510">
        <ele>2604.800</ele>
        <time>2019-07-14T21:52:23Z</time>
      </trkpt>
      <trkpt lat="35.889352200" lon="-106.494032590">
        <ele>2605.000</ele>
        <time>2019-07-14T21:52:24Z</time>
      </trkpt>
      <trkpt lat="35.889332710" lon="-106.493952630">
        <ele>2603.700</ele>
        <time>2019-07-14T21:52:25Z</time>
      </trkpt>
      <trkpt lat="35.889308930" lon="-106.493880540">
        <ele>2602.900</ele>
        <time>2019-07-14T21:52:26Z</time>
      </trkpt>
      <trkpt lat="35.889283820" lon="-106.493800810">
        <ele>2603.000</ele>
        <time>2019-07-14T21:52:27Z</time>
      </trkpt>
      <trkpt lat="35.889261260" lon="-106.493715530">
        <ele>2603.200</ele>
        <time>2019-07-14T21:52:28Z</time>
      </trkpt>
      <trkpt lat="35.889243500" lon="-106.493617750">
        <ele>2602.300</ele>
        <time>2019-07-14T21:52:29Z</time>
      </trkpt>
      <trkpt lat="35.889226570" lon="-106.493526610">
        <ele>2603.000</ele>
        <time>2019-07-14T21:52:30Z</time>
      </trkpt>
      <trkpt lat="35.889206050" lon="-106.493432810">
        <ele>2603.500</ele>
        <time>2019-07-14T21:52:31Z</time>
      </trkpt>
      <trkpt lat="35.889200870" lon="-106.493354860">
        <ele>2602.600</ele>
        <time>2019-07-14T21:52:32Z</time>
      </trkpt>
      <trkpt lat="35.889183270" lon="-106.493270010">
        <ele>2603.100</ele>
        <time>2019-07-14T21:52:33Z</time>
      </trkpt>
      <trkpt lat="35.889169890" lon="-106.493183670">
        <ele>2603.100</ele>
        <time>2019-07-14T21:52:34Z</time>
      </trkpt>
      <trkpt lat="35.889157050" lon="-106.493098100">
        <ele>2602.800</ele>
        <time>2019-07-14T21:52:35Z</time>
      </trkpt>
      <trkpt lat="35.889137700" lon="-106.493014090">
        <ele>2602.500</ele>
        <time>2019-07-14T21:52:36Z</time>
      </trkpt>
      <trkpt lat="35.889118370" lon="-106.492926230">
        <ele>2601.700</ele>
        <time>2019-07-14T21:52:37Z</time>
      </trkpt>
      <trkpt lat="35.889097650" lon="-106.492840130">
        <ele>2601.800</ele>
        <time>2019-07-14T21:52:38Z</time>
      </trkpt>
      <trkpt lat="35.889077160" lon="-106.492758180">
        <ele>2603.200</ele>
        <time>2019-07-14T21:52:39Z</time>
      </trkpt>
      <trkpt lat="35.889066300" lon="-106.492675280">
        <ele>2602.300</ele>
        <time>2019-07-14T21:52:40Z</time>
      </trkpt>
      <trkpt lat="35.889045740" lon="-106.492580550">
        <ele>2602.600</ele>
        <time>2019-07-14T21:52:41Z</time>
      </trkpt>
      <trkpt lat="35.889029400" lon="-106.492485500">
        <ele>2601.700</ele>
        <time>2019-07-14T21:52:42Z</time>
      </trkpt>
      <trkpt lat="35.889019910" lon="-106.492399760">
        <ele>2601.000</ele>
        <time>2019-07-14T21:52:43Z</time>
      </trkpt>
      <trkpt lat="35.889010010" lon="-106.492303160">
        <ele>2600.900</ele>
        <time>2019-07-14T21:52:44Z</time>
      </trkpt>
      <trkpt lat="35.889000460" lon="-106.492211510">
        <ele>2600.500</ele>
        <time>2019-07-14T21:52:45Z</time>
      </trkpt>
      <trkpt lat="35.888992110" lon="-106.492117140">
        <ele>2600.600</ele>
        <time>2019-07-14T21:52:46Z</time>
      </trkpt>
      <trkpt lat="35.889001350" lon="-106.492044110">
        <ele>2595.800</ele>
        <time>2019-07-14T21:52:47Z</time>
      </trkpt>
      <trkpt lat="35.888997180" lon="-106.491957660">
        <ele>2596.300</ele>
        <time>2019-07-14T21:52:48Z</time>
      </trkpt>
      <trkpt lat="35.888999640" lon="-106.491868170">
        <ele>2595.700</ele>
        <time>2019-07-14T21:52:49Z</time>
      </trkpt>
      <trkpt lat="35.889002330" lon="-106.491770780">
        <ele>2595.900</ele>
        <time>2019-07-14T21:52:50Z</time>
      </trkpt>
      <trkpt lat="35.889003850" lon="-106.491677420">
        <ele>2596.000</ele>
        <time>2019-07-14T21:52:51Z</time>
      </trkpt>
      <trkpt lat="35.889011120" lon="-106.491587930">
        <ele>2596.600</ele>
        <time>2019-07-14T21:52:52Z</time>
      </trkpt>
      <trkpt lat="35.889018160" lon="-106.491497370">
        <ele>2597.200</ele>
        <time>2019-07-14T21:52:53Z</time>
      </trkpt>
      <trkpt lat="35.889028320" lon="-106.491411570">
        <ele>2598.300</ele>
        <time>2019-07-14T21:52:54Z</time>
      </trkpt>
      <trkpt lat="35.889039380" lon="-106.491311650">
        <ele>2598.800</ele>
        <time>2019-07-14T21:52:55Z</time>
      </trkpt>
      <trkpt lat="35.889052480" lon="-106.491229020">
        <ele>2600.000</ele>
        <time>2019-07-14T21:52:56Z</time>
      </trkpt>
      <trkpt lat="35.889062710" lon="-106.491138520">
        <ele>2600.500</ele>
        <time>2019-07-14T21:52:57Z</time>
      </trkpt>
      <trkpt lat="35.889088230" lon="-106.491074170">
        <ele>2599.100</ele>
        <time>2019-07-14T21:52:58Z</time>
      </trkpt>
      <trkpt lat="35.889102040" lon="-106.490997720">
        <ele>2599.600</ele>
        <time>2019-07-14T21:52:59Z</time>
      </trkpt>
      <trkpt lat="35.889116350" lon="-106.490914990">
        <ele>2600.400</ele>
        <time>2019-07-14T21:53:00Z</time>
      </trkpt>
      <trkpt lat="35.889130650" lon="-106.490838270">
        <ele>2601.200</ele>
        <time>2019-07-14T21:53:01Z</time>
      </trkpt>
      <trkpt lat="35.889151830" lon="-106.490757120">
        <ele>2601.800</ele>
        <time>2019-07-14T21:53:02Z</time>
      </trkpt>
      <trkpt lat="35.889176350" lon="-106.490677270">
        <ele>2601.900</ele>
        <time>2019-07-14T21:53:03Z</time>
      </trkpt>
      <trkpt lat="35.889201760" lon="-106.490599780">
        <ele>2601.900</ele>
        <time>2019-07-14T21:53:04Z</time>
      </trkpt>
      <trkpt lat="35.889225550" lon="-106.490518140">
        <ele>2602.400</ele>
        <time>2019-07-14T21:53:05Z</time>
      </trkpt>
      <trkpt lat="35.889250500" lon="-106.490444630">
        <ele>2602.800</ele>
        <time>2019-07-14T21:53:06Z</time>
      </trkpt>
      <trkpt lat="35.889280850" lon="-106.490366980">
        <ele>2602.800</ele>
        <time>2019-07-14T21:53:07Z</time>
      </trkpt>
      <trkpt lat="35.889318290" lon="-106.490294970">
        <ele>2603.600</ele>
        <time>2019-07-14T21:53:08Z</time>
      </trkpt>
      <trkpt lat="35.889362780" lon="-106.490228020">
        <ele>2604.700</ele>
        <time>2019-07-14T21:53:09Z</time>
      </trkpt>
      <trkpt lat="35.889405920" lon="-106.490174020">
        <ele>2604.400</ele>
        <time>2019-07-14T21:53:10Z</time>
      </trkpt>
      <trkpt lat="35.889454780" lon="-106.490120390">
        <ele>2604.500</ele>
        <time>2019-07-14T21:53:11Z</time>
      </trkpt>
      <trkpt lat="35.889505350" lon="-106.490080660">
        <ele>2604.000</ele>
        <time>2019-07-14T21:53:12Z</time>
      </trkpt>
      <trkpt lat="35.889561810" lon="-106.490045570">
        <ele>2603.800</ele>
        <time>2019-07-14T21:53:13Z</time>
      </trkpt>
      <trkpt lat="35.889620100" lon="-106.490009050">
        <ele>2603.700</ele>
        <time>2019-07-14T21:53:14Z</time>
      </trkpt>
      <trkpt lat="35.889671730" lon="-106.489980070">
        <ele>2604.000</ele>
        <time>2019-07-14T21:53:15Z</time>
      </trkpt>
      <trkpt lat="35.889729570" lon="-106.489950320">
        <ele>2604.600</ele>
        <time>2019-07-14T21:53:16Z</time>
      </trkpt>
      <trkpt lat="35.889786610" lon="-106.489927660">
        <ele>2604.500</ele>
        <time>2019-07-14T21:53:17Z</time>
      </trkpt>
      <trkpt lat="35.889844870" lon="-106.489901400">
        <ele>2604.400</ele>
        <time>2019-07-14T21:53:18Z</time>
      </trkpt>
      <trkpt lat="35.889901880" lon="-106.489864830">
        <ele>2604.800</ele>
        <time>2019-07-14T21:53:19Z</time>
      </trkpt>
      <trkpt lat="35.889952840" lon="-106.489839350">
        <ele>2605.700</ele>
        <time>2019-07-14T21:53:20Z</time>
      </trkpt>
      <trkpt lat="35.890010500" lon="-106.489831510">
        <ele>2605.600</ele>
        <time>2019-07-14T21:53:21Z</time>
      </trkpt>
      <trkpt lat="35.890072780" lon="-106.489807290">
        <ele>2606.700</ele>
        <time>2019-07-14T21:53:22Z</time>
      </trkpt>
      <trkpt lat="35.890123280" lon="-106.489793590">
        <ele>2606.300</ele>
        <time>2019-07-14T21:53:23Z</time>
      </trkpt>
      <trkpt lat="35.890187770" lon="-106.489783340">
        <ele>2606.200</ele>
        <time>2019-07-14T21:53:24Z</time>
      </trkpt>
      <trkpt lat="35.890246440" lon="-106.489755880">
        <ele>2606.700</ele>
        <time>2019-07-14T21:53:25Z</time>
      </trkpt>
      <trkpt lat="35.890296930" lon="-106.489738030">
        <ele>2606.500</ele>
        <time>2019-07-14T21:53:26Z</time>
      </trkpt>
      <trkpt lat="35.890363410" lon="-106.489722210">
        <ele>2607.000</ele>
        <time>2019-07-14T21:53:27Z</time>
      </trkpt>
      <trkpt lat="35.890430190" lon="-106.489707780">
        <ele>2607.600</ele>
        <time>2019-07-14T21:53:28Z</time>
      </trkpt>
      <trkpt lat="35.890492850" lon="-106.489691410">
        <ele>2607.000</ele>
        <time>2019-07-14T21:53:29Z</time>
      </trkpt>
      <trkpt lat="35.890555350" lon="-106.489677720">
        <ele>2606.600</ele>
        <time>2019-07-14T21:53:30Z</time>
      </trkpt>
      <trkpt lat="35.890615970" lon="-106.489661080">
        <ele>2606.900</ele>
        <time>2019-07-14T21:53:31Z</time>
      </trkpt>
      <trkpt lat="35.890684350" lon="-106.489639560">
        <ele>2607.000</ele>
        <time>2019-07-14T21:53:32Z</time>
      </trkpt>
      <trkpt lat="35.890751860" lon="-106.489626780">
        <ele>2606.400</ele>
        <time>2019-07-14T21:53:33Z</time>
      </trkpt>
      <trkpt lat="35.890818270" lon="-106.489617960">
        <ele>2606.400</ele>
        <time>2019-07-14T21:53:34Z</time>
      </trkpt>
      <trkpt lat="35.890881390" lon="-106.489605710">
        <ele>2608.500</ele>
        <time>2019-07-14T21:53:35Z</time>
      </trkpt>
      <trkpt lat="35.890953210" lon="-106.489599010">
        <ele>2608.300</ele>
        <time>2019-07-14T21:53:36Z</time>
      </trkpt>
      <trkpt lat="35.891021620" lon="-106.489576600">
        <ele>2608.800</ele>
        <time>2019-07-14T21:53:37Z</time>
      </trkpt>
      <trkpt lat="35.891089580" lon="-106.489562110">
        <ele>2608.800</ele>
        <time>2019-07-14T21:53:38Z</time>
      </trkpt>
      <trkpt lat="35.891157790" lon="-106.489545720">
        <ele>2610.600</ele>
        <time>2019-07-14T21:53:39Z</time>
      </trkpt>
      <trkpt lat="35.891232440" lon="-106.489526760">
        <ele>2610.600</ele>
        <time>2019-07-14T21:53:40Z</time>
      </trkpt>
      <trkpt lat="35.891305680" lon="-106.489503390">
        <ele>2611.300</ele>
        <time>2019-07-14T21:53:41Z</time>
      </trkpt>
      <trkpt lat="35.891375000" lon="-106.489483160">
        <ele>2611.300</ele>
        <time>2019-07-14T21:53:42Z</time>
      </trkpt>
      <trkpt lat="35.891436790" lon="-106.489471380">
        <ele>2611.500</ele>
        <time>2019-07-14T21:53:43Z</time>
      </trkpt>
      <trkpt lat="35.891503050" lon="-106.489462310">
        <ele>2611.400</ele>
        <time>2019-07-14T21:53:44Z</time>
      </trkpt>
      <trkpt lat="35.891579340" lon="-106.489453380">
        <ele>2611.600</ele>
        <time>2019-07-14T21:53:45Z</time>
      </trkpt>
      <trkpt lat="35.891650650" lon="-106.489436810">
        <ele>2611.100</ele>
        <time>2019-07-14T21:53:46Z</time>
      </trkpt>
      <trkpt lat="35.891722110" lon="-106.489414140">
        <ele>2611.000</ele>
        <time>2019-07-14T21:53:47Z</time>
      </trkpt>
      <trkpt lat="35.891789990" lon="-106.489392750">
        <ele>2612.300</ele>
        <time>2019-07-14T21:53:48Z</time>
      </trkpt>
      <trkpt lat="35.891864250" lon="-106.489381780">
        <ele>2582.800</ele>
        <time>2019-07-14T21:53:49Z</time>
      </trkpt>
      <trkpt lat="35.891944750" lon="-106.489369160">
        <ele>2588.400</ele>
        <time>2019-07-14T21:53:50Z</time>
      </trkpt>
      <trkpt lat="35.892018140" lon="-106.489336830">
        <ele>2594.800</ele>
        <time>2019-07-14T21:53:51Z</time>
      </trkpt>
      <trkpt lat="35.892091240" lon="-106.489324780">
        <ele>2600.900</ele>
        <time>2019-07-14T21:53:52Z</time>
      </trkpt>
      <trkpt lat="35.892182950" lon="-106.489322820">
        <ele>2602.500</ele>
        <time>2019-07-14T21:53:53Z</time>
      </trkpt>
      <trkpt lat="35.892278070" lon="-106.489299240">
        <ele>2605.300</ele>
        <time>2019-07-14T21:53:54Z</time>
      </trkpt>
      <trkpt lat="35.892363030" lon="-106.489266300">
        <ele>2608.100</ele>
        <time>2019-07-14T21:53:55Z</time>
      </trkpt>
      <trkpt lat="35.892448470" lon="-106.489257020">
        <ele>2609.200</ele>
        <time>2019-07-14T21:53:56Z</time>
      </trkpt>
      <trkpt lat="35.892545020" lon="-106.489241770">
        <ele>2608.700</ele>
        <time>2019-07-14T21:53:57Z</time>
      </trkpt>
      <trkpt lat="35.892640150" lon="-106.489235790">
        <ele>2607.900</ele>
        <time>2019-07-14T21:53:58Z</time>
      </trkpt>
      <trkpt lat="35.892738300" lon="-106.489216040">
        <ele>2607.800</ele>
        <time>2019-07-14T21:53:59Z</time>
      </trkpt>
      <trkpt lat="35.892840370" lon="-106.489207670">
        <ele>2607.400</ele>
        <time>2019-07-14T21:54:00Z</time>
      </trkpt>
      <trkpt lat="35.892929960" lon="-106.489197460">
        <ele>2609.400</ele>
        <time>2019-07-14T21:54:01Z</time>
      </trkpt>
      <trkpt lat="35.893024790" lon="-106.489176480">
        <ele>2610.000</ele>
        <time>2019-07-14T21:54:02Z</time>
      </trkpt>
      <trkpt lat="35.893119340" lon="-106.489162220">
        <ele>2611.100</ele>
        <time>2019-07-14T21:54:03Z</time>
      </trkpt>
      <trkpt lat="35.893216250" lon="-106.489147970">
        <ele>2610.800</ele>
        <time>2019-07-14T21:54:04Z</time>
      </trkpt>
      <trkpt lat="35.893313710" lon="-106.489125640">
        <ele>2611.200</ele>
        <time>2019-07-14T21:54:05Z</time>
      </trkpt>
      <trkpt lat="35.893410430" lon="-106.489115760">
        <ele>2612.800</ele>
        <time>2019-07-14T21:54:06Z</time>
      </trkpt>
      <trkpt lat="35.893511060" lon="-106.489104740">
        <ele>2613.100</ele>
        <time>2019-07-14T21:54:07Z</time>
      </trkpt>
      <trkpt lat="35.893615730" lon="-106.489091820">
        <ele>2612.800</ele>
        <time>2019-07-14T21:54:08Z</time>
      </trkpt>
      <trkpt lat="35.893718990" lon="-106.489070970">
        <ele>2613.400</ele>
        <time>2019-07-14T21:54:09Z</time>
      </trkpt>
      <trkpt lat="35.893819560" lon="-106.489056690">
        <ele>2613.900</ele>
        <time>2019-07-14T21:54:10Z</time>
      </trkpt>
      <trkpt lat="35.893922310" lon="-106.489042540">
        <ele>2614.100</ele>
        <time>2019-07-14T21:54:11Z</time>
      </trkpt>
      <trkpt lat="35.894022300" lon="-106.489034180">
        <ele>2613.300</ele>
        <time>2019-07-14T21:54:12Z</time>
      </trkpt>
      <trkpt lat="35.894121500" lon="-106.489024120">
        <ele>2613.700</ele>
        <time>2019-07-14T21:54:13Z</time>
      </trkpt>
      <trkpt lat="35.894210010" lon="-106.489012840">
        <ele>2614.200</ele>
        <time>2019-07-14T21:54:14Z</time>
      </trkpt>
      <trkpt lat="35.894299320" lon="-106.489001750">
        <ele>2613.800</ele>
        <time>2019-07-14T21:54:15Z</time>
      </trkpt>
      <trkpt lat="35.894373850" lon="-106.488983210">
        <ele>2614.100</ele>
        <time>2019-07-14T21:54:16Z</time>
      </trkpt>
      <trkpt lat="35.894415190" lon="-106.488959740">
        <ele>2615.100</ele>
        <time>2019-07-14T21:54:17Z</time>
      </trkpt>
      <trkpt lat="35.894455850" lon="-106.488947810">
        <ele>2616.100</ele>
        <time>2019-07-14T21:54:18Z</time>
      </trkpt>
      <trkpt lat="35.894497590" lon="-106.488940430">
        <ele>2614.800</ele>
        <time>2019-07-14T21:54:19Z</time>
      </trkpt>
      <trkpt lat="35.894534850" lon="-106.488910990">
        <ele>2617.600</ele>
        <time>2019-07-14T21:54:22Z</time>
      </trkpt>
      <trkpt lat="35.894561160" lon="-106.488879110">
        <ele>2618.200</ele>
        <time>2019-07-14T21:54:27Z</time>
      </trkpt>
      <trkpt lat="35.894624680" lon="-106.488877870">
        <ele>2616.300</ele>
        <time>2019-07-14T21:54:35Z</time>
      </trkpt>
      <trkpt lat="35.894664820" lon="-106.488861180">
        <ele>2615.400</ele>
        <time>2019-07-14T21:54:36Z</time>
      </trkpt>
      <trkpt lat="35.894707360" lon="-106.488843710">
        <ele>2615.500</ele>
        <time>2019-07-14T21:54:37Z</time>
      </trkpt>
      <trkpt lat="35.894746740" lon="-106.488827490">
        <ele>2614.300</ele>
        <time>2019-07-14T21:54:38Z</time>
      </trkpt>
      <trkpt lat="35.894782970" lon="-106.488811700">
        <ele>2614.700</ele>
        <time>2019-07-14T21:54:39Z</time>
      </trkpt>
      <trkpt lat="35.894818280" lon="-106.488796080">
        <ele>2615.800</ele>
        <time>2019-07-14T21:54:40Z</time>
      </trkpt>
      <trkpt lat="35.894882140" lon="-106.488766550">
        <ele>2615.600</ele>
        <time>2019-07-14T21:54:42Z</time>
      </trkpt>
      <trkpt lat="35.894938750" lon="-106.488737240">
        <ele>2617.100</ele>
        <time>2019-07-14T21:54:44Z</time>
      </trkpt>
      <trkpt lat="35.894996310" lon="-106.488703120">
        <ele>2615.200</ele>
        <time>2019-07-14T21:54:46Z</time>
      </trkpt>
      <trkpt lat="35.895062460" lon="-106.488663400">
        <ele>2614.500</ele>
        <time>2019-07-14T21:54:48Z</time>
      </trkpt>
      <trkpt lat="35.895099980" lon="-106.488640700">
        <ele>2614.400</ele>
        <time>2019-07-14T21:54:49Z</time>
      </trkpt>
      <trkpt lat="35.895139720" lon="-106.488617840">
        <ele>2614.400</ele>
        <time>2019-07-14T21:54:50Z</time>
      </trkpt>
      <trkpt lat="35.895180540" lon="-106.488594160">
        <ele>2613.500</ele>
        <time>2019-07-14T21:54:51Z</time>
      </trkpt>
      <trkpt lat="35.895223680" lon="-106.488554720">
        <ele>2613.000</ele>
        <time>2019-07-14T21:54:52Z</time>
      </trkpt>
      <trkpt lat="35.895281480" lon="-106.488535810">
        <ele>2614.200</ele>
        <time>2019-07-14T21:54:53Z</time>
      </trkpt>
      <trkpt lat="35.895319340" lon="-106.488497650">
        <ele>2614.000</ele>
        <time>2019-07-14T21:54:54Z</time>
      </trkpt>
      <trkpt lat="35.895370120" lon="-106.488472710">
        <ele>2614.500</ele>
        <time>2019-07-14T21:54:55Z</time>
      </trkpt>
      <trkpt lat="35.895409590" lon="-106.488429590">
        <ele>2615.000</ele>
        <time>2019-07-14T21:54:56Z</time>
      </trkpt>
      <trkpt lat="35.895456470" lon="-106.488398800">
        <ele>2615.000</ele>
        <time>2019-07-14T21:54:57Z</time>
      </trkpt>
      <trkpt lat="35.895509630" lon="-106.488370980">
        <ele>2614.800</ele>
        <time>2019-07-14T21:54:58Z</time>
      </trkpt>
      <trkpt lat="35.895564230" lon="-106.488342200">
        <ele>2614.200</ele>
        <time>2019-07-14T21:54:59Z</time>
      </trkpt>
      <trkpt lat="35.895612900" lon="-106.488302950">
        <ele>2614.600</ele>
        <time>2019-07-14T21:55:00Z</time>
      </trkpt>
      <trkpt lat="35.895691540" lon="-106.488266890">
        <ele>2615.100</ele>
        <time>2019-07-14T21:55:01Z</time>
      </trkpt>
      <trkpt lat="35.895761350" lon="-106.488241030">
        <ele>2615.500</ele>
        <time>2019-07-14T21:55:02Z</time>
      </trkpt>
      <trkpt lat="35.895829420" lon="-106.488205640">
        <ele>2615.600</ele>
        <time>2019-07-14T21:55:03Z</time>
      </trkpt>
      <trkpt lat="35.895887530" lon="-106.488167220">
        <ele>2615.700</ele>
        <time>2019-07-14T21:55:04Z</time>
      </trkpt>
      <trkpt lat="35.895936850" lon="-106.488126270">
        <ele>2615.600</ele>
        <time>2019-07-14T21:55:05Z</time>
      </trkpt>
      <trkpt lat="35.896034770" lon="-106.488109230">
        <ele>2615.300</ele>
        <time>2019-07-14T21:55:06Z</time>
      </trkpt>
      <trkpt lat="35.896096150" lon="-106.488063980">
        <ele>2615.000</ele>
        <time>2019-07-14T21:55:07Z</time>
      </trkpt>
      <trkpt lat="35.896216940" lon="-106.488055110">
        <ele>2612.600</ele>
        <time>2019-07-14T21:55:08Z</time>
      </trkpt>
      <trkpt lat="35.896277040" lon="-106.487990650">
        <ele>2612.400</ele>
        <time>2019-07-14T21:55:09Z</time>
      </trkpt>
      <trkpt lat="35.896344910" lon="-106.487945620">
        <ele>2611.900</ele>
        <time>2019-07-14T21:55:10Z</time>
      </trkpt>
      <trkpt lat="35.896393740" lon="-106.487887100">
        <ele>2611.500</ele>
        <time>2019-07-14T21:55:11Z</time>
      </trkpt>
      <trkpt lat="35.896427080" lon="-106.487823010">
        <ele>2613.700</ele>
        <time>2019-07-14T21:55:12Z</time>
      </trkpt>
      <trkpt lat="35.896513190" lon="-106.487770760">
        <ele>2614.400</ele>
        <time>2019-07-14T21:55:13Z</time>
      </trkpt>
      <trkpt lat="35.896583680" lon="-106.487719250">
        <ele>2613.900</ele>
        <time>2019-07-14T21:55:14Z</time>
      </trkpt>
      <trkpt lat="35.896668090" lon="-106.487664980">
        <ele>2614.100</ele>
        <time>2019-07-14T21:55:15Z</time>
      </trkpt>
      <trkpt lat="35.896746050" lon="-106.487603560">
        <ele>2615.800</ele>
        <time>2019-07-14T21:55:16Z</time>
      </trkpt>
      <trkpt lat="35.896841300" lon="-106.487563370">
        <ele>2615.100</ele>
        <time>2019-07-14T21:55:17Z</time>
      </trkpt>
      <trkpt lat="35.896910970" lon="-106.487498790">
        <ele>2615.600</ele>
        <time>2019-07-14T21:55:18Z</time>
      </trkpt>
      <trkpt lat="35.896988430" lon="-106.487458680">
        <ele>2615.000</ele>
        <time>2019-07-14T21:55:19Z</time>
      </trkpt>
      <trkpt lat="35.897108670" lon="-106.487456030">
        <ele>2612.200</ele>
        <time>2019-07-14T21:55:20Z</time>
      </trkpt>
      <trkpt lat="35.897199600" lon="-106.487418930">
        <ele>2613.000</ele>
        <time>2019-07-14T21:55:21Z</time>
      </trkpt>
      <trkpt lat="35.897282250" lon="-106.487376040">
        <ele>2613.000</ele>
        <time>2019-07-14T21:55:22Z</time>
      </trkpt>
      <trkpt lat="35.897358920" lon="-106.487367520">
        <ele>2613.600</ele>
        <time>2019-07-14T21:55:23Z</time>
      </trkpt>
      <trkpt lat="35.897435940" lon="-106.487329870">
        <ele>2614.300</ele>
        <time>2019-07-14T21:55:24Z</time>
      </trkpt>
      <trkpt lat="35.897499660" lon="-106.487299680">
        <ele>2615.200</ele>
        <time>2019-07-14T21:55:25Z</time>
      </trkpt>
      <trkpt lat="35.897574510" lon="-106.487260080">
        <ele>2615.400</ele>
        <time>2019-07-14T21:55:26Z</time>
      </trkpt>
      <trkpt lat="35.897645130" lon="-106.487230800">
        <ele>2615.600</ele>
        <time>2019-07-14T21:55:27Z</time>
      </trkpt>
      <trkpt lat="35.897711430" lon="-106.487213140">
        <ele>2616.100</ele>
        <time>2019-07-14T21:55:28Z</time>
      </trkpt>
      <trkpt lat="35.897759160" lon="-106.487176120">
        <ele>2615.500</ele>
        <time>2019-07-14T21:55:29Z</time>
      </trkpt>
      <trkpt lat="35.897802020" lon="-106.487141540">
        <ele>2617.200</ele>
        <time>2019-07-14T21:55:30Z</time>
      </trkpt>
      <trkpt lat="35.897852470" lon="-106.487095230">
        <ele>2617.200</ele>
        <time>2019-07-14T21:55:31Z</time>
      </trkpt>
      <trkpt lat="35.897912900" lon="-106.487057470">
        <ele>2617.800</ele>
        <time>2019-07-14T21:55:32Z</time>
      </trkpt>
      <trkpt lat="35.897963190" lon="-106.487015250">
        <ele>2617.600</ele>
        <time>2019-07-14T21:55:33Z</time>
      </trkpt>
      <trkpt lat="35.898042100" lon="-106.486975450">
        <ele>2614.400</ele>
        <time>2019-07-14T21:55:34Z</time>
      </trkpt>
      <trkpt lat="35.898114040" lon="-106.486933720">
        <ele>2615.100</ele>
        <time>2019-07-14T21:55:35Z</time>
      </trkpt>
      <trkpt lat="35.898180050" lon="-106.486877160">
        <ele>2615.800</ele>
        <time>2019-07-14T21:55:36Z</time>
      </trkpt>
      <trkpt lat="35.898248450" lon="-106.486822730">
        <ele>2615.700</ele>
        <time>2019-07-14T21:55:37Z</time>
      </trkpt>
      <trkpt lat="35.898301110" lon="-106.486756440">
        <ele>2616.500</ele>
        <time>2019-07-14T21:55:38Z</time>
      </trkpt>
      <trkpt lat="35.898370120" lon="-106.486708640">
        <ele>2615.700</ele>
        <time>2019-07-14T21:55:39Z</time>
      </trkpt>
      <trkpt lat="35.898441180" lon="-106.486666400">
        <ele>2617.100</ele>
        <time>2019-07-14T21:55:40Z</time>
      </trkpt>
      <trkpt lat="35.898521620" lon="-106.486612850">
        <ele>2618.200</ele>
        <time>2019-07-14T21:55:41Z</time>
      </trkpt>
      <trkpt lat="35.898610960" lon="-106.486599490">
        <ele>2617.600</ele>
        <time>2019-07-14T21:55:42Z</time>
      </trkpt>
      <trkpt lat="35.898656050" lon="-106.486555260">
        <ele>2618.100</ele>
        <time>2019-07-14T21:55:43Z</time>
      </trkpt>
      <trkpt lat="35.898709400" lon="-106.486517790">
        <ele>2621.200</ele>
        <time>2019-07-14T21:55:44Z</time>
      </trkpt>
      <trkpt lat="35.898780580" lon="-106.486485370">
        <ele>2621.700</ele>
        <time>2019-07-14T21:55:45Z</time>
      </trkpt>
      <trkpt lat="35.898852220" lon="-106.486493090">
        <ele>2620.000</ele>
        <time>2019-07-14T21:55:46Z</time>
      </trkpt>
      <trkpt lat="35.898936950" lon="-106.486483660">
        <ele>2618.600</ele>
        <time>2019-07-14T21:55:47Z</time>
      </trkpt>
      <trkpt lat="35.899029620" lon="-106.486485000">
        <ele>2618.400</ele>
        <time>2019-07-14T21:55:48Z</time>
      </trkpt>
      <trkpt lat="35.899123080" lon="-106.486477970">
        <ele>2619.900</ele>
        <time>2019-07-14T21:55:49Z</time>
      </trkpt>
      <trkpt lat="35.899207110" lon="-106.486460620">
        <ele>2619.800</ele>
        <time>2019-07-14T21:55:50Z</time>
      </trkpt>
      <trkpt lat="35.899300980" lon="-106.486456300">
        <ele>2620.800</ele>
        <time>2019-07-14T21:55:51Z</time>
      </trkpt>
      <trkpt lat="35.899393600" lon="-106.486442570">
        <ele>2621.500</ele>
        <time>2019-07-14T21:55:52Z</time>
      </trkpt>
      <trkpt lat="35.899478470" lon="-106.486440060">
        <ele>2621.300</ele>
        <time>2019-07-14T21:55:53Z</time>
      </trkpt>
      <trkpt lat="35.899546040" lon="-106.486418170">
        <ele>2623.800</ele>
        <time>2019-07-14T21:55:54Z</time>
      </trkpt>
      <trkpt lat="35.899626320" lon="-106.486403420">
        <ele>2624.100</ele>
        <time>2019-07-14T21:55:55Z</time>
      </trkpt>
      <trkpt lat="35.899721160" lon="-106.486400700">
        <ele>2623.100</ele>
        <time>2019-07-14T21:55:56Z</time>
      </trkpt>
      <trkpt lat="35.899807880" lon="-106.486395300">
        <ele>2622.600</ele>
        <time>2019-07-14T21:55:57Z</time>
      </trkpt>
      <trkpt lat="35.899900900" lon="-106.486411920">
        <ele>2621.100</ele>
        <time>2019-07-14T21:55:58Z</time>
      </trkpt>
      <trkpt lat="35.899981740" lon="-106.486388240">
        <ele>2622.800</ele>
        <time>2019-07-14T21:55:59Z</time>
      </trkpt>
      <trkpt lat="35.900067180" lon="-106.486382670">
        <ele>2621.900</ele>
        <time>2019-07-14T21:56:00Z</time>
      </trkpt>
      <trkpt lat="35.900158600" lon="-106.486362790">
        <ele>2622.000</ele>
        <time>2019-07-14T21:56:01Z</time>
      </trkpt>
      <trkpt lat="35.900221380" lon="-106.486340090">
        <ele>2622.600</ele>
        <time>2019-07-14T21:56:02Z</time>
      </trkpt>
      <trkpt lat="35.900294780" lon="-106.486312870">
        <ele>2622.100</ele>
        <time>2019-07-14T21:56:03Z</time>
      </trkpt>
      <trkpt lat="35.900392090" lon="-106.486297030">
        <ele>2618.600</ele>
        <time>2019-07-14T21:56:04Z</time>
      </trkpt>
      <trkpt lat="35.900453580" lon="-106.486259530">
        <ele>2617.600</ele>
        <time>2019-07-14T21:56:05Z</time>
      </trkpt>
      <trkpt lat="35.900528720" lon="-106.486241730">
        <ele>2617.100</ele>
        <time>2019-07-14T21:56:06Z</time>
      </trkpt>
      <trkpt lat="35.900611730" lon="-106.486218300">
        <ele>2617.100</ele>
        <time>2019-07-14T21:56:07Z</time>
      </trkpt>
      <trkpt lat="35.900692610" lon="-106.486197230">
        <ele>2616.900</ele>
        <time>2019-07-14T21:56:08Z</time>
      </trkpt>
      <trkpt lat="35.900784490" lon="-106.486184180">
        <ele>2616.900</ele>
        <time>2019-07-14T21:56:09Z</time>
      </trkpt>
      <trkpt lat="35.900861070" lon="-106.486178830">
        <ele>2617.600</ele>
        <time>2019-07-14T21:56:10Z</time>
      </trkpt>
      <trkpt lat="35.900934930" lon="-106.486159790">
        <ele>2617.400</ele>
        <time>2019-07-14T21:56:11Z</time>
      </trkpt>
      <trkpt lat="35.901000190" lon="-106.486164700">
        <ele>2616.100</ele>
        <time>2019-07-14T21:56:12Z</time>
      </trkpt>
      <trkpt lat="35.901071500" lon="-106.486137090">
        <ele>2617.000</ele>
        <time>2019-07-14T21:56:14Z</time>
      </trkpt>
      <trkpt lat="35.901112240" lon="-106.486123320">
        <ele>2615.300</ele>
        <time>2019-07-14T21:56:15Z</time>
      </trkpt>
      <trkpt lat="35.901152150" lon="-106.486102310">
        <ele>2615.000</ele>
        <time>2019-07-14T21:56:16Z</time>
      </trkpt>
      <trkpt lat="35.901193560" lon="-106.486062220">
        <ele>2614.700</ele>
        <time>2019-07-14T21:56:17Z</time>
      </trkpt>
      <trkpt lat="35.901237060" lon="-106.486031210">
        <ele>2615.400</ele>
        <time>2019-07-14T21:56:18Z</time>
      </trkpt>
      <trkpt lat="35.901283490" lon="-106.485983780">
        <ele>2616.000</ele>
        <time>2019-07-14T21:56:19Z</time>
      </trkpt>
      <trkpt lat="35.901310630" lon="-106.485933910">
        <ele>2615.700</ele>
        <time>2019-07-14T21:56:20Z</time>
      </trkpt>
      <trkpt lat="35.901366350" lon="-106.485899500">
        <ele>2615.300</ele>
        <time>2019-07-14T21:56:21Z</time>
      </trkpt>
      <trkpt lat="35.901392900" lon="-106.485848670">
        <ele>2615.200</ele>
        <time>2019-07-14T21:56:22Z</time>
      </trkpt>
      <trkpt lat="35.901435170" lon="-106.485806950">
        <ele>2615.500</ele>
        <time>2019-07-14T21:56:23Z</time>
      </trkpt>
      <trkpt lat="35.901466940" lon="-106.485755660">
        <ele>2614.700</ele>
        <time>2019-07-14T21:56:24Z</time>
      </trkpt>
      <trkpt lat="35.901502570" lon="-106.485708770">
        <ele>2613.900</ele>
        <time>2019-07-14T21:56:25Z</time>
      </trkpt>
      <trkpt lat="35.901541480" lon="-106.485660210">
        <ele>2614.100</ele>
        <time>2019-07-14T21:56:26Z</time>
      </trkpt>
      <trkpt lat="35.901585790" lon="-106.485615020">
        <ele>2612.500</ele>
        <time>2019-07-14T21:56:27Z</time>
      </trkpt>
      <trkpt lat="35.901623440" lon="-106.485553550">
        <ele>2613.500</ele>
        <time>2019-07-14T21:56:28Z</time>
      </trkpt>
      <trkpt lat="35.901663910" lon="-106.485496180">
        <ele>2612.600</ele>
        <time>2019-07-14T21:56:29Z</time>
      </trkpt>
      <trkpt lat="35.901695250" lon="-106.485436590">
        <ele>2612.400</ele>
        <time>2019-07-14T21:56:30Z</time>
      </trkpt>
      <trkpt lat="35.901753250" lon="-106.485384190">
        <ele>2612.800</ele>
        <time>2019-07-14T21:56:31Z</time>
      </trkpt>
      <trkpt lat="35.901742990" lon="-106.485310000">
        <ele>2610.000</ele>
        <time>2019-07-14T21:56:32Z</time>
      </trkpt>
      <trkpt lat="35.901746490" lon="-106.485243850">
        <ele>2611.800</ele>
        <time>2019-07-14T21:56:33Z</time>
      </trkpt>
      <trkpt lat="35.901799240" lon="-106.485174000">
        <ele>2611.700</ele>
        <time>2019-07-14T21:56:34Z</time>
      </trkpt>
      <trkpt lat="35.901851640" lon="-106.485117330">
        <ele>2612.700</ele>
        <time>2019-07-14T21:56:35Z</time>
      </trkpt>
      <trkpt lat="35.901894490" lon="-106.485069250">
        <ele>2613.100</ele>
        <time>2019-07-14T21:56:36Z</time>
      </trkpt>
      <trkpt lat="35.901963610" lon="-106.485026920">
        <ele>2613.400</ele>
        <time>2019-07-14T21:56:37Z</time>
      </trkpt>
      <trkpt lat="35.902022480" lon="-106.484985210">
        <ele>2615.100</ele>
        <time>2019-07-14T21:56:38Z</time>
      </trkpt>
      <trkpt lat="35.902095510" lon="-106.484953510">
        <ele>2615.400</ele>
        <time>2019-07-14T21:56:39Z</time>
      </trkpt>
      <trkpt lat="35.902168980" lon="-106.484929880">
        <ele>2616.000</ele>
        <time>2019-07-14T21:56:40Z</time>
      </trkpt>
      <trkpt lat="35.902241580" lon="-106.484911590">
        <ele>2616.000</ele>
        <time>2019-07-14T21:56:41Z</time>
      </trkpt>
      <trkpt lat="35.902317890" lon="-106.484891740">
        <ele>2616.500</ele>
        <time>2019-07-14T21:56:42Z</time>
      </trkpt>
      <trkpt lat="35.902405530" lon="-106.484873470">
        <ele>2617.100</ele>
        <time>2019-07-14T21:56:43Z</time>
      </trkpt>
      <trkpt lat="35.902485830" lon="-106.484873760">
        <ele>2618.700</ele>
        <time>2019-07-14T21:56:44Z</time>
      </trkpt>
      <trkpt lat="35.902568210" lon="-106.484859910">
        <ele>2618.500</ele>
        <time>2019-07-14T21:56:45Z</time>
      </trkpt>
      <trkpt lat="35.902650480" lon="-106.484850920">
        <ele>2618.200</ele>
        <time>2019-07-14T21:56:46Z</time>
      </trkpt>
      <trkpt lat="35.902732990" lon="-106.484844760">
        <ele>2618.000</ele>
        <time>2019-07-14T21:56:47Z</time>
      </trkpt>
      <trkpt lat="35.902805520" lon="-106.484817160">
        <ele>2618.700</ele>
        <time>2019-07-14T21:56:48Z</time>
      </trkpt>
      <trkpt lat="35.902889010" lon="-106.484802680">
        <ele>2618.600</ele>
        <time>2019-07-14T21:56:49Z</time>
      </trkpt>
      <trkpt lat="35.902978030" lon="-106.484768690">
        <ele>2618.200</ele>
        <time>2019-07-14T21:56:50Z</time>
      </trkpt>
      <trkpt lat="35.903069190" lon="-106.484741610">
        <ele>2618.400</ele>
        <time>2019-07-14T21:56:51Z</time>
      </trkpt>
      <trkpt lat="35.903151200" lon="-106.484728490">
        <ele>2618.300</ele>
        <time>2019-07-14T21:56:52Z</time>
      </trkpt>
      <trkpt lat="35.903245780" lon="-106.484712910">
        <ele>2619.000</ele>
        <time>2019-07-14T21:56:53Z</time>
      </trkpt>
      <trkpt lat="35.903336580" lon="-106.484711170">
        <ele>2618.900</ele>
        <time>2019-07-14T21:56:54Z</time>
      </trkpt>
      <trkpt lat="35.903423470" lon="-106.484708510">
        <ele>2617.600</ele>
        <time>2019-07-14T21:56:55Z</time>
      </trkpt>
      <trkpt lat="35.903500400" lon="-106.484695920">
        <ele>2617.400</ele>
        <time>2019-07-14T21:56:56Z</time>
      </trkpt>
      <trkpt lat="35.903592140" lon="-106.484677190">
        <ele>2618.400</ele>
        <time>2019-07-14T21:56:57Z</time>
      </trkpt>
      <trkpt lat="35.903682290" lon="-106.484665150">
        <ele>2618.500</ele>
        <time>2019-07-14T21:56:58Z</time>
      </trkpt>
      <trkpt lat="35.903764100" lon="-106.484635070">
        <ele>2619.500</ele>
        <time>2019-07-14T21:56:59Z</time>
      </trkpt>
      <trkpt lat="35.903832110" lon="-106.484609200">
        <ele>2619.500</ele>
        <time>2019-07-14T21:57:00Z</time>
      </trkpt>
      <trkpt lat="35.903914750" lon="-106.484594070">
        <ele>2619.900</ele>
        <time>2019-07-14T21:57:01Z</time>
      </trkpt>
      <trkpt lat="35.903987170" lon="-106.484572900">
        <ele>2620.200</ele>
        <time>2019-07-14T21:57:02Z</time>
      </trkpt>
      <trkpt lat="35.904048200" lon="-106.484557670">
        <ele>2619.900</ele>
        <time>2019-07-14T21:57:03Z</time>
      </trkpt>
      <trkpt lat="35.904112320" lon="-106.484561410">
        <ele>2620.200</ele>
        <time>2019-07-14T21:57:04Z</time>
      </trkpt>
      <trkpt lat="35.904162220" lon="-106.484543690">
        <ele>2621.700</ele>
        <time>2019-07-14T21:57:05Z</time>
      </trkpt>
      <trkpt lat="35.904219560" lon="-106.484534880">
        <ele>2622.000</ele>
        <time>2019-07-14T21:57:06Z</time>
      </trkpt>
      <trkpt lat="35.904262790" lon="-106.484532730">
        <ele>2621.800</ele>
        <time>2019-07-14T21:57:07Z</time>
      </trkpt>
      <trkpt lat="35.904313040" lon="-106.484526350">
        <ele>2622.000</ele>
        <time>2019-07-14T21:57:08Z</time>
      </trkpt>
      <trkpt lat="35.904351850" lon="-106.484517380">
        <ele>2622.400</ele>
        <time>2019-07-14T21:57:09Z</time>
      </trkpt>
      <trkpt lat="35.904398130" lon="-106.484544570">
        <ele>2621.200</ele>
        <time>2019-07-14T21:57:10Z</time>
      </trkpt>
      <trkpt lat="35.904447240" lon="-106.484536180">
        <ele>2621.300</ele>
        <time>2019-07-14T21:57:11Z</time>
      </trkpt>
      <trkpt lat="35.904489620" lon="-106.484517890">
        <ele>2621.300</ele>
        <time>2019-07-14T21:57:12Z</time>
      </trkpt>
      <trkpt lat="35.904529470" lon="-106.484497560">
        <ele>2621.500</ele>
        <time>2019-07-14T21:57:13Z</time>
      </trkpt>
      <trkpt lat="35.904582900" lon="-106.484496770">
        <ele>2620.100</ele>
        <time>2019-07-14T21:57:14Z</time>
      </trkpt>
      <trkpt lat="35.904636040" lon="-106.484492050">
        <ele>2620.200</ele>
        <time>2019-07-14T21:57:15Z</time>
      </trkpt>
      <trkpt lat="35.904688720" lon="-106.484479760">
        <ele>2621.000</ele>
        <time>2019-07-14T21:57:16Z</time>
      </trkpt>
      <trkpt lat="35.904740910" lon="-106.484471190">
        <ele>2621.200</ele>
        <time>2019-07-14T21:57:17Z</time>
      </trkpt>
      <trkpt lat="35.904798930" lon="-106.484482980">
        <ele>2621.800</ele>
        <time>2019-07-14T21:57:18Z</time>
      </trkpt>
      <trkpt lat="35.904852540" lon="-106.484495310">
        <ele>2622.800</ele>
        <time>2019-07-14T21:57:19Z</time>
      </trkpt>
      <trkpt lat="35.904928950" lon="-106.484543050">
        <ele>2619.600</ele>
        <time>2019-07-14T21:57:20Z</time>
      </trkpt>
      <trkpt lat="35.904979250" lon="-106.484556530">
        <ele>2620.000</ele>
        <time>2019-07-14T21:57:21Z</time>
      </trkpt>
      <trkpt lat="35.905055660" lon="-106.484580610">
        <ele>2621.500</ele>
        <time>2019-07-14T21:57:23Z</time>
      </trkpt>
      <trkpt lat="35.905092960" lon="-106.484586870">
        <ele>2621.400</ele>
        <time>2019-07-14T21:57:24Z</time>
      </trkpt>
      <trkpt lat="35.905128460" lon="-106.484603850">
        <ele>2621.800</ele>
        <time>2019-07-14T21:57:26Z</time>
      </trkpt>
      <trkpt lat="35.905158720" lon="-106.484631190">
        <ele>2628.100</ele>
        <time>2019-07-14T21:57:35Z</time>
      </trkpt>
      <trkpt lat="35.905192660" lon="-106.484651640">
        <ele>2628.000</ele>
        <time>2019-07-14T21:57:36Z</time>
      </trkpt>
      <trkpt lat="35.905268090" lon="-106.484665260">
        <ele>2626.300</ele>
        <time>2019-07-14T21:57:38Z</time>
      </trkpt>
      <trkpt lat="35.905309500" lon="-106.484680400">
        <ele>2627.000</ele>
        <time>2019-07-14T21:57:39Z</time>
      </trkpt>
      <trkpt lat="35.905350700" lon="-106.484690500">
        <ele>2626.900</ele>
        <time>2019-07-14T21:57:40Z</time>
      </trkpt>
      <trkpt lat="35.905399620" lon="-106.484689910">
        <ele>2626.700</ele>
        <time>2019-07-14T21:57:41Z</time>
      </trkpt>
      <trkpt lat="35.905439550" lon="-106.484714710">
        <ele>2626.300</ele>
        <time>2019-07-14T21:57:42Z</time>
      </trkpt>
      <trkpt lat="35.905484520" lon="-106.484727250">
        <ele>2626.600</ele>
        <time>2019-07-14T21:57:43Z</time>
      </trkpt>
      <trkpt lat="35.905540680" lon="-106.484743550">
        <ele>2625.800</ele>
        <time>2019-07-14T21:57:44Z</time>
      </trkpt>
      <trkpt lat="35.905590910" lon="-106.484751170">
        <ele>2625.400</ele>
        <time>2019-07-14T21:57:45Z</time>
      </trkpt>
      <trkpt lat="35.905645370" lon="-106.484765140">
        <ele>2625.100</ele>
        <time>2019-07-14T21:57:46Z</time>
      </trkpt>
      <trkpt lat="35.905693570" lon="-106.484788540">
        <ele>2624.900</ele>
        <time>2019-07-14T21:57:47Z</time>
      </trkpt>
      <trkpt lat="35.905760280" lon="-106.484808220">
        <ele>2623.700</ele>
        <time>2019-07-14T21:57:48Z</time>
      </trkpt>
      <trkpt lat="35.905810500" lon="-106.484820100">
        <ele>2622.900</ele>
        <time>2019-07-14T21:57:49Z</time>
      </trkpt>
      <trkpt lat="35.905854730" lon="-106.484843190">
        <ele>2622.200</ele>
        <time>2019-07-14T21:57:50Z</time>
      </trkpt>
      <trkpt lat="35.905908710" lon="-106.484872430">
        <ele>2622.500</ele>
        <time>2019-07-14T21:57:51Z</time>
      </trkpt>
      <trkpt lat="35.905949580" lon="-106.484888840">
        <ele>2622.400</ele>
        <time>2019-07-14T21:57:52Z</time>
      </trkpt>
      <trkpt lat="35.906005930" lon="-106.484919890">
        <ele>2621.500</ele>
        <time>2019-07-14T21:57:53Z</time>
      </trkpt>
      <trkpt lat="35.906065190" lon="-106.484928730">
        <ele>2621.000</ele>
        <time>2019-07-14T21:57:54Z</time>
      </trkpt>
      <trkpt lat="35.906123260" lon="-106.484943090">
        <ele>2620.700</ele>
        <time>2019-07-14T21:57:55Z</time>
      </trkpt>
      <trkpt lat="35.906176800" lon="-106.484961080">
        <ele>2620.600</ele>
        <time>2019-07-14T21:57:56Z</time>
      </trkpt>
      <trkpt lat="35.906232010" lon="-106.484981990">
        <ele>2620.600</ele>
        <time>2019-07-14T21:57:57Z</time>
      </trkpt>
      <trkpt lat="35.906282350" lon="-106.484999390">
        <ele>2620.500</ele>
        <time>2019-07-14T21:57:58Z</time>
      </trkpt>
      <trkpt lat="35.906331370" lon="-106.485014680">
        <ele>2620.800</ele>
        <time>2019-07-14T21:57:59Z</time>
      </trkpt>
      <trkpt lat="35.906391240" lon="-106.485034130">
        <ele>2620.800</ele>
        <time>2019-07-14T21:58:00Z</time>
      </trkpt>
      <trkpt lat="35.906446930" lon="-106.485047940">
        <ele>2620.400</ele>
        <time>2019-07-14T21:58:01Z</time>
      </trkpt>
      <trkpt lat="35.906499350" lon="-106.485080340">
        <ele>2620.900</ele>
        <time>2019-07-14T21:58:02Z</time>
      </trkpt>
      <trkpt lat="35.906556810" lon="-106.485117300">
        <ele>2620.600</ele>
        <time>2019-07-14T21:58:03Z</time>
      </trkpt>
      <trkpt lat="35.906616510" lon="-106.485156090">
        <ele>2620.000</ele>
        <time>2019-07-14T21:58:04Z</time>
      </trkpt>
      <trkpt lat="35.906665950" lon="-106.485192940">
        <ele>2621.700</ele>
        <time>2019-07-14T21:58:05Z</time>
      </trkpt>
      <trkpt lat="35.906721440" lon="-106.485224340">
        <ele>2623.200</ele>
        <time>2019-07-14T21:58:06Z</time>
      </trkpt>
      <trkpt lat="35.906789160" lon="-106.485250490">
        <ele>2623.000</ele>
        <time>2019-07-14T21:58:07Z</time>
      </trkpt>
      <trkpt lat="35.906852000" lon="-106.485273340">
        <ele>2623.300</ele>
        <time>2019-07-14T21:58:08Z</time>
      </trkpt>
      <trkpt lat="35.906924950" lon="-106.485301960">
        <ele>2622.300</ele>
        <time>2019-07-14T21:58:09Z</time>
      </trkpt>
      <trkpt lat="35.906992920" lon="-106.485338570">
        <ele>2621.900</ele>
        <time>2019-07-14T21:58:10Z</time>
      </trkpt>
      <trkpt lat="35.907055320" lon="-106.485372930">
        <ele>2621.700</ele>
        <time>2019-07-14T21:58:11Z</time>
      </trkpt>
      <trkpt lat="35.907125160" lon="-106.485403870">
        <ele>2621.400</ele>
        <time>2019-07-14T21:58:12Z</time>
      </trkpt>
      <trkpt lat="35.907195410" lon="-106.485444270">
        <ele>2621.300</ele>
        <time>2019-07-14T21:58:13Z</time>
      </trkpt>
      <trkpt lat="35.907273300" lon="-106.485484950">
        <ele>2621.800</ele>
        <time>2019-07-14T21:58:14Z</time>
      </trkpt>
      <trkpt lat="35.907339890" lon="-106.485520310">
        <ele>2621.500</ele>
        <time>2019-07-14T21:58:15Z</time>
      </trkpt>
      <trkpt lat="35.907412630" lon="-106.485548220">
        <ele>2621.400</ele>
        <time>2019-07-14T21:58:16Z</time>
      </trkpt>
      <trkpt lat="35.907481220" lon="-106.485568150">
        <ele>2622.200</ele>
        <time>2019-07-14T21:58:17Z</time>
      </trkpt>
      <trkpt lat="35.907554060" lon="-106.485586380">
        <ele>2621.800</ele>
        <time>2019-07-14T21:58:18Z</time>
      </trkpt>
      <trkpt lat="35.907621500" lon="-106.485605660">
        <ele>2621.600</ele>
        <time>2019-07-14T21:58:19Z</time>
      </trkpt>
      <trkpt lat="35.907689070" lon="-106.485621690">
        <ele>2621.500</ele>
        <time>2019-07-14T21:58:20Z</time>
      </trkpt>
      <trkpt lat="35.907761530" lon="-106.485633840">
        <ele>2621.500</ele>
        <time>2019-07-14T21:58:21Z</time>
      </trkpt>
      <trkpt lat="35.907829640" lon="-106.485637920">
        <ele>2622.700</ele>
        <time>2019-07-14T21:58:22Z</time>
      </trkpt>
      <trkpt lat="35.907903310" lon="-106.485624910">
        <ele>2622.000</ele>
        <time>2019-07-14T21:58:23Z</time>
      </trkpt>
      <trkpt lat="35.907963760" lon="-106.485609060">
        <ele>2621.800</ele>
        <time>2019-07-14T21:58:24Z</time>
      </trkpt>
      <trkpt lat="35.908032230" lon="-106.485595550">
        <ele>2621.300</ele>
        <time>2019-07-14T21:58:25Z</time>
      </trkpt>
      <trkpt lat="35.908088490" lon="-106.485594530">
        <ele>2621.400</ele>
        <time>2019-07-14T21:58:26Z</time>
      </trkpt>
      <trkpt lat="35.908154100" lon="-106.485591390">
        <ele>2622.100</ele>
        <time>2019-07-14T21:58:27Z</time>
      </trkpt>
      <trkpt lat="35.908218060" lon="-106.485573360">
        <ele>2622.000</ele>
        <time>2019-07-14T21:58:28Z</time>
      </trkpt>
      <trkpt lat="35.908290270" lon="-106.485566180">
        <ele>2621.900</ele>
        <time>2019-07-14T21:58:29Z</time>
      </trkpt>
      <trkpt lat="35.908347140" lon="-106.485545650">
        <ele>2623.300</ele>
        <time>2019-07-14T21:58:30Z</time>
      </trkpt>
      <trkpt lat="35.908415080" lon="-106.485540100">
        <ele>2622.700</ele>
        <time>2019-07-14T21:58:31Z</time>
      </trkpt>
      <trkpt lat="35.908478100" lon="-106.485537940">
        <ele>2624.000</ele>
        <time>2019-07-14T21:58:32Z</time>
      </trkpt>
      <trkpt lat="35.908550520" lon="-106.485548100">
        <ele>2624.200</ele>
        <time>2019-07-14T21:58:33Z</time>
      </trkpt>
      <trkpt lat="35.908622820" lon="-106.485532180">
        <ele>2624.500</ele>
        <time>2019-07-14T21:58:34Z</time>
      </trkpt>
      <trkpt lat="35.908685640" lon="-106.485502100">
        <ele>2624.600</ele>
        <time>2019-07-14T21:58:35Z</time>
      </trkpt>
      <trkpt lat="35.908743100" lon="-106.485455100">
        <ele>2625.200</ele>
        <time>2019-07-14T21:58:36Z</time>
      </trkpt>
      <trkpt lat="35.908834370" lon="-106.485502340">
        <ele>2624.100</ele>
        <time>2019-07-14T21:58:37Z</time>
      </trkpt>
      <trkpt lat="35.908888810" lon="-106.485474180">
        <ele>2624.900</ele>
        <time>2019-07-14T21:58:38Z</time>
      </trkpt>
      <trkpt lat="35.908941470" lon="-106.485442070">
        <ele>2626.200</ele>
        <time>2019-07-14T21:58:39Z</time>
      </trkpt>
      <trkpt lat="35.909009060" lon="-106.485418400">
        <ele>2625.500</ele>
        <time>2019-07-14T21:58:40Z</time>
      </trkpt>
      <trkpt lat="35.909070540" lon="-106.485386270">
        <ele>2625.200</ele>
        <time>2019-07-14T21:58:41Z</time>
      </trkpt>
      <trkpt lat="35.909133060" lon="-106.485369690">
        <ele>2624.700</ele>
        <time>2019-07-14T21:58:42Z</time>
      </trkpt>
      <trkpt lat="35.909195290" lon="-106.485353720">
        <ele>2625.300</ele>
        <time>2019-07-14T21:58:43Z</time>
      </trkpt>
      <trkpt lat="35.909253130" lon="-106.485318160">
        <ele>2625.900</ele>
        <time>2019-07-14T21:58:44Z</time>
      </trkpt>
      <trkpt lat="35.909317700" lon="-106.485305780">
        <ele>2607.200</ele>
        <time>2019-07-14T21:58:45Z</time>
      </trkpt>
      <trkpt lat="35.909393290" lon="-106.485284470">
        <ele>2615.000</ele>
        <time>2019-07-14T21:58:46Z</time>
      </trkpt>
      <trkpt lat="35.909455950" lon="-106.485264940">
        <ele>2617.000</ele>
        <time>2019-07-14T21:58:47Z</time>
      </trkpt>
      <trkpt lat="35.909535930" lon="-106.485254890">
        <ele>2618.500</ele>
        <time>2019-07-14T21:58:48Z</time>
      </trkpt>
      <trkpt lat="35.909598190" lon="-106.485231780">
        <ele>2619.900</ele>
        <time>2019-07-14T21:58:49Z</time>
      </trkpt>
      <trkpt lat="35.909653180" lon="-106.485206460">
        <ele>2619.000</ele>
        <time>2019-07-14T21:58:50Z</time>
      </trkpt>
      <trkpt lat="35.909727160" lon="-106.485188700">
        <ele>2620.400</ele>
        <time>2019-07-14T21:58:51Z</time>
      </trkpt>
      <trkpt lat="35.909762020" lon="-106.485146410">
        <ele>2620.700</ele>
        <time>2019-07-14T21:58:53Z</time>
      </trkpt>
      <trkpt lat="35.909798050" lon="-106.485156070">
        <ele>2620.500</ele>
        <time>2019-07-14T21:58:54Z</time>
      </trkpt>
      <trkpt lat="35.909867850" lon="-106.485133000">
        <ele>2621.900</ele>
        <time>2019-07-14T21:58:56Z</time>
      </trkpt>
      <trkpt lat="35.909919810" lon="-106.485122800">
        <ele>2622.400</ele>
        <time>2019-07-14T21:58:57Z</time>
      </trkpt>
      <trkpt lat="35.909964460" lon="-106.485107480">
        <ele>2622.900</ele>
        <time>2019-07-14T21:58:58Z</time>
      </trkpt>
      <trkpt lat="35.910012500" lon="-106.485098900">
        <ele>2622.500</ele>
        <time>2019-07-14T21:58:59Z</time>
      </trkpt>
      <trkpt lat="35.910057170" lon="-106.485078570">
        <ele>2623.500</ele>
        <time>2019-07-14T21:59:00Z</time>
      </trkpt>
      <trkpt lat="35.910123660" lon="-106.485069410">
        <ele>2623.900</ele>
        <time>2019-07-14T21:59:01Z</time>
      </trkpt>
      <trkpt lat="35.910176140" lon="-106.485047310">
        <ele>2623.900</ele>
        <time>2019-07-14T21:59:02Z</time>
      </trkpt>
      <trkpt lat="35.910224750" lon="-106.485032660">
        <ele>2626.600</ele>
        <time>2019-07-14T21:59:03Z</time>
      </trkpt>
      <trkpt lat="35.910271370" lon="-106.485013010">
        <ele>2626.400</ele>
        <time>2019-07-14T21:59:04Z</time>
      </trkpt>
      <trkpt lat="35.910322950" lon="-106.485015960">
        <ele>2627.000</ele>
        <time>2019-07-14T21:59:05Z</time>
      </trkpt>
      <trkpt lat="35.910367800" lon="-106.485010660">
        <ele>2627.100</ele>
        <time>2019-07-14T21:59:06Z</time>
      </trkpt>
      <trkpt lat="35.910413300" lon="-106.485002530">
        <ele>2627.500</ele>
        <time>2019-07-14T21:59:07Z</time>
      </trkpt>
      <trkpt lat="35.910458820" lon="-106.485005370">
        <ele>2627.000</ele>
        <time>2019-07-14T21:59:08Z</time>
      </trkpt>
      <trkpt lat="35.910537640" lon="-106.484998180">
        <ele>2628.000</ele>
        <time>2019-07-14T21:59:10Z</time>
      </trkpt>
      <trkpt lat="35.910598050" lon="-106.484999500">
        <ele>2629.500</ele>
        <time>2019-07-14T21:59:11Z</time>
      </trkpt>
      <trkpt lat="35.910647560" lon="-106.484990550">
        <ele>2629.000</ele>
        <time>2019-07-14T21:59:12Z</time>
      </trkpt>
      <trkpt lat="35.910693790" lon="-106.484984930">
        <ele>2629.100</ele>
        <time>2019-07-14T21:59:13Z</time>
      </trkpt>
      <trkpt lat="35.910751340" lon="-106.484976200">
        <ele>2630.100</ele>
        <time>2019-07-14T21:59:14Z</time>
      </trkpt>
      <trkpt lat="35.910813360" lon="-106.484962680">
        <ele>2631.400</ele>
        <time>2019-07-14T21:59:15Z</time>
      </trkpt>
      <trkpt lat="35.910880220" lon="-106.484958610">
        <ele>2631.500</ele>
        <time>2019-07-14T21:59:16Z</time>
      </trkpt>
      <trkpt lat="35.910932620" lon="-106.484929910">
        <ele>2631.300</ele>
        <time>2019-07-14T21:59:17Z</time>
      </trkpt>
      <trkpt lat="35.910991820" lon="-106.484902850">
        <ele>2631.500</ele>
        <time>2019-07-14T21:59:18Z</time>
      </trkpt>
      <trkpt lat="35.911071650" lon="-106.484903640">
        <ele>2630.900</ele>
        <time>2019-07-14T21:59:19Z</time>
      </trkpt>
      <trkpt lat="35.911131120" lon="-106.484886690">
        <ele>2629.600</ele>
        <time>2019-07-14T21:59:20Z</time>
      </trkpt>
      <trkpt lat="35.911184910" lon="-106.484864730">
        <ele>2628.100</ele>
        <time>2019-07-14T21:59:21Z</time>
      </trkpt>
      <trkpt lat="35.911254910" lon="-106.484833150">
        <ele>2627.900</ele>
        <time>2019-07-14T21:59:22Z</time>
      </trkpt>
      <trkpt lat="35.911319550" lon="-106.484800900">
        <ele>2627.400</ele>
        <time>2019-07-14T21:59:23Z</time>
      </trkpt>
      <trkpt lat="35.911388810" lon="-106.484772210">
        <ele>2627.100</ele>
        <time>2019-07-14T21:59:24Z</time>
      </trkpt>
      <trkpt lat="35.911467790" lon="-106.484744730">
        <ele>2626.400</ele>
        <time>2019-07-14T21:59:25Z</time>
      </trkpt>
      <trkpt lat="35.911529000" lon="-106.484707790">
        <ele>2625.900</ele>
        <time>2019-07-14T21:59:26Z</time>
      </trkpt>
      <trkpt lat="35.911587720" lon="-106.484661670">
        <ele>2626.200</ele>
        <time>2019-07-14T21:59:27Z</time>
      </trkpt>
      <trkpt lat="35.911659330" lon="-106.484622380">
        <ele>2626.400</ele>
        <time>2019-07-14T21:59:28Z</time>
      </trkpt>
      <trkpt lat="35.911747750" lon="-106.484583120">
        <ele>2626.500</ele>
        <time>2019-07-14T21:59:29Z</time>
      </trkpt>
      <trkpt lat="35.911806870" lon="-106.484552670">
        <ele>2626.600</ele>
        <time>2019-07-14T21:59:30Z</time>
      </trkpt>
      <trkpt lat="35.911857640" lon="-106.484532490">
        <ele>2626.600</ele>
        <time>2019-07-14T21:59:31Z</time>
      </trkpt>
      <trkpt lat="35.911911490" lon="-106.484527200">
        <ele>2627.500</ele>
        <time>2019-07-14T21:59:32Z</time>
      </trkpt>
      <trkpt lat="35.912007730" lon="-106.484538130">
        <ele>2627.700</ele>
        <time>2019-07-14T21:59:34Z</time>
      </trkpt>
      <trkpt lat="35.912051380" lon="-106.484553680">
        <ele>2626.500</ele>
        <time>2019-07-14T21:59:35Z</time>
      </trkpt>
      <trkpt lat="35.912103580" lon="-106.484573980">
        <ele>2627.000</ele>
        <time>2019-07-14T21:59:36Z</time>
      </trkpt>
      <trkpt lat="35.912160280" lon="-106.484599880">
        <ele>2627.000</ele>
        <time>2019-07-14T21:59:37Z</time>
      </trkpt>
      <trkpt lat="35.912215820" lon="-106.484626370">
        <ele>2627.500</ele>
        <time>2019-07-14T21:59:38Z</time>
      </trkpt>
      <trkpt lat="35.912273800" lon="-106.484654150">
        <ele>2627.000</ele>
        <time>2019-07-14T21:59:39Z</time>
      </trkpt>
      <trkpt lat="35.912332530" lon="-106.484690220">
        <ele>2627.900</ele>
        <time>2019-07-14T21:59:40Z</time>
      </trkpt>
      <trkpt lat="35.912394860" lon="-106.484725980">
        <ele>2627.600</ele>
        <time>2019-07-14T21:59:41Z</time>
      </trkpt>
      <trkpt lat="35.912449530" lon="-106.484767240">
        <ele>2629.300</ele>
        <time>2019-07-14T21:59:42Z</time>
      </trkpt>
      <trkpt lat="35.912515600" lon="-106.484812240">
        <ele>2628.800</ele>
        <time>2019-07-14T21:59:43Z</time>
      </trkpt>
      <trkpt lat="35.912576560" lon="-106.484854130">
        <ele>2629.600</ele>
        <time>2019-07-14T21:59:44Z</time>
      </trkpt>
      <trkpt lat="35.912639370" lon="-106.484905580">
        <ele>2630.500</ele>
        <time>2019-07-14T21:59:45Z</time>
      </trkpt>
      <trkpt lat="35.912701650" lon="-106.484956510">
        <ele>2630.700</ele>
        <time>2019-07-14T21:59:46Z</time>
      </trkpt>
      <trkpt lat="35.912768250" lon="-106.485006910">
        <ele>2630.900</ele>
        <time>2019-07-14T21:59:47Z</time>
      </trkpt>
      <trkpt lat="35.912831720" lon="-106.485052130">
        <ele>2631.400</ele>
        <time>2019-07-14T21:59:48Z</time>
      </trkpt>
      <trkpt lat="35.912895310" lon="-106.485098960">
        <ele>2632.000</ele>
        <time>2019-07-14T21:59:49Z</time>
      </trkpt>
      <trkpt lat="35.912963100" lon="-106.485139310">
        <ele>2632.600</ele>
        <time>2019-07-14T21:59:50Z</time>
      </trkpt>
      <trkpt lat="35.913031630" lon="-106.485186170">
        <ele>2632.800</ele>
        <time>2019-07-14T21:59:51Z</time>
      </trkpt>
      <trkpt lat="35.913092860" lon="-106.485227160">
        <ele>2632.900</ele>
        <time>2019-07-14T21:59:52Z</time>
      </trkpt>
      <trkpt lat="35.913155920" lon="-106.485267570">
        <ele>2633.200</ele>
        <time>2019-07-14T21:59:53Z</time>
      </trkpt>
      <trkpt lat="35.913221850" lon="-106.485307500">
        <ele>2632.600</ele>
        <time>2019-07-14T21:59:54Z</time>
      </trkpt>
      <trkpt lat="35.913280870" lon="-106.485357750">
        <ele>2632.700</ele>
        <time>2019-07-14T21:59:55Z</time>
      </trkpt>
      <trkpt lat="35.913333340" lon="-106.485412080">
        <ele>2632.700</ele>
        <time>2019-07-14T21:59:56Z</time>
      </trkpt>
      <trkpt lat="35.913384720" lon="-106.485473820">
        <ele>2632.800</ele>
        <time>2019-07-14T21:59:57Z</time>
      </trkpt>
      <trkpt lat="35.913422360" lon="-106.485550440">
        <ele>2632.800</ele>
        <time>2019-07-14T21:59:58Z</time>
      </trkpt>
      <trkpt lat="35.913460610" lon="-106.485626100">
        <ele>2632.600</ele>
        <time>2019-07-14T21:59:59Z</time>
      </trkpt>
      <trkpt lat="35.913489350" lon="-106.485707240">
        <ele>2632.100</ele>
        <time>2019-07-14T22:00:00Z</time>
      </trkpt>
      <trkpt lat="35.913509410" lon="-106.485780780">
        <ele>2631.800</ele>
        <time>2019-07-14T22:00:01Z</time>
      </trkpt>
      <trkpt lat="35.913522180" lon="-106.485870930">
        <ele>2634.000</ele>
        <time>2019-07-14T22:00:02Z</time>
      </trkpt>
      <trkpt lat="35.913534390" lon="-106.485953440">
        <ele>2634.000</ele>
        <time>2019-07-14T22:00:03Z</time>
      </trkpt>
      <trkpt lat="35.913543610" lon="-106.486034500">
        <ele>2633.700</ele>
        <time>2019-07-14T22:00:04Z</time>
      </trkpt>
      <trkpt lat="35.913554610" lon="-106.486129960">
        <ele>2632.200</ele>
        <time>2019-07-14T22:00:05Z</time>
      </trkpt>
      <trkpt lat="35.913551780" lon="-106.486207090">
        <ele>2633.500</ele>
        <time>2019-07-14T22:00:06Z</time>
      </trkpt>
      <trkpt lat="35.913553990" lon="-106.486289530">
        <ele>2633.100</ele>
        <time>2019-07-14T22:00:07Z</time>
      </trkpt>
      <trkpt lat="35.913550170" lon="-106.486367310">
        <ele>2633.700</ele>
        <time>2019-07-14T22:00:08Z</time>
      </trkpt>
      <trkpt lat="35.913557030" lon="-106.486446970">
        <ele>2633.400</ele>
        <time>2019-07-14T22:00:09Z</time>
      </trkpt>
      <trkpt lat="35.913558230" lon="-106.486514190">
        <ele>2634.000</ele>
        <time>2019-07-14T22:00:10Z</time>
      </trkpt>
      <trkpt lat="35.913562730" lon="-106.486572190">
        <ele>2633.700</ele>
        <time>2019-07-14T22:00:11Z</time>
      </trkpt>
      <trkpt lat="35.913579970" lon="-106.486636120">
        <ele>2633.800</ele>
        <time>2019-07-14T22:00:13Z</time>
      </trkpt>
      <trkpt lat="35.913585750" lon="-106.486685340">
        <ele>2635.600</ele>
        <time>2019-07-14T22:00:45Z</time>
      </trkpt>
      <trkpt lat="35.913599950" lon="-106.486750620">
        <ele>2637.300</ele>
        <time>2019-07-14T22:00:47Z</time>
      </trkpt>
      <trkpt lat="35.913620860" lon="-106.486832590">
        <ele>2637.800</ele>
        <time>2019-07-14T22:00:49Z</time>
      </trkpt>
      <trkpt lat="35.913633260" lon="-106.486882660">
        <ele>2638.800</ele>
        <time>2019-07-14T22:00:50Z</time>
      </trkpt>
      <trkpt lat="35.913648470" lon="-106.486939540">
        <ele>2639.400</ele>
        <time>2019-07-14T22:00:51Z</time>
      </trkpt>
      <trkpt lat="35.913667930" lon="-106.487000070">
        <ele>2638.700</ele>
        <time>2019-07-14T22:00:52Z</time>
      </trkpt>
      <trkpt lat="35.913685210" lon="-106.487054070">
        <ele>2638.700</ele>
        <time>2019-07-14T22:00:53Z</time>
      </trkpt>
      <trkpt lat="35.913703200" lon="-106.487102590">
        <ele>2638.700</ele>
        <time>2019-07-14T22:00:54Z</time>
      </trkpt>
      <trkpt lat="35.913708690" lon="-106.487166520">
        <ele>2638.700</ele>
        <time>2019-07-14T22:00:55Z</time>
      </trkpt>
      <trkpt lat="35.913713280" lon="-106.487226960">
        <ele>2638.900</ele>
        <time>2019-07-14T22:00:56Z</time>
      </trkpt>
      <trkpt lat="35.913715850" lon="-106.487294140">
        <ele>2637.800</ele>
        <time>2019-07-14T22:00:57Z</time>
      </trkpt>
      <trkpt lat="35.913713710" lon="-106.487358220">
        <ele>2638.100</ele>
        <time>2019-07-14T22:00:58Z</time>
      </trkpt>
      <trkpt lat="35.913708350" lon="-106.487435850">
        <ele>2637.200</ele>
        <time>2019-07-14T22:00:59Z</time>
      </trkpt>
      <trkpt lat="35.913719400" lon="-106.487523190">
        <ele>2635.300</ele>
        <time>2019-07-14T22:01:00Z</time>
      </trkpt>
      <trkpt lat="35.913709960" lon="-106.487588990">
        <ele>2636.500</ele>
        <time>2019-07-14T22:01:01Z</time>
      </trkpt>
      <trkpt lat="35.913703280" lon="-106.487666010">
        <ele>2636.800</ele>
        <time>2019-07-14T22:01:02Z</time>
      </trkpt>
      <trkpt lat="35.913698900" lon="-106.487740500">
        <ele>2636.500</ele>
        <time>2019-07-14T22:01:03Z</time>
      </trkpt>
      <trkpt lat="35.913684530" lon="-106.487818580">
        <ele>2637.300</ele>
        <time>2019-07-14T22:01:04Z</time>
      </trkpt>
      <trkpt lat="35.913685510" lon="-106.487902030">
        <ele>2636.700</ele>
        <time>2019-07-14T22:01:05Z</time>
      </trkpt>
      <trkpt lat="35.913679360" lon="-106.487992470">
        <ele>2635.500</ele>
        <time>2019-07-14T22:01:06Z</time>
      </trkpt>
      <trkpt lat="35.913689960" lon="-106.488089310">
        <ele>2635.100</ele>
        <time>2019-07-14T22:01:07Z</time>
      </trkpt>
      <trkpt lat="35.913699740" lon="-106.488199730">
        <ele>2632.000</ele>
        <time>2019-07-14T22:01:08Z</time>
      </trkpt>
      <trkpt lat="35.913695260" lon="-106.488270370">
        <ele>2633.300</ele>
        <time>2019-07-14T22:01:09Z</time>
      </trkpt>
      <trkpt lat="35.913694920" lon="-106.488355990">
        <ele>2633.500</ele>
        <time>2019-07-14T22:01:10Z</time>
      </trkpt>
      <trkpt lat="35.913703120" lon="-106.488444890">
        <ele>2633.300</ele>
        <time>2019-07-14T22:01:11Z</time>
      </trkpt>
      <trkpt lat="35.913709390" lon="-106.488539830">
        <ele>2633.100</ele>
        <time>2019-07-14T22:01:12Z</time>
      </trkpt>
      <trkpt lat="35.913709940" lon="-106.488627410">
        <ele>2633.600</ele>
        <time>2019-07-14T22:01:13Z</time>
      </trkpt>
      <trkpt lat="35.913718140" lon="-106.488715210">
        <ele>2633.800</ele>
        <time>2019-07-14T22:01:14Z</time>
      </trkpt>
      <trkpt lat="35.913720870" lon="-106.488799670">
        <ele>2634.000</ele>
        <time>2019-07-14T22:01:15Z</time>
      </trkpt>
      <trkpt lat="35.913725350" lon="-106.488879090">
        <ele>2633.900</ele>
        <time>2019-07-14T22:01:16Z</time>
      </trkpt>
      <trkpt lat="35.913734910" lon="-106.488966400">
        <ele>2633.100</ele>
        <time>2019-07-14T22:01:17Z</time>
      </trkpt>
      <trkpt lat="35.913744360" lon="-106.489047250">
        <ele>2634.300</ele>
        <time>2019-07-14T22:01:18Z</time>
      </trkpt>
      <trkpt lat="35.913747210" lon="-106.489130260">
        <ele>2634.600</ele>
        <time>2019-07-14T22:01:19Z</time>
      </trkpt>
      <trkpt lat="35.913748530" lon="-106.489216090">
        <ele>2634.700</ele>
        <time>2019-07-14T22:01:20Z</time>
      </trkpt>
      <trkpt lat="35.913750620" lon="-106.489304290">
        <ele>2634.300</ele>
        <time>2019-07-14T22:01:21Z</time>
      </trkpt>
      <trkpt lat="35.913753860" lon="-106.489405210">
        <ele>2634.100</ele>
        <time>2019-07-14T22:01:22Z</time>
      </trkpt>
      <trkpt lat="35.913755910" lon="-106.489492330">
        <ele>2635.000</ele>
        <time>2019-07-14T22:01:23Z</time>
      </trkpt>
      <trkpt lat="35.913751700" lon="-106.489585080">
        <ele>2634.200</ele>
        <time>2019-07-14T22:01:24Z</time>
      </trkpt>
      <trkpt lat="35.913757300" lon="-106.489674980">
        <ele>2633.800</ele>
        <time>2019-07-14T22:01:25Z</time>
      </trkpt>
      <trkpt lat="35.913768060" lon="-106.489761560">
        <ele>2634.000</ele>
        <time>2019-07-14T22:01:26Z</time>
      </trkpt>
      <trkpt lat="35.913779360" lon="-106.489849270">
        <ele>2634.000</ele>
        <time>2019-07-14T22:01:27Z</time>
      </trkpt>
      <trkpt lat="35.913793790" lon="-106.489938970">
        <ele>2634.400</ele>
        <time>2019-07-14T22:01:28Z</time>
      </trkpt>
      <trkpt lat="35.913806960" lon="-106.490035240">
        <ele>2634.600</ele>
        <time>2019-07-14T22:01:29Z</time>
      </trkpt>
      <trkpt lat="35.913824310" lon="-106.490132040">
        <ele>2634.100</ele>
        <time>2019-07-14T22:01:30Z</time>
      </trkpt>
      <trkpt lat="35.913835350" lon="-106.490234910">
        <ele>2634.000</ele>
        <time>2019-07-14T22:01:31Z</time>
      </trkpt>
      <trkpt lat="35.913853120" lon="-106.490331070">
        <ele>2633.700</ele>
        <time>2019-07-14T22:01:32Z</time>
      </trkpt>
      <trkpt lat="35.913873080" lon="-106.490428310">
        <ele>2634.200</ele>
        <time>2019-07-14T22:01:33Z</time>
      </trkpt>
      <trkpt lat="35.913889640" lon="-106.490525610">
        <ele>2634.300</ele>
        <time>2019-07-14T22:01:34Z</time>
      </trkpt>
      <trkpt lat="35.913915770" lon="-106.490626750">
        <ele>2633.900</ele>
        <time>2019-07-14T22:01:35Z</time>
      </trkpt>
      <trkpt lat="35.913940290" lon="-106.490720570">
        <ele>2634.000</ele>
        <time>2019-07-14T22:01:36Z</time>
      </trkpt>
      <trkpt lat="35.913963130" lon="-106.490809710">
        <ele>2634.500</ele>
        <time>2019-07-14T22:01:37Z</time>
      </trkpt>
      <trkpt lat="35.913988140" lon="-106.490895980">
        <ele>2633.900</ele>
        <time>2019-07-14T22:01:38Z</time>
      </trkpt>
      <trkpt lat="35.914016110" lon="-106.490981700">
        <ele>2634.000</ele>
        <time>2019-07-14T22:01:39Z</time>
      </trkpt>
      <trkpt lat="35.914047490" lon="-106.491070900">
        <ele>2633.500</ele>
        <time>2019-07-14T22:01:40Z</time>
      </trkpt>
      <trkpt lat="35.914078390" lon="-106.491159260">
        <ele>2633.600</ele>
        <time>2019-07-14T22:01:41Z</time>
      </trkpt>
      <trkpt lat="35.914115840" lon="-106.491251790">
        <ele>2632.400</ele>
        <time>2019-07-14T22:01:42Z</time>
      </trkpt>
      <trkpt lat="35.914149820" lon="-106.491336590">
        <ele>2632.500</ele>
        <time>2019-07-14T22:01:43Z</time>
      </trkpt>
      <trkpt lat="35.914184920" lon="-106.491439560">
        <ele>2632.500</ele>
        <time>2019-07-14T22:01:44Z</time>
      </trkpt>
      <trkpt lat="35.914217800" lon="-106.491533900">
        <ele>2633.100</ele>
        <time>2019-07-14T22:01:45Z</time>
      </trkpt>
      <trkpt lat="35.914253620" lon="-106.491623050">
        <ele>2632.800</ele>
        <time>2019-07-14T22:01:46Z</time>
      </trkpt>
      <trkpt lat="35.914293690" lon="-106.491711440">
        <ele>2633.500</ele>
        <time>2019-07-14T22:01:47Z</time>
      </trkpt>
      <trkpt lat="35.914326190" lon="-106.491804110">
        <ele>2632.800</ele>
        <time>2019-07-14T22:01:48Z</time>
      </trkpt>
      <trkpt lat="35.914368070" lon="-106.491888210">
        <ele>2632.500</ele>
        <time>2019-07-14T22:01:49Z</time>
      </trkpt>
      <trkpt lat="35.914410910" lon="-106.491974340">
        <ele>2632.700</ele>
        <time>2019-07-14T22:01:50Z</time>
      </trkpt>
      <trkpt lat="35.914436640" lon="-106.492063910">
        <ele>2633.100</ele>
        <time>2019-07-14T22:01:51Z</time>
      </trkpt>
      <trkpt lat="35.914485550" lon="-106.492143380">
        <ele>2633.000</ele>
        <time>2019-07-14T22:01:52Z</time>
      </trkpt>
      <trkpt lat="35.914529990" lon="-106.492224090">
        <ele>2633.300</ele>
        <time>2019-07-14T22:01:53Z</time>
      </trkpt>
      <trkpt lat="35.914575710" lon="-106.492296170">
        <ele>2633.200</ele>
        <time>2019-07-14T22:01:54Z</time>
      </trkpt>
      <trkpt lat="35.914615330" lon="-106.492367870">
        <ele>2632.700</ele>
        <time>2019-07-14T22:01:55Z</time>
      </trkpt>
      <trkpt lat="35.914661420" lon="-106.492450100">
        <ele>2631.500</ele>
        <time>2019-07-14T22:01:56Z</time>
      </trkpt>
      <trkpt lat="35.914699540" lon="-106.492532300">
        <ele>2631.100</ele>
        <time>2019-07-14T22:01:57Z</time>
      </trkpt>
      <trkpt lat="35.914739790" lon="-106.492616420">
        <ele>2633.300</ele>
        <time>2019-07-14T22:01:58Z</time>
      </trkpt>
      <trkpt lat="35.914783410" lon="-106.492699890">
        <ele>2633.400</ele>
        <time>2019-07-14T22:01:59Z</time>
      </trkpt>
      <trkpt lat="35.914817300" lon="-106.492777770">
        <ele>2634.300</ele>
        <time>2019-07-14T22:02:00Z</time>
      </trkpt>
      <trkpt lat="35.914856010" lon="-106.492858760">
        <ele>2634.200</ele>
        <time>2019-07-14T22:02:01Z</time>
      </trkpt>
      <trkpt lat="35.914898830" lon="-106.492945360">
        <ele>2634.600</ele>
        <time>2019-07-14T22:02:02Z</time>
      </trkpt>
      <trkpt lat="35.914936280" lon="-106.493032370">
        <ele>2634.300</ele>
        <time>2019-07-14T22:02:03Z</time>
      </trkpt>
      <trkpt lat="35.914978560" lon="-106.493117000">
        <ele>2634.600</ele>
        <time>2019-07-14T22:02:04Z</time>
      </trkpt>
      <trkpt lat="35.915018790" lon="-106.493200020">
        <ele>2635.300</ele>
        <time>2019-07-14T22:02:05Z</time>
      </trkpt>
      <trkpt lat="35.915069950" lon="-106.493279080">
        <ele>2634.100</ele>
        <time>2019-07-14T22:02:06Z</time>
      </trkpt>
      <trkpt lat="35.915111050" lon="-106.493363360">
        <ele>2634.100</ele>
        <time>2019-07-14T22:02:07Z</time>
      </trkpt>
      <trkpt lat="35.915155710" lon="-106.493442850">
        <ele>2634.100</ele>
        <time>2019-07-14T22:02:08Z</time>
      </trkpt>
      <trkpt lat="35.915189180" lon="-106.493524620">
        <ele>2634.900</ele>
        <time>2019-07-14T22:02:09Z</time>
      </trkpt>
      <trkpt lat="35.915216030" lon="-106.493602110">
        <ele>2635.400</ele>
        <time>2019-07-14T22:02:10Z</time>
      </trkpt>
      <trkpt lat="35.915243310" lon="-106.493677510">
        <ele>2636.100</ele>
        <time>2019-07-14T22:02:11Z</time>
      </trkpt>
      <trkpt lat="35.915264440" lon="-106.493759350">
        <ele>2635.900</ele>
        <time>2019-07-14T22:02:12Z</time>
      </trkpt>
      <trkpt lat="35.915279970" lon="-106.493829400">
        <ele>2635.300</ele>
        <time>2019-07-14T22:02:13Z</time>
      </trkpt>
      <trkpt lat="35.915287030" lon="-106.493901340">
        <ele>2635.800</ele>
        <time>2019-07-14T22:02:14Z</time>
      </trkpt>
      <trkpt lat="35.915294230" lon="-106.493967290">
        <ele>2635.800</ele>
        <time>2019-07-14T22:02:15Z</time>
      </trkpt>
      <trkpt lat="35.915288290" lon="-106.494047040">
        <ele>2635.600</ele>
        <time>2019-07-14T22:02:16Z</time>
      </trkpt>
      <trkpt lat="35.915278610" lon="-106.494132780">
        <ele>2636.300</ele>
        <time>2019-07-14T22:02:17Z</time>
      </trkpt>
      <trkpt lat="35.915253560" lon="-106.494215960">
        <ele>2636.700</ele>
        <time>2019-07-14T22:02:18Z</time>
      </trkpt>
      <trkpt lat="35.915235910" lon="-106.494305950">
        <ele>2636.100</ele>
        <time>2019-07-14T22:02:19Z</time>
      </trkpt>
      <trkpt lat="35.915211610" lon="-106.494392170">
        <ele>2636.100</ele>
        <time>2019-07-14T22:02:20Z</time>
      </trkpt>
      <trkpt lat="35.915190070" lon="-106.494483620">
        <ele>2635.500</ele>
        <time>2019-07-14T22:02:21Z</time>
      </trkpt>
      <trkpt lat="35.915191780" lon="-106.494573510">
        <ele>2635.300</ele>
        <time>2019-07-14T22:02:22Z</time>
      </trkpt>
      <trkpt lat="35.915204280" lon="-106.494657180">
        <ele>2634.300</ele>
        <time>2019-07-14T22:02:23Z</time>
      </trkpt>
      <trkpt lat="35.915223990" lon="-106.494750050">
        <ele>2634.700</ele>
        <time>2019-07-14T22:02:24Z</time>
      </trkpt>
      <trkpt lat="35.915245140" lon="-106.494848380">
        <ele>2634.800</ele>
        <time>2019-07-14T22:02:25Z</time>
      </trkpt>
      <trkpt lat="35.915263350" lon="-106.494948570">
        <ele>2635.500</ele>
        <time>2019-07-14T22:02:26Z</time>
      </trkpt>
      <trkpt lat="35.915294990" lon="-106.495039210">
        <ele>2636.100</ele>
        <time>2019-07-14T22:02:27Z</time>
      </trkpt>
      <trkpt lat="35.915323530" lon="-106.495120260">
        <ele>2637.000</ele>
        <time>2019-07-14T22:02:28Z</time>
      </trkpt>
      <trkpt lat="35.915367440" lon="-106.495201680">
        <ele>2636.600</ele>
        <time>2019-07-14T22:02:29Z</time>
      </trkpt>
      <trkpt lat="35.915405090" lon="-106.495279120">
        <ele>2637.100</ele>
        <time>2019-07-14T22:02:30Z</time>
      </trkpt>
      <trkpt lat="35.915437680" lon="-106.495348720">
        <ele>2637.600</ele>
        <time>2019-07-14T22:02:31Z</time>
      </trkpt>
      <trkpt lat="35.915470470" lon="-106.495413120">
        <ele>2637.700</ele>
        <time>2019-07-14T22:02:32Z</time>
      </trkpt>
      <trkpt lat="35.915500070" lon="-106.495478990">
        <ele>2638.100</ele>
        <time>2019-07-14T22:02:33Z</time>
      </trkpt>
      <trkpt lat="35.915545130" lon="-106.495552830">
        <ele>2638.400</ele>
        <time>2019-07-14T22:02:34Z</time>
      </trkpt>
      <trkpt lat="35.915578470" lon="-106.495625920">
        <ele>2637.800</ele>
        <time>2019-07-14T22:02:35Z</time>
      </trkpt>
      <trkpt lat="35.915622810" lon="-106.495694620">
        <ele>2636.900</ele>
        <time>2019-07-14T22:02:36Z</time>
      </trkpt>
      <trkpt lat="35.915675250" lon="-106.495768810">
        <ele>2636.600</ele>
        <time>2019-07-14T22:02:37Z</time>
      </trkpt>
      <trkpt lat="35.915716000" lon="-106.495843310">
        <ele>2637.000</ele>
        <time>2019-07-14T22:02:38Z</time>
      </trkpt>
      <trkpt lat="35.915762630" lon="-106.495915020">
        <ele>2637.700</ele>
        <time>2019-07-14T22:02:39Z</time>
      </trkpt>
      <trkpt lat="35.915798900" lon="-106.495994370">
        <ele>2638.000</ele>
        <time>2019-07-14T22:02:40Z</time>
      </trkpt>
      <trkpt lat="35.915844030" lon="-106.496074640">
        <ele>2639.200</ele>
        <time>2019-07-14T22:02:41Z</time>
      </trkpt>
      <trkpt lat="35.915892000" lon="-106.496151410">
        <ele>2639.300</ele>
        <time>2019-07-14T22:02:42Z</time>
      </trkpt>
      <trkpt lat="35.915940340" lon="-106.496239370">
        <ele>2641.100</ele>
        <time>2019-07-14T22:02:43Z</time>
      </trkpt>
      <trkpt lat="35.915980330" lon="-106.496315320">
        <ele>2643.000</ele>
        <time>2019-07-14T22:02:44Z</time>
      </trkpt>
      <trkpt lat="35.916033580" lon="-106.496390140">
        <ele>2644.300</ele>
        <time>2019-07-14T22:02:45Z</time>
      </trkpt>
      <trkpt lat="35.916075450" lon="-106.496458320">
        <ele>2645.100</ele>
        <time>2019-07-14T22:02:46Z</time>
      </trkpt>
      <trkpt lat="35.916126630" lon="-106.496519820">
        <ele>2645.700</ele>
        <time>2019-07-14T22:02:47Z</time>
      </trkpt>
      <trkpt lat="35.916181900" lon="-106.496586570">
        <ele>2645.600</ele>
        <time>2019-07-14T22:02:48Z</time>
      </trkpt>
      <trkpt lat="35.916237940" lon="-106.496647380">
        <ele>2646.600</ele>
        <time>2019-07-14T22:02:49Z</time>
      </trkpt>
      <trkpt lat="35.916294240" lon="-106.496714120">
        <ele>2646.600</ele>
        <time>2019-07-14T22:02:50Z</time>
      </trkpt>
      <trkpt lat="35.916349910" lon="-106.496774480">
        <ele>2646.400</ele>
        <time>2019-07-14T22:02:51Z</time>
      </trkpt>
      <trkpt lat="35.916408910" lon="-106.496831800">
        <ele>2646.800</ele>
        <time>2019-07-14T22:02:52Z</time>
      </trkpt>
      <trkpt lat="35.916475140" lon="-106.496884380">
        <ele>2646.700</ele>
        <time>2019-07-14T22:02:53Z</time>
      </trkpt>
      <trkpt lat="35.916535000" lon="-106.496936590">
        <ele>2647.900</ele>
        <time>2019-07-14T22:02:54Z</time>
      </trkpt>
      <trkpt lat="35.916605700" lon="-106.496985220">
        <ele>2647.900</ele>
        <time>2019-07-14T22:02:55Z</time>
      </trkpt>
      <trkpt lat="35.916673860" lon="-106.497026860">
        <ele>2648.300</ele>
        <time>2019-07-14T22:02:56Z</time>
      </trkpt>
      <trkpt lat="35.916740830" lon="-106.497062810">
        <ele>2648.800</ele>
        <time>2019-07-14T22:02:57Z</time>
      </trkpt>
      <trkpt lat="35.916807460" lon="-106.497101330">
        <ele>2648.600</ele>
        <time>2019-07-14T22:02:58Z</time>
      </trkpt>
      <trkpt lat="35.916875990" lon="-106.497140560">
        <ele>2649.200</ele>
        <time>2019-07-14T22:02:59Z</time>
      </trkpt>
      <trkpt lat="35.916948780" lon="-106.497169910">
        <ele>2649.900</ele>
        <time>2019-07-14T22:03:00Z</time>
      </trkpt>
      <trkpt lat="35.917019090" lon="-106.497193050">
        <ele>2650.400</ele>
        <time>2019-07-14T22:03:01Z</time>
      </trkpt>
      <trkpt lat="35.917095320" lon="-106.497222070">
        <ele>2648.800</ele>
        <time>2019-07-14T22:03:02Z</time>
      </trkpt>
      <trkpt lat="35.917168650" lon="-106.497237220">
        <ele>2648.600</ele>
        <time>2019-07-14T22:03:03Z</time>
      </trkpt>
      <trkpt lat="35.917240930" lon="-106.497254770">
        <ele>2649.500</ele>
        <time>2019-07-14T22:03:04Z</time>
      </trkpt>
      <trkpt lat="35.917311520" lon="-106.497280500">
        <ele>2650.100</ele>
        <time>2019-07-14T22:03:05Z</time>
      </trkpt>
      <trkpt lat="35.917386970" lon="-106.497303870">
        <ele>2649.900</ele>
        <time>2019-07-14T22:03:06Z</time>
      </trkpt>
      <trkpt lat="35.917459380" lon="-106.497330740">
        <ele>2650.400</ele>
        <time>2019-07-14T22:03:07Z</time>
      </trkpt>
      <trkpt lat="35.917534720" lon="-106.497350810">
        <ele>2651.000</ele>
        <time>2019-07-14T22:03:08Z</time>
      </trkpt>
      <trkpt lat="35.917608590" lon="-106.497389400">
        <ele>2651.300</ele>
        <time>2019-07-14T22:03:09Z</time>
      </trkpt>
      <trkpt lat="35.917683830" lon="-106.497429860">
        <ele>2652.300</ele>
        <time>2019-07-14T22:03:10Z</time>
      </trkpt>
      <trkpt lat="35.917759110" lon="-106.497476380">
        <ele>2652.100</ele>
        <time>2019-07-14T22:03:11Z</time>
      </trkpt>
      <trkpt lat="35.917824170" lon="-106.497521540">
        <ele>2654.200</ele>
        <time>2019-07-14T22:03:12Z</time>
      </trkpt>
      <trkpt lat="35.917891280" lon="-106.497572890">
        <ele>2654.000</ele>
        <time>2019-07-14T22:03:13Z</time>
      </trkpt>
      <trkpt lat="35.917969400" lon="-106.497625120">
        <ele>2653.400</ele>
        <time>2019-07-14T22:03:14Z</time>
      </trkpt>
      <trkpt lat="35.918039350" lon="-106.497677100">
        <ele>2653.700</ele>
        <time>2019-07-14T22:03:15Z</time>
      </trkpt>
      <trkpt lat="35.918099600" lon="-106.497731920">
        <ele>2654.000</ele>
        <time>2019-07-14T22:03:16Z</time>
      </trkpt>
      <trkpt lat="35.918166500" lon="-106.497784280">
        <ele>2654.200</ele>
        <time>2019-07-14T22:03:17Z</time>
      </trkpt>
      <trkpt lat="35.918237710" lon="-106.497836390">
        <ele>2655.100</ele>
        <time>2019-07-14T22:03:18Z</time>
      </trkpt>
      <trkpt lat="35.918309510" lon="-106.497888680">
        <ele>2655.700</ele>
        <time>2019-07-14T22:03:19Z</time>
      </trkpt>
      <trkpt lat="35.918379020" lon="-106.497946390">
        <ele>2655.900</ele>
        <time>2019-07-14T22:03:20Z</time>
      </trkpt>
      <trkpt lat="35.918443880" lon="-106.498012370">
        <ele>2657.200</ele>
        <time>2019-07-14T22:03:21Z</time>
      </trkpt>
      <trkpt lat="35.918519710" lon="-106.498070300">
        <ele>2656.500</ele>
        <time>2019-07-14T22:03:22Z</time>
      </trkpt>
      <trkpt lat="35.918592240" lon="-106.498135160">
        <ele>2655.700</ele>
        <time>2019-07-14T22:03:23Z</time>
      </trkpt>
      <trkpt lat="35.918666170" lon="-106.498192560">
        <ele>2655.300</ele>
        <time>2019-07-14T22:03:24Z</time>
      </trkpt>
      <trkpt lat="35.918740450" lon="-106.498244440">
        <ele>2655.300</ele>
        <time>2019-07-14T22:03:25Z</time>
      </trkpt>
      <trkpt lat="35.918811480" lon="-106.498292040">
        <ele>2655.200</ele>
        <time>2019-07-14T22:03:26Z</time>
      </trkpt>
      <trkpt lat="35.918876280" lon="-106.498345200">
        <ele>2655.500</ele>
        <time>2019-07-14T22:03:27Z</time>
      </trkpt>
      <trkpt lat="35.918947960" lon="-106.498402790">
        <ele>2655.700</ele>
        <time>2019-07-14T22:03:28Z</time>
      </trkpt>
      <trkpt lat="35.919013450" lon="-106.498458700">
        <ele>2656.000</ele>
        <time>2019-07-14T22:03:29Z</time>
      </trkpt>
      <trkpt lat="35.919083220" lon="-106.498516970">
        <ele>2655.700</ele>
        <time>2019-07-14T22:03:30Z</time>
      </trkpt>
      <trkpt lat="35.919152990" lon="-106.498568880">
        <ele>2655.200</ele>
        <time>2019-07-14T22:03:31Z</time>
      </trkpt>
      <trkpt lat="35.919217930" lon="-106.498623140">
        <ele>2655.300</ele>
        <time>2019-07-14T22:03:32Z</time>
      </trkpt>
      <trkpt lat="35.919284490" lon="-106.498679220">
        <ele>2655.300</ele>
        <time>2019-07-14T22:03:33Z</time>
      </trkpt>
      <trkpt lat="35.919351010" lon="-106.498715900">
        <ele>2656.500</ele>
        <time>2019-07-14T22:03:34Z</time>
      </trkpt>
      <trkpt lat="35.919402630" lon="-106.498758270">
        <ele>2656.700</ele>
        <time>2019-07-14T22:03:35Z</time>
      </trkpt>
      <trkpt lat="35.919462860" lon="-106.498805630">
        <ele>2656.500</ele>
        <time>2019-07-14T22:03:36Z</time>
      </trkpt>
      <trkpt lat="35.919512600" lon="-106.498838850">
        <ele>2657.200</ele>
        <time>2019-07-14T22:03:37Z</time>
      </trkpt>
      <trkpt lat="35.919565430" lon="-106.498872910">
        <ele>2658.000</ele>
        <time>2019-07-14T22:03:38Z</time>
      </trkpt>
      <trkpt lat="35.919622800" lon="-106.498923510">
        <ele>2658.000</ele>
        <time>2019-07-14T22:03:39Z</time>
      </trkpt>
      <trkpt lat="35.919676750" lon="-106.498956430">
        <ele>2658.300</ele>
        <time>2019-07-14T22:03:40Z</time>
      </trkpt>
      <trkpt lat="35.919733340" lon="-106.499005730">
        <ele>2660.300</ele>
        <time>2019-07-14T22:03:41Z</time>
      </trkpt>
      <trkpt lat="35.919789790" lon="-106.499052580">
        <ele>2660.400</ele>
        <time>2019-07-14T22:03:42Z</time>
      </trkpt>
      <trkpt lat="35.919845750" lon="-106.499116950">
        <ele>2660.300</ele>
        <time>2019-07-14T22:03:43Z</time>
      </trkpt>
      <trkpt lat="35.919902140" lon="-106.499149300">
        <ele>2661.100</ele>
        <time>2019-07-14T22:03:44Z</time>
      </trkpt>
      <trkpt lat="35.919955050" lon="-106.499192130">
        <ele>2661.700</ele>
        <time>2019-07-14T22:03:45Z</time>
      </trkpt>
      <trkpt lat="35.920014940" lon="-106.499237440">
        <ele>2661.600</ele>
        <time>2019-07-14T22:03:46Z</time>
      </trkpt>
      <trkpt lat="35.920062530" lon="-106.499266330">
        <ele>2662.100</ele>
        <time>2019-07-14T22:03:47Z</time>
      </trkpt>
      <trkpt lat="35.920109190" lon="-106.499331090">
        <ele>2661.600</ele>
        <time>2019-07-14T22:03:48Z</time>
      </trkpt>
      <trkpt lat="35.920156530" lon="-106.499377120">
        <ele>2661.800</ele>
        <time>2019-07-14T22:03:49Z</time>
      </trkpt>
      <trkpt lat="35.920204370" lon="-106.499423380">
        <ele>2660.400</ele>
        <time>2019-07-14T22:03:50Z</time>
      </trkpt>
      <trkpt lat="35.920248900" lon="-106.499496380">
        <ele>2659.700</ele>
        <time>2019-07-14T22:03:51Z</time>
      </trkpt>
      <trkpt lat="35.920288550" lon="-106.499554350">
        <ele>2659.800</ele>
        <time>2019-07-14T22:03:52Z</time>
      </trkpt>
      <trkpt lat="35.920336060" lon="-106.499619570">
        <ele>2659.500</ele>
        <time>2019-07-14T22:03:53Z</time>
      </trkpt>
      <trkpt lat="35.920383440" lon="-106.499677060">
        <ele>2660.000</ele>
        <time>2019-07-14T22:03:54Z</time>
      </trkpt>
      <trkpt lat="35.920428940" lon="-106.499730450">
        <ele>2661.300</ele>
        <time>2019-07-14T22:03:55Z</time>
      </trkpt>
      <trkpt lat="35.920478680" lon="-106.499793610">
        <ele>2662.000</ele>
        <time>2019-07-14T22:03:56Z</time>
      </trkpt>
      <trkpt lat="35.920533530" lon="-106.499860850">
        <ele>2661.400</ele>
        <time>2019-07-14T22:03:57Z</time>
      </trkpt>
      <trkpt lat="35.920585050" lon="-106.499912640">
        <ele>2662.800</ele>
        <time>2019-07-14T22:03:58Z</time>
      </trkpt>
      <trkpt lat="35.920637340" lon="-106.499981190">
        <ele>2663.900</ele>
        <time>2019-07-14T22:03:59Z</time>
      </trkpt>
      <trkpt lat="35.920694790" lon="-106.500047770">
        <ele>2663.900</ele>
        <time>2019-07-14T22:04:00Z</time>
      </trkpt>
      <trkpt lat="35.920751330" lon="-106.500108230">
        <ele>2664.100</ele>
        <time>2019-07-14T22:04:01Z</time>
      </trkpt>
      <trkpt lat="35.920803590" lon="-106.500172560">
        <ele>2663.800</ele>
        <time>2019-07-14T22:04:02Z</time>
      </trkpt>
      <trkpt lat="35.920855720" lon="-106.500250170">
        <ele>2662.800</ele>
        <time>2019-07-14T22:04:03Z</time>
      </trkpt>
      <trkpt lat="35.920904080" lon="-106.500325210">
        <ele>2662.900</ele>
        <time>2019-07-14T22:04:04Z</time>
      </trkpt>
      <trkpt lat="35.920956540" lon="-106.500387050">
        <ele>2663.000</ele>
        <time>2019-07-14T22:04:05Z</time>
      </trkpt>
      <trkpt lat="35.921006850" lon="-106.500457650">
        <ele>2663.400</ele>
        <time>2019-07-14T22:04:06Z</time>
      </trkpt>
      <trkpt lat="35.921059580" lon="-106.500520520">
        <ele>2663.200</ele>
        <time>2019-07-14T22:04:07Z</time>
      </trkpt>
      <trkpt lat="35.921109600" lon="-106.500584160">
        <ele>2663.900</ele>
        <time>2019-07-14T22:04:08Z</time>
      </trkpt>
      <trkpt lat="35.921160230" lon="-106.500648410">
        <ele>2663.900</ele>
        <time>2019-07-14T22:04:09Z</time>
      </trkpt>
      <trkpt lat="35.921205030" lon="-106.500708560">
        <ele>2664.300</ele>
        <time>2019-07-14T22:04:10Z</time>
      </trkpt>
      <trkpt lat="35.921251250" lon="-106.500770140">
        <ele>2664.500</ele>
        <time>2019-07-14T22:04:11Z</time>
      </trkpt>
      <trkpt lat="35.921294650" lon="-106.500826210">
        <ele>2665.800</ele>
        <time>2019-07-14T22:04:12Z</time>
      </trkpt>
      <trkpt lat="35.921344280" lon="-106.500882630">
        <ele>2665.800</ele>
        <time>2019-07-14T22:04:13Z</time>
      </trkpt>
      <trkpt lat="35.921393470" lon="-106.500947800">
        <ele>2664.400</ele>
        <time>2019-07-14T22:04:14Z</time>
      </trkpt>
      <trkpt lat="35.921436920" lon="-106.500991260">
        <ele>2665.400</ele>
        <time>2019-07-14T22:04:15Z</time>
      </trkpt>
      <trkpt lat="35.921478790" lon="-106.501036530">
        <ele>2665.800</ele>
        <time>2019-07-14T22:04:16Z</time>
      </trkpt>
      <trkpt lat="35.921522000" lon="-106.501076920">
        <ele>2664.900</ele>
        <time>2019-07-14T22:04:17Z</time>
      </trkpt>
      <trkpt lat="35.921552130" lon="-106.501109290">
        <ele>2666.000</ele>
        <time>2019-07-14T22:04:18Z</time>
      </trkpt>
      <trkpt lat="35.921601060" lon="-106.501165500">
        <ele>2666.700</ele>
        <time>2019-07-14T22:04:20Z</time>
      </trkpt>
      <trkpt lat="35.921657300" lon="-106.501219950">
        <ele>2667.200</ele>
        <time>2019-07-14T22:04:22Z</time>
      </trkpt>
      <trkpt lat="35.921694130" lon="-106.501251690">
        <ele>2666.500</ele>
        <time>2019-07-14T22:04:23Z</time>
      </trkpt>
      <trkpt lat="35.921731250" lon="-106.501284350">
        <ele>2667.000</ele>
        <time>2019-07-14T22:04:24Z</time>
      </trkpt>
      <trkpt lat="35.921788650" lon="-106.501304710">
        <ele>2666.900</ele>
        <time>2019-07-14T22:04:25Z</time>
      </trkpt>
      <trkpt lat="35.921838480" lon="-106.501340140">
        <ele>2667.400</ele>
        <time>2019-07-14T22:04:26Z</time>
      </trkpt>
      <trkpt lat="35.921893930" lon="-106.501357810">
        <ele>2667.900</ele>
        <time>2019-07-14T22:04:27Z</time>
      </trkpt>
      <trkpt lat="35.921963270" lon="-106.501386510">
        <ele>2667.000</ele>
        <time>2019-07-14T22:04:28Z</time>
      </trkpt>
      <trkpt lat="35.922034240" lon="-106.501415470">
        <ele>2666.300</ele>
        <time>2019-07-14T22:04:29Z</time>
      </trkpt>
      <trkpt lat="35.922108640" lon="-106.501452600">
        <ele>2665.800</ele>
        <time>2019-07-14T22:04:30Z</time>
      </trkpt>
      <trkpt lat="35.922171280" lon="-106.501498590">
        <ele>2666.000</ele>
        <time>2019-07-14T22:04:31Z</time>
      </trkpt>
      <trkpt lat="35.922237950" lon="-106.501558160">
        <ele>2664.400</ele>
        <time>2019-07-14T22:04:32Z</time>
      </trkpt>
      <trkpt lat="35.922306020" lon="-106.501603360">
        <ele>2664.200</ele>
        <time>2019-07-14T22:04:33Z</time>
      </trkpt>
      <trkpt lat="35.922369330" lon="-106.501653130">
        <ele>2665.100</ele>
        <time>2019-07-14T22:04:34Z</time>
      </trkpt>
      <trkpt lat="35.922435750" lon="-106.501694580">
        <ele>2664.400</ele>
        <time>2019-07-14T22:04:35Z</time>
      </trkpt>
      <trkpt lat="35.922498490" lon="-106.501749460">
        <ele>2663.800</ele>
        <time>2019-07-14T22:04:36Z</time>
      </trkpt>
      <trkpt lat="35.922566930" lon="-106.501794690">
        <ele>2665.500</ele>
        <time>2019-07-14T22:04:37Z</time>
      </trkpt>
      <trkpt lat="35.922634320" lon="-106.501851100">
        <ele>2665.800</ele>
        <time>2019-07-14T22:04:38Z</time>
      </trkpt>
      <trkpt lat="35.922701980" lon="-106.501902770">
        <ele>2665.800</ele>
        <time>2019-07-14T22:04:39Z</time>
      </trkpt>
      <trkpt lat="35.922770660" lon="-106.501941270">
        <ele>2664.500</ele>
        <time>2019-07-14T22:04:40Z</time>
      </trkpt>
      <trkpt lat="35.922841940" lon="-106.501983990">
        <ele>2663.200</ele>
        <time>2019-07-14T22:04:41Z</time>
      </trkpt>
      <trkpt lat="35.922918070" lon="-106.502042970">
        <ele>2662.700</ele>
        <time>2019-07-14T22:04:42Z</time>
      </trkpt>
      <trkpt lat="35.922990720" lon="-106.502084600">
        <ele>2663.800</ele>
        <time>2019-07-14T22:04:43Z</time>
      </trkpt>
      <trkpt lat="35.923067900" lon="-106.502145700">
        <ele>2661.800</ele>
        <time>2019-07-14T22:04:44Z</time>
      </trkpt>
      <trkpt lat="35.923135420" lon="-106.502195460">
        <ele>2661.500</ele>
        <time>2019-07-14T22:04:45Z</time>
      </trkpt>
      <trkpt lat="35.923202290" lon="-106.502239340">
        <ele>2660.600</ele>
        <time>2019-07-14T22:04:46Z</time>
      </trkpt>
      <trkpt lat="35.923269980" lon="-106.502288410">
        <ele>2659.800</ele>
        <time>2019-07-14T22:04:47Z</time>
      </trkpt>
      <trkpt lat="35.923329430" lon="-106.502327930">
        <ele>2659.300</ele>
        <time>2019-07-14T22:04:48Z</time>
      </trkpt>
      <trkpt lat="35.923385070" lon="-106.502369940">
        <ele>2658.700</ele>
        <time>2019-07-14T22:04:49Z</time>
      </trkpt>
      <trkpt lat="35.923443730" lon="-106.502404900">
        <ele>2658.900</ele>
        <time>2019-07-14T22:04:50Z</time>
      </trkpt>
      <trkpt lat="35.923504710" lon="-106.502447350">
        <ele>2658.700</ele>
        <time>2019-07-14T22:04:51Z</time>
      </trkpt>
      <trkpt lat="35.923566530" lon="-106.502490360">
        <ele>2659.400</ele>
        <time>2019-07-14T22:04:52Z</time>
      </trkpt>
      <trkpt lat="35.923634950" lon="-106.502524340">
        <ele>2659.300</ele>
        <time>2019-07-14T22:04:53Z</time>
      </trkpt>
      <trkpt lat="35.923708840" lon="-106.502554880">
        <ele>2659.200</ele>
        <time>2019-07-14T22:04:54Z</time>
      </trkpt>
      <trkpt lat="35.923777870" lon="-106.502588060">
        <ele>2659.300</ele>
        <time>2019-07-14T22:04:55Z</time>
      </trkpt>
      <trkpt lat="35.923854540" lon="-106.502613110">
        <ele>2659.100</ele>
        <time>2019-07-14T22:04:56Z</time>
      </trkpt>
      <trkpt lat="35.923932680" lon="-106.502640290">
        <ele>2658.000</ele>
        <time>2019-07-14T22:04:57Z</time>
      </trkpt>
      <trkpt lat="35.924021330" lon="-106.502665100">
        <ele>2656.400</ele>
        <time>2019-07-14T22:04:58Z</time>
      </trkpt>
      <trkpt lat="35.924099500" lon="-106.502683580">
        <ele>2656.000</ele>
        <time>2019-07-14T22:04:59Z</time>
      </trkpt>
      <trkpt lat="35.924186420" lon="-106.502689690">
        <ele>2656.600</ele>
        <time>2019-07-14T22:05:00Z</time>
      </trkpt>
      <trkpt lat="35.924267630" lon="-106.502702310">
        <ele>2655.700</ele>
        <time>2019-07-14T22:05:01Z</time>
      </trkpt>
      <trkpt lat="35.924352870" lon="-106.502717030">
        <ele>2655.700</ele>
        <time>2019-07-14T22:05:02Z</time>
      </trkpt>
      <trkpt lat="35.924443130" lon="-106.502724260">
        <ele>2655.900</ele>
        <time>2019-07-14T22:05:03Z</time>
      </trkpt>
      <trkpt lat="35.924531120" lon="-106.502740890">
        <ele>2655.700</ele>
        <time>2019-07-14T22:05:04Z</time>
      </trkpt>
      <trkpt lat="35.924622070" lon="-106.502750070">
        <ele>2655.100</ele>
        <time>2019-07-14T22:05:05Z</time>
      </trkpt>
      <trkpt lat="35.924700360" lon="-106.502761720">
        <ele>2655.300</ele>
        <time>2019-07-14T22:05:06Z</time>
      </trkpt>
      <trkpt lat="35.924783100" lon="-106.502768820">
        <ele>2654.700</ele>
        <time>2019-07-14T22:05:07Z</time>
      </trkpt>
      <trkpt lat="35.924865680" lon="-106.502763120">
        <ele>2654.100</ele>
        <time>2019-07-14T22:05:08Z</time>
      </trkpt>
      <trkpt lat="35.924946550" lon="-106.502754680">
        <ele>2653.800</ele>
        <time>2019-07-14T22:05:09Z</time>
      </trkpt>
      <trkpt lat="35.925028920" lon="-106.502725930">
        <ele>2653.400</ele>
        <time>2019-07-14T22:05:10Z</time>
      </trkpt>
      <trkpt lat="35.925101150" lon="-106.502690560">
        <ele>2652.100</ele>
        <time>2019-07-14T22:05:11Z</time>
      </trkpt>
      <trkpt lat="35.925176580" lon="-106.502634730">
        <ele>2651.300</ele>
        <time>2019-07-14T22:05:12Z</time>
      </trkpt>
      <trkpt lat="35.925239140" lon="-106.502575050">
        <ele>2651.400</ele>
        <time>2019-07-14T22:05:13Z</time>
      </trkpt>
      <trkpt lat="35.925304450" lon="-106.502512830">
        <ele>2650.300</ele>
        <time>2019-07-14T22:05:14Z</time>
      </trkpt>
      <trkpt lat="35.925372340" lon="-106.502458570">
        <ele>2650.400</ele>
        <time>2019-07-14T22:05:15Z</time>
      </trkpt>
      <trkpt lat="35.925432950" lon="-106.502395560">
        <ele>2649.900</ele>
        <time>2019-07-14T22:05:16Z</time>
      </trkpt>
      <trkpt lat="35.925497160" lon="-106.502342520">
        <ele>2649.500</ele>
        <time>2019-07-14T22:05:17Z</time>
      </trkpt>
      <trkpt lat="35.925563560" lon="-106.502276650">
        <ele>2649.300</ele>
        <time>2019-07-14T22:05:18Z</time>
      </trkpt>
      <trkpt lat="35.925628590" lon="-106.502215110">
        <ele>2648.800</ele>
        <time>2019-07-14T22:05:19Z</time>
      </trkpt>
      <trkpt lat="35.925688880" lon="-106.502168860">
        <ele>2648.100</ele>
        <time>2019-07-14T22:05:20Z</time>
      </trkpt>
      <trkpt lat="35.925762040" lon="-106.502129850">
        <ele>2648.200</ele>
        <time>2019-07-14T22:05:21Z</time>
      </trkpt>
      <trkpt lat="35.925829710" lon="-106.502120680">
        <ele>2647.700</ele>
        <time>2019-07-14T22:05:22Z</time>
      </trkpt>
      <trkpt lat="35.925918190" lon="-106.502122910">
        <ele>2647.300</ele>
        <time>2019-07-14T22:05:23Z</time>
      </trkpt>
      <trkpt lat="35.925993850" lon="-106.502104190">
        <ele>2647.400</ele>
        <time>2019-07-14T22:05:24Z</time>
      </trkpt>
      <trkpt lat="35.926079280" lon="-106.502121160">
        <ele>2645.400</ele>
        <time>2019-07-14T22:05:25Z</time>
      </trkpt>
      <trkpt lat="35.926158000" lon="-106.502117750">
        <ele>2646.200</ele>
        <time>2019-07-14T22:05:26Z</time>
      </trkpt>
      <trkpt lat="35.926234790" lon="-106.502129440">
        <ele>2646.400</ele>
        <time>2019-07-14T22:05:27Z</time>
      </trkpt>
      <trkpt lat="35.926319880" lon="-106.502137040">
        <ele>2644.000</ele>
        <time>2019-07-14T22:05:28Z</time>
      </trkpt>
      <trkpt lat="35.926413060" lon="-106.502147410">
        <ele>2643.200</ele>
        <time>2019-07-14T22:05:29Z</time>
      </trkpt>
      <trkpt lat="35.926505220" lon="-106.502161430">
        <ele>2642.700</ele>
        <time>2019-07-14T22:05:30Z</time>
      </trkpt>
      <trkpt lat="35.926597570" lon="-106.502176880">
        <ele>2643.400</ele>
        <time>2019-07-14T22:05:31Z</time>
      </trkpt>
      <trkpt lat="35.926694360" lon="-106.502196840">
        <ele>2642.700</ele>
        <time>2019-07-14T22:05:32Z</time>
      </trkpt>
      <trkpt lat="35.926781480" lon="-106.502219040">
        <ele>2642.600</ele>
        <time>2019-07-14T22:05:33Z</time>
      </trkpt>
      <trkpt lat="35.926858300" lon="-106.502250890">
        <ele>2643.700</ele>
        <time>2019-07-14T22:05:34Z</time>
      </trkpt>
      <trkpt lat="35.926943760" lon="-106.502282990">
        <ele>2644.000</ele>
        <time>2019-07-14T22:05:35Z</time>
      </trkpt>
      <trkpt lat="35.927029150" lon="-106.502322440">
        <ele>2644.100</ele>
        <time>2019-07-14T22:05:36Z</time>
      </trkpt>
      <trkpt lat="35.927110470" lon="-106.502357250">
        <ele>2644.300</ele>
        <time>2019-07-14T22:05:37Z</time>
      </trkpt>
      <trkpt lat="35.927201490" lon="-106.502393800">
        <ele>2644.000</ele>
        <time>2019-07-14T22:05:38Z</time>
      </trkpt>
      <trkpt lat="35.927285510" lon="-106.502426180">
        <ele>2644.000</ele>
        <time>2019-07-14T22:05:39Z</time>
      </trkpt>
      <trkpt lat="35.927370480" lon="-106.502459910">
        <ele>2644.000</ele>
        <time>2019-07-14T22:05:40Z</time>
      </trkpt>
      <trkpt lat="35.927460260" lon="-106.502480740">
        <ele>2644.200</ele>
        <time>2019-07-14T22:05:41Z</time>
      </trkpt>
      <trkpt lat="35.927543680" lon="-106.502500400">
        <ele>2644.300</ele>
        <time>2019-07-14T22:05:42Z</time>
      </trkpt>
      <trkpt lat="35.927632090" lon="-106.502510260">
        <ele>2643.400</ele>
        <time>2019-07-14T22:05:43Z</time>
      </trkpt>
      <trkpt lat="35.927718770" lon="-106.502500070">
        <ele>2643.500</ele>
        <time>2019-07-14T22:05:44Z</time>
      </trkpt>
      <trkpt lat="35.927812540" lon="-106.502482950">
        <ele>2643.400</ele>
        <time>2019-07-14T22:05:45Z</time>
      </trkpt>
      <trkpt lat="35.927898900" lon="-106.502452560">
        <ele>2643.200</ele>
        <time>2019-07-14T22:05:46Z</time>
      </trkpt>
      <trkpt lat="35.927977200" lon="-106.502413280">
        <ele>2643.300</ele>
        <time>2019-07-14T22:05:47Z</time>
      </trkpt>
      <trkpt lat="35.928057070" lon="-106.502382020">
        <ele>2643.800</ele>
        <time>2019-07-14T22:05:48Z</time>
      </trkpt>
      <trkpt lat="35.928141960" lon="-106.502349830">
        <ele>2643.600</ele>
        <time>2019-07-14T22:05:49Z</time>
      </trkpt>
      <trkpt lat="35.928223230" lon="-106.502299820">
        <ele>2643.200</ele>
        <time>2019-07-14T22:05:50Z</time>
      </trkpt>
      <trkpt lat="35.928310530" lon="-106.502254290">
        <ele>2643.300</ele>
        <time>2019-07-14T22:05:51Z</time>
      </trkpt>
      <trkpt lat="35.928392720" lon="-106.502204730">
        <ele>2642.800</ele>
        <time>2019-07-14T22:05:52Z</time>
      </trkpt>
      <trkpt lat="35.928473040" lon="-106.502159410">
        <ele>2642.800</ele>
        <time>2019-07-14T22:05:53Z</time>
      </trkpt>
      <trkpt lat="35.928555390" lon="-106.502117250">
        <ele>2643.100</ele>
        <time>2019-07-14T22:05:54Z</time>
      </trkpt>
      <trkpt lat="35.928642990" lon="-106.502079300">
        <ele>2643.400</ele>
        <time>2019-07-14T22:05:55Z</time>
      </trkpt>
      <trkpt lat="35.928730260" lon="-106.502052330">
        <ele>2642.400</ele>
        <time>2019-07-14T22:05:56Z</time>
      </trkpt>
      <trkpt lat="35.928818180" lon="-106.502017390">
        <ele>2642.400</ele>
        <time>2019-07-14T22:05:57Z</time>
      </trkpt>
      <trkpt lat="35.928911110" lon="-106.501985440">
        <ele>2642.300</ele>
        <time>2019-07-14T22:05:58Z</time>
      </trkpt>
      <trkpt lat="35.928995640" lon="-106.501970820">
        <ele>2640.500</ele>
        <time>2019-07-14T22:05:59Z</time>
      </trkpt>
      <trkpt lat="35.929080960" lon="-106.501955840">
        <ele>2640.100</ele>
        <time>2019-07-14T22:06:00Z</time>
      </trkpt>
      <trkpt lat="35.929165690" lon="-106.501937590">
        <ele>2640.200</ele>
        <time>2019-07-14T22:06:01Z</time>
      </trkpt>
      <trkpt lat="35.929257710" lon="-106.501929400">
        <ele>2640.700</ele>
        <time>2019-07-14T22:06:02Z</time>
      </trkpt>
      <trkpt lat="35.929335150" lon="-106.501917240">
        <ele>2640.900</ele>
        <time>2019-07-14T22:06:03Z</time>
      </trkpt>
      <trkpt lat="35.929415080" lon="-106.501900890">
        <ele>2640.300</ele>
        <time>2019-07-14T22:06:04Z</time>
      </trkpt>
      <trkpt lat="35.929498510" lon="-106.501885530">
        <ele>2640.500</ele>
        <time>2019-07-14T22:06:05Z</time>
      </trkpt>
      <trkpt lat="35.929583510" lon="-106.501864890">
        <ele>2640.300</ele>
        <time>2019-07-14T22:06:06Z</time>
      </trkpt>
      <trkpt lat="35.929662560" lon="-106.501857150">
        <ele>2638.200</ele>
        <time>2019-07-14T22:06:07Z</time>
      </trkpt>
      <trkpt lat="35.929747770" lon="-106.501833320">
        <ele>2637.700</ele>
        <time>2019-07-14T22:06:08Z</time>
      </trkpt>
      <trkpt lat="35.929831600" lon="-106.501816640">
        <ele>2637.400</ele>
        <time>2019-07-14T22:06:09Z</time>
      </trkpt>
      <trkpt lat="35.929913000" lon="-106.501799260">
        <ele>2637.600</ele>
        <time>2019-07-14T22:06:10Z</time>
      </trkpt>
      <trkpt lat="35.929984090" lon="-106.501764390">
        <ele>2637.300</ele>
        <time>2019-07-14T22:06:11Z</time>
      </trkpt>
      <trkpt lat="35.930047270" lon="-106.501727670">
        <ele>2637.000</ele>
        <time>2019-07-14T22:06:12Z</time>
      </trkpt>
      <trkpt lat="35.930110550" lon="-106.501677020">
        <ele>2637.600</ele>
        <time>2019-07-14T22:06:13Z</time>
      </trkpt>
      <trkpt lat="35.930167590" lon="-106.501619500">
        <ele>2636.800</ele>
        <time>2019-07-14T22:06:14Z</time>
      </trkpt>
      <trkpt lat="35.930217900" lon="-106.501552540">
        <ele>2636.700</ele>
        <time>2019-07-14T22:06:15Z</time>
      </trkpt>
      <trkpt lat="35.930266970" lon="-106.501480640">
        <ele>2636.400</ele>
        <time>2019-07-14T22:06:16Z</time>
      </trkpt>
      <trkpt lat="35.930307680" lon="-106.501418180">
        <ele>2634.900</ele>
        <time>2019-07-14T22:06:17Z</time>
      </trkpt>
      <trkpt lat="35.930358130" lon="-106.501353920">
        <ele>2635.200</ele>
        <time>2019-07-14T22:06:18Z</time>
      </trkpt>
      <trkpt lat="35.930408020" lon="-106.501299320">
        <ele>2635.200</ele>
        <time>2019-07-14T22:06:19Z</time>
      </trkpt>
      <trkpt lat="35.930467120" lon="-106.501253430">
        <ele>2634.600</ele>
        <time>2019-07-14T22:06:20Z</time>
      </trkpt>
      <trkpt lat="35.930524570" lon="-106.501222280">
        <ele>2635.500</ele>
        <time>2019-07-14T22:06:21Z</time>
      </trkpt>
      <trkpt lat="35.930590190" lon="-106.501216320">
        <ele>2634.200</ele>
        <time>2019-07-14T22:06:22Z</time>
      </trkpt>
      <trkpt lat="35.930658400" lon="-106.501200370">
        <ele>2633.100</ele>
        <time>2019-07-14T22:06:23Z</time>
      </trkpt>
      <trkpt lat="35.930729810" lon="-106.501180820">
        <ele>2633.200</ele>
        <time>2019-07-14T22:06:24Z</time>
      </trkpt>
      <trkpt lat="35.930797990" lon="-106.501170710">
        <ele>2632.700</ele>
        <time>2019-07-14T22:06:25Z</time>
      </trkpt>
      <trkpt lat="35.930862700" lon="-106.501171890">
        <ele>2633.500</ele>
        <time>2019-07-14T22:06:26Z</time>
      </trkpt>
      <trkpt lat="35.930921110" lon="-106.501175150">
        <ele>2634.100</ele>
        <time>2019-07-14T22:06:27Z</time>
      </trkpt>
      <trkpt lat="35.930973300" lon="-106.501181060">
        <ele>2634.800</ele>
        <time>2019-07-14T22:06:28Z</time>
      </trkpt>
      <trkpt lat="35.931028190" lon="-106.501193450">
        <ele>2635.000</ele>
        <time>2019-07-14T22:06:29Z</time>
      </trkpt>
      <trkpt lat="35.931081090" lon="-106.501209690">
        <ele>2634.300</ele>
        <time>2019-07-14T22:06:30Z</time>
      </trkpt>
      <trkpt lat="35.931140010" lon="-106.501221200">
        <ele>2634.100</ele>
        <time>2019-07-14T22:06:31Z</time>
      </trkpt>
      <trkpt lat="35.931199040" lon="-106.501230920">
        <ele>2634.700</ele>
        <time>2019-07-14T22:06:32Z</time>
      </trkpt>
      <trkpt lat="35.931261340" lon="-106.501241500">
        <ele>2635.100</ele>
        <time>2019-07-14T22:06:33Z</time>
      </trkpt>
      <trkpt lat="35.931330930" lon="-106.501248420">
        <ele>2634.600</ele>
        <time>2019-07-14T22:06:34Z</time>
      </trkpt>
      <trkpt lat="35.931394420" lon="-106.501262880">
        <ele>2635.600</ele>
        <time>2019-07-14T22:06:35Z</time>
      </trkpt>
      <trkpt lat="35.931456250" lon="-106.501290140">
        <ele>2634.200</ele>
        <time>2019-07-14T22:06:36Z</time>
      </trkpt>
      <trkpt lat="35.931517350" lon="-106.501316160">
        <ele>2636.000</ele>
        <time>2019-07-14T22:06:37Z</time>
      </trkpt>
      <trkpt lat="35.931575780" lon="-106.501358820">
        <ele>2636.700</ele>
        <time>2019-07-14T22:06:38Z</time>
      </trkpt>
      <trkpt lat="35.931637700" lon="-106.501392980">
        <ele>2638.000</ele>
        <time>2019-07-14T22:06:39Z</time>
      </trkpt>
      <trkpt lat="35.931694430" lon="-106.501429450">
        <ele>2638.400</ele>
        <time>2019-07-14T22:06:40Z</time>
      </trkpt>
      <trkpt lat="35.931746210" lon="-106.501483460">
        <ele>2638.100</ele>
        <time>2019-07-14T22:06:41Z</time>
      </trkpt>
      <trkpt lat="35.931796100" lon="-106.501554300">
        <ele>2637.600</ele>
        <time>2019-07-14T22:06:42Z</time>
      </trkpt>
      <trkpt lat="35.931845370" lon="-106.501623620">
        <ele>2637.900</ele>
        <time>2019-07-14T22:06:43Z</time>
      </trkpt>
      <trkpt lat="35.931888600" lon="-106.501695070">
        <ele>2637.600</ele>
        <time>2019-07-14T22:06:44Z</time>
      </trkpt>
      <trkpt lat="35.931919510" lon="-106.501758700">
        <ele>2639.100</ele>
        <time>2019-07-14T22:06:45Z</time>
      </trkpt>
      <trkpt lat="35.931958440" lon="-106.501823550">
        <ele>2638.500</ele>
        <time>2019-07-14T22:06:46Z</time>
      </trkpt>
      <trkpt lat="35.931993850" lon="-106.501889130">
        <ele>2638.700</ele>
        <time>2019-07-14T22:06:47Z</time>
      </trkpt>
      <trkpt lat="35.932028340" lon="-106.501950570">
        <ele>2637.900</ele>
        <time>2019-07-14T22:06:48Z</time>
      </trkpt>
      <trkpt lat="35.932057480" lon="-106.502016840">
        <ele>2638.100</ele>
        <time>2019-07-14T22:06:49Z</time>
      </trkpt>
      <trkpt lat="35.932079390" lon="-106.502090990">
        <ele>2638.300</ele>
        <time>2019-07-14T22:06:50Z</time>
      </trkpt>
      <trkpt lat="35.932104360" lon="-106.502157210">
        <ele>2638.700</ele>
        <time>2019-07-14T22:06:51Z</time>
      </trkpt>
      <trkpt lat="35.932112950" lon="-106.502236970">
        <ele>2639.100</ele>
        <time>2019-07-14T22:06:52Z</time>
      </trkpt>
      <trkpt lat="35.932125320" lon="-106.502313530">
        <ele>2639.100</ele>
        <time>2019-07-14T22:06:53Z</time>
      </trkpt>
      <trkpt lat="35.932123170" lon="-106.502391880">
        <ele>2639.300</ele>
        <time>2019-07-14T22:06:54Z</time>
      </trkpt>
      <trkpt lat="35.932131730" lon="-106.502463130">
        <ele>2639.700</ele>
        <time>2019-07-14T22:06:55Z</time>
      </trkpt>
      <trkpt lat="35.932137850" lon="-106.502545680">
        <ele>2640.000</ele>
        <time>2019-07-14T22:06:56Z</time>
      </trkpt>
      <trkpt lat="35.932147800" lon="-106.502627330">
        <ele>2640.800</ele>
        <time>2019-07-14T22:06:57Z</time>
      </trkpt>
      <trkpt lat="35.932166020" lon="-106.502707220">
        <ele>2640.300</ele>
        <time>2019-07-14T22:06:58Z</time>
      </trkpt>
      <trkpt lat="35.932189270" lon="-106.502770810">
        <ele>2640.300</ele>
        <time>2019-07-14T22:06:59Z</time>
      </trkpt>
      <trkpt lat="35.932225360" lon="-106.502848170">
        <ele>2639.600</ele>
        <time>2019-07-14T22:07:00Z</time>
      </trkpt>
      <trkpt lat="35.932249930" lon="-106.502916410">
        <ele>2639.200</ele>
        <time>2019-07-14T22:07:01Z</time>
      </trkpt>
      <trkpt lat="35.932280340" lon="-106.502987100">
        <ele>2638.800</ele>
        <time>2019-07-14T22:07:02Z</time>
      </trkpt>
      <trkpt lat="35.932311830" lon="-106.503059610">
        <ele>2638.400</ele>
        <time>2019-07-14T22:07:03Z</time>
      </trkpt>
      <trkpt lat="35.932337700" lon="-106.503131590">
        <ele>2638.600</ele>
        <time>2019-07-14T22:07:04Z</time>
      </trkpt>
      <trkpt lat="35.932367690" lon="-106.503201480">
        <ele>2638.700</ele>
        <time>2019-07-14T22:07:05Z</time>
      </trkpt>
      <trkpt lat="35.932405070" lon="-106.503271770">
        <ele>2638.300</ele>
        <time>2019-07-14T22:07:06Z</time>
      </trkpt>
      <trkpt lat="35.932429330" lon="-106.503350100">
        <ele>2637.900</ele>
        <time>2019-07-14T22:07:07Z</time>
      </trkpt>
      <trkpt lat="35.932459980" lon="-106.503424780">
        <ele>2637.600</ele>
        <time>2019-07-14T22:07:08Z</time>
      </trkpt>
      <trkpt lat="35.932488730" lon="-106.503500480">
        <ele>2637.200</ele>
        <time>2019-07-14T22:07:09Z</time>
      </trkpt>
      <trkpt lat="35.932509120" lon="-106.503587740">
        <ele>2638.100</ele>
        <time>2019-07-14T22:07:10Z</time>
      </trkpt>
      <trkpt lat="35.932536800" lon="-106.503672680">
        <ele>2637.500</ele>
        <time>2019-07-14T22:07:11Z</time>
      </trkpt>
      <trkpt lat="35.932540510" lon="-106.503761720">
        <ele>2637.100</ele>
        <time>2019-07-14T22:07:12Z</time>
      </trkpt>
      <trkpt lat="35.932542150" lon="-106.503858360">
        <ele>2636.200</ele>
        <time>2019-07-14T22:07:13Z</time>
      </trkpt>
      <trkpt lat="35.932535170" lon="-106.503941020">
        <ele>2635.800</ele>
        <time>2019-07-14T22:07:14Z</time>
      </trkpt>
      <trkpt lat="35.932529550" lon="-106.504053410">
        <ele>2635.000</ele>
        <time>2019-07-14T22:07:15Z</time>
      </trkpt>
      <trkpt lat="35.932536760" lon="-106.504154840">
        <ele>2633.500</ele>
        <time>2019-07-14T22:07:16Z</time>
      </trkpt>
      <trkpt lat="35.932549320" lon="-106.504246780">
        <ele>2633.100</ele>
        <time>2019-07-14T22:07:17Z</time>
      </trkpt>
      <trkpt lat="35.932564110" lon="-106.504327430">
        <ele>2632.600</ele>
        <time>2019-07-14T22:07:18Z</time>
      </trkpt>
      <trkpt lat="35.932568730" lon="-106.504420100">
        <ele>2632.300</ele>
        <time>2019-07-14T22:07:19Z</time>
      </trkpt>
      <trkpt lat="35.932574980" lon="-106.504505810">
        <ele>2631.800</ele>
        <time>2019-07-14T22:07:20Z</time>
      </trkpt>
      <trkpt lat="35.932577870" lon="-106.504589030">
        <ele>2632.700</ele>
        <time>2019-07-14T22:07:21Z</time>
      </trkpt>
      <trkpt lat="35.932570500" lon="-106.504685220">
        <ele>2632.100</ele>
        <time>2019-07-14T22:07:22Z</time>
      </trkpt>
      <trkpt lat="35.932560560" lon="-106.504760680">
        <ele>2632.800</ele>
        <time>2019-07-14T22:07:23Z</time>
      </trkpt>
      <trkpt lat="35.932556790" lon="-106.504844280">
        <ele>2632.600</ele>
        <time>2019-07-14T22:07:24Z</time>
      </trkpt>
      <trkpt lat="35.932544750" lon="-106.504930490">
        <ele>2632.000</ele>
        <time>2019-07-14T22:07:25Z</time>
      </trkpt>
      <trkpt lat="35.932544710" lon="-106.505018960">
        <ele>2632.600</ele>
        <time>2019-07-14T22:07:26Z</time>
      </trkpt>
      <trkpt lat="35.932535830" lon="-106.505115220">
        <ele>2631.800</ele>
        <time>2019-07-14T22:07:27Z</time>
      </trkpt>
      <trkpt lat="35.932524840" lon="-106.505215760">
        <ele>2631.800</ele>
        <time>2019-07-14T22:07:28Z</time>
      </trkpt>
      <trkpt lat="35.932512360" lon="-106.505313070">
        <ele>2632.500</ele>
        <time>2019-07-14T22:07:29Z</time>
      </trkpt>
      <trkpt lat="35.932507430" lon="-106.505400510">
        <ele>2632.700</ele>
        <time>2019-07-14T22:07:30Z</time>
      </trkpt>
      <trkpt lat="35.932495000" lon="-106.505489770">
        <ele>2633.000</ele>
        <time>2019-07-14T22:07:31Z</time>
      </trkpt>
      <trkpt lat="35.932482900" lon="-106.505581420">
        <ele>2632.300</ele>
        <time>2019-07-14T22:07:32Z</time>
      </trkpt>
      <trkpt lat="35.932465360" lon="-106.505665790">
        <ele>2632.500</ele>
        <time>2019-07-14T22:07:33Z</time>
      </trkpt>
      <trkpt lat="35.932464740" lon="-106.505742880">
        <ele>2632.000</ele>
        <time>2019-07-14T22:07:34Z</time>
      </trkpt>
      <trkpt lat="35.932456580" lon="-106.505821400">
        <ele>2631.800</ele>
        <time>2019-07-14T22:07:35Z</time>
      </trkpt>
      <trkpt lat="35.932451990" lon="-106.505901190">
        <ele>2632.000</ele>
        <time>2019-07-14T22:07:36Z</time>
      </trkpt>
      <trkpt lat="35.932450800" lon="-106.505986570">
        <ele>2631.900</ele>
        <time>2019-07-14T22:07:37Z</time>
      </trkpt>
      <trkpt lat="35.932469950" lon="-106.506055400">
        <ele>2631.100</ele>
        <time>2019-07-14T22:07:38Z</time>
      </trkpt>
      <trkpt lat="35.932481770" lon="-106.506142330">
        <ele>2631.000</ele>
        <time>2019-07-14T22:07:39Z</time>
      </trkpt>
      <trkpt lat="35.932509120" lon="-106.506218300">
        <ele>2630.000</ele>
        <time>2019-07-14T22:07:40Z</time>
      </trkpt>
      <trkpt lat="35.932539640" lon="-106.506279570">
        <ele>2630.900</ele>
        <time>2019-07-14T22:07:41Z</time>
      </trkpt>
      <trkpt lat="35.932564480" lon="-106.506360750">
        <ele>2628.900</ele>
        <time>2019-07-14T22:07:42Z</time>
      </trkpt>
      <trkpt lat="35.932610750" lon="-106.506424920">
        <ele>2629.300</ele>
        <time>2019-07-14T22:07:43Z</time>
      </trkpt>
      <trkpt lat="35.932649970" lon="-106.506482270">
        <ele>2628.900</ele>
        <time>2019-07-14T22:07:44Z</time>
      </trkpt>
      <trkpt lat="35.932686910" lon="-106.506539160">
        <ele>2628.800</ele>
        <time>2019-07-14T22:07:45Z</time>
      </trkpt>
      <trkpt lat="35.932726920" lon="-106.506603990">
        <ele>2628.100</ele>
        <time>2019-07-14T22:07:46Z</time>
      </trkpt>
      <trkpt lat="35.932768340" lon="-106.506660070">
        <ele>2627.500</ele>
        <time>2019-07-14T22:07:47Z</time>
      </trkpt>
      <trkpt lat="35.932808660" lon="-106.506729060">
        <ele>2627.900</ele>
        <time>2019-07-14T22:07:48Z</time>
      </trkpt>
      <trkpt lat="35.932854080" lon="-106.506798400">
        <ele>2627.600</ele>
        <time>2019-07-14T22:07:49Z</time>
      </trkpt>
      <trkpt lat="35.932902460" lon="-106.506882660">
        <ele>2627.500</ele>
        <time>2019-07-14T22:07:50Z</time>
      </trkpt>
      <trkpt lat="35.932950700" lon="-106.506954190">
        <ele>2626.800</ele>
        <time>2019-07-14T22:07:51Z</time>
      </trkpt>
      <trkpt lat="35.932994150" lon="-106.507033430">
        <ele>2626.700</ele>
        <time>2019-07-14T22:07:52Z</time>
      </trkpt>
      <trkpt lat="35.933038080" lon="-106.507104460">
        <ele>2625.300</ele>
        <time>2019-07-14T22:07:53Z</time>
      </trkpt>
      <trkpt lat="35.933073620" lon="-106.507191110">
        <ele>2626.100</ele>
        <time>2019-07-14T22:07:54Z</time>
      </trkpt>
      <trkpt lat="35.933113750" lon="-106.507275400">
        <ele>2626.300</ele>
        <time>2019-07-14T22:07:55Z</time>
      </trkpt>
      <trkpt lat="35.933162860" lon="-106.507358120">
        <ele>2625.900</ele>
        <time>2019-07-14T22:07:56Z</time>
      </trkpt>
      <trkpt lat="35.933207940" lon="-106.507445270">
        <ele>2626.100</ele>
        <time>2019-07-14T22:07:57Z</time>
      </trkpt>
      <trkpt lat="35.933241510" lon="-106.507524490">
        <ele>2627.100</ele>
        <time>2019-07-14T22:07:58Z</time>
      </trkpt>
      <trkpt lat="35.933287820" lon="-106.507607620">
        <ele>2626.500</ele>
        <time>2019-07-14T22:07:59Z</time>
      </trkpt>
      <trkpt lat="35.933330050" lon="-106.507681980">
        <ele>2625.900</ele>
        <time>2019-07-14T22:08:00Z</time>
      </trkpt>
      <trkpt lat="35.933356560" lon="-106.507769660">
        <ele>2627.100</ele>
        <time>2019-07-14T22:08:01Z</time>
      </trkpt>
      <trkpt lat="35.933398710" lon="-106.507845120">
        <ele>2627.200</ele>
        <time>2019-07-14T22:08:02Z</time>
      </trkpt>
      <trkpt lat="35.933428810" lon="-106.507924460">
        <ele>2628.300</ele>
        <time>2019-07-14T22:08:03Z</time>
      </trkpt>
      <trkpt lat="35.933471060" lon="-106.508004330">
        <ele>2628.100</ele>
        <time>2019-07-14T22:08:04Z</time>
      </trkpt>
      <trkpt lat="35.933506180" lon="-106.508080250">
        <ele>2627.800</ele>
        <time>2019-07-14T22:08:05Z</time>
      </trkpt>
      <trkpt lat="35.933545600" lon="-106.508155340">
        <ele>2628.000</ele>
        <time>2019-07-14T22:08:06Z</time>
      </trkpt>
      <trkpt lat="35.933571020" lon="-106.508237020">
        <ele>2627.700</ele>
        <time>2019-07-14T22:08:07Z</time>
      </trkpt>
      <trkpt lat="35.933603620" lon="-106.508317840">
        <ele>2628.500</ele>
        <time>2019-07-14T22:08:08Z</time>
      </trkpt>
      <trkpt lat="35.933642830" lon="-106.508384110">
        <ele>2627.700</ele>
        <time>2019-07-14T22:08:09Z</time>
      </trkpt>
      <trkpt lat="35.933673910" lon="-106.508464850">
        <ele>2627.800</ele>
        <time>2019-07-14T22:08:10Z</time>
      </trkpt>
      <trkpt lat="35.933694000" lon="-106.508541920">
        <ele>2628.000</ele>
        <time>2019-07-14T22:08:11Z</time>
      </trkpt>
      <trkpt lat="35.933719560" lon="-106.508613980">
        <ele>2627.400</ele>
        <time>2019-07-14T22:08:12Z</time>
      </trkpt>
      <trkpt lat="35.933752580" lon="-106.508692650">
        <ele>2627.300</ele>
        <time>2019-07-14T22:08:13Z</time>
      </trkpt>
      <trkpt lat="35.933773510" lon="-106.508775520">
        <ele>2627.000</ele>
        <time>2019-07-14T22:08:14Z</time>
      </trkpt>
      <trkpt lat="35.933810220" lon="-106.508866710">
        <ele>2626.300</ele>
        <time>2019-07-14T22:08:15Z</time>
      </trkpt>
      <trkpt lat="35.933829080" lon="-106.508949370">
        <ele>2627.900</ele>
        <time>2019-07-14T22:08:16Z</time>
      </trkpt>
      <trkpt lat="35.933863480" lon="-106.509027750">
        <ele>2627.500</ele>
        <time>2019-07-14T22:08:17Z</time>
      </trkpt>
      <trkpt lat="35.933897460" lon="-106.509105700">
        <ele>2627.200</ele>
        <time>2019-07-14T22:08:18Z</time>
      </trkpt>
      <trkpt lat="35.933916730" lon="-106.509195760">
        <ele>2627.400</ele>
        <time>2019-07-14T22:08:19Z</time>
      </trkpt>
      <trkpt lat="35.933949540" lon="-106.509287660">
        <ele>2628.000</ele>
        <time>2019-07-14T22:08:20Z</time>
      </trkpt>
      <trkpt lat="35.933980870" lon="-106.509378320">
        <ele>2627.800</ele>
        <time>2019-07-14T22:08:21Z</time>
      </trkpt>
      <trkpt lat="35.934006110" lon="-106.509463110">
        <ele>2629.000</ele>
        <time>2019-07-14T22:08:22Z</time>
      </trkpt>
      <trkpt lat="35.934044690" lon="-106.509562000">
        <ele>2628.600</ele>
        <time>2019-07-14T22:08:23Z</time>
      </trkpt>
      <trkpt lat="35.934072460" lon="-106.509658450">
        <ele>2628.800</ele>
        <time>2019-07-14T22:08:24Z</time>
      </trkpt>
      <trkpt lat="35.934098200" lon="-106.509760520">
        <ele>2628.500</ele>
        <time>2019-07-14T22:08:25Z</time>
      </trkpt>
      <trkpt lat="35.934137710" lon="-106.509851470">
        <ele>2626.800</ele>
        <time>2019-07-14T22:08:26Z</time>
      </trkpt>
      <trkpt lat="35.934166470" lon="-106.509961940">
        <ele>2626.300</ele>
        <time>2019-07-14T22:08:27Z</time>
      </trkpt>
      <trkpt lat="35.934201700" lon="-106.510052270">
        <ele>2625.700</ele>
        <time>2019-07-14T22:08:28Z</time>
      </trkpt>
      <trkpt lat="35.934232670" lon="-106.510153090">
        <ele>2625.800</ele>
        <time>2019-07-14T22:08:29Z</time>
      </trkpt>
      <trkpt lat="35.934266910" lon="-106.510246260">
        <ele>2623.900</ele>
        <time>2019-07-14T22:08:30Z</time>
      </trkpt>
      <trkpt lat="35.934300710" lon="-106.510350640">
        <ele>2623.400</ele>
        <time>2019-07-14T22:08:31Z</time>
      </trkpt>
      <trkpt lat="35.934328300" lon="-106.510453810">
        <ele>2623.500</ele>
        <time>2019-07-14T22:08:32Z</time>
      </trkpt>
      <trkpt lat="35.934367370" lon="-106.510545130">
        <ele>2624.500</ele>
        <time>2019-07-14T22:08:33Z</time>
      </trkpt>
      <trkpt lat="35.934392900" lon="-106.510640270">
        <ele>2624.600</ele>
        <time>2019-07-14T22:08:34Z</time>
      </trkpt>
      <trkpt lat="35.934423680" lon="-106.510736100">
        <ele>2623.000</ele>
        <time>2019-07-14T22:08:35Z</time>
      </trkpt>
      <trkpt lat="35.934461570" lon="-106.510816580">
        <ele>2622.900</ele>
        <time>2019-07-14T22:08:36Z</time>
      </trkpt>
      <trkpt lat="35.934506760" lon="-106.510902180">
        <ele>2622.600</ele>
        <time>2019-07-14T22:08:37Z</time>
      </trkpt>
      <trkpt lat="35.934555340" lon="-106.510976800">
        <ele>2622.400</ele>
        <time>2019-07-14T22:08:38Z</time>
      </trkpt>
      <trkpt lat="35.934603750" lon="-106.511061200">
        <ele>2622.000</ele>
        <time>2019-07-14T22:08:39Z</time>
      </trkpt>
      <trkpt lat="35.934673650" lon="-106.511138060">
        <ele>2622.200</ele>
        <time>2019-07-14T22:08:40Z</time>
      </trkpt>
      <trkpt lat="35.934745510" lon="-106.511204760">
        <ele>2622.000</ele>
        <time>2019-07-14T22:08:41Z</time>
      </trkpt>
      <trkpt lat="35.934802690" lon="-106.511277150">
        <ele>2621.500</ele>
        <time>2019-07-14T22:08:42Z</time>
      </trkpt>
      <trkpt lat="35.934854630" lon="-106.511343660">
        <ele>2621.700</ele>
        <time>2019-07-14T22:08:43Z</time>
      </trkpt>
      <trkpt lat="35.934921450" lon="-106.511402810">
        <ele>2620.800</ele>
        <time>2019-07-14T22:08:44Z</time>
      </trkpt>
      <trkpt lat="35.934968300" lon="-106.511491960">
        <ele>2620.400</ele>
        <time>2019-07-14T22:08:45Z</time>
      </trkpt>
      <trkpt lat="35.935014270" lon="-106.511586480">
        <ele>2620.100</ele>
        <time>2019-07-14T22:08:46Z</time>
      </trkpt>
      <trkpt lat="35.935042750" lon="-106.511683950">
        <ele>2620.200</ele>
        <time>2019-07-14T22:08:47Z</time>
      </trkpt>
      <trkpt lat="35.935079190" lon="-106.511790220">
        <ele>2619.500</ele>
        <time>2019-07-14T22:08:48Z</time>
      </trkpt>
      <trkpt lat="35.935122320" lon="-106.511889790">
        <ele>2619.600</ele>
        <time>2019-07-14T22:08:49Z</time>
      </trkpt>
      <trkpt lat="35.935164280" lon="-106.511978530">
        <ele>2620.500</ele>
        <time>2019-07-14T22:08:50Z</time>
      </trkpt>
      <trkpt lat="35.935204430" lon="-106.512067050">
        <ele>2620.400</ele>
        <time>2019-07-14T22:08:51Z</time>
      </trkpt>
      <trkpt lat="35.935249880" lon="-106.512155630">
        <ele>2619.800</ele>
        <time>2019-07-14T22:08:52Z</time>
      </trkpt>
      <trkpt lat="35.935305790" lon="-106.512242760">
        <ele>2619.100</ele>
        <time>2019-07-14T22:08:53Z</time>
      </trkpt>
      <trkpt lat="35.935352830" lon="-106.512333060">
        <ele>2617.600</ele>
        <time>2019-07-14T22:08:54Z</time>
      </trkpt>
      <trkpt lat="35.935404320" lon="-106.512422730">
        <ele>2617.000</ele>
        <time>2019-07-14T22:08:55Z</time>
      </trkpt>
      <trkpt lat="35.935467280" lon="-106.512494420">
        <ele>2615.900</ele>
        <time>2019-07-14T22:08:56Z</time>
      </trkpt>
      <trkpt lat="35.935523740" lon="-106.512569610">
        <ele>2615.900</ele>
        <time>2019-07-14T22:08:57Z</time>
      </trkpt>
      <trkpt lat="35.935583960" lon="-106.512647750">
        <ele>2616.200</ele>
        <time>2019-07-14T22:08:58Z</time>
      </trkpt>
      <trkpt lat="35.935642160" lon="-106.512729590">
        <ele>2615.800</ele>
        <time>2019-07-14T22:08:59Z</time>
      </trkpt>
      <trkpt lat="35.935695190" lon="-106.512813740">
        <ele>2615.900</ele>
        <time>2019-07-14T22:09:00Z</time>
      </trkpt>
      <trkpt lat="35.935747480" lon="-106.512906180">
        <ele>2616.100</ele>
        <time>2019-07-14T22:09:01Z</time>
      </trkpt>
      <trkpt lat="35.935794420" lon="-106.512996380">
        <ele>2616.200</ele>
        <time>2019-07-14T22:09:02Z</time>
      </trkpt>
      <trkpt lat="35.935833580" lon="-106.513079760">
        <ele>2616.200</ele>
        <time>2019-07-14T22:09:03Z</time>
      </trkpt>
      <trkpt lat="35.935873080" lon="-106.513170380">
        <ele>2615.700</ele>
        <time>2019-07-14T22:09:04Z</time>
      </trkpt>
      <trkpt lat="35.935921590" lon="-106.513258440">
        <ele>2615.700</ele>
        <time>2019-07-14T22:09:05Z</time>
      </trkpt>
      <trkpt lat="35.935963520" lon="-106.513345040">
        <ele>2615.300</ele>
        <time>2019-07-14T22:09:06Z</time>
      </trkpt>
      <trkpt lat="35.936000790" lon="-106.513419760">
        <ele>2614.100</ele>
        <time>2019-07-14T22:09:07Z</time>
      </trkpt>
      <trkpt lat="35.936041250" lon="-106.513509830">
        <ele>2614.600</ele>
        <time>2019-07-14T22:09:08Z</time>
      </trkpt>
      <trkpt lat="35.936090610" lon="-106.513589220">
        <ele>2615.300</ele>
        <time>2019-07-14T22:09:09Z</time>
      </trkpt>
      <trkpt lat="35.936144020" lon="-106.513665940">
        <ele>2614.500</ele>
        <time>2019-07-14T22:09:10Z</time>
      </trkpt>
      <trkpt lat="35.936190020" lon="-106.513732320">
        <ele>2614.900</ele>
        <time>2019-07-14T22:09:11Z</time>
      </trkpt>
      <trkpt lat="35.936242380" lon="-106.513791790">
        <ele>2614.600</ele>
        <time>2019-07-14T22:09:12Z</time>
      </trkpt>
      <trkpt lat="35.936292660" lon="-106.513858930">
        <ele>2613.300</ele>
        <time>2019-07-14T22:09:13Z</time>
      </trkpt>
      <trkpt lat="35.936341680" lon="-106.513921900">
        <ele>2613.600</ele>
        <time>2019-07-14T22:09:14Z</time>
      </trkpt>
      <trkpt lat="35.936389530" lon="-106.513975410">
        <ele>2614.300</ele>
        <time>2019-07-14T22:09:15Z</time>
      </trkpt>
      <trkpt lat="35.936436340" lon="-106.514040190">
        <ele>2613.900</ele>
        <time>2019-07-14T22:09:16Z</time>
      </trkpt>
      <trkpt lat="35.936481190" lon="-106.514101050">
        <ele>2614.000</ele>
        <time>2019-07-14T22:09:17Z</time>
      </trkpt>
      <trkpt lat="35.936524230" lon="-106.514162500">
        <ele>2613.500</ele>
        <time>2019-07-14T22:09:18Z</time>
      </trkpt>
      <trkpt lat="35.936573850" lon="-106.514244140">
        <ele>2613.700</ele>
        <time>2019-07-14T22:09:19Z</time>
      </trkpt>
      <trkpt lat="35.936618620" lon="-106.514301610">
        <ele>2614.200</ele>
        <time>2019-07-14T22:09:20Z</time>
      </trkpt>
      <trkpt lat="35.936660980" lon="-106.514362820">
        <ele>2613.100</ele>
        <time>2019-07-14T22:09:21Z</time>
      </trkpt>
      <trkpt lat="35.936706650" lon="-106.514433070">
        <ele>2612.500</ele>
        <time>2019-07-14T22:09:22Z</time>
      </trkpt>
      <trkpt lat="35.936755180" lon="-106.514516450">
        <ele>2611.900</ele>
        <time>2019-07-14T22:09:23Z</time>
      </trkpt>
      <trkpt lat="35.936807710" lon="-106.514597850">
        <ele>2612.300</ele>
        <time>2019-07-14T22:09:24Z</time>
      </trkpt>
      <trkpt lat="35.936858400" lon="-106.514676250">
        <ele>2612.200</ele>
        <time>2019-07-14T22:09:25Z</time>
      </trkpt>
      <trkpt lat="35.936913670" lon="-106.514758230">
        <ele>2611.800</ele>
        <time>2019-07-14T22:09:26Z</time>
      </trkpt>
      <trkpt lat="35.936967040" lon="-106.514844450">
        <ele>2611.900</ele>
        <time>2019-07-14T22:09:27Z</time>
      </trkpt>
      <trkpt lat="35.937017420" lon="-106.514930840">
        <ele>2612.800</ele>
        <time>2019-07-14T22:09:28Z</time>
      </trkpt>
      <trkpt lat="35.937066400" lon="-106.515019690">
        <ele>2613.200</ele>
        <time>2019-07-14T22:09:29Z</time>
      </trkpt>
      <trkpt lat="35.937116740" lon="-106.515087880">
        <ele>2613.700</ele>
        <time>2019-07-14T22:09:30Z</time>
      </trkpt>
      <trkpt lat="35.937168760" lon="-106.515161300">
        <ele>2613.900</ele>
        <time>2019-07-14T22:09:31Z</time>
      </trkpt>
      <trkpt lat="35.937217920" lon="-106.515221520">
        <ele>2613.400</ele>
        <time>2019-07-14T22:09:32Z</time>
      </trkpt>
      <trkpt lat="35.937271450" lon="-106.515285630">
        <ele>2614.200</ele>
        <time>2019-07-14T22:09:33Z</time>
      </trkpt>
      <trkpt lat="35.937321970" lon="-106.515342040">
        <ele>2614.500</ele>
        <time>2019-07-14T22:09:34Z</time>
      </trkpt>
      <trkpt lat="35.937373620" lon="-106.515373360">
        <ele>2614.300</ele>
        <time>2019-07-14T22:09:35Z</time>
      </trkpt>
      <trkpt lat="35.937437890" lon="-106.515399980">
        <ele>2613.500</ele>
        <time>2019-07-14T22:09:36Z</time>
      </trkpt>
      <trkpt lat="35.937489550" lon="-106.515430480">
        <ele>2612.000</ele>
        <time>2019-07-14T22:09:37Z</time>
      </trkpt>
      <trkpt lat="35.937553780" lon="-106.515456640">
        <ele>2611.200</ele>
        <time>2019-07-14T22:09:38Z</time>
      </trkpt>
      <trkpt lat="35.937617030" lon="-106.515482020">
        <ele>2610.900</ele>
        <time>2019-07-14T22:09:39Z</time>
      </trkpt>
      <trkpt lat="35.937682300" lon="-106.515514890">
        <ele>2610.200</ele>
        <time>2019-07-14T22:09:40Z</time>
      </trkpt>
      <trkpt lat="35.937739910" lon="-106.515550440">
        <ele>2611.000</ele>
        <time>2019-07-14T22:09:41Z</time>
      </trkpt>
      <trkpt lat="35.937807240" lon="-106.515580680">
        <ele>2610.700</ele>
        <time>2019-07-14T22:09:42Z</time>
      </trkpt>
      <trkpt lat="35.937882310" lon="-106.515614160">
        <ele>2609.600</ele>
        <time>2019-07-14T22:09:43Z</time>
      </trkpt>
      <trkpt lat="35.937936960" lon="-106.515640630">
        <ele>2610.300</ele>
        <time>2019-07-14T22:09:44Z</time>
      </trkpt>
      <trkpt lat="35.938003540" lon="-106.515671150">
        <ele>2611.100</ele>
        <time>2019-07-14T22:09:45Z</time>
      </trkpt>
      <trkpt lat="35.938062150" lon="-106.515715950">
        <ele>2612.000</ele>
        <time>2019-07-14T22:09:46Z</time>
      </trkpt>
      <trkpt lat="35.938120170" lon="-106.515765700">
        <ele>2611.900</ele>
        <time>2019-07-14T22:09:47Z</time>
      </trkpt>
      <trkpt lat="35.938171430" lon="-106.515813180">
        <ele>2612.500</ele>
        <time>2019-07-14T22:09:48Z</time>
      </trkpt>
      <trkpt lat="35.938215690" lon="-106.515885020">
        <ele>2612.000</ele>
        <time>2019-07-14T22:09:49Z</time>
      </trkpt>
      <trkpt lat="35.938272380" lon="-106.515928760">
        <ele>2611.400</ele>
        <time>2019-07-14T22:09:50Z</time>
      </trkpt>
      <trkpt lat="35.938323610" lon="-106.516001030">
        <ele>2610.800</ele>
        <time>2019-07-14T22:09:51Z</time>
      </trkpt>
      <trkpt lat="35.938367540" lon="-106.516072450">
        <ele>2610.400</ele>
        <time>2019-07-14T22:09:52Z</time>
      </trkpt>
      <trkpt lat="35.938421090" lon="-106.516152490">
        <ele>2607.400</ele>
        <time>2019-07-14T22:09:53Z</time>
      </trkpt>
      <trkpt lat="35.938477830" lon="-106.516232420">
        <ele>2607.300</ele>
        <time>2019-07-14T22:09:54Z</time>
      </trkpt>
      <trkpt lat="35.938532570" lon="-106.516298140">
        <ele>2606.700</ele>
        <time>2019-07-14T22:09:55Z</time>
      </trkpt>
      <trkpt lat="35.938586720" lon="-106.516376210">
        <ele>2607.300</ele>
        <time>2019-07-14T22:09:56Z</time>
      </trkpt>
      <trkpt lat="35.938636450" lon="-106.516453660">
        <ele>2607.000</ele>
        <time>2019-07-14T22:09:57Z</time>
      </trkpt>
      <trkpt lat="35.938683840" lon="-106.516539610">
        <ele>2607.100</ele>
        <time>2019-07-14T22:09:58Z</time>
      </trkpt>
      <trkpt lat="35.938730190" lon="-106.516635650">
        <ele>2606.900</ele>
        <time>2019-07-14T22:09:59Z</time>
      </trkpt>
      <trkpt lat="35.938780740" lon="-106.516721910">
        <ele>2605.900</ele>
        <time>2019-07-14T22:10:00Z</time>
      </trkpt>
      <trkpt lat="35.938823780" lon="-106.516818560">
        <ele>2605.900</ele>
        <time>2019-07-14T22:10:01Z</time>
      </trkpt>
      <trkpt lat="35.938876000" lon="-106.516906880">
        <ele>2605.900</ele>
        <time>2019-07-14T22:10:02Z</time>
      </trkpt>
      <trkpt lat="35.938921750" lon="-106.516985220">
        <ele>2606.000</ele>
        <time>2019-07-14T22:10:03Z</time>
      </trkpt>
      <trkpt lat="35.938973560" lon="-106.517060590">
        <ele>2605.900</ele>
        <time>2019-07-14T22:10:04Z</time>
      </trkpt>
      <trkpt lat="35.939025210" lon="-106.517129210">
        <ele>2605.500</ele>
        <time>2019-07-14T22:10:05Z</time>
      </trkpt>
      <trkpt lat="35.939080110" lon="-106.517218090">
        <ele>2605.900</ele>
        <time>2019-07-14T22:10:06Z</time>
      </trkpt>
      <trkpt lat="35.939132510" lon="-106.517285600">
        <ele>2605.700</ele>
        <time>2019-07-14T22:10:07Z</time>
      </trkpt>
      <trkpt lat="35.939180760" lon="-106.517345100">
        <ele>2605.600</ele>
        <time>2019-07-14T22:10:08Z</time>
      </trkpt>
      <trkpt lat="35.939228360" lon="-106.517403630">
        <ele>2605.200</ele>
        <time>2019-07-14T22:10:09Z</time>
      </trkpt>
      <trkpt lat="35.939290040" lon="-106.517466260">
        <ele>2604.500</ele>
        <time>2019-07-14T22:10:10Z</time>
      </trkpt>
      <trkpt lat="35.939347550" lon="-106.517525530">
        <ele>2603.800</ele>
        <time>2019-07-14T22:10:11Z</time>
      </trkpt>
      <trkpt lat="35.939399340" lon="-106.517581900">
        <ele>2604.000</ele>
        <time>2019-07-14T22:10:12Z</time>
      </trkpt>
      <trkpt lat="35.939457970" lon="-106.517638670">
        <ele>2604.200</ele>
        <time>2019-07-14T22:10:13Z</time>
      </trkpt>
      <trkpt lat="35.939519790" lon="-106.517703330">
        <ele>2604.200</ele>
        <time>2019-07-14T22:10:14Z</time>
      </trkpt>
      <trkpt lat="35.939570020" lon="-106.517732630">
        <ele>2604.300</ele>
        <time>2019-07-14T22:10:15Z</time>
      </trkpt>
      <trkpt lat="35.939629270" lon="-106.517781820">
        <ele>2604.200</ele>
        <time>2019-07-14T22:10:16Z</time>
      </trkpt>
      <trkpt lat="35.939687040" lon="-106.517838790">
        <ele>2603.600</ele>
        <time>2019-07-14T22:10:17Z</time>
      </trkpt>
      <trkpt lat="35.939755660" lon="-106.517878580">
        <ele>2603.400</ele>
        <time>2019-07-14T22:10:18Z</time>
      </trkpt>
      <trkpt lat="35.939825790" lon="-106.517924670">
        <ele>2603.100</ele>
        <time>2019-07-14T22:10:19Z</time>
      </trkpt>
      <trkpt lat="35.939900570" lon="-106.517962230">
        <ele>2602.600</ele>
        <time>2019-07-14T22:10:20Z</time>
      </trkpt>
      <trkpt lat="35.939977440" lon="-106.517996770">
        <ele>2603.100</ele>
        <time>2019-07-14T22:10:21Z</time>
      </trkpt>
      <trkpt lat="35.940048650" lon="-106.518035770">
        <ele>2602.800</ele>
        <time>2019-07-14T22:10:22Z</time>
      </trkpt>
      <trkpt lat="35.940140460" lon="-106.518065330">
        <ele>2603.000</ele>
        <time>2019-07-14T22:10:23Z</time>
      </trkpt>
      <trkpt lat="35.940226520" lon="-106.518108340">
        <ele>2601.300</ele>
        <time>2019-07-14T22:10:24Z</time>
      </trkpt>
      <trkpt lat="35.940305770" lon="-106.518157630">
        <ele>2601.100</ele>
        <time>2019-07-14T22:10:25Z</time>
      </trkpt>
      <trkpt lat="35.940383050" lon="-106.518218010">
        <ele>2600.400</ele>
        <time>2019-07-14T22:10:26Z</time>
      </trkpt>
      <trkpt lat="35.940456310" lon="-106.518279310">
        <ele>2600.800</ele>
        <time>2019-07-14T22:10:27Z</time>
      </trkpt>
      <trkpt lat="35.940531990" lon="-106.518338850">
        <ele>2600.800</ele>
        <time>2019-07-14T22:10:28Z</time>
      </trkpt>
      <trkpt lat="35.940609990" lon="-106.518410730">
        <ele>2600.200</ele>
        <time>2019-07-14T22:10:29Z</time>
      </trkpt>
      <trkpt lat="35.940682850" lon="-106.518467590">
        <ele>2600.600</ele>
        <time>2019-07-14T22:10:30Z</time>
      </trkpt>
      <trkpt lat="35.940749590" lon="-106.518539590">
        <ele>2600.600</ele>
        <time>2019-07-14T22:10:31Z</time>
      </trkpt>
      <trkpt lat="35.940816100" lon="-106.518611290">
        <ele>2601.300</ele>
        <time>2019-07-14T22:10:32Z</time>
      </trkpt>
      <trkpt lat="35.940877510" lon="-106.518692530">
        <ele>2601.300</ele>
        <time>2019-07-14T22:10:33Z</time>
      </trkpt>
      <trkpt lat="35.940946200" lon="-106.518761340">
        <ele>2601.500</ele>
        <time>2019-07-14T22:10:34Z</time>
      </trkpt>
      <trkpt lat="35.941010900" lon="-106.518831750">
        <ele>2602.000</ele>
        <time>2019-07-14T22:10:35Z</time>
      </trkpt>
      <trkpt lat="35.941087390" lon="-106.518866920">
        <ele>2601.400</ele>
        <time>2019-07-14T22:10:36Z</time>
      </trkpt>
      <trkpt lat="35.941162690" lon="-106.518902800">
        <ele>2600.200</ele>
        <time>2019-07-14T22:10:37Z</time>
      </trkpt>
      <trkpt lat="35.941239830" lon="-106.518940320">
        <ele>2600.000</ele>
        <time>2019-07-14T22:10:38Z</time>
      </trkpt>
      <trkpt lat="35.941313430" lon="-106.518973340">
        <ele>2598.900</ele>
        <time>2019-07-14T22:10:39Z</time>
      </trkpt>
      <trkpt lat="35.941386030" lon="-106.518989900">
        <ele>2599.200</ele>
        <time>2019-07-14T22:10:40Z</time>
      </trkpt>
      <trkpt lat="35.941463070" lon="-106.518991310">
        <ele>2598.400</ele>
        <time>2019-07-14T22:10:41Z</time>
      </trkpt>
      <trkpt lat="35.941531100" lon="-106.518986930">
        <ele>2598.900</ele>
        <time>2019-07-14T22:10:42Z</time>
      </trkpt>
      <trkpt lat="35.941599270" lon="-106.518979020">
        <ele>2599.500</ele>
        <time>2019-07-14T22:10:43Z</time>
      </trkpt>
      <trkpt lat="35.941647970" lon="-106.518961480">
        <ele>2598.200</ele>
        <time>2019-07-14T22:10:44Z</time>
      </trkpt>
      <trkpt lat="35.941693530" lon="-106.518951890">
        <ele>2599.300</ele>
        <time>2019-07-14T22:10:45Z</time>
      </trkpt>
      <trkpt lat="35.941740120" lon="-106.518967260">
        <ele>2597.400</ele>
        <time>2019-07-14T22:10:46Z</time>
      </trkpt>
      <trkpt lat="35.941787650" lon="-106.518962940">
        <ele>2597.500</ele>
        <time>2019-07-14T22:10:47Z</time>
      </trkpt>
      <trkpt lat="35.941832340" lon="-106.518959310">
        <ele>2596.400</ele>
        <time>2019-07-14T22:10:48Z</time>
      </trkpt>
      <trkpt lat="35.941890240" lon="-106.518957400">
        <ele>2596.400</ele>
        <time>2019-07-14T22:10:49Z</time>
      </trkpt>
      <trkpt lat="35.941957230" lon="-106.518976730">
        <ele>2594.400</ele>
        <time>2019-07-14T22:10:50Z</time>
      </trkpt>
      <trkpt lat="35.942026850" lon="-106.518982930">
        <ele>2593.600</ele>
        <time>2019-07-14T22:10:51Z</time>
      </trkpt>
      <trkpt lat="35.942091420" lon="-106.519019130">
        <ele>2591.400</ele>
        <time>2019-07-14T22:10:52Z</time>
      </trkpt>
      <trkpt lat="35.942162010" lon="-106.519047300">
        <ele>2591.900</ele>
        <time>2019-07-14T22:10:53Z</time>
      </trkpt>
      <trkpt lat="35.942229490" lon="-106.519094170">
        <ele>2592.500</ele>
        <time>2019-07-14T22:10:54Z</time>
      </trkpt>
      <trkpt lat="35.942299570" lon="-106.519141700">
        <ele>2592.100</ele>
        <time>2019-07-14T22:10:55Z</time>
      </trkpt>
      <trkpt lat="35.942370030" lon="-106.519195950">
        <ele>2592.300</ele>
        <time>2019-07-14T22:10:56Z</time>
      </trkpt>
      <trkpt lat="35.942432840" lon="-106.519247090">
        <ele>2593.500</ele>
        <time>2019-07-14T22:10:57Z</time>
      </trkpt>
      <trkpt lat="35.942489980" lon="-106.519299310">
        <ele>2593.500</ele>
        <time>2019-07-14T22:10:58Z</time>
      </trkpt>
      <trkpt lat="35.942548880" lon="-106.519346720">
        <ele>2593.100</ele>
        <time>2019-07-14T22:10:59Z</time>
      </trkpt>
      <trkpt lat="35.942610710" lon="-106.519410840">
        <ele>2592.100</ele>
        <time>2019-07-14T22:11:00Z</time>
      </trkpt>
      <trkpt lat="35.942670910" lon="-106.519453530">
        <ele>2591.500</ele>
        <time>2019-07-14T22:11:01Z</time>
      </trkpt>
      <trkpt lat="35.942737420" lon="-106.519499530">
        <ele>2591.700</ele>
        <time>2019-07-14T22:11:02Z</time>
      </trkpt>
      <trkpt lat="35.942807260" lon="-106.519539010">
        <ele>2591.400</ele>
        <time>2019-07-14T22:11:03Z</time>
      </trkpt>
      <trkpt lat="35.942874420" lon="-106.519569200">
        <ele>2591.400</ele>
        <time>2019-07-14T22:11:04Z</time>
      </trkpt>
      <trkpt lat="35.942938650" lon="-106.519615140">
        <ele>2591.700</ele>
        <time>2019-07-14T22:11:05Z</time>
      </trkpt>
      <trkpt lat="35.943010650" lon="-106.519634670">
        <ele>2591.800</ele>
        <time>2019-07-14T22:11:06Z</time>
      </trkpt>
      <trkpt lat="35.943106660" lon="-106.519635960">
        <ele>2591.000</ele>
        <time>2019-07-14T22:11:07Z</time>
      </trkpt>
      <trkpt lat="35.943187410" lon="-106.519638880">
        <ele>2591.500</ele>
        <time>2019-07-14T22:11:08Z</time>
      </trkpt>
      <trkpt lat="35.943260370" lon="-106.519673150">
        <ele>2591.800</ele>
        <time>2019-07-14T22:11:09Z</time>
      </trkpt>
      <trkpt lat="35.943345430" lon="-106.519677630">
        <ele>2590.400</ele>
        <time>2019-07-14T22:11:10Z</time>
      </trkpt>
      <trkpt lat="35.943423840" lon="-106.519691550">
        <ele>2589.900</ele>
        <time>2019-07-14T22:11:11Z</time>
      </trkpt>
      <trkpt lat="35.943506520" lon="-106.519703840">
        <ele>2589.700</ele>
        <time>2019-07-14T22:11:12Z</time>
      </trkpt>
      <trkpt lat="35.943580780" lon="-106.519714660">
        <ele>2589.200</ele>
        <time>2019-07-14T22:11:13Z</time>
      </trkpt>
      <trkpt lat="35.943663280" lon="-106.519730250">
        <ele>2588.700</ele>
        <time>2019-07-14T22:11:14Z</time>
      </trkpt>
      <trkpt lat="35.943730450" lon="-106.519750860">
        <ele>2587.500</ele>
        <time>2019-07-14T22:11:15Z</time>
      </trkpt>
      <trkpt lat="35.943807680" lon="-106.519754560">
        <ele>2586.200</ele>
        <time>2019-07-14T22:11:16Z</time>
      </trkpt>
      <trkpt lat="35.943878610" lon="-106.519791060">
        <ele>2586.300</ele>
        <time>2019-07-14T22:11:17Z</time>
      </trkpt>
      <trkpt lat="35.943950560" lon="-106.519820600">
        <ele>2586.000</ele>
        <time>2019-07-14T22:11:18Z</time>
      </trkpt>
      <trkpt lat="35.944009050" lon="-106.519853610">
        <ele>2585.000</ele>
        <time>2019-07-14T22:11:19Z</time>
      </trkpt>
      <trkpt lat="35.944079770" lon="-106.519884530">
        <ele>2585.300</ele>
        <time>2019-07-14T22:11:20Z</time>
      </trkpt>
      <trkpt lat="35.944148640" lon="-106.519915680">
        <ele>2585.500</ele>
        <time>2019-07-14T22:11:21Z</time>
      </trkpt>
      <trkpt lat="35.944219480" lon="-106.519942770">
        <ele>2585.900</ele>
        <time>2019-07-14T22:11:22Z</time>
      </trkpt>
      <trkpt lat="35.944290350" lon="-106.519977700">
        <ele>2586.300</ele>
        <time>2019-07-14T22:11:23Z</time>
      </trkpt>
      <trkpt lat="35.944344840" lon="-106.519982150">
        <ele>2585.800</ele>
        <time>2019-07-14T22:11:24Z</time>
      </trkpt>
      <trkpt lat="35.944398580" lon="-106.520001580">
        <ele>2586.200</ele>
        <time>2019-07-14T22:11:25Z</time>
      </trkpt>
      <trkpt lat="35.944457890" lon="-106.519996960">
        <ele>2586.700</ele>
        <time>2019-07-14T22:11:27Z</time>
      </trkpt>
      <trkpt lat="35.944477480" lon="-106.520037580">
        <ele>2588.200</ele>
        <time>2019-07-14T22:13:31Z</time>
      </trkpt>
      <trkpt lat="35.944537440" lon="-106.520057290">
        <ele>2588.400</ele>
        <time>2019-07-14T22:13:33Z</time>
      </trkpt>
      <trkpt lat="35.944589320" lon="-106.520071370">
        <ele>2587.100</ele>
        <time>2019-07-14T22:13:34Z</time>
      </trkpt>
      <trkpt lat="35.944632020" lon="-106.520084550">
        <ele>2587.100</ele>
        <time>2019-07-14T22:13:35Z</time>
      </trkpt>
      <trkpt lat="35.944689280" lon="-106.520105420">
        <ele>2587.100</ele>
        <time>2019-07-14T22:13:36Z</time>
      </trkpt>
      <trkpt lat="35.944734720" lon="-106.520132270">
        <ele>2586.400</ele>
        <time>2019-07-14T22:13:37Z</time>
      </trkpt>
      <trkpt lat="35.944814050" lon="-106.520133360">
        <ele>2586.500</ele>
        <time>2019-07-14T22:13:38Z</time>
      </trkpt>
      <trkpt lat="35.944878430" lon="-106.520155680">
        <ele>2586.900</ele>
        <time>2019-07-14T22:13:39Z</time>
      </trkpt>
      <trkpt lat="35.944941850" lon="-106.520176780">
        <ele>2587.100</ele>
        <time>2019-07-14T22:13:40Z</time>
      </trkpt>
      <trkpt lat="35.945013360" lon="-106.520200250">
        <ele>2587.800</ele>
        <time>2019-07-14T22:13:41Z</time>
      </trkpt>
      <trkpt lat="35.945077990" lon="-106.520225770">
        <ele>2588.600</ele>
        <time>2019-07-14T22:13:42Z</time>
      </trkpt>
      <trkpt lat="35.945142690" lon="-106.520250110">
        <ele>2588.500</ele>
        <time>2019-07-14T22:13:43Z</time>
      </trkpt>
      <trkpt lat="35.945212890" lon="-106.520280880">
        <ele>2588.700</ele>
        <time>2019-07-14T22:13:44Z</time>
      </trkpt>
      <trkpt lat="35.945290380" lon="-106.520319030">
        <ele>2588.700</ele>
        <time>2019-07-14T22:13:45Z</time>
      </trkpt>
      <trkpt lat="35.945364730" lon="-106.520356970">
        <ele>2588.400</ele>
        <time>2019-07-14T22:13:46Z</time>
      </trkpt>
      <trkpt lat="35.945431200" lon="-106.520398730">
        <ele>2588.700</ele>
        <time>2019-07-14T22:13:47Z</time>
      </trkpt>
      <trkpt lat="35.945502250" lon="-106.520440860">
        <ele>2589.000</ele>
        <time>2019-07-14T22:13:48Z</time>
      </trkpt>
      <trkpt lat="35.945573100" lon="-106.520493950">
        <ele>2588.900</ele>
        <time>2019-07-14T22:13:49Z</time>
      </trkpt>
      <trkpt lat="35.945636500" lon="-106.520510350">
        <ele>2593.200</ele>
        <time>2019-07-14T22:13:50Z</time>
      </trkpt>
      <trkpt lat="35.945692840" lon="-106.520544440">
        <ele>2594.600</ele>
        <time>2019-07-14T22:13:51Z</time>
      </trkpt>
      <trkpt lat="35.945733760" lon="-106.520619270">
        <ele>2592.500</ele>
        <time>2019-07-14T22:13:52Z</time>
      </trkpt>
      <trkpt lat="35.945791430" lon="-106.520657500">
        <ele>2592.200</ele>
        <time>2019-07-14T22:13:53Z</time>
      </trkpt>
      <trkpt lat="35.945845220" lon="-106.520666320">
        <ele>2592.100</ele>
        <time>2019-07-14T22:13:54Z</time>
      </trkpt>
      <trkpt lat="35.945876880" lon="-106.520694210">
        <ele>2592.000</ele>
        <time>2019-07-14T22:13:55Z</time>
      </trkpt>
      <trkpt lat="35.945936020" lon="-106.520691840">
        <ele>2592.200</ele>
        <time>2019-07-14T22:13:56Z</time>
      </trkpt>
      <trkpt lat="35.946013170" lon="-106.520698400">
        <ele>2590.600</ele>
        <time>2019-07-14T22:13:57Z</time>
      </trkpt>
      <trkpt lat="35.946089360" lon="-106.520682990">
        <ele>2591.000</ele>
        <time>2019-07-14T22:13:58Z</time>
      </trkpt>
      <trkpt lat="35.946146710" lon="-106.520648410">
        <ele>2590.600</ele>
        <time>2019-07-14T22:13:59Z</time>
      </trkpt>
      <trkpt lat="35.946221470" lon="-106.520630670">
        <ele>2591.400</ele>
        <time>2019-07-14T22:14:00Z</time>
      </trkpt>
      <trkpt lat="35.946297940" lon="-106.520606360">
        <ele>2590.900</ele>
        <time>2019-07-14T22:14:01Z</time>
      </trkpt>
      <trkpt lat="35.946379700" lon="-106.520589360">
        <ele>2590.300</ele>
        <time>2019-07-14T22:14:02Z</time>
      </trkpt>
      <trkpt lat="35.946459920" lon="-106.520552800">
        <ele>2590.600</ele>
        <time>2019-07-14T22:14:03Z</time>
      </trkpt>
      <trkpt lat="35.946534580" lon="-106.520533230">
        <ele>2589.900</ele>
        <time>2019-07-14T22:14:04Z</time>
      </trkpt>
      <trkpt lat="35.946627040" lon="-106.520521010">
        <ele>2589.700</ele>
        <time>2019-07-14T22:14:05Z</time>
      </trkpt>
      <trkpt lat="35.946703530" lon="-106.520483530">
        <ele>2589.800</ele>
        <time>2019-07-14T22:14:06Z</time>
      </trkpt>
      <trkpt lat="35.946786020" lon="-106.520453870">
        <ele>2589.500</ele>
        <time>2019-07-14T22:14:07Z</time>
      </trkpt>
      <trkpt lat="35.946861840" lon="-106.520423950">
        <ele>2588.600</ele>
        <time>2019-07-14T22:14:08Z</time>
      </trkpt>
      <trkpt lat="35.946932420" lon="-106.520398190">
        <ele>2587.700</ele>
        <time>2019-07-14T22:14:09Z</time>
      </trkpt>
      <trkpt lat="35.946990620" lon="-106.520393610">
        <ele>2588.500</ele>
        <time>2019-07-14T22:14:10Z</time>
      </trkpt>
      <trkpt lat="35.947070890" lon="-106.520370690">
        <ele>2587.700</ele>
        <time>2019-07-14T22:14:11Z</time>
      </trkpt>
      <trkpt lat="35.947158840" lon="-106.520341680">
        <ele>2587.600</ele>
        <time>2019-07-14T22:14:12Z</time>
      </trkpt>
      <trkpt lat="35.947238690" lon="-106.520313300">
        <ele>2587.900</ele>
        <time>2019-07-14T22:14:13Z</time>
      </trkpt>
      <trkpt lat="35.947319280" lon="-106.520288430">
        <ele>2587.400</ele>
        <time>2019-07-14T22:14:14Z</time>
      </trkpt>
      <trkpt lat="35.947392910" lon="-106.520285430">
        <ele>2587.900</ele>
        <time>2019-07-14T22:14:15Z</time>
      </trkpt>
      <trkpt lat="35.947465310" lon="-106.520278890">
        <ele>2588.600</ele>
        <time>2019-07-14T22:14:16Z</time>
      </trkpt>
      <trkpt lat="35.947539840" lon="-106.520297100">
        <ele>2586.500</ele>
        <time>2019-07-14T22:14:17Z</time>
      </trkpt>
      <trkpt lat="35.947613150" lon="-106.520306760">
        <ele>2586.400</ele>
        <time>2019-07-14T22:14:18Z</time>
      </trkpt>
      <trkpt lat="35.947688260" lon="-106.520320810">
        <ele>2586.000</ele>
        <time>2019-07-14T22:14:19Z</time>
      </trkpt>
      <trkpt lat="35.947763110" lon="-106.520350260">
        <ele>2585.800</ele>
        <time>2019-07-14T22:14:20Z</time>
      </trkpt>
      <trkpt lat="35.947840150" lon="-106.520389530">
        <ele>2585.200</ele>
        <time>2019-07-14T22:14:21Z</time>
      </trkpt>
      <trkpt lat="35.947910030" lon="-106.520439390">
        <ele>2585.000</ele>
        <time>2019-07-14T22:14:22Z</time>
      </trkpt>
      <trkpt lat="35.947970980" lon="-106.520496470">
        <ele>2584.800</ele>
        <time>2019-07-14T22:14:23Z</time>
      </trkpt>
      <trkpt lat="35.948020660" lon="-106.520571150">
        <ele>2584.500</ele>
        <time>2019-07-14T22:14:24Z</time>
      </trkpt>
      <trkpt lat="35.948083840" lon="-106.520633580">
        <ele>2584.500</ele>
        <time>2019-07-14T22:14:25Z</time>
      </trkpt>
      <trkpt lat="35.948127370" lon="-106.520698830">
        <ele>2585.800</ele>
        <time>2019-07-14T22:14:26Z</time>
      </trkpt>
      <trkpt lat="35.948174210" lon="-106.520760620">
        <ele>2585.400</ele>
        <time>2019-07-14T22:14:27Z</time>
      </trkpt>
      <trkpt lat="35.948222850" lon="-106.520823270">
        <ele>2586.200</ele>
        <time>2019-07-14T22:14:28Z</time>
      </trkpt>
      <trkpt lat="35.948280030" lon="-106.520874070">
        <ele>2586.200</ele>
        <time>2019-07-14T22:14:29Z</time>
      </trkpt>
      <trkpt lat="35.948327860" lon="-106.520911600">
        <ele>2586.900</ele>
        <time>2019-07-14T22:14:30Z</time>
      </trkpt>
      <trkpt lat="35.948381220" lon="-106.520929500">
        <ele>2587.000</ele>
        <time>2019-07-14T22:14:31Z</time>
      </trkpt>
      <trkpt lat="35.948434130" lon="-106.520952470">
        <ele>2588.700</ele>
        <time>2019-07-14T22:14:32Z</time>
      </trkpt>
      <trkpt lat="35.948480680" lon="-106.520962410">
        <ele>2589.100</ele>
        <time>2019-07-14T22:14:33Z</time>
      </trkpt>
      <trkpt lat="35.948538120" lon="-106.520962730">
        <ele>2589.300</ele>
        <time>2019-07-14T22:14:34Z</time>
      </trkpt>
      <trkpt lat="35.948594570" lon="-106.520975310">
        <ele>2590.000</ele>
        <time>2019-07-14T22:14:35Z</time>
      </trkpt>
      <trkpt lat="35.948649200" lon="-106.520966480">
        <ele>2589.300</ele>
        <time>2019-07-14T22:14:36Z</time>
      </trkpt>
      <trkpt lat="35.948697820" lon="-106.520947150">
        <ele>2589.000</ele>
        <time>2019-07-14T22:14:37Z</time>
      </trkpt>
      <trkpt lat="35.948753160" lon="-106.520933610">
        <ele>2588.000</ele>
        <time>2019-07-14T22:14:38Z</time>
      </trkpt>
      <trkpt lat="35.948803210" lon="-106.520905960">
        <ele>2588.400</ele>
        <time>2019-07-14T22:14:39Z</time>
      </trkpt>
      <trkpt lat="35.948853380" lon="-106.520870430">
        <ele>2588.300</ele>
        <time>2019-07-14T22:14:40Z</time>
      </trkpt>
      <trkpt lat="35.948904610" lon="-106.520811400">
        <ele>2588.600</ele>
        <time>2019-07-14T22:14:41Z</time>
      </trkpt>
      <trkpt lat="35.948946360" lon="-106.520767160">
        <ele>2588.400</ele>
        <time>2019-07-14T22:14:42Z</time>
      </trkpt>
      <trkpt lat="35.949011040" lon="-106.520720820">
        <ele>2588.300</ele>
        <time>2019-07-14T22:14:43Z</time>
      </trkpt>
      <trkpt lat="35.949063580" lon="-106.520675990">
        <ele>2590.300</ele>
        <time>2019-07-14T22:14:44Z</time>
      </trkpt>
      <trkpt lat="35.949116280" lon="-106.520630530">
        <ele>2590.400</ele>
        <time>2019-07-14T22:14:45Z</time>
      </trkpt>
      <trkpt lat="35.949167980" lon="-106.520592760">
        <ele>2590.300</ele>
        <time>2019-07-14T22:14:46Z</time>
      </trkpt>
      <trkpt lat="35.949235550" lon="-106.520553590">
        <ele>2588.900</ele>
        <time>2019-07-14T22:14:47Z</time>
      </trkpt>
      <trkpt lat="35.949302310" lon="-106.520521840">
        <ele>2589.600</ele>
        <time>2019-07-14T22:14:48Z</time>
      </trkpt>
      <trkpt lat="35.949366020" lon="-106.520488570">
        <ele>2589.700</ele>
        <time>2019-07-14T22:14:49Z</time>
      </trkpt>
      <trkpt lat="35.949434610" lon="-106.520450670">
        <ele>2589.400</ele>
        <time>2019-07-14T22:14:50Z</time>
      </trkpt>
      <trkpt lat="35.949503960" lon="-106.520413670">
        <ele>2588.900</ele>
        <time>2019-07-14T22:14:51Z</time>
      </trkpt>
      <trkpt lat="35.949575500" lon="-106.520380090">
        <ele>2589.100</ele>
        <time>2019-07-14T22:14:52Z</time>
      </trkpt>
      <trkpt lat="35.949659780" lon="-106.520358630">
        <ele>2588.600</ele>
        <time>2019-07-14T22:14:53Z</time>
      </trkpt>
      <trkpt lat="35.949722530" lon="-106.520346310">
        <ele>2588.500</ele>
        <time>2019-07-14T22:14:54Z</time>
      </trkpt>
      <trkpt lat="35.949797300" lon="-106.520327930">
        <ele>2589.200</ele>
        <time>2019-07-14T22:14:55Z</time>
      </trkpt>
      <trkpt lat="35.949874140" lon="-106.520318720">
        <ele>2589.100</ele>
        <time>2019-07-14T22:14:56Z</time>
      </trkpt>
      <trkpt lat="35.949945950" lon="-106.520314810">
        <ele>2589.800</ele>
        <time>2019-07-14T22:14:57Z</time>
      </trkpt>
      <trkpt lat="35.950014730" lon="-106.520317030">
        <ele>2590.100</ele>
        <time>2019-07-14T22:14:58Z</time>
      </trkpt>
      <trkpt lat="35.950089310" lon="-106.520314870">
        <ele>2589.600</ele>
        <time>2019-07-14T22:14:59Z</time>
      </trkpt>
      <trkpt lat="35.950152910" lon="-106.520317630">
        <ele>2589.200</ele>
        <time>2019-07-14T22:15:00Z</time>
      </trkpt>
      <trkpt lat="35.950216450" lon="-106.520314300">
        <ele>2590.000</ele>
        <time>2019-07-14T22:15:01Z</time>
      </trkpt>
      <trkpt lat="35.950283460" lon="-106.520303210">
        <ele>2591.600</ele>
        <time>2019-07-14T22:15:02Z</time>
      </trkpt>
      <trkpt lat="35.950343870" lon="-106.520308860">
        <ele>2590.900</ele>
        <time>2019-07-14T22:15:03Z</time>
      </trkpt>
      <trkpt lat="35.950407600" lon="-106.520300000">
        <ele>2590.600</ele>
        <time>2019-07-14T22:15:04Z</time>
      </trkpt>
      <trkpt lat="35.950469180" lon="-106.520300230">
        <ele>2591.100</ele>
        <time>2019-07-14T22:15:05Z</time>
      </trkpt>
      <trkpt lat="35.950530620" lon="-106.520305890">
        <ele>2591.500</ele>
        <time>2019-07-14T22:15:06Z</time>
      </trkpt>
      <trkpt lat="35.950600500" lon="-106.520298270">
        <ele>2592.800</ele>
        <time>2019-07-14T22:15:07Z</time>
      </trkpt>
      <trkpt lat="35.950672540" lon="-106.520287770">
        <ele>2593.900</ele>
        <time>2019-07-14T22:15:08Z</time>
      </trkpt>
      <trkpt lat="35.950748830" lon="-106.520284630">
        <ele>2593.200</ele>
        <time>2019-07-14T22:15:09Z</time>
      </trkpt>
      <trkpt lat="35.950821020" lon="-106.520284680">
        <ele>2593.500</ele>
        <time>2019-07-14T22:15:10Z</time>
      </trkpt>
      <trkpt lat="35.950892410" lon="-106.520289490">
        <ele>2593.000</ele>
        <time>2019-07-14T22:15:11Z</time>
      </trkpt>
      <trkpt lat="35.950971150" lon="-106.520287700">
        <ele>2593.200</ele>
        <time>2019-07-14T22:15:12Z</time>
      </trkpt>
      <trkpt lat="35.951046770" lon="-106.520292330">
        <ele>2593.400</ele>
        <time>2019-07-14T22:15:13Z</time>
      </trkpt>
      <trkpt lat="35.951128670" lon="-106.520305820">
        <ele>2591.300</ele>
        <time>2019-07-14T22:15:14Z</time>
      </trkpt>
      <trkpt lat="35.951227570" lon="-106.520320490">
        <ele>2589.600</ele>
        <time>2019-07-14T22:15:15Z</time>
      </trkpt>
      <trkpt lat="35.951309170" lon="-106.520334990">
        <ele>2589.500</ele>
        <time>2019-07-14T22:15:16Z</time>
      </trkpt>
      <trkpt lat="35.951385340" lon="-106.520349500">
        <ele>2589.200</ele>
        <time>2019-07-14T22:15:17Z</time>
      </trkpt>
      <trkpt lat="35.951461400" lon="-106.520379750">
        <ele>2587.800</ele>
        <time>2019-07-14T22:15:18Z</time>
      </trkpt>
      <trkpt lat="35.951536240" lon="-106.520393910">
        <ele>2587.300</ele>
        <time>2019-07-14T22:15:19Z</time>
      </trkpt>
      <trkpt lat="35.951616190" lon="-106.520395590">
        <ele>2586.000</ele>
        <time>2019-07-14T22:15:20Z</time>
      </trkpt>
      <trkpt lat="35.951698740" lon="-106.520401420">
        <ele>2586.000</ele>
        <time>2019-07-14T22:15:21Z</time>
      </trkpt>
      <trkpt lat="35.951791430" lon="-106.520402710">
        <ele>2586.600</ele>
        <time>2019-07-14T22:15:22Z</time>
      </trkpt>
      <trkpt lat="35.951874410" lon="-106.520398910">
        <ele>2586.900</ele>
        <time>2019-07-14T22:15:23Z</time>
      </trkpt>
      <trkpt lat="35.951959100" lon="-106.520433120">
        <ele>2586.800</ele>
        <time>2019-07-14T22:15:24Z</time>
      </trkpt>
      <trkpt lat="35.952046850" lon="-106.520415150">
        <ele>2587.600</ele>
        <time>2019-07-14T22:15:25Z</time>
      </trkpt>
      <trkpt lat="35.952130130" lon="-106.520410700">
        <ele>2588.700</ele>
        <time>2019-07-14T22:15:26Z</time>
      </trkpt>
      <trkpt lat="35.952216050" lon="-106.520388140">
        <ele>2588.500</ele>
        <time>2019-07-14T22:15:27Z</time>
      </trkpt>
      <trkpt lat="35.952298210" lon="-106.520412590">
        <ele>2587.200</ele>
        <time>2019-07-14T22:15:28Z</time>
      </trkpt>
      <trkpt lat="35.952391990" lon="-106.520381150">
        <ele>2587.700</ele>
        <time>2019-07-14T22:15:29Z</time>
      </trkpt>
      <trkpt lat="35.952476210" lon="-106.520416220">
        <ele>2586.700</ele>
        <time>2019-07-14T22:15:30Z</time>
      </trkpt>
      <trkpt lat="35.952568830" lon="-106.520396690">
        <ele>2586.800</ele>
        <time>2019-07-14T22:15:31Z</time>
      </trkpt>
      <trkpt lat="35.952661610" lon="-106.520379520">
        <ele>2587.800</ele>
        <time>2019-07-14T22:15:32Z</time>
      </trkpt>
      <trkpt lat="35.952756660" lon="-106.520358780">
        <ele>2589.200</ele>
        <time>2019-07-14T22:15:33Z</time>
      </trkpt>
      <trkpt lat="35.952849570" lon="-106.520359960">
        <ele>2588.900</ele>
        <time>2019-07-14T22:15:34Z</time>
      </trkpt>
      <trkpt lat="35.952945030" lon="-106.520349060">
        <ele>2589.900</ele>
        <time>2019-07-14T22:15:35Z</time>
      </trkpt>
      <trkpt lat="35.953044560" lon="-106.520338360">
        <ele>2590.300</ele>
        <time>2019-07-14T22:15:36Z</time>
      </trkpt>
      <trkpt lat="35.953139510" lon="-106.520329530">
        <ele>2590.600</ele>
        <time>2019-07-14T22:15:37Z</time>
      </trkpt>
      <trkpt lat="35.953237210" lon="-106.520326480">
        <ele>2590.100</ele>
        <time>2019-07-14T22:15:38Z</time>
      </trkpt>
      <trkpt lat="35.953339510" lon="-106.520319190">
        <ele>2590.300</ele>
        <time>2019-07-14T22:15:39Z</time>
      </trkpt>
      <trkpt lat="35.953427710" lon="-106.520311530">
        <ele>2590.500</ele>
        <time>2019-07-14T22:15:40Z</time>
      </trkpt>
      <trkpt lat="35.953532540" lon="-106.520300630">
        <ele>2589.100</ele>
        <time>2019-07-14T22:15:41Z</time>
      </trkpt>
      <trkpt lat="35.953632040" lon="-106.520290240">
        <ele>2589.300</ele>
        <time>2019-07-14T22:15:42Z</time>
      </trkpt>
      <trkpt lat="35.953727820" lon="-106.520277840">
        <ele>2589.700</ele>
        <time>2019-07-14T22:15:43Z</time>
      </trkpt>
      <trkpt lat="35.953821870" lon="-106.520250470">
        <ele>2588.900</ele>
        <time>2019-07-14T22:15:44Z</time>
      </trkpt>
      <trkpt lat="35.953920150" lon="-106.520223520">
        <ele>2588.800</ele>
        <time>2019-07-14T22:15:45Z</time>
      </trkpt>
      <trkpt lat="35.954008050" lon="-106.520233700">
        <ele>2587.300</ele>
        <time>2019-07-14T22:15:46Z</time>
      </trkpt>
      <trkpt lat="35.954104440" lon="-106.520210640">
        <ele>2587.700</ele>
        <time>2019-07-14T22:15:47Z</time>
      </trkpt>
      <trkpt lat="35.954206060" lon="-106.520198910">
        <ele>2587.200</ele>
        <time>2019-07-14T22:15:48Z</time>
      </trkpt>
      <trkpt lat="35.954305040" lon="-106.520189010">
        <ele>2586.900</ele>
        <time>2019-07-14T22:15:49Z</time>
      </trkpt>
      <trkpt lat="35.954401090" lon="-106.520163550">
        <ele>2586.600</ele>
        <time>2019-07-14T22:15:50Z</time>
      </trkpt>
      <trkpt lat="35.954494780" lon="-106.520137850">
        <ele>2586.000</ele>
        <time>2019-07-14T22:15:51Z</time>
      </trkpt>
      <trkpt lat="35.954593940" lon="-106.520109500">
        <ele>2585.800</ele>
        <time>2019-07-14T22:15:52Z</time>
      </trkpt>
      <trkpt lat="35.954711060" lon="-106.520110680">
        <ele>2586.900</ele>
        <time>2019-07-14T22:15:53Z</time>
      </trkpt>
      <trkpt lat="35.954795670" lon="-106.520060550">
        <ele>2587.000</ele>
        <time>2019-07-14T22:15:54Z</time>
      </trkpt>
      <trkpt lat="35.954890760" lon="-106.520036660">
        <ele>2587.100</ele>
        <time>2019-07-14T22:15:55Z</time>
      </trkpt>
      <trkpt lat="35.954997960" lon="-106.520014700">
        <ele>2586.200</ele>
        <time>2019-07-14T22:15:56Z</time>
      </trkpt>
      <trkpt lat="35.955102720" lon="-106.519990700">
        <ele>2585.200</ele>
        <time>2019-07-14T22:15:57Z</time>
      </trkpt>
      <trkpt lat="35.955213470" lon="-106.519961510">
        <ele>2586.500</ele>
        <time>2019-07-14T22:15:58Z</time>
      </trkpt>
      <trkpt lat="35.955320240" lon="-106.519932730">
        <ele>2585.500</ele>
        <time>2019-07-14T22:15:59Z</time>
      </trkpt>
      <trkpt lat="35.955403330" lon="-106.519891850">
        <ele>2586.800</ele>
        <time>2019-07-14T22:16:00Z</time>
      </trkpt>
      <trkpt lat="35.955502770" lon="-106.519851880">
        <ele>2586.900</ele>
        <time>2019-07-14T22:16:01Z</time>
      </trkpt>
      <trkpt lat="35.955604830" lon="-106.519813320">
        <ele>2586.500</ele>
        <time>2019-07-14T22:16:02Z</time>
      </trkpt>
      <trkpt lat="35.955697180" lon="-106.519771610">
        <ele>2586.200</ele>
        <time>2019-07-14T22:16:03Z</time>
      </trkpt>
      <trkpt lat="35.955787760" lon="-106.519729900">
        <ele>2586.900</ele>
        <time>2019-07-14T22:16:04Z</time>
      </trkpt>
      <trkpt lat="35.955895980" lon="-106.519718310">
        <ele>2586.000</ele>
        <time>2019-07-14T22:16:05Z</time>
      </trkpt>
      <trkpt lat="35.955997410" lon="-106.519670970">
        <ele>2585.500</ele>
        <time>2019-07-14T22:16:06Z</time>
      </trkpt>
      <trkpt lat="35.956094450" lon="-106.519635420">
        <ele>2585.600</ele>
        <time>2019-07-14T22:16:07Z</time>
      </trkpt>
      <trkpt lat="35.956196020" lon="-106.519599900">
        <ele>2583.500</ele>
        <time>2019-07-14T22:16:08Z</time>
      </trkpt>
      <trkpt lat="35.956307500" lon="-106.519577510">
        <ele>2584.300</ele>
        <time>2019-07-14T22:16:09Z</time>
      </trkpt>
      <trkpt lat="35.956413870" lon="-106.519536940">
        <ele>2585.600</ele>
        <time>2019-07-14T22:16:10Z</time>
      </trkpt>
      <trkpt lat="35.956526490" lon="-106.519488270">
        <ele>2584.700</ele>
        <time>2019-07-14T22:16:11Z</time>
      </trkpt>
      <trkpt lat="35.956631920" lon="-106.519458320">
        <ele>2584.700</ele>
        <time>2019-07-14T22:16:12Z</time>
      </trkpt>
      <trkpt lat="35.956744180" lon="-106.519404930">
        <ele>2584.800</ele>
        <time>2019-07-14T22:16:13Z</time>
      </trkpt>
      <trkpt lat="35.956836880" lon="-106.519372460">
        <ele>2584.500</ele>
        <time>2019-07-14T22:16:14Z</time>
      </trkpt>
      <trkpt lat="35.956925520" lon="-106.519343310">
        <ele>2584.200</ele>
        <time>2019-07-14T22:16:15Z</time>
      </trkpt>
      <trkpt lat="35.957008880" lon="-106.519331020">
        <ele>2584.100</ele>
        <time>2019-07-14T22:16:16Z</time>
      </trkpt>
      <trkpt lat="35.957108710" lon="-106.519277320">
        <ele>2583.500</ele>
        <time>2019-07-14T22:16:17Z</time>
      </trkpt>
      <trkpt lat="35.957229020" lon="-106.519243410">
        <ele>2583.500</ele>
        <time>2019-07-14T22:16:18Z</time>
      </trkpt>
      <trkpt lat="35.957331330" lon="-106.519220200">
        <ele>2582.000</ele>
        <time>2019-07-14T22:16:19Z</time>
      </trkpt>
      <trkpt lat="35.957438760" lon="-106.519169110">
        <ele>2581.400</ele>
        <time>2019-07-14T22:16:20Z</time>
      </trkpt>
      <trkpt lat="35.957539180" lon="-106.519142690">
        <ele>2580.400</ele>
        <time>2019-07-14T22:16:21Z</time>
      </trkpt>
      <trkpt lat="35.957640240" lon="-106.519100370">
        <ele>2579.300</ele>
        <time>2019-07-14T22:16:22Z</time>
      </trkpt>
      <trkpt lat="35.957698120" lon="-106.519074600">
        <ele>2577.600</ele>
        <time>2019-07-14T22:16:23Z</time>
      </trkpt>
      <trkpt lat="35.957812990" lon="-106.519022180">
        <ele>2578.800</ele>
        <time>2019-07-14T22:16:24Z</time>
      </trkpt>
      <trkpt lat="35.957922570" lon="-106.518961080">
        <ele>2578.700</ele>
        <time>2019-07-14T22:16:25Z</time>
      </trkpt>
      <trkpt lat="35.958035660" lon="-106.518894160">
        <ele>2577.600</ele>
        <time>2019-07-14T22:16:26Z</time>
      </trkpt>
      <trkpt lat="35.958120030" lon="-106.518856000">
        <ele>2578.900</ele>
        <time>2019-07-14T22:16:27Z</time>
      </trkpt>
      <trkpt lat="35.958220110" lon="-106.518787030">
        <ele>2578.300</ele>
        <time>2019-07-14T22:16:28Z</time>
      </trkpt>
      <trkpt lat="35.958321580" lon="-106.518711670">
        <ele>2577.100</ele>
        <time>2019-07-14T22:16:29Z</time>
      </trkpt>
      <trkpt lat="35.958414720" lon="-106.518636480">
        <ele>2576.000</ele>
        <time>2019-07-14T22:16:30Z</time>
      </trkpt>
      <trkpt lat="35.958508470" lon="-106.518575730">
        <ele>2574.800</ele>
        <time>2019-07-14T22:16:31Z</time>
      </trkpt>
      <trkpt lat="35.958593650" lon="-106.518505250">
        <ele>2574.300</ele>
        <time>2019-07-14T22:16:32Z</time>
      </trkpt>
      <trkpt lat="35.958679870" lon="-106.518446510">
        <ele>2574.400</ele>
        <time>2019-07-14T22:16:33Z</time>
      </trkpt>
      <trkpt lat="35.958770230" lon="-106.518362370">
        <ele>2574.800</ele>
        <time>2019-07-14T22:16:34Z</time>
      </trkpt>
      <trkpt lat="35.958846870" lon="-106.518295300">
        <ele>2574.700</ele>
        <time>2019-07-14T22:16:35Z</time>
      </trkpt>
      <trkpt lat="35.958925610" lon="-106.518234630">
        <ele>2574.100</ele>
        <time>2019-07-14T22:16:36Z</time>
      </trkpt>
      <trkpt lat="35.959006960" lon="-106.518168000">
        <ele>2574.900</ele>
        <time>2019-07-14T22:16:37Z</time>
      </trkpt>
      <trkpt lat="35.959086660" lon="-106.518087920">
        <ele>2575.800</ele>
        <time>2019-07-14T22:16:38Z</time>
      </trkpt>
      <trkpt lat="35.959172720" lon="-106.518002370">
        <ele>2574.800</ele>
        <time>2019-07-14T22:16:39Z</time>
      </trkpt>
      <trkpt lat="35.959234430" lon="-106.517916890">
        <ele>2574.800</ele>
        <time>2019-07-14T22:16:40Z</time>
      </trkpt>
      <trkpt lat="35.959298080" lon="-106.517831120">
        <ele>2574.200</ele>
        <time>2019-07-14T22:16:41Z</time>
      </trkpt>
      <trkpt lat="35.959365580" lon="-106.517728930">
        <ele>2573.600</ele>
        <time>2019-07-14T22:16:42Z</time>
      </trkpt>
      <trkpt lat="35.959444340" lon="-106.517652590">
        <ele>2572.600</ele>
        <time>2019-07-14T22:16:43Z</time>
      </trkpt>
      <trkpt lat="35.959506520" lon="-106.517548810">
        <ele>2573.200</ele>
        <time>2019-07-14T22:16:44Z</time>
      </trkpt>
      <trkpt lat="35.959573540" lon="-106.517461110">
        <ele>2573.700</ele>
        <time>2019-07-14T22:16:45Z</time>
      </trkpt>
      <trkpt lat="35.959643620" lon="-106.517373080">
        <ele>2573.500</ele>
        <time>2019-07-14T22:16:46Z</time>
      </trkpt>
      <trkpt lat="35.959710460" lon="-106.517286870">
        <ele>2574.300</ele>
        <time>2019-07-14T22:16:47Z</time>
      </trkpt>
      <trkpt lat="35.959777090" lon="-106.517200660">
        <ele>2574.100</ele>
        <time>2019-07-14T22:16:48Z</time>
      </trkpt>
      <trkpt lat="35.959836140" lon="-106.517123800">
        <ele>2574.600</ele>
        <time>2019-07-14T22:16:49Z</time>
      </trkpt>
      <trkpt lat="35.959899630" lon="-106.517042810">
        <ele>2575.000</ele>
        <time>2019-07-14T22:16:50Z</time>
      </trkpt>
      <trkpt lat="35.959969040" lon="-106.516943170">
        <ele>2573.200</ele>
        <time>2019-07-14T22:16:51Z</time>
      </trkpt>
      <trkpt lat="35.960020490" lon="-106.516877210">
        <ele>2572.800</ele>
        <time>2019-07-14T22:16:52Z</time>
      </trkpt>
      <trkpt lat="35.960084390" lon="-106.516801270">
        <ele>2573.300</ele>
        <time>2019-07-14T22:16:53Z</time>
      </trkpt>
      <trkpt lat="35.960160850" lon="-106.516702920">
        <ele>2572.800</ele>
        <time>2019-07-14T22:16:54Z</time>
      </trkpt>
      <trkpt lat="35.960216230" lon="-106.516628720">
        <ele>2572.800</ele>
        <time>2019-07-14T22:16:55Z</time>
      </trkpt>
      <trkpt lat="35.960301300" lon="-106.516538880">
        <ele>2574.900</ele>
        <time>2019-07-14T22:16:56Z</time>
      </trkpt>
      <trkpt lat="35.960379120" lon="-106.516426010">
        <ele>2575.400</ele>
        <time>2019-07-14T22:16:57Z</time>
      </trkpt>
      <trkpt lat="35.960481030" lon="-106.516363880">
        <ele>2574.800</ele>
        <time>2019-07-14T22:16:58Z</time>
      </trkpt>
      <trkpt lat="35.960513650" lon="-106.516300980">
        <ele>2574.800</ele>
        <time>2019-07-14T22:16:59Z</time>
      </trkpt>
      <trkpt lat="35.960564940" lon="-106.516225790">
        <ele>2573.500</ele>
        <time>2019-07-14T22:17:00Z</time>
      </trkpt>
      <trkpt lat="35.960625090" lon="-106.516140530">
        <ele>2573.000</ele>
        <time>2019-07-14T22:17:01Z</time>
      </trkpt>
      <trkpt lat="35.960668840" lon="-106.516073790">
        <ele>2573.300</ele>
        <time>2019-07-14T22:17:02Z</time>
      </trkpt>
      <trkpt lat="35.960720970" lon="-106.516014210">
        <ele>2573.300</ele>
        <time>2019-07-14T22:17:03Z</time>
      </trkpt>
      <trkpt lat="35.960776070" lon="-106.515940400">
        <ele>2573.600</ele>
        <time>2019-07-14T22:17:04Z</time>
      </trkpt>
      <trkpt lat="35.960845340" lon="-106.515847780">
        <ele>2574.300</ele>
        <time>2019-07-14T22:17:05Z</time>
      </trkpt>
      <trkpt lat="35.960900970" lon="-106.515772410">
        <ele>2574.900</ele>
        <time>2019-07-14T22:17:06Z</time>
      </trkpt>
      <trkpt lat="35.960956840" lon="-106.515698280">
        <ele>2575.300</ele>
        <time>2019-07-14T22:17:07Z</time>
      </trkpt>
      <trkpt lat="35.961010850" lon="-106.515622130">
        <ele>2575.300</ele>
        <time>2019-07-14T22:17:08Z</time>
      </trkpt>
      <trkpt lat="35.961085990" lon="-106.515534920">
        <ele>2576.000</ele>
        <time>2019-07-14T22:17:09Z</time>
      </trkpt>
      <trkpt lat="35.961138990" lon="-106.515460280">
        <ele>2575.400</ele>
        <time>2019-07-14T22:17:10Z</time>
      </trkpt>
      <trkpt lat="35.961213590" lon="-106.515379670">
        <ele>2574.400</ele>
        <time>2019-07-14T22:17:11Z</time>
      </trkpt>
      <trkpt lat="35.961278810" lon="-106.515307240">
        <ele>2575.100</ele>
        <time>2019-07-14T22:17:12Z</time>
      </trkpt>
      <trkpt lat="35.961345650" lon="-106.515244510">
        <ele>2573.000</ele>
        <time>2019-07-14T22:17:13Z</time>
      </trkpt>
      <trkpt lat="35.961410620" lon="-106.515168630">
        <ele>2574.500</ele>
        <time>2019-07-14T22:17:14Z</time>
      </trkpt>
      <trkpt lat="35.961479960" lon="-106.515104390">
        <ele>2575.200</ele>
        <time>2019-07-14T22:17:15Z</time>
      </trkpt>
      <trkpt lat="35.961543720" lon="-106.515027920">
        <ele>2575.800</ele>
        <time>2019-07-14T22:17:16Z</time>
      </trkpt>
      <trkpt lat="35.961611360" lon="-106.514952790">
        <ele>2576.700</ele>
        <time>2019-07-14T22:17:17Z</time>
      </trkpt>
      <trkpt lat="35.961680800" lon="-106.514877490">
        <ele>2577.300</ele>
        <time>2019-07-14T22:17:18Z</time>
      </trkpt>
      <trkpt lat="35.961746290" lon="-106.514801430">
        <ele>2576.700</ele>
        <time>2019-07-14T22:17:19Z</time>
      </trkpt>
      <trkpt lat="35.961822630" lon="-106.514723690">
        <ele>2577.900</ele>
        <time>2019-07-14T22:17:20Z</time>
      </trkpt>
      <trkpt lat="35.961897860" lon="-106.514661710">
        <ele>2576.600</ele>
        <time>2019-07-14T22:17:21Z</time>
      </trkpt>
      <trkpt lat="35.961969620" lon="-106.514594760">
        <ele>2575.100</ele>
        <time>2019-07-14T22:17:22Z</time>
      </trkpt>
      <trkpt lat="35.962042830" lon="-106.514510150">
        <ele>2575.000</ele>
        <time>2019-07-14T22:17:23Z</time>
      </trkpt>
      <trkpt lat="35.962115410" lon="-106.514436750">
        <ele>2574.900</ele>
        <time>2019-07-14T22:17:24Z</time>
      </trkpt>
      <trkpt lat="35.962208280" lon="-106.514365890">
        <ele>2575.800</ele>
        <time>2019-07-14T22:17:25Z</time>
      </trkpt>
      <trkpt lat="35.962292840" lon="-106.514309910">
        <ele>2575.600</ele>
        <time>2019-07-14T22:17:26Z</time>
      </trkpt>
      <trkpt lat="35.962371570" lon="-106.514248780">
        <ele>2576.100</ele>
        <time>2019-07-14T22:17:27Z</time>
      </trkpt>
      <trkpt lat="35.962455630" lon="-106.514197360">
        <ele>2575.100</ele>
        <time>2019-07-14T22:17:28Z</time>
      </trkpt>
      <trkpt lat="35.962546740" lon="-106.514159470">
        <ele>2574.200</ele>
        <time>2019-07-14T22:17:29Z</time>
      </trkpt>
      <trkpt lat="35.962626450" lon="-106.514146750">
        <ele>2573.800</ele>
        <time>2019-07-14T22:17:30Z</time>
      </trkpt>
      <trkpt lat="35.962713530" lon="-106.514152990">
        <ele>2572.300</ele>
        <time>2019-07-14T22:17:31Z</time>
      </trkpt>
      <trkpt lat="35.962794570" lon="-106.514183390">
        <ele>2570.700</ele>
        <time>2019-07-14T22:17:32Z</time>
      </trkpt>
      <trkpt lat="35.962879650" lon="-106.514196220">
        <ele>2571.100</ele>
        <time>2019-07-14T22:17:33Z</time>
      </trkpt>
      <trkpt lat="35.962967530" lon="-106.514216030">
        <ele>2571.200</ele>
        <time>2019-07-14T22:17:34Z</time>
      </trkpt>
      <trkpt lat="35.963054880" lon="-106.514228790">
        <ele>2571.200</ele>
        <time>2019-07-14T22:17:35Z</time>
      </trkpt>
      <trkpt lat="35.963149070" lon="-106.514250220">
        <ele>2571.900</ele>
        <time>2019-07-14T22:17:36Z</time>
      </trkpt>
      <trkpt lat="35.963242890" lon="-106.514266430">
        <ele>2571.700</ele>
        <time>2019-07-14T22:17:37Z</time>
      </trkpt>
      <trkpt lat="35.963336910" lon="-106.514283420">
        <ele>2573.000</ele>
        <time>2019-07-14T22:17:38Z</time>
      </trkpt>
      <trkpt lat="35.963427960" lon="-106.514323470">
        <ele>2575.300</ele>
        <time>2019-07-14T22:17:39Z</time>
      </trkpt>
      <trkpt lat="35.963523310" lon="-106.514360080">
        <ele>2575.400</ele>
        <time>2019-07-14T22:17:40Z</time>
      </trkpt>
      <trkpt lat="35.963618960" lon="-106.514387160">
        <ele>2576.000</ele>
        <time>2019-07-14T22:17:41Z</time>
      </trkpt>
      <trkpt lat="35.963707790" lon="-106.514436980">
        <ele>2576.300</ele>
        <time>2019-07-14T22:17:42Z</time>
      </trkpt>
      <trkpt lat="35.963801240" lon="-106.514483760">
        <ele>2576.400</ele>
        <time>2019-07-14T22:17:43Z</time>
      </trkpt>
      <trkpt lat="35.963888130" lon="-106.514550460">
        <ele>2576.600</ele>
        <time>2019-07-14T22:17:44Z</time>
      </trkpt>
      <trkpt lat="35.963979310" lon="-106.514610460">
        <ele>2577.700</ele>
        <time>2019-07-14T22:17:45Z</time>
      </trkpt>
      <trkpt lat="35.964068620" lon="-106.514652550">
        <ele>2578.300</ele>
        <time>2019-07-14T22:17:46Z</time>
      </trkpt>
      <trkpt lat="35.964176210" lon="-106.514701300">
        <ele>2578.100</ele>
        <time>2019-07-14T22:17:47Z</time>
      </trkpt>
      <trkpt lat="35.964266630" lon="-106.514748180">
        <ele>2578.300</ele>
        <time>2019-07-14T22:17:48Z</time>
      </trkpt>
      <trkpt lat="35.964355670" lon="-106.514794290">
        <ele>2578.400</ele>
        <time>2019-07-14T22:17:49Z</time>
      </trkpt>
      <trkpt lat="35.964446650" lon="-106.514846030">
        <ele>2578.600</ele>
        <time>2019-07-14T22:17:50Z</time>
      </trkpt>
      <trkpt lat="35.964539000" lon="-106.514882470">
        <ele>2578.200</ele>
        <time>2019-07-14T22:17:51Z</time>
      </trkpt>
      <trkpt lat="35.964636330" lon="-106.514918630">
        <ele>2578.500</ele>
        <time>2019-07-14T22:17:52Z</time>
      </trkpt>
      <trkpt lat="35.964734670" lon="-106.514993450">
        <ele>2577.300</ele>
        <time>2019-07-14T22:17:53Z</time>
      </trkpt>
      <trkpt lat="35.964832840" lon="-106.515073320">
        <ele>2576.100</ele>
        <time>2019-07-14T22:17:54Z</time>
      </trkpt>
      <trkpt lat="35.964922000" lon="-106.515140190">
        <ele>2576.400</ele>
        <time>2019-07-14T22:17:55Z</time>
      </trkpt>
      <trkpt lat="35.965004450" lon="-106.515205350">
        <ele>2576.700</ele>
        <time>2019-07-14T22:17:56Z</time>
      </trkpt>
      <trkpt lat="35.965085550" lon="-106.515293950">
        <ele>2576.100</ele>
        <time>2019-07-14T22:17:57Z</time>
      </trkpt>
      <trkpt lat="35.965166240" lon="-106.515375420">
        <ele>2574.800</ele>
        <time>2019-07-14T22:17:58Z</time>
      </trkpt>
      <trkpt lat="35.965249750" lon="-106.515473280">
        <ele>2575.300</ele>
        <time>2019-07-14T22:17:59Z</time>
      </trkpt>
      <trkpt lat="35.965338910" lon="-106.515570720">
        <ele>2575.700</ele>
        <time>2019-07-14T22:18:00Z</time>
      </trkpt>
      <trkpt lat="35.965420940" lon="-106.515670210">
        <ele>2576.500</ele>
        <time>2019-07-14T22:18:01Z</time>
      </trkpt>
      <trkpt lat="35.965506920" lon="-106.515773560">
        <ele>2575.000</ele>
        <time>2019-07-14T22:18:02Z</time>
      </trkpt>
      <trkpt lat="35.965579430" lon="-106.515856560">
        <ele>2576.000</ele>
        <time>2019-07-14T22:18:03Z</time>
      </trkpt>
      <trkpt lat="35.965660130" lon="-106.515954310">
        <ele>2573.000</ele>
        <time>2019-07-14T22:18:04Z</time>
      </trkpt>
      <trkpt lat="35.965749020" lon="-106.516047580">
        <ele>2573.400</ele>
        <time>2019-07-14T22:18:05Z</time>
      </trkpt>
      <trkpt lat="35.965823430" lon="-106.516136500">
        <ele>2573.200</ele>
        <time>2019-07-14T22:18:06Z</time>
      </trkpt>
      <trkpt lat="35.965905710" lon="-106.516233470">
        <ele>2573.400</ele>
        <time>2019-07-14T22:18:07Z</time>
      </trkpt>
      <trkpt lat="35.965987750" lon="-106.516329640">
        <ele>2573.400</ele>
        <time>2019-07-14T22:18:08Z</time>
      </trkpt>
      <trkpt lat="35.966063860" lon="-106.516431740">
        <ele>2573.300</ele>
        <time>2019-07-14T22:18:09Z</time>
      </trkpt>
      <trkpt lat="35.966140980" lon="-106.516532100">
        <ele>2573.400</ele>
        <time>2019-07-14T22:18:10Z</time>
      </trkpt>
      <trkpt lat="35.966218640" lon="-106.516626770">
        <ele>2573.500</ele>
        <time>2019-07-14T22:18:11Z</time>
      </trkpt>
      <trkpt lat="35.966290570" lon="-106.516721620">
        <ele>2573.500</ele>
        <time>2019-07-14T22:18:12Z</time>
      </trkpt>
      <trkpt lat="35.966368470" lon="-106.516814980">
        <ele>2573.500</ele>
        <time>2019-07-14T22:18:13Z</time>
      </trkpt>
      <trkpt lat="35.966442940" lon="-106.516912160">
        <ele>2573.400</ele>
        <time>2019-07-14T22:18:14Z</time>
      </trkpt>
      <trkpt lat="35.966516480" lon="-106.517011710">
        <ele>2573.500</ele>
        <time>2019-07-14T22:18:15Z</time>
      </trkpt>
      <trkpt lat="35.966591690" lon="-106.517115490">
        <ele>2573.200</ele>
        <time>2019-07-14T22:18:16Z</time>
      </trkpt>
      <trkpt lat="35.966666480" lon="-106.517212980">
        <ele>2573.100</ele>
        <time>2019-07-14T22:18:17Z</time>
      </trkpt>
      <trkpt lat="35.966741490" lon="-106.517318310">
        <ele>2573.500</ele>
        <time>2019-07-14T22:18:18Z</time>
      </trkpt>
      <trkpt lat="35.966813620" lon="-106.517422110">
        <ele>2574.400</ele>
        <time>2019-07-14T22:18:19Z</time>
      </trkpt>
      <trkpt lat="35.966883980" lon="-106.517522170">
        <ele>2574.400</ele>
        <time>2019-07-14T22:18:20Z</time>
      </trkpt>
      <trkpt lat="35.966954270" lon="-106.517631910">
        <ele>2574.000</ele>
        <time>2019-07-14T22:18:21Z</time>
      </trkpt>
      <trkpt lat="35.967028110" lon="-106.517740100">
        <ele>2572.600</ele>
        <time>2019-07-14T22:18:22Z</time>
      </trkpt>
      <trkpt lat="35.967102870" lon="-106.517847220">
        <ele>2572.600</ele>
        <time>2019-07-14T22:18:23Z</time>
      </trkpt>
      <trkpt lat="35.967172540" lon="-106.517953110">
        <ele>2573.200</ele>
        <time>2019-07-14T22:18:24Z</time>
      </trkpt>
      <trkpt lat="35.967250060" lon="-106.518088010">
        <ele>2572.200</ele>
        <time>2019-07-14T22:18:25Z</time>
      </trkpt>
      <trkpt lat="35.967316430" lon="-106.518191030">
        <ele>2574.000</ele>
        <time>2019-07-14T22:18:26Z</time>
      </trkpt>
      <trkpt lat="35.967374570" lon="-106.518294290">
        <ele>2574.800</ele>
        <time>2019-07-14T22:18:27Z</time>
      </trkpt>
      <trkpt lat="35.967436340" lon="-106.518395310">
        <ele>2574.100</ele>
        <time>2019-07-14T22:18:28Z</time>
      </trkpt>
      <trkpt lat="35.967499080" lon="-106.518512310">
        <ele>2575.400</ele>
        <time>2019-07-14T22:18:29Z</time>
      </trkpt>
      <trkpt lat="35.967561330" lon="-106.518635510">
        <ele>2575.000</ele>
        <time>2019-07-14T22:18:30Z</time>
      </trkpt>
      <trkpt lat="35.967640410" lon="-106.518745010">
        <ele>2575.800</ele>
        <time>2019-07-14T22:18:31Z</time>
      </trkpt>
      <trkpt lat="35.967703620" lon="-106.518859810">
        <ele>2576.800</ele>
        <time>2019-07-14T22:18:32Z</time>
      </trkpt>
      <trkpt lat="35.967765990" lon="-106.518979160">
        <ele>2576.400</ele>
        <time>2019-07-14T22:18:33Z</time>
      </trkpt>
      <trkpt lat="35.967835280" lon="-106.519092270">
        <ele>2576.800</ele>
        <time>2019-07-14T22:18:34Z</time>
      </trkpt>
      <trkpt lat="35.967900730" lon="-106.519206920">
        <ele>2577.100</ele>
        <time>2019-07-14T22:18:35Z</time>
      </trkpt>
      <trkpt lat="35.967962640" lon="-106.519315400">
        <ele>2576.400</ele>
        <time>2019-07-14T22:18:36Z</time>
      </trkpt>
      <trkpt lat="35.968017680" lon="-106.519449680">
        <ele>2576.500</ele>
        <time>2019-07-14T22:18:37Z</time>
      </trkpt>
      <trkpt lat="35.968094020" lon="-106.519576710">
        <ele>2576.200</ele>
        <time>2019-07-14T22:18:38Z</time>
      </trkpt>
      <trkpt lat="35.968157390" lon="-106.519695150">
        <ele>2576.500</ele>
        <time>2019-07-14T22:18:39Z</time>
      </trkpt>
      <trkpt lat="35.968223760" lon="-106.519813950">
        <ele>2574.800</ele>
        <time>2019-07-14T22:18:40Z</time>
      </trkpt>
      <trkpt lat="35.968280070" lon="-106.519914250">
        <ele>2574.500</ele>
        <time>2019-07-14T22:18:41Z</time>
      </trkpt>
      <trkpt lat="35.968341810" lon="-106.520029780">
        <ele>2574.200</ele>
        <time>2019-07-14T22:18:42Z</time>
      </trkpt>
      <trkpt lat="35.968407180" lon="-106.520137610">
        <ele>2574.400</ele>
        <time>2019-07-14T22:18:43Z</time>
      </trkpt>
      <trkpt lat="35.968467660" lon="-106.520254720">
        <ele>2574.300</ele>
        <time>2019-07-14T22:18:44Z</time>
      </trkpt>
      <trkpt lat="35.968527650" lon="-106.520372780">
        <ele>2575.200</ele>
        <time>2019-07-14T22:18:45Z</time>
      </trkpt>
      <trkpt lat="35.968589830" lon="-106.520497210">
        <ele>2574.400</ele>
        <time>2019-07-14T22:18:46Z</time>
      </trkpt>
      <trkpt lat="35.968651660" lon="-106.520618230">
        <ele>2573.600</ele>
        <time>2019-07-14T22:18:47Z</time>
      </trkpt>
      <trkpt lat="35.968720650" lon="-106.520730010">
        <ele>2574.300</ele>
        <time>2019-07-14T22:18:48Z</time>
      </trkpt>
      <trkpt lat="35.968781380" lon="-106.520850200">
        <ele>2574.500</ele>
        <time>2019-07-14T22:18:49Z</time>
      </trkpt>
      <trkpt lat="35.968829590" lon="-106.520952850">
        <ele>2575.500</ele>
        <time>2019-07-14T22:18:50Z</time>
      </trkpt>
      <trkpt lat="35.968890220" lon="-106.521056160">
        <ele>2578.000</ele>
        <time>2019-07-14T22:18:51Z</time>
      </trkpt>
      <trkpt lat="35.968960400" lon="-106.521169410">
        <ele>2577.900</ele>
        <time>2019-07-14T22:18:52Z</time>
      </trkpt>
      <trkpt lat="35.969012330" lon="-106.521282300">
        <ele>2577.400</ele>
        <time>2019-07-14T22:18:53Z</time>
      </trkpt>
      <trkpt lat="35.969066050" lon="-106.521398730">
        <ele>2578.500</ele>
        <time>2019-07-14T22:18:54Z</time>
      </trkpt>
      <trkpt lat="35.969153230" lon="-106.521526720">
        <ele>2577.700</ele>
        <time>2019-07-14T22:18:55Z</time>
      </trkpt>
      <trkpt lat="35.969198460" lon="-106.521620020">
        <ele>2577.900</ele>
        <time>2019-07-14T22:18:56Z</time>
      </trkpt>
      <trkpt lat="35.969257240" lon="-106.521727660">
        <ele>2576.900</ele>
        <time>2019-07-14T22:18:57Z</time>
      </trkpt>
      <trkpt lat="35.969326120" lon="-106.521860740">
        <ele>2576.000</ele>
        <time>2019-07-14T22:18:58Z</time>
      </trkpt>
      <trkpt lat="35.969387860" lon="-106.521959740">
        <ele>2575.300</ele>
        <time>2019-07-14T22:18:59Z</time>
      </trkpt>
      <trkpt lat="35.969454140" lon="-106.522063480">
        <ele>2576.400</ele>
        <time>2019-07-14T22:19:00Z</time>
      </trkpt>
      <trkpt lat="35.969516640" lon="-106.522173220">
        <ele>2575.300</ele>
        <time>2019-07-14T22:19:01Z</time>
      </trkpt>
      <trkpt lat="35.969581050" lon="-106.522282590">
        <ele>2574.000</ele>
        <time>2019-07-14T22:19:02Z</time>
      </trkpt>
      <trkpt lat="35.969637350" lon="-106.522388830">
        <ele>2572.800</ele>
        <time>2019-07-14T22:19:03Z</time>
      </trkpt>
      <trkpt lat="35.969715570" lon="-106.522520840">
        <ele>2572.200</ele>
        <time>2019-07-14T22:19:04Z</time>
      </trkpt>
      <trkpt lat="35.969742620" lon="-106.522587890">
        <ele>2574.300</ele>
        <time>2019-07-14T22:19:05Z</time>
      </trkpt>
      <trkpt lat="35.969800290" lon="-106.522690200">
        <ele>2573.000</ele>
        <time>2019-07-14T22:19:06Z</time>
      </trkpt>
      <trkpt lat="35.969856610" lon="-106.522784270">
        <ele>2572.300</ele>
        <time>2019-07-14T22:19:07Z</time>
      </trkpt>
      <trkpt lat="35.969906330" lon="-106.522868080">
        <ele>2572.500</ele>
        <time>2019-07-14T22:19:08Z</time>
      </trkpt>
      <trkpt lat="35.969969840" lon="-106.522968210">
        <ele>2571.800</ele>
        <time>2019-07-14T22:19:09Z</time>
      </trkpt>
      <trkpt lat="35.970012520" lon="-106.523050010">
        <ele>2573.000</ele>
        <time>2019-07-14T22:19:10Z</time>
      </trkpt>
      <trkpt lat="35.970053420" lon="-106.523136860">
        <ele>2575.400</ele>
        <time>2019-07-14T22:19:11Z</time>
      </trkpt>
      <trkpt lat="35.970121020" lon="-106.523258550">
        <ele>2576.200</ele>
        <time>2019-07-14T22:19:12Z</time>
      </trkpt>
      <trkpt lat="35.970196520" lon="-106.523418900">
        <ele>2576.000</ele>
        <time>2019-07-14T22:19:13Z</time>
      </trkpt>
      <trkpt lat="35.970261580" lon="-106.523551220">
        <ele>2574.400</ele>
        <time>2019-07-14T22:19:14Z</time>
      </trkpt>
      <trkpt lat="35.970332510" lon="-106.523662480">
        <ele>2575.500</ele>
        <time>2019-07-14T22:19:15Z</time>
      </trkpt>
      <trkpt lat="35.970390570" lon="-106.523752070">
        <ele>2574.600</ele>
        <time>2019-07-14T22:19:16Z</time>
      </trkpt>
      <trkpt lat="35.970472680" lon="-106.523895750">
        <ele>2574.600</ele>
        <time>2019-07-14T22:19:17Z</time>
      </trkpt>
      <trkpt lat="35.970526870" lon="-106.524022960">
        <ele>2573.400</ele>
        <time>2019-07-14T22:19:18Z</time>
      </trkpt>
      <trkpt lat="35.970609220" lon="-106.524149010">
        <ele>2573.100</ele>
        <time>2019-07-14T22:19:19Z</time>
      </trkpt>
      <trkpt lat="35.970678340" lon="-106.524260490">
        <ele>2573.300</ele>
        <time>2019-07-14T22:19:20Z</time>
      </trkpt>
      <trkpt lat="35.970723150" lon="-106.524357700">
        <ele>2573.500</ele>
        <time>2019-07-14T22:19:21Z</time>
      </trkpt>
      <trkpt lat="35.970783790" lon="-106.524470410">
        <ele>2573.900</ele>
        <time>2019-07-14T22:19:22Z</time>
      </trkpt>
      <trkpt lat="35.970855300" lon="-106.524602490">
        <ele>2574.500</ele>
        <time>2019-07-14T22:19:23Z</time>
      </trkpt>
      <trkpt lat="35.970904950" lon="-106.524691870">
        <ele>2574.800</ele>
        <time>2019-07-14T22:19:24Z</time>
      </trkpt>
      <trkpt lat="35.970959970" lon="-106.524782760">
        <ele>2576.700</ele>
        <time>2019-07-14T22:19:25Z</time>
      </trkpt>
      <trkpt lat="35.971001910" lon="-106.524922840">
        <ele>2577.600</ele>
        <time>2019-07-14T22:19:26Z</time>
      </trkpt>
      <trkpt lat="35.971068550" lon="-106.525044980">
        <ele>2578.100</ele>
        <time>2019-07-14T22:19:27Z</time>
      </trkpt>
      <trkpt lat="35.971137020" lon="-106.525145490">
        <ele>2576.900</ele>
        <time>2019-07-14T22:19:28Z</time>
      </trkpt>
      <trkpt lat="35.971206310" lon="-106.525259580">
        <ele>2577.400</ele>
        <time>2019-07-14T22:19:29Z</time>
      </trkpt>
      <trkpt lat="35.971250230" lon="-106.525385880">
        <ele>2576.300</ele>
        <time>2019-07-14T22:19:30Z</time>
      </trkpt>
      <trkpt lat="35.971312730" lon="-106.525498760">
        <ele>2577.800</ele>
        <time>2019-07-14T22:19:31Z</time>
      </trkpt>
      <trkpt lat="35.971363630" lon="-106.525573960">
        <ele>2576.600</ele>
        <time>2019-07-14T22:19:32Z</time>
      </trkpt>
      <trkpt lat="35.971437840" lon="-106.525686720">
        <ele>2575.100</ele>
        <time>2019-07-14T22:19:33Z</time>
      </trkpt>
      <trkpt lat="35.971463700" lon="-106.525752020">
        <ele>2578.400</ele>
        <time>2019-07-14T22:19:34Z</time>
      </trkpt>
      <trkpt lat="35.971515950" lon="-106.525858410">
        <ele>2579.200</ele>
        <time>2019-07-14T22:19:35Z</time>
      </trkpt>
      <trkpt lat="35.971558440" lon="-106.525980400">
        <ele>2579.800</ele>
        <time>2019-07-14T22:19:36Z</time>
      </trkpt>
      <trkpt lat="35.971606770" lon="-106.526077970">
        <ele>2578.100</ele>
        <time>2019-07-14T22:19:37Z</time>
      </trkpt>
      <trkpt lat="35.971665160" lon="-106.526152050">
        <ele>2577.400</ele>
        <time>2019-07-14T22:19:38Z</time>
      </trkpt>
      <trkpt lat="35.971724130" lon="-106.526249220">
        <ele>2575.700</ele>
        <time>2019-07-14T22:19:39Z</time>
      </trkpt>
      <trkpt lat="35.971782420" lon="-106.526345100">
        <ele>2574.200</ele>
        <time>2019-07-14T22:19:40Z</time>
      </trkpt>
      <trkpt lat="35.971821060" lon="-106.526433550">
        <ele>2573.700</ele>
        <time>2019-07-14T22:19:41Z</time>
      </trkpt>
      <trkpt lat="35.971884620" lon="-106.526537820">
        <ele>2573.000</ele>
        <time>2019-07-14T22:19:42Z</time>
      </trkpt>
      <trkpt lat="35.971934120" lon="-106.526626520">
        <ele>2571.600</ele>
        <time>2019-07-14T22:19:43Z</time>
      </trkpt>
      <trkpt lat="35.971982000" lon="-106.526721360">
        <ele>2572.500</ele>
        <time>2019-07-14T22:19:44Z</time>
      </trkpt>
      <trkpt lat="35.972025510" lon="-106.526797720">
        <ele>2572.700</ele>
        <time>2019-07-14T22:19:45Z</time>
      </trkpt>
      <trkpt lat="35.972070620" lon="-106.526874220">
        <ele>2573.000</ele>
        <time>2019-07-14T22:19:46Z</time>
      </trkpt>
      <trkpt lat="35.972121300" lon="-106.526957480">
        <ele>2573.600</ele>
        <time>2019-07-14T22:19:47Z</time>
      </trkpt>
      <trkpt lat="35.972188150" lon="-106.527069150">
        <ele>2572.400</ele>
        <time>2019-07-14T22:19:48Z</time>
      </trkpt>
      <trkpt lat="35.972231730" lon="-106.527159590">
        <ele>2573.400</ele>
        <time>2019-07-14T22:19:49Z</time>
      </trkpt>
      <trkpt lat="35.972285530" lon="-106.527262600">
        <ele>2573.300</ele>
        <time>2019-07-14T22:19:50Z</time>
      </trkpt>
      <trkpt lat="35.972353070" lon="-106.527371050">
        <ele>2572.600</ele>
        <time>2019-07-14T22:19:51Z</time>
      </trkpt>
      <trkpt lat="35.972409060" lon="-106.527479080">
        <ele>2572.500</ele>
        <time>2019-07-14T22:19:52Z</time>
      </trkpt>
      <trkpt lat="35.972469210" lon="-106.527572860">
        <ele>2571.200</ele>
        <time>2019-07-14T22:19:53Z</time>
      </trkpt>
      <trkpt lat="35.972519710" lon="-106.527681430">
        <ele>2572.500</ele>
        <time>2019-07-14T22:19:54Z</time>
      </trkpt>
      <trkpt lat="35.972590970" lon="-106.527787800">
        <ele>2573.300</ele>
        <time>2019-07-14T22:19:55Z</time>
      </trkpt>
      <trkpt lat="35.972639820" lon="-106.527886510">
        <ele>2573.000</ele>
        <time>2019-07-14T22:19:56Z</time>
      </trkpt>
      <trkpt lat="35.972692230" lon="-106.527978350">
        <ele>2573.200</ele>
        <time>2019-07-14T22:19:57Z</time>
      </trkpt>
      <trkpt lat="35.972731300" lon="-106.528059170">
        <ele>2574.000</ele>
        <time>2019-07-14T22:19:58Z</time>
      </trkpt>
      <trkpt lat="35.972798430" lon="-106.528169980">
        <ele>2574.300</ele>
        <time>2019-07-14T22:19:59Z</time>
      </trkpt>
      <trkpt lat="35.972855660" lon="-106.528283770">
        <ele>2574.500</ele>
        <time>2019-07-14T22:20:00Z</time>
      </trkpt>
      <trkpt lat="35.972911580" lon="-106.528385630">
        <ele>2574.600</ele>
        <time>2019-07-14T22:20:01Z</time>
      </trkpt>
      <trkpt lat="35.972978630" lon="-106.528495180">
        <ele>2573.000</ele>
        <time>2019-07-14T22:20:02Z</time>
      </trkpt>
      <trkpt lat="35.973040150" lon="-106.528605310">
        <ele>2573.500</ele>
        <time>2019-07-14T22:20:03Z</time>
      </trkpt>
      <trkpt lat="35.973084790" lon="-106.528692200">
        <ele>2575.600</ele>
        <time>2019-07-14T22:20:04Z</time>
      </trkpt>
      <trkpt lat="35.973149110" lon="-106.528800640">
        <ele>2576.400</ele>
        <time>2019-07-14T22:20:05Z</time>
      </trkpt>
      <trkpt lat="35.973195800" lon="-106.528894790">
        <ele>2575.200</ele>
        <time>2019-07-14T22:20:06Z</time>
      </trkpt>
      <trkpt lat="35.973256460" lon="-106.528997080">
        <ele>2575.400</ele>
        <time>2019-07-14T22:20:07Z</time>
      </trkpt>
      <trkpt lat="35.973305030" lon="-106.529089720">
        <ele>2575.700</ele>
        <time>2019-07-14T22:20:08Z</time>
      </trkpt>
      <trkpt lat="35.973362900" lon="-106.529202680">
        <ele>2574.600</ele>
        <time>2019-07-14T22:20:09Z</time>
      </trkpt>
      <trkpt lat="35.973415250" lon="-106.529311110">
        <ele>2575.000</ele>
        <time>2019-07-14T22:20:10Z</time>
      </trkpt>
      <trkpt lat="35.973471910" lon="-106.529410620">
        <ele>2575.300</ele>
        <time>2019-07-14T22:20:11Z</time>
      </trkpt>
      <trkpt lat="35.973525740" lon="-106.529513060">
        <ele>2576.100</ele>
        <time>2019-07-14T22:20:12Z</time>
      </trkpt>
      <trkpt lat="35.973579350" lon="-106.529602600">
        <ele>2577.000</ele>
        <time>2019-07-14T22:20:13Z</time>
      </trkpt>
      <trkpt lat="35.973632270" lon="-106.529692990">
        <ele>2577.500</ele>
        <time>2019-07-14T22:20:14Z</time>
      </trkpt>
      <trkpt lat="35.973681200" lon="-106.529786070">
        <ele>2577.600</ele>
        <time>2019-07-14T22:20:15Z</time>
      </trkpt>
      <trkpt lat="35.973725130" lon="-106.529874270">
        <ele>2578.100</ele>
        <time>2019-07-14T22:20:16Z</time>
      </trkpt>
      <trkpt lat="35.973779220" lon="-106.529967610">
        <ele>2577.800</ele>
        <time>2019-07-14T22:20:17Z</time>
      </trkpt>
      <trkpt lat="35.973829490" lon="-106.530060100">
        <ele>2578.400</ele>
        <time>2019-07-14T22:20:18Z</time>
      </trkpt>
      <trkpt lat="35.973891800" lon="-106.530164470">
        <ele>2578.700</ele>
        <time>2019-07-14T22:20:19Z</time>
      </trkpt>
      <trkpt lat="35.973932100" lon="-106.530245910">
        <ele>2578.000</ele>
        <time>2019-07-14T22:20:20Z</time>
      </trkpt>
      <trkpt lat="35.973952650" lon="-106.530313870">
        <ele>2578.900</ele>
        <time>2019-07-14T22:20:21Z</time>
      </trkpt>
      <trkpt lat="35.973983370" lon="-106.530380960">
        <ele>2579.700</ele>
        <time>2019-07-14T22:20:22Z</time>
      </trkpt>
      <trkpt lat="35.974011750" lon="-106.530409580">
        <ele>2580.800</ele>
        <time>2019-07-14T22:20:23Z</time>
      </trkpt>
      <trkpt lat="35.974064080" lon="-106.530418500">
        <ele>2584.400</ele>
        <time>2019-07-14T22:20:26Z</time>
      </trkpt>
      <trkpt lat="35.974108000" lon="-106.530365170">
        <ele>2584.700</ele>
        <time>2019-07-14T22:20:28Z</time>
      </trkpt>
      <trkpt lat="35.974146800" lon="-106.530303270">
        <ele>2585.900</ele>
        <time>2019-07-14T22:20:30Z</time>
      </trkpt>
      <trkpt lat="35.974149020" lon="-106.530234890">
        <ele>2586.200</ele>
        <time>2019-07-14T22:20:31Z</time>
      </trkpt>
      <trkpt lat="35.974155130" lon="-106.530161620">
        <ele>2585.500</ele>
        <time>2019-07-14T22:20:32Z</time>
      </trkpt>
      <trkpt lat="35.974168450" lon="-106.530081700">
        <ele>2586.300</ele>
        <time>2019-07-14T22:20:33Z</time>
      </trkpt>
      <trkpt lat="35.974182650" lon="-106.530002760">
        <ele>2587.900</ele>
        <time>2019-07-14T22:20:34Z</time>
      </trkpt>
      <trkpt lat="35.974175840" lon="-106.529912480">
        <ele>2587.600</ele>
        <time>2019-07-14T22:20:35Z</time>
      </trkpt>
      <trkpt lat="35.974177450" lon="-106.529813790">
        <ele>2587.400</ele>
        <time>2019-07-14T22:20:36Z</time>
      </trkpt>
      <trkpt lat="35.974174150" lon="-106.529718690">
        <ele>2587.700</ele>
        <time>2019-07-14T22:20:37Z</time>
      </trkpt>
      <trkpt lat="35.974169420" lon="-106.529618850">
        <ele>2587.600</ele>
        <time>2019-07-14T22:20:38Z</time>
      </trkpt>
      <trkpt lat="35.974171610" lon="-106.529515730">
        <ele>2587.500</ele>
        <time>2019-07-14T22:20:39Z</time>
      </trkpt>
      <trkpt lat="35.974177890" lon="-106.529414360">
        <ele>2587.800</ele>
        <time>2019-07-14T22:20:40Z</time>
      </trkpt>
      <trkpt lat="35.974191280" lon="-106.529310830">
        <ele>2587.000</ele>
        <time>2019-07-14T22:20:41Z</time>
      </trkpt>
      <trkpt lat="35.974198740" lon="-106.529214780">
        <ele>2587.300</ele>
        <time>2019-07-14T22:20:42Z</time>
      </trkpt>
      <trkpt lat="35.974199180" lon="-106.529120130">
        <ele>2588.000</ele>
        <time>2019-07-14T22:20:43Z</time>
      </trkpt>
      <trkpt lat="35.974188490" lon="-106.529014060">
        <ele>2588.600</ele>
        <time>2019-07-14T22:20:44Z</time>
      </trkpt>
      <trkpt lat="35.974204720" lon="-106.528908400">
        <ele>2587.600</ele>
        <time>2019-07-14T22:20:45Z</time>
      </trkpt>
      <trkpt lat="35.974218580" lon="-106.528806730">
        <ele>2588.200</ele>
        <time>2019-07-14T22:20:46Z</time>
      </trkpt>
      <trkpt lat="35.974223750" lon="-106.528699300">
        <ele>2588.400</ele>
        <time>2019-07-14T22:20:47Z</time>
      </trkpt>
      <trkpt lat="35.974238320" lon="-106.528592850">
        <ele>2587.700</ele>
        <time>2019-07-14T22:20:48Z</time>
      </trkpt>
      <trkpt lat="35.974237370" lon="-106.528493840">
        <ele>2588.700</ele>
        <time>2019-07-14T22:20:49Z</time>
      </trkpt>
      <trkpt lat="35.974233510" lon="-106.528410390">
        <ele>2590.000</ele>
        <time>2019-07-14T22:20:50Z</time>
      </trkpt>
      <trkpt lat="35.974260170" lon="-106.528328330">
        <ele>2588.500</ele>
        <time>2019-07-14T22:20:51Z</time>
      </trkpt>
      <trkpt lat="35.974285810" lon="-106.528251100">
        <ele>2586.800</ele>
        <time>2019-07-14T22:20:52Z</time>
      </trkpt>
      <trkpt lat="35.974289300" lon="-106.528175980">
        <ele>2587.100</ele>
        <time>2019-07-14T22:20:53Z</time>
      </trkpt>
      <trkpt lat="35.974287360" lon="-106.528111590">
        <ele>2586.500</ele>
        <time>2019-07-14T22:20:54Z</time>
      </trkpt>
      <trkpt lat="35.974298920" lon="-106.528061640">
        <ele>2585.100</ele>
        <time>2019-07-14T22:20:55Z</time>
      </trkpt>
      <trkpt lat="35.974286920" lon="-106.528010770">
        <ele>2585.300</ele>
        <time>2019-07-14T22:20:56Z</time>
      </trkpt>
      <trkpt lat="35.974289610" lon="-106.527918680">
        <ele>2585.600</ele>
        <time>2019-07-14T22:20:58Z</time>
      </trkpt>
      <trkpt lat="35.974283670" lon="-106.527864980">
        <ele>2586.200</ele>
        <time>2019-07-14T22:20:59Z</time>
      </trkpt>
      <trkpt lat="35.974282410" lon="-106.527808120">
        <ele>2586.200</ele>
        <time>2019-07-14T22:21:00Z</time>
      </trkpt>
      <trkpt lat="35.974294150" lon="-106.527732760">
        <ele>2584.800</ele>
        <time>2019-07-14T22:21:01Z</time>
      </trkpt>
      <trkpt lat="35.974292140" lon="-106.527661520">
        <ele>2584.000</ele>
        <time>2019-07-14T22:21:02Z</time>
      </trkpt>
      <trkpt lat="35.974277180" lon="-106.527578360">
        <ele>2585.200</ele>
        <time>2019-07-14T22:21:03Z</time>
      </trkpt>
      <trkpt lat="35.974258150" lon="-106.527496730">
        <ele>2586.200</ele>
        <time>2019-07-14T22:21:04Z</time>
      </trkpt>
      <trkpt lat="35.974244500" lon="-106.527416830">
        <ele>2586.300</ele>
        <time>2019-07-14T22:21:05Z</time>
      </trkpt>
      <trkpt lat="35.974226940" lon="-106.527338600">
        <ele>2586.800</ele>
        <time>2019-07-14T22:21:06Z</time>
      </trkpt>
      <trkpt lat="35.974212700" lon="-106.527257720">
        <ele>2586.800</ele>
        <time>2019-07-14T22:21:07Z</time>
      </trkpt>
      <trkpt lat="35.974206040" lon="-106.527187970">
        <ele>2586.000</ele>
        <time>2019-07-14T22:21:08Z</time>
      </trkpt>
      <trkpt lat="35.974187100" lon="-106.527105840">
        <ele>2585.300</ele>
        <time>2019-07-14T22:21:09Z</time>
      </trkpt>
      <trkpt lat="35.974168940" lon="-106.527019600">
        <ele>2584.700</ele>
        <time>2019-07-14T22:21:10Z</time>
      </trkpt>
      <trkpt lat="35.974158840" lon="-106.526924800">
        <ele>2584.500</ele>
        <time>2019-07-14T22:21:11Z</time>
      </trkpt>
      <trkpt lat="35.974147340" lon="-106.526833520">
        <ele>2583.600</ele>
        <time>2019-07-14T22:21:12Z</time>
      </trkpt>
      <trkpt lat="35.974135090" lon="-106.526739070">
        <ele>2582.600</ele>
        <time>2019-07-14T22:21:13Z</time>
      </trkpt>
      <trkpt lat="35.974121720" lon="-106.526639830">
        <ele>2582.700</ele>
        <time>2019-07-14T22:21:14Z</time>
      </trkpt>
      <trkpt lat="35.974107970" lon="-106.526549870">
        <ele>2582.400</ele>
        <time>2019-07-14T22:21:15Z</time>
      </trkpt>
      <trkpt lat="35.974103310" lon="-106.526455340">
        <ele>2582.300</ele>
        <time>2019-07-14T22:21:16Z</time>
      </trkpt>
      <trkpt lat="35.974089680" lon="-106.526359420">
        <ele>2582.200</ele>
        <time>2019-07-14T22:21:17Z</time>
      </trkpt>
      <trkpt lat="35.974084940" lon="-106.526261080">
        <ele>2581.700</ele>
        <time>2019-07-14T22:21:18Z</time>
      </trkpt>
      <trkpt lat="35.974067710" lon="-106.526160980">
        <ele>2582.200</ele>
        <time>2019-07-14T22:21:19Z</time>
      </trkpt>
      <trkpt lat="35.974066630" lon="-106.526069620">
        <ele>2582.800</ele>
        <time>2019-07-14T22:21:20Z</time>
      </trkpt>
      <trkpt lat="35.974076860" lon="-106.525979760">
        <ele>2582.900</ele>
        <time>2019-07-14T22:21:21Z</time>
      </trkpt>
      <trkpt lat="35.974083180" lon="-106.525909300">
        <ele>2583.400</ele>
        <time>2019-07-14T22:21:22Z</time>
      </trkpt>
      <trkpt lat="35.974103800" lon="-106.525854880">
        <ele>2582.900</ele>
        <time>2019-07-14T22:21:23Z</time>
      </trkpt>
      <trkpt lat="35.974113270" lon="-106.525768890">
        <ele>2583.400</ele>
        <time>2019-07-14T22:21:25Z</time>
      </trkpt>
      <trkpt lat="35.974112740" lon="-106.525709910">
        <ele>2582.500</ele>
        <time>2019-07-14T22:21:26Z</time>
      </trkpt>
      <trkpt lat="35.974119610" lon="-106.525639290">
        <ele>2582.900</ele>
        <time>2019-07-14T22:21:27Z</time>
      </trkpt>
      <trkpt lat="35.974125710" lon="-106.525561940">
        <ele>2583.000</ele>
        <time>2019-07-14T22:21:28Z</time>
      </trkpt>
      <trkpt lat="35.974135490" lon="-106.525475600">
        <ele>2582.200</ele>
        <time>2019-07-14T22:21:29Z</time>
      </trkpt>
      <trkpt lat="35.974146120" lon="-106.525389870">
        <ele>2582.800</ele>
        <time>2019-07-14T22:21:30Z</time>
      </trkpt>
      <trkpt lat="35.974161590" lon="-106.525302960">
        <ele>2583.300</ele>
        <time>2019-07-14T22:21:31Z</time>
      </trkpt>
      <trkpt lat="35.974183700" lon="-106.525217960">
        <ele>2583.400</ele>
        <time>2019-07-14T22:21:32Z</time>
      </trkpt>
      <trkpt lat="35.974219380" lon="-106.525135770">
        <ele>2582.900</ele>
        <time>2019-07-14T22:21:33Z</time>
      </trkpt>
      <trkpt lat="35.974253740" lon="-106.525047220">
        <ele>2582.000</ele>
        <time>2019-07-14T22:21:34Z</time>
      </trkpt>
      <trkpt lat="35.974294630" lon="-106.524973710">
        <ele>2582.000</ele>
        <time>2019-07-14T22:21:35Z</time>
      </trkpt>
      <trkpt lat="35.974345060" lon="-106.524901410">
        <ele>2582.300</ele>
        <time>2019-07-14T22:21:36Z</time>
      </trkpt>
      <trkpt lat="35.974396810" lon="-106.524840160">
        <ele>2582.300</ele>
        <time>2019-07-14T22:21:37Z</time>
      </trkpt>
      <trkpt lat="35.974447450" lon="-106.524781380">
        <ele>2581.400</ele>
        <time>2019-07-14T22:21:38Z</time>
      </trkpt>
      <trkpt lat="35.974509610" lon="-106.524721050">
        <ele>2581.300</ele>
        <time>2019-07-14T22:21:39Z</time>
      </trkpt>
      <trkpt lat="35.974563370" lon="-106.524661490">
        <ele>2580.400</ele>
        <time>2019-07-14T22:21:40Z</time>
      </trkpt>
      <trkpt lat="35.974613450" lon="-106.524601900">
        <ele>2579.700</ele>
        <time>2019-07-14T22:21:41Z</time>
      </trkpt>
      <trkpt lat="35.974665640" lon="-106.524543740">
        <ele>2580.000</ele>
        <time>2019-07-14T22:21:42Z</time>
      </trkpt>
      <trkpt lat="35.974722230" lon="-106.524462780">
        <ele>2580.000</ele>
        <time>2019-07-14T22:21:43Z</time>
      </trkpt>
      <trkpt lat="35.974776840" lon="-106.524386570">
        <ele>2580.100</ele>
        <time>2019-07-14T22:21:44Z</time>
      </trkpt>
      <trkpt lat="35.974811950" lon="-106.524315550">
        <ele>2579.200</ele>
        <time>2019-07-14T22:21:45Z</time>
      </trkpt>
      <trkpt lat="35.974854020" lon="-106.524248910">
        <ele>2579.700</ele>
        <time>2019-07-14T22:21:46Z</time>
      </trkpt>
      <trkpt lat="35.974885880" lon="-106.524174060">
        <ele>2579.800</ele>
        <time>2019-07-14T22:21:47Z</time>
      </trkpt>
      <trkpt lat="35.974924680" lon="-106.524096670">
        <ele>2579.500</ele>
        <time>2019-07-14T22:21:48Z</time>
      </trkpt>
      <trkpt lat="35.974950430" lon="-106.524021480">
        <ele>2578.500</ele>
        <time>2019-07-14T22:21:49Z</time>
      </trkpt>
      <trkpt lat="35.974973450" lon="-106.523941840">
        <ele>2577.900</ele>
        <time>2019-07-14T22:21:50Z</time>
      </trkpt>
      <trkpt lat="35.974987430" lon="-106.523873520">
        <ele>2576.800</ele>
        <time>2019-07-14T22:21:51Z</time>
      </trkpt>
      <trkpt lat="35.974993230" lon="-106.523801910">
        <ele>2575.900</ele>
        <time>2019-07-14T22:21:52Z</time>
      </trkpt>
      <trkpt lat="35.974992670" lon="-106.523728680">
        <ele>2575.400</ele>
        <time>2019-07-14T22:21:53Z</time>
      </trkpt>
      <trkpt lat="35.974985860" lon="-106.523660980">
        <ele>2576.000</ele>
        <time>2019-07-14T22:21:54Z</time>
      </trkpt>
      <trkpt lat="35.974974630" lon="-106.523591740">
        <ele>2577.000</ele>
        <time>2019-07-14T22:21:55Z</time>
      </trkpt>
      <trkpt lat="35.974960540" lon="-106.523526570">
        <ele>2576.600</ele>
        <time>2019-07-14T22:21:56Z</time>
      </trkpt>
      <trkpt lat="35.974939580" lon="-106.523457460">
        <ele>2577.500</ele>
        <time>2019-07-14T22:21:57Z</time>
      </trkpt>
      <trkpt lat="35.974920300" lon="-106.523381680">
        <ele>2578.400</ele>
        <time>2019-07-14T22:21:58Z</time>
      </trkpt>
      <trkpt lat="35.974898690" lon="-106.523306390">
        <ele>2580.200</ele>
        <time>2019-07-14T22:21:59Z</time>
      </trkpt>
      <trkpt lat="35.974873530" lon="-106.523243750">
        <ele>2578.800</ele>
        <time>2019-07-14T22:22:00Z</time>
      </trkpt>
      <trkpt lat="35.974843160" lon="-106.523173010">
        <ele>2579.800</ele>
        <time>2019-07-14T22:22:01Z</time>
      </trkpt>
      <trkpt lat="35.974816920" lon="-106.523109920">
        <ele>2579.800</ele>
        <time>2019-07-14T22:22:02Z</time>
      </trkpt>
      <trkpt lat="35.974786730" lon="-106.523039670">
        <ele>2579.600</ele>
        <time>2019-07-14T22:22:03Z</time>
      </trkpt>
      <trkpt lat="35.974749920" lon="-106.522992770">
        <ele>2581.400</ele>
        <time>2019-07-14T22:22:04Z</time>
      </trkpt>
      <trkpt lat="35.974726890" lon="-106.522945800">
        <ele>2581.700</ele>
        <time>2019-07-14T22:22:05Z</time>
      </trkpt>
      <trkpt lat="35.974693210" lon="-106.522906010">
        <ele>2584.600</ele>
        <time>2019-07-14T22:22:06Z</time>
      </trkpt>
      <trkpt lat="35.974663780" lon="-106.522856190">
        <ele>2585.500</ele>
        <time>2019-07-14T22:22:07Z</time>
      </trkpt>
      <trkpt lat="35.974637140" lon="-106.522814090">
        <ele>2587.100</ele>
        <time>2019-07-14T22:22:08Z</time>
      </trkpt>
      <trkpt lat="35.974594260" lon="-106.522770090">
        <ele>2587.500</ele>
        <time>2019-07-14T22:22:09Z</time>
      </trkpt>
      <trkpt lat="35.974545710" lon="-106.522732690">
        <ele>2586.900</ele>
        <time>2019-07-14T22:22:10Z</time>
      </trkpt>
      <trkpt lat="35.974486810" lon="-106.522684450">
        <ele>2585.300</ele>
        <time>2019-07-14T22:22:11Z</time>
      </trkpt>
      <trkpt lat="35.974431080" lon="-106.522644150">
        <ele>2584.100</ele>
        <time>2019-07-14T22:22:12Z</time>
      </trkpt>
      <trkpt lat="35.974364740" lon="-106.522606990">
        <ele>2584.900</ele>
        <time>2019-07-14T22:22:13Z</time>
      </trkpt>
      <trkpt lat="35.974296550" lon="-106.522553070">
        <ele>2586.100</ele>
        <time>2019-07-14T22:22:14Z</time>
      </trkpt>
      <trkpt lat="35.974237930" lon="-106.522507650">
        <ele>2585.800</ele>
        <time>2019-07-14T22:22:15Z</time>
      </trkpt>
      <trkpt lat="35.974162170" lon="-106.522459590">
        <ele>2586.500</ele>
        <time>2019-07-14T22:22:16Z</time>
      </trkpt>
      <trkpt lat="35.974095020" lon="-106.522410100">
        <ele>2585.800</ele>
        <time>2019-07-14T22:22:17Z</time>
      </trkpt>
      <trkpt lat="35.974029280" lon="-106.522365560">
        <ele>2585.100</ele>
        <time>2019-07-14T22:22:18Z</time>
      </trkpt>
      <trkpt lat="35.973959440" lon="-106.522315880">
        <ele>2585.100</ele>
        <time>2019-07-14T22:22:19Z</time>
      </trkpt>
      <trkpt lat="35.973910840" lon="-106.522278420">
        <ele>2584.400</ele>
        <time>2019-07-14T22:22:20Z</time>
      </trkpt>
      <trkpt lat="35.973868870" lon="-106.522250070">
        <ele>2583.700</ele>
        <time>2019-07-14T22:22:21Z</time>
      </trkpt>
      <trkpt lat="35.973830200" lon="-106.522220690">
        <ele>2584.200</ele>
        <time>2019-07-14T22:22:22Z</time>
      </trkpt>
      <trkpt lat="35.973788620" lon="-106.522193170">
        <ele>2584.200</ele>
        <time>2019-07-14T22:22:23Z</time>
      </trkpt>
      <trkpt lat="35.973738530" lon="-106.522157150">
        <ele>2583.800</ele>
        <time>2019-07-14T22:22:24Z</time>
      </trkpt>
      <trkpt lat="35.973698030" lon="-106.522126890">
        <ele>2582.500</ele>
        <time>2019-07-14T22:22:25Z</time>
      </trkpt>
      <trkpt lat="35.973655790" lon="-106.522080280">
        <ele>2582.400</ele>
        <time>2019-07-14T22:22:26Z</time>
      </trkpt>
      <trkpt lat="35.973610260" lon="-106.522042270">
        <ele>2581.700</ele>
        <time>2019-07-14T22:22:27Z</time>
      </trkpt>
      <trkpt lat="35.973554690" lon="-106.522006170">
        <ele>2581.200</ele>
        <time>2019-07-14T22:22:28Z</time>
      </trkpt>
      <trkpt lat="35.973492820" lon="-106.521950690">
        <ele>2581.800</ele>
        <time>2019-07-14T22:22:29Z</time>
      </trkpt>
      <trkpt lat="35.973431680" lon="-106.521921400">
        <ele>2580.100</ele>
        <time>2019-07-14T22:22:30Z</time>
      </trkpt>
      <trkpt lat="35.973375220" lon="-106.521878750">
        <ele>2579.000</ele>
        <time>2019-07-14T22:22:31Z</time>
      </trkpt>
      <trkpt lat="35.973309610" lon="-106.521815520">
        <ele>2579.500</ele>
        <time>2019-07-14T22:22:32Z</time>
      </trkpt>
      <trkpt lat="35.973260500" lon="-106.521751260">
        <ele>2579.300</ele>
        <time>2019-07-14T22:22:33Z</time>
      </trkpt>
      <trkpt lat="35.973208960" lon="-106.521666100">
        <ele>2578.900</ele>
        <time>2019-07-14T22:22:34Z</time>
      </trkpt>
      <trkpt lat="35.973163070" lon="-106.521587410">
        <ele>2578.900</ele>
        <time>2019-07-14T22:22:35Z</time>
      </trkpt>
      <trkpt lat="35.973118060" lon="-106.521492900">
        <ele>2578.700</ele>
        <time>2019-07-14T22:22:36Z</time>
      </trkpt>
      <trkpt lat="35.973079650" lon="-106.521398790">
        <ele>2578.700</ele>
        <time>2019-07-14T22:22:37Z</time>
      </trkpt>
      <trkpt lat="35.973040480" lon="-106.521310320">
        <ele>2579.400</ele>
        <time>2019-07-14T22:22:38Z</time>
      </trkpt>
      <trkpt lat="35.973000040" lon="-106.521224160">
        <ele>2578.700</ele>
        <time>2019-07-14T22:22:39Z</time>
      </trkpt>
      <trkpt lat="35.972952010" lon="-106.521129640">
        <ele>2579.800</ele>
        <time>2019-07-14T22:22:40Z</time>
      </trkpt>
      <trkpt lat="35.972917910" lon="-106.521046020">
        <ele>2580.200</ele>
        <time>2019-07-14T22:22:41Z</time>
      </trkpt>
      <trkpt lat="35.972874810" lon="-106.520962120">
        <ele>2580.400</ele>
        <time>2019-07-14T22:22:42Z</time>
      </trkpt>
      <trkpt lat="35.972836310" lon="-106.520876420">
        <ele>2580.500</ele>
        <time>2019-07-14T22:22:43Z</time>
      </trkpt>
      <trkpt lat="35.972793500" lon="-106.520797300">
        <ele>2582.000</ele>
        <time>2019-07-14T22:22:44Z</time>
      </trkpt>
      <trkpt lat="35.972743280" lon="-106.520707000">
        <ele>2581.900</ele>
        <time>2019-07-14T22:22:45Z</time>
      </trkpt>
      <trkpt lat="35.972667470" lon="-106.520613430">
        <ele>2581.400</ele>
        <time>2019-07-14T22:22:46Z</time>
      </trkpt>
      <trkpt lat="35.972635990" lon="-106.520562930">
        <ele>2582.800</ele>
        <time>2019-07-14T22:22:47Z</time>
      </trkpt>
      <trkpt lat="35.972600390" lon="-106.520485310">
        <ele>2584.300</ele>
        <time>2019-07-14T22:22:48Z</time>
      </trkpt>
      <trkpt lat="35.972554360" lon="-106.520429400">
        <ele>2584.300</ele>
        <time>2019-07-14T22:22:49Z</time>
      </trkpt>
      <trkpt lat="35.972514230" lon="-106.520363190">
        <ele>2582.400</ele>
        <time>2019-07-14T22:22:50Z</time>
      </trkpt>
      <trkpt lat="35.972475240" lon="-106.520300150">
        <ele>2582.400</ele>
        <time>2019-07-14T22:22:51Z</time>
      </trkpt>
      <trkpt lat="35.972447290" lon="-106.520227340">
        <ele>2583.400</ele>
        <time>2019-07-14T22:22:52Z</time>
      </trkpt>
      <trkpt lat="35.972415580" lon="-106.520176160">
        <ele>2582.900</ele>
        <time>2019-07-14T22:22:53Z</time>
      </trkpt>
      <trkpt lat="35.972381210" lon="-106.520116670">
        <ele>2583.300</ele>
        <time>2019-07-14T22:22:54Z</time>
      </trkpt>
      <trkpt lat="35.972347860" lon="-106.520051950">
        <ele>2583.300</ele>
        <time>2019-07-14T22:22:55Z</time>
      </trkpt>
      <trkpt lat="35.972280580" lon="-106.519974450">
        <ele>2583.600</ele>
        <time>2019-07-14T22:22:56Z</time>
      </trkpt>
      <trkpt lat="35.972217340" lon="-106.519922220">
        <ele>2582.700</ele>
        <time>2019-07-14T22:22:57Z</time>
      </trkpt>
      <trkpt lat="35.972179420" lon="-106.519850930">
        <ele>2582.600</ele>
        <time>2019-07-14T22:22:58Z</time>
      </trkpt>
      <trkpt lat="35.972111900" lon="-106.519751120">
        <ele>2582.400</ele>
        <time>2019-07-14T22:22:59Z</time>
      </trkpt>
      <trkpt lat="35.972034990" lon="-106.519696890">
        <ele>2583.500</ele>
        <time>2019-07-14T22:23:00Z</time>
      </trkpt>
      <trkpt lat="35.972009480" lon="-106.519607840">
        <ele>2583.400</ele>
        <time>2019-07-14T22:23:01Z</time>
      </trkpt>
      <trkpt lat="35.971944750" lon="-106.519521510">
        <ele>2583.300</ele>
        <time>2019-07-14T22:23:02Z</time>
      </trkpt>
      <trkpt lat="35.971908880" lon="-106.519463530">
        <ele>2583.300</ele>
        <time>2019-07-14T22:23:03Z</time>
      </trkpt>
      <trkpt lat="35.971902280" lon="-106.519379000">
        <ele>2583.100</ele>
        <time>2019-07-14T22:23:04Z</time>
      </trkpt>
      <trkpt lat="35.971901960" lon="-106.519286900">
        <ele>2581.000</ele>
        <time>2019-07-14T22:23:05Z</time>
      </trkpt>
      <trkpt lat="35.971899420" lon="-106.519196800">
        <ele>2582.000</ele>
        <time>2019-07-14T22:23:06Z</time>
      </trkpt>
      <trkpt lat="35.971894230" lon="-106.519107720">
        <ele>2580.800</ele>
        <time>2019-07-14T22:23:07Z</time>
      </trkpt>
      <trkpt lat="35.971889650" lon="-106.519017420">
        <ele>2578.900</ele>
        <time>2019-07-14T22:23:08Z</time>
      </trkpt>
      <trkpt lat="35.971881200" lon="-106.518929290">
        <ele>2578.100</ele>
        <time>2019-07-14T22:23:09Z</time>
      </trkpt>
      <trkpt lat="35.971862180" lon="-106.518841130">
        <ele>2578.900</ele>
        <time>2019-07-14T22:23:10Z</time>
      </trkpt>
      <trkpt lat="35.971857440" lon="-106.518737170">
        <ele>2580.400</ele>
        <time>2019-07-14T22:23:11Z</time>
      </trkpt>
      <trkpt lat="35.971849200" lon="-106.518655960">
        <ele>2581.900</ele>
        <time>2019-07-14T22:23:12Z</time>
      </trkpt>
      <trkpt lat="35.971839190" lon="-106.518583880">
        <ele>2580.000</ele>
        <time>2019-07-14T22:23:13Z</time>
      </trkpt>
      <trkpt lat="35.971840910" lon="-106.518514710">
        <ele>2579.800</ele>
        <time>2019-07-14T22:23:14Z</time>
      </trkpt>
      <trkpt lat="35.971850640" lon="-106.518453650">
        <ele>2580.400</ele>
        <time>2019-07-14T22:23:15Z</time>
      </trkpt>
      <trkpt lat="35.971851420" lon="-106.518396450">
        <ele>2579.900</ele>
        <time>2019-07-14T22:23:16Z</time>
      </trkpt>
      <trkpt lat="35.971836840" lon="-106.518344710">
        <ele>2580.000</ele>
        <time>2019-07-14T22:23:18Z</time>
      </trkpt>
      <trkpt lat="35.971855080" lon="-106.518299070">
        <ele>2582.100</ele>
        <time>2019-07-14T22:23:20Z</time>
      </trkpt>
      <trkpt lat="35.971898630" lon="-106.518265610">
        <ele>2583.600</ele>
        <time>2019-07-14T22:23:22Z</time>
      </trkpt>
      <trkpt lat="35.971863160" lon="-106.518243740">
        <ele>2583.100</ele>
        <time>2019-07-14T22:23:23Z</time>
      </trkpt>
      <trkpt lat="35.971943540" lon="-106.518216530">
        <ele>2583.700</ele>
        <time>2019-07-14T22:23:25Z</time>
      </trkpt>
      <trkpt lat="35.971984200" lon="-106.518086360">
        <ele>2583.700</ele>
        <time>2019-07-14T22:23:26Z</time>
      </trkpt>
      <trkpt lat="35.971984240" lon="-106.517982410">
        <ele>2583.100</ele>
        <time>2019-07-14T22:23:27Z</time>
      </trkpt>
      <trkpt lat="35.972017950" lon="-106.517954130">
        <ele>2581.800</ele>
        <time>2019-07-14T22:23:28Z</time>
      </trkpt>
      <trkpt lat="35.972026230" lon="-106.517867020">
        <ele>2582.200</ele>
        <time>2019-07-14T22:23:29Z</time>
      </trkpt>
      <trkpt lat="35.972054520" lon="-106.517805220">
        <ele>2583.700</ele>
        <time>2019-07-14T22:23:30Z</time>
      </trkpt>
      <trkpt lat="35.972096910" lon="-106.517705950">
        <ele>2583.900</ele>
        <time>2019-07-14T22:23:31Z</time>
      </trkpt>
      <trkpt lat="35.972127490" lon="-106.517631750">
        <ele>2583.400</ele>
        <time>2019-07-14T22:23:32Z</time>
      </trkpt>
      <trkpt lat="35.972143320" lon="-106.517568930">
        <ele>2581.900</ele>
        <time>2019-07-14T22:23:33Z</time>
      </trkpt>
      <trkpt lat="35.972154010" lon="-106.517479550">
        <ele>2582.000</ele>
        <time>2019-07-14T22:23:34Z</time>
      </trkpt>
      <trkpt lat="35.972156890" lon="-106.517421170">
        <ele>2581.500</ele>
        <time>2019-07-14T22:23:35Z</time>
      </trkpt>
      <trkpt lat="35.972171960" lon="-106.517350180">
        <ele>2580.500</ele>
        <time>2019-07-14T22:23:36Z</time>
      </trkpt>
      <trkpt lat="35.972181040" lon="-106.517262300">
        <ele>2580.500</ele>
        <time>2019-07-14T22:23:37Z</time>
      </trkpt>
      <trkpt lat="35.972180670" lon="-106.517162300">
        <ele>2582.200</ele>
        <time>2019-07-14T22:23:38Z</time>
      </trkpt>
      <trkpt lat="35.972170760" lon="-106.517055180">
        <ele>2583.800</ele>
        <time>2019-07-14T22:23:39Z</time>
      </trkpt>
      <trkpt lat="35.972157890" lon="-106.516972970">
        <ele>2585.600</ele>
        <time>2019-07-14T22:23:40Z</time>
      </trkpt>
      <trkpt lat="35.972157000" lon="-106.516882140">
        <ele>2585.000</ele>
        <time>2019-07-14T22:23:41Z</time>
      </trkpt>
      <trkpt lat="35.972160500" lon="-106.516800770">
        <ele>2585.200</ele>
        <time>2019-07-14T22:23:42Z</time>
      </trkpt>
      <trkpt lat="35.972163370" lon="-106.516716310">
        <ele>2585.000</ele>
        <time>2019-07-14T22:23:43Z</time>
      </trkpt>
      <trkpt lat="35.972179930" lon="-106.516640720">
        <ele>2584.300</ele>
        <time>2019-07-14T22:23:44Z</time>
      </trkpt>
      <trkpt lat="35.972192010" lon="-106.516556840">
        <ele>2584.600</ele>
        <time>2019-07-14T22:23:45Z</time>
      </trkpt>
      <trkpt lat="35.972220610" lon="-106.516467070">
        <ele>2583.700</ele>
        <time>2019-07-14T22:23:46Z</time>
      </trkpt>
      <trkpt lat="35.972250430" lon="-106.516359820">
        <ele>2584.700</ele>
        <time>2019-07-14T22:23:47Z</time>
      </trkpt>
      <trkpt lat="35.972279630" lon="-106.516251950">
        <ele>2584.800</ele>
        <time>2019-07-14T22:23:48Z</time>
      </trkpt>
      <trkpt lat="35.972303290" lon="-106.516152650">
        <ele>2585.600</ele>
        <time>2019-07-14T22:23:49Z</time>
      </trkpt>
      <trkpt lat="35.972308080" lon="-106.516047080">
        <ele>2585.600</ele>
        <time>2019-07-14T22:23:50Z</time>
      </trkpt>
      <trkpt lat="35.972338690" lon="-106.515938610">
        <ele>2584.500</ele>
        <time>2019-07-14T22:23:51Z</time>
      </trkpt>
      <trkpt lat="35.972323510" lon="-106.515856680">
        <ele>2583.700</ele>
        <time>2019-07-14T22:23:52Z</time>
      </trkpt>
      <trkpt lat="35.972331570" lon="-106.515771610">
        <ele>2582.700</ele>
        <time>2019-07-14T22:23:53Z</time>
      </trkpt>
      <trkpt lat="35.972343180" lon="-106.515685120">
        <ele>2582.600</ele>
        <time>2019-07-14T22:23:54Z</time>
      </trkpt>
      <trkpt lat="35.972410240" lon="-106.515612550">
        <ele>2581.500</ele>
        <time>2019-07-14T22:23:55Z</time>
      </trkpt>
      <trkpt lat="35.972448710" lon="-106.515542510">
        <ele>2580.500</ele>
        <time>2019-07-14T22:23:56Z</time>
      </trkpt>
      <trkpt lat="35.972492010" lon="-106.515491710">
        <ele>2580.300</ele>
        <time>2019-07-14T22:23:57Z</time>
      </trkpt>
      <trkpt lat="35.972528780" lon="-106.515423060">
        <ele>2581.200</ele>
        <time>2019-07-14T22:23:58Z</time>
      </trkpt>
      <trkpt lat="35.972565290" lon="-106.515358940">
        <ele>2581.200</ele>
        <time>2019-07-14T22:23:59Z</time>
      </trkpt>
      <trkpt lat="35.972600850" lon="-106.515324930">
        <ele>2581.900</ele>
        <time>2019-07-14T22:24:00Z</time>
      </trkpt>
      <trkpt lat="35.972613830" lon="-106.515273900">
        <ele>2582.100</ele>
        <time>2019-07-14T22:24:01Z</time>
      </trkpt>
      <trkpt lat="35.972651310" lon="-106.515263360">
        <ele>2582.000</ele>
        <time>2019-07-14T22:24:03Z</time>
      </trkpt>
      <trkpt lat="35.972647480" lon="-106.515209750">
        <ele>2581.300</ele>
        <time>2019-07-14T22:24:05Z</time>
      </trkpt>
      <trkpt lat="35.972683510" lon="-106.515218370">
        <ele>2582.200</ele>
        <time>2019-07-14T22:24:07Z</time>
      </trkpt>
      <trkpt lat="35.972713810" lon="-106.515135980">
        <ele>2583.100</ele>
        <time>2019-07-14T22:24:10Z</time>
      </trkpt>
      <trkpt lat="35.972727650" lon="-106.515083650">
        <ele>2582.800</ele>
        <time>2019-07-14T22:24:11Z</time>
      </trkpt>
      <trkpt lat="35.972737730" lon="-106.515000400">
        <ele>2583.500</ele>
        <time>2019-07-14T22:24:13Z</time>
      </trkpt>
      <trkpt lat="35.972771980" lon="-106.514888670">
        <ele>2585.000</ele>
        <time>2019-07-14T22:24:14Z</time>
      </trkpt>
      <trkpt lat="35.972763540" lon="-106.514813650">
        <ele>2584.100</ele>
        <time>2019-07-14T22:24:15Z</time>
      </trkpt>
      <trkpt lat="35.972755980" lon="-106.514717340">
        <ele>2583.600</ele>
        <time>2019-07-14T22:24:16Z</time>
      </trkpt>
      <trkpt lat="35.972763790" lon="-106.514606380">
        <ele>2585.500</ele>
        <time>2019-07-14T22:24:17Z</time>
      </trkpt>
      <trkpt lat="35.972757130" lon="-106.514528490">
        <ele>2583.600</ele>
        <time>2019-07-14T22:24:18Z</time>
      </trkpt>
      <trkpt lat="35.972727050" lon="-106.514428580">
        <ele>2583.800</ele>
        <time>2019-07-14T22:24:19Z</time>
      </trkpt>
      <trkpt lat="35.972726420" lon="-106.514332750">
        <ele>2583.600</ele>
        <time>2019-07-14T22:24:20Z</time>
      </trkpt>
      <trkpt lat="35.972716030" lon="-106.514228150">
        <ele>2583.700</ele>
        <time>2019-07-14T22:24:21Z</time>
      </trkpt>
      <trkpt lat="35.972720230" lon="-106.514112430">
        <ele>2584.700</ele>
        <time>2019-07-14T22:24:22Z</time>
      </trkpt>
      <trkpt lat="35.972716670" lon="-106.514013160">
        <ele>2584.900</ele>
        <time>2019-07-14T22:24:23Z</time>
      </trkpt>
      <trkpt lat="35.972716660" lon="-106.513909290">
        <ele>2585.200</ele>
        <time>2019-07-14T22:24:24Z</time>
      </trkpt>
      <trkpt lat="35.972725840" lon="-106.513790730">
        <ele>2585.600</ele>
        <time>2019-07-14T22:24:25Z</time>
      </trkpt>
      <trkpt lat="35.972740080" lon="-106.513703620">
        <ele>2584.900</ele>
        <time>2019-07-14T22:24:26Z</time>
      </trkpt>
      <trkpt lat="35.972771380" lon="-106.513601750">
        <ele>2584.500</ele>
        <time>2019-07-14T22:24:27Z</time>
      </trkpt>
      <trkpt lat="35.972773820" lon="-106.513508980">
        <ele>2584.100</ele>
        <time>2019-07-14T22:24:28Z</time>
      </trkpt>
      <trkpt lat="35.972793760" lon="-106.513404920">
        <ele>2583.900</ele>
        <time>2019-07-14T22:24:29Z</time>
      </trkpt>
      <trkpt lat="35.972827570" lon="-106.513291490">
        <ele>2584.700</ele>
        <time>2019-07-14T22:24:30Z</time>
      </trkpt>
      <trkpt lat="35.972841530" lon="-106.513206090">
        <ele>2583.200</ele>
        <time>2019-07-14T22:24:31Z</time>
      </trkpt>
      <trkpt lat="35.972873910" lon="-106.513136430">
        <ele>2583.100</ele>
        <time>2019-07-14T22:24:32Z</time>
      </trkpt>
      <trkpt lat="35.972880280" lon="-106.513030630">
        <ele>2583.300</ele>
        <time>2019-07-14T22:24:33Z</time>
      </trkpt>
      <trkpt lat="35.972916520" lon="-106.512955530">
        <ele>2583.200</ele>
        <time>2019-07-14T22:24:34Z</time>
      </trkpt>
      <trkpt lat="35.972936060" lon="-106.512874660">
        <ele>2582.200</ele>
        <time>2019-07-14T22:24:35Z</time>
      </trkpt>
      <trkpt lat="35.972983410" lon="-106.512738100">
        <ele>2583.900</ele>
        <time>2019-07-14T22:24:36Z</time>
      </trkpt>
      <trkpt lat="35.972957040" lon="-106.512631940">
        <ele>2584.400</ele>
        <time>2019-07-14T22:24:37Z</time>
      </trkpt>
      <trkpt lat="35.972964610" lon="-106.512491820">
        <ele>2585.200</ele>
        <time>2019-07-14T22:24:38Z</time>
      </trkpt>
      <trkpt lat="35.972952220" lon="-106.512381800">
        <ele>2584.900</ele>
        <time>2019-07-14T22:24:39Z</time>
      </trkpt>
      <trkpt lat="35.972969040" lon="-106.512267880">
        <ele>2585.400</ele>
        <time>2019-07-14T22:24:40Z</time>
      </trkpt>
      <trkpt lat="35.972983130" lon="-106.512159430">
        <ele>2584.200</ele>
        <time>2019-07-14T22:24:41Z</time>
      </trkpt>
      <trkpt lat="35.972997530" lon="-106.512032520">
        <ele>2585.500</ele>
        <time>2019-07-14T22:24:42Z</time>
      </trkpt>
      <trkpt lat="35.973008680" lon="-106.511940210">
        <ele>2584.300</ele>
        <time>2019-07-14T22:24:43Z</time>
      </trkpt>
      <trkpt lat="35.973008030" lon="-106.511830220">
        <ele>2582.600</ele>
        <time>2019-07-14T22:24:44Z</time>
      </trkpt>
      <trkpt lat="35.973062120" lon="-106.511746490">
        <ele>2583.800</ele>
        <time>2019-07-14T22:24:45Z</time>
      </trkpt>
      <trkpt lat="35.973111000" lon="-106.511650600">
        <ele>2585.400</ele>
        <time>2019-07-14T22:24:46Z</time>
      </trkpt>
      <trkpt lat="35.973159540" lon="-106.511548320">
        <ele>2585.300</ele>
        <time>2019-07-14T22:24:47Z</time>
      </trkpt>
      <trkpt lat="35.973210990" lon="-106.511460940">
        <ele>2585.100</ele>
        <time>2019-07-14T22:24:48Z</time>
      </trkpt>
      <trkpt lat="35.973266350" lon="-106.511368450">
        <ele>2586.800</ele>
        <time>2019-07-14T22:24:49Z</time>
      </trkpt>
      <trkpt lat="35.973325350" lon="-106.511278580">
        <ele>2587.100</ele>
        <time>2019-07-14T22:24:50Z</time>
      </trkpt>
      <trkpt lat="35.973387280" lon="-106.511185560">
        <ele>2585.300</ele>
        <time>2019-07-14T22:24:51Z</time>
      </trkpt>
      <trkpt lat="35.973435960" lon="-106.511138970">
        <ele>2585.100</ele>
        <time>2019-07-14T22:24:52Z</time>
      </trkpt>
      <trkpt lat="35.973499880" lon="-106.511089100">
        <ele>2585.600</ele>
        <time>2019-07-14T22:24:53Z</time>
      </trkpt>
      <trkpt lat="35.973546220" lon="-106.511009640">
        <ele>2585.600</ele>
        <time>2019-07-14T22:24:54Z</time>
      </trkpt>
      <trkpt lat="35.973584400" lon="-106.510918850">
        <ele>2585.700</ele>
        <time>2019-07-14T22:24:55Z</time>
      </trkpt>
      <trkpt lat="35.973653360" lon="-106.510859550">
        <ele>2585.900</ele>
        <time>2019-07-14T22:24:56Z</time>
      </trkpt>
      <trkpt lat="35.973653990" lon="-106.510754800">
        <ele>2584.000</ele>
        <time>2019-07-14T22:24:57Z</time>
      </trkpt>
      <trkpt lat="35.973672900" lon="-106.510601250">
        <ele>2584.600</ele>
        <time>2019-07-14T22:24:58Z</time>
      </trkpt>
      <trkpt lat="35.973675520" lon="-106.510524510">
        <ele>2585.100</ele>
        <time>2019-07-14T22:24:59Z</time>
      </trkpt>
      <trkpt lat="35.973721850" lon="-106.510375410">
        <ele>2586.500</ele>
        <time>2019-07-14T22:25:00Z</time>
      </trkpt>
      <trkpt lat="35.973719960" lon="-106.510283720">
        <ele>2586.700</ele>
        <time>2019-07-14T22:25:01Z</time>
      </trkpt>
      <trkpt lat="35.973705030" lon="-106.510169730">
        <ele>2589.600</ele>
        <time>2019-07-14T22:25:02Z</time>
      </trkpt>
      <trkpt lat="35.973678590" lon="-106.510071580">
        <ele>2591.300</ele>
        <time>2019-07-14T22:25:03Z</time>
      </trkpt>
      <trkpt lat="35.973643420" lon="-106.509973140">
        <ele>2590.500</ele>
        <time>2019-07-14T22:25:04Z</time>
      </trkpt>
      <trkpt lat="35.973597750" lon="-106.509861650">
        <ele>2589.200</ele>
        <time>2019-07-14T22:25:05Z</time>
      </trkpt>
      <trkpt lat="35.973552990" lon="-106.509763200">
        <ele>2588.000</ele>
        <time>2019-07-14T22:25:06Z</time>
      </trkpt>
      <trkpt lat="35.973510900" lon="-106.509660190">
        <ele>2585.800</ele>
        <time>2019-07-14T22:25:07Z</time>
      </trkpt>
      <trkpt lat="35.973465280" lon="-106.509554670">
        <ele>2587.500</ele>
        <time>2019-07-14T22:25:08Z</time>
      </trkpt>
      <trkpt lat="35.973420190" lon="-106.509451650">
        <ele>2586.100</ele>
        <time>2019-07-14T22:25:09Z</time>
      </trkpt>
      <trkpt lat="35.973376970" lon="-106.509347990">
        <ele>2586.300</ele>
        <time>2019-07-14T22:25:10Z</time>
      </trkpt>
      <trkpt lat="35.973326870" lon="-106.509235730">
        <ele>2586.000</ele>
        <time>2019-07-14T22:25:11Z</time>
      </trkpt>
      <trkpt lat="35.973274890" lon="-106.509142860">
        <ele>2586.700</ele>
        <time>2019-07-14T22:25:12Z</time>
      </trkpt>
      <trkpt lat="35.973232560" lon="-106.509037300">
        <ele>2586.200</ele>
        <time>2019-07-14T22:25:13Z</time>
      </trkpt>
      <trkpt lat="35.973175570" lon="-106.508930960">
        <ele>2585.500</ele>
        <time>2019-07-14T22:25:14Z</time>
      </trkpt>
      <trkpt lat="35.973118360" lon="-106.508821200">
        <ele>2585.100</ele>
        <time>2019-07-14T22:25:15Z</time>
      </trkpt>
      <trkpt lat="35.973068750" lon="-106.508708020">
        <ele>2586.700</ele>
        <time>2019-07-14T22:25:16Z</time>
      </trkpt>
      <trkpt lat="35.973025550" lon="-106.508580240">
        <ele>2584.500</ele>
        <time>2019-07-14T22:25:17Z</time>
      </trkpt>
      <trkpt lat="35.972983050" lon="-106.508469160">
        <ele>2584.700</ele>
        <time>2019-07-14T22:25:18Z</time>
      </trkpt>
      <trkpt lat="35.972946840" lon="-106.508365190">
        <ele>2584.700</ele>
        <time>2019-07-14T22:25:19Z</time>
      </trkpt>
      <trkpt lat="35.972906700" lon="-106.508273010">
        <ele>2586.100</ele>
        <time>2019-07-14T22:25:20Z</time>
      </trkpt>
      <trkpt lat="35.972871520" lon="-106.508195960">
        <ele>2585.700</ele>
        <time>2019-07-14T22:25:21Z</time>
      </trkpt>
      <trkpt lat="35.972838280" lon="-106.508104800">
        <ele>2587.500</ele>
        <time>2019-07-14T22:25:22Z</time>
      </trkpt>
      <trkpt lat="35.972813730" lon="-106.508024000">
        <ele>2587.000</ele>
        <time>2019-07-14T22:25:23Z</time>
      </trkpt>
      <trkpt lat="35.972797420" lon="-106.507937920">
        <ele>2585.100</ele>
        <time>2019-07-14T22:25:24Z</time>
      </trkpt>
      <trkpt lat="35.972767090" lon="-106.507843820">
        <ele>2585.900</ele>
        <time>2019-07-14T22:25:25Z</time>
      </trkpt>
      <trkpt lat="35.972742770" lon="-106.507757430">
        <ele>2586.100</ele>
        <time>2019-07-14T22:25:26Z</time>
      </trkpt>
      <trkpt lat="35.972721950" lon="-106.507671080">
        <ele>2586.500</ele>
        <time>2019-07-14T22:25:27Z</time>
      </trkpt>
      <trkpt lat="35.972712880" lon="-106.507603250">
        <ele>2588.500</ele>
        <time>2019-07-14T22:25:28Z</time>
      </trkpt>
      <trkpt lat="35.972713690" lon="-106.507558370">
        <ele>2587.200</ele>
        <time>2019-07-14T22:25:29Z</time>
      </trkpt>
      <trkpt lat="35.972701530" lon="-106.507487590">
        <ele>2587.300</ele>
        <time>2019-07-14T22:25:30Z</time>
      </trkpt>
      <trkpt lat="35.972680050" lon="-106.507418820">
        <ele>2586.700</ele>
        <time>2019-07-14T22:25:31Z</time>
      </trkpt>
      <trkpt lat="35.972659830" lon="-106.507346070">
        <ele>2585.300</ele>
        <time>2019-07-14T22:25:32Z</time>
      </trkpt>
      <trkpt lat="35.972661670" lon="-106.507280980">
        <ele>2584.200</ele>
        <time>2019-07-14T22:25:33Z</time>
      </trkpt>
      <trkpt lat="35.972652580" lon="-106.507224450">
        <ele>2583.500</ele>
        <time>2019-07-14T22:25:34Z</time>
      </trkpt>
      <trkpt lat="35.972636500" lon="-106.507162390">
        <ele>2585.500</ele>
        <time>2019-07-14T22:25:35Z</time>
      </trkpt>
      <trkpt lat="35.972629130" lon="-106.507098960">
        <ele>2586.200</ele>
        <time>2019-07-14T22:25:36Z</time>
      </trkpt>
      <trkpt lat="35.972619940" lon="-106.507035380">
        <ele>2585.300</ele>
        <time>2019-07-14T22:25:37Z</time>
      </trkpt>
      <trkpt lat="35.972599190" lon="-106.506945860">
        <ele>2586.200</ele>
        <time>2019-07-14T22:25:38Z</time>
      </trkpt>
      <trkpt lat="35.972588650" lon="-106.506857500">
        <ele>2586.200</ele>
        <time>2019-07-14T22:25:39Z</time>
      </trkpt>
      <trkpt lat="35.972562750" lon="-106.506760480">
        <ele>2586.200</ele>
        <time>2019-07-14T22:25:40Z</time>
      </trkpt>
      <trkpt lat="35.972557810" lon="-106.506673210">
        <ele>2586.600</ele>
        <time>2019-07-14T22:25:41Z</time>
      </trkpt>
      <trkpt lat="35.972548610" lon="-106.506558440">
        <ele>2583.300</ele>
        <time>2019-07-14T22:25:42Z</time>
      </trkpt>
      <trkpt lat="35.972532850" lon="-106.506459370">
        <ele>2582.700</ele>
        <time>2019-07-14T22:25:43Z</time>
      </trkpt>
      <trkpt lat="35.972508110" lon="-106.506367610">
        <ele>2582.300</ele>
        <time>2019-07-14T22:25:44Z</time>
      </trkpt>
      <trkpt lat="35.972487270" lon="-106.506266340">
        <ele>2582.100</ele>
        <time>2019-07-14T22:25:45Z</time>
      </trkpt>
      <trkpt lat="35.972470390" lon="-106.506176040">
        <ele>2583.700</ele>
        <time>2019-07-14T22:25:46Z</time>
      </trkpt>
      <trkpt lat="35.972436550" lon="-106.506073410">
        <ele>2583.900</ele>
        <time>2019-07-14T22:25:47Z</time>
      </trkpt>
      <trkpt lat="35.972405670" lon="-106.505973830">
        <ele>2584.300</ele>
        <time>2019-07-14T22:25:48Z</time>
      </trkpt>
      <trkpt lat="35.972380560" lon="-106.505873260">
        <ele>2584.400</ele>
        <time>2019-07-14T22:25:49Z</time>
      </trkpt>
      <trkpt lat="35.972362790" lon="-106.505774930">
        <ele>2585.000</ele>
        <time>2019-07-14T22:25:50Z</time>
      </trkpt>
      <trkpt lat="35.972333240" lon="-106.505668520">
        <ele>2587.500</ele>
        <time>2019-07-14T22:25:51Z</time>
      </trkpt>
      <trkpt lat="35.972301050" lon="-106.505553480">
        <ele>2589.200</ele>
        <time>2019-07-14T22:25:52Z</time>
      </trkpt>
      <trkpt lat="35.972289930" lon="-106.505461680">
        <ele>2589.400</ele>
        <time>2019-07-14T22:25:53Z</time>
      </trkpt>
      <trkpt lat="35.972286840" lon="-106.505393790">
        <ele>2593.300</ele>
        <time>2019-07-14T22:25:54Z</time>
      </trkpt>
      <trkpt lat="35.972262070" lon="-106.505303510">
        <ele>2591.700</ele>
        <time>2019-07-14T22:25:55Z</time>
      </trkpt>
      <trkpt lat="35.972238240" lon="-106.505237540">
        <ele>2593.300</ele>
        <time>2019-07-14T22:25:56Z</time>
      </trkpt>
      <trkpt lat="35.972207240" lon="-106.505176220">
        <ele>2592.000</ele>
        <time>2019-07-14T22:25:57Z</time>
      </trkpt>
      <trkpt lat="35.972188100" lon="-106.505110880">
        <ele>2590.500</ele>
        <time>2019-07-14T22:25:58Z</time>
      </trkpt>
      <trkpt lat="35.972158500" lon="-106.505056730">
        <ele>2590.700</ele>
        <time>2019-07-14T22:25:59Z</time>
      </trkpt>
      <trkpt lat="35.972150500" lon="-106.505011100">
        <ele>2587.900</ele>
        <time>2019-07-14T22:26:00Z</time>
      </trkpt>
      <trkpt lat="35.972133820" lon="-106.504946290">
        <ele>2586.700</ele>
        <time>2019-07-14T22:26:02Z</time>
      </trkpt>
      <trkpt lat="35.972081860" lon="-106.504888690">
        <ele>2588.000</ele>
        <time>2019-07-14T22:26:04Z</time>
      </trkpt>
      <trkpt lat="35.972103650" lon="-106.504848840">
        <ele>2591.100</ele>
        <time>2019-07-14T22:26:06Z</time>
      </trkpt>
      <trkpt lat="35.972078200" lon="-106.504786280">
        <ele>2591.500</ele>
        <time>2019-07-14T22:26:07Z</time>
      </trkpt>
      <trkpt lat="35.972094120" lon="-106.504735070">
        <ele>2589.400</ele>
        <time>2019-07-14T22:26:08Z</time>
      </trkpt>
      <trkpt lat="35.972116900" lon="-106.504669750">
        <ele>2588.400</ele>
        <time>2019-07-14T22:26:10Z</time>
      </trkpt>
      <trkpt lat="35.972143230" lon="-106.504629290">
        <ele>2588.800</ele>
        <time>2019-07-14T22:26:11Z</time>
      </trkpt>
      <trkpt lat="35.972172450" lon="-106.504590630">
        <ele>2589.900</ele>
        <time>2019-07-14T22:26:12Z</time>
      </trkpt>
      <trkpt lat="35.972211360" lon="-106.504535540">
        <ele>2589.700</ele>
        <time>2019-07-14T22:26:14Z</time>
      </trkpt>
      <trkpt lat="35.972227730" lon="-106.504494400">
        <ele>2585.700</ele>
        <time>2019-07-14T22:28:07Z</time>
      </trkpt>
      <trkpt lat="35.972201570" lon="-106.504537110">
        <ele>2588.400</ele>
        <time>2019-07-14T22:35:26Z</time>
      </trkpt>
      <trkpt lat="35.972173120" lon="-106.504592480">
        <ele>2587.700</ele>
        <time>2019-07-14T22:35:29Z</time>
      </trkpt>
      <trkpt lat="35.972155450" lon="-106.504636840">
        <ele>2587.500</ele>
        <time>2019-07-14T22:35:31Z</time>
      </trkpt>
      <trkpt lat="35.972138060" lon="-106.504677490">
        <ele>2588.300</ele>
        <time>2019-07-14T22:35:33Z</time>
      </trkpt>
      <trkpt lat="35.972100700" lon="-106.504715820">
        <ele>2590.300</ele>
        <time>2019-07-14T22:35:37Z</time>
      </trkpt>
      <trkpt lat="35.972063820" lon="-106.504717340">
        <ele>2590.800</ele>
        <time>2019-07-14T22:35:40Z</time>
      </trkpt>
      <trkpt lat="35.972081650" lon="-106.504766950">
        <ele>2591.300</ele>
        <time>2019-07-14T22:35:45Z</time>
      </trkpt>
      <trkpt lat="35.972107130" lon="-106.504834520">
        <ele>2591.700</ele>
        <time>2019-07-14T22:35:47Z</time>
      </trkpt>
      <trkpt lat="35.972126330" lon="-106.504892310">
        <ele>2592.000</ele>
        <time>2019-07-14T22:35:49Z</time>
      </trkpt>
      <trkpt lat="35.972141330" lon="-106.504937550">
        <ele>2591.700</ele>
        <time>2019-07-14T22:35:52Z</time>
      </trkpt>
      <trkpt lat="35.972159300" lon="-106.504989550">
        <ele>2589.500</ele>
        <time>2019-07-14T22:35:55Z</time>
      </trkpt>
      <trkpt lat="35.972175800" lon="-106.505049330">
        <ele>2589.700</ele>
        <time>2019-07-14T22:35:57Z</time>
      </trkpt>
      <trkpt lat="35.972198690" lon="-106.505126000">
        <ele>2589.500</ele>
        <time>2019-07-14T22:35:59Z</time>
      </trkpt>
      <trkpt lat="35.972220870" lon="-106.505182040">
        <ele>2589.500</ele>
        <time>2019-07-14T22:36:01Z</time>
      </trkpt>
      <trkpt lat="35.972242420" lon="-106.505227330">
        <ele>2589.500</ele>
        <time>2019-07-14T22:36:03Z</time>
      </trkpt>
      <trkpt lat="35.972291820" lon="-106.505311800">
        <ele>2590.000</ele>
        <time>2019-07-14T22:36:05Z</time>
      </trkpt>
      <trkpt lat="35.972320240" lon="-106.505359870">
        <ele>2590.200</ele>
        <time>2019-07-14T22:36:06Z</time>
      </trkpt>
      <trkpt lat="35.972338990" lon="-106.505421130">
        <ele>2590.300</ele>
        <time>2019-07-14T22:36:07Z</time>
      </trkpt>
      <trkpt lat="35.972351270" lon="-106.505492380">
        <ele>2590.500</ele>
        <time>2019-07-14T22:36:08Z</time>
      </trkpt>
      <trkpt lat="35.972370470" lon="-106.505564860">
        <ele>2590.600</ele>
        <time>2019-07-14T22:36:09Z</time>
      </trkpt>
      <trkpt lat="35.972387370" lon="-106.505641820">
        <ele>2590.900</ele>
        <time>2019-07-14T22:36:10Z</time>
      </trkpt>
      <trkpt lat="35.972408110" lon="-106.505717880">
        <ele>2590.600</ele>
        <time>2019-07-14T22:36:11Z</time>
      </trkpt>
      <trkpt lat="35.972423260" lon="-106.505794730">
        <ele>2590.000</ele>
        <time>2019-07-14T22:36:12Z</time>
      </trkpt>
      <trkpt lat="35.972444350" lon="-106.505877220">
        <ele>2590.500</ele>
        <time>2019-07-14T22:36:13Z</time>
      </trkpt>
      <trkpt lat="35.972467180" lon="-106.505961510">
        <ele>2591.000</ele>
        <time>2019-07-14T22:36:14Z</time>
      </trkpt>
      <trkpt lat="35.972486120" lon="-106.506047680">
        <ele>2591.600</ele>
        <time>2019-07-14T22:36:15Z</time>
      </trkpt>
      <trkpt lat="35.972496550" lon="-106.506146370">
        <ele>2592.000</ele>
        <time>2019-07-14T22:36:16Z</time>
      </trkpt>
      <trkpt lat="35.972518510" lon="-106.506227880">
        <ele>2591.600</ele>
        <time>2019-07-14T22:36:17Z</time>
      </trkpt>
      <trkpt lat="35.972535520" lon="-106.506322650">
        <ele>2590.100</ele>
        <time>2019-07-14T22:36:18Z</time>
      </trkpt>
      <trkpt lat="35.972560350" lon="-106.506420370">
        <ele>2590.100</ele>
        <time>2019-07-14T22:36:19Z</time>
      </trkpt>
      <trkpt lat="35.972574100" lon="-106.506522760">
        <ele>2590.000</ele>
        <time>2019-07-14T22:36:20Z</time>
      </trkpt>
      <trkpt lat="35.972584900" lon="-106.506609190">
        <ele>2590.100</ele>
        <time>2019-07-14T22:36:21Z</time>
      </trkpt>
      <trkpt lat="35.972605070" lon="-106.506706350">
        <ele>2589.800</ele>
        <time>2019-07-14T22:36:22Z</time>
      </trkpt>
      <trkpt lat="35.972619290" lon="-106.506797440">
        <ele>2589.500</ele>
        <time>2019-07-14T22:36:23Z</time>
      </trkpt>
      <trkpt lat="35.972630910" lon="-106.506890500">
        <ele>2589.300</ele>
        <time>2019-07-14T22:36:24Z</time>
      </trkpt>
      <trkpt lat="35.972648180" lon="-106.506977830">
        <ele>2589.700</ele>
        <time>2019-07-14T22:36:25Z</time>
      </trkpt>
      <trkpt lat="35.972664570" lon="-106.507075230">
        <ele>2590.200</ele>
        <time>2019-07-14T22:36:26Z</time>
      </trkpt>
      <trkpt lat="35.972677510" lon="-106.507172420">
        <ele>2589.900</ele>
        <time>2019-07-14T22:36:27Z</time>
      </trkpt>
      <trkpt lat="35.972692640" lon="-106.507260070">
        <ele>2589.600</ele>
        <time>2019-07-14T22:36:28Z</time>
      </trkpt>
      <trkpt lat="35.972714660" lon="-106.507356250">
        <ele>2589.800</ele>
        <time>2019-07-14T22:36:29Z</time>
      </trkpt>
      <trkpt lat="35.972728090" lon="-106.507450990">
        <ele>2589.700</ele>
        <time>2019-07-14T22:36:30Z</time>
      </trkpt>
      <trkpt lat="35.972744640" lon="-106.507549630">
        <ele>2589.600</ele>
        <time>2019-07-14T22:36:31Z</time>
      </trkpt>
      <trkpt lat="35.972755850" lon="-106.507652440">
        <ele>2589.700</ele>
        <time>2019-07-14T22:36:32Z</time>
      </trkpt>
      <trkpt lat="35.972773280" lon="-106.507744330">
        <ele>2589.600</ele>
        <time>2019-07-14T22:36:33Z</time>
      </trkpt>
      <trkpt lat="35.972794820" lon="-106.507849090">
        <ele>2589.700</ele>
        <time>2019-07-14T22:36:34Z</time>
      </trkpt>
      <trkpt lat="35.972811080" lon="-106.507953420">
        <ele>2590.500</ele>
        <time>2019-07-14T22:36:35Z</time>
      </trkpt>
      <trkpt lat="35.972830080" lon="-106.508061580">
        <ele>2590.400</ele>
        <time>2019-07-14T22:36:36Z</time>
      </trkpt>
      <trkpt lat="35.972858310" lon="-106.508163490">
        <ele>2590.300</ele>
        <time>2019-07-14T22:36:37Z</time>
      </trkpt>
      <trkpt lat="35.972888730" lon="-106.508268830">
        <ele>2591.900</ele>
        <time>2019-07-14T22:36:38Z</time>
      </trkpt>
      <trkpt lat="35.972924020" lon="-106.508372790">
        <ele>2591.100</ele>
        <time>2019-07-14T22:36:39Z</time>
      </trkpt>
      <trkpt lat="35.972958000" lon="-106.508473930">
        <ele>2590.300</ele>
        <time>2019-07-14T22:36:40Z</time>
      </trkpt>
      <trkpt lat="35.972996630" lon="-106.508576370">
        <ele>2589.700</ele>
        <time>2019-07-14T22:36:41Z</time>
      </trkpt>
      <trkpt lat="35.973039590" lon="-106.508673020">
        <ele>2589.200</ele>
        <time>2019-07-14T22:36:42Z</time>
      </trkpt>
      <trkpt lat="35.973090040" lon="-106.508768650">
        <ele>2588.700</ele>
        <time>2019-07-14T22:36:43Z</time>
      </trkpt>
      <trkpt lat="35.973140640" lon="-106.508869480">
        <ele>2589.300</ele>
        <time>2019-07-14T22:36:44Z</time>
      </trkpt>
      <trkpt lat="35.973187270" lon="-106.508966790">
        <ele>2588.700</ele>
        <time>2019-07-14T22:36:45Z</time>
      </trkpt>
      <trkpt lat="35.973234070" lon="-106.509061740">
        <ele>2588.900</ele>
        <time>2019-07-14T22:36:46Z</time>
      </trkpt>
      <trkpt lat="35.973276160" lon="-106.509148810">
        <ele>2589.500</ele>
        <time>2019-07-14T22:36:47Z</time>
      </trkpt>
      <trkpt lat="35.973319380" lon="-106.509242730">
        <ele>2589.400</ele>
        <time>2019-07-14T22:36:48Z</time>
      </trkpt>
      <trkpt lat="35.973357610" lon="-106.509337080">
        <ele>2589.100</ele>
        <time>2019-07-14T22:36:49Z</time>
      </trkpt>
      <trkpt lat="35.973401340" lon="-106.509427820">
        <ele>2589.400</ele>
        <time>2019-07-14T22:36:50Z</time>
      </trkpt>
      <trkpt lat="35.973435370" lon="-106.509520340">
        <ele>2589.100</ele>
        <time>2019-07-14T22:36:51Z</time>
      </trkpt>
      <trkpt lat="35.973477980" lon="-106.509620080">
        <ele>2589.300</ele>
        <time>2019-07-14T22:36:52Z</time>
      </trkpt>
      <trkpt lat="35.973523820" lon="-106.509718770">
        <ele>2589.500</ele>
        <time>2019-07-14T22:36:53Z</time>
      </trkpt>
      <trkpt lat="35.973570030" lon="-106.509816690">
        <ele>2589.700</ele>
        <time>2019-07-14T22:36:54Z</time>
      </trkpt>
      <trkpt lat="35.973613040" lon="-106.509914720">
        <ele>2590.000</ele>
        <time>2019-07-14T22:36:55Z</time>
      </trkpt>
      <trkpt lat="35.973642800" lon="-106.510005820">
        <ele>2589.900</ele>
        <time>2019-07-14T22:36:56Z</time>
      </trkpt>
      <trkpt lat="35.973676460" lon="-106.510094630">
        <ele>2589.700</ele>
        <time>2019-07-14T22:36:57Z</time>
      </trkpt>
      <trkpt lat="35.973703630" lon="-106.510186190">
        <ele>2590.200</ele>
        <time>2019-07-14T22:36:58Z</time>
      </trkpt>
      <trkpt lat="35.973718700" lon="-106.510281690">
        <ele>2589.900</ele>
        <time>2019-07-14T22:36:59Z</time>
      </trkpt>
      <trkpt lat="35.973723020" lon="-106.510385300">
        <ele>2589.900</ele>
        <time>2019-07-14T22:37:00Z</time>
      </trkpt>
      <trkpt lat="35.973710560" lon="-106.510490200">
        <ele>2589.200</ele>
        <time>2019-07-14T22:37:01Z</time>
      </trkpt>
      <trkpt lat="35.973703180" lon="-106.510585830">
        <ele>2588.700</ele>
        <time>2019-07-14T22:37:02Z</time>
      </trkpt>
      <trkpt lat="35.973677560" lon="-106.510689810">
        <ele>2588.400</ele>
        <time>2019-07-14T22:37:03Z</time>
      </trkpt>
      <trkpt lat="35.973647830" lon="-106.510791850">
        <ele>2588.000</ele>
        <time>2019-07-14T22:37:04Z</time>
      </trkpt>
      <trkpt lat="35.973591530" lon="-106.510906490">
        <ele>2588.500</ele>
        <time>2019-07-14T22:37:05Z</time>
      </trkpt>
      <trkpt lat="35.973547570" lon="-106.510998560">
        <ele>2588.300</ele>
        <time>2019-07-14T22:37:06Z</time>
      </trkpt>
      <trkpt lat="35.973486670" lon="-106.511088250">
        <ele>2587.800</ele>
        <time>2019-07-14T22:37:07Z</time>
      </trkpt>
      <trkpt lat="35.973420480" lon="-106.511176500">
        <ele>2588.600</ele>
        <time>2019-07-14T22:37:08Z</time>
      </trkpt>
      <trkpt lat="35.973356710" lon="-106.511255630">
        <ele>2588.700</ele>
        <time>2019-07-14T22:37:09Z</time>
      </trkpt>
      <trkpt lat="35.973294350" lon="-106.511334250">
        <ele>2588.500</ele>
        <time>2019-07-14T22:37:10Z</time>
      </trkpt>
      <trkpt lat="35.973235790" lon="-106.511413160">
        <ele>2588.300</ele>
        <time>2019-07-14T22:37:11Z</time>
      </trkpt>
      <trkpt lat="35.973176290" lon="-106.511506450">
        <ele>2587.400</ele>
        <time>2019-07-14T22:37:12Z</time>
      </trkpt>
      <trkpt lat="35.973127510" lon="-106.511596680">
        <ele>2587.700</ele>
        <time>2019-07-14T22:37:13Z</time>
      </trkpt>
      <trkpt lat="35.973096750" lon="-106.511699440">
        <ele>2586.300</ele>
        <time>2019-07-14T22:37:14Z</time>
      </trkpt>
      <trkpt lat="35.973056150" lon="-106.511803250">
        <ele>2586.700</ele>
        <time>2019-07-14T22:37:15Z</time>
      </trkpt>
      <trkpt lat="35.973017900" lon="-106.511905470">
        <ele>2585.800</ele>
        <time>2019-07-14T22:37:16Z</time>
      </trkpt>
      <trkpt lat="35.972994330" lon="-106.512006390">
        <ele>2585.400</ele>
        <time>2019-07-14T22:37:17Z</time>
      </trkpt>
      <trkpt lat="35.972985010" lon="-106.512115920">
        <ele>2585.000</ele>
        <time>2019-07-14T22:37:18Z</time>
      </trkpt>
      <trkpt lat="35.972968800" lon="-106.512230640">
        <ele>2584.800</ele>
        <time>2019-07-14T22:37:19Z</time>
      </trkpt>
      <trkpt lat="35.972955340" lon="-106.512333390">
        <ele>2585.200</ele>
        <time>2019-07-14T22:37:20Z</time>
      </trkpt>
      <trkpt lat="35.972958130" lon="-106.512448600">
        <ele>2585.900</ele>
        <time>2019-07-14T22:37:21Z</time>
      </trkpt>
      <trkpt lat="35.972955230" lon="-106.512553040">
        <ele>2586.100</ele>
        <time>2019-07-14T22:37:22Z</time>
      </trkpt>
      <trkpt lat="35.972962880" lon="-106.512659250">
        <ele>2585.500</ele>
        <time>2019-07-14T22:37:23Z</time>
      </trkpt>
      <trkpt lat="35.972975670" lon="-106.512764180">
        <ele>2584.900</ele>
        <time>2019-07-14T22:37:24Z</time>
      </trkpt>
      <trkpt lat="35.972959790" lon="-106.512867820">
        <ele>2584.900</ele>
        <time>2019-07-14T22:37:25Z</time>
      </trkpt>
      <trkpt lat="35.972942170" lon="-106.512970140">
        <ele>2584.600</ele>
        <time>2019-07-14T22:37:26Z</time>
      </trkpt>
      <trkpt lat="35.972918780" lon="-106.513074810">
        <ele>2585.300</ele>
        <time>2019-07-14T22:37:27Z</time>
      </trkpt>
      <trkpt lat="35.972900830" lon="-106.513162370">
        <ele>2584.400</ele>
        <time>2019-07-14T22:37:28Z</time>
      </trkpt>
      <trkpt lat="35.972879660" lon="-106.513255330">
        <ele>2583.500</ele>
        <time>2019-07-14T22:37:29Z</time>
      </trkpt>
      <trkpt lat="35.972851940" lon="-106.513355050">
        <ele>2583.800</ele>
        <time>2019-07-14T22:37:30Z</time>
      </trkpt>
      <trkpt lat="35.972820030" lon="-106.513458840">
        <ele>2583.900</ele>
        <time>2019-07-14T22:37:31Z</time>
      </trkpt>
      <trkpt lat="35.972793180" lon="-106.513565160">
        <ele>2584.000</ele>
        <time>2019-07-14T22:37:32Z</time>
      </trkpt>
      <trkpt lat="35.972776060" lon="-106.513675490">
        <ele>2584.300</ele>
        <time>2019-07-14T22:37:33Z</time>
      </trkpt>
      <trkpt lat="35.972761300" lon="-106.513790690">
        <ele>2583.600</ele>
        <time>2019-07-14T22:37:34Z</time>
      </trkpt>
      <trkpt lat="35.972737720" lon="-106.513903640">
        <ele>2583.600</ele>
        <time>2019-07-14T22:37:35Z</time>
      </trkpt>
      <trkpt lat="35.972728190" lon="-106.514017570">
        <ele>2583.400</ele>
        <time>2019-07-14T22:37:36Z</time>
      </trkpt>
      <trkpt lat="35.972720730" lon="-106.514121760">
        <ele>2583.100</ele>
        <time>2019-07-14T22:37:37Z</time>
      </trkpt>
      <trkpt lat="35.972718490" lon="-106.514245080">
        <ele>2583.900</ele>
        <time>2019-07-14T22:37:38Z</time>
      </trkpt>
      <trkpt lat="35.972720090" lon="-106.514359640">
        <ele>2583.700</ele>
        <time>2019-07-14T22:37:39Z</time>
      </trkpt>
      <trkpt lat="35.972729640" lon="-106.514473710">
        <ele>2581.800</ele>
        <time>2019-07-14T22:37:40Z</time>
      </trkpt>
      <trkpt lat="35.972748750" lon="-106.514586390">
        <ele>2580.900</ele>
        <time>2019-07-14T22:37:41Z</time>
      </trkpt>
      <trkpt lat="35.972771600" lon="-106.514692870">
        <ele>2579.800</ele>
        <time>2019-07-14T22:37:42Z</time>
      </trkpt>
      <trkpt lat="35.972780150" lon="-106.514805740">
        <ele>2579.400</ele>
        <time>2019-07-14T22:37:43Z</time>
      </trkpt>
      <trkpt lat="35.972778300" lon="-106.514914080">
        <ele>2579.100</ele>
        <time>2019-07-14T22:37:44Z</time>
      </trkpt>
      <trkpt lat="35.972756730" lon="-106.515031850">
        <ele>2579.700</ele>
        <time>2019-07-14T22:37:45Z</time>
      </trkpt>
      <trkpt lat="35.972732660" lon="-106.515123810">
        <ele>2579.500</ele>
        <time>2019-07-14T22:37:46Z</time>
      </trkpt>
      <trkpt lat="35.972692640" lon="-106.515229260">
        <ele>2578.700</ele>
        <time>2019-07-14T22:37:47Z</time>
      </trkpt>
      <trkpt lat="35.972649510" lon="-106.515314660">
        <ele>2580.300</ele>
        <time>2019-07-14T22:37:48Z</time>
      </trkpt>
      <trkpt lat="35.972600290" lon="-106.515387540">
        <ele>2581.100</ele>
        <time>2019-07-14T22:37:49Z</time>
      </trkpt>
      <trkpt lat="35.972552050" lon="-106.515461100">
        <ele>2581.400</ele>
        <time>2019-07-14T22:37:50Z</time>
      </trkpt>
      <trkpt lat="35.972500930" lon="-106.515537260">
        <ele>2581.800</ele>
        <time>2019-07-14T22:37:51Z</time>
      </trkpt>
      <trkpt lat="35.972452910" lon="-106.515604850">
        <ele>2582.000</ele>
        <time>2019-07-14T22:37:52Z</time>
      </trkpt>
      <trkpt lat="35.972423090" lon="-106.515683510">
        <ele>2583.100</ele>
        <time>2019-07-14T22:37:53Z</time>
      </trkpt>
      <trkpt lat="35.972389940" lon="-106.515753290">
        <ele>2583.200</ele>
        <time>2019-07-14T22:37:54Z</time>
      </trkpt>
      <trkpt lat="35.972381650" lon="-106.515821130">
        <ele>2582.300</ele>
        <time>2019-07-14T22:37:55Z</time>
      </trkpt>
      <trkpt lat="35.972360200" lon="-106.515905000">
        <ele>2581.800</ele>
        <time>2019-07-14T22:37:56Z</time>
      </trkpt>
      <trkpt lat="35.972352650" lon="-106.515987490">
        <ele>2581.300</ele>
        <time>2019-07-14T22:37:57Z</time>
      </trkpt>
      <trkpt lat="35.972331010" lon="-106.516072350">
        <ele>2581.400</ele>
        <time>2019-07-14T22:37:58Z</time>
      </trkpt>
      <trkpt lat="35.972312290" lon="-106.516149720">
        <ele>2581.900</ele>
        <time>2019-07-14T22:37:59Z</time>
      </trkpt>
      <trkpt lat="35.972298880" lon="-106.516226820">
        <ele>2581.500</ele>
        <time>2019-07-14T22:38:00Z</time>
      </trkpt>
      <trkpt lat="35.972278660" lon="-106.516297730">
        <ele>2581.400</ele>
        <time>2019-07-14T22:38:01Z</time>
      </trkpt>
      <trkpt lat="35.972257700" lon="-106.516365020">
        <ele>2580.300</ele>
        <time>2019-07-14T22:38:02Z</time>
      </trkpt>
      <trkpt lat="35.972235640" lon="-106.516432510">
        <ele>2581.400</ele>
        <time>2019-07-14T22:38:03Z</time>
      </trkpt>
      <trkpt lat="35.972215020" lon="-106.516498640">
        <ele>2581.500</ele>
        <time>2019-07-14T22:38:04Z</time>
      </trkpt>
      <trkpt lat="35.972198830" lon="-106.516565790">
        <ele>2582.600</ele>
        <time>2019-07-14T22:38:05Z</time>
      </trkpt>
      <trkpt lat="35.972185970" lon="-106.516627890">
        <ele>2582.600</ele>
        <time>2019-07-14T22:38:06Z</time>
      </trkpt>
      <trkpt lat="35.972164230" lon="-106.516686680">
        <ele>2582.600</ele>
        <time>2019-07-14T22:38:07Z</time>
      </trkpt>
      <trkpt lat="35.972149710" lon="-106.516743470">
        <ele>2582.900</ele>
        <time>2019-07-14T22:38:08Z</time>
      </trkpt>
      <trkpt lat="35.972151800" lon="-106.516789150">
        <ele>2582.400</ele>
        <time>2019-07-14T22:38:09Z</time>
      </trkpt>
      <trkpt lat="35.972147770" lon="-106.516842500">
        <ele>2582.600</ele>
        <time>2019-07-14T22:38:10Z</time>
      </trkpt>
      <trkpt lat="35.972145120" lon="-106.516897640">
        <ele>2582.400</ele>
        <time>2019-07-14T22:38:11Z</time>
      </trkpt>
      <trkpt lat="35.972141270" lon="-106.516948670">
        <ele>2582.500</ele>
        <time>2019-07-14T22:38:12Z</time>
      </trkpt>
      <trkpt lat="35.972148320" lon="-106.517003410">
        <ele>2582.400</ele>
        <time>2019-07-14T22:38:13Z</time>
      </trkpt>
      <trkpt lat="35.972156530" lon="-106.517056580">
        <ele>2581.600</ele>
        <time>2019-07-14T22:38:14Z</time>
      </trkpt>
      <trkpt lat="35.972168540" lon="-106.517111480">
        <ele>2581.700</ele>
        <time>2019-07-14T22:38:15Z</time>
      </trkpt>
      <trkpt lat="35.972174630" lon="-106.517156430">
        <ele>2583.200</ele>
        <time>2019-07-14T22:38:16Z</time>
      </trkpt>
      <trkpt lat="35.972177410" lon="-106.517206240">
        <ele>2583.200</ele>
        <time>2019-07-14T22:38:17Z</time>
      </trkpt>
      <trkpt lat="35.972188800" lon="-106.517296320">
        <ele>2582.900</ele>
        <time>2019-07-14T22:38:19Z</time>
      </trkpt>
      <trkpt lat="35.972194110" lon="-106.517341150">
        <ele>2583.300</ele>
        <time>2019-07-14T22:38:20Z</time>
      </trkpt>
      <trkpt lat="35.972193810" lon="-106.517432730">
        <ele>2583.500</ele>
        <time>2019-07-14T22:38:22Z</time>
      </trkpt>
      <trkpt lat="35.972196050" lon="-106.517518080">
        <ele>2582.500</ele>
        <time>2019-07-14T22:38:24Z</time>
      </trkpt>
      <trkpt lat="35.972186210" lon="-106.517600110">
        <ele>2583.200</ele>
        <time>2019-07-14T22:38:26Z</time>
      </trkpt>
      <trkpt lat="35.972164070" lon="-106.517675590">
        <ele>2582.600</ele>
        <time>2019-07-14T22:38:28Z</time>
      </trkpt>
      <trkpt lat="35.972142160" lon="-106.517754420">
        <ele>2581.200</ele>
        <time>2019-07-14T22:38:30Z</time>
      </trkpt>
      <trkpt lat="35.972112310" lon="-106.517835070">
        <ele>2580.200</ele>
        <time>2019-07-14T22:38:32Z</time>
      </trkpt>
      <trkpt lat="35.972094400" lon="-106.517873640">
        <ele>2580.700</ele>
        <time>2019-07-14T22:38:33Z</time>
      </trkpt>
      <trkpt lat="35.972073510" lon="-106.517917140">
        <ele>2579.600</ele>
        <time>2019-07-14T22:38:34Z</time>
      </trkpt>
      <trkpt lat="35.972051000" lon="-106.517963740">
        <ele>2578.800</ele>
        <time>2019-07-14T22:38:35Z</time>
      </trkpt>
      <trkpt lat="35.972026290" lon="-106.518010080">
        <ele>2578.100</ele>
        <time>2019-07-14T22:38:36Z</time>
      </trkpt>
      <trkpt lat="35.972000250" lon="-106.518055830">
        <ele>2578.800</ele>
        <time>2019-07-14T22:38:37Z</time>
      </trkpt>
      <trkpt lat="35.971972300" lon="-106.518101140">
        <ele>2580.300</ele>
        <time>2019-07-14T22:38:38Z</time>
      </trkpt>
      <trkpt lat="35.971946700" lon="-106.518141490">
        <ele>2580.200</ele>
        <time>2019-07-14T22:38:39Z</time>
      </trkpt>
      <trkpt lat="35.971923020" lon="-106.518177950">
        <ele>2579.600</ele>
        <time>2019-07-14T22:38:40Z</time>
      </trkpt>
      <trkpt lat="35.971901530" lon="-106.518214280">
        <ele>2579.700</ele>
        <time>2019-07-14T22:38:41Z</time>
      </trkpt>
      <trkpt lat="35.971882740" lon="-106.518253570">
        <ele>2578.800</ele>
        <time>2019-07-14T22:38:42Z</time>
      </trkpt>
      <trkpt lat="35.971866610" lon="-106.518294820">
        <ele>2578.100</ele>
        <time>2019-07-14T22:38:43Z</time>
      </trkpt>
      <trkpt lat="35.971843660" lon="-106.518364200">
        <ele>2578.900</ele>
        <time>2019-07-14T22:38:45Z</time>
      </trkpt>
      <trkpt lat="35.971824680" lon="-106.518439160">
        <ele>2578.900</ele>
        <time>2019-07-14T22:38:47Z</time>
      </trkpt>
      <trkpt lat="35.971816520" lon="-106.518522270">
        <ele>2578.500</ele>
        <time>2019-07-14T22:38:49Z</time>
      </trkpt>
      <trkpt lat="35.971813560" lon="-106.518572200">
        <ele>2578.900</ele>
        <time>2019-07-14T22:38:50Z</time>
      </trkpt>
      <trkpt lat="35.971811660" lon="-106.518623950">
        <ele>2579.200</ele>
        <time>2019-07-14T22:38:51Z</time>
      </trkpt>
      <trkpt lat="35.971820320" lon="-106.518674320">
        <ele>2579.700</ele>
        <time>2019-07-14T22:38:52Z</time>
      </trkpt>
      <trkpt lat="35.971821030" lon="-106.518745430">
        <ele>2579.400</ele>
        <time>2019-07-14T22:38:53Z</time>
      </trkpt>
      <trkpt lat="35.971826080" lon="-106.518818730">
        <ele>2578.500</ele>
        <time>2019-07-14T22:38:54Z</time>
      </trkpt>
      <trkpt lat="35.971832590" lon="-106.518887710">
        <ele>2578.500</ele>
        <time>2019-07-14T22:38:55Z</time>
      </trkpt>
      <trkpt lat="35.971849050" lon="-106.518953840">
        <ele>2577.800</ele>
        <time>2019-07-14T22:38:56Z</time>
      </trkpt>
      <trkpt lat="35.971858280" lon="-106.519030610">
        <ele>2577.800</ele>
        <time>2019-07-14T22:38:57Z</time>
      </trkpt>
      <trkpt lat="35.971861900" lon="-106.519110440">
        <ele>2577.900</ele>
        <time>2019-07-14T22:38:58Z</time>
      </trkpt>
      <trkpt lat="35.971849300" lon="-106.519199520">
        <ele>2578.700</ele>
        <time>2019-07-14T22:38:59Z</time>
      </trkpt>
      <trkpt lat="35.971859380" lon="-106.519275440">
        <ele>2579.700</ele>
        <time>2019-07-14T22:39:00Z</time>
      </trkpt>
      <trkpt lat="35.971878460" lon="-106.519358300">
        <ele>2578.400</ele>
        <time>2019-07-14T22:39:01Z</time>
      </trkpt>
      <trkpt lat="35.971913960" lon="-106.519437770">
        <ele>2577.900</ele>
        <time>2019-07-14T22:39:02Z</time>
      </trkpt>
      <trkpt lat="35.971958910" lon="-106.519504780">
        <ele>2577.500</ele>
        <time>2019-07-14T22:39:03Z</time>
      </trkpt>
      <trkpt lat="35.971991670" lon="-106.519573320">
        <ele>2578.500</ele>
        <time>2019-07-14T22:39:04Z</time>
      </trkpt>
      <trkpt lat="35.972036470" lon="-106.519648460">
        <ele>2578.700</ele>
        <time>2019-07-14T22:39:05Z</time>
      </trkpt>
      <trkpt lat="35.972105140" lon="-106.519700990">
        <ele>2579.200</ele>
        <time>2019-07-14T22:39:06Z</time>
      </trkpt>
      <trkpt lat="35.972158690" lon="-106.519778110">
        <ele>2579.200</ele>
        <time>2019-07-14T22:39:07Z</time>
      </trkpt>
      <trkpt lat="35.972212440" lon="-106.519855220">
        <ele>2579.700</ele>
        <time>2019-07-14T22:39:08Z</time>
      </trkpt>
      <trkpt lat="35.972280910" lon="-106.519923990">
        <ele>2578.800</ele>
        <time>2019-07-14T22:39:09Z</time>
      </trkpt>
      <trkpt lat="35.972330720" lon="-106.519993390">
        <ele>2580.500</ele>
        <time>2019-07-14T22:39:10Z</time>
      </trkpt>
      <trkpt lat="35.972370530" lon="-106.520061290">
        <ele>2580.500</ele>
        <time>2019-07-14T22:39:11Z</time>
      </trkpt>
      <trkpt lat="35.972396260" lon="-106.520120680">
        <ele>2581.000</ele>
        <time>2019-07-14T22:39:12Z</time>
      </trkpt>
      <trkpt lat="35.972438260" lon="-106.520172500">
        <ele>2580.200</ele>
        <time>2019-07-14T22:39:13Z</time>
      </trkpt>
      <trkpt lat="35.972479180" lon="-106.520231910">
        <ele>2579.700</ele>
        <time>2019-07-14T22:39:14Z</time>
      </trkpt>
      <trkpt lat="35.972514670" lon="-106.520281070">
        <ele>2579.000</ele>
        <time>2019-07-14T22:39:15Z</time>
      </trkpt>
      <trkpt lat="35.972550910" lon="-106.520334930">
        <ele>2578.800</ele>
        <time>2019-07-14T22:39:16Z</time>
      </trkpt>
      <trkpt lat="35.972587700" lon="-106.520404270">
        <ele>2579.400</ele>
        <time>2019-07-14T22:39:17Z</time>
      </trkpt>
      <trkpt lat="35.972626840" lon="-106.520468310">
        <ele>2580.300</ele>
        <time>2019-07-14T22:39:18Z</time>
      </trkpt>
      <trkpt lat="35.972669420" lon="-106.520541470">
        <ele>2579.700</ele>
        <time>2019-07-14T22:39:19Z</time>
      </trkpt>
      <trkpt lat="35.972708450" lon="-106.520620350">
        <ele>2580.600</ele>
        <time>2019-07-14T22:39:20Z</time>
      </trkpt>
      <trkpt lat="35.972745550" lon="-106.520700680">
        <ele>2580.300</ele>
        <time>2019-07-14T22:39:21Z</time>
      </trkpt>
      <trkpt lat="35.972784530" lon="-106.520776620">
        <ele>2580.100</ele>
        <time>2019-07-14T22:39:22Z</time>
      </trkpt>
      <trkpt lat="35.972823780" lon="-106.520852670">
        <ele>2579.800</ele>
        <time>2019-07-14T22:39:23Z</time>
      </trkpt>
      <trkpt lat="35.972853570" lon="-106.520931260">
        <ele>2579.800</ele>
        <time>2019-07-14T22:39:24Z</time>
      </trkpt>
      <trkpt lat="35.972884720" lon="-106.520994500">
        <ele>2581.000</ele>
        <time>2019-07-14T22:39:25Z</time>
      </trkpt>
      <trkpt lat="35.972897690" lon="-106.521069020">
        <ele>2580.600</ele>
        <time>2019-07-14T22:39:26Z</time>
      </trkpt>
      <trkpt lat="35.972927580" lon="-106.521132780">
        <ele>2580.900</ele>
        <time>2019-07-14T22:39:27Z</time>
      </trkpt>
      <trkpt lat="35.972948830" lon="-106.521190250">
        <ele>2581.400</ele>
        <time>2019-07-14T22:39:28Z</time>
      </trkpt>
      <trkpt lat="35.972971730" lon="-106.521234560">
        <ele>2581.500</ele>
        <time>2019-07-14T22:39:29Z</time>
      </trkpt>
      <trkpt lat="35.972995480" lon="-106.521279080">
        <ele>2581.100</ele>
        <time>2019-07-14T22:39:30Z</time>
      </trkpt>
      <trkpt lat="35.973018780" lon="-106.521364720">
        <ele>2582.000</ele>
        <time>2019-07-14T22:39:32Z</time>
      </trkpt>
      <trkpt lat="35.973042500" lon="-106.521401950">
        <ele>2581.500</ele>
        <time>2019-07-14T22:39:33Z</time>
      </trkpt>
      <trkpt lat="35.973066100" lon="-106.521439540">
        <ele>2581.100</ele>
        <time>2019-07-14T22:39:34Z</time>
      </trkpt>
      <trkpt lat="35.973103060" lon="-106.521499610">
        <ele>2581.800</ele>
        <time>2019-07-14T22:39:36Z</time>
      </trkpt>
      <trkpt lat="35.973145620" lon="-106.521564980">
        <ele>2582.100</ele>
        <time>2019-07-14T22:39:38Z</time>
      </trkpt>
      <trkpt lat="35.973178140" lon="-106.521613660">
        <ele>2582.300</ele>
        <time>2019-07-14T22:39:39Z</time>
      </trkpt>
      <trkpt lat="35.973204200" lon="-106.521664560">
        <ele>2583.000</ele>
        <time>2019-07-14T22:39:40Z</time>
      </trkpt>
      <trkpt lat="35.973238340" lon="-106.521708310">
        <ele>2584.200</ele>
        <time>2019-07-14T22:39:41Z</time>
      </trkpt>
      <trkpt lat="35.973279480" lon="-106.521757780">
        <ele>2584.200</ele>
        <time>2019-07-14T22:39:42Z</time>
      </trkpt>
      <trkpt lat="35.973324190" lon="-106.521806410">
        <ele>2584.500</ele>
        <time>2019-07-14T22:39:43Z</time>
      </trkpt>
      <trkpt lat="35.973368880" lon="-106.521851950">
        <ele>2584.700</ele>
        <time>2019-07-14T22:39:44Z</time>
      </trkpt>
      <trkpt lat="35.973424910" lon="-106.521899160">
        <ele>2583.400</ele>
        <time>2019-07-14T22:39:45Z</time>
      </trkpt>
      <trkpt lat="35.973481170" lon="-106.521945190">
        <ele>2582.900</ele>
        <time>2019-07-14T22:39:46Z</time>
      </trkpt>
      <trkpt lat="35.973537070" lon="-106.521983170">
        <ele>2582.200</ele>
        <time>2019-07-14T22:39:47Z</time>
      </trkpt>
      <trkpt lat="35.973595420" lon="-106.522022420">
        <ele>2582.000</ele>
        <time>2019-07-14T22:39:48Z</time>
      </trkpt>
      <trkpt lat="35.973644580" lon="-106.522057870">
        <ele>2581.400</ele>
        <time>2019-07-14T22:39:49Z</time>
      </trkpt>
      <trkpt lat="35.973688220" lon="-106.522088750">
        <ele>2581.800</ele>
        <time>2019-07-14T22:39:50Z</time>
      </trkpt>
      <trkpt lat="35.973732610" lon="-106.522119140">
        <ele>2581.700</ele>
        <time>2019-07-14T22:39:51Z</time>
      </trkpt>
      <trkpt lat="35.973778710" lon="-106.522142460">
        <ele>2581.800</ele>
        <time>2019-07-14T22:39:52Z</time>
      </trkpt>
      <trkpt lat="35.973825970" lon="-106.522175070">
        <ele>2582.100</ele>
        <time>2019-07-14T22:39:53Z</time>
      </trkpt>
      <trkpt lat="35.973881800" lon="-106.522210360">
        <ele>2581.800</ele>
        <time>2019-07-14T22:39:54Z</time>
      </trkpt>
      <trkpt lat="35.973924210" lon="-106.522237990">
        <ele>2581.800</ele>
        <time>2019-07-14T22:39:55Z</time>
      </trkpt>
      <trkpt lat="35.973966220" lon="-106.522277330">
        <ele>2581.800</ele>
        <time>2019-07-14T22:39:56Z</time>
      </trkpt>
      <trkpt lat="35.974018570" lon="-106.522319550">
        <ele>2581.100</ele>
        <time>2019-07-14T22:39:57Z</time>
      </trkpt>
      <trkpt lat="35.974072490" lon="-106.522356780">
        <ele>2581.200</ele>
        <time>2019-07-14T22:39:58Z</time>
      </trkpt>
      <trkpt lat="35.974125230" lon="-106.522395840">
        <ele>2581.600</ele>
        <time>2019-07-14T22:39:59Z</time>
      </trkpt>
      <trkpt lat="35.974184930" lon="-106.522441300">
        <ele>2581.600</ele>
        <time>2019-07-14T22:40:00Z</time>
      </trkpt>
      <trkpt lat="35.974236960" lon="-106.522483870">
        <ele>2581.900</ele>
        <time>2019-07-14T22:40:01Z</time>
      </trkpt>
      <trkpt lat="35.974292520" lon="-106.522524390">
        <ele>2581.300</ele>
        <time>2019-07-14T22:40:02Z</time>
      </trkpt>
      <trkpt lat="35.974344620" lon="-106.522566330">
        <ele>2581.600</ele>
        <time>2019-07-14T22:40:03Z</time>
      </trkpt>
      <trkpt lat="35.974396680" lon="-106.522611590">
        <ele>2582.300</ele>
        <time>2019-07-14T22:40:04Z</time>
      </trkpt>
      <trkpt lat="35.974450210" lon="-106.522655940">
        <ele>2582.200</ele>
        <time>2019-07-14T22:40:05Z</time>
      </trkpt>
      <trkpt lat="35.974498480" lon="-106.522691000">
        <ele>2581.900</ele>
        <time>2019-07-14T22:40:06Z</time>
      </trkpt>
      <trkpt lat="35.974547480" lon="-106.522731580">
        <ele>2582.400</ele>
        <time>2019-07-14T22:40:07Z</time>
      </trkpt>
      <trkpt lat="35.974589180" lon="-106.522766800">
        <ele>2582.800</ele>
        <time>2019-07-14T22:40:08Z</time>
      </trkpt>
      <trkpt lat="35.974631240" lon="-106.522810900">
        <ele>2582.400</ele>
        <time>2019-07-14T22:40:09Z</time>
      </trkpt>
      <trkpt lat="35.974663560" lon="-106.522849000">
        <ele>2581.900</ele>
        <time>2019-07-14T22:40:10Z</time>
      </trkpt>
      <trkpt lat="35.974724040" lon="-106.522913980">
        <ele>2581.800</ele>
        <time>2019-07-14T22:40:12Z</time>
      </trkpt>
      <trkpt lat="35.974750630" lon="-106.522954640">
        <ele>2581.500</ele>
        <time>2019-07-14T22:40:13Z</time>
      </trkpt>
      <trkpt lat="35.974774610" lon="-106.523000630">
        <ele>2581.500</ele>
        <time>2019-07-14T22:40:14Z</time>
      </trkpt>
      <trkpt lat="35.974797450" lon="-106.523055280">
        <ele>2581.600</ele>
        <time>2019-07-14T22:40:15Z</time>
      </trkpt>
      <trkpt lat="35.974826290" lon="-106.523133850">
        <ele>2581.500</ele>
        <time>2019-07-14T22:40:16Z</time>
      </trkpt>
      <trkpt lat="35.974857500" lon="-106.523196890">
        <ele>2581.200</ele>
        <time>2019-07-14T22:40:17Z</time>
      </trkpt>
      <trkpt lat="35.974889930" lon="-106.523285220">
        <ele>2580.600</ele>
        <time>2019-07-14T22:40:18Z</time>
      </trkpt>
      <trkpt lat="35.974924210" lon="-106.523379890">
        <ele>2580.100</ele>
        <time>2019-07-14T22:40:19Z</time>
      </trkpt>
      <trkpt lat="35.974956850" lon="-106.523478090">
        <ele>2579.700</ele>
        <time>2019-07-14T22:40:20Z</time>
      </trkpt>
      <trkpt lat="35.974982420" lon="-106.523575210">
        <ele>2579.500</ele>
        <time>2019-07-14T22:40:21Z</time>
      </trkpt>
      <trkpt lat="35.974998990" lon="-106.523676330">
        <ele>2579.300</ele>
        <time>2019-07-14T22:40:22Z</time>
      </trkpt>
      <trkpt lat="35.974998750" lon="-106.523781690">
        <ele>2578.600</ele>
        <time>2019-07-14T22:40:23Z</time>
      </trkpt>
      <trkpt lat="35.974998410" lon="-106.523881310">
        <ele>2578.300</ele>
        <time>2019-07-14T22:40:24Z</time>
      </trkpt>
      <trkpt lat="35.974985130" lon="-106.523971890">
        <ele>2577.900</ele>
        <time>2019-07-14T22:40:25Z</time>
      </trkpt>
      <trkpt lat="35.974955740" lon="-106.524070390">
        <ele>2578.400</ele>
        <time>2019-07-14T22:40:26Z</time>
      </trkpt>
      <trkpt lat="35.974923660" lon="-106.524161330">
        <ele>2578.500</ele>
        <time>2019-07-14T22:40:27Z</time>
      </trkpt>
      <trkpt lat="35.974868280" lon="-106.524239600">
        <ele>2577.900</ele>
        <time>2019-07-14T22:40:28Z</time>
      </trkpt>
      <trkpt lat="35.974818670" lon="-106.524325550">
        <ele>2577.200</ele>
        <time>2019-07-14T22:40:29Z</time>
      </trkpt>
      <trkpt lat="35.974771350" lon="-106.524406800">
        <ele>2577.300</ele>
        <time>2019-07-14T22:40:30Z</time>
      </trkpt>
      <trkpt lat="35.974723630" lon="-106.524484180">
        <ele>2577.100</ele>
        <time>2019-07-14T22:40:31Z</time>
      </trkpt>
      <trkpt lat="35.974659380" lon="-106.524570070">
        <ele>2577.100</ele>
        <time>2019-07-14T22:40:32Z</time>
      </trkpt>
      <trkpt lat="35.974595830" lon="-106.524642960">
        <ele>2577.400</ele>
        <time>2019-07-14T22:40:33Z</time>
      </trkpt>
      <trkpt lat="35.974534340" lon="-106.524712950">
        <ele>2577.500</ele>
        <time>2019-07-14T22:40:34Z</time>
      </trkpt>
      <trkpt lat="35.974467390" lon="-106.524784090">
        <ele>2577.600</ele>
        <time>2019-07-14T22:40:35Z</time>
      </trkpt>
      <trkpt lat="35.974407110" lon="-106.524856820">
        <ele>2578.700</ele>
        <time>2019-07-14T22:40:36Z</time>
      </trkpt>
      <trkpt lat="35.974351700" lon="-106.524923220">
        <ele>2579.000</ele>
        <time>2019-07-14T22:40:37Z</time>
      </trkpt>
      <trkpt lat="35.974304420" lon="-106.525003290">
        <ele>2578.900</ele>
        <time>2019-07-14T22:40:38Z</time>
      </trkpt>
      <trkpt lat="35.974271980" lon="-106.525097120">
        <ele>2578.200</ele>
        <time>2019-07-14T22:40:39Z</time>
      </trkpt>
      <trkpt lat="35.974229160" lon="-106.525199190">
        <ele>2578.100</ele>
        <time>2019-07-14T22:40:40Z</time>
      </trkpt>
      <trkpt lat="35.974198260" lon="-106.525297020">
        <ele>2578.200</ele>
        <time>2019-07-14T22:40:41Z</time>
      </trkpt>
      <trkpt lat="35.974187830" lon="-106.525403070">
        <ele>2577.700</ele>
        <time>2019-07-14T22:40:42Z</time>
      </trkpt>
      <trkpt lat="35.974168560" lon="-106.525510260">
        <ele>2577.100</ele>
        <time>2019-07-14T22:40:43Z</time>
      </trkpt>
      <trkpt lat="35.974160870" lon="-106.525620370">
        <ele>2577.200</ele>
        <time>2019-07-14T22:40:44Z</time>
      </trkpt>
      <trkpt lat="35.974149960" lon="-106.525706020">
        <ele>2577.200</ele>
        <time>2019-07-14T22:40:45Z</time>
      </trkpt>
      <trkpt lat="35.974138410" lon="-106.525785040">
        <ele>2576.800</ele>
        <time>2019-07-14T22:40:46Z</time>
      </trkpt>
      <trkpt lat="35.974133800" lon="-106.525847820">
        <ele>2577.100</ele>
        <time>2019-07-14T22:40:47Z</time>
      </trkpt>
      <trkpt lat="35.974113810" lon="-106.525921310">
        <ele>2577.200</ele>
        <time>2019-07-14T22:40:48Z</time>
      </trkpt>
      <trkpt lat="35.974102760" lon="-106.525996040">
        <ele>2577.300</ele>
        <time>2019-07-14T22:40:49Z</time>
      </trkpt>
      <trkpt lat="35.974108760" lon="-106.526054650">
        <ele>2576.400</ele>
        <time>2019-07-14T22:40:50Z</time>
      </trkpt>
      <trkpt lat="35.974105770" lon="-106.526139110">
        <ele>2576.100</ele>
        <time>2019-07-14T22:40:51Z</time>
      </trkpt>
      <trkpt lat="35.974104660" lon="-106.526235570">
        <ele>2576.200</ele>
        <time>2019-07-14T22:40:52Z</time>
      </trkpt>
      <trkpt lat="35.974109500" lon="-106.526324240">
        <ele>2576.400</ele>
        <time>2019-07-14T22:40:53Z</time>
      </trkpt>
      <trkpt lat="35.974120940" lon="-106.526422600">
        <ele>2577.100</ele>
        <time>2019-07-14T22:40:54Z</time>
      </trkpt>
      <trkpt lat="35.974125620" lon="-106.526524720">
        <ele>2577.400</ele>
        <time>2019-07-14T22:40:55Z</time>
      </trkpt>
      <trkpt lat="35.974133260" lon="-106.526632130">
        <ele>2578.100</ele>
        <time>2019-07-14T22:40:56Z</time>
      </trkpt>
      <trkpt lat="35.974151890" lon="-106.526741870">
        <ele>2577.800</ele>
        <time>2019-07-14T22:40:57Z</time>
      </trkpt>
      <trkpt lat="35.974171820" lon="-106.526846330">
        <ele>2577.600</ele>
        <time>2019-07-14T22:40:58Z</time>
      </trkpt>
      <trkpt lat="35.974199360" lon="-106.526942210">
        <ele>2577.400</ele>
        <time>2019-07-14T22:40:59Z</time>
      </trkpt>
      <trkpt lat="35.974208250" lon="-106.527043930">
        <ele>2577.000</ele>
        <time>2019-07-14T22:41:00Z</time>
      </trkpt>
      <trkpt lat="35.974229090" lon="-106.527153390">
        <ele>2577.400</ele>
        <time>2019-07-14T22:41:01Z</time>
      </trkpt>
      <trkpt lat="35.974239510" lon="-106.527254970">
        <ele>2577.600</ele>
        <time>2019-07-14T22:41:02Z</time>
      </trkpt>
      <trkpt lat="35.974259470" lon="-106.527352260">
        <ele>2578.400</ele>
        <time>2019-07-14T22:41:03Z</time>
      </trkpt>
      <trkpt lat="35.974273730" lon="-106.527455840">
        <ele>2578.300</ele>
        <time>2019-07-14T22:41:04Z</time>
      </trkpt>
      <trkpt lat="35.974288000" lon="-106.527567110">
        <ele>2578.300</ele>
        <time>2019-07-14T22:41:05Z</time>
      </trkpt>
      <trkpt lat="35.974303770" lon="-106.527690590">
        <ele>2577.500</ele>
        <time>2019-07-14T22:41:06Z</time>
      </trkpt>
      <trkpt lat="35.974304740" lon="-106.527805690">
        <ele>2576.500</ele>
        <time>2019-07-14T22:41:07Z</time>
      </trkpt>
      <trkpt lat="35.974318440" lon="-106.527915560">
        <ele>2577.000</ele>
        <time>2019-07-14T22:41:08Z</time>
      </trkpt>
      <trkpt lat="35.974318970" lon="-106.528046730">
        <ele>2577.500</ele>
        <time>2019-07-14T22:41:09Z</time>
      </trkpt>
      <trkpt lat="35.974310750" lon="-106.528159620">
        <ele>2577.000</ele>
        <time>2019-07-14T22:41:10Z</time>
      </trkpt>
      <trkpt lat="35.974310070" lon="-106.528275300">
        <ele>2577.200</ele>
        <time>2019-07-14T22:41:11Z</time>
      </trkpt>
      <trkpt lat="35.974297470" lon="-106.528398770">
        <ele>2577.400</ele>
        <time>2019-07-14T22:41:12Z</time>
      </trkpt>
      <trkpt lat="35.974294540" lon="-106.528517510">
        <ele>2577.400</ele>
        <time>2019-07-14T22:41:13Z</time>
      </trkpt>
      <trkpt lat="35.974290340" lon="-106.528617840">
        <ele>2576.700</ele>
        <time>2019-07-14T22:41:14Z</time>
      </trkpt>
      <trkpt lat="35.974289210" lon="-106.528732370">
        <ele>2577.300</ele>
        <time>2019-07-14T22:41:15Z</time>
      </trkpt>
      <trkpt lat="35.974272800" lon="-106.528853160">
        <ele>2577.800</ele>
        <time>2019-07-14T22:41:16Z</time>
      </trkpt>
      <trkpt lat="35.974266500" lon="-106.528973440">
        <ele>2578.500</ele>
        <time>2019-07-14T22:41:17Z</time>
      </trkpt>
      <trkpt lat="35.974255430" lon="-106.529087460">
        <ele>2578.100</ele>
        <time>2019-07-14T22:41:18Z</time>
      </trkpt>
      <trkpt lat="35.974247430" lon="-106.529195470">
        <ele>2577.900</ele>
        <time>2019-07-14T22:41:19Z</time>
      </trkpt>
      <trkpt lat="35.974235910" lon="-106.529312420">
        <ele>2577.400</ele>
        <time>2019-07-14T22:41:20Z</time>
      </trkpt>
      <trkpt lat="35.974223710" lon="-106.529419970">
        <ele>2578.300</ele>
        <time>2019-07-14T22:41:21Z</time>
      </trkpt>
      <trkpt lat="35.974212860" lon="-106.529536510">
        <ele>2579.000</ele>
        <time>2019-07-14T22:41:22Z</time>
      </trkpt>
      <trkpt lat="35.974192410" lon="-106.529662060">
        <ele>2579.400</ele>
        <time>2019-07-14T22:41:23Z</time>
      </trkpt>
      <trkpt lat="35.974187170" lon="-106.529776520">
        <ele>2579.300</ele>
        <time>2019-07-14T22:41:24Z</time>
      </trkpt>
      <trkpt lat="35.974176180" lon="-106.529888480">
        <ele>2579.700</ele>
        <time>2019-07-14T22:41:25Z</time>
      </trkpt>
      <trkpt lat="35.974170750" lon="-106.529993470">
        <ele>2579.100</ele>
        <time>2019-07-14T22:41:26Z</time>
      </trkpt>
      <trkpt lat="35.974150300" lon="-106.530095130">
        <ele>2580.200</ele>
        <time>2019-07-14T22:41:27Z</time>
      </trkpt>
      <trkpt lat="35.974133030" lon="-106.530191980">
        <ele>2581.000</ele>
        <time>2019-07-14T22:41:28Z</time>
      </trkpt>
      <trkpt lat="35.974120500" lon="-106.530278510">
        <ele>2580.000</ele>
        <time>2019-07-14T22:41:29Z</time>
      </trkpt>
      <trkpt lat="35.974107730" lon="-106.530379120">
        <ele>2580.400</ele>
        <time>2019-07-14T22:41:31Z</time>
      </trkpt>
      <trkpt lat="35.974050520" lon="-106.530434950">
        <ele>2578.600</ele>
        <time>2019-07-14T22:41:33Z</time>
      </trkpt>
      <trkpt lat="35.974005470" lon="-106.530445780">
        <ele>2578.700</ele>
        <time>2019-07-14T22:41:35Z</time>
      </trkpt>
      <trkpt lat="35.973960900" lon="-106.530418290">
        <ele>2577.300</ele>
        <time>2019-07-14T22:41:37Z</time>
      </trkpt>
      <trkpt lat="35.973920830" lon="-106.530337580">
        <ele>2577.800</ele>
        <time>2019-07-14T22:41:39Z</time>
      </trkpt>
      <trkpt lat="35.973901400" lon="-106.530284540">
        <ele>2577.400</ele>
        <time>2019-07-14T22:41:40Z</time>
      </trkpt>
      <trkpt lat="35.973879310" lon="-106.530224830">
        <ele>2577.200</ele>
        <time>2019-07-14T22:41:41Z</time>
      </trkpt>
      <trkpt lat="35.973853600" lon="-106.530154040">
        <ele>2577.300</ele>
        <time>2019-07-14T22:41:42Z</time>
      </trkpt>
      <trkpt lat="35.973820320" lon="-106.530094310">
        <ele>2577.800</ele>
        <time>2019-07-14T22:41:43Z</time>
      </trkpt>
      <trkpt lat="35.973783210" lon="-106.530022170">
        <ele>2577.100</ele>
        <time>2019-07-14T22:41:44Z</time>
      </trkpt>
      <trkpt lat="35.973742610" lon="-106.529950020">
        <ele>2578.200</ele>
        <time>2019-07-14T22:41:45Z</time>
      </trkpt>
      <trkpt lat="35.973703660" lon="-106.529877720">
        <ele>2577.600</ele>
        <time>2019-07-14T22:41:46Z</time>
      </trkpt>
      <trkpt lat="35.973667900" lon="-106.529813260">
        <ele>2578.100</ele>
        <time>2019-07-14T22:41:47Z</time>
      </trkpt>
      <trkpt lat="35.973640180" lon="-106.529765020">
        <ele>2578.000</ele>
        <time>2019-07-14T22:41:48Z</time>
      </trkpt>
      <trkpt lat="35.973616380" lon="-106.529722460">
        <ele>2578.100</ele>
        <time>2019-07-14T22:41:49Z</time>
      </trkpt>
      <trkpt lat="35.973591950" lon="-106.529686100">
        <ele>2578.300</ele>
        <time>2019-07-14T22:41:51Z</time>
      </trkpt>
      <trkpt lat="35.973568450" lon="-106.529641140">
        <ele>2579.000</ele>
        <time>2019-07-14T22:42:18Z</time>
      </trkpt>
      <trkpt lat="35.973542360" lon="-106.529601180">
        <ele>2578.300</ele>
        <time>2019-07-14T22:42:20Z</time>
      </trkpt>
      <trkpt lat="35.973508740" lon="-106.529553970">
        <ele>2578.000</ele>
        <time>2019-07-14T22:42:22Z</time>
      </trkpt>
      <trkpt lat="35.973483100" lon="-106.529503350">
        <ele>2578.100</ele>
        <time>2019-07-14T22:42:24Z</time>
      </trkpt>
      <trkpt lat="35.973459160" lon="-106.529458380">
        <ele>2577.800</ele>
        <time>2019-07-14T22:42:26Z</time>
      </trkpt>
      <trkpt lat="35.973438190" lon="-106.529421650">
        <ele>2577.600</ele>
        <time>2019-07-14T22:42:28Z</time>
      </trkpt>
      <trkpt lat="35.973404650" lon="-106.529361280">
        <ele>2578.500</ele>
        <time>2019-07-14T22:42:30Z</time>
      </trkpt>
      <trkpt lat="35.973379220" lon="-106.529310510">
        <ele>2578.600</ele>
        <time>2019-07-14T22:42:31Z</time>
      </trkpt>
      <trkpt lat="35.973346690" lon="-106.529253040">
        <ele>2578.200</ele>
        <time>2019-07-14T22:42:32Z</time>
      </trkpt>
      <trkpt lat="35.973314780" lon="-106.529194660">
        <ele>2578.400</ele>
        <time>2019-07-14T22:42:33Z</time>
      </trkpt>
      <trkpt lat="35.973275730" lon="-106.529125040">
        <ele>2577.900</ele>
        <time>2019-07-14T22:42:34Z</time>
      </trkpt>
      <trkpt lat="35.973233040" lon="-106.529047390">
        <ele>2577.600</ele>
        <time>2019-07-14T22:42:35Z</time>
      </trkpt>
      <trkpt lat="35.973186460" lon="-106.528965150">
        <ele>2577.200</ele>
        <time>2019-07-14T22:42:36Z</time>
      </trkpt>
      <trkpt lat="35.973144540" lon="-106.528880810">
        <ele>2576.900</ele>
        <time>2019-07-14T22:42:37Z</time>
      </trkpt>
      <trkpt lat="35.973094450" lon="-106.528788670">
        <ele>2577.000</ele>
        <time>2019-07-14T22:42:38Z</time>
      </trkpt>
      <trkpt lat="35.973054390" lon="-106.528708690">
        <ele>2575.600</ele>
        <time>2019-07-14T22:42:39Z</time>
      </trkpt>
      <trkpt lat="35.973003420" lon="-106.528623580">
        <ele>2575.400</ele>
        <time>2019-07-14T22:42:40Z</time>
      </trkpt>
      <trkpt lat="35.972953420" lon="-106.528533320">
        <ele>2575.400</ele>
        <time>2019-07-14T22:42:41Z</time>
      </trkpt>
      <trkpt lat="35.972916870" lon="-106.528447740">
        <ele>2575.000</ele>
        <time>2019-07-14T22:42:42Z</time>
      </trkpt>
      <trkpt lat="35.972872770" lon="-106.528355180">
        <ele>2575.100</ele>
        <time>2019-07-14T22:42:43Z</time>
      </trkpt>
      <trkpt lat="35.972831300" lon="-106.528265500">
        <ele>2573.800</ele>
        <time>2019-07-14T22:42:44Z</time>
      </trkpt>
      <trkpt lat="35.972781920" lon="-106.528178910">
        <ele>2573.700</ele>
        <time>2019-07-14T22:42:45Z</time>
      </trkpt>
      <trkpt lat="35.972738350" lon="-106.528089620">
        <ele>2573.800</ele>
        <time>2019-07-14T22:42:46Z</time>
      </trkpt>
      <trkpt lat="35.972688640" lon="-106.527997360">
        <ele>2573.900</ele>
        <time>2019-07-14T22:42:47Z</time>
      </trkpt>
      <trkpt lat="35.972642850" lon="-106.527902660">
        <ele>2573.000</ele>
        <time>2019-07-14T22:42:48Z</time>
      </trkpt>
      <trkpt lat="35.972592240" lon="-106.527811000">
        <ele>2573.100</ele>
        <time>2019-07-14T22:42:49Z</time>
      </trkpt>
      <trkpt lat="35.972535680" lon="-106.527714810">
        <ele>2573.400</ele>
        <time>2019-07-14T22:42:50Z</time>
      </trkpt>
      <trkpt lat="35.972487160" lon="-106.527625310">
        <ele>2572.800</ele>
        <time>2019-07-14T22:42:51Z</time>
      </trkpt>
      <trkpt lat="35.972434480" lon="-106.527533460">
        <ele>2572.500</ele>
        <time>2019-07-14T22:42:52Z</time>
      </trkpt>
      <trkpt lat="35.972380880" lon="-106.527434260">
        <ele>2571.700</ele>
        <time>2019-07-14T22:42:53Z</time>
      </trkpt>
      <trkpt lat="35.972324910" lon="-106.527335080">
        <ele>2571.100</ele>
        <time>2019-07-14T22:42:54Z</time>
      </trkpt>
      <trkpt lat="35.972262410" lon="-106.527234950">
        <ele>2570.800</ele>
        <time>2019-07-14T22:42:55Z</time>
      </trkpt>
      <trkpt lat="35.972213310" lon="-106.527125050">
        <ele>2570.000</ele>
        <time>2019-07-14T22:42:56Z</time>
      </trkpt>
      <trkpt lat="35.972157110" lon="-106.527018550">
        <ele>2570.800</ele>
        <time>2019-07-14T22:42:57Z</time>
      </trkpt>
      <trkpt lat="35.972104280" lon="-106.526917860">
        <ele>2569.000</ele>
        <time>2019-07-14T22:42:58Z</time>
      </trkpt>
      <trkpt lat="35.972044500" lon="-106.526810960">
        <ele>2568.200</ele>
        <time>2019-07-14T22:42:59Z</time>
      </trkpt>
      <trkpt lat="35.971992450" lon="-106.526702860">
        <ele>2568.000</ele>
        <time>2019-07-14T22:43:00Z</time>
      </trkpt>
      <trkpt lat="35.971934340" lon="-106.526601790">
        <ele>2568.300</ele>
        <time>2019-07-14T22:43:01Z</time>
      </trkpt>
      <trkpt lat="35.971881910" lon="-106.526499160">
        <ele>2567.300</ele>
        <time>2019-07-14T22:43:02Z</time>
      </trkpt>
      <trkpt lat="35.971825690" lon="-106.526396490">
        <ele>2567.400</ele>
        <time>2019-07-14T22:43:03Z</time>
      </trkpt>
      <trkpt lat="35.971766700" lon="-106.526299290">
        <ele>2567.600</ele>
        <time>2019-07-14T22:43:04Z</time>
      </trkpt>
      <trkpt lat="35.971711790" lon="-106.526199210">
        <ele>2568.000</ele>
        <time>2019-07-14T22:43:05Z</time>
      </trkpt>
      <trkpt lat="35.971653220" lon="-106.526103050">
        <ele>2567.300</ele>
        <time>2019-07-14T22:43:06Z</time>
      </trkpt>
      <trkpt lat="35.971596770" lon="-106.526007750">
        <ele>2566.800</ele>
        <time>2019-07-14T22:43:07Z</time>
      </trkpt>
      <trkpt lat="35.971540750" lon="-106.525909790">
        <ele>2566.200</ele>
        <time>2019-07-14T22:43:08Z</time>
      </trkpt>
      <trkpt lat="35.971486550" lon="-106.525806590">
        <ele>2566.400</ele>
        <time>2019-07-14T22:43:09Z</time>
      </trkpt>
      <trkpt lat="35.971434770" lon="-106.525706130">
        <ele>2566.500</ele>
        <time>2019-07-14T22:43:10Z</time>
      </trkpt>
      <trkpt lat="35.971374550" lon="-106.525607780">
        <ele>2566.600</ele>
        <time>2019-07-14T22:43:11Z</time>
      </trkpt>
      <trkpt lat="35.971317250" lon="-106.525503870">
        <ele>2566.500</ele>
        <time>2019-07-14T22:43:12Z</time>
      </trkpt>
      <trkpt lat="35.971258420" lon="-106.525401410">
        <ele>2566.700</ele>
        <time>2019-07-14T22:43:13Z</time>
      </trkpt>
      <trkpt lat="35.971207380" lon="-106.525306560">
        <ele>2567.200</ele>
        <time>2019-07-14T22:43:14Z</time>
      </trkpt>
      <trkpt lat="35.971150370" lon="-106.525201390">
        <ele>2566.700</ele>
        <time>2019-07-14T22:43:15Z</time>
      </trkpt>
      <trkpt lat="35.971095760" lon="-106.525102060">
        <ele>2566.900</ele>
        <time>2019-07-14T22:43:16Z</time>
      </trkpt>
      <trkpt lat="35.971040140" lon="-106.525005160">
        <ele>2567.600</ele>
        <time>2019-07-14T22:43:17Z</time>
      </trkpt>
      <trkpt lat="35.970982720" lon="-106.524911550">
        <ele>2567.200</ele>
        <time>2019-07-14T22:43:18Z</time>
      </trkpt>
      <trkpt lat="35.970923350" lon="-106.524810810">
        <ele>2566.800</ele>
        <time>2019-07-14T22:43:19Z</time>
      </trkpt>
      <trkpt lat="35.970869890" lon="-106.524713440">
        <ele>2566.300</ele>
        <time>2019-07-14T22:43:20Z</time>
      </trkpt>
      <trkpt lat="35.970817160" lon="-106.524616170">
        <ele>2566.800</ele>
        <time>2019-07-14T22:43:21Z</time>
      </trkpt>
      <trkpt lat="35.970757720" lon="-106.524517130">
        <ele>2567.000</ele>
        <time>2019-07-14T22:43:22Z</time>
      </trkpt>
      <trkpt lat="35.970702170" lon="-106.524419070">
        <ele>2567.000</ele>
        <time>2019-07-14T22:43:23Z</time>
      </trkpt>
      <trkpt lat="35.970643430" lon="-106.524318360">
        <ele>2567.500</ele>
        <time>2019-07-14T22:43:24Z</time>
      </trkpt>
      <trkpt lat="35.970584040" lon="-106.524213320">
        <ele>2567.300</ele>
        <time>2019-07-14T22:43:25Z</time>
      </trkpt>
      <trkpt lat="35.970523160" lon="-106.524109310">
        <ele>2567.700</ele>
        <time>2019-07-14T22:43:26Z</time>
      </trkpt>
      <trkpt lat="35.970467410" lon="-106.524006690">
        <ele>2567.700</ele>
        <time>2019-07-14T22:43:27Z</time>
      </trkpt>
      <trkpt lat="35.970408140" lon="-106.523900120">
        <ele>2567.500</ele>
        <time>2019-07-14T22:43:28Z</time>
      </trkpt>
      <trkpt lat="35.970345460" lon="-106.523790990">
        <ele>2567.500</ele>
        <time>2019-07-14T22:43:29Z</time>
      </trkpt>
      <trkpt lat="35.970280810" lon="-106.523683250">
        <ele>2567.900</ele>
        <time>2019-07-14T22:43:30Z</time>
      </trkpt>
      <trkpt lat="35.970224330" lon="-106.523570630">
        <ele>2567.900</ele>
        <time>2019-07-14T22:43:31Z</time>
      </trkpt>
      <trkpt lat="35.970166540" lon="-106.523458410">
        <ele>2567.900</ele>
        <time>2019-07-14T22:43:32Z</time>
      </trkpt>
      <trkpt lat="35.970110180" lon="-106.523341450">
        <ele>2568.500</ele>
        <time>2019-07-14T22:43:33Z</time>
      </trkpt>
      <trkpt lat="35.970050890" lon="-106.523238640">
        <ele>2568.600</ele>
        <time>2019-07-14T22:43:34Z</time>
      </trkpt>
      <trkpt lat="35.969991180" lon="-106.523136180">
        <ele>2568.400</ele>
        <time>2019-07-14T22:43:35Z</time>
      </trkpt>
      <trkpt lat="35.969930220" lon="-106.523024210">
        <ele>2568.600</ele>
        <time>2019-07-14T22:43:36Z</time>
      </trkpt>
      <trkpt lat="35.969867650" lon="-106.522919230">
        <ele>2568.300</ele>
        <time>2019-07-14T22:43:37Z</time>
      </trkpt>
      <trkpt lat="35.969802420" lon="-106.522809090">
        <ele>2568.600</ele>
        <time>2019-07-14T22:43:38Z</time>
      </trkpt>
      <trkpt lat="35.969742790" lon="-106.522697880">
        <ele>2569.600</ele>
        <time>2019-07-14T22:43:39Z</time>
      </trkpt>
      <trkpt lat="35.969686760" lon="-106.522586270">
        <ele>2570.200</ele>
        <time>2019-07-14T22:43:40Z</time>
      </trkpt>
      <trkpt lat="35.969630540" lon="-106.522477020">
        <ele>2570.200</ele>
        <time>2019-07-14T22:43:41Z</time>
      </trkpt>
      <trkpt lat="35.969568150" lon="-106.522361670">
        <ele>2570.000</ele>
        <time>2019-07-14T22:43:42Z</time>
      </trkpt>
      <trkpt lat="35.969500830" lon="-106.522247690">
        <ele>2569.800</ele>
        <time>2019-07-14T22:43:43Z</time>
      </trkpt>
      <trkpt lat="35.969443990" lon="-106.522143840">
        <ele>2569.800</ele>
        <time>2019-07-14T22:43:44Z</time>
      </trkpt>
      <trkpt lat="35.969385900" lon="-106.522029260">
        <ele>2569.800</ele>
        <time>2019-07-14T22:43:45Z</time>
      </trkpt>
      <trkpt lat="35.969323240" lon="-106.521911950">
        <ele>2569.300</ele>
        <time>2019-07-14T22:43:46Z</time>
      </trkpt>
      <trkpt lat="35.969257480" lon="-106.521806090">
        <ele>2569.500</ele>
        <time>2019-07-14T22:43:47Z</time>
      </trkpt>
      <trkpt lat="35.969196550" lon="-106.521700030">
        <ele>2569.700</ele>
        <time>2019-07-14T22:43:48Z</time>
      </trkpt>
      <trkpt lat="35.969144380" lon="-106.521584250">
        <ele>2569.900</ele>
        <time>2019-07-14T22:43:49Z</time>
      </trkpt>
      <trkpt lat="35.969082840" lon="-106.521469950">
        <ele>2570.100</ele>
        <time>2019-07-14T22:43:50Z</time>
      </trkpt>
      <trkpt lat="35.969023840" lon="-106.521360890">
        <ele>2571.000</ele>
        <time>2019-07-14T22:43:51Z</time>
      </trkpt>
      <trkpt lat="35.968963320" lon="-106.521248460">
        <ele>2570.500</ele>
        <time>2019-07-14T22:43:52Z</time>
      </trkpt>
      <trkpt lat="35.968906300" lon="-106.521136820">
        <ele>2570.900</ele>
        <time>2019-07-14T22:43:53Z</time>
      </trkpt>
      <trkpt lat="35.968846460" lon="-106.521025150">
        <ele>2571.400</ele>
        <time>2019-07-14T22:43:54Z</time>
      </trkpt>
      <trkpt lat="35.968791370" lon="-106.520911290">
        <ele>2571.800</ele>
        <time>2019-07-14T22:43:55Z</time>
      </trkpt>
      <trkpt lat="35.968761240" lon="-106.520803810">
        <ele>2568.800</ele>
        <time>2019-07-14T22:43:56Z</time>
      </trkpt>
      <trkpt lat="35.968697690" lon="-106.520690070">
        <ele>2568.700</ele>
        <time>2019-07-14T22:43:57Z</time>
      </trkpt>
      <trkpt lat="35.968633230" lon="-106.520578470">
        <ele>2568.800</ele>
        <time>2019-07-14T22:43:58Z</time>
      </trkpt>
      <trkpt lat="35.968566870" lon="-106.520460090">
        <ele>2568.800</ele>
        <time>2019-07-14T22:43:59Z</time>
      </trkpt>
      <trkpt lat="35.968504140" lon="-106.520348060">
        <ele>2569.100</ele>
        <time>2019-07-14T22:44:00Z</time>
      </trkpt>
      <trkpt lat="35.968446140" lon="-106.520234470">
        <ele>2569.100</ele>
        <time>2019-07-14T22:44:01Z</time>
      </trkpt>
      <trkpt lat="35.968382110" lon="-106.520121560">
        <ele>2569.400</ele>
        <time>2019-07-14T22:44:02Z</time>
      </trkpt>
      <trkpt lat="35.968320870" lon="-106.520009720">
        <ele>2570.200</ele>
        <time>2019-07-14T22:44:03Z</time>
      </trkpt>
      <trkpt lat="35.968259850" lon="-106.519896860">
        <ele>2570.600</ele>
        <time>2019-07-14T22:44:04Z</time>
      </trkpt>
      <trkpt lat="35.968191900" lon="-106.519786910">
        <ele>2571.900</ele>
        <time>2019-07-14T22:44:05Z</time>
      </trkpt>
      <trkpt lat="35.968124690" lon="-106.519686190">
        <ele>2573.100</ele>
        <time>2019-07-14T22:44:06Z</time>
      </trkpt>
      <trkpt lat="35.968071840" lon="-106.519584450">
        <ele>2573.600</ele>
        <time>2019-07-14T22:44:07Z</time>
      </trkpt>
      <trkpt lat="35.968016200" lon="-106.519478020">
        <ele>2573.600</ele>
        <time>2019-07-14T22:44:08Z</time>
      </trkpt>
      <trkpt lat="35.967954610" lon="-106.519370440">
        <ele>2573.600</ele>
        <time>2019-07-14T22:44:09Z</time>
      </trkpt>
      <trkpt lat="35.967894240" lon="-106.519262900">
        <ele>2574.000</ele>
        <time>2019-07-14T22:44:10Z</time>
      </trkpt>
      <trkpt lat="35.967830650" lon="-106.519150190">
        <ele>2575.100</ele>
        <time>2019-07-14T22:44:11Z</time>
      </trkpt>
      <trkpt lat="35.967773310" lon="-106.519043520">
        <ele>2574.100</ele>
        <time>2019-07-14T22:44:12Z</time>
      </trkpt>
      <trkpt lat="35.967707880" lon="-106.518932220">
        <ele>2573.700</ele>
        <time>2019-07-14T22:44:13Z</time>
      </trkpt>
      <trkpt lat="35.967646900" lon="-106.518815990">
        <ele>2573.900</ele>
        <time>2019-07-14T22:44:14Z</time>
      </trkpt>
      <trkpt lat="35.967578790" lon="-106.518704750">
        <ele>2574.000</ele>
        <time>2019-07-14T22:44:15Z</time>
      </trkpt>
      <trkpt lat="35.967520190" lon="-106.518584890">
        <ele>2573.700</ele>
        <time>2019-07-14T22:44:16Z</time>
      </trkpt>
      <trkpt lat="35.967445330" lon="-106.518471120">
        <ele>2575.100</ele>
        <time>2019-07-14T22:44:17Z</time>
      </trkpt>
      <trkpt lat="35.967381260" lon="-106.518359860">
        <ele>2575.100</ele>
        <time>2019-07-14T22:44:18Z</time>
      </trkpt>
      <trkpt lat="35.967319400" lon="-106.518249170">
        <ele>2575.100</ele>
        <time>2019-07-14T22:44:19Z</time>
      </trkpt>
      <trkpt lat="35.967255360" lon="-106.518141440">
        <ele>2575.000</ele>
        <time>2019-07-14T22:44:20Z</time>
      </trkpt>
      <trkpt lat="35.967191250" lon="-106.518029870">
        <ele>2575.100</ele>
        <time>2019-07-14T22:44:21Z</time>
      </trkpt>
      <trkpt lat="35.967133250" lon="-106.517926760">
        <ele>2574.600</ele>
        <time>2019-07-14T22:44:22Z</time>
      </trkpt>
      <trkpt lat="35.967081290" lon="-106.517818500">
        <ele>2573.900</ele>
        <time>2019-07-14T22:44:23Z</time>
      </trkpt>
      <trkpt lat="35.967019260" lon="-106.517711710">
        <ele>2573.400</ele>
        <time>2019-07-14T22:44:24Z</time>
      </trkpt>
      <trkpt lat="35.966949730" lon="-106.517617720">
        <ele>2573.900</ele>
        <time>2019-07-14T22:44:25Z</time>
      </trkpt>
      <trkpt lat="35.966883830" lon="-106.517515670">
        <ele>2574.400</ele>
        <time>2019-07-14T22:44:26Z</time>
      </trkpt>
      <trkpt lat="35.966815060" lon="-106.517414940">
        <ele>2574.500</ele>
        <time>2019-07-14T22:44:27Z</time>
      </trkpt>
      <trkpt lat="35.966744480" lon="-106.517309690">
        <ele>2574.700</ele>
        <time>2019-07-14T22:44:28Z</time>
      </trkpt>
      <trkpt lat="35.966672850" lon="-106.517211110">
        <ele>2574.700</ele>
        <time>2019-07-14T22:44:29Z</time>
      </trkpt>
      <trkpt lat="35.966600250" lon="-106.517115520">
        <ele>2575.300</ele>
        <time>2019-07-14T22:44:30Z</time>
      </trkpt>
      <trkpt lat="35.966523140" lon="-106.517020030">
        <ele>2575.400</ele>
        <time>2019-07-14T22:44:31Z</time>
      </trkpt>
      <trkpt lat="35.966446760" lon="-106.516919990">
        <ele>2575.800</ele>
        <time>2019-07-14T22:44:32Z</time>
      </trkpt>
      <trkpt lat="35.966371450" lon="-106.516820530">
        <ele>2576.900</ele>
        <time>2019-07-14T22:44:33Z</time>
      </trkpt>
      <trkpt lat="35.966297300" lon="-106.516718600">
        <ele>2576.500</ele>
        <time>2019-07-14T22:44:34Z</time>
      </trkpt>
      <trkpt lat="35.966216870" lon="-106.516625690">
        <ele>2576.700</ele>
        <time>2019-07-14T22:44:35Z</time>
      </trkpt>
      <trkpt lat="35.966139770" lon="-106.516537010">
        <ele>2576.300</ele>
        <time>2019-07-14T22:44:36Z</time>
      </trkpt>
      <trkpt lat="35.966061780" lon="-106.516442160">
        <ele>2575.800</ele>
        <time>2019-07-14T22:44:37Z</time>
      </trkpt>
      <trkpt lat="35.965986590" lon="-106.516350440">
        <ele>2576.500</ele>
        <time>2019-07-14T22:44:38Z</time>
      </trkpt>
      <trkpt lat="35.965906330" lon="-106.516260110">
        <ele>2576.400</ele>
        <time>2019-07-14T22:44:39Z</time>
      </trkpt>
      <trkpt lat="35.965825250" lon="-106.516163880">
        <ele>2575.900</ele>
        <time>2019-07-14T22:44:40Z</time>
      </trkpt>
      <trkpt lat="35.965748660" lon="-106.516071100">
        <ele>2575.800</ele>
        <time>2019-07-14T22:44:41Z</time>
      </trkpt>
      <trkpt lat="35.965667620" lon="-106.515980760">
        <ele>2575.700</ele>
        <time>2019-07-14T22:44:42Z</time>
      </trkpt>
      <trkpt lat="35.965586830" lon="-106.515888440">
        <ele>2575.600</ele>
        <time>2019-07-14T22:44:43Z</time>
      </trkpt>
      <trkpt lat="35.965513520" lon="-106.515809000">
        <ele>2575.800</ele>
        <time>2019-07-14T22:44:44Z</time>
      </trkpt>
      <trkpt lat="35.965439540" lon="-106.515720880">
        <ele>2576.700</ele>
        <time>2019-07-14T22:44:45Z</time>
      </trkpt>
      <trkpt lat="35.965359860" lon="-106.515627230">
        <ele>2576.900</ele>
        <time>2019-07-14T22:44:46Z</time>
      </trkpt>
      <trkpt lat="35.965280320" lon="-106.515530300">
        <ele>2577.100</ele>
        <time>2019-07-14T22:44:47Z</time>
      </trkpt>
      <trkpt lat="35.965210300" lon="-106.515439860">
        <ele>2577.200</ele>
        <time>2019-07-14T22:44:48Z</time>
      </trkpt>
      <trkpt lat="35.965136140" lon="-106.515347930">
        <ele>2578.000</ele>
        <time>2019-07-14T22:44:49Z</time>
      </trkpt>
      <trkpt lat="35.965067770" lon="-106.515259620">
        <ele>2578.600</ele>
        <time>2019-07-14T22:44:50Z</time>
      </trkpt>
      <trkpt lat="35.964983890" lon="-106.515183530">
        <ele>2577.600</ele>
        <time>2019-07-14T22:44:51Z</time>
      </trkpt>
      <trkpt lat="35.964898870" lon="-106.515111090">
        <ele>2578.000</ele>
        <time>2019-07-14T22:44:52Z</time>
      </trkpt>
      <trkpt lat="35.964811890" lon="-106.515050690">
        <ele>2578.200</ele>
        <time>2019-07-14T22:44:53Z</time>
      </trkpt>
      <trkpt lat="35.964722510" lon="-106.514981740">
        <ele>2576.800</ele>
        <time>2019-07-14T22:44:54Z</time>
      </trkpt>
      <trkpt lat="35.964633610" lon="-106.514920160">
        <ele>2576.400</ele>
        <time>2019-07-14T22:44:55Z</time>
      </trkpt>
      <trkpt lat="35.964540060" lon="-106.514883640">
        <ele>2575.700</ele>
        <time>2019-07-14T22:44:56Z</time>
      </trkpt>
      <trkpt lat="35.964447510" lon="-106.514833360">
        <ele>2574.900</ele>
        <time>2019-07-14T22:44:57Z</time>
      </trkpt>
      <trkpt lat="35.964355350" lon="-106.514788210">
        <ele>2574.900</ele>
        <time>2019-07-14T22:44:58Z</time>
      </trkpt>
      <trkpt lat="35.964263510" lon="-106.514740930">
        <ele>2575.400</ele>
        <time>2019-07-14T22:44:59Z</time>
      </trkpt>
      <trkpt lat="35.964167630" lon="-106.514686390">
        <ele>2575.400</ele>
        <time>2019-07-14T22:45:00Z</time>
      </trkpt>
      <trkpt lat="35.964070620" lon="-106.514640400">
        <ele>2575.800</ele>
        <time>2019-07-14T22:45:01Z</time>
      </trkpt>
      <trkpt lat="35.963974770" lon="-106.514586440">
        <ele>2575.600</ele>
        <time>2019-07-14T22:45:02Z</time>
      </trkpt>
      <trkpt lat="35.963880690" lon="-106.514535580">
        <ele>2575.900</ele>
        <time>2019-07-14T22:45:03Z</time>
      </trkpt>
      <trkpt lat="35.963792610" lon="-106.514494540">
        <ele>2575.800</ele>
        <time>2019-07-14T22:45:04Z</time>
      </trkpt>
      <trkpt lat="35.963697940" lon="-106.514449720">
        <ele>2576.200</ele>
        <time>2019-07-14T22:45:05Z</time>
      </trkpt>
      <trkpt lat="35.963600890" lon="-106.514406940">
        <ele>2576.100</ele>
        <time>2019-07-14T22:45:06Z</time>
      </trkpt>
      <trkpt lat="35.963502260" lon="-106.514370870">
        <ele>2576.200</ele>
        <time>2019-07-14T22:45:07Z</time>
      </trkpt>
      <trkpt lat="35.963402920" lon="-106.514335140">
        <ele>2576.000</ele>
        <time>2019-07-14T22:45:08Z</time>
      </trkpt>
      <trkpt lat="35.963299560" lon="-106.514309430">
        <ele>2575.600</ele>
        <time>2019-07-14T22:45:09Z</time>
      </trkpt>
      <trkpt lat="35.963201200" lon="-106.514269310">
        <ele>2575.800</ele>
        <time>2019-07-14T22:45:10Z</time>
      </trkpt>
      <trkpt lat="35.963106870" lon="-106.514249200">
        <ele>2574.700</ele>
        <time>2019-07-14T22:45:11Z</time>
      </trkpt>
      <trkpt lat="35.963003820" lon="-106.514236040">
        <ele>2573.000</ele>
        <time>2019-07-14T22:45:12Z</time>
      </trkpt>
      <trkpt lat="35.962904490" lon="-106.514201570">
        <ele>2573.500</ele>
        <time>2019-07-14T22:45:13Z</time>
      </trkpt>
      <trkpt lat="35.962806850" lon="-106.514180240">
        <ele>2573.500</ele>
        <time>2019-07-14T22:45:14Z</time>
      </trkpt>
      <trkpt lat="35.962712460" lon="-106.514164190">
        <ele>2574.000</ele>
        <time>2019-07-14T22:45:15Z</time>
      </trkpt>
      <trkpt lat="35.962616670" lon="-106.514183670">
        <ele>2573.100</ele>
        <time>2019-07-14T22:45:16Z</time>
      </trkpt>
      <trkpt lat="35.962535000" lon="-106.514181630">
        <ele>2573.600</ele>
        <time>2019-07-14T22:45:17Z</time>
      </trkpt>
      <trkpt lat="35.962470140" lon="-106.514217570">
        <ele>2572.400</ele>
        <time>2019-07-14T22:45:18Z</time>
      </trkpt>
      <trkpt lat="35.962425920" lon="-106.514246650">
        <ele>2573.000</ele>
        <time>2019-07-14T22:45:19Z</time>
      </trkpt>
      <trkpt lat="35.962374530" lon="-106.514272880">
        <ele>2573.300</ele>
        <time>2019-07-14T22:45:21Z</time>
      </trkpt>
      <trkpt lat="35.962340590" lon="-106.514291350">
        <ele>2572.600</ele>
        <time>2019-07-14T22:45:24Z</time>
      </trkpt>
      <trkpt lat="35.962282120" lon="-106.514331740">
        <ele>2572.300</ele>
        <time>2019-07-14T22:45:27Z</time>
      </trkpt>
      <trkpt lat="35.962245230" lon="-106.514359000">
        <ele>2572.500</ele>
        <time>2019-07-14T22:45:28Z</time>
      </trkpt>
      <trkpt lat="35.962210310" lon="-106.514392630">
        <ele>2572.900</ele>
        <time>2019-07-14T22:45:29Z</time>
      </trkpt>
      <trkpt lat="35.962168810" lon="-106.514427560">
        <ele>2572.800</ele>
        <time>2019-07-14T22:45:30Z</time>
      </trkpt>
      <trkpt lat="35.962132310" lon="-106.514467280">
        <ele>2573.200</ele>
        <time>2019-07-14T22:45:31Z</time>
      </trkpt>
      <trkpt lat="35.962087700" lon="-106.514512530">
        <ele>2573.400</ele>
        <time>2019-07-14T22:45:32Z</time>
      </trkpt>
      <trkpt lat="35.962034160" lon="-106.514561640">
        <ele>2573.600</ele>
        <time>2019-07-14T22:45:33Z</time>
      </trkpt>
      <trkpt lat="35.961977710" lon="-106.514609900">
        <ele>2573.300</ele>
        <time>2019-07-14T22:45:34Z</time>
      </trkpt>
      <trkpt lat="35.961927050" lon="-106.514665710">
        <ele>2572.100</ele>
        <time>2019-07-14T22:45:35Z</time>
      </trkpt>
      <trkpt lat="35.961869230" lon="-106.514720800">
        <ele>2571.700</ele>
        <time>2019-07-14T22:45:36Z</time>
      </trkpt>
      <trkpt lat="35.961812260" lon="-106.514772540">
        <ele>2571.500</ele>
        <time>2019-07-14T22:45:37Z</time>
      </trkpt>
      <trkpt lat="35.961750410" lon="-106.514834680">
        <ele>2572.000</ele>
        <time>2019-07-14T22:45:38Z</time>
      </trkpt>
      <trkpt lat="35.961683270" lon="-106.514893870">
        <ele>2572.800</ele>
        <time>2019-07-14T22:45:39Z</time>
      </trkpt>
      <trkpt lat="35.961620730" lon="-106.514956360">
        <ele>2572.700</ele>
        <time>2019-07-14T22:45:40Z</time>
      </trkpt>
      <trkpt lat="35.961553210" lon="-106.515023920">
        <ele>2572.200</ele>
        <time>2019-07-14T22:45:41Z</time>
      </trkpt>
      <trkpt lat="35.961481830" lon="-106.515095750">
        <ele>2572.100</ele>
        <time>2019-07-14T22:45:42Z</time>
      </trkpt>
      <trkpt lat="35.961417330" lon="-106.515170260">
        <ele>2572.400</ele>
        <time>2019-07-14T22:45:43Z</time>
      </trkpt>
      <trkpt lat="35.961335490" lon="-106.515248590">
        <ele>2571.300</ele>
        <time>2019-07-14T22:45:44Z</time>
      </trkpt>
      <trkpt lat="35.961268740" lon="-106.515318220">
        <ele>2571.200</ele>
        <time>2019-07-14T22:45:45Z</time>
      </trkpt>
      <trkpt lat="35.961198840" lon="-106.515400300">
        <ele>2572.100</ele>
        <time>2019-07-14T22:45:46Z</time>
      </trkpt>
      <trkpt lat="35.961131030" lon="-106.515482300">
        <ele>2572.400</ele>
        <time>2019-07-14T22:45:47Z</time>
      </trkpt>
      <trkpt lat="35.961070330" lon="-106.515559680">
        <ele>2573.200</ele>
        <time>2019-07-14T22:45:48Z</time>
      </trkpt>
      <trkpt lat="35.961006230" lon="-106.515639070">
        <ele>2573.600</ele>
        <time>2019-07-14T22:45:49Z</time>
      </trkpt>
      <trkpt lat="35.960942390" lon="-106.515713040">
        <ele>2573.800</ele>
        <time>2019-07-14T22:45:50Z</time>
      </trkpt>
      <trkpt lat="35.960896310" lon="-106.515783660">
        <ele>2575.100</ele>
        <time>2019-07-14T22:45:51Z</time>
      </trkpt>
      <trkpt lat="35.960842800" lon="-106.515854360">
        <ele>2575.600</ele>
        <time>2019-07-14T22:45:52Z</time>
      </trkpt>
      <trkpt lat="35.960789810" lon="-106.515921570">
        <ele>2575.700</ele>
        <time>2019-07-14T22:45:53Z</time>
      </trkpt>
      <trkpt lat="35.960735600" lon="-106.515983580">
        <ele>2575.200</ele>
        <time>2019-07-14T22:45:54Z</time>
      </trkpt>
      <trkpt lat="35.960687150" lon="-106.516043610">
        <ele>2575.500</ele>
        <time>2019-07-14T22:45:55Z</time>
      </trkpt>
      <trkpt lat="35.960634720" lon="-106.516105270">
        <ele>2575.100</ele>
        <time>2019-07-14T22:45:56Z</time>
      </trkpt>
      <trkpt lat="35.960588730" lon="-106.516164710">
        <ele>2575.700</ele>
        <time>2019-07-14T22:45:57Z</time>
      </trkpt>
      <trkpt lat="35.960548480" lon="-106.516214910">
        <ele>2576.900</ele>
        <time>2019-07-14T22:45:58Z</time>
      </trkpt>
      <trkpt lat="35.960489750" lon="-106.516279300">
        <ele>2576.100</ele>
        <time>2019-07-14T22:45:59Z</time>
      </trkpt>
      <trkpt lat="35.960441980" lon="-106.516344410">
        <ele>2576.400</ele>
        <time>2019-07-14T22:46:00Z</time>
      </trkpt>
      <trkpt lat="35.960388120" lon="-106.516406650">
        <ele>2576.600</ele>
        <time>2019-07-14T22:46:01Z</time>
      </trkpt>
      <trkpt lat="35.960328610" lon="-106.516470900">
        <ele>2575.700</ele>
        <time>2019-07-14T22:46:02Z</time>
      </trkpt>
      <trkpt lat="35.960266040" lon="-106.516546000">
        <ele>2575.800</ele>
        <time>2019-07-14T22:46:03Z</time>
      </trkpt>
      <trkpt lat="35.960207020" lon="-106.516625350">
        <ele>2576.900</ele>
        <time>2019-07-14T22:46:04Z</time>
      </trkpt>
      <trkpt lat="35.960148940" lon="-106.516708980">
        <ele>2576.900</ele>
        <time>2019-07-14T22:46:05Z</time>
      </trkpt>
      <trkpt lat="35.960087290" lon="-106.516792060">
        <ele>2577.900</ele>
        <time>2019-07-14T22:46:06Z</time>
      </trkpt>
      <trkpt lat="35.960023140" lon="-106.516872460">
        <ele>2577.600</ele>
        <time>2019-07-14T22:46:07Z</time>
      </trkpt>
      <trkpt lat="35.959954520" lon="-106.516954870">
        <ele>2577.400</ele>
        <time>2019-07-14T22:46:08Z</time>
      </trkpt>
      <trkpt lat="35.959891350" lon="-106.517043070">
        <ele>2577.300</ele>
        <time>2019-07-14T22:46:09Z</time>
      </trkpt>
      <trkpt lat="35.959829970" lon="-106.517126360">
        <ele>2577.900</ele>
        <time>2019-07-14T22:46:10Z</time>
      </trkpt>
      <trkpt lat="35.959764480" lon="-106.517207710">
        <ele>2577.000</ele>
        <time>2019-07-14T22:46:11Z</time>
      </trkpt>
      <trkpt lat="35.959701910" lon="-106.517282900">
        <ele>2576.800</ele>
        <time>2019-07-14T22:46:12Z</time>
      </trkpt>
      <trkpt lat="35.959655940" lon="-106.517362240">
        <ele>2576.700</ele>
        <time>2019-07-14T22:46:13Z</time>
      </trkpt>
      <trkpt lat="35.959602980" lon="-106.517440830">
        <ele>2576.800</ele>
        <time>2019-07-14T22:46:14Z</time>
      </trkpt>
      <trkpt lat="35.959543620" lon="-106.517520730">
        <ele>2576.400</ele>
        <time>2019-07-14T22:46:15Z</time>
      </trkpt>
      <trkpt lat="35.959488940" lon="-106.517588500">
        <ele>2574.900</ele>
        <time>2019-07-14T22:46:16Z</time>
      </trkpt>
      <trkpt lat="35.959443660" lon="-106.517656440">
        <ele>2575.400</ele>
        <time>2019-07-14T22:46:17Z</time>
      </trkpt>
      <trkpt lat="35.959388150" lon="-106.517739700">
        <ele>2574.700</ele>
        <time>2019-07-14T22:46:18Z</time>
      </trkpt>
      <trkpt lat="35.959328580" lon="-106.517812930">
        <ele>2574.200</ele>
        <time>2019-07-14T22:46:19Z</time>
      </trkpt>
      <trkpt lat="35.959261600" lon="-106.517889910">
        <ele>2574.100</ele>
        <time>2019-07-14T22:46:20Z</time>
      </trkpt>
      <trkpt lat="35.959207530" lon="-106.517967480">
        <ele>2575.200</ele>
        <time>2019-07-14T22:46:21Z</time>
      </trkpt>
      <trkpt lat="35.959148740" lon="-106.518046390">
        <ele>2575.000</ele>
        <time>2019-07-14T22:46:22Z</time>
      </trkpt>
      <trkpt lat="35.959087770" lon="-106.518121600">
        <ele>2574.900</ele>
        <time>2019-07-14T22:46:23Z</time>
      </trkpt>
      <trkpt lat="35.959011470" lon="-106.518191800">
        <ele>2574.900</ele>
        <time>2019-07-14T22:46:24Z</time>
      </trkpt>
      <trkpt lat="35.958939900" lon="-106.518265230">
        <ele>2575.300</ele>
        <time>2019-07-14T22:46:25Z</time>
      </trkpt>
      <trkpt lat="35.958866140" lon="-106.518330230">
        <ele>2575.900</ele>
        <time>2019-07-14T22:46:26Z</time>
      </trkpt>
      <trkpt lat="35.958792340" lon="-106.518391580">
        <ele>2575.900</ele>
        <time>2019-07-14T22:46:27Z</time>
      </trkpt>
      <trkpt lat="35.958718340" lon="-106.518445300">
        <ele>2576.100</ele>
        <time>2019-07-14T22:46:28Z</time>
      </trkpt>
      <trkpt lat="35.958641660" lon="-106.518498440">
        <ele>2576.000</ele>
        <time>2019-07-14T22:46:29Z</time>
      </trkpt>
      <trkpt lat="35.958565120" lon="-106.518557080">
        <ele>2575.900</ele>
        <time>2019-07-14T22:46:30Z</time>
      </trkpt>
      <trkpt lat="35.958489360" lon="-106.518614410">
        <ele>2575.800</ele>
        <time>2019-07-14T22:46:31Z</time>
      </trkpt>
      <trkpt lat="35.958411790" lon="-106.518667700">
        <ele>2575.700</ele>
        <time>2019-07-14T22:46:32Z</time>
      </trkpt>
      <trkpt lat="35.958333770" lon="-106.518724910">
        <ele>2575.700</ele>
        <time>2019-07-14T22:46:33Z</time>
      </trkpt>
      <trkpt lat="35.958259250" lon="-106.518779770">
        <ele>2575.600</ele>
        <time>2019-07-14T22:46:34Z</time>
      </trkpt>
      <trkpt lat="35.958179560" lon="-106.518828880">
        <ele>2575.800</ele>
        <time>2019-07-14T22:46:35Z</time>
      </trkpt>
      <trkpt lat="35.958098150" lon="-106.518881980">
        <ele>2575.900</ele>
        <time>2019-07-14T22:46:36Z</time>
      </trkpt>
      <trkpt lat="35.958028900" lon="-106.518930640">
        <ele>2575.400</ele>
        <time>2019-07-14T22:46:37Z</time>
      </trkpt>
      <trkpt lat="35.957946130" lon="-106.518977780">
        <ele>2575.400</ele>
        <time>2019-07-14T22:46:38Z</time>
      </trkpt>
      <trkpt lat="35.957856590" lon="-106.519019230">
        <ele>2575.200</ele>
        <time>2019-07-14T22:46:39Z</time>
      </trkpt>
      <trkpt lat="35.957770510" lon="-106.519060650">
        <ele>2576.300</ele>
        <time>2019-07-14T22:46:40Z</time>
      </trkpt>
      <trkpt lat="35.957686510" lon="-106.519087040">
        <ele>2576.200</ele>
        <time>2019-07-14T22:46:41Z</time>
      </trkpt>
      <trkpt lat="35.957606850" lon="-106.519116880">
        <ele>2575.300</ele>
        <time>2019-07-14T22:46:42Z</time>
      </trkpt>
      <trkpt lat="35.957526310" lon="-106.519149810">
        <ele>2575.100</ele>
        <time>2019-07-14T22:46:43Z</time>
      </trkpt>
      <trkpt lat="35.957444590" lon="-106.519183250">
        <ele>2575.100</ele>
        <time>2019-07-14T22:46:44Z</time>
      </trkpt>
      <trkpt lat="35.957359550" lon="-106.519211960">
        <ele>2574.700</ele>
        <time>2019-07-14T22:46:45Z</time>
      </trkpt>
      <trkpt lat="35.957269810" lon="-106.519239610">
        <ele>2575.800</ele>
        <time>2019-07-14T22:46:46Z</time>
      </trkpt>
      <trkpt lat="35.957184400" lon="-106.519267320">
        <ele>2575.700</ele>
        <time>2019-07-14T22:46:47Z</time>
      </trkpt>
      <trkpt lat="35.957101580" lon="-106.519296960">
        <ele>2576.000</ele>
        <time>2019-07-14T22:46:48Z</time>
      </trkpt>
      <trkpt lat="35.957027640" lon="-106.519331550">
        <ele>2575.300</ele>
        <time>2019-07-14T22:46:49Z</time>
      </trkpt>
      <trkpt lat="35.956938410" lon="-106.519364730">
        <ele>2574.500</ele>
        <time>2019-07-14T22:46:50Z</time>
      </trkpt>
      <trkpt lat="35.956856420" lon="-106.519396510">
        <ele>2574.700</ele>
        <time>2019-07-14T22:46:51Z</time>
      </trkpt>
      <trkpt lat="35.956776500" lon="-106.519423440">
        <ele>2575.500</ele>
        <time>2019-07-14T22:46:52Z</time>
      </trkpt>
      <trkpt lat="35.956688040" lon="-106.519459500">
        <ele>2576.100</ele>
        <time>2019-07-14T22:46:53Z</time>
      </trkpt>
      <trkpt lat="35.956606720" lon="-106.519488870">
        <ele>2576.000</ele>
        <time>2019-07-14T22:46:54Z</time>
      </trkpt>
      <trkpt lat="35.956532400" lon="-106.519513310">
        <ele>2576.000</ele>
        <time>2019-07-14T22:46:55Z</time>
      </trkpt>
      <trkpt lat="35.956445550" lon="-106.519548630">
        <ele>2576.600</ele>
        <time>2019-07-14T22:46:56Z</time>
      </trkpt>
      <trkpt lat="35.956362530" lon="-106.519573340">
        <ele>2576.100</ele>
        <time>2019-07-14T22:46:57Z</time>
      </trkpt>
      <trkpt lat="35.956272670" lon="-106.519606890">
        <ele>2576.200</ele>
        <time>2019-07-14T22:46:58Z</time>
      </trkpt>
      <trkpt lat="35.956189850" lon="-106.519631960">
        <ele>2576.000</ele>
        <time>2019-07-14T22:46:59Z</time>
      </trkpt>
      <trkpt lat="35.956098890" lon="-106.519662590">
        <ele>2576.400</ele>
        <time>2019-07-14T22:47:00Z</time>
      </trkpt>
      <trkpt lat="35.956010830" lon="-106.519688600">
        <ele>2576.300</ele>
        <time>2019-07-14T22:47:01Z</time>
      </trkpt>
      <trkpt lat="35.955907160" lon="-106.519724180">
        <ele>2576.400</ele>
        <time>2019-07-14T22:47:02Z</time>
      </trkpt>
      <trkpt lat="35.955810000" lon="-106.519754200">
        <ele>2576.700</ele>
        <time>2019-07-14T22:47:03Z</time>
      </trkpt>
      <trkpt lat="35.955703510" lon="-106.519789510">
        <ele>2576.600</ele>
        <time>2019-07-14T22:47:04Z</time>
      </trkpt>
      <trkpt lat="35.955576400" lon="-106.519843740">
        <ele>2576.800</ele>
        <time>2019-07-14T22:47:05Z</time>
      </trkpt>
      <trkpt lat="35.955468510" lon="-106.519871430">
        <ele>2576.600</ele>
        <time>2019-07-14T22:47:06Z</time>
      </trkpt>
      <trkpt lat="35.955352680" lon="-106.519911810">
        <ele>2577.100</ele>
        <time>2019-07-14T22:47:07Z</time>
      </trkpt>
      <trkpt lat="35.955242560" lon="-106.519939630">
        <ele>2577.100</ele>
        <time>2019-07-14T22:47:08Z</time>
      </trkpt>
      <trkpt lat="35.955129920" lon="-106.519974340">
        <ele>2577.200</ele>
        <time>2019-07-14T22:47:09Z</time>
      </trkpt>
      <trkpt lat="35.955017290" lon="-106.520006570">
        <ele>2577.400</ele>
        <time>2019-07-14T22:47:10Z</time>
      </trkpt>
      <trkpt lat="35.954900570" lon="-106.520045600">
        <ele>2577.800</ele>
        <time>2019-07-14T22:47:11Z</time>
      </trkpt>
      <trkpt lat="35.954790690" lon="-106.520077550">
        <ele>2577.700</ele>
        <time>2019-07-14T22:47:12Z</time>
      </trkpt>
      <trkpt lat="35.954681910" lon="-106.520104630">
        <ele>2577.400</ele>
        <time>2019-07-14T22:47:13Z</time>
      </trkpt>
      <trkpt lat="35.954562540" lon="-106.520138900">
        <ele>2577.500</ele>
        <time>2019-07-14T22:47:14Z</time>
      </trkpt>
      <trkpt lat="35.954454140" lon="-106.520160340">
        <ele>2577.900</ele>
        <time>2019-07-14T22:47:15Z</time>
      </trkpt>
      <trkpt lat="35.954340490" lon="-106.520185490">
        <ele>2577.900</ele>
        <time>2019-07-14T22:47:16Z</time>
      </trkpt>
      <trkpt lat="35.954217870" lon="-106.520202140">
        <ele>2578.000</ele>
        <time>2019-07-14T22:47:17Z</time>
      </trkpt>
      <trkpt lat="35.954100630" lon="-106.520214450">
        <ele>2578.500</ele>
        <time>2019-07-14T22:47:18Z</time>
      </trkpt>
      <trkpt lat="35.953983170" lon="-106.520232350">
        <ele>2578.800</ele>
        <time>2019-07-14T22:47:19Z</time>
      </trkpt>
      <trkpt lat="35.953873270" lon="-106.520246750">
        <ele>2578.700</ele>
        <time>2019-07-14T22:47:20Z</time>
      </trkpt>
      <trkpt lat="35.953761600" lon="-106.520263850">
        <ele>2579.000</ele>
        <time>2019-07-14T22:47:21Z</time>
      </trkpt>
      <trkpt lat="35.953645270" lon="-106.520277060">
        <ele>2578.500</ele>
        <time>2019-07-14T22:47:22Z</time>
      </trkpt>
      <trkpt lat="35.953535160" lon="-106.520285950">
        <ele>2579.300</ele>
        <time>2019-07-14T22:47:23Z</time>
      </trkpt>
      <trkpt lat="35.953419800" lon="-106.520295680">
        <ele>2579.500</ele>
        <time>2019-07-14T22:47:24Z</time>
      </trkpt>
      <trkpt lat="35.953305220" lon="-106.520306100">
        <ele>2580.000</ele>
        <time>2019-07-14T22:47:25Z</time>
      </trkpt>
      <trkpt lat="35.953187700" lon="-106.520316830">
        <ele>2580.200</ele>
        <time>2019-07-14T22:47:26Z</time>
      </trkpt>
      <trkpt lat="35.953072020" lon="-106.520325920">
        <ele>2580.000</ele>
        <time>2019-07-14T22:47:27Z</time>
      </trkpt>
      <trkpt lat="35.952957370" lon="-106.520337850">
        <ele>2579.500</ele>
        <time>2019-07-14T22:47:28Z</time>
      </trkpt>
      <trkpt lat="35.952843410" lon="-106.520346920">
        <ele>2579.800</ele>
        <time>2019-07-14T22:47:29Z</time>
      </trkpt>
      <trkpt lat="35.952735490" lon="-106.520357370">
        <ele>2580.300</ele>
        <time>2019-07-14T22:47:30Z</time>
      </trkpt>
      <trkpt lat="35.952616560" lon="-106.520363720">
        <ele>2580.000</ele>
        <time>2019-07-14T22:47:31Z</time>
      </trkpt>
      <trkpt lat="35.952504280" lon="-106.520377050">
        <ele>2580.300</ele>
        <time>2019-07-14T22:47:32Z</time>
      </trkpt>
      <trkpt lat="35.952392560" lon="-106.520387330">
        <ele>2580.300</ele>
        <time>2019-07-14T22:47:33Z</time>
      </trkpt>
      <trkpt lat="35.952277800" lon="-106.520394720">
        <ele>2580.800</ele>
        <time>2019-07-14T22:47:34Z</time>
      </trkpt>
      <trkpt lat="35.952164680" lon="-106.520404560">
        <ele>2580.700</ele>
        <time>2019-07-14T22:47:35Z</time>
      </trkpt>
      <trkpt lat="35.952059400" lon="-106.520414160">
        <ele>2580.600</ele>
        <time>2019-07-14T22:47:36Z</time>
      </trkpt>
      <trkpt lat="35.951951710" lon="-106.520416180">
        <ele>2580.700</ele>
        <time>2019-07-14T22:47:37Z</time>
      </trkpt>
      <trkpt lat="35.951843970" lon="-106.520415150">
        <ele>2580.500</ele>
        <time>2019-07-14T22:47:38Z</time>
      </trkpt>
      <trkpt lat="35.951736510" lon="-106.520403530">
        <ele>2580.500</ele>
        <time>2019-07-14T22:47:39Z</time>
      </trkpt>
      <trkpt lat="35.951623780" lon="-106.520389860">
        <ele>2580.400</ele>
        <time>2019-07-14T22:47:40Z</time>
      </trkpt>
      <trkpt lat="35.951517120" lon="-106.520364070">
        <ele>2580.900</ele>
        <time>2019-07-14T22:47:41Z</time>
      </trkpt>
      <trkpt lat="35.951404410" lon="-106.520341000">
        <ele>2580.600</ele>
        <time>2019-07-14T22:47:42Z</time>
      </trkpt>
      <trkpt lat="35.951297930" lon="-106.520320850">
        <ele>2580.400</ele>
        <time>2019-07-14T22:47:43Z</time>
      </trkpt>
      <trkpt lat="35.951184440" lon="-106.520308620">
        <ele>2580.900</ele>
        <time>2019-07-14T22:47:44Z</time>
      </trkpt>
      <trkpt lat="35.951063980" lon="-106.520293870">
        <ele>2581.400</ele>
        <time>2019-07-14T22:47:45Z</time>
      </trkpt>
      <trkpt lat="35.950950810" lon="-106.520289170">
        <ele>2581.400</ele>
        <time>2019-07-14T22:47:46Z</time>
      </trkpt>
      <trkpt lat="35.950833520" lon="-106.520284450">
        <ele>2581.800</ele>
        <time>2019-07-14T22:47:47Z</time>
      </trkpt>
      <trkpt lat="35.950717830" lon="-106.520282750">
        <ele>2581.900</ele>
        <time>2019-07-14T22:47:48Z</time>
      </trkpt>
      <trkpt lat="35.950606270" lon="-106.520286190">
        <ele>2582.100</ele>
        <time>2019-07-14T22:47:49Z</time>
      </trkpt>
      <trkpt lat="35.950495630" lon="-106.520288660">
        <ele>2582.300</ele>
        <time>2019-07-14T22:47:50Z</time>
      </trkpt>
      <trkpt lat="35.950390570" lon="-106.520297890">
        <ele>2582.800</ele>
        <time>2019-07-14T22:47:51Z</time>
      </trkpt>
      <trkpt lat="35.950281450" lon="-106.520305750">
        <ele>2583.100</ele>
        <time>2019-07-14T22:47:52Z</time>
      </trkpt>
      <trkpt lat="35.950173000" lon="-106.520310380">
        <ele>2583.200</ele>
        <time>2019-07-14T22:47:53Z</time>
      </trkpt>
      <trkpt lat="35.950065500" lon="-106.520317250">
        <ele>2583.600</ele>
        <time>2019-07-14T22:47:54Z</time>
      </trkpt>
      <trkpt lat="35.949963510" lon="-106.520319950">
        <ele>2583.700</ele>
        <time>2019-07-14T22:47:55Z</time>
      </trkpt>
      <trkpt lat="35.949860290" lon="-106.520330560">
        <ele>2583.500</ele>
        <time>2019-07-14T22:47:56Z</time>
      </trkpt>
      <trkpt lat="35.949754900" lon="-106.520346420">
        <ele>2583.400</ele>
        <time>2019-07-14T22:47:57Z</time>
      </trkpt>
      <trkpt lat="35.949647790" lon="-106.520367680">
        <ele>2583.700</ele>
        <time>2019-07-14T22:47:58Z</time>
      </trkpt>
      <trkpt lat="35.949544640" lon="-106.520407470">
        <ele>2583.200</ele>
        <time>2019-07-14T22:47:59Z</time>
      </trkpt>
      <trkpt lat="35.949449630" lon="-106.520448910">
        <ele>2583.600</ele>
        <time>2019-07-14T22:48:00Z</time>
      </trkpt>
      <trkpt lat="35.949353100" lon="-106.520494410">
        <ele>2583.900</ele>
        <time>2019-07-14T22:48:01Z</time>
      </trkpt>
      <trkpt lat="35.949256590" lon="-106.520545250">
        <ele>2584.700</ele>
        <time>2019-07-14T22:48:02Z</time>
      </trkpt>
      <trkpt lat="35.949172930" lon="-106.520596770">
        <ele>2584.900</ele>
        <time>2019-07-14T22:48:03Z</time>
      </trkpt>
      <trkpt lat="35.949097000" lon="-106.520651000">
        <ele>2585.600</ele>
        <time>2019-07-14T22:48:04Z</time>
      </trkpt>
      <trkpt lat="35.949027570" lon="-106.520704300">
        <ele>2585.900</ele>
        <time>2019-07-14T22:48:05Z</time>
      </trkpt>
      <trkpt lat="35.948953250" lon="-106.520759970">
        <ele>2585.900</ele>
        <time>2019-07-14T22:48:06Z</time>
      </trkpt>
      <trkpt lat="35.948892570" lon="-106.520823300">
        <ele>2586.900</ele>
        <time>2019-07-14T22:48:07Z</time>
      </trkpt>
      <trkpt lat="35.948844490" lon="-106.520883820">
        <ele>2586.600</ele>
        <time>2019-07-14T22:48:08Z</time>
      </trkpt>
      <trkpt lat="35.948787550" lon="-106.520935320">
        <ele>2587.000</ele>
        <time>2019-07-14T22:48:09Z</time>
      </trkpt>
      <trkpt lat="35.948730580" lon="-106.520975210">
        <ele>2587.300</ele>
        <time>2019-07-14T22:48:10Z</time>
      </trkpt>
      <trkpt lat="35.948673340" lon="-106.520999470">
        <ele>2587.100</ele>
        <time>2019-07-14T22:48:11Z</time>
      </trkpt>
      <trkpt lat="35.948613220" lon="-106.521014640">
        <ele>2587.500</ele>
        <time>2019-07-14T22:48:12Z</time>
      </trkpt>
      <trkpt lat="35.948557170" lon="-106.521019320">
        <ele>2587.600</ele>
        <time>2019-07-14T22:48:13Z</time>
      </trkpt>
      <trkpt lat="35.948499430" lon="-106.521019060">
        <ele>2587.800</ele>
        <time>2019-07-14T22:48:14Z</time>
      </trkpt>
      <trkpt lat="35.948445430" lon="-106.521007470">
        <ele>2588.100</ele>
        <time>2019-07-14T22:48:15Z</time>
      </trkpt>
      <trkpt lat="35.948389920" lon="-106.520988690">
        <ele>2588.400</ele>
        <time>2019-07-14T22:48:16Z</time>
      </trkpt>
      <trkpt lat="35.948343770" lon="-106.520963670">
        <ele>2588.000</ele>
        <time>2019-07-14T22:48:17Z</time>
      </trkpt>
      <trkpt lat="35.948297630" lon="-106.520925770">
        <ele>2588.800</ele>
        <time>2019-07-14T22:48:18Z</time>
      </trkpt>
      <trkpt lat="35.948249360" lon="-106.520891410">
        <ele>2588.800</ele>
        <time>2019-07-14T22:48:19Z</time>
      </trkpt>
      <trkpt lat="35.948206320" lon="-106.520844240">
        <ele>2588.900</ele>
        <time>2019-07-14T22:48:20Z</time>
      </trkpt>
      <trkpt lat="35.948165450" lon="-106.520793410">
        <ele>2588.600</ele>
        <time>2019-07-14T22:48:21Z</time>
      </trkpt>
      <trkpt lat="35.948127090" lon="-106.520727260">
        <ele>2589.100</ele>
        <time>2019-07-14T22:48:22Z</time>
      </trkpt>
      <trkpt lat="35.948085550" lon="-106.520666490">
        <ele>2589.300</ele>
        <time>2019-07-14T22:48:23Z</time>
      </trkpt>
      <trkpt lat="35.948038590" lon="-106.520598890">
        <ele>2588.100</ele>
        <time>2019-07-14T22:48:24Z</time>
      </trkpt>
      <trkpt lat="35.947989070" lon="-106.520548300">
        <ele>2588.000</ele>
        <time>2019-07-14T22:48:25Z</time>
      </trkpt>
      <trkpt lat="35.947930350" lon="-106.520492330">
        <ele>2588.600</ele>
        <time>2019-07-14T22:48:26Z</time>
      </trkpt>
      <trkpt lat="35.947874580" lon="-106.520436360">
        <ele>2589.200</ele>
        <time>2019-07-14T22:48:27Z</time>
      </trkpt>
      <trkpt lat="35.947806140" lon="-106.520388550">
        <ele>2588.800</ele>
        <time>2019-07-14T22:48:28Z</time>
      </trkpt>
      <trkpt lat="35.947730200" lon="-106.520375410">
        <ele>2586.800</ele>
        <time>2019-07-14T22:48:29Z</time>
      </trkpt>
      <trkpt lat="35.947650820" lon="-106.520340960">
        <ele>2586.700</ele>
        <time>2019-07-14T22:48:30Z</time>
      </trkpt>
      <trkpt lat="35.947586500" lon="-106.520325610">
        <ele>2586.100</ele>
        <time>2019-07-14T22:48:31Z</time>
      </trkpt>
      <trkpt lat="35.947498390" lon="-106.520310060">
        <ele>2586.500</ele>
        <time>2019-07-14T22:48:32Z</time>
      </trkpt>
      <trkpt lat="35.947413010" lon="-106.520313590">
        <ele>2586.700</ele>
        <time>2019-07-14T22:48:33Z</time>
      </trkpt>
      <trkpt lat="35.947329830" lon="-106.520319620">
        <ele>2587.100</ele>
        <time>2019-07-14T22:48:34Z</time>
      </trkpt>
      <trkpt lat="35.947247130" lon="-106.520336940">
        <ele>2587.100</ele>
        <time>2019-07-14T22:48:35Z</time>
      </trkpt>
      <trkpt lat="35.947159150" lon="-106.520357340">
        <ele>2587.200</ele>
        <time>2019-07-14T22:48:36Z</time>
      </trkpt>
      <trkpt lat="35.947070720" lon="-106.520381060">
        <ele>2587.400</ele>
        <time>2019-07-14T22:48:37Z</time>
      </trkpt>
      <trkpt lat="35.946982180" lon="-106.520407200">
        <ele>2587.700</ele>
        <time>2019-07-14T22:48:38Z</time>
      </trkpt>
      <trkpt lat="35.946899480" lon="-106.520438620">
        <ele>2588.000</ele>
        <time>2019-07-14T22:48:39Z</time>
      </trkpt>
      <trkpt lat="35.946817820" lon="-106.520466790">
        <ele>2588.500</ele>
        <time>2019-07-14T22:48:40Z</time>
      </trkpt>
      <trkpt lat="35.946739640" lon="-106.520498690">
        <ele>2588.700</ele>
        <time>2019-07-14T22:48:41Z</time>
      </trkpt>
      <trkpt lat="35.946660860" lon="-106.520529180">
        <ele>2588.600</ele>
        <time>2019-07-14T22:48:42Z</time>
      </trkpt>
      <trkpt lat="35.946578910" lon="-106.520561930">
        <ele>2588.800</ele>
        <time>2019-07-14T22:48:43Z</time>
      </trkpt>
      <trkpt lat="35.946495910" lon="-106.520595990">
        <ele>2588.900</ele>
        <time>2019-07-14T22:48:44Z</time>
      </trkpt>
      <trkpt lat="35.946416670" lon="-106.520619690">
        <ele>2588.900</ele>
        <time>2019-07-14T22:48:45Z</time>
      </trkpt>
      <trkpt lat="35.946335340" lon="-106.520642330">
        <ele>2588.600</ele>
        <time>2019-07-14T22:48:46Z</time>
      </trkpt>
      <trkpt lat="35.946255360" lon="-106.520661230">
        <ele>2590.100</ele>
        <time>2019-07-14T22:48:47Z</time>
      </trkpt>
      <trkpt lat="35.946178770" lon="-106.520690860">
        <ele>2590.000</ele>
        <time>2019-07-14T22:48:48Z</time>
      </trkpt>
      <trkpt lat="35.946106820" lon="-106.520710670">
        <ele>2591.400</ele>
        <time>2019-07-14T22:48:49Z</time>
      </trkpt>
      <trkpt lat="35.946032590" lon="-106.520727000">
        <ele>2591.700</ele>
        <time>2019-07-14T22:48:50Z</time>
      </trkpt>
      <trkpt lat="35.945951770" lon="-106.520733340">
        <ele>2591.500</ele>
        <time>2019-07-14T22:48:51Z</time>
      </trkpt>
      <trkpt lat="35.945867780" lon="-106.520718880">
        <ele>2592.600</ele>
        <time>2019-07-14T22:48:52Z</time>
      </trkpt>
      <trkpt lat="35.945795580" lon="-106.520681150">
        <ele>2590.800</ele>
        <time>2019-07-14T22:48:53Z</time>
      </trkpt>
      <trkpt lat="35.945719570" lon="-106.520632640">
        <ele>2591.000</ele>
        <time>2019-07-14T22:48:54Z</time>
      </trkpt>
      <trkpt lat="35.945639940" lon="-106.520580430">
        <ele>2590.700</ele>
        <time>2019-07-14T22:48:55Z</time>
      </trkpt>
      <trkpt lat="35.945558360" lon="-106.520517280">
        <ele>2590.100</ele>
        <time>2019-07-14T22:48:56Z</time>
      </trkpt>
      <trkpt lat="35.945470740" lon="-106.520463240">
        <ele>2590.200</ele>
        <time>2019-07-14T22:48:57Z</time>
      </trkpt>
      <trkpt lat="35.945382150" lon="-106.520396990">
        <ele>2590.200</ele>
        <time>2019-07-14T22:48:58Z</time>
      </trkpt>
      <trkpt lat="35.945291860" lon="-106.520346380">
        <ele>2590.000</ele>
        <time>2019-07-14T22:48:59Z</time>
      </trkpt>
      <trkpt lat="35.945190940" lon="-106.520305560">
        <ele>2590.600</ele>
        <time>2019-07-14T22:49:00Z</time>
      </trkpt>
      <trkpt lat="35.945101300" lon="-106.520264380">
        <ele>2590.600</ele>
        <time>2019-07-14T22:49:01Z</time>
      </trkpt>
      <trkpt lat="35.945002640" lon="-106.520236470">
        <ele>2590.400</ele>
        <time>2019-07-14T22:49:02Z</time>
      </trkpt>
      <trkpt lat="35.944903320" lon="-106.520199780">
        <ele>2590.100</ele>
        <time>2019-07-14T22:49:03Z</time>
      </trkpt>
      <trkpt lat="35.944802570" lon="-106.520167130">
        <ele>2589.600</ele>
        <time>2019-07-14T22:49:04Z</time>
      </trkpt>
      <trkpt lat="35.944702450" lon="-106.520139290">
        <ele>2589.500</ele>
        <time>2019-07-14T22:49:05Z</time>
      </trkpt>
      <trkpt lat="35.944605370" lon="-106.520124490">
        <ele>2588.900</ele>
        <time>2019-07-14T22:49:06Z</time>
      </trkpt>
      <trkpt lat="35.944504150" lon="-106.520112790">
        <ele>2587.000</ele>
        <time>2019-07-14T22:49:07Z</time>
      </trkpt>
      <trkpt lat="35.944402790" lon="-106.520104740">
        <ele>2586.000</ele>
        <time>2019-07-14T22:49:08Z</time>
      </trkpt>
      <trkpt lat="35.944321610" lon="-106.520076750">
        <ele>2587.100</ele>
        <time>2019-07-14T22:49:09Z</time>
      </trkpt>
      <trkpt lat="35.944248010" lon="-106.520046760">
        <ele>2586.600</ele>
        <time>2019-07-14T22:49:10Z</time>
      </trkpt>
      <trkpt lat="35.944157180" lon="-106.520016480">
        <ele>2587.400</ele>
        <time>2019-07-14T22:49:11Z</time>
      </trkpt>
      <trkpt lat="35.944074650" lon="-106.519974730">
        <ele>2587.600</ele>
        <time>2019-07-14T22:49:12Z</time>
      </trkpt>
      <trkpt lat="35.943986810" lon="-106.519934950">
        <ele>2587.400</ele>
        <time>2019-07-14T22:49:13Z</time>
      </trkpt>
      <trkpt lat="35.943904310" lon="-106.519892920">
        <ele>2587.300</ele>
        <time>2019-07-14T22:49:14Z</time>
      </trkpt>
      <trkpt lat="35.943825120" lon="-106.519853540">
        <ele>2587.600</ele>
        <time>2019-07-14T22:49:15Z</time>
      </trkpt>
      <trkpt lat="35.943743150" lon="-106.519815460">
        <ele>2586.900</ele>
        <time>2019-07-14T22:49:16Z</time>
      </trkpt>
      <trkpt lat="35.943656340" lon="-106.519790050">
        <ele>2587.100</ele>
        <time>2019-07-14T22:49:17Z</time>
      </trkpt>
      <trkpt lat="35.943573740" lon="-106.519767100">
        <ele>2587.700</ele>
        <time>2019-07-14T22:49:18Z</time>
      </trkpt>
      <trkpt lat="35.943485340" lon="-106.519741540">
        <ele>2587.300</ele>
        <time>2019-07-14T22:49:19Z</time>
      </trkpt>
      <trkpt lat="35.943394580" lon="-106.519722800">
        <ele>2587.000</ele>
        <time>2019-07-14T22:49:20Z</time>
      </trkpt>
      <trkpt lat="35.943296860" lon="-106.519697120">
        <ele>2587.100</ele>
        <time>2019-07-14T22:49:21Z</time>
      </trkpt>
      <trkpt lat="35.943189450" lon="-106.519683750">
        <ele>2586.700</ele>
        <time>2019-07-14T22:49:22Z</time>
      </trkpt>
      <trkpt lat="35.943074700" lon="-106.519670380">
        <ele>2586.800</ele>
        <time>2019-07-14T22:49:23Z</time>
      </trkpt>
      <trkpt lat="35.942977170" lon="-106.519634610">
        <ele>2585.900</ele>
        <time>2019-07-14T22:49:24Z</time>
      </trkpt>
      <trkpt lat="35.942877640" lon="-106.519622350">
        <ele>2586.600</ele>
        <time>2019-07-14T22:49:25Z</time>
      </trkpt>
      <trkpt lat="35.942787680" lon="-106.519589860">
        <ele>2586.400</ele>
        <time>2019-07-14T22:49:26Z</time>
      </trkpt>
      <trkpt lat="35.942702550" lon="-106.519532170">
        <ele>2586.400</ele>
        <time>2019-07-14T22:49:27Z</time>
      </trkpt>
      <trkpt lat="35.942625880" lon="-106.519468460">
        <ele>2587.700</ele>
        <time>2019-07-14T22:49:28Z</time>
      </trkpt>
      <trkpt lat="35.942550340" lon="-106.519400500">
        <ele>2588.100</ele>
        <time>2019-07-14T22:49:29Z</time>
      </trkpt>
      <trkpt lat="35.942471020" lon="-106.519333850">
        <ele>2588.000</ele>
        <time>2019-07-14T22:49:30Z</time>
      </trkpt>
      <trkpt lat="35.942391410" lon="-106.519273360">
        <ele>2589.700</ele>
        <time>2019-07-14T22:49:31Z</time>
      </trkpt>
      <trkpt lat="35.942322860" lon="-106.519217460">
        <ele>2590.600</ele>
        <time>2019-07-14T22:49:32Z</time>
      </trkpt>
      <trkpt lat="35.942250810" lon="-106.519168360">
        <ele>2590.500</ele>
        <time>2019-07-14T22:49:33Z</time>
      </trkpt>
      <trkpt lat="35.942188350" lon="-106.519117590">
        <ele>2590.600</ele>
        <time>2019-07-14T22:49:34Z</time>
      </trkpt>
      <trkpt lat="35.942120540" lon="-106.519082410">
        <ele>2591.800</ele>
        <time>2019-07-14T22:49:35Z</time>
      </trkpt>
      <trkpt lat="35.942066180" lon="-106.519030210">
        <ele>2592.000</ele>
        <time>2019-07-14T22:49:36Z</time>
      </trkpt>
      <trkpt lat="35.942012010" lon="-106.519009180">
        <ele>2592.300</ele>
        <time>2019-07-14T22:49:37Z</time>
      </trkpt>
      <trkpt lat="35.941963700" lon="-106.518987560">
        <ele>2592.200</ele>
        <time>2019-07-14T22:49:38Z</time>
      </trkpt>
      <trkpt lat="35.941917500" lon="-106.518971420">
        <ele>2592.400</ele>
        <time>2019-07-14T22:49:39Z</time>
      </trkpt>
      <trkpt lat="35.941879900" lon="-106.518970630">
        <ele>2591.100</ele>
        <time>2019-07-14T22:49:40Z</time>
      </trkpt>
      <trkpt lat="35.941834460" lon="-106.518965110">
        <ele>2591.500</ele>
        <time>2019-07-14T22:49:41Z</time>
      </trkpt>
      <trkpt lat="35.941786450" lon="-106.518969510">
        <ele>2591.100</ele>
        <time>2019-07-14T22:49:42Z</time>
      </trkpt>
      <trkpt lat="35.941730230" lon="-106.518975140">
        <ele>2591.300</ele>
        <time>2019-07-14T22:49:43Z</time>
      </trkpt>
      <trkpt lat="35.941687290" lon="-106.518975520">
        <ele>2592.500</ele>
        <time>2019-07-14T22:49:44Z</time>
      </trkpt>
      <trkpt lat="35.941642570" lon="-106.518985270">
        <ele>2592.400</ele>
        <time>2019-07-14T22:49:45Z</time>
      </trkpt>
      <trkpt lat="35.941586830" lon="-106.518994290">
        <ele>2592.200</ele>
        <time>2019-07-14T22:49:46Z</time>
      </trkpt>
      <trkpt lat="35.941533990" lon="-106.519003020">
        <ele>2592.900</ele>
        <time>2019-07-14T22:49:47Z</time>
      </trkpt>
      <trkpt lat="35.941468140" lon="-106.519014550">
        <ele>2593.000</ele>
        <time>2019-07-14T22:49:48Z</time>
      </trkpt>
      <trkpt lat="35.941406510" lon="-106.519014530">
        <ele>2593.000</ele>
        <time>2019-07-14T22:49:49Z</time>
      </trkpt>
      <trkpt lat="35.941340090" lon="-106.519008340">
        <ele>2593.200</ele>
        <time>2019-07-14T22:49:50Z</time>
      </trkpt>
      <trkpt lat="35.941280840" lon="-106.518997710">
        <ele>2595.600</ele>
        <time>2019-07-14T22:49:51Z</time>
      </trkpt>
      <trkpt lat="35.941204020" lon="-106.518971800">
        <ele>2594.300</ele>
        <time>2019-07-14T22:49:52Z</time>
      </trkpt>
      <trkpt lat="35.941133740" lon="-106.518933320">
        <ele>2594.500</ele>
        <time>2019-07-14T22:49:53Z</time>
      </trkpt>
      <trkpt lat="35.941066810" lon="-106.518883750">
        <ele>2594.900</ele>
        <time>2019-07-14T22:49:54Z</time>
      </trkpt>
      <trkpt lat="35.940989280" lon="-106.518832000">
        <ele>2594.800</ele>
        <time>2019-07-14T22:49:55Z</time>
      </trkpt>
      <trkpt lat="35.940925180" lon="-106.518755170">
        <ele>2595.700</ele>
        <time>2019-07-14T22:49:56Z</time>
      </trkpt>
      <trkpt lat="35.940851920" lon="-106.518681770">
        <ele>2594.900</ele>
        <time>2019-07-14T22:49:57Z</time>
      </trkpt>
      <trkpt lat="35.940775560" lon="-106.518596040">
        <ele>2596.100</ele>
        <time>2019-07-14T22:49:58Z</time>
      </trkpt>
      <trkpt lat="35.940708380" lon="-106.518519640">
        <ele>2596.100</ele>
        <time>2019-07-14T22:49:59Z</time>
      </trkpt>
      <trkpt lat="35.940629120" lon="-106.518445410">
        <ele>2596.700</ele>
        <time>2019-07-14T22:50:00Z</time>
      </trkpt>
      <trkpt lat="35.940558260" lon="-106.518383050">
        <ele>2598.200</ele>
        <time>2019-07-14T22:50:01Z</time>
      </trkpt>
      <trkpt lat="35.940485810" lon="-106.518316610">
        <ele>2598.700</ele>
        <time>2019-07-14T22:50:02Z</time>
      </trkpt>
      <trkpt lat="35.940417590" lon="-106.518252120">
        <ele>2598.800</ele>
        <time>2019-07-14T22:50:03Z</time>
      </trkpt>
      <trkpt lat="35.940341050" lon="-106.518196280">
        <ele>2598.800</ele>
        <time>2019-07-14T22:50:04Z</time>
      </trkpt>
      <trkpt lat="35.940267040" lon="-106.518148160">
        <ele>2598.900</ele>
        <time>2019-07-14T22:50:05Z</time>
      </trkpt>
      <trkpt lat="35.940196800" lon="-106.518100590">
        <ele>2599.400</ele>
        <time>2019-07-14T22:50:06Z</time>
      </trkpt>
      <trkpt lat="35.940125520" lon="-106.518054160">
        <ele>2599.500</ele>
        <time>2019-07-14T22:50:07Z</time>
      </trkpt>
      <trkpt lat="35.940048530" lon="-106.518008730">
        <ele>2599.800</ele>
        <time>2019-07-14T22:50:08Z</time>
      </trkpt>
      <trkpt lat="35.939967520" lon="-106.517982500">
        <ele>2600.500</ele>
        <time>2019-07-14T22:50:09Z</time>
      </trkpt>
      <trkpt lat="35.939906290" lon="-106.517955430">
        <ele>2602.000</ele>
        <time>2019-07-14T22:50:10Z</time>
      </trkpt>
      <trkpt lat="35.939851970" lon="-106.517914580">
        <ele>2602.000</ele>
        <time>2019-07-14T22:50:11Z</time>
      </trkpt>
      <trkpt lat="35.939784480" lon="-106.517874020">
        <ele>2601.800</ele>
        <time>2019-07-14T22:50:12Z</time>
      </trkpt>
      <trkpt lat="35.939729550" lon="-106.517835900">
        <ele>2602.900</ele>
        <time>2019-07-14T22:50:13Z</time>
      </trkpt>
      <trkpt lat="35.939675460" lon="-106.517802240">
        <ele>2602.700</ele>
        <time>2019-07-14T22:50:14Z</time>
      </trkpt>
      <trkpt lat="35.939625180" lon="-106.517765250">
        <ele>2602.500</ele>
        <time>2019-07-14T22:50:15Z</time>
      </trkpt>
      <trkpt lat="35.939572090" lon="-106.517734190">
        <ele>2601.600</ele>
        <time>2019-07-14T22:50:16Z</time>
      </trkpt>
      <trkpt lat="35.939523550" lon="-106.517701270">
        <ele>2601.900</ele>
        <time>2019-07-14T22:50:17Z</time>
      </trkpt>
      <trkpt lat="35.939477280" lon="-106.517657540">
        <ele>2602.800</ele>
        <time>2019-07-14T22:50:18Z</time>
      </trkpt>
      <trkpt lat="35.939426170" lon="-106.517623780">
        <ele>2603.300</ele>
        <time>2019-07-14T22:50:19Z</time>
      </trkpt>
      <trkpt lat="35.939378860" lon="-106.517550860">
        <ele>2606.700</ele>
        <time>2019-07-14T22:50:20Z</time>
      </trkpt>
      <trkpt lat="35.939315950" lon="-106.517491620">
        <ele>2607.300</ele>
        <time>2019-07-14T22:50:21Z</time>
      </trkpt>
      <trkpt lat="35.939251590" lon="-106.517432570">
        <ele>2606.700</ele>
        <time>2019-07-14T22:50:22Z</time>
      </trkpt>
      <trkpt lat="35.939184970" lon="-106.517361480">
        <ele>2607.400</ele>
        <time>2019-07-14T22:50:23Z</time>
      </trkpt>
      <trkpt lat="35.939123170" lon="-106.517292910">
        <ele>2607.500</ele>
        <time>2019-07-14T22:50:24Z</time>
      </trkpt>
      <trkpt lat="35.939063270" lon="-106.517213280">
        <ele>2607.700</ele>
        <time>2019-07-14T22:50:25Z</time>
      </trkpt>
      <trkpt lat="35.939009440" lon="-106.517136760">
        <ele>2608.200</ele>
        <time>2019-07-14T22:50:26Z</time>
      </trkpt>
      <trkpt lat="35.938949100" lon="-106.517059740">
        <ele>2608.500</ele>
        <time>2019-07-14T22:50:27Z</time>
      </trkpt>
      <trkpt lat="35.938895340" lon="-106.516976620">
        <ele>2608.800</ele>
        <time>2019-07-14T22:50:28Z</time>
      </trkpt>
      <trkpt lat="35.938848590" lon="-106.516873630">
        <ele>2607.400</ele>
        <time>2019-07-14T22:50:29Z</time>
      </trkpt>
      <trkpt lat="35.938797690" lon="-106.516788550">
        <ele>2607.600</ele>
        <time>2019-07-14T22:50:30Z</time>
      </trkpt>
      <trkpt lat="35.938753150" lon="-106.516709900">
        <ele>2608.200</ele>
        <time>2019-07-14T22:50:31Z</time>
      </trkpt>
      <trkpt lat="35.938721070" lon="-106.516614770">
        <ele>2608.200</ele>
        <time>2019-07-14T22:50:32Z</time>
      </trkpt>
      <trkpt lat="35.938673810" lon="-106.516526250">
        <ele>2608.800</ele>
        <time>2019-07-14T22:50:33Z</time>
      </trkpt>
      <trkpt lat="35.938629960" lon="-106.516431750">
        <ele>2609.100</ele>
        <time>2019-07-14T22:50:34Z</time>
      </trkpt>
      <trkpt lat="35.938582620" lon="-106.516346410">
        <ele>2609.900</ele>
        <time>2019-07-14T22:50:35Z</time>
      </trkpt>
      <trkpt lat="35.938519880" lon="-106.516273210">
        <ele>2610.900</ele>
        <time>2019-07-14T22:50:36Z</time>
      </trkpt>
      <trkpt lat="35.938463730" lon="-106.516197220">
        <ele>2611.200</ele>
        <time>2019-07-14T22:50:37Z</time>
      </trkpt>
      <trkpt lat="35.938411360" lon="-106.516123770">
        <ele>2611.100</ele>
        <time>2019-07-14T22:50:38Z</time>
      </trkpt>
      <trkpt lat="35.938360660" lon="-106.516057010">
        <ele>2610.700</ele>
        <time>2019-07-14T22:50:39Z</time>
      </trkpt>
      <trkpt lat="35.938308310" lon="-106.515986670">
        <ele>2610.900</ele>
        <time>2019-07-14T22:50:40Z</time>
      </trkpt>
      <trkpt lat="35.938253520" lon="-106.515921590">
        <ele>2610.800</ele>
        <time>2019-07-14T22:50:41Z</time>
      </trkpt>
      <trkpt lat="35.938188940" lon="-106.515856140">
        <ele>2611.900</ele>
        <time>2019-07-14T22:50:42Z</time>
      </trkpt>
      <trkpt lat="35.938139240" lon="-106.515789200">
        <ele>2611.300</ele>
        <time>2019-07-14T22:50:43Z</time>
      </trkpt>
      <trkpt lat="35.938078120" lon="-106.515731360">
        <ele>2612.100</ele>
        <time>2019-07-14T22:50:44Z</time>
      </trkpt>
      <trkpt lat="35.938014410" lon="-106.515688160">
        <ele>2612.000</ele>
        <time>2019-07-14T22:50:45Z</time>
      </trkpt>
      <trkpt lat="35.937929700" lon="-106.515647650">
        <ele>2612.500</ele>
        <time>2019-07-14T22:50:46Z</time>
      </trkpt>
      <trkpt lat="35.937862100" lon="-106.515615640">
        <ele>2613.300</ele>
        <time>2019-07-14T22:50:47Z</time>
      </trkpt>
      <trkpt lat="35.937791710" lon="-106.515580190">
        <ele>2613.800</ele>
        <time>2019-07-14T22:50:48Z</time>
      </trkpt>
      <trkpt lat="35.937723600" lon="-106.515546100">
        <ele>2614.300</ele>
        <time>2019-07-14T22:50:49Z</time>
      </trkpt>
      <trkpt lat="35.937661570" lon="-106.515528180">
        <ele>2614.100</ele>
        <time>2019-07-14T22:50:50Z</time>
      </trkpt>
      <trkpt lat="35.937595130" lon="-106.515503560">
        <ele>2614.400</ele>
        <time>2019-07-14T22:50:51Z</time>
      </trkpt>
      <trkpt lat="35.937531780" lon="-106.515480070">
        <ele>2614.200</ele>
        <time>2019-07-14T22:50:52Z</time>
      </trkpt>
      <trkpt lat="35.937473790" lon="-106.515469900">
        <ele>2613.800</ele>
        <time>2019-07-14T22:50:53Z</time>
      </trkpt>
      <trkpt lat="35.937401610" lon="-106.515445810">
        <ele>2615.300</ele>
        <time>2019-07-14T22:50:54Z</time>
      </trkpt>
      <trkpt lat="35.937355090" lon="-106.515425950">
        <ele>2616.500</ele>
        <time>2019-07-14T22:50:55Z</time>
      </trkpt>
      <trkpt lat="35.937313770" lon="-106.515393280">
        <ele>2617.000</ele>
        <time>2019-07-14T22:50:56Z</time>
      </trkpt>
      <trkpt lat="35.937268150" lon="-106.515361390">
        <ele>2617.600</ele>
        <time>2019-07-14T22:50:57Z</time>
      </trkpt>
      <trkpt lat="35.937226500" lon="-106.515314120">
        <ele>2619.100</ele>
        <time>2019-07-14T22:50:58Z</time>
      </trkpt>
      <trkpt lat="35.937182980" lon="-106.515262580">
        <ele>2618.900</ele>
        <time>2019-07-14T22:50:59Z</time>
      </trkpt>
      <trkpt lat="35.937139490" lon="-106.515208270">
        <ele>2618.500</ele>
        <time>2019-07-14T22:51:00Z</time>
      </trkpt>
      <trkpt lat="35.937095800" lon="-106.515146920">
        <ele>2618.800</ele>
        <time>2019-07-14T22:51:01Z</time>
      </trkpt>
      <trkpt lat="35.937053470" lon="-106.515083050">
        <ele>2619.800</ele>
        <time>2019-07-14T22:51:02Z</time>
      </trkpt>
      <trkpt lat="35.937011130" lon="-106.515019000">
        <ele>2620.800</ele>
        <time>2019-07-14T22:51:03Z</time>
      </trkpt>
      <trkpt lat="35.936968950" lon="-106.514952620">
        <ele>2620.700</ele>
        <time>2019-07-14T22:51:04Z</time>
      </trkpt>
      <trkpt lat="35.936921910" lon="-106.514870320">
        <ele>2619.300</ele>
        <time>2019-07-14T22:51:05Z</time>
      </trkpt>
      <trkpt lat="35.936874350" lon="-106.514804970">
        <ele>2619.200</ele>
        <time>2019-07-14T22:51:06Z</time>
      </trkpt>
      <trkpt lat="35.936822560" lon="-106.514728840">
        <ele>2619.200</ele>
        <time>2019-07-14T22:51:07Z</time>
      </trkpt>
      <trkpt lat="35.936774780" lon="-106.514650900">
        <ele>2619.900</ele>
        <time>2019-07-14T22:51:08Z</time>
      </trkpt>
      <trkpt lat="35.936728250" lon="-106.514577180">
        <ele>2620.800</ele>
        <time>2019-07-14T22:51:09Z</time>
      </trkpt>
      <trkpt lat="35.936683870" lon="-106.514499620">
        <ele>2620.800</ele>
        <time>2019-07-14T22:51:10Z</time>
      </trkpt>
      <trkpt lat="35.936643430" lon="-106.514425470">
        <ele>2621.200</ele>
        <time>2019-07-14T22:51:11Z</time>
      </trkpt>
      <trkpt lat="35.936600330" lon="-106.514344840">
        <ele>2620.900</ele>
        <time>2019-07-14T22:51:12Z</time>
      </trkpt>
      <trkpt lat="35.936565400" lon="-106.514251850">
        <ele>2622.200</ele>
        <time>2019-07-14T22:51:13Z</time>
      </trkpt>
      <trkpt lat="35.936526750" lon="-106.514179590">
        <ele>2623.000</ele>
        <time>2019-07-14T22:51:14Z</time>
      </trkpt>
      <trkpt lat="35.936476020" lon="-106.514104060">
        <ele>2622.900</ele>
        <time>2019-07-14T22:51:15Z</time>
      </trkpt>
      <trkpt lat="35.936429460" lon="-106.514030670">
        <ele>2623.100</ele>
        <time>2019-07-14T22:51:16Z</time>
      </trkpt>
      <trkpt lat="35.936376040" lon="-106.513954720">
        <ele>2622.800</ele>
        <time>2019-07-14T22:51:17Z</time>
      </trkpt>
      <trkpt lat="35.936312740" lon="-106.513896290">
        <ele>2622.200</ele>
        <time>2019-07-14T22:51:18Z</time>
      </trkpt>
      <trkpt lat="35.936248080" lon="-106.513827190">
        <ele>2623.400</ele>
        <time>2019-07-14T22:51:19Z</time>
      </trkpt>
      <trkpt lat="35.936197120" lon="-106.513764920">
        <ele>2622.500</ele>
        <time>2019-07-14T22:51:20Z</time>
      </trkpt>
      <trkpt lat="35.936140750" lon="-106.513698690">
        <ele>2622.500</ele>
        <time>2019-07-14T22:51:21Z</time>
      </trkpt>
      <trkpt lat="35.936087900" lon="-106.513628590">
        <ele>2622.200</ele>
        <time>2019-07-14T22:51:22Z</time>
      </trkpt>
      <trkpt lat="35.936037340" lon="-106.513556620">
        <ele>2622.000</ele>
        <time>2019-07-14T22:51:23Z</time>
      </trkpt>
      <trkpt lat="35.935987890" lon="-106.513472460">
        <ele>2621.500</ele>
        <time>2019-07-14T22:51:24Z</time>
      </trkpt>
      <trkpt lat="35.935945760" lon="-106.513389060">
        <ele>2621.200</ele>
        <time>2019-07-14T22:51:25Z</time>
      </trkpt>
      <trkpt lat="35.935911880" lon="-106.513305330">
        <ele>2622.000</ele>
        <time>2019-07-14T22:51:26Z</time>
      </trkpt>
      <trkpt lat="35.935871240" lon="-106.513217860">
        <ele>2621.500</ele>
        <time>2019-07-14T22:51:27Z</time>
      </trkpt>
      <trkpt lat="35.935830630" lon="-106.513126440">
        <ele>2621.400</ele>
        <time>2019-07-14T22:51:28Z</time>
      </trkpt>
      <trkpt lat="35.935789640" lon="-106.513036280">
        <ele>2622.300</ele>
        <time>2019-07-14T22:51:29Z</time>
      </trkpt>
      <trkpt lat="35.935740690" lon="-106.512948180">
        <ele>2622.800</ele>
        <time>2019-07-14T22:51:30Z</time>
      </trkpt>
      <trkpt lat="35.935695250" lon="-106.512861400">
        <ele>2623.100</ele>
        <time>2019-07-14T22:51:31Z</time>
      </trkpt>
      <trkpt lat="35.935635300" lon="-106.512779110">
        <ele>2623.300</ele>
        <time>2019-07-14T22:51:32Z</time>
      </trkpt>
      <trkpt lat="35.935579770" lon="-106.512695230">
        <ele>2623.400</ele>
        <time>2019-07-14T22:51:33Z</time>
      </trkpt>
      <trkpt lat="35.935522770" lon="-106.512621990">
        <ele>2623.600</ele>
        <time>2019-07-14T22:51:34Z</time>
      </trkpt>
      <trkpt lat="35.935468630" lon="-106.512538420">
        <ele>2624.800</ele>
        <time>2019-07-14T22:51:35Z</time>
      </trkpt>
      <trkpt lat="35.935410940" lon="-106.512463150">
        <ele>2624.900</ele>
        <time>2019-07-14T22:51:36Z</time>
      </trkpt>
      <trkpt lat="35.935365020" lon="-106.512390340">
        <ele>2624.700</ele>
        <time>2019-07-14T22:51:37Z</time>
      </trkpt>
      <trkpt lat="35.935304950" lon="-106.512320050">
        <ele>2625.100</ele>
        <time>2019-07-14T22:51:38Z</time>
      </trkpt>
      <trkpt lat="35.935252330" lon="-106.512244860">
        <ele>2625.400</ele>
        <time>2019-07-14T22:51:39Z</time>
      </trkpt>
      <trkpt lat="35.935208000" lon="-106.512176620">
        <ele>2626.100</ele>
        <time>2019-07-14T22:51:40Z</time>
      </trkpt>
      <trkpt lat="35.935175390" lon="-106.512101690">
        <ele>2626.100</ele>
        <time>2019-07-14T22:51:41Z</time>
      </trkpt>
      <trkpt lat="35.935128460" lon="-106.512021140">
        <ele>2626.400</ele>
        <time>2019-07-14T22:51:42Z</time>
      </trkpt>
      <trkpt lat="35.935102370" lon="-106.511933830">
        <ele>2625.200</ele>
        <time>2019-07-14T22:51:43Z</time>
      </trkpt>
      <trkpt lat="35.935070620" lon="-106.511851400">
        <ele>2625.600</ele>
        <time>2019-07-14T22:51:44Z</time>
      </trkpt>
      <trkpt lat="35.935037550" lon="-106.511768500">
        <ele>2625.700</ele>
        <time>2019-07-14T22:51:45Z</time>
      </trkpt>
      <trkpt lat="35.935003040" lon="-106.511679570">
        <ele>2626.000</ele>
        <time>2019-07-14T22:51:46Z</time>
      </trkpt>
      <trkpt lat="35.934967860" lon="-106.511596420">
        <ele>2626.700</ele>
        <time>2019-07-14T22:51:47Z</time>
      </trkpt>
      <trkpt lat="35.934937280" lon="-106.511510220">
        <ele>2626.600</ele>
        <time>2019-07-14T22:51:48Z</time>
      </trkpt>
      <trkpt lat="35.934889580" lon="-106.511429510">
        <ele>2627.200</ele>
        <time>2019-07-14T22:51:49Z</time>
      </trkpt>
      <trkpt lat="35.934848020" lon="-106.511363870">
        <ele>2628.100</ele>
        <time>2019-07-14T22:51:50Z</time>
      </trkpt>
      <trkpt lat="35.934798750" lon="-106.511301340">
        <ele>2629.000</ele>
        <time>2019-07-14T22:51:51Z</time>
      </trkpt>
      <trkpt lat="35.934746550" lon="-106.511240670">
        <ele>2629.000</ele>
        <time>2019-07-14T22:51:52Z</time>
      </trkpt>
      <trkpt lat="35.934696870" lon="-106.511177880">
        <ele>2628.700</ele>
        <time>2019-07-14T22:51:53Z</time>
      </trkpt>
      <trkpt lat="35.934644050" lon="-106.511114560">
        <ele>2628.200</ele>
        <time>2019-07-14T22:51:54Z</time>
      </trkpt>
      <trkpt lat="35.934595910" lon="-106.511064050">
        <ele>2629.400</ele>
        <time>2019-07-14T22:51:55Z</time>
      </trkpt>
      <trkpt lat="35.934540590" lon="-106.511003910">
        <ele>2629.900</ele>
        <time>2019-07-14T22:51:56Z</time>
      </trkpt>
      <trkpt lat="35.934488360" lon="-106.510948350">
        <ele>2629.400</ele>
        <time>2019-07-14T22:51:57Z</time>
      </trkpt>
      <trkpt lat="35.934451330" lon="-106.510876840">
        <ele>2630.900</ele>
        <time>2019-07-14T22:51:58Z</time>
      </trkpt>
      <trkpt lat="35.934416370" lon="-106.510799700">
        <ele>2631.400</ele>
        <time>2019-07-14T22:51:59Z</time>
      </trkpt>
      <trkpt lat="35.934381470" lon="-106.510721260">
        <ele>2631.100</ele>
        <time>2019-07-14T22:52:00Z</time>
      </trkpt>
      <trkpt lat="35.934349450" lon="-106.510627100">
        <ele>2630.500</ele>
        <time>2019-07-14T22:52:01Z</time>
      </trkpt>
      <trkpt lat="35.934315320" lon="-106.510524610">
        <ele>2630.100</ele>
        <time>2019-07-14T22:52:02Z</time>
      </trkpt>
      <trkpt lat="35.934280700" lon="-106.510409610">
        <ele>2630.700</ele>
        <time>2019-07-14T22:52:03Z</time>
      </trkpt>
      <trkpt lat="35.934243680" lon="-106.510297610">
        <ele>2630.700</ele>
        <time>2019-07-14T22:52:04Z</time>
      </trkpt>
      <trkpt lat="35.934214460" lon="-106.510188040">
        <ele>2631.000</ele>
        <time>2019-07-14T22:52:05Z</time>
      </trkpt>
      <trkpt lat="35.934177460" lon="-106.510082650">
        <ele>2630.700</ele>
        <time>2019-07-14T22:52:06Z</time>
      </trkpt>
      <trkpt lat="35.934143480" lon="-106.509973930">
        <ele>2630.800</ele>
        <time>2019-07-14T22:52:07Z</time>
      </trkpt>
      <trkpt lat="35.934108090" lon="-106.509856270">
        <ele>2631.000</ele>
        <time>2019-07-14T22:52:08Z</time>
      </trkpt>
      <trkpt lat="35.934065520" lon="-106.509739940">
        <ele>2630.300</ele>
        <time>2019-07-14T22:52:09Z</time>
      </trkpt>
      <trkpt lat="35.934030710" lon="-106.509616810">
        <ele>2630.000</ele>
        <time>2019-07-14T22:52:10Z</time>
      </trkpt>
      <trkpt lat="35.934000400" lon="-106.509493320">
        <ele>2629.900</ele>
        <time>2019-07-14T22:52:11Z</time>
      </trkpt>
      <trkpt lat="35.933962890" lon="-106.509374980">
        <ele>2629.600</ele>
        <time>2019-07-14T22:52:12Z</time>
      </trkpt>
      <trkpt lat="35.933930940" lon="-106.509263890">
        <ele>2629.800</ele>
        <time>2019-07-14T22:52:13Z</time>
      </trkpt>
      <trkpt lat="35.933900210" lon="-106.509141110">
        <ele>2629.800</ele>
        <time>2019-07-14T22:52:14Z</time>
      </trkpt>
      <trkpt lat="35.933857810" lon="-106.509033290">
        <ele>2629.500</ele>
        <time>2019-07-14T22:52:15Z</time>
      </trkpt>
      <trkpt lat="35.933821840" lon="-106.508920570">
        <ele>2629.900</ele>
        <time>2019-07-14T22:52:16Z</time>
      </trkpt>
      <trkpt lat="35.933773460" lon="-106.508812070">
        <ele>2629.500</ele>
        <time>2019-07-14T22:52:17Z</time>
      </trkpt>
      <trkpt lat="35.933737040" lon="-106.508696950">
        <ele>2629.800</ele>
        <time>2019-07-14T22:52:18Z</time>
      </trkpt>
      <trkpt lat="35.933688360" lon="-106.508587340">
        <ele>2629.000</ele>
        <time>2019-07-14T22:52:19Z</time>
      </trkpt>
      <trkpt lat="35.933653050" lon="-106.508476870">
        <ele>2628.700</ele>
        <time>2019-07-14T22:52:20Z</time>
      </trkpt>
      <trkpt lat="35.933606210" lon="-106.508373160">
        <ele>2629.100</ele>
        <time>2019-07-14T22:52:21Z</time>
      </trkpt>
      <trkpt lat="35.933561020" lon="-106.508278020">
        <ele>2628.900</ele>
        <time>2019-07-14T22:52:22Z</time>
      </trkpt>
      <trkpt lat="35.933516380" lon="-106.508171490">
        <ele>2629.700</ele>
        <time>2019-07-14T22:52:23Z</time>
      </trkpt>
      <trkpt lat="35.933468730" lon="-106.508068470">
        <ele>2630.500</ele>
        <time>2019-07-14T22:52:24Z</time>
      </trkpt>
      <trkpt lat="35.933418880" lon="-106.507964680">
        <ele>2630.200</ele>
        <time>2019-07-14T22:52:25Z</time>
      </trkpt>
      <trkpt lat="35.933374710" lon="-106.507862360">
        <ele>2630.200</ele>
        <time>2019-07-14T22:52:26Z</time>
      </trkpt>
      <trkpt lat="35.933330900" lon="-106.507753930">
        <ele>2629.600</ele>
        <time>2019-07-14T22:52:27Z</time>
      </trkpt>
      <trkpt lat="35.933279170" lon="-106.507649100">
        <ele>2629.800</ele>
        <time>2019-07-14T22:52:28Z</time>
      </trkpt>
      <trkpt lat="35.933225920" lon="-106.507545810">
        <ele>2629.600</ele>
        <time>2019-07-14T22:52:29Z</time>
      </trkpt>
      <trkpt lat="35.933175510" lon="-106.507433340">
        <ele>2629.300</ele>
        <time>2019-07-14T22:52:30Z</time>
      </trkpt>
      <trkpt lat="35.933120550" lon="-106.507321880">
        <ele>2629.900</ele>
        <time>2019-07-14T22:52:31Z</time>
      </trkpt>
      <trkpt lat="35.933066770" lon="-106.507208380">
        <ele>2629.400</ele>
        <time>2019-07-14T22:52:32Z</time>
      </trkpt>
      <trkpt lat="35.933011460" lon="-106.507097210">
        <ele>2630.100</ele>
        <time>2019-07-14T22:52:33Z</time>
      </trkpt>
      <trkpt lat="35.932948720" lon="-106.506994860">
        <ele>2630.400</ele>
        <time>2019-07-14T22:52:34Z</time>
      </trkpt>
      <trkpt lat="35.932880450" lon="-106.506902040">
        <ele>2630.800</ele>
        <time>2019-07-14T22:52:35Z</time>
      </trkpt>
      <trkpt lat="35.932817080" lon="-106.506802140">
        <ele>2631.500</ele>
        <time>2019-07-14T22:52:36Z</time>
      </trkpt>
      <trkpt lat="35.932767060" lon="-106.506704630">
        <ele>2633.400</ele>
        <time>2019-07-14T22:52:37Z</time>
      </trkpt>
      <trkpt lat="35.932718090" lon="-106.506612130">
        <ele>2633.900</ele>
        <time>2019-07-14T22:52:38Z</time>
      </trkpt>
      <trkpt lat="35.932678370" lon="-106.506527280">
        <ele>2633.400</ele>
        <time>2019-07-14T22:52:39Z</time>
      </trkpt>
      <trkpt lat="35.932624860" lon="-106.506452630">
        <ele>2633.100</ele>
        <time>2019-07-14T22:52:40Z</time>
      </trkpt>
      <trkpt lat="35.932577650" lon="-106.506370970">
        <ele>2631.700</ele>
        <time>2019-07-14T22:52:41Z</time>
      </trkpt>
      <trkpt lat="35.932532700" lon="-106.506302000">
        <ele>2631.300</ele>
        <time>2019-07-14T22:52:42Z</time>
      </trkpt>
      <trkpt lat="35.932499820" lon="-106.506239520">
        <ele>2632.000</ele>
        <time>2019-07-14T22:52:43Z</time>
      </trkpt>
      <trkpt lat="35.932463750" lon="-106.506174400">
        <ele>2631.300</ele>
        <time>2019-07-14T22:52:44Z</time>
      </trkpt>
      <trkpt lat="35.932441140" lon="-106.506127240">
        <ele>2629.900</ele>
        <time>2019-07-14T22:52:45Z</time>
      </trkpt>
      <trkpt lat="35.932424840" lon="-106.506060820">
        <ele>2631.000</ele>
        <time>2019-07-14T22:52:46Z</time>
      </trkpt>
      <trkpt lat="35.932420080" lon="-106.506006660">
        <ele>2631.900</ele>
        <time>2019-07-14T22:52:47Z</time>
      </trkpt>
      <trkpt lat="35.932414670" lon="-106.505950830">
        <ele>2632.500</ele>
        <time>2019-07-14T22:52:48Z</time>
      </trkpt>
      <trkpt lat="35.932423490" lon="-106.505896710">
        <ele>2633.500</ele>
        <time>2019-07-14T22:52:49Z</time>
      </trkpt>
      <trkpt lat="35.932424310" lon="-106.505832000">
        <ele>2634.100</ele>
        <time>2019-07-14T22:52:50Z</time>
      </trkpt>
      <trkpt lat="35.932429470" lon="-106.505765060">
        <ele>2634.600</ele>
        <time>2019-07-14T22:52:51Z</time>
      </trkpt>
      <trkpt lat="35.932436920" lon="-106.505694930">
        <ele>2634.700</ele>
        <time>2019-07-14T22:52:52Z</time>
      </trkpt>
      <trkpt lat="35.932440200" lon="-106.505622470">
        <ele>2634.900</ele>
        <time>2019-07-14T22:52:53Z</time>
      </trkpt>
      <trkpt lat="35.932447420" lon="-106.505540420">
        <ele>2635.200</ele>
        <time>2019-07-14T22:52:54Z</time>
      </trkpt>
      <trkpt lat="35.932455540" lon="-106.505457490">
        <ele>2635.500</ele>
        <time>2019-07-14T22:52:55Z</time>
      </trkpt>
      <trkpt lat="35.932466160" lon="-106.505361310">
        <ele>2635.600</ele>
        <time>2019-07-14T22:52:56Z</time>
      </trkpt>
      <trkpt lat="35.932467440" lon="-106.505271630">
        <ele>2635.700</ele>
        <time>2019-07-14T22:52:57Z</time>
      </trkpt>
      <trkpt lat="35.932484680" lon="-106.505192670">
        <ele>2635.500</ele>
        <time>2019-07-14T22:52:58Z</time>
      </trkpt>
      <trkpt lat="35.932496830" lon="-106.505114000">
        <ele>2635.600</ele>
        <time>2019-07-14T22:52:59Z</time>
      </trkpt>
      <trkpt lat="35.932501650" lon="-106.505031040">
        <ele>2635.900</ele>
        <time>2019-07-14T22:53:00Z</time>
      </trkpt>
      <trkpt lat="35.932509530" lon="-106.504955030">
        <ele>2636.500</ele>
        <time>2019-07-14T22:53:01Z</time>
      </trkpt>
      <trkpt lat="35.932518620" lon="-106.504875260">
        <ele>2635.900</ele>
        <time>2019-07-14T22:53:02Z</time>
      </trkpt>
      <trkpt lat="35.932533430" lon="-106.504803550">
        <ele>2635.000</ele>
        <time>2019-07-14T22:53:03Z</time>
      </trkpt>
      <trkpt lat="35.932545310" lon="-106.504728840">
        <ele>2635.800</ele>
        <time>2019-07-14T22:53:04Z</time>
      </trkpt>
      <trkpt lat="35.932553120" lon="-106.504656910">
        <ele>2635.500</ele>
        <time>2019-07-14T22:53:05Z</time>
      </trkpt>
      <trkpt lat="35.932553590" lon="-106.504582430">
        <ele>2635.500</ele>
        <time>2019-07-14T22:53:06Z</time>
      </trkpt>
      <trkpt lat="35.932551240" lon="-106.504507410">
        <ele>2636.100</ele>
        <time>2019-07-14T22:53:07Z</time>
      </trkpt>
      <trkpt lat="35.932543760" lon="-106.504428100">
        <ele>2636.600</ele>
        <time>2019-07-14T22:53:08Z</time>
      </trkpt>
      <trkpt lat="35.932546280" lon="-106.504351150">
        <ele>2636.400</ele>
        <time>2019-07-14T22:53:09Z</time>
      </trkpt>
      <trkpt lat="35.932537180" lon="-106.504272340">
        <ele>2636.900</ele>
        <time>2019-07-14T22:53:10Z</time>
      </trkpt>
      <trkpt lat="35.932526710" lon="-106.504195570">
        <ele>2637.100</ele>
        <time>2019-07-14T22:53:11Z</time>
      </trkpt>
      <trkpt lat="35.932518480" lon="-106.504118880">
        <ele>2637.300</ele>
        <time>2019-07-14T22:53:12Z</time>
      </trkpt>
      <trkpt lat="35.932510850" lon="-106.504052810">
        <ele>2637.500</ele>
        <time>2019-07-14T22:53:13Z</time>
      </trkpt>
      <trkpt lat="35.932518710" lon="-106.503975320">
        <ele>2637.300</ele>
        <time>2019-07-14T22:53:14Z</time>
      </trkpt>
      <trkpt lat="35.932512100" lon="-106.503908360">
        <ele>2637.500</ele>
        <time>2019-07-14T22:53:15Z</time>
      </trkpt>
      <trkpt lat="35.932513170" lon="-106.503832010">
        <ele>2637.600</ele>
        <time>2019-07-14T22:53:16Z</time>
      </trkpt>
      <trkpt lat="35.932507110" lon="-106.503756170">
        <ele>2637.700</ele>
        <time>2019-07-14T22:53:17Z</time>
      </trkpt>
      <trkpt lat="35.932499390" lon="-106.503682500">
        <ele>2638.300</ele>
        <time>2019-07-14T22:53:18Z</time>
      </trkpt>
      <trkpt lat="35.932493730" lon="-106.503614530">
        <ele>2638.100</ele>
        <time>2019-07-14T22:53:19Z</time>
      </trkpt>
      <trkpt lat="35.932484780" lon="-106.503543490">
        <ele>2638.700</ele>
        <time>2019-07-14T22:53:20Z</time>
      </trkpt>
      <trkpt lat="35.932470030" lon="-106.503468150">
        <ele>2638.600</ele>
        <time>2019-07-14T22:53:21Z</time>
      </trkpt>
      <trkpt lat="35.932441810" lon="-106.503402420">
        <ele>2638.900</ele>
        <time>2019-07-14T22:53:22Z</time>
      </trkpt>
      <trkpt lat="35.932402700" lon="-106.503350830">
        <ele>2638.900</ele>
        <time>2019-07-14T22:53:23Z</time>
      </trkpt>
      <trkpt lat="35.932366580" lon="-106.503293640">
        <ele>2639.200</ele>
        <time>2019-07-14T22:53:24Z</time>
      </trkpt>
      <trkpt lat="35.932336410" lon="-106.503225270">
        <ele>2639.300</ele>
        <time>2019-07-14T22:53:25Z</time>
      </trkpt>
      <trkpt lat="35.932305740" lon="-106.503165030">
        <ele>2640.300</ele>
        <time>2019-07-14T22:53:26Z</time>
      </trkpt>
      <trkpt lat="35.932277790" lon="-106.503102170">
        <ele>2640.600</ele>
        <time>2019-07-14T22:53:27Z</time>
      </trkpt>
      <trkpt lat="35.932242050" lon="-106.503031390">
        <ele>2641.000</ele>
        <time>2019-07-14T22:53:28Z</time>
      </trkpt>
      <trkpt lat="35.932210650" lon="-106.502955890">
        <ele>2641.400</ele>
        <time>2019-07-14T22:53:29Z</time>
      </trkpt>
      <trkpt lat="35.932185510" lon="-106.502876210">
        <ele>2641.000</ele>
        <time>2019-07-14T22:53:30Z</time>
      </trkpt>
      <trkpt lat="35.932155040" lon="-106.502801020">
        <ele>2641.100</ele>
        <time>2019-07-14T22:53:31Z</time>
      </trkpt>
      <trkpt lat="35.932126290" lon="-106.502716810">
        <ele>2641.500</ele>
        <time>2019-07-14T22:53:32Z</time>
      </trkpt>
      <trkpt lat="35.932113240" lon="-106.502626140">
        <ele>2641.600</ele>
        <time>2019-07-14T22:53:33Z</time>
      </trkpt>
      <trkpt lat="35.932103310" lon="-106.502531490">
        <ele>2640.100</ele>
        <time>2019-07-14T22:53:34Z</time>
      </trkpt>
      <trkpt lat="35.932095960" lon="-106.502428670">
        <ele>2640.000</ele>
        <time>2019-07-14T22:53:35Z</time>
      </trkpt>
      <trkpt lat="35.932089720" lon="-106.502324550">
        <ele>2639.200</ele>
        <time>2019-07-14T22:53:36Z</time>
      </trkpt>
      <trkpt lat="35.932073340" lon="-106.502218880">
        <ele>2639.600</ele>
        <time>2019-07-14T22:53:37Z</time>
      </trkpt>
      <trkpt lat="35.932046650" lon="-106.502110650">
        <ele>2639.400</ele>
        <time>2019-07-14T22:53:38Z</time>
      </trkpt>
      <trkpt lat="35.932010950" lon="-106.502015060">
        <ele>2639.600</ele>
        <time>2019-07-14T22:53:39Z</time>
      </trkpt>
      <trkpt lat="35.931966680" lon="-106.501921940">
        <ele>2639.600</ele>
        <time>2019-07-14T22:53:40Z</time>
      </trkpt>
      <trkpt lat="35.931919910" lon="-106.501825150">
        <ele>2640.000</ele>
        <time>2019-07-14T22:53:41Z</time>
      </trkpt>
      <trkpt lat="35.931867270" lon="-106.501732570">
        <ele>2640.400</ele>
        <time>2019-07-14T22:53:42Z</time>
      </trkpt>
      <trkpt lat="35.931811360" lon="-106.501648320">
        <ele>2639.900</ele>
        <time>2019-07-14T22:53:43Z</time>
      </trkpt>
      <trkpt lat="35.931750380" lon="-106.501565930">
        <ele>2640.200</ele>
        <time>2019-07-14T22:53:44Z</time>
      </trkpt>
      <trkpt lat="35.931697930" lon="-106.501501630">
        <ele>2640.600</ele>
        <time>2019-07-14T22:53:45Z</time>
      </trkpt>
      <trkpt lat="35.931647400" lon="-106.501436230">
        <ele>2640.100</ele>
        <time>2019-07-14T22:53:46Z</time>
      </trkpt>
      <trkpt lat="35.931601030" lon="-106.501401800">
        <ele>2640.100</ele>
        <time>2019-07-14T22:53:47Z</time>
      </trkpt>
      <trkpt lat="35.931560240" lon="-106.501367200">
        <ele>2640.000</ele>
        <time>2019-07-14T22:53:48Z</time>
      </trkpt>
      <trkpt lat="35.931520110" lon="-106.501341760">
        <ele>2640.400</ele>
        <time>2019-07-14T22:53:49Z</time>
      </trkpt>
      <trkpt lat="35.931484020" lon="-106.501317670">
        <ele>2640.100</ele>
        <time>2019-07-14T22:53:50Z</time>
      </trkpt>
      <trkpt lat="35.931442150" lon="-106.501305090">
        <ele>2639.300</ele>
        <time>2019-07-14T22:53:51Z</time>
      </trkpt>
      <trkpt lat="35.931388590" lon="-106.501285850">
        <ele>2640.400</ele>
        <time>2019-07-14T22:53:53Z</time>
      </trkpt>
      <trkpt lat="35.931353290" lon="-106.501271640">
        <ele>2640.000</ele>
        <time>2019-07-14T22:53:55Z</time>
      </trkpt>
      <trkpt lat="35.931313360" lon="-106.501267850">
        <ele>2639.600</ele>
        <time>2019-07-14T22:53:58Z</time>
      </trkpt>
      <trkpt lat="35.931244900" lon="-106.501255760">
        <ele>2638.800</ele>
        <time>2019-07-14T22:54:00Z</time>
      </trkpt>
      <trkpt lat="35.931208630" lon="-106.501259090">
        <ele>2639.500</ele>
        <time>2019-07-14T22:54:01Z</time>
      </trkpt>
      <trkpt lat="35.931158480" lon="-106.501249670">
        <ele>2639.300</ele>
        <time>2019-07-14T22:54:02Z</time>
      </trkpt>
      <trkpt lat="35.931099520" lon="-106.501246130">
        <ele>2640.500</ele>
        <time>2019-07-14T22:54:03Z</time>
      </trkpt>
      <trkpt lat="35.931029520" lon="-106.501226450">
        <ele>2639.700</ele>
        <time>2019-07-14T22:54:04Z</time>
      </trkpt>
      <trkpt lat="35.930968770" lon="-106.501214340">
        <ele>2639.200</ele>
        <time>2019-07-14T22:54:05Z</time>
      </trkpt>
      <trkpt lat="35.930894120" lon="-106.501192840">
        <ele>2638.600</ele>
        <time>2019-07-14T22:54:06Z</time>
      </trkpt>
      <trkpt lat="35.930821680" lon="-106.501201310">
        <ele>2638.700</ele>
        <time>2019-07-14T22:54:07Z</time>
      </trkpt>
      <trkpt lat="35.930738030" lon="-106.501204780">
        <ele>2638.500</ele>
        <time>2019-07-14T22:54:08Z</time>
      </trkpt>
      <trkpt lat="35.930659360" lon="-106.501220710">
        <ele>2638.900</ele>
        <time>2019-07-14T22:54:09Z</time>
      </trkpt>
      <trkpt lat="35.930574880" lon="-106.501247300">
        <ele>2638.600</ele>
        <time>2019-07-14T22:54:10Z</time>
      </trkpt>
      <trkpt lat="35.930492140" lon="-106.501292120">
        <ele>2639.000</ele>
        <time>2019-07-14T22:54:11Z</time>
      </trkpt>
      <trkpt lat="35.930419200" lon="-106.501348560">
        <ele>2638.900</ele>
        <time>2019-07-14T22:54:12Z</time>
      </trkpt>
      <trkpt lat="35.930354410" lon="-106.501411550">
        <ele>2640.500</ele>
        <time>2019-07-14T22:54:13Z</time>
      </trkpt>
      <trkpt lat="35.930300600" lon="-106.501481780">
        <ele>2641.000</ele>
        <time>2019-07-14T22:54:14Z</time>
      </trkpt>
      <trkpt lat="35.930248490" lon="-106.501556910">
        <ele>2640.700</ele>
        <time>2019-07-14T22:54:15Z</time>
      </trkpt>
      <trkpt lat="35.930197440" lon="-106.501624410">
        <ele>2641.100</ele>
        <time>2019-07-14T22:54:16Z</time>
      </trkpt>
      <trkpt lat="35.930142080" lon="-106.501682500">
        <ele>2642.300</ele>
        <time>2019-07-14T22:54:17Z</time>
      </trkpt>
      <trkpt lat="35.930079280" lon="-106.501734060">
        <ele>2642.000</ele>
        <time>2019-07-14T22:54:18Z</time>
      </trkpt>
      <trkpt lat="35.930010020" lon="-106.501786420">
        <ele>2642.800</ele>
        <time>2019-07-14T22:54:19Z</time>
      </trkpt>
      <trkpt lat="35.929936360" lon="-106.501822910">
        <ele>2642.900</ele>
        <time>2019-07-14T22:54:20Z</time>
      </trkpt>
      <trkpt lat="35.929856570" lon="-106.501847510">
        <ele>2642.600</ele>
        <time>2019-07-14T22:54:21Z</time>
      </trkpt>
      <trkpt lat="35.929774240" lon="-106.501868790">
        <ele>2642.500</ele>
        <time>2019-07-14T22:54:22Z</time>
      </trkpt>
      <trkpt lat="35.929694560" lon="-106.501887420">
        <ele>2643.800</ele>
        <time>2019-07-14T22:54:23Z</time>
      </trkpt>
      <trkpt lat="35.929610140" lon="-106.501908960">
        <ele>2644.500</ele>
        <time>2019-07-14T22:54:24Z</time>
      </trkpt>
      <trkpt lat="35.929520280" lon="-106.501924130">
        <ele>2645.300</ele>
        <time>2019-07-14T22:54:25Z</time>
      </trkpt>
      <trkpt lat="35.929431660" lon="-106.501935260">
        <ele>2645.300</ele>
        <time>2019-07-14T22:54:26Z</time>
      </trkpt>
      <trkpt lat="35.929345640" lon="-106.501946450">
        <ele>2645.100</ele>
        <time>2019-07-14T22:54:27Z</time>
      </trkpt>
      <trkpt lat="35.929256960" lon="-106.501955840">
        <ele>2645.200</ele>
        <time>2019-07-14T22:54:28Z</time>
      </trkpt>
      <trkpt lat="35.929167560" lon="-106.501960580">
        <ele>2644.600</ele>
        <time>2019-07-14T22:54:29Z</time>
      </trkpt>
      <trkpt lat="35.929080950" lon="-106.501968640">
        <ele>2644.300</ele>
        <time>2019-07-14T22:54:30Z</time>
      </trkpt>
      <trkpt lat="35.929001370" lon="-106.501985170">
        <ele>2647.000</ele>
        <time>2019-07-14T22:54:31Z</time>
      </trkpt>
      <trkpt lat="35.928917580" lon="-106.502012750">
        <ele>2646.200</ele>
        <time>2019-07-14T22:54:32Z</time>
      </trkpt>
      <trkpt lat="35.928832090" lon="-106.502041130">
        <ele>2646.800</ele>
        <time>2019-07-14T22:54:33Z</time>
      </trkpt>
      <trkpt lat="35.928743630" lon="-106.502070120">
        <ele>2646.200</ele>
        <time>2019-07-14T22:54:34Z</time>
      </trkpt>
      <trkpt lat="35.928662000" lon="-106.502102390">
        <ele>2646.800</ele>
        <time>2019-07-14T22:54:35Z</time>
      </trkpt>
      <trkpt lat="35.928577900" lon="-106.502137550">
        <ele>2646.700</ele>
        <time>2019-07-14T22:54:36Z</time>
      </trkpt>
      <trkpt lat="35.928495390" lon="-106.502175300">
        <ele>2646.700</ele>
        <time>2019-07-14T22:54:37Z</time>
      </trkpt>
      <trkpt lat="35.928410010" lon="-106.502220460">
        <ele>2647.000</ele>
        <time>2019-07-14T22:54:38Z</time>
      </trkpt>
      <trkpt lat="35.928324290" lon="-106.502262940">
        <ele>2646.600</ele>
        <time>2019-07-14T22:54:39Z</time>
      </trkpt>
      <trkpt lat="35.928235900" lon="-106.502309060">
        <ele>2646.400</ele>
        <time>2019-07-14T22:54:40Z</time>
      </trkpt>
      <trkpt lat="35.928150990" lon="-106.502352970">
        <ele>2646.300</ele>
        <time>2019-07-14T22:54:41Z</time>
      </trkpt>
      <trkpt lat="35.928062580" lon="-106.502400780">
        <ele>2646.900</ele>
        <time>2019-07-14T22:54:42Z</time>
      </trkpt>
      <trkpt lat="35.927969030" lon="-106.502443220">
        <ele>2646.900</ele>
        <time>2019-07-14T22:54:43Z</time>
      </trkpt>
      <trkpt lat="35.927872580" lon="-106.502479980">
        <ele>2646.500</ele>
        <time>2019-07-14T22:54:44Z</time>
      </trkpt>
      <trkpt lat="35.927774310" lon="-106.502506290">
        <ele>2647.000</ele>
        <time>2019-07-14T22:54:45Z</time>
      </trkpt>
      <trkpt lat="35.927675780" lon="-106.502521000">
        <ele>2647.400</ele>
        <time>2019-07-14T22:54:46Z</time>
      </trkpt>
      <trkpt lat="35.927577200" lon="-106.502525640">
        <ele>2648.600</ele>
        <time>2019-07-14T22:54:47Z</time>
      </trkpt>
      <trkpt lat="35.927475180" lon="-106.502514490">
        <ele>2648.600</ele>
        <time>2019-07-14T22:54:48Z</time>
      </trkpt>
      <trkpt lat="35.927377360" lon="-106.502483080">
        <ele>2648.100</ele>
        <time>2019-07-14T22:54:49Z</time>
      </trkpt>
      <trkpt lat="35.927275590" lon="-106.502452450">
        <ele>2648.800</ele>
        <time>2019-07-14T22:54:50Z</time>
      </trkpt>
      <trkpt lat="35.927177190" lon="-106.502411240">
        <ele>2648.700</ele>
        <time>2019-07-14T22:54:51Z</time>
      </trkpt>
      <trkpt lat="35.927080940" lon="-106.502370110">
        <ele>2649.200</ele>
        <time>2019-07-14T22:54:52Z</time>
      </trkpt>
      <trkpt lat="35.926984140" lon="-106.502326510">
        <ele>2649.500</ele>
        <time>2019-07-14T22:54:53Z</time>
      </trkpt>
      <trkpt lat="35.926885990" lon="-106.502289860">
        <ele>2649.500</ele>
        <time>2019-07-14T22:54:54Z</time>
      </trkpt>
      <trkpt lat="35.926787320" lon="-106.502250110">
        <ele>2649.400</ele>
        <time>2019-07-14T22:54:55Z</time>
      </trkpt>
      <trkpt lat="35.926687030" lon="-106.502209660">
        <ele>2649.500</ele>
        <time>2019-07-14T22:54:56Z</time>
      </trkpt>
      <trkpt lat="35.926580780" lon="-106.502178730">
        <ele>2649.300</ele>
        <time>2019-07-14T22:54:57Z</time>
      </trkpt>
      <trkpt lat="35.926475490" lon="-106.502164760">
        <ele>2649.100</ele>
        <time>2019-07-14T22:54:58Z</time>
      </trkpt>
      <trkpt lat="35.926370860" lon="-106.502153600">
        <ele>2649.100</ele>
        <time>2019-07-14T22:54:59Z</time>
      </trkpt>
      <trkpt lat="35.926260690" lon="-106.502147120">
        <ele>2648.900</ele>
        <time>2019-07-14T22:55:00Z</time>
      </trkpt>
      <trkpt lat="35.926156990" lon="-106.502148950">
        <ele>2648.700</ele>
        <time>2019-07-14T22:55:01Z</time>
      </trkpt>
      <trkpt lat="35.926052560" lon="-106.502143860">
        <ele>2649.800</ele>
        <time>2019-07-14T22:55:02Z</time>
      </trkpt>
      <trkpt lat="35.925940080" lon="-106.502144650">
        <ele>2648.300</ele>
        <time>2019-07-14T22:55:03Z</time>
      </trkpt>
      <trkpt lat="35.925836200" lon="-106.502158950">
        <ele>2648.400</ele>
        <time>2019-07-14T22:55:04Z</time>
      </trkpt>
      <trkpt lat="35.925746530" lon="-106.502196000">
        <ele>2648.200</ele>
        <time>2019-07-14T22:55:05Z</time>
      </trkpt>
      <trkpt lat="35.925655860" lon="-106.502250220">
        <ele>2647.900</ele>
        <time>2019-07-14T22:55:06Z</time>
      </trkpt>
      <trkpt lat="35.925567160" lon="-106.502324120">
        <ele>2649.300</ele>
        <time>2019-07-14T22:55:07Z</time>
      </trkpt>
      <trkpt lat="35.925484820" lon="-106.502403290">
        <ele>2648.800</ele>
        <time>2019-07-14T22:55:08Z</time>
      </trkpt>
      <trkpt lat="35.925399600" lon="-106.502473250">
        <ele>2650.200</ele>
        <time>2019-07-14T22:55:09Z</time>
      </trkpt>
      <trkpt lat="35.925317900" lon="-106.502541960">
        <ele>2650.400</ele>
        <time>2019-07-14T22:55:10Z</time>
      </trkpt>
      <trkpt lat="35.925242000" lon="-106.502613890">
        <ele>2650.700</ele>
        <time>2019-07-14T22:55:11Z</time>
      </trkpt>
      <trkpt lat="35.925168360" lon="-106.502676830">
        <ele>2650.800</ele>
        <time>2019-07-14T22:55:12Z</time>
      </trkpt>
      <trkpt lat="35.925089330" lon="-106.502719470">
        <ele>2650.400</ele>
        <time>2019-07-14T22:55:13Z</time>
      </trkpt>
      <trkpt lat="35.925010800" lon="-106.502755580">
        <ele>2649.900</ele>
        <time>2019-07-14T22:55:14Z</time>
      </trkpt>
      <trkpt lat="35.924926320" lon="-106.502779770">
        <ele>2651.600</ele>
        <time>2019-07-14T22:55:15Z</time>
      </trkpt>
      <trkpt lat="35.924831940" lon="-106.502782880">
        <ele>2651.800</ele>
        <time>2019-07-14T22:55:16Z</time>
      </trkpt>
      <trkpt lat="35.924736380" lon="-106.502777730">
        <ele>2651.600</ele>
        <time>2019-07-14T22:55:17Z</time>
      </trkpt>
      <trkpt lat="35.924635990" lon="-106.502771080">
        <ele>2651.500</ele>
        <time>2019-07-14T22:55:18Z</time>
      </trkpt>
      <trkpt lat="35.924534410" lon="-106.502761540">
        <ele>2651.400</ele>
        <time>2019-07-14T22:55:19Z</time>
      </trkpt>
      <trkpt lat="35.924433970" lon="-106.502746310">
        <ele>2651.000</ele>
        <time>2019-07-14T22:55:20Z</time>
      </trkpt>
      <trkpt lat="35.924332270" lon="-106.502735730">
        <ele>2651.100</ele>
        <time>2019-07-14T22:55:21Z</time>
      </trkpt>
      <trkpt lat="35.924241070" lon="-106.502717030">
        <ele>2651.600</ele>
        <time>2019-07-14T22:55:22Z</time>
      </trkpt>
      <trkpt lat="35.924137750" lon="-106.502698930">
        <ele>2651.800</ele>
        <time>2019-07-14T22:55:23Z</time>
      </trkpt>
      <trkpt lat="35.924042700" lon="-106.502680530">
        <ele>2652.000</ele>
        <time>2019-07-14T22:55:24Z</time>
      </trkpt>
      <trkpt lat="35.923943930" lon="-106.502655750">
        <ele>2652.900</ele>
        <time>2019-07-14T22:55:25Z</time>
      </trkpt>
      <trkpt lat="35.923842280" lon="-106.502627860">
        <ele>2652.900</ele>
        <time>2019-07-14T22:55:26Z</time>
      </trkpt>
      <trkpt lat="35.923739880" lon="-106.502597750">
        <ele>2653.500</ele>
        <time>2019-07-14T22:55:27Z</time>
      </trkpt>
      <trkpt lat="35.923637050" lon="-106.502550230">
        <ele>2654.600</ele>
        <time>2019-07-14T22:55:28Z</time>
      </trkpt>
      <trkpt lat="35.923535890" lon="-106.502496710">
        <ele>2653.900</ele>
        <time>2019-07-14T22:55:29Z</time>
      </trkpt>
      <trkpt lat="35.923443220" lon="-106.502442560">
        <ele>2653.800</ele>
        <time>2019-07-14T22:55:30Z</time>
      </trkpt>
      <trkpt lat="35.923371670" lon="-106.502361830">
        <ele>2655.300</ele>
        <time>2019-07-14T22:55:31Z</time>
      </trkpt>
      <trkpt lat="35.923290350" lon="-106.502309420">
        <ele>2655.300</ele>
        <time>2019-07-14T22:55:32Z</time>
      </trkpt>
      <trkpt lat="35.923203730" lon="-106.502249280">
        <ele>2655.600</ele>
        <time>2019-07-14T22:55:33Z</time>
      </trkpt>
      <trkpt lat="35.923113900" lon="-106.502194430">
        <ele>2655.900</ele>
        <time>2019-07-14T22:55:34Z</time>
      </trkpt>
      <trkpt lat="35.923024790" lon="-106.502125480">
        <ele>2657.600</ele>
        <time>2019-07-14T22:55:35Z</time>
      </trkpt>
      <trkpt lat="35.922924830" lon="-106.502062440">
        <ele>2657.400</ele>
        <time>2019-07-14T22:55:36Z</time>
      </trkpt>
      <trkpt lat="35.922831520" lon="-106.501996380">
        <ele>2658.500</ele>
        <time>2019-07-14T22:55:37Z</time>
      </trkpt>
      <trkpt lat="35.922733920" lon="-106.501924910">
        <ele>2658.800</ele>
        <time>2019-07-14T22:55:38Z</time>
      </trkpt>
      <trkpt lat="35.922639890" lon="-106.501854500">
        <ele>2658.900</ele>
        <time>2019-07-14T22:55:39Z</time>
      </trkpt>
      <trkpt lat="35.922541930" lon="-106.501777150">
        <ele>2659.100</ele>
        <time>2019-07-14T22:55:40Z</time>
      </trkpt>
      <trkpt lat="35.922444280" lon="-106.501704530">
        <ele>2659.300</ele>
        <time>2019-07-14T22:55:41Z</time>
      </trkpt>
      <trkpt lat="35.922350600" lon="-106.501626750">
        <ele>2660.200</ele>
        <time>2019-07-14T22:55:42Z</time>
      </trkpt>
      <trkpt lat="35.922253810" lon="-106.501561970">
        <ele>2660.600</ele>
        <time>2019-07-14T22:55:43Z</time>
      </trkpt>
      <trkpt lat="35.922160700" lon="-106.501507490">
        <ele>2661.100</ele>
        <time>2019-07-14T22:55:44Z</time>
      </trkpt>
      <trkpt lat="35.922079230" lon="-106.501463080">
        <ele>2661.500</ele>
        <time>2019-07-14T22:55:45Z</time>
      </trkpt>
      <trkpt lat="35.921980880" lon="-106.501415810">
        <ele>2661.600</ele>
        <time>2019-07-14T22:55:46Z</time>
      </trkpt>
      <trkpt lat="35.921885020" lon="-106.501378080">
        <ele>2661.300</ele>
        <time>2019-07-14T22:55:47Z</time>
      </trkpt>
      <trkpt lat="35.921811530" lon="-106.501340760">
        <ele>2662.100</ele>
        <time>2019-07-14T22:55:48Z</time>
      </trkpt>
      <trkpt lat="35.921745450" lon="-106.501300940">
        <ele>2661.900</ele>
        <time>2019-07-14T22:55:49Z</time>
      </trkpt>
      <trkpt lat="35.921694850" lon="-106.501258730">
        <ele>2662.300</ele>
        <time>2019-07-14T22:55:50Z</time>
      </trkpt>
      <trkpt lat="35.921654060" lon="-106.501217920">
        <ele>2662.900</ele>
        <time>2019-07-14T22:55:51Z</time>
      </trkpt>
      <trkpt lat="35.921612750" lon="-106.501187230">
        <ele>2663.100</ele>
        <time>2019-07-14T22:55:52Z</time>
      </trkpt>
      <trkpt lat="35.921574590" lon="-106.501150500">
        <ele>2663.300</ele>
        <time>2019-07-14T22:55:53Z</time>
      </trkpt>
      <trkpt lat="35.921535580" lon="-106.501108530">
        <ele>2663.700</ele>
        <time>2019-07-14T22:55:54Z</time>
      </trkpt>
      <trkpt lat="35.921484820" lon="-106.501061880">
        <ele>2663.600</ele>
        <time>2019-07-14T22:55:55Z</time>
      </trkpt>
      <trkpt lat="35.921436580" lon="-106.501010570">
        <ele>2663.400</ele>
        <time>2019-07-14T22:55:56Z</time>
      </trkpt>
      <trkpt lat="35.921385470" lon="-106.500953430">
        <ele>2663.100</ele>
        <time>2019-07-14T22:55:57Z</time>
      </trkpt>
      <trkpt lat="35.921334750" lon="-106.500887840">
        <ele>2662.800</ele>
        <time>2019-07-14T22:55:58Z</time>
      </trkpt>
      <trkpt lat="35.921274150" lon="-106.500819390">
        <ele>2662.300</ele>
        <time>2019-07-14T22:55:59Z</time>
      </trkpt>
      <trkpt lat="35.921215090" lon="-106.500743010">
        <ele>2662.100</ele>
        <time>2019-07-14T22:56:00Z</time>
      </trkpt>
      <trkpt lat="35.921150400" lon="-106.500669320">
        <ele>2661.200</ele>
        <time>2019-07-14T22:56:01Z</time>
      </trkpt>
      <trkpt lat="35.921081700" lon="-106.500588580">
        <ele>2660.800</ele>
        <time>2019-07-14T22:56:02Z</time>
      </trkpt>
      <trkpt lat="35.921015890" lon="-106.500496700">
        <ele>2659.400</ele>
        <time>2019-07-14T22:56:03Z</time>
      </trkpt>
      <trkpt lat="35.920964100" lon="-106.500418180">
        <ele>2659.300</ele>
        <time>2019-07-14T22:56:04Z</time>
      </trkpt>
      <trkpt lat="35.920902440" lon="-106.500332520">
        <ele>2659.200</ele>
        <time>2019-07-14T22:56:05Z</time>
      </trkpt>
      <trkpt lat="35.920836380" lon="-106.500252360">
        <ele>2659.200</ele>
        <time>2019-07-14T22:56:06Z</time>
      </trkpt>
      <trkpt lat="35.920769440" lon="-106.500163100">
        <ele>2658.300</ele>
        <time>2019-07-14T22:56:07Z</time>
      </trkpt>
      <trkpt lat="35.920703420" lon="-106.500076400">
        <ele>2658.400</ele>
        <time>2019-07-14T22:56:08Z</time>
      </trkpt>
      <trkpt lat="35.920635470" lon="-106.499997190">
        <ele>2658.100</ele>
        <time>2019-07-14T22:56:09Z</time>
      </trkpt>
      <trkpt lat="35.920577770" lon="-106.499909290">
        <ele>2658.200</ele>
        <time>2019-07-14T22:56:10Z</time>
      </trkpt>
      <trkpt lat="35.920507270" lon="-106.499837060">
        <ele>2657.700</ele>
        <time>2019-07-14T22:56:11Z</time>
      </trkpt>
      <trkpt lat="35.920437540" lon="-106.499757530">
        <ele>2659.000</ele>
        <time>2019-07-14T22:56:12Z</time>
      </trkpt>
      <trkpt lat="35.920365400" lon="-106.499670410">
        <ele>2659.300</ele>
        <time>2019-07-14T22:56:13Z</time>
      </trkpt>
      <trkpt lat="35.920294190" lon="-106.499584770">
        <ele>2659.400</ele>
        <time>2019-07-14T22:56:14Z</time>
      </trkpt>
      <trkpt lat="35.920227200" lon="-106.499501280">
        <ele>2659.700</ele>
        <time>2019-07-14T22:56:15Z</time>
      </trkpt>
      <trkpt lat="35.920146090" lon="-106.499426290">
        <ele>2659.300</ele>
        <time>2019-07-14T22:56:16Z</time>
      </trkpt>
      <trkpt lat="35.920060090" lon="-106.499354680">
        <ele>2658.600</ele>
        <time>2019-07-14T22:56:17Z</time>
      </trkpt>
      <trkpt lat="35.919983880" lon="-106.499291500">
        <ele>2658.200</ele>
        <time>2019-07-14T22:56:18Z</time>
      </trkpt>
      <trkpt lat="35.919917220" lon="-106.499227850">
        <ele>2658.000</ele>
        <time>2019-07-14T22:56:19Z</time>
      </trkpt>
      <trkpt lat="35.919833470" lon="-106.499169030">
        <ele>2658.000</ele>
        <time>2019-07-14T22:56:20Z</time>
      </trkpt>
      <trkpt lat="35.919778140" lon="-106.499111500">
        <ele>2657.400</ele>
        <time>2019-07-14T22:56:21Z</time>
      </trkpt>
      <trkpt lat="35.919696480" lon="-106.499042220">
        <ele>2657.300</ele>
        <time>2019-07-14T22:56:22Z</time>
      </trkpt>
      <trkpt lat="35.919611010" lon="-106.498966710">
        <ele>2657.500</ele>
        <time>2019-07-14T22:56:23Z</time>
      </trkpt>
      <trkpt lat="35.919530460" lon="-106.498885380">
        <ele>2657.900</ele>
        <time>2019-07-14T22:56:24Z</time>
      </trkpt>
      <trkpt lat="35.919448690" lon="-106.498816260">
        <ele>2657.800</ele>
        <time>2019-07-14T22:56:25Z</time>
      </trkpt>
      <trkpt lat="35.919358870" lon="-106.498747260">
        <ele>2658.000</ele>
        <time>2019-07-14T22:56:26Z</time>
      </trkpt>
      <trkpt lat="35.919266340" lon="-106.498693440">
        <ele>2656.100</ele>
        <time>2019-07-14T22:56:27Z</time>
      </trkpt>
      <trkpt lat="35.919172310" lon="-106.498618890">
        <ele>2657.100</ele>
        <time>2019-07-14T22:56:28Z</time>
      </trkpt>
      <trkpt lat="35.919093460" lon="-106.498555950">
        <ele>2657.100</ele>
        <time>2019-07-14T22:56:29Z</time>
      </trkpt>
      <trkpt lat="35.919009010" lon="-106.498482700">
        <ele>2657.400</ele>
        <time>2019-07-14T22:56:30Z</time>
      </trkpt>
      <trkpt lat="35.918920430" lon="-106.498417460">
        <ele>2657.100</ele>
        <time>2019-07-14T22:56:31Z</time>
      </trkpt>
      <trkpt lat="35.918837600" lon="-106.498348520">
        <ele>2656.900</ele>
        <time>2019-07-14T22:56:32Z</time>
      </trkpt>
      <trkpt lat="35.918755840" lon="-106.498279220">
        <ele>2657.200</ele>
        <time>2019-07-14T22:56:33Z</time>
      </trkpt>
      <trkpt lat="35.918678270" lon="-106.498225620">
        <ele>2656.300</ele>
        <time>2019-07-14T22:56:34Z</time>
      </trkpt>
      <trkpt lat="35.918590550" lon="-106.498156960">
        <ele>2655.800</ele>
        <time>2019-07-14T22:56:35Z</time>
      </trkpt>
      <trkpt lat="35.918502240" lon="-106.498081730">
        <ele>2656.100</ele>
        <time>2019-07-14T22:56:36Z</time>
      </trkpt>
      <trkpt lat="35.918418400" lon="-106.498017510">
        <ele>2656.300</ele>
        <time>2019-07-14T22:56:37Z</time>
      </trkpt>
      <trkpt lat="35.918331010" lon="-106.497950570">
        <ele>2655.700</ele>
        <time>2019-07-14T22:56:38Z</time>
      </trkpt>
      <trkpt lat="35.918237420" lon="-106.497883270">
        <ele>2655.900</ele>
        <time>2019-07-14T22:56:39Z</time>
      </trkpt>
      <trkpt lat="35.918147910" lon="-106.497821960">
        <ele>2655.300</ele>
        <time>2019-07-14T22:56:40Z</time>
      </trkpt>
      <trkpt lat="35.918072050" lon="-106.497763130">
        <ele>2654.800</ele>
        <time>2019-07-14T22:56:41Z</time>
      </trkpt>
      <trkpt lat="35.918008300" lon="-106.497696390">
        <ele>2654.600</ele>
        <time>2019-07-14T22:56:42Z</time>
      </trkpt>
      <trkpt lat="35.917935040" lon="-106.497639460">
        <ele>2654.300</ele>
        <time>2019-07-14T22:56:43Z</time>
      </trkpt>
      <trkpt lat="35.917862620" lon="-106.497585080">
        <ele>2653.900</ele>
        <time>2019-07-14T22:56:44Z</time>
      </trkpt>
      <trkpt lat="35.917796600" lon="-106.497535460">
        <ele>2654.300</ele>
        <time>2019-07-14T22:56:45Z</time>
      </trkpt>
      <trkpt lat="35.917716370" lon="-106.497480610">
        <ele>2653.900</ele>
        <time>2019-07-14T22:56:46Z</time>
      </trkpt>
      <trkpt lat="35.917635550" lon="-106.497438010">
        <ele>2652.500</ele>
        <time>2019-07-14T22:56:47Z</time>
      </trkpt>
      <trkpt lat="35.917555620" lon="-106.497381500">
        <ele>2652.300</ele>
        <time>2019-07-14T22:56:48Z</time>
      </trkpt>
      <trkpt lat="35.917478570" lon="-106.497342150">
        <ele>2651.200</ele>
        <time>2019-07-14T22:56:49Z</time>
      </trkpt>
      <trkpt lat="35.917400000" lon="-106.497331810">
        <ele>2652.000</ele>
        <time>2019-07-14T22:56:50Z</time>
      </trkpt>
      <trkpt lat="35.917318570" lon="-106.497307330">
        <ele>2654.000</ele>
        <time>2019-07-14T22:56:51Z</time>
      </trkpt>
      <trkpt lat="35.917242540" lon="-106.497282520">
        <ele>2654.000</ele>
        <time>2019-07-14T22:56:52Z</time>
      </trkpt>
      <trkpt lat="35.917153590" lon="-106.497256620">
        <ele>2653.500</ele>
        <time>2019-07-14T22:56:53Z</time>
      </trkpt>
      <trkpt lat="35.917066520" lon="-106.497237670">
        <ele>2652.900</ele>
        <time>2019-07-14T22:56:54Z</time>
      </trkpt>
      <trkpt lat="35.916979680" lon="-106.497217790">
        <ele>2653.000</ele>
        <time>2019-07-14T22:56:55Z</time>
      </trkpt>
      <trkpt lat="35.916897980" lon="-106.497192550">
        <ele>2653.400</ele>
        <time>2019-07-14T22:56:56Z</time>
      </trkpt>
      <trkpt lat="35.916813640" lon="-106.497150610">
        <ele>2652.400</ele>
        <time>2019-07-14T22:56:57Z</time>
      </trkpt>
      <trkpt lat="35.916725790" lon="-106.497090870">
        <ele>2651.300</ele>
        <time>2019-07-14T22:56:58Z</time>
      </trkpt>
      <trkpt lat="35.916645360" lon="-106.497040740">
        <ele>2651.000</ele>
        <time>2019-07-14T22:56:59Z</time>
      </trkpt>
      <trkpt lat="35.916567300" lon="-106.496983680">
        <ele>2650.200</ele>
        <time>2019-07-14T22:57:00Z</time>
      </trkpt>
      <trkpt lat="35.916492680" lon="-106.496922050">
        <ele>2650.600</ele>
        <time>2019-07-14T22:57:01Z</time>
      </trkpt>
      <trkpt lat="35.916417360" lon="-106.496853650">
        <ele>2650.500</ele>
        <time>2019-07-14T22:57:02Z</time>
      </trkpt>
      <trkpt lat="35.916340660" lon="-106.496786880">
        <ele>2650.500</ele>
        <time>2019-07-14T22:57:03Z</time>
      </trkpt>
      <trkpt lat="35.916266180" lon="-106.496717150">
        <ele>2650.600</ele>
        <time>2019-07-14T22:57:04Z</time>
      </trkpt>
      <trkpt lat="35.916185880" lon="-106.496620450">
        <ele>2649.600</ele>
        <time>2019-07-14T22:57:05Z</time>
      </trkpt>
      <trkpt lat="35.916113910" lon="-106.496538040">
        <ele>2649.800</ele>
        <time>2019-07-14T22:57:06Z</time>
      </trkpt>
      <trkpt lat="35.916040760" lon="-106.496449880">
        <ele>2649.400</ele>
        <time>2019-07-14T22:57:07Z</time>
      </trkpt>
      <trkpt lat="35.915980220" lon="-106.496352620">
        <ele>2647.400</ele>
        <time>2019-07-14T22:57:08Z</time>
      </trkpt>
      <trkpt lat="35.915918070" lon="-106.496254530">
        <ele>2647.200</ele>
        <time>2019-07-14T22:57:09Z</time>
      </trkpt>
      <trkpt lat="35.915856610" lon="-106.496149830">
        <ele>2646.300</ele>
        <time>2019-07-14T22:57:10Z</time>
      </trkpt>
      <trkpt lat="35.915792180" lon="-106.496043640">
        <ele>2645.600</ele>
        <time>2019-07-14T22:57:11Z</time>
      </trkpt>
      <trkpt lat="35.915732970" lon="-106.495941500">
        <ele>2644.600</ele>
        <time>2019-07-14T22:57:12Z</time>
      </trkpt>
      <trkpt lat="35.915678410" lon="-106.495841540">
        <ele>2643.600</ele>
        <time>2019-07-14T22:57:13Z</time>
      </trkpt>
      <trkpt lat="35.915627800" lon="-106.495729370">
        <ele>2644.300</ele>
        <time>2019-07-14T22:57:14Z</time>
      </trkpt>
      <trkpt lat="35.915570180" lon="-106.495620700">
        <ele>2644.100</ele>
        <time>2019-07-14T22:57:15Z</time>
      </trkpt>
      <trkpt lat="35.915513960" lon="-106.495528150">
        <ele>2643.600</ele>
        <time>2019-07-14T22:57:16Z</time>
      </trkpt>
      <trkpt lat="35.915457630" lon="-106.495419850">
        <ele>2643.400</ele>
        <time>2019-07-14T22:57:17Z</time>
      </trkpt>
      <trkpt lat="35.915411750" lon="-106.495325450">
        <ele>2643.800</ele>
        <time>2019-07-14T22:57:18Z</time>
      </trkpt>
      <trkpt lat="35.915358790" lon="-106.495222500">
        <ele>2643.500</ele>
        <time>2019-07-14T22:57:19Z</time>
      </trkpt>
      <trkpt lat="35.915307470" lon="-106.495114240">
        <ele>2642.700</ele>
        <time>2019-07-14T22:57:20Z</time>
      </trkpt>
      <trkpt lat="35.915259250" lon="-106.495005740">
        <ele>2642.900</ele>
        <time>2019-07-14T22:57:21Z</time>
      </trkpt>
      <trkpt lat="35.915235420" lon="-106.494889340">
        <ele>2643.300</ele>
        <time>2019-07-14T22:57:22Z</time>
      </trkpt>
      <trkpt lat="35.915208100" lon="-106.494790930">
        <ele>2642.200</ele>
        <time>2019-07-14T22:57:23Z</time>
      </trkpt>
      <trkpt lat="35.915190440" lon="-106.494677520">
        <ele>2641.400</ele>
        <time>2019-07-14T22:57:24Z</time>
      </trkpt>
      <trkpt lat="35.915183720" lon="-106.494571490">
        <ele>2641.600</ele>
        <time>2019-07-14T22:57:25Z</time>
      </trkpt>
      <trkpt lat="35.915190270" lon="-106.494464160">
        <ele>2640.400</ele>
        <time>2019-07-14T22:57:26Z</time>
      </trkpt>
      <trkpt lat="35.915213040" lon="-106.494367280">
        <ele>2640.100</ele>
        <time>2019-07-14T22:57:27Z</time>
      </trkpt>
      <trkpt lat="35.915239390" lon="-106.494269380">
        <ele>2639.900</ele>
        <time>2019-07-14T22:57:28Z</time>
      </trkpt>
      <trkpt lat="35.915258570" lon="-106.494170050">
        <ele>2639.600</ele>
        <time>2019-07-14T22:57:29Z</time>
      </trkpt>
      <trkpt lat="35.915266740" lon="-106.494069440">
        <ele>2639.100</ele>
        <time>2019-07-14T22:57:30Z</time>
      </trkpt>
      <trkpt lat="35.915268860" lon="-106.493966980">
        <ele>2639.000</ele>
        <time>2019-07-14T22:57:31Z</time>
      </trkpt>
      <trkpt lat="35.915256460" lon="-106.493868270">
        <ele>2638.800</ele>
        <time>2019-07-14T22:57:32Z</time>
      </trkpt>
      <trkpt lat="35.915231540" lon="-106.493772450">
        <ele>2639.000</ele>
        <time>2019-07-14T22:57:33Z</time>
      </trkpt>
      <trkpt lat="35.915206170" lon="-106.493676920">
        <ele>2639.400</ele>
        <time>2019-07-14T22:57:34Z</time>
      </trkpt>
      <trkpt lat="35.915170970" lon="-106.493578990">
        <ele>2639.100</ele>
        <time>2019-07-14T22:57:35Z</time>
      </trkpt>
      <trkpt lat="35.915127290" lon="-106.493482320">
        <ele>2639.000</ele>
        <time>2019-07-14T22:57:36Z</time>
      </trkpt>
      <trkpt lat="35.915080760" lon="-106.493376560">
        <ele>2640.000</ele>
        <time>2019-07-14T22:57:37Z</time>
      </trkpt>
      <trkpt lat="35.915034220" lon="-106.493276890">
        <ele>2640.000</ele>
        <time>2019-07-14T22:57:38Z</time>
      </trkpt>
      <trkpt lat="35.914988560" lon="-106.493183080">
        <ele>2640.600</ele>
        <time>2019-07-14T22:57:39Z</time>
      </trkpt>
      <trkpt lat="35.914938850" lon="-106.493088790">
        <ele>2639.700</ele>
        <time>2019-07-14T22:57:40Z</time>
      </trkpt>
      <trkpt lat="35.914892250" lon="-106.492983470">
        <ele>2639.000</ele>
        <time>2019-07-14T22:57:41Z</time>
      </trkpt>
      <trkpt lat="35.914841940" lon="-106.492873910">
        <ele>2638.300</ele>
        <time>2019-07-14T22:57:42Z</time>
      </trkpt>
      <trkpt lat="35.914791710" lon="-106.492765510">
        <ele>2638.500</ele>
        <time>2019-07-14T22:57:43Z</time>
      </trkpt>
      <trkpt lat="35.914739530" lon="-106.492654970">
        <ele>2638.300</ele>
        <time>2019-07-14T22:57:44Z</time>
      </trkpt>
      <trkpt lat="35.914688990" lon="-106.492542030">
        <ele>2638.300</ele>
        <time>2019-07-14T22:57:45Z</time>
      </trkpt>
      <trkpt lat="35.914633660" lon="-106.492436640">
        <ele>2638.600</ele>
        <time>2019-07-14T22:57:46Z</time>
      </trkpt>
      <trkpt lat="35.914573490" lon="-106.492326650">
        <ele>2638.400</ele>
        <time>2019-07-14T22:57:47Z</time>
      </trkpt>
      <trkpt lat="35.914523030" lon="-106.492218700">
        <ele>2638.400</ele>
        <time>2019-07-14T22:57:48Z</time>
      </trkpt>
      <trkpt lat="35.914465530" lon="-106.492117350">
        <ele>2638.600</ele>
        <time>2019-07-14T22:57:49Z</time>
      </trkpt>
      <trkpt lat="35.914411780" lon="-106.492014890">
        <ele>2638.300</ele>
        <time>2019-07-14T22:57:50Z</time>
      </trkpt>
      <trkpt lat="35.914357760" lon="-106.491911520">
        <ele>2638.300</ele>
        <time>2019-07-14T22:57:51Z</time>
      </trkpt>
      <trkpt lat="35.914304920" lon="-106.491809160">
        <ele>2638.700</ele>
        <time>2019-07-14T22:57:52Z</time>
      </trkpt>
      <trkpt lat="35.914254880" lon="-106.491702170">
        <ele>2639.200</ele>
        <time>2019-07-14T22:57:53Z</time>
      </trkpt>
      <trkpt lat="35.914209220" lon="-106.491593780">
        <ele>2638.800</ele>
        <time>2019-07-14T22:57:54Z</time>
      </trkpt>
      <trkpt lat="35.914165020" lon="-106.491489320">
        <ele>2639.000</ele>
        <time>2019-07-14T22:57:55Z</time>
      </trkpt>
      <trkpt lat="35.914119080" lon="-106.491378920">
        <ele>2638.800</ele>
        <time>2019-07-14T22:57:56Z</time>
      </trkpt>
      <trkpt lat="35.914081830" lon="-106.491268780">
        <ele>2639.000</ele>
        <time>2019-07-14T22:57:57Z</time>
      </trkpt>
      <trkpt lat="35.914041510" lon="-106.491165210">
        <ele>2639.400</ele>
        <time>2019-07-14T22:57:58Z</time>
      </trkpt>
      <trkpt lat="35.914005050" lon="-106.491065060">
        <ele>2639.900</ele>
        <time>2019-07-14T22:57:59Z</time>
      </trkpt>
      <trkpt lat="35.913970310" lon="-106.490963630">
        <ele>2640.300</ele>
        <time>2019-07-14T22:58:00Z</time>
      </trkpt>
      <trkpt lat="35.913934750" lon="-106.490866280">
        <ele>2640.500</ele>
        <time>2019-07-14T22:58:01Z</time>
      </trkpt>
      <trkpt lat="35.913909610" lon="-106.490767370">
        <ele>2640.600</ele>
        <time>2019-07-14T22:58:02Z</time>
      </trkpt>
      <trkpt lat="35.913888120" lon="-106.490657600">
        <ele>2641.300</ele>
        <time>2019-07-14T22:58:03Z</time>
      </trkpt>
      <trkpt lat="35.913859030" lon="-106.490550150">
        <ele>2640.500</ele>
        <time>2019-07-14T22:58:04Z</time>
      </trkpt>
      <trkpt lat="35.913834020" lon="-106.490445030">
        <ele>2639.500</ele>
        <time>2019-07-14T22:58:05Z</time>
      </trkpt>
      <trkpt lat="35.913809550" lon="-106.490333460">
        <ele>2638.600</ele>
        <time>2019-07-14T22:58:06Z</time>
      </trkpt>
      <trkpt lat="35.913790050" lon="-106.490223980">
        <ele>2638.300</ele>
        <time>2019-07-14T22:58:07Z</time>
      </trkpt>
      <trkpt lat="35.913767380" lon="-106.490114620">
        <ele>2638.300</ele>
        <time>2019-07-14T22:58:08Z</time>
      </trkpt>
      <trkpt lat="35.913746900" lon="-106.489996670">
        <ele>2638.300</ele>
        <time>2019-07-14T22:58:09Z</time>
      </trkpt>
      <trkpt lat="35.913732060" lon="-106.489870180">
        <ele>2638.500</ele>
        <time>2019-07-14T22:58:10Z</time>
      </trkpt>
      <trkpt lat="35.913718120" lon="-106.489754090">
        <ele>2638.500</ele>
        <time>2019-07-14T22:58:11Z</time>
      </trkpt>
      <trkpt lat="35.913719320" lon="-106.489646680">
        <ele>2638.300</ele>
        <time>2019-07-14T22:58:12Z</time>
      </trkpt>
      <trkpt lat="35.913709090" lon="-106.489528510">
        <ele>2638.100</ele>
        <time>2019-07-14T22:58:13Z</time>
      </trkpt>
      <trkpt lat="35.913699360" lon="-106.489405790">
        <ele>2637.600</ele>
        <time>2019-07-14T22:58:14Z</time>
      </trkpt>
      <trkpt lat="35.913695610" lon="-106.489282820">
        <ele>2637.800</ele>
        <time>2019-07-14T22:58:15Z</time>
      </trkpt>
      <trkpt lat="35.913697540" lon="-106.489165250">
        <ele>2638.300</ele>
        <time>2019-07-14T22:58:16Z</time>
      </trkpt>
      <trkpt lat="35.913694680" lon="-106.489043900">
        <ele>2637.900</ele>
        <time>2019-07-14T22:58:17Z</time>
      </trkpt>
      <trkpt lat="35.913694240" lon="-106.488928500">
        <ele>2637.400</ele>
        <time>2019-07-14T22:58:18Z</time>
      </trkpt>
      <trkpt lat="35.913682900" lon="-106.488808040">
        <ele>2636.900</ele>
        <time>2019-07-14T22:58:19Z</time>
      </trkpt>
      <trkpt lat="35.913671630" lon="-106.488685390">
        <ele>2636.400</ele>
        <time>2019-07-14T22:58:20Z</time>
      </trkpt>
      <trkpt lat="35.913661280" lon="-106.488564370">
        <ele>2636.200</ele>
        <time>2019-07-14T22:58:21Z</time>
      </trkpt>
      <trkpt lat="35.913654500" lon="-106.488437170">
        <ele>2636.500</ele>
        <time>2019-07-14T22:58:22Z</time>
      </trkpt>
      <trkpt lat="35.913643750" lon="-106.488311350">
        <ele>2636.600</ele>
        <time>2019-07-14T22:58:23Z</time>
      </trkpt>
      <trkpt lat="35.913633740" lon="-106.488188000">
        <ele>2636.300</ele>
        <time>2019-07-14T22:58:24Z</time>
      </trkpt>
      <trkpt lat="35.913631890" lon="-106.488064770">
        <ele>2636.000</ele>
        <time>2019-07-14T22:58:25Z</time>
      </trkpt>
      <trkpt lat="35.913637090" lon="-106.487940190">
        <ele>2636.100</ele>
        <time>2019-07-14T22:58:26Z</time>
      </trkpt>
      <trkpt lat="35.913657570" lon="-106.487814700">
        <ele>2636.800</ele>
        <time>2019-07-14T22:58:27Z</time>
      </trkpt>
      <trkpt lat="35.913673470" lon="-106.487695040">
        <ele>2637.100</ele>
        <time>2019-07-14T22:58:28Z</time>
      </trkpt>
      <trkpt lat="35.913684300" lon="-106.487576100">
        <ele>2636.300</ele>
        <time>2019-07-14T22:58:29Z</time>
      </trkpt>
      <trkpt lat="35.913690900" lon="-106.487449650">
        <ele>2636.800</ele>
        <time>2019-07-14T22:58:30Z</time>
      </trkpt>
      <trkpt lat="35.913693160" lon="-106.487326270">
        <ele>2636.900</ele>
        <time>2019-07-14T22:58:31Z</time>
      </trkpt>
      <trkpt lat="35.913684970" lon="-106.487201270">
        <ele>2637.500</ele>
        <time>2019-07-14T22:58:32Z</time>
      </trkpt>
      <trkpt lat="35.913670190" lon="-106.487075340">
        <ele>2637.400</ele>
        <time>2019-07-14T22:58:33Z</time>
      </trkpt>
      <trkpt lat="35.913634640" lon="-106.486966910">
        <ele>2637.500</ele>
        <time>2019-07-14T22:58:34Z</time>
      </trkpt>
      <trkpt lat="35.913590220" lon="-106.486854220">
        <ele>2638.200</ele>
        <time>2019-07-14T22:58:35Z</time>
      </trkpt>
      <trkpt lat="35.913560730" lon="-106.486739370">
        <ele>2638.100</ele>
        <time>2019-07-14T22:58:36Z</time>
      </trkpt>
      <trkpt lat="35.913536180" lon="-106.486620440">
        <ele>2638.400</ele>
        <time>2019-07-14T22:58:37Z</time>
      </trkpt>
      <trkpt lat="35.913521390" lon="-106.486503060">
        <ele>2638.100</ele>
        <time>2019-07-14T22:58:38Z</time>
      </trkpt>
      <trkpt lat="35.913509010" lon="-106.486384930">
        <ele>2637.200</ele>
        <time>2019-07-14T22:58:39Z</time>
      </trkpt>
      <trkpt lat="35.913514340" lon="-106.486274200">
        <ele>2637.200</ele>
        <time>2019-07-14T22:58:40Z</time>
      </trkpt>
      <trkpt lat="35.913518780" lon="-106.486176280">
        <ele>2636.500</ele>
        <time>2019-07-14T22:58:41Z</time>
      </trkpt>
      <trkpt lat="35.913512790" lon="-106.486083620">
        <ele>2636.700</ele>
        <time>2019-07-14T22:58:42Z</time>
      </trkpt>
      <trkpt lat="35.913507980" lon="-106.485995400">
        <ele>2636.300</ele>
        <time>2019-07-14T22:58:43Z</time>
      </trkpt>
      <trkpt lat="35.913500330" lon="-106.485904050">
        <ele>2635.800</ele>
        <time>2019-07-14T22:58:44Z</time>
      </trkpt>
      <trkpt lat="35.913491260" lon="-106.485819490">
        <ele>2636.000</ele>
        <time>2019-07-14T22:58:45Z</time>
      </trkpt>
      <trkpt lat="35.913477350" lon="-106.485731880">
        <ele>2635.200</ele>
        <time>2019-07-14T22:58:46Z</time>
      </trkpt>
      <trkpt lat="35.913456240" lon="-106.485654800">
        <ele>2635.300</ele>
        <time>2019-07-14T22:58:47Z</time>
      </trkpt>
      <trkpt lat="35.913429380" lon="-106.485582450">
        <ele>2635.300</ele>
        <time>2019-07-14T22:58:48Z</time>
      </trkpt>
      <trkpt lat="35.913392820" lon="-106.485513360">
        <ele>2635.100</ele>
        <time>2019-07-14T22:58:49Z</time>
      </trkpt>
      <trkpt lat="35.913351510" lon="-106.485460270">
        <ele>2635.900</ele>
        <time>2019-07-14T22:58:50Z</time>
      </trkpt>
      <trkpt lat="35.913303670" lon="-106.485411890">
        <ele>2636.400</ele>
        <time>2019-07-14T22:58:51Z</time>
      </trkpt>
      <trkpt lat="35.913248050" lon="-106.485364860">
        <ele>2635.700</ele>
        <time>2019-07-14T22:58:52Z</time>
      </trkpt>
      <trkpt lat="35.913188930" lon="-106.485319490">
        <ele>2635.600</ele>
        <time>2019-07-14T22:58:53Z</time>
      </trkpt>
      <trkpt lat="35.913130040" lon="-106.485282890">
        <ele>2635.000</ele>
        <time>2019-07-14T22:58:54Z</time>
      </trkpt>
      <trkpt lat="35.913062560" lon="-106.485240400">
        <ele>2634.800</ele>
        <time>2019-07-14T22:58:55Z</time>
      </trkpt>
      <trkpt lat="35.912991670" lon="-106.485192780">
        <ele>2634.900</ele>
        <time>2019-07-14T22:58:56Z</time>
      </trkpt>
      <trkpt lat="35.912921020" lon="-106.485143770">
        <ele>2634.900</ele>
        <time>2019-07-14T22:58:57Z</time>
      </trkpt>
      <trkpt lat="35.912847790" lon="-106.485089160">
        <ele>2634.600</ele>
        <time>2019-07-14T22:58:58Z</time>
      </trkpt>
      <trkpt lat="35.912770280" lon="-106.485034380">
        <ele>2634.200</ele>
        <time>2019-07-14T22:58:59Z</time>
      </trkpt>
      <trkpt lat="35.912691010" lon="-106.484974440">
        <ele>2634.100</ele>
        <time>2019-07-14T22:59:00Z</time>
      </trkpt>
      <trkpt lat="35.912605150" lon="-106.484912670">
        <ele>2633.800</ele>
        <time>2019-07-14T22:59:01Z</time>
      </trkpt>
      <trkpt lat="35.912527650" lon="-106.484856610">
        <ele>2633.100</ele>
        <time>2019-07-14T22:59:02Z</time>
      </trkpt>
      <trkpt lat="35.912448920" lon="-106.484797690">
        <ele>2633.300</ele>
        <time>2019-07-14T22:59:03Z</time>
      </trkpt>
      <trkpt lat="35.912365360" lon="-106.484738940">
        <ele>2632.600</ele>
        <time>2019-07-14T22:59:04Z</time>
      </trkpt>
      <trkpt lat="35.912285860" lon="-106.484701310">
        <ele>2632.000</ele>
        <time>2019-07-14T22:59:05Z</time>
      </trkpt>
      <trkpt lat="35.912216050" lon="-106.484671130">
        <ele>2632.500</ele>
        <time>2019-07-14T22:59:06Z</time>
      </trkpt>
      <trkpt lat="35.912153150" lon="-106.484644390">
        <ele>2632.100</ele>
        <time>2019-07-14T22:59:07Z</time>
      </trkpt>
      <trkpt lat="35.912087120" lon="-106.484613430">
        <ele>2632.200</ele>
        <time>2019-07-14T22:59:08Z</time>
      </trkpt>
      <trkpt lat="35.912016700" lon="-106.484582610">
        <ele>2631.800</ele>
        <time>2019-07-14T22:59:09Z</time>
      </trkpt>
      <trkpt lat="35.911942590" lon="-106.484571090">
        <ele>2631.700</ele>
        <time>2019-07-14T22:59:10Z</time>
      </trkpt>
      <trkpt lat="35.911874800" lon="-106.484571900">
        <ele>2630.500</ele>
        <time>2019-07-14T22:59:11Z</time>
      </trkpt>
      <trkpt lat="35.911801120" lon="-106.484563370">
        <ele>2630.100</ele>
        <time>2019-07-14T22:59:12Z</time>
      </trkpt>
      <trkpt lat="35.911720740" lon="-106.484573420">
        <ele>2629.200</ele>
        <time>2019-07-14T22:59:13Z</time>
      </trkpt>
      <trkpt lat="35.911663790" lon="-106.484617340">
        <ele>2629.400</ele>
        <time>2019-07-14T22:59:14Z</time>
      </trkpt>
      <trkpt lat="35.911585000" lon="-106.484665590">
        <ele>2629.400</ele>
        <time>2019-07-14T22:59:15Z</time>
      </trkpt>
      <trkpt lat="35.911516310" lon="-106.484707410">
        <ele>2629.300</ele>
        <time>2019-07-14T22:59:16Z</time>
      </trkpt>
      <trkpt lat="35.911439440" lon="-106.484747050">
        <ele>2629.600</ele>
        <time>2019-07-14T22:59:17Z</time>
      </trkpt>
      <trkpt lat="35.911359630" lon="-106.484786190">
        <ele>2629.400</ele>
        <time>2019-07-14T22:59:18Z</time>
      </trkpt>
      <trkpt lat="35.911271950" lon="-106.484822260">
        <ele>2629.000</ele>
        <time>2019-07-14T22:59:19Z</time>
      </trkpt>
      <trkpt lat="35.911177740" lon="-106.484863850">
        <ele>2629.800</ele>
        <time>2019-07-14T22:59:20Z</time>
      </trkpt>
      <trkpt lat="35.911090180" lon="-106.484894480">
        <ele>2629.000</ele>
        <time>2019-07-14T22:59:21Z</time>
      </trkpt>
      <trkpt lat="35.911000460" lon="-106.484928150">
        <ele>2628.500</ele>
        <time>2019-07-14T22:59:22Z</time>
      </trkpt>
      <trkpt lat="35.910910580" lon="-106.484966630">
        <ele>2628.200</ele>
        <time>2019-07-14T22:59:23Z</time>
      </trkpt>
      <trkpt lat="35.910827620" lon="-106.484999620">
        <ele>2627.900</ele>
        <time>2019-07-14T22:59:24Z</time>
      </trkpt>
      <trkpt lat="35.910729330" lon="-106.485005750">
        <ele>2627.700</ele>
        <time>2019-07-14T22:59:25Z</time>
      </trkpt>
      <trkpt lat="35.910628240" lon="-106.485015710">
        <ele>2627.500</ele>
        <time>2019-07-14T22:59:26Z</time>
      </trkpt>
      <trkpt lat="35.910538790" lon="-106.485019350">
        <ele>2627.600</ele>
        <time>2019-07-14T22:59:27Z</time>
      </trkpt>
      <trkpt lat="35.910441510" lon="-106.485019960">
        <ele>2627.400</ele>
        <time>2019-07-14T22:59:28Z</time>
      </trkpt>
      <trkpt lat="35.910356520" lon="-106.485027820">
        <ele>2627.100</ele>
        <time>2019-07-14T22:59:29Z</time>
      </trkpt>
      <trkpt lat="35.910268160" lon="-106.485044270">
        <ele>2627.300</ele>
        <time>2019-07-14T22:59:30Z</time>
      </trkpt>
      <trkpt lat="35.910177370" lon="-106.485062150">
        <ele>2627.700</ele>
        <time>2019-07-14T22:59:31Z</time>
      </trkpt>
      <trkpt lat="35.910094230" lon="-106.485082760">
        <ele>2627.600</ele>
        <time>2019-07-14T22:59:32Z</time>
      </trkpt>
      <trkpt lat="35.910008940" lon="-106.485111450">
        <ele>2628.100</ele>
        <time>2019-07-14T22:59:33Z</time>
      </trkpt>
      <trkpt lat="35.909925690" lon="-106.485152530">
        <ele>2629.200</ele>
        <time>2019-07-14T22:59:34Z</time>
      </trkpt>
      <trkpt lat="35.909872870" lon="-106.485178680">
        <ele>2628.900</ele>
        <time>2019-07-14T22:59:35Z</time>
      </trkpt>
      <trkpt lat="35.909809690" lon="-106.485201370">
        <ele>2629.800</ele>
        <time>2019-07-14T22:59:36Z</time>
      </trkpt>
      <trkpt lat="35.909776890" lon="-106.485223250">
        <ele>2629.100</ele>
        <time>2019-07-14T22:59:38Z</time>
      </trkpt>
      <trkpt lat="35.909735160" lon="-106.485234180">
        <ele>2630.700</ele>
        <time>2019-07-14T22:59:40Z</time>
      </trkpt>
      <trkpt lat="35.909678250" lon="-106.485244190">
        <ele>2627.500</ele>
        <time>2019-07-14T22:59:43Z</time>
      </trkpt>
      <trkpt lat="35.909618030" lon="-106.485262730">
        <ele>2628.100</ele>
        <time>2019-07-14T22:59:45Z</time>
      </trkpt>
      <trkpt lat="35.909579610" lon="-106.485272510">
        <ele>2628.000</ele>
        <time>2019-07-14T22:59:46Z</time>
      </trkpt>
      <trkpt lat="35.909526000" lon="-106.485282980">
        <ele>2629.000</ele>
        <time>2019-07-14T22:59:47Z</time>
      </trkpt>
      <trkpt lat="35.909477900" lon="-106.485299220">
        <ele>2629.300</ele>
        <time>2019-07-14T22:59:48Z</time>
      </trkpt>
      <trkpt lat="35.909413360" lon="-106.485314390">
        <ele>2629.300</ele>
        <time>2019-07-14T22:59:49Z</time>
      </trkpt>
      <trkpt lat="35.909352340" lon="-106.485336060">
        <ele>2629.200</ele>
        <time>2019-07-14T22:59:50Z</time>
      </trkpt>
      <trkpt lat="35.909277260" lon="-106.485364540">
        <ele>2629.300</ele>
        <time>2019-07-14T22:59:51Z</time>
      </trkpt>
      <trkpt lat="35.909203840" lon="-106.485393980">
        <ele>2629.100</ele>
        <time>2019-07-14T22:59:52Z</time>
      </trkpt>
      <trkpt lat="35.909136180" lon="-106.485410980">
        <ele>2629.700</ele>
        <time>2019-07-14T22:59:53Z</time>
      </trkpt>
      <trkpt lat="35.909055890" lon="-106.485429980">
        <ele>2629.400</ele>
        <time>2019-07-14T22:59:54Z</time>
      </trkpt>
      <trkpt lat="35.908972470" lon="-106.485454030">
        <ele>2629.300</ele>
        <time>2019-07-14T22:59:55Z</time>
      </trkpt>
      <trkpt lat="35.908913640" lon="-106.485469650">
        <ele>2627.700</ele>
        <time>2019-07-14T22:59:56Z</time>
      </trkpt>
      <trkpt lat="35.908819630" lon="-106.485490870">
        <ele>2627.600</ele>
        <time>2019-07-14T22:59:57Z</time>
      </trkpt>
      <trkpt lat="35.908722100" lon="-106.485505080">
        <ele>2626.500</ele>
        <time>2019-07-14T22:59:58Z</time>
      </trkpt>
      <trkpt lat="35.908609690" lon="-106.485534420">
        <ele>2626.000</ele>
        <time>2019-07-14T22:59:59Z</time>
      </trkpt>
      <trkpt lat="35.908518310" lon="-106.485550980">
        <ele>2624.600</ele>
        <time>2019-07-14T23:00:00Z</time>
      </trkpt>
      <trkpt lat="35.908419980" lon="-106.485569470">
        <ele>2624.200</ele>
        <time>2019-07-14T23:00:01Z</time>
      </trkpt>
      <trkpt lat="35.908323810" lon="-106.485583360">
        <ele>2624.400</ele>
        <time>2019-07-14T23:00:02Z</time>
      </trkpt>
      <trkpt lat="35.908221360" lon="-106.485601900">
        <ele>2625.000</ele>
        <time>2019-07-14T23:00:03Z</time>
      </trkpt>
      <trkpt lat="35.908123480" lon="-106.485617370">
        <ele>2625.700</ele>
        <time>2019-07-14T23:00:04Z</time>
      </trkpt>
      <trkpt lat="35.908023070" lon="-106.485635020">
        <ele>2625.600</ele>
        <time>2019-07-14T23:00:05Z</time>
      </trkpt>
      <trkpt lat="35.907939190" lon="-106.485639410">
        <ele>2625.400</ele>
        <time>2019-07-14T23:00:06Z</time>
      </trkpt>
      <trkpt lat="35.907855790" lon="-106.485645000">
        <ele>2625.700</ele>
        <time>2019-07-14T23:00:07Z</time>
      </trkpt>
      <trkpt lat="35.907762300" lon="-106.485639410">
        <ele>2625.200</ele>
        <time>2019-07-14T23:00:08Z</time>
      </trkpt>
      <trkpt lat="35.907677100" lon="-106.485626960">
        <ele>2625.100</ele>
        <time>2019-07-14T23:00:09Z</time>
      </trkpt>
      <trkpt lat="35.907586420" lon="-106.485610750">
        <ele>2625.800</ele>
        <time>2019-07-14T23:00:10Z</time>
      </trkpt>
      <trkpt lat="35.907498940" lon="-106.485590120">
        <ele>2625.900</ele>
        <time>2019-07-14T23:00:11Z</time>
      </trkpt>
      <trkpt lat="35.907413190" lon="-106.485564780">
        <ele>2626.400</ele>
        <time>2019-07-14T23:00:12Z</time>
      </trkpt>
      <trkpt lat="35.907330620" lon="-106.485535750">
        <ele>2626.600</ele>
        <time>2019-07-14T23:00:13Z</time>
      </trkpt>
      <trkpt lat="35.907247680" lon="-106.485496860">
        <ele>2627.000</ele>
        <time>2019-07-14T23:00:14Z</time>
      </trkpt>
      <trkpt lat="35.907172630" lon="-106.485445790">
        <ele>2627.900</ele>
        <time>2019-07-14T23:00:15Z</time>
      </trkpt>
      <trkpt lat="35.907082310" lon="-106.485395090">
        <ele>2629.200</ele>
        <time>2019-07-14T23:00:16Z</time>
      </trkpt>
      <trkpt lat="35.906992630" lon="-106.485365680">
        <ele>2628.800</ele>
        <time>2019-07-14T23:00:17Z</time>
      </trkpt>
      <trkpt lat="35.906916520" lon="-106.485329430">
        <ele>2628.600</ele>
        <time>2019-07-14T23:00:18Z</time>
      </trkpt>
      <trkpt lat="35.906834330" lon="-106.485296300">
        <ele>2629.300</ele>
        <time>2019-07-14T23:00:19Z</time>
      </trkpt>
      <trkpt lat="35.906742240" lon="-106.485269910">
        <ele>2629.500</ele>
        <time>2019-07-14T23:00:20Z</time>
      </trkpt>
      <trkpt lat="35.906656260" lon="-106.485230270">
        <ele>2630.900</ele>
        <time>2019-07-14T23:00:21Z</time>
      </trkpt>
      <trkpt lat="35.906571820" lon="-106.485184230">
        <ele>2630.200</ele>
        <time>2019-07-14T23:00:22Z</time>
      </trkpt>
      <trkpt lat="35.906486770" lon="-106.485140820">
        <ele>2630.300</ele>
        <time>2019-07-14T23:00:23Z</time>
      </trkpt>
      <trkpt lat="35.906406360" lon="-106.485097020">
        <ele>2629.800</ele>
        <time>2019-07-14T23:00:24Z</time>
      </trkpt>
      <trkpt lat="35.906315900" lon="-106.485063090">
        <ele>2629.900</ele>
        <time>2019-07-14T23:00:25Z</time>
      </trkpt>
      <trkpt lat="35.906247140" lon="-106.485032050">
        <ele>2630.300</ele>
        <time>2019-07-14T23:00:26Z</time>
      </trkpt>
      <trkpt lat="35.906152800" lon="-106.485007340">
        <ele>2628.900</ele>
        <time>2019-07-14T23:00:27Z</time>
      </trkpt>
      <trkpt lat="35.906059350" lon="-106.484978770">
        <ele>2629.000</ele>
        <time>2019-07-14T23:00:28Z</time>
      </trkpt>
      <trkpt lat="35.905982170" lon="-106.484937240">
        <ele>2629.200</ele>
        <time>2019-07-14T23:00:29Z</time>
      </trkpt>
      <trkpt lat="35.905905460" lon="-106.484904270">
        <ele>2629.600</ele>
        <time>2019-07-14T23:00:30Z</time>
      </trkpt>
      <trkpt lat="35.905810660" lon="-106.484882680">
        <ele>2629.600</ele>
        <time>2019-07-14T23:00:31Z</time>
      </trkpt>
      <trkpt lat="35.905727100" lon="-106.484837370">
        <ele>2626.900</ele>
        <time>2019-07-14T23:00:32Z</time>
      </trkpt>
      <trkpt lat="35.905651700" lon="-106.484796960">
        <ele>2626.700</ele>
        <time>2019-07-14T23:00:33Z</time>
      </trkpt>
      <trkpt lat="35.905560580" lon="-106.484771770">
        <ele>2625.800</ele>
        <time>2019-07-14T23:00:34Z</time>
      </trkpt>
      <trkpt lat="35.905474860" lon="-106.484732930">
        <ele>2625.200</ele>
        <time>2019-07-14T23:00:35Z</time>
      </trkpt>
      <trkpt lat="35.905396550" lon="-106.484715470">
        <ele>2626.500</ele>
        <time>2019-07-14T23:00:36Z</time>
      </trkpt>
      <trkpt lat="35.905313780" lon="-106.484688330">
        <ele>2626.000</ele>
        <time>2019-07-14T23:00:37Z</time>
      </trkpt>
      <trkpt lat="35.905219180" lon="-106.484652930">
        <ele>2622.800</ele>
        <time>2019-07-14T23:00:38Z</time>
      </trkpt>
      <trkpt lat="35.905134630" lon="-106.484623920">
        <ele>2622.500</ele>
        <time>2019-07-14T23:00:39Z</time>
      </trkpt>
      <trkpt lat="35.905055330" lon="-106.484586960">
        <ele>2622.600</ele>
        <time>2019-07-14T23:00:40Z</time>
      </trkpt>
      <trkpt lat="35.904966230" lon="-106.484564730">
        <ele>2622.100</ele>
        <time>2019-07-14T23:00:41Z</time>
      </trkpt>
      <trkpt lat="35.904882450" lon="-106.484540170">
        <ele>2622.500</ele>
        <time>2019-07-14T23:00:42Z</time>
      </trkpt>
      <trkpt lat="35.904799900" lon="-106.484525560">
        <ele>2622.200</ele>
        <time>2019-07-14T23:00:43Z</time>
      </trkpt>
      <trkpt lat="35.904708640" lon="-106.484524940">
        <ele>2622.100</ele>
        <time>2019-07-14T23:00:44Z</time>
      </trkpt>
      <trkpt lat="35.904621010" lon="-106.484531080">
        <ele>2624.200</ele>
        <time>2019-07-14T23:00:45Z</time>
      </trkpt>
      <trkpt lat="35.904538080" lon="-106.484541150">
        <ele>2624.200</ele>
        <time>2019-07-14T23:00:46Z</time>
      </trkpt>
      <trkpt lat="35.904462430" lon="-106.484561690">
        <ele>2625.400</ele>
        <time>2019-07-14T23:00:47Z</time>
      </trkpt>
      <trkpt lat="35.904379330" lon="-106.484566290">
        <ele>2625.200</ele>
        <time>2019-07-14T23:00:48Z</time>
      </trkpt>
      <trkpt lat="35.904290450" lon="-106.484580370">
        <ele>2623.500</ele>
        <time>2019-07-14T23:00:49Z</time>
      </trkpt>
      <trkpt lat="35.904223810" lon="-106.484583380">
        <ele>2624.400</ele>
        <time>2019-07-14T23:00:50Z</time>
      </trkpt>
      <trkpt lat="35.904146470" lon="-106.484592450">
        <ele>2624.100</ele>
        <time>2019-07-14T23:00:51Z</time>
      </trkpt>
      <trkpt lat="35.904062820" lon="-106.484607530">
        <ele>2623.700</ele>
        <time>2019-07-14T23:00:52Z</time>
      </trkpt>
      <trkpt lat="35.903972920" lon="-106.484622760">
        <ele>2623.100</ele>
        <time>2019-07-14T23:00:53Z</time>
      </trkpt>
      <trkpt lat="35.903887390" lon="-106.484642820">
        <ele>2622.900</ele>
        <time>2019-07-14T23:00:54Z</time>
      </trkpt>
      <trkpt lat="35.903800970" lon="-106.484661820">
        <ele>2622.900</ele>
        <time>2019-07-14T23:00:55Z</time>
      </trkpt>
      <trkpt lat="35.903705070" lon="-106.484674540">
        <ele>2622.100</ele>
        <time>2019-07-14T23:00:56Z</time>
      </trkpt>
      <trkpt lat="35.903608860" lon="-106.484692520">
        <ele>2622.800</ele>
        <time>2019-07-14T23:00:57Z</time>
      </trkpt>
      <trkpt lat="35.903516050" lon="-106.484705450">
        <ele>2621.400</ele>
        <time>2019-07-14T23:00:58Z</time>
      </trkpt>
      <trkpt lat="35.903418630" lon="-106.484721110">
        <ele>2621.000</ele>
        <time>2019-07-14T23:00:59Z</time>
      </trkpt>
      <trkpt lat="35.903315270" lon="-106.484740340">
        <ele>2621.200</ele>
        <time>2019-07-14T23:01:00Z</time>
      </trkpt>
      <trkpt lat="35.903220550" lon="-106.484743430">
        <ele>2620.700</ele>
        <time>2019-07-14T23:01:01Z</time>
      </trkpt>
      <trkpt lat="35.903131310" lon="-106.484765140">
        <ele>2620.000</ele>
        <time>2019-07-14T23:01:02Z</time>
      </trkpt>
      <trkpt lat="35.903031960" lon="-106.484783420">
        <ele>2620.100</ele>
        <time>2019-07-14T23:01:03Z</time>
      </trkpt>
      <trkpt lat="35.902932220" lon="-106.484799440">
        <ele>2620.000</ele>
        <time>2019-07-14T23:01:04Z</time>
      </trkpt>
      <trkpt lat="35.902841690" lon="-106.484821650">
        <ele>2619.100</ele>
        <time>2019-07-14T23:01:05Z</time>
      </trkpt>
      <trkpt lat="35.902742690" lon="-106.484837170">
        <ele>2618.500</ele>
        <time>2019-07-14T23:01:06Z</time>
      </trkpt>
      <trkpt lat="35.902652660" lon="-106.484854800">
        <ele>2619.000</ele>
        <time>2019-07-14T23:01:07Z</time>
      </trkpt>
      <trkpt lat="35.902560880" lon="-106.484866980">
        <ele>2620.200</ele>
        <time>2019-07-14T23:01:08Z</time>
      </trkpt>
      <trkpt lat="35.902470960" lon="-106.484883650">
        <ele>2620.300</ele>
        <time>2019-07-14T23:01:09Z</time>
      </trkpt>
      <trkpt lat="35.902371170" lon="-106.484894100">
        <ele>2619.000</ele>
        <time>2019-07-14T23:01:10Z</time>
      </trkpt>
      <trkpt lat="35.902279390" lon="-106.484913360">
        <ele>2619.600</ele>
        <time>2019-07-14T23:01:11Z</time>
      </trkpt>
      <trkpt lat="35.902190510" lon="-106.484933420">
        <ele>2619.500</ele>
        <time>2019-07-14T23:01:12Z</time>
      </trkpt>
      <trkpt lat="35.902102520" lon="-106.484964510">
        <ele>2619.900</ele>
        <time>2019-07-14T23:01:13Z</time>
      </trkpt>
      <trkpt lat="35.902024350" lon="-106.485018020">
        <ele>2620.200</ele>
        <time>2019-07-14T23:01:14Z</time>
      </trkpt>
      <trkpt lat="35.901946120" lon="-106.485072380">
        <ele>2619.200</ele>
        <time>2019-07-14T23:01:15Z</time>
      </trkpt>
      <trkpt lat="35.901871740" lon="-106.485142420">
        <ele>2618.900</ele>
        <time>2019-07-14T23:01:16Z</time>
      </trkpt>
      <trkpt lat="35.901813110" lon="-106.485225750">
        <ele>2618.400</ele>
        <time>2019-07-14T23:01:17Z</time>
      </trkpt>
      <trkpt lat="35.901772750" lon="-106.485315780">
        <ele>2618.700</ele>
        <time>2019-07-14T23:01:18Z</time>
      </trkpt>
      <trkpt lat="35.901739510" lon="-106.485395230">
        <ele>2617.300</ele>
        <time>2019-07-14T23:01:19Z</time>
      </trkpt>
      <trkpt lat="35.901710380" lon="-106.485465730">
        <ele>2618.000</ele>
        <time>2019-07-14T23:01:20Z</time>
      </trkpt>
      <trkpt lat="35.901681510" lon="-106.485525700">
        <ele>2617.600</ele>
        <time>2019-07-14T23:01:21Z</time>
      </trkpt>
      <trkpt lat="35.901652260" lon="-106.485567870">
        <ele>2617.800</ele>
        <time>2019-07-14T23:01:22Z</time>
      </trkpt>
      <trkpt lat="35.901631960" lon="-106.485622060">
        <ele>2619.300</ele>
        <time>2019-07-14T23:01:23Z</time>
      </trkpt>
      <trkpt lat="35.901599990" lon="-106.485655660">
        <ele>2618.100</ele>
        <time>2019-07-14T23:01:24Z</time>
      </trkpt>
      <trkpt lat="35.901573930" lon="-106.485707770">
        <ele>2618.700</ele>
        <time>2019-07-14T23:01:25Z</time>
      </trkpt>
      <trkpt lat="35.901541710" lon="-106.485747920">
        <ele>2618.500</ele>
        <time>2019-07-14T23:01:26Z</time>
      </trkpt>
      <trkpt lat="35.901509530" lon="-106.485790680">
        <ele>2619.000</ele>
        <time>2019-07-14T23:01:27Z</time>
      </trkpt>
      <trkpt lat="35.901478650" lon="-106.485837760">
        <ele>2620.000</ele>
        <time>2019-07-14T23:01:28Z</time>
      </trkpt>
      <trkpt lat="35.901447040" lon="-106.485876170">
        <ele>2620.100</ele>
        <time>2019-07-14T23:01:29Z</time>
      </trkpt>
      <trkpt lat="35.901412110" lon="-106.485915150">
        <ele>2620.400</ele>
        <time>2019-07-14T23:01:30Z</time>
      </trkpt>
      <trkpt lat="35.901373580" lon="-106.485952570">
        <ele>2620.000</ele>
        <time>2019-07-14T23:01:31Z</time>
      </trkpt>
      <trkpt lat="35.901325450" lon="-106.485986590">
        <ele>2619.900</ele>
        <time>2019-07-14T23:01:32Z</time>
      </trkpt>
      <trkpt lat="35.901294250" lon="-106.486026390">
        <ele>2620.100</ele>
        <time>2019-07-14T23:01:33Z</time>
      </trkpt>
      <trkpt lat="35.901248780" lon="-106.486061000">
        <ele>2620.100</ele>
        <time>2019-07-14T23:01:34Z</time>
      </trkpt>
      <trkpt lat="35.901203610" lon="-106.486098400">
        <ele>2620.000</ele>
        <time>2019-07-14T23:01:35Z</time>
      </trkpt>
      <trkpt lat="35.901159440" lon="-106.486123390">
        <ele>2620.000</ele>
        <time>2019-07-14T23:01:36Z</time>
      </trkpt>
      <trkpt lat="35.901123010" lon="-106.486146610">
        <ele>2620.200</ele>
        <time>2019-07-14T23:01:37Z</time>
      </trkpt>
      <trkpt lat="35.901082750" lon="-106.486161690">
        <ele>2620.600</ele>
        <time>2019-07-14T23:01:38Z</time>
      </trkpt>
      <trkpt lat="35.901039860" lon="-106.486171690">
        <ele>2620.200</ele>
        <time>2019-07-14T23:01:39Z</time>
      </trkpt>
      <trkpt lat="35.900994550" lon="-106.486181400">
        <ele>2620.700</ele>
        <time>2019-07-14T23:01:40Z</time>
      </trkpt>
      <trkpt lat="35.900937250" lon="-106.486169680">
        <ele>2618.000</ele>
        <time>2019-07-14T23:01:41Z</time>
      </trkpt>
      <trkpt lat="35.900897030" lon="-106.486171410">
        <ele>2618.200</ele>
        <time>2019-07-14T23:01:42Z</time>
      </trkpt>
      <trkpt lat="35.900847270" lon="-106.486178680">
        <ele>2618.800</ele>
        <time>2019-07-14T23:01:43Z</time>
      </trkpt>
      <trkpt lat="35.900799740" lon="-106.486185820">
        <ele>2619.200</ele>
        <time>2019-07-14T23:01:44Z</time>
      </trkpt>
      <trkpt lat="35.900744060" lon="-106.486196300">
        <ele>2619.200</ele>
        <time>2019-07-14T23:01:45Z</time>
      </trkpt>
      <trkpt lat="35.900690790" lon="-106.486204290">
        <ele>2619.000</ele>
        <time>2019-07-14T23:01:46Z</time>
      </trkpt>
      <trkpt lat="35.900637400" lon="-106.486216980">
        <ele>2621.000</ele>
        <time>2019-07-14T23:01:47Z</time>
      </trkpt>
      <trkpt lat="35.900584520" lon="-106.486229570">
        <ele>2621.300</ele>
        <time>2019-07-14T23:01:48Z</time>
      </trkpt>
      <trkpt lat="35.900527340" lon="-106.486235630">
        <ele>2621.600</ele>
        <time>2019-07-14T23:01:49Z</time>
      </trkpt>
      <trkpt lat="35.900465280" lon="-106.486264890">
        <ele>2620.800</ele>
        <time>2019-07-14T23:01:50Z</time>
      </trkpt>
      <trkpt lat="35.900402960" lon="-106.486302430">
        <ele>2621.700</ele>
        <time>2019-07-14T23:01:51Z</time>
      </trkpt>
      <trkpt lat="35.900357900" lon="-106.486316060">
        <ele>2621.600</ele>
        <time>2019-07-14T23:01:52Z</time>
      </trkpt>
      <trkpt lat="35.900304720" lon="-106.486327220">
        <ele>2621.500</ele>
        <time>2019-07-14T23:01:53Z</time>
      </trkpt>
      <trkpt lat="35.900257170" lon="-106.486337220">
        <ele>2621.900</ele>
        <time>2019-07-14T23:01:54Z</time>
      </trkpt>
      <trkpt lat="35.900194860" lon="-106.486354160">
        <ele>2622.000</ele>
        <time>2019-07-14T23:01:55Z</time>
      </trkpt>
      <trkpt lat="35.900140730" lon="-106.486354630">
        <ele>2620.300</ele>
        <time>2019-07-14T23:01:56Z</time>
      </trkpt>
      <trkpt lat="35.900077250" lon="-106.486371300">
        <ele>2620.900</ele>
        <time>2019-07-14T23:01:57Z</time>
      </trkpt>
      <trkpt lat="35.900001910" lon="-106.486379990">
        <ele>2620.700</ele>
        <time>2019-07-14T23:01:58Z</time>
      </trkpt>
      <trkpt lat="35.899933570" lon="-106.486397860">
        <ele>2620.100</ele>
        <time>2019-07-14T23:01:59Z</time>
      </trkpt>
      <trkpt lat="35.899852260" lon="-106.486428150">
        <ele>2621.000</ele>
        <time>2019-07-14T23:02:00Z</time>
      </trkpt>
      <trkpt lat="35.899786310" lon="-106.486439350">
        <ele>2620.800</ele>
        <time>2019-07-14T23:02:01Z</time>
      </trkpt>
      <trkpt lat="35.899722250" lon="-106.486447580">
        <ele>2621.000</ele>
        <time>2019-07-14T23:02:02Z</time>
      </trkpt>
      <trkpt lat="35.899666450" lon="-106.486441220">
        <ele>2620.800</ele>
        <time>2019-07-14T23:02:03Z</time>
      </trkpt>
      <trkpt lat="35.899599050" lon="-106.486451680">
        <ele>2621.700</ele>
        <time>2019-07-14T23:02:04Z</time>
      </trkpt>
      <trkpt lat="35.899533740" lon="-106.486452260">
        <ele>2621.600</ele>
        <time>2019-07-14T23:02:05Z</time>
      </trkpt>
      <trkpt lat="35.899481630" lon="-106.486459860">
        <ele>2623.600</ele>
        <time>2019-07-14T23:02:06Z</time>
      </trkpt>
      <trkpt lat="35.899403850" lon="-106.486471100">
        <ele>2624.700</ele>
        <time>2019-07-14T23:02:07Z</time>
      </trkpt>
      <trkpt lat="35.899333160" lon="-106.486470150">
        <ele>2624.600</ele>
        <time>2019-07-14T23:02:08Z</time>
      </trkpt>
      <trkpt lat="35.899261270" lon="-106.486475210">
        <ele>2625.400</ele>
        <time>2019-07-14T23:02:09Z</time>
      </trkpt>
      <trkpt lat="35.899170540" lon="-106.486477580">
        <ele>2624.300</ele>
        <time>2019-07-14T23:02:10Z</time>
      </trkpt>
      <trkpt lat="35.899095640" lon="-106.486481620">
        <ele>2624.300</ele>
        <time>2019-07-14T23:02:11Z</time>
      </trkpt>
      <trkpt lat="35.899008810" lon="-106.486485690">
        <ele>2623.400</ele>
        <time>2019-07-14T23:02:12Z</time>
      </trkpt>
      <trkpt lat="35.898924940" lon="-106.486495550">
        <ele>2621.600</ele>
        <time>2019-07-14T23:02:13Z</time>
      </trkpt>
      <trkpt lat="35.898851880" lon="-106.486516690">
        <ele>2622.000</ele>
        <time>2019-07-14T23:02:14Z</time>
      </trkpt>
      <trkpt lat="35.898770620" lon="-106.486552360">
        <ele>2622.800</ele>
        <time>2019-07-14T23:02:15Z</time>
      </trkpt>
      <trkpt lat="35.898689580" lon="-106.486577840">
        <ele>2623.600</ele>
        <time>2019-07-14T23:02:16Z</time>
      </trkpt>
      <trkpt lat="35.898622130" lon="-106.486614720">
        <ele>2624.000</ele>
        <time>2019-07-14T23:02:17Z</time>
      </trkpt>
      <trkpt lat="35.898547590" lon="-106.486646650">
        <ele>2624.200</ele>
        <time>2019-07-14T23:02:18Z</time>
      </trkpt>
      <trkpt lat="35.898456260" lon="-106.486717100">
        <ele>2624.100</ele>
        <time>2019-07-14T23:02:19Z</time>
      </trkpt>
      <trkpt lat="35.898389910" lon="-106.486794800">
        <ele>2624.800</ele>
        <time>2019-07-14T23:02:20Z</time>
      </trkpt>
      <trkpt lat="35.898331720" lon="-106.486861360">
        <ele>2624.500</ele>
        <time>2019-07-14T23:02:21Z</time>
      </trkpt>
      <trkpt lat="35.898245510" lon="-106.486926430">
        <ele>2623.600</ele>
        <time>2019-07-14T23:02:22Z</time>
      </trkpt>
      <trkpt lat="35.898156260" lon="-106.486983990">
        <ele>2623.600</ele>
        <time>2019-07-14T23:02:23Z</time>
      </trkpt>
      <trkpt lat="35.898090990" lon="-106.487035870">
        <ele>2622.300</ele>
        <time>2019-07-14T23:02:24Z</time>
      </trkpt>
      <trkpt lat="35.898020450" lon="-106.487089920">
        <ele>2621.400</ele>
        <time>2019-07-14T23:02:25Z</time>
      </trkpt>
      <trkpt lat="35.897935730" lon="-106.487140040">
        <ele>2620.900</ele>
        <time>2019-07-14T23:02:26Z</time>
      </trkpt>
      <trkpt lat="35.897861360" lon="-106.487184970">
        <ele>2621.100</ele>
        <time>2019-07-14T23:02:27Z</time>
      </trkpt>
      <trkpt lat="35.897782850" lon="-106.487236640">
        <ele>2621.200</ele>
        <time>2019-07-14T23:02:28Z</time>
      </trkpt>
      <trkpt lat="35.897703410" lon="-106.487271590">
        <ele>2620.700</ele>
        <time>2019-07-14T23:02:29Z</time>
      </trkpt>
      <trkpt lat="35.897631890" lon="-106.487311700">
        <ele>2621.300</ele>
        <time>2019-07-14T23:02:30Z</time>
      </trkpt>
      <trkpt lat="35.897556760" lon="-106.487342970">
        <ele>2621.500</ele>
        <time>2019-07-14T23:02:31Z</time>
      </trkpt>
      <trkpt lat="35.897478300" lon="-106.487375940">
        <ele>2623.100</ele>
        <time>2019-07-14T23:02:32Z</time>
      </trkpt>
      <trkpt lat="35.897363830" lon="-106.487455080">
        <ele>2623.400</ele>
        <time>2019-07-14T23:02:33Z</time>
      </trkpt>
      <trkpt lat="35.897258360" lon="-106.487485240">
        <ele>2622.100</ele>
        <time>2019-07-14T23:02:34Z</time>
      </trkpt>
      <trkpt lat="35.897167610" lon="-106.487539310">
        <ele>2622.000</ele>
        <time>2019-07-14T23:02:35Z</time>
      </trkpt>
      <trkpt lat="35.897066370" lon="-106.487593260">
        <ele>2620.600</ele>
        <time>2019-07-14T23:02:36Z</time>
      </trkpt>
      <trkpt lat="35.896977050" lon="-106.487650240">
        <ele>2621.100</ele>
        <time>2019-07-14T23:02:37Z</time>
      </trkpt>
      <trkpt lat="35.896887260" lon="-106.487710910">
        <ele>2621.900</ele>
        <time>2019-07-14T23:02:38Z</time>
      </trkpt>
      <trkpt lat="35.896793960" lon="-106.487774420">
        <ele>2622.300</ele>
        <time>2019-07-14T23:02:39Z</time>
      </trkpt>
      <trkpt lat="35.896693070" lon="-106.487822800">
        <ele>2621.400</ele>
        <time>2019-07-14T23:02:40Z</time>
      </trkpt>
      <trkpt lat="35.896589990" lon="-106.487888040">
        <ele>2620.700</ele>
        <time>2019-07-14T23:02:41Z</time>
      </trkpt>
      <trkpt lat="35.896520970" lon="-106.487919400">
        <ele>2622.100</ele>
        <time>2019-07-14T23:02:42Z</time>
      </trkpt>
      <trkpt lat="35.896433060" lon="-106.487975220">
        <ele>2622.500</ele>
        <time>2019-07-14T23:02:43Z</time>
      </trkpt>
      <trkpt lat="35.896337880" lon="-106.488041100">
        <ele>2622.500</ele>
        <time>2019-07-14T23:02:44Z</time>
      </trkpt>
      <trkpt lat="35.896245170" lon="-106.488081930">
        <ele>2622.200</ele>
        <time>2019-07-14T23:02:45Z</time>
      </trkpt>
      <trkpt lat="35.896156380" lon="-106.488126910">
        <ele>2623.300</ele>
        <time>2019-07-14T23:02:46Z</time>
      </trkpt>
      <trkpt lat="35.896078890" lon="-106.488154350">
        <ele>2622.600</ele>
        <time>2019-07-14T23:02:47Z</time>
      </trkpt>
      <trkpt lat="35.896002340" lon="-106.488213040">
        <ele>2621.300</ele>
        <time>2019-07-14T23:02:48Z</time>
      </trkpt>
      <trkpt lat="35.895916530" lon="-106.488255130">
        <ele>2621.800</ele>
        <time>2019-07-14T23:02:49Z</time>
      </trkpt>
      <trkpt lat="35.895826240" lon="-106.488322580">
        <ele>2620.600</ele>
        <time>2019-07-14T23:02:50Z</time>
      </trkpt>
      <trkpt lat="35.895746180" lon="-106.488370760">
        <ele>2620.600</ele>
        <time>2019-07-14T23:02:51Z</time>
      </trkpt>
      <trkpt lat="35.895678810" lon="-106.488401700">
        <ele>2620.300</ele>
        <time>2019-07-14T23:02:52Z</time>
      </trkpt>
      <trkpt lat="35.895579410" lon="-106.488464590">
        <ele>2621.000</ele>
        <time>2019-07-14T23:02:53Z</time>
      </trkpt>
      <trkpt lat="35.895480590" lon="-106.488497270">
        <ele>2619.900</ele>
        <time>2019-07-14T23:02:54Z</time>
      </trkpt>
      <trkpt lat="35.895385840" lon="-106.488534450">
        <ele>2619.400</ele>
        <time>2019-07-14T23:02:55Z</time>
      </trkpt>
      <trkpt lat="35.895305950" lon="-106.488572470">
        <ele>2618.600</ele>
        <time>2019-07-14T23:02:56Z</time>
      </trkpt>
      <trkpt lat="35.895222540" lon="-106.488613500">
        <ele>2619.000</ele>
        <time>2019-07-14T23:02:57Z</time>
      </trkpt>
      <trkpt lat="35.895129630" lon="-106.488658710">
        <ele>2618.100</ele>
        <time>2019-07-14T23:02:58Z</time>
      </trkpt>
      <trkpt lat="35.895037370" lon="-106.488699830">
        <ele>2617.800</ele>
        <time>2019-07-14T23:02:59Z</time>
      </trkpt>
      <trkpt lat="35.894952180" lon="-106.488742050">
        <ele>2618.800</ele>
        <time>2019-07-14T23:03:00Z</time>
      </trkpt>
      <trkpt lat="35.894858320" lon="-106.488784480">
        <ele>2618.200</ele>
        <time>2019-07-14T23:03:01Z</time>
      </trkpt>
      <trkpt lat="35.894768260" lon="-106.488829030">
        <ele>2618.200</ele>
        <time>2019-07-14T23:03:02Z</time>
      </trkpt>
      <trkpt lat="35.894678220" lon="-106.488870320">
        <ele>2617.500</ele>
        <time>2019-07-14T23:03:03Z</time>
      </trkpt>
      <trkpt lat="35.894585430" lon="-106.488908730">
        <ele>2617.600</ele>
        <time>2019-07-14T23:03:04Z</time>
      </trkpt>
      <trkpt lat="35.894501810" lon="-106.488943550">
        <ele>2618.300</ele>
        <time>2019-07-14T23:03:05Z</time>
      </trkpt>
      <trkpt lat="35.894410190" lon="-106.488969470">
        <ele>2617.000</ele>
        <time>2019-07-14T23:03:06Z</time>
      </trkpt>
      <trkpt lat="35.894326630" lon="-106.488991400">
        <ele>2617.500</ele>
        <time>2019-07-14T23:03:07Z</time>
      </trkpt>
      <trkpt lat="35.894256490" lon="-106.489011680">
        <ele>2617.900</ele>
        <time>2019-07-14T23:03:08Z</time>
      </trkpt>
      <trkpt lat="35.894197420" lon="-106.489025780">
        <ele>2618.700</ele>
        <time>2019-07-14T23:03:09Z</time>
      </trkpt>
      <trkpt lat="35.894122070" lon="-106.489047260">
        <ele>2620.000</ele>
        <time>2019-07-14T23:03:11Z</time>
      </trkpt>
      <trkpt lat="35.894079040" lon="-106.489053600">
        <ele>2619.500</ele>
        <time>2019-07-14T23:03:12Z</time>
      </trkpt>
      <trkpt lat="35.894036120" lon="-106.489057730">
        <ele>2619.700</ele>
        <time>2019-07-14T23:03:13Z</time>
      </trkpt>
      <trkpt lat="35.893996140" lon="-106.489064610">
        <ele>2620.800</ele>
        <time>2019-07-14T23:03:14Z</time>
      </trkpt>
      <trkpt lat="35.893954520" lon="-106.489068560">
        <ele>2620.600</ele>
        <time>2019-07-14T23:03:15Z</time>
      </trkpt>
      <trkpt lat="35.893907740" lon="-106.489075330">
        <ele>2620.800</ele>
        <time>2019-07-14T23:03:16Z</time>
      </trkpt>
      <trkpt lat="35.893864030" lon="-106.489068780">
        <ele>2618.600</ele>
        <time>2019-07-14T23:03:17Z</time>
      </trkpt>
      <trkpt lat="35.893808410" lon="-106.489074960">
        <ele>2619.400</ele>
        <time>2019-07-14T23:03:18Z</time>
      </trkpt>
      <trkpt lat="35.893740870" lon="-106.489085650">
        <ele>2619.300</ele>
        <time>2019-07-14T23:03:19Z</time>
      </trkpt>
      <trkpt lat="35.893671570" lon="-106.489096970">
        <ele>2619.300</ele>
        <time>2019-07-14T23:03:20Z</time>
      </trkpt>
      <trkpt lat="35.893597660" lon="-106.489114010">
        <ele>2619.000</ele>
        <time>2019-07-14T23:03:21Z</time>
      </trkpt>
      <trkpt lat="35.893516640" lon="-106.489122130">
        <ele>2618.000</ele>
        <time>2019-07-14T23:03:22Z</time>
      </trkpt>
      <trkpt lat="35.893429290" lon="-106.489135770">
        <ele>2617.200</ele>
        <time>2019-07-14T23:03:23Z</time>
      </trkpt>
      <trkpt lat="35.893339400" lon="-106.489155900">
        <ele>2617.400</ele>
        <time>2019-07-14T23:03:24Z</time>
      </trkpt>
      <trkpt lat="35.893249770" lon="-106.489174740">
        <ele>2617.500</ele>
        <time>2019-07-14T23:03:25Z</time>
      </trkpt>
      <trkpt lat="35.893152010" lon="-106.489193410">
        <ele>2616.300</ele>
        <time>2019-07-14T23:03:26Z</time>
      </trkpt>
      <trkpt lat="35.893061910" lon="-106.489205810">
        <ele>2617.100</ele>
        <time>2019-07-14T23:03:27Z</time>
      </trkpt>
      <trkpt lat="35.892960030" lon="-106.489222970">
        <ele>2617.000</ele>
        <time>2019-07-14T23:03:28Z</time>
      </trkpt>
      <trkpt lat="35.892871070" lon="-106.489242170">
        <ele>2618.000</ele>
        <time>2019-07-14T23:03:29Z</time>
      </trkpt>
      <trkpt lat="35.892779500" lon="-106.489260080">
        <ele>2618.600</ele>
        <time>2019-07-14T23:03:30Z</time>
      </trkpt>
      <trkpt lat="35.892686090" lon="-106.489273090">
        <ele>2618.500</ele>
        <time>2019-07-14T23:03:31Z</time>
      </trkpt>
      <trkpt lat="35.892594950" lon="-106.489286540">
        <ele>2618.900</ele>
        <time>2019-07-14T23:03:32Z</time>
      </trkpt>
      <trkpt lat="35.892502330" lon="-106.489304780">
        <ele>2619.200</ele>
        <time>2019-07-14T23:03:33Z</time>
      </trkpt>
      <trkpt lat="35.892406210" lon="-106.489316370">
        <ele>2619.000</ele>
        <time>2019-07-14T23:03:34Z</time>
      </trkpt>
      <trkpt lat="35.892314700" lon="-106.489328690">
        <ele>2619.100</ele>
        <time>2019-07-14T23:03:35Z</time>
      </trkpt>
      <trkpt lat="35.892218280" lon="-106.489340180">
        <ele>2619.000</ele>
        <time>2019-07-14T23:03:36Z</time>
      </trkpt>
      <trkpt lat="35.892122480" lon="-106.489360480">
        <ele>2618.900</ele>
        <time>2019-07-14T23:03:37Z</time>
      </trkpt>
      <trkpt lat="35.892024840" lon="-106.489379250">
        <ele>2618.900</ele>
        <time>2019-07-14T23:03:38Z</time>
      </trkpt>
      <trkpt lat="35.891926400" lon="-106.489396190">
        <ele>2618.900</ele>
        <time>2019-07-14T23:03:39Z</time>
      </trkpt>
      <trkpt lat="35.891822550" lon="-106.489425940">
        <ele>2619.300</ele>
        <time>2019-07-14T23:03:40Z</time>
      </trkpt>
      <trkpt lat="35.891724230" lon="-106.489439290">
        <ele>2620.200</ele>
        <time>2019-07-14T23:03:41Z</time>
      </trkpt>
      <trkpt lat="35.891627140" lon="-106.489445380">
        <ele>2619.700</ele>
        <time>2019-07-14T23:03:42Z</time>
      </trkpt>
      <trkpt lat="35.891521510" lon="-106.489466560">
        <ele>2618.000</ele>
        <time>2019-07-14T23:03:43Z</time>
      </trkpt>
      <trkpt lat="35.891404550" lon="-106.489502510">
        <ele>2617.200</ele>
        <time>2019-07-14T23:03:44Z</time>
      </trkpt>
      <trkpt lat="35.891289120" lon="-106.489528080">
        <ele>2614.000</ele>
        <time>2019-07-14T23:03:45Z</time>
      </trkpt>
      <trkpt lat="35.891191660" lon="-106.489547060">
        <ele>2614.400</ele>
        <time>2019-07-14T23:03:46Z</time>
      </trkpt>
      <trkpt lat="35.891084360" lon="-106.489576510">
        <ele>2615.400</ele>
        <time>2019-07-14T23:03:47Z</time>
      </trkpt>
      <trkpt lat="35.890975870" lon="-106.489610100">
        <ele>2615.500</ele>
        <time>2019-07-14T23:03:48Z</time>
      </trkpt>
      <trkpt lat="35.890872360" lon="-106.489629350">
        <ele>2614.300</ele>
        <time>2019-07-14T23:03:49Z</time>
      </trkpt>
      <trkpt lat="35.890766060" lon="-106.489661070">
        <ele>2615.900</ele>
        <time>2019-07-14T23:03:50Z</time>
      </trkpt>
      <trkpt lat="35.890661260" lon="-106.489684530">
        <ele>2616.200</ele>
        <time>2019-07-14T23:03:51Z</time>
      </trkpt>
      <trkpt lat="35.890549060" lon="-106.489719230">
        <ele>2615.000</ele>
        <time>2019-07-14T23:03:52Z</time>
      </trkpt>
      <trkpt lat="35.890437070" lon="-106.489745760">
        <ele>2613.300</ele>
        <time>2019-07-14T23:03:53Z</time>
      </trkpt>
      <trkpt lat="35.890330690" lon="-106.489768000">
        <ele>2613.400</ele>
        <time>2019-07-14T23:03:54Z</time>
      </trkpt>
      <trkpt lat="35.890231000" lon="-106.489791060">
        <ele>2612.900</ele>
        <time>2019-07-14T23:03:55Z</time>
      </trkpt>
      <trkpt lat="35.890146530" lon="-106.489809570">
        <ele>2612.200</ele>
        <time>2019-07-14T23:03:56Z</time>
      </trkpt>
      <trkpt lat="35.890063250" lon="-106.489835290">
        <ele>2612.600</ele>
        <time>2019-07-14T23:03:57Z</time>
      </trkpt>
      <trkpt lat="35.889989000" lon="-106.489857460">
        <ele>2610.800</ele>
        <time>2019-07-14T23:03:58Z</time>
      </trkpt>
      <trkpt lat="35.889917540" lon="-106.489883140">
        <ele>2610.600</ele>
        <time>2019-07-14T23:03:59Z</time>
      </trkpt>
      <trkpt lat="35.889848340" lon="-106.489922910">
        <ele>2610.200</ele>
        <time>2019-07-14T23:04:00Z</time>
      </trkpt>
      <trkpt lat="35.889770300" lon="-106.489957060">
        <ele>2609.900</ele>
        <time>2019-07-14T23:04:01Z</time>
      </trkpt>
      <trkpt lat="35.889698160" lon="-106.489990360">
        <ele>2609.400</ele>
        <time>2019-07-14T23:04:02Z</time>
      </trkpt>
      <trkpt lat="35.889628600" lon="-106.490025560">
        <ele>2609.200</ele>
        <time>2019-07-14T23:04:03Z</time>
      </trkpt>
      <trkpt lat="35.889565010" lon="-106.490054290">
        <ele>2608.000</ele>
        <time>2019-07-14T23:04:04Z</time>
      </trkpt>
      <trkpt lat="35.889508260" lon="-106.490083510">
        <ele>2607.700</ele>
        <time>2019-07-14T23:04:05Z</time>
      </trkpt>
      <trkpt lat="35.889452330" lon="-106.490126110">
        <ele>2608.000</ele>
        <time>2019-07-14T23:04:06Z</time>
      </trkpt>
      <trkpt lat="35.889399960" lon="-106.490169790">
        <ele>2607.900</ele>
        <time>2019-07-14T23:04:07Z</time>
      </trkpt>
      <trkpt lat="35.889362040" lon="-106.490229800">
        <ele>2607.900</ele>
        <time>2019-07-14T23:04:08Z</time>
      </trkpt>
      <trkpt lat="35.889320820" lon="-106.490288900">
        <ele>2608.200</ele>
        <time>2019-07-14T23:04:09Z</time>
      </trkpt>
      <trkpt lat="35.889282740" lon="-106.490359660">
        <ele>2607.900</ele>
        <time>2019-07-14T23:04:10Z</time>
      </trkpt>
      <trkpt lat="35.889244130" lon="-106.490434830">
        <ele>2607.900</ele>
        <time>2019-07-14T23:04:11Z</time>
      </trkpt>
      <trkpt lat="35.889231930" lon="-106.490511840">
        <ele>2607.900</ele>
        <time>2019-07-14T23:04:12Z</time>
      </trkpt>
      <trkpt lat="35.889201690" lon="-106.490599760">
        <ele>2607.700</ele>
        <time>2019-07-14T23:04:13Z</time>
      </trkpt>
      <trkpt lat="35.889195250" lon="-106.490691530">
        <ele>2608.100</ele>
        <time>2019-07-14T23:04:14Z</time>
      </trkpt>
      <trkpt lat="35.889164370" lon="-106.490787600">
        <ele>2607.500</ele>
        <time>2019-07-14T23:04:15Z</time>
      </trkpt>
      <trkpt lat="35.889141070" lon="-106.490872710">
        <ele>2606.700</ele>
        <time>2019-07-14T23:04:16Z</time>
      </trkpt>
      <trkpt lat="35.889118680" lon="-106.490959600">
        <ele>2606.800</ele>
        <time>2019-07-14T23:04:17Z</time>
      </trkpt>
      <trkpt lat="35.889108710" lon="-106.491048320">
        <ele>2607.300</ele>
        <time>2019-07-14T23:04:18Z</time>
      </trkpt>
      <trkpt lat="35.889090510" lon="-106.491141950">
        <ele>2607.300</ele>
        <time>2019-07-14T23:04:19Z</time>
      </trkpt>
      <trkpt lat="35.889072560" lon="-106.491237810">
        <ele>2607.300</ele>
        <time>2019-07-14T23:04:20Z</time>
      </trkpt>
      <trkpt lat="35.889059010" lon="-106.491334690">
        <ele>2607.500</ele>
        <time>2019-07-14T23:04:21Z</time>
      </trkpt>
      <trkpt lat="35.889045180" lon="-106.491433000">
        <ele>2607.400</ele>
        <time>2019-07-14T23:04:22Z</time>
      </trkpt>
      <trkpt lat="35.889036590" lon="-106.491529540">
        <ele>2606.900</ele>
        <time>2019-07-14T23:04:23Z</time>
      </trkpt>
      <trkpt lat="35.889028840" lon="-106.491637530">
        <ele>2606.400</ele>
        <time>2019-07-14T23:04:24Z</time>
      </trkpt>
      <trkpt lat="35.889022900" lon="-106.491750450">
        <ele>2606.200</ele>
        <time>2019-07-14T23:04:25Z</time>
      </trkpt>
      <trkpt lat="35.889018360" lon="-106.491857070">
        <ele>2605.500</ele>
        <time>2019-07-14T23:04:26Z</time>
      </trkpt>
      <trkpt lat="35.889016350" lon="-106.491969280">
        <ele>2605.500</ele>
        <time>2019-07-14T23:04:27Z</time>
      </trkpt>
      <trkpt lat="35.889020060" lon="-106.492078910">
        <ele>2605.600</ele>
        <time>2019-07-14T23:04:28Z</time>
      </trkpt>
      <trkpt lat="35.889018220" lon="-106.492193780">
        <ele>2605.500</ele>
        <time>2019-07-14T23:04:29Z</time>
      </trkpt>
      <trkpt lat="35.889043130" lon="-106.492306030">
        <ele>2605.900</ele>
        <time>2019-07-14T23:04:30Z</time>
      </trkpt>
      <trkpt lat="35.889042360" lon="-106.492423210">
        <ele>2605.700</ele>
        <time>2019-07-14T23:04:31Z</time>
      </trkpt>
      <trkpt lat="35.889060210" lon="-106.492536610">
        <ele>2606.200</ele>
        <time>2019-07-14T23:04:32Z</time>
      </trkpt>
      <trkpt lat="35.889089440" lon="-106.492645240">
        <ele>2605.300</ele>
        <time>2019-07-14T23:04:33Z</time>
      </trkpt>
      <trkpt lat="35.889103170" lon="-106.492755560">
        <ele>2605.400</ele>
        <time>2019-07-14T23:04:34Z</time>
      </trkpt>
      <trkpt lat="35.889108870" lon="-106.492858560">
        <ele>2605.300</ele>
        <time>2019-07-14T23:04:35Z</time>
      </trkpt>
      <trkpt lat="35.889132320" lon="-106.492963100">
        <ele>2605.300</ele>
        <time>2019-07-14T23:04:36Z</time>
      </trkpt>
      <trkpt lat="35.889157010" lon="-106.493065860">
        <ele>2604.400</ele>
        <time>2019-07-14T23:04:37Z</time>
      </trkpt>
      <trkpt lat="35.889180960" lon="-106.493173000">
        <ele>2604.700</ele>
        <time>2019-07-14T23:04:38Z</time>
      </trkpt>
      <trkpt lat="35.889190280" lon="-106.493282240">
        <ele>2604.700</ele>
        <time>2019-07-14T23:04:39Z</time>
      </trkpt>
      <trkpt lat="35.889206620" lon="-106.493384830">
        <ele>2604.400</ele>
        <time>2019-07-14T23:04:40Z</time>
      </trkpt>
      <trkpt lat="35.889234280" lon="-106.493493230">
        <ele>2604.300</ele>
        <time>2019-07-14T23:04:41Z</time>
      </trkpt>
      <trkpt lat="35.889256410" lon="-106.493599300">
        <ele>2604.500</ele>
        <time>2019-07-14T23:04:42Z</time>
      </trkpt>
      <trkpt lat="35.889283190" lon="-106.493714350">
        <ele>2604.100</ele>
        <time>2019-07-14T23:04:43Z</time>
      </trkpt>
      <trkpt lat="35.889323440" lon="-106.493824720">
        <ele>2605.400</ele>
        <time>2019-07-14T23:04:44Z</time>
      </trkpt>
      <trkpt lat="35.889349760" lon="-106.493931500">
        <ele>2605.600</ele>
        <time>2019-07-14T23:04:45Z</time>
      </trkpt>
      <trkpt lat="35.889371580" lon="-106.494046550">
        <ele>2605.800</ele>
        <time>2019-07-14T23:04:46Z</time>
      </trkpt>
      <trkpt lat="35.889397160" lon="-106.494154820">
        <ele>2606.400</ele>
        <time>2019-07-14T23:04:47Z</time>
      </trkpt>
      <trkpt lat="35.889421540" lon="-106.494263420">
        <ele>2606.600</ele>
        <time>2019-07-14T23:04:48Z</time>
      </trkpt>
      <trkpt lat="35.889442340" lon="-106.494365500">
        <ele>2606.500</ele>
        <time>2019-07-14T23:04:49Z</time>
      </trkpt>
      <trkpt lat="35.889462310" lon="-106.494469060">
        <ele>2607.000</ele>
        <time>2019-07-14T23:04:50Z</time>
      </trkpt>
      <trkpt lat="35.889490140" lon="-106.494569600">
        <ele>2606.600</ele>
        <time>2019-07-14T23:04:51Z</time>
      </trkpt>
      <trkpt lat="35.889525250" lon="-106.494666330">
        <ele>2606.700</ele>
        <time>2019-07-14T23:04:52Z</time>
      </trkpt>
      <trkpt lat="35.889563730" lon="-106.494763690">
        <ele>2606.200</ele>
        <time>2019-07-14T23:04:53Z</time>
      </trkpt>
      <trkpt lat="35.889601860" lon="-106.494861940">
        <ele>2606.700</ele>
        <time>2019-07-14T23:04:54Z</time>
      </trkpt>
      <trkpt lat="35.889633750" lon="-106.494954940">
        <ele>2606.500</ele>
        <time>2019-07-14T23:04:55Z</time>
      </trkpt>
      <trkpt lat="35.889665690" lon="-106.495031840">
        <ele>2606.000</ele>
        <time>2019-07-14T23:04:56Z</time>
      </trkpt>
      <trkpt lat="35.889707670" lon="-106.495093320">
        <ele>2605.900</ele>
        <time>2019-07-14T23:04:57Z</time>
      </trkpt>
      <trkpt lat="35.889749250" lon="-106.495152760">
        <ele>2606.400</ele>
        <time>2019-07-14T23:04:58Z</time>
      </trkpt>
      <trkpt lat="35.889783900" lon="-106.495213310">
        <ele>2606.000</ele>
        <time>2019-07-14T23:04:59Z</time>
      </trkpt>
      <trkpt lat="35.889832510" lon="-106.495273510">
        <ele>2605.700</ele>
        <time>2019-07-14T23:05:01Z</time>
      </trkpt>
      <trkpt lat="35.889873840" lon="-106.495301970">
        <ele>2605.600</ele>
        <time>2019-07-14T23:05:02Z</time>
      </trkpt>
      <trkpt lat="35.889918880" lon="-106.495314750">
        <ele>2605.300</ele>
        <time>2019-07-14T23:05:03Z</time>
      </trkpt>
      <trkpt lat="35.889953500" lon="-106.495345150">
        <ele>2605.800</ele>
        <time>2019-07-14T23:05:04Z</time>
      </trkpt>
      <trkpt lat="35.889988450" lon="-106.495371490">
        <ele>2606.800</ele>
        <time>2019-07-14T23:05:05Z</time>
      </trkpt>
      <trkpt lat="35.890037210" lon="-106.495370050">
        <ele>2604.100</ele>
        <time>2019-07-14T23:05:06Z</time>
      </trkpt>
      <trkpt lat="35.890073610" lon="-106.495397180">
        <ele>2602.800</ele>
        <time>2019-07-14T23:05:07Z</time>
      </trkpt>
      <trkpt lat="35.890104680" lon="-106.495420120">
        <ele>2603.500</ele>
        <time>2019-07-14T23:05:08Z</time>
      </trkpt>
      <trkpt lat="35.890139480" lon="-106.495446760">
        <ele>2604.200</ele>
        <time>2019-07-14T23:05:09Z</time>
      </trkpt>
      <trkpt lat="35.890183150" lon="-106.495456880">
        <ele>2604.600</ele>
        <time>2019-07-14T23:05:10Z</time>
      </trkpt>
      <trkpt lat="35.890225210" lon="-106.495471710">
        <ele>2604.900</ele>
        <time>2019-07-14T23:05:11Z</time>
      </trkpt>
      <trkpt lat="35.890274680" lon="-106.495489160">
        <ele>2604.900</ele>
        <time>2019-07-14T23:05:12Z</time>
      </trkpt>
      <trkpt lat="35.890316090" lon="-106.495514470">
        <ele>2605.100</ele>
        <time>2019-07-14T23:05:13Z</time>
      </trkpt>
      <trkpt lat="35.890359440" lon="-106.495545510">
        <ele>2604.900</ele>
        <time>2019-07-14T23:05:14Z</time>
      </trkpt>
      <trkpt lat="35.890415350" lon="-106.495578320">
        <ele>2604.100</ele>
        <time>2019-07-14T23:05:15Z</time>
      </trkpt>
      <trkpt lat="35.890458600" lon="-106.495602140">
        <ele>2604.800</ele>
        <time>2019-07-14T23:05:16Z</time>
      </trkpt>
      <trkpt lat="35.890491280" lon="-106.495646340">
        <ele>2605.300</ele>
        <time>2019-07-14T23:05:17Z</time>
      </trkpt>
      <trkpt lat="35.890523000" lon="-106.495686490">
        <ele>2606.300</ele>
        <time>2019-07-14T23:05:18Z</time>
      </trkpt>
      <trkpt lat="35.890563070" lon="-106.495733360">
        <ele>2607.200</ele>
        <time>2019-07-14T23:05:19Z</time>
      </trkpt>
      <trkpt lat="35.890601700" lon="-106.495784500">
        <ele>2608.500</ele>
        <time>2019-07-14T23:05:20Z</time>
      </trkpt>
      <trkpt lat="35.890635210" lon="-106.495825550">
        <ele>2609.500</ele>
        <time>2019-07-14T23:05:21Z</time>
      </trkpt>
      <trkpt lat="35.890670460" lon="-106.495869240">
        <ele>2610.600</ele>
        <time>2019-07-14T23:05:22Z</time>
      </trkpt>
      <trkpt lat="35.890713410" lon="-106.495901050">
        <ele>2611.600</ele>
        <time>2019-07-14T23:05:23Z</time>
      </trkpt>
      <trkpt lat="35.890758460" lon="-106.495951690">
        <ele>2611.600</ele>
        <time>2019-07-14T23:05:24Z</time>
      </trkpt>
      <trkpt lat="35.890804180" lon="-106.496002990">
        <ele>2612.300</ele>
        <time>2019-07-14T23:05:25Z</time>
      </trkpt>
      <trkpt lat="35.890848770" lon="-106.496046950">
        <ele>2612.200</ele>
        <time>2019-07-14T23:05:26Z</time>
      </trkpt>
      <trkpt lat="35.890889970" lon="-106.496098700">
        <ele>2612.500</ele>
        <time>2019-07-14T23:05:27Z</time>
      </trkpt>
      <trkpt lat="35.890917850" lon="-106.496161940">
        <ele>2614.500</ele>
        <time>2019-07-14T23:05:28Z</time>
      </trkpt>
      <trkpt lat="35.890945800" lon="-106.496219400">
        <ele>2614.000</ele>
        <time>2019-07-14T23:05:29Z</time>
      </trkpt>
      <trkpt lat="35.890960110" lon="-106.496269100">
        <ele>2614.300</ele>
        <time>2019-07-14T23:05:30Z</time>
      </trkpt>
      <trkpt lat="35.890968980" lon="-106.496328690">
        <ele>2614.400</ele>
        <time>2019-07-14T23:05:31Z</time>
      </trkpt>
      <trkpt lat="35.890982120" lon="-106.496387310">
        <ele>2615.200</ele>
        <time>2019-07-14T23:05:32Z</time>
      </trkpt>
      <trkpt lat="35.890980110" lon="-106.496443980">
        <ele>2614.800</ele>
        <time>2019-07-14T23:05:33Z</time>
      </trkpt>
      <trkpt lat="35.890982890" lon="-106.496493070">
        <ele>2615.800</ele>
        <time>2019-07-14T23:05:34Z</time>
      </trkpt>
      <trkpt lat="35.890984400" lon="-106.496549720">
        <ele>2616.400</ele>
        <time>2019-07-14T23:05:35Z</time>
      </trkpt>
      <trkpt lat="35.890983760" lon="-106.496606340">
        <ele>2617.500</ele>
        <time>2019-07-14T23:05:36Z</time>
      </trkpt>
      <trkpt lat="35.890979980" lon="-106.496660400">
        <ele>2616.700</ele>
        <time>2019-07-14T23:05:37Z</time>
      </trkpt>
      <trkpt lat="35.890974110" lon="-106.496723950">
        <ele>2617.500</ele>
        <time>2019-07-14T23:05:38Z</time>
      </trkpt>
      <trkpt lat="35.890963220" lon="-106.496774570">
        <ele>2617.400</ele>
        <time>2019-07-14T23:05:39Z</time>
      </trkpt>
      <trkpt lat="35.890959290" lon="-106.496832300">
        <ele>2618.100</ele>
        <time>2019-07-14T23:05:40Z</time>
      </trkpt>
      <trkpt lat="35.890956020" lon="-106.496879260">
        <ele>2618.000</ele>
        <time>2019-07-14T23:05:41Z</time>
      </trkpt>
      <trkpt lat="35.890932690" lon="-106.496930540">
        <ele>2618.300</ele>
        <time>2019-07-14T23:05:42Z</time>
      </trkpt>
      <trkpt lat="35.890923800" lon="-106.496987470">
        <ele>2618.400</ele>
        <time>2019-07-14T23:05:43Z</time>
      </trkpt>
      <trkpt lat="35.890901810" lon="-106.497034010">
        <ele>2617.500</ele>
        <time>2019-07-14T23:05:44Z</time>
      </trkpt>
      <trkpt lat="35.890897330" lon="-106.497092860">
        <ele>2619.200</ele>
        <time>2019-07-14T23:05:45Z</time>
      </trkpt>
      <trkpt lat="35.890872500" lon="-106.497141470">
        <ele>2618.800</ele>
        <time>2019-07-14T23:05:46Z</time>
      </trkpt>
      <trkpt lat="35.890863230" lon="-106.497190100">
        <ele>2619.600</ele>
        <time>2019-07-14T23:05:47Z</time>
      </trkpt>
      <trkpt lat="35.890848410" lon="-106.497234760">
        <ele>2619.900</ele>
        <time>2019-07-14T23:05:48Z</time>
      </trkpt>
      <trkpt lat="35.890815920" lon="-106.497275970">
        <ele>2618.700</ele>
        <time>2019-07-14T23:05:49Z</time>
      </trkpt>
      <trkpt lat="35.890793190" lon="-106.497321780">
        <ele>2618.900</ele>
        <time>2019-07-14T23:05:50Z</time>
      </trkpt>
      <trkpt lat="35.890773630" lon="-106.497363170">
        <ele>2619.500</ele>
        <time>2019-07-14T23:05:51Z</time>
      </trkpt>
      <trkpt lat="35.890739370" lon="-106.497398730">
        <ele>2618.900</ele>
        <time>2019-07-14T23:05:52Z</time>
      </trkpt>
      <trkpt lat="35.890720050" lon="-106.497439320">
        <ele>2619.400</ele>
        <time>2019-07-14T23:05:53Z</time>
      </trkpt>
      <trkpt lat="35.890673880" lon="-106.497463210">
        <ele>2618.700</ele>
        <time>2019-07-14T23:05:54Z</time>
      </trkpt>
      <trkpt lat="35.890639180" lon="-106.497495070">
        <ele>2619.200</ele>
        <time>2019-07-14T23:05:55Z</time>
      </trkpt>
      <trkpt lat="35.890598910" lon="-106.497517070">
        <ele>2619.600</ele>
        <time>2019-07-14T23:05:56Z</time>
      </trkpt>
      <trkpt lat="35.890551350" lon="-106.497547320">
        <ele>2619.900</ele>
        <time>2019-07-14T23:05:57Z</time>
      </trkpt>
      <trkpt lat="35.890503170" lon="-106.497571650">
        <ele>2620.700</ele>
        <time>2019-07-14T23:05:58Z</time>
      </trkpt>
      <trkpt lat="35.890462160" lon="-106.497598370">
        <ele>2621.800</ele>
        <time>2019-07-14T23:05:59Z</time>
      </trkpt>
      <trkpt lat="35.890412240" lon="-106.497628110">
        <ele>2622.200</ele>
        <time>2019-07-14T23:06:00Z</time>
      </trkpt>
      <trkpt lat="35.890360550" lon="-106.497653950">
        <ele>2622.800</ele>
        <time>2019-07-14T23:06:01Z</time>
      </trkpt>
      <trkpt lat="35.890319940" lon="-106.497686000">
        <ele>2623.400</ele>
        <time>2019-07-14T23:06:02Z</time>
      </trkpt>
      <trkpt lat="35.890262640" lon="-106.497711400">
        <ele>2623.700</ele>
        <time>2019-07-14T23:06:03Z</time>
      </trkpt>
      <trkpt lat="35.890214180" lon="-106.497740720">
        <ele>2624.100</ele>
        <time>2019-07-14T23:06:04Z</time>
      </trkpt>
      <trkpt lat="35.890165730" lon="-106.497772550">
        <ele>2623.800</ele>
        <time>2019-07-14T23:06:05Z</time>
      </trkpt>
      <trkpt lat="35.890124770" lon="-106.497802810">
        <ele>2625.500</ele>
        <time>2019-07-14T23:06:06Z</time>
      </trkpt>
      <trkpt lat="35.890069180" lon="-106.497824780">
        <ele>2624.700</ele>
        <time>2019-07-14T23:06:07Z</time>
      </trkpt>
      <trkpt lat="35.890019160" lon="-106.497846310">
        <ele>2624.500</ele>
        <time>2019-07-14T23:06:08Z</time>
      </trkpt>
      <trkpt lat="35.889973870" lon="-106.497875180">
        <ele>2624.400</ele>
        <time>2019-07-14T23:06:09Z</time>
      </trkpt>
      <trkpt lat="35.889935090" lon="-106.497904820">
        <ele>2625.400</ele>
        <time>2019-07-14T23:06:10Z</time>
      </trkpt>
      <trkpt lat="35.889877580" lon="-106.497928060">
        <ele>2625.200</ele>
        <time>2019-07-14T23:06:11Z</time>
      </trkpt>
      <trkpt lat="35.889821040" lon="-106.497950070">
        <ele>2625.000</ele>
        <time>2019-07-14T23:06:12Z</time>
      </trkpt>
      <trkpt lat="35.889762120" lon="-106.497975200">
        <ele>2625.300</ele>
        <time>2019-07-14T23:06:13Z</time>
      </trkpt>
      <trkpt lat="35.889704850" lon="-106.498008280">
        <ele>2626.200</ele>
        <time>2019-07-14T23:06:14Z</time>
      </trkpt>
      <trkpt lat="35.889644130" lon="-106.498041500">
        <ele>2627.300</ele>
        <time>2019-07-14T23:06:15Z</time>
      </trkpt>
      <trkpt lat="35.889573560" lon="-106.498072820">
        <ele>2627.600</ele>
        <time>2019-07-14T23:06:16Z</time>
      </trkpt>
      <trkpt lat="35.889506270" lon="-106.498090580">
        <ele>2628.000</ele>
        <time>2019-07-14T23:06:17Z</time>
      </trkpt>
      <trkpt lat="35.889434370" lon="-106.498104780">
        <ele>2627.400</ele>
        <time>2019-07-14T23:06:18Z</time>
      </trkpt>
      <trkpt lat="35.889361630" lon="-106.498107250">
        <ele>2627.500</ele>
        <time>2019-07-14T23:06:19Z</time>
      </trkpt>
      <trkpt lat="35.889277670" lon="-106.498097960">
        <ele>2627.600</ele>
        <time>2019-07-14T23:06:20Z</time>
      </trkpt>
      <trkpt lat="35.889193160" lon="-106.498079060">
        <ele>2627.800</ele>
        <time>2019-07-14T23:06:21Z</time>
      </trkpt>
      <trkpt lat="35.889110940" lon="-106.498052310">
        <ele>2627.600</ele>
        <time>2019-07-14T23:06:22Z</time>
      </trkpt>
      <trkpt lat="35.889026530" lon="-106.498019540">
        <ele>2628.400</ele>
        <time>2019-07-14T23:06:23Z</time>
      </trkpt>
      <trkpt lat="35.888936600" lon="-106.497969730">
        <ele>2627.000</ele>
        <time>2019-07-14T23:06:24Z</time>
      </trkpt>
      <trkpt lat="35.888858370" lon="-106.497928010">
        <ele>2627.300</ele>
        <time>2019-07-14T23:06:25Z</time>
      </trkpt>
      <trkpt lat="35.888777510" lon="-106.497880350">
        <ele>2628.300</ele>
        <time>2019-07-14T23:06:26Z</time>
      </trkpt>
      <trkpt lat="35.888699280" lon="-106.497843110">
        <ele>2629.100</ele>
        <time>2019-07-14T23:06:27Z</time>
      </trkpt>
      <trkpt lat="35.888610980" lon="-106.497820030">
        <ele>2628.200</ele>
        <time>2019-07-14T23:06:28Z</time>
      </trkpt>
      <trkpt lat="35.888523250" lon="-106.497781810">
        <ele>2628.500</ele>
        <time>2019-07-14T23:06:29Z</time>
      </trkpt>
      <trkpt lat="35.888431910" lon="-106.497745390">
        <ele>2630.400</ele>
        <time>2019-07-14T23:06:30Z</time>
      </trkpt>
      <trkpt lat="35.888331050" lon="-106.497712150">
        <ele>2630.500</ele>
        <time>2019-07-14T23:06:31Z</time>
      </trkpt>
      <trkpt lat="35.888222700" lon="-106.497672680">
        <ele>2629.700</ele>
        <time>2019-07-14T23:06:32Z</time>
      </trkpt>
      <trkpt lat="35.888114910" lon="-106.497616940">
        <ele>2629.700</ele>
        <time>2019-07-14T23:06:33Z</time>
      </trkpt>
      <trkpt lat="35.888012730" lon="-106.497563520">
        <ele>2628.900</ele>
        <time>2019-07-14T23:06:34Z</time>
      </trkpt>
      <trkpt lat="35.887918520" lon="-106.497510460">
        <ele>2629.400</ele>
        <time>2019-07-14T23:06:35Z</time>
      </trkpt>
      <trkpt lat="35.887828520" lon="-106.497432470">
        <ele>2630.000</ele>
        <time>2019-07-14T23:06:36Z</time>
      </trkpt>
      <trkpt lat="35.887743620" lon="-106.497360180">
        <ele>2630.800</ele>
        <time>2019-07-14T23:06:37Z</time>
      </trkpt>
      <trkpt lat="35.887650630" lon="-106.497301390">
        <ele>2628.800</ele>
        <time>2019-07-14T23:06:38Z</time>
      </trkpt>
      <trkpt lat="35.887565430" lon="-106.497230150">
        <ele>2629.900</ele>
        <time>2019-07-14T23:06:39Z</time>
      </trkpt>
      <trkpt lat="35.887485340" lon="-106.497146060">
        <ele>2629.100</ele>
        <time>2019-07-14T23:06:40Z</time>
      </trkpt>
      <trkpt lat="35.887401450" lon="-106.497076810">
        <ele>2628.900</ele>
        <time>2019-07-14T23:06:41Z</time>
      </trkpt>
      <trkpt lat="35.887322580" lon="-106.496999220">
        <ele>2628.100</ele>
        <time>2019-07-14T23:06:42Z</time>
      </trkpt>
      <trkpt lat="35.887241030" lon="-106.496926690">
        <ele>2628.400</ele>
        <time>2019-07-14T23:06:43Z</time>
      </trkpt>
      <trkpt lat="35.887153570" lon="-106.496862310">
        <ele>2627.300</ele>
        <time>2019-07-14T23:06:44Z</time>
      </trkpt>
      <trkpt lat="35.887071830" lon="-106.496794690">
        <ele>2628.300</ele>
        <time>2019-07-14T23:06:45Z</time>
      </trkpt>
      <trkpt lat="35.886999270" lon="-106.496730100">
        <ele>2628.400</ele>
        <time>2019-07-14T23:06:46Z</time>
      </trkpt>
      <trkpt lat="35.886916140" lon="-106.496666870">
        <ele>2627.900</ele>
        <time>2019-07-14T23:06:47Z</time>
      </trkpt>
      <trkpt lat="35.886834800" lon="-106.496609200">
        <ele>2628.100</ele>
        <time>2019-07-14T23:06:48Z</time>
      </trkpt>
      <trkpt lat="35.886762250" lon="-106.496587460">
        <ele>2626.700</ele>
        <time>2019-07-14T23:06:49Z</time>
      </trkpt>
      <trkpt lat="35.886679790" lon="-106.496556430">
        <ele>2626.500</ele>
        <time>2019-07-14T23:06:50Z</time>
      </trkpt>
      <trkpt lat="35.886597950" lon="-106.496539920">
        <ele>2626.100</ele>
        <time>2019-07-14T23:06:51Z</time>
      </trkpt>
      <trkpt lat="35.886516750" lon="-106.496529190">
        <ele>2625.900</ele>
        <time>2019-07-14T23:06:52Z</time>
      </trkpt>
      <trkpt lat="35.886428860" lon="-106.496519760">
        <ele>2625.700</ele>
        <time>2019-07-14T23:06:53Z</time>
      </trkpt>
      <trkpt lat="35.886350390" lon="-106.496507300">
        <ele>2626.700</ele>
        <time>2019-07-14T23:06:54Z</time>
      </trkpt>
      <trkpt lat="35.886267620" lon="-106.496492980">
        <ele>2626.500</ele>
        <time>2019-07-14T23:06:55Z</time>
      </trkpt>
      <trkpt lat="35.886194360" lon="-106.496480640">
        <ele>2627.100</ele>
        <time>2019-07-14T23:06:56Z</time>
      </trkpt>
      <trkpt lat="35.886121500" lon="-106.496463610">
        <ele>2627.100</ele>
        <time>2019-07-14T23:06:57Z</time>
      </trkpt>
      <trkpt lat="35.886049170" lon="-106.496440650">
        <ele>2627.700</ele>
        <time>2019-07-14T23:06:58Z</time>
      </trkpt>
      <trkpt lat="35.885968740" lon="-106.496417640">
        <ele>2627.700</ele>
        <time>2019-07-14T23:06:59Z</time>
      </trkpt>
      <trkpt lat="35.885887730" lon="-106.496390430">
        <ele>2627.700</ele>
        <time>2019-07-14T23:07:00Z</time>
      </trkpt>
      <trkpt lat="35.885814890" lon="-106.496359170">
        <ele>2629.300</ele>
        <time>2019-07-14T23:07:01Z</time>
      </trkpt>
      <trkpt lat="35.885731770" lon="-106.496318220">
        <ele>2628.900</ele>
        <time>2019-07-14T23:07:02Z</time>
      </trkpt>
      <trkpt lat="35.885639890" lon="-106.496271420">
        <ele>2628.600</ele>
        <time>2019-07-14T23:07:03Z</time>
      </trkpt>
      <trkpt lat="35.885551860" lon="-106.496231800">
        <ele>2627.700</ele>
        <time>2019-07-14T23:07:04Z</time>
      </trkpt>
      <trkpt lat="35.885464850" lon="-106.496186320">
        <ele>2628.000</ele>
        <time>2019-07-14T23:07:05Z</time>
      </trkpt>
      <trkpt lat="35.885382110" lon="-106.496131350">
        <ele>2626.800</ele>
        <time>2019-07-14T23:07:06Z</time>
      </trkpt>
      <trkpt lat="35.885290710" lon="-106.496077640">
        <ele>2625.500</ele>
        <time>2019-07-14T23:07:07Z</time>
      </trkpt>
      <trkpt lat="35.885211260" lon="-106.496021120">
        <ele>2625.200</ele>
        <time>2019-07-14T23:07:08Z</time>
      </trkpt>
      <trkpt lat="35.885139290" lon="-106.495954830">
        <ele>2624.800</ele>
        <time>2019-07-14T23:07:09Z</time>
      </trkpt>
      <trkpt lat="35.885083060" lon="-106.495879670">
        <ele>2624.700</ele>
        <time>2019-07-14T23:07:10Z</time>
      </trkpt>
      <trkpt lat="35.885036320" lon="-106.495810680">
        <ele>2625.500</ele>
        <time>2019-07-14T23:07:11Z</time>
      </trkpt>
      <trkpt lat="35.884989250" lon="-106.495743210">
        <ele>2626.000</ele>
        <time>2019-07-14T23:07:12Z</time>
      </trkpt>
      <trkpt lat="35.884949200" lon="-106.495672440">
        <ele>2626.900</ele>
        <time>2019-07-14T23:07:13Z</time>
      </trkpt>
      <trkpt lat="35.884908860" lon="-106.495596240">
        <ele>2625.000</ele>
        <time>2019-07-14T23:07:14Z</time>
      </trkpt>
      <trkpt lat="35.884887120" lon="-106.495505330">
        <ele>2625.100</ele>
        <time>2019-07-14T23:07:15Z</time>
      </trkpt>
      <trkpt lat="35.884862260" lon="-106.495427970">
        <ele>2623.900</ele>
        <time>2019-07-14T23:07:16Z</time>
      </trkpt>
      <trkpt lat="35.884850460" lon="-106.495331500">
        <ele>2624.700</ele>
        <time>2019-07-14T23:07:17Z</time>
      </trkpt>
      <trkpt lat="35.884829570" lon="-106.495237010">
        <ele>2624.700</ele>
        <time>2019-07-14T23:07:18Z</time>
      </trkpt>
      <trkpt lat="35.884804170" lon="-106.495146440">
        <ele>2624.500</ele>
        <time>2019-07-14T23:07:19Z</time>
      </trkpt>
      <trkpt lat="35.884777520" lon="-106.495064650">
        <ele>2624.300</ele>
        <time>2019-07-14T23:07:20Z</time>
      </trkpt>
      <trkpt lat="35.884756280" lon="-106.495004830">
        <ele>2624.300</ele>
        <time>2019-07-14T23:07:21Z</time>
      </trkpt>
      <trkpt lat="35.884724770" lon="-106.494966420">
        <ele>2624.100</ele>
        <time>2019-07-14T23:07:22Z</time>
      </trkpt>
      <trkpt lat="35.884709430" lon="-106.494922350">
        <ele>2625.000</ele>
        <time>2019-07-14T23:07:23Z</time>
      </trkpt>
      <trkpt lat="35.884673600" lon="-106.494886020">
        <ele>2626.100</ele>
        <time>2019-07-14T23:07:32Z</time>
      </trkpt>
      <trkpt lat="35.884643650" lon="-106.494837450">
        <ele>2626.400</ele>
        <time>2019-07-14T23:07:34Z</time>
      </trkpt>
      <trkpt lat="35.884622390" lon="-106.494800580">
        <ele>2627.100</ele>
        <time>2019-07-14T23:07:35Z</time>
      </trkpt>
      <trkpt lat="35.884593660" lon="-106.494762560">
        <ele>2626.900</ele>
        <time>2019-07-14T23:07:36Z</time>
      </trkpt>
      <trkpt lat="35.884561410" lon="-106.494726900">
        <ele>2626.000</ele>
        <time>2019-07-14T23:07:37Z</time>
      </trkpt>
      <trkpt lat="35.884506330" lon="-106.494698240">
        <ele>2626.300</ele>
        <time>2019-07-14T23:07:38Z</time>
      </trkpt>
      <trkpt lat="35.884445160" lon="-106.494664180">
        <ele>2624.600</ele>
        <time>2019-07-14T23:07:39Z</time>
      </trkpt>
      <trkpt lat="35.884389710" lon="-106.494638990">
        <ele>2624.100</ele>
        <time>2019-07-14T23:07:40Z</time>
      </trkpt>
      <trkpt lat="35.884342620" lon="-106.494620140">
        <ele>2624.800</ele>
        <time>2019-07-14T23:07:41Z</time>
      </trkpt>
      <trkpt lat="35.884282010" lon="-106.494610240">
        <ele>2624.700</ele>
        <time>2019-07-14T23:07:42Z</time>
      </trkpt>
      <trkpt lat="35.884214550" lon="-106.494601640">
        <ele>2622.600</ele>
        <time>2019-07-14T23:07:43Z</time>
      </trkpt>
      <trkpt lat="35.884161990" lon="-106.494610750">
        <ele>2622.500</ele>
        <time>2019-07-14T23:07:44Z</time>
      </trkpt>
      <trkpt lat="35.884094820" lon="-106.494624910">
        <ele>2622.600</ele>
        <time>2019-07-14T23:07:45Z</time>
      </trkpt>
      <trkpt lat="35.884026560" lon="-106.494669640">
        <ele>2621.600</ele>
        <time>2019-07-14T23:07:46Z</time>
      </trkpt>
      <trkpt lat="35.883976390" lon="-106.494696950">
        <ele>2622.000</ele>
        <time>2019-07-14T23:07:47Z</time>
      </trkpt>
      <trkpt lat="35.883933240" lon="-106.494715010">
        <ele>2621.700</ele>
        <time>2019-07-14T23:07:48Z</time>
      </trkpt>
      <trkpt lat="35.883896290" lon="-106.494727640">
        <ele>2621.700</ele>
        <time>2019-07-14T23:07:49Z</time>
      </trkpt>
      <trkpt lat="35.883855050" lon="-106.494751490">
        <ele>2621.700</ele>
        <time>2019-07-14T23:07:50Z</time>
      </trkpt>
      <trkpt lat="35.883808520" lon="-106.494775360">
        <ele>2620.500</ele>
        <time>2019-07-14T23:07:51Z</time>
      </trkpt>
      <trkpt lat="35.883758610" lon="-106.494808450">
        <ele>2618.700</ele>
        <time>2019-07-14T23:07:52Z</time>
      </trkpt>
      <trkpt lat="35.883701820" lon="-106.494844230">
        <ele>2617.200</ele>
        <time>2019-07-14T23:07:53Z</time>
      </trkpt>
      <trkpt lat="35.883643580" lon="-106.494902120">
        <ele>2614.700</ele>
        <time>2019-07-14T23:07:54Z</time>
      </trkpt>
      <trkpt lat="35.883581400" lon="-106.494946430">
        <ele>2613.700</ele>
        <time>2019-07-14T23:07:55Z</time>
      </trkpt>
      <trkpt lat="35.883512310" lon="-106.494996780">
        <ele>2614.000</ele>
        <time>2019-07-14T23:07:56Z</time>
      </trkpt>
      <trkpt lat="35.883447830" lon="-106.495044930">
        <ele>2614.300</ele>
        <time>2019-07-14T23:07:57Z</time>
      </trkpt>
      <trkpt lat="35.883392040" lon="-106.495111200">
        <ele>2613.700</ele>
        <time>2019-07-14T23:07:58Z</time>
      </trkpt>
      <trkpt lat="35.883318700" lon="-106.495169970">
        <ele>2612.000</ele>
        <time>2019-07-14T23:07:59Z</time>
      </trkpt>
      <trkpt lat="35.883257600" lon="-106.495226820">
        <ele>2613.400</ele>
        <time>2019-07-14T23:08:00Z</time>
      </trkpt>
      <trkpt lat="35.883193250" lon="-106.495294020">
        <ele>2614.000</ele>
        <time>2019-07-14T23:08:01Z</time>
      </trkpt>
      <trkpt lat="35.883120860" lon="-106.495368560">
        <ele>2612.300</ele>
        <time>2019-07-14T23:08:02Z</time>
      </trkpt>
      <trkpt lat="35.883054120" lon="-106.495437310">
        <ele>2612.400</ele>
        <time>2019-07-14T23:08:03Z</time>
      </trkpt>
      <trkpt lat="35.882974720" lon="-106.495496620">
        <ele>2610.800</ele>
        <time>2019-07-14T23:08:04Z</time>
      </trkpt>
      <trkpt lat="35.882905110" lon="-106.495554440">
        <ele>2610.400</ele>
        <time>2019-07-14T23:08:05Z</time>
      </trkpt>
      <trkpt lat="35.882838980" lon="-106.495605500">
        <ele>2610.800</ele>
        <time>2019-07-14T23:08:06Z</time>
      </trkpt>
      <trkpt lat="35.882768010" lon="-106.495662850">
        <ele>2610.800</ele>
        <time>2019-07-14T23:08:07Z</time>
      </trkpt>
      <trkpt lat="35.882698190" lon="-106.495729040">
        <ele>2611.100</ele>
        <time>2019-07-14T23:08:08Z</time>
      </trkpt>
      <trkpt lat="35.882640880" lon="-106.495801320">
        <ele>2611.800</ele>
        <time>2019-07-14T23:08:09Z</time>
      </trkpt>
      <trkpt lat="35.882561310" lon="-106.495879750">
        <ele>2613.200</ele>
        <time>2019-07-14T23:08:10Z</time>
      </trkpt>
      <trkpt lat="35.882493110" lon="-106.495947920">
        <ele>2611.600</ele>
        <time>2019-07-14T23:08:11Z</time>
      </trkpt>
      <trkpt lat="35.882416030" lon="-106.496009450">
        <ele>2611.500</ele>
        <time>2019-07-14T23:08:12Z</time>
      </trkpt>
      <trkpt lat="35.882345220" lon="-106.496091580">
        <ele>2610.600</ele>
        <time>2019-07-14T23:08:13Z</time>
      </trkpt>
      <trkpt lat="35.882270130" lon="-106.496163480">
        <ele>2610.700</ele>
        <time>2019-07-14T23:08:14Z</time>
      </trkpt>
      <trkpt lat="35.882193060" lon="-106.496235630">
        <ele>2609.500</ele>
        <time>2019-07-14T23:08:15Z</time>
      </trkpt>
      <trkpt lat="35.882111960" lon="-106.496301740">
        <ele>2610.000</ele>
        <time>2019-07-14T23:08:16Z</time>
      </trkpt>
      <trkpt lat="35.882039100" lon="-106.496372570">
        <ele>2609.700</ele>
        <time>2019-07-14T23:08:17Z</time>
      </trkpt>
      <trkpt lat="35.881969200" lon="-106.496445990">
        <ele>2610.900</ele>
        <time>2019-07-14T23:08:18Z</time>
      </trkpt>
      <trkpt lat="35.881901950" lon="-106.496511840">
        <ele>2611.800</ele>
        <time>2019-07-14T23:08:19Z</time>
      </trkpt>
      <trkpt lat="35.881838280" lon="-106.496579640">
        <ele>2612.600</ele>
        <time>2019-07-14T23:08:20Z</time>
      </trkpt>
      <trkpt lat="35.881776150" lon="-106.496642170">
        <ele>2613.600</ele>
        <time>2019-07-14T23:08:21Z</time>
      </trkpt>
      <trkpt lat="35.881718710" lon="-106.496711250">
        <ele>2614.100</ele>
        <time>2019-07-14T23:08:22Z</time>
      </trkpt>
      <trkpt lat="35.881661120" lon="-106.496786110">
        <ele>2614.400</ele>
        <time>2019-07-14T23:08:23Z</time>
      </trkpt>
      <trkpt lat="35.881602810" lon="-106.496859120">
        <ele>2614.200</ele>
        <time>2019-07-14T23:08:24Z</time>
      </trkpt>
      <trkpt lat="35.881538410" lon="-106.496929550">
        <ele>2613.200</ele>
        <time>2019-07-14T23:08:25Z</time>
      </trkpt>
      <trkpt lat="35.881470640" lon="-106.497015470">
        <ele>2613.100</ele>
        <time>2019-07-14T23:08:26Z</time>
      </trkpt>
      <trkpt lat="35.881409330" lon="-106.497092890">
        <ele>2613.300</ele>
        <time>2019-07-14T23:08:27Z</time>
      </trkpt>
      <trkpt lat="35.881350560" lon="-106.497171120">
        <ele>2614.600</ele>
        <time>2019-07-14T23:08:28Z</time>
      </trkpt>
      <trkpt lat="35.881278920" lon="-106.497255580">
        <ele>2614.200</ele>
        <time>2019-07-14T23:08:29Z</time>
      </trkpt>
      <trkpt lat="35.881211890" lon="-106.497341140">
        <ele>2614.700</ele>
        <time>2019-07-14T23:08:30Z</time>
      </trkpt>
      <trkpt lat="35.881148900" lon="-106.497424370">
        <ele>2614.300</ele>
        <time>2019-07-14T23:08:31Z</time>
      </trkpt>
      <trkpt lat="35.881096000" lon="-106.497518200">
        <ele>2613.600</ele>
        <time>2019-07-14T23:08:32Z</time>
      </trkpt>
      <trkpt lat="35.881034140" lon="-106.497604870">
        <ele>2613.800</ele>
        <time>2019-07-14T23:08:33Z</time>
      </trkpt>
      <trkpt lat="35.880974440" lon="-106.497686890">
        <ele>2613.400</ele>
        <time>2019-07-14T23:08:34Z</time>
      </trkpt>
      <trkpt lat="35.880917860" lon="-106.497773500">
        <ele>2613.500</ele>
        <time>2019-07-14T23:08:35Z</time>
      </trkpt>
      <trkpt lat="35.880864790" lon="-106.497855240">
        <ele>2613.300</ele>
        <time>2019-07-14T23:08:36Z</time>
      </trkpt>
      <trkpt lat="35.880812890" lon="-106.497932390">
        <ele>2613.400</ele>
        <time>2019-07-14T23:08:37Z</time>
      </trkpt>
      <trkpt lat="35.880765760" lon="-106.498010640">
        <ele>2613.400</ele>
        <time>2019-07-14T23:08:38Z</time>
      </trkpt>
      <trkpt lat="35.880712480" lon="-106.498079240">
        <ele>2612.700</ele>
        <time>2019-07-14T23:08:39Z</time>
      </trkpt>
      <trkpt lat="35.880655760" lon="-106.498166770">
        <ele>2612.700</ele>
        <time>2019-07-14T23:08:40Z</time>
      </trkpt>
      <trkpt lat="35.880606920" lon="-106.498245970">
        <ele>2612.700</ele>
        <time>2019-07-14T23:08:41Z</time>
      </trkpt>
      <trkpt lat="35.880552280" lon="-106.498330100">
        <ele>2613.000</ele>
        <time>2019-07-14T23:08:42Z</time>
      </trkpt>
      <trkpt lat="35.880501010" lon="-106.498404770">
        <ele>2613.400</ele>
        <time>2019-07-14T23:08:43Z</time>
      </trkpt>
      <trkpt lat="35.880445760" lon="-106.498486090">
        <ele>2613.500</ele>
        <time>2019-07-14T23:08:44Z</time>
      </trkpt>
      <trkpt lat="35.880388560" lon="-106.498574390">
        <ele>2613.600</ele>
        <time>2019-07-14T23:08:45Z</time>
      </trkpt>
      <trkpt lat="35.880330790" lon="-106.498661720">
        <ele>2613.000</ele>
        <time>2019-07-14T23:08:46Z</time>
      </trkpt>
      <trkpt lat="35.880268740" lon="-106.498747890">
        <ele>2612.700</ele>
        <time>2019-07-14T23:08:47Z</time>
      </trkpt>
      <trkpt lat="35.880200990" lon="-106.498828690">
        <ele>2612.100</ele>
        <time>2019-07-14T23:08:48Z</time>
      </trkpt>
      <trkpt lat="35.880141360" lon="-106.498918490">
        <ele>2611.200</ele>
        <time>2019-07-14T23:08:49Z</time>
      </trkpt>
      <trkpt lat="35.880092990" lon="-106.498995470">
        <ele>2611.600</ele>
        <time>2019-07-14T23:08:50Z</time>
      </trkpt>
      <trkpt lat="35.880020220" lon="-106.499070360">
        <ele>2612.200</ele>
        <time>2019-07-14T23:08:51Z</time>
      </trkpt>
      <trkpt lat="35.879949470" lon="-106.499136840">
        <ele>2612.800</ele>
        <time>2019-07-14T23:08:52Z</time>
      </trkpt>
      <trkpt lat="35.879873990" lon="-106.499218210">
        <ele>2614.000</ele>
        <time>2019-07-14T23:08:53Z</time>
      </trkpt>
      <trkpt lat="35.879814590" lon="-106.499303400">
        <ele>2613.600</ele>
        <time>2019-07-14T23:08:54Z</time>
      </trkpt>
      <trkpt lat="35.879751810" lon="-106.499400960">
        <ele>2613.400</ele>
        <time>2019-07-14T23:08:55Z</time>
      </trkpt>
      <trkpt lat="35.879686210" lon="-106.499496180">
        <ele>2613.400</ele>
        <time>2019-07-14T23:08:56Z</time>
      </trkpt>
      <trkpt lat="35.879617360" lon="-106.499590390">
        <ele>2613.800</ele>
        <time>2019-07-14T23:08:57Z</time>
      </trkpt>
      <trkpt lat="35.879559860" lon="-106.499668040">
        <ele>2613.600</ele>
        <time>2019-07-14T23:08:58Z</time>
      </trkpt>
      <trkpt lat="35.879489110" lon="-106.499747510">
        <ele>2612.900</ele>
        <time>2019-07-14T23:08:59Z</time>
      </trkpt>
      <trkpt lat="35.879443730" lon="-106.499842280">
        <ele>2613.200</ele>
        <time>2019-07-14T23:09:00Z</time>
      </trkpt>
      <trkpt lat="35.879391980" lon="-106.499925140">
        <ele>2613.100</ele>
        <time>2019-07-14T23:09:01Z</time>
      </trkpt>
      <trkpt lat="35.879334650" lon="-106.500010330">
        <ele>2613.100</ele>
        <time>2019-07-14T23:09:02Z</time>
      </trkpt>
      <trkpt lat="35.879276850" lon="-106.500094790">
        <ele>2612.500</ele>
        <time>2019-07-14T23:09:03Z</time>
      </trkpt>
      <trkpt lat="35.879213950" lon="-106.500180010">
        <ele>2612.600</ele>
        <time>2019-07-14T23:09:04Z</time>
      </trkpt>
      <trkpt lat="35.879153550" lon="-106.500248520">
        <ele>2612.100</ele>
        <time>2019-07-14T23:09:05Z</time>
      </trkpt>
      <trkpt lat="35.879091360" lon="-106.500324990">
        <ele>2612.000</ele>
        <time>2019-07-14T23:09:06Z</time>
      </trkpt>
      <trkpt lat="35.879029880" lon="-106.500392740">
        <ele>2612.400</ele>
        <time>2019-07-14T23:09:07Z</time>
      </trkpt>
      <trkpt lat="35.878974680" lon="-106.500461390">
        <ele>2613.000</ele>
        <time>2019-07-14T23:09:08Z</time>
      </trkpt>
      <trkpt lat="35.878918250" lon="-106.500528290">
        <ele>2612.500</ele>
        <time>2019-07-14T23:09:09Z</time>
      </trkpt>
      <trkpt lat="35.878866230" lon="-106.500606430">
        <ele>2612.900</ele>
        <time>2019-07-14T23:09:10Z</time>
      </trkpt>
      <trkpt lat="35.878800260" lon="-106.500684210">
        <ele>2612.600</ele>
        <time>2019-07-14T23:09:11Z</time>
      </trkpt>
      <trkpt lat="35.878747060" lon="-106.500765490">
        <ele>2613.000</ele>
        <time>2019-07-14T23:09:12Z</time>
      </trkpt>
      <trkpt lat="35.878691110" lon="-106.500848050">
        <ele>2613.500</ele>
        <time>2019-07-14T23:09:13Z</time>
      </trkpt>
      <trkpt lat="35.878633130" lon="-106.500931820">
        <ele>2613.400</ele>
        <time>2019-07-14T23:09:14Z</time>
      </trkpt>
      <trkpt lat="35.878580100" lon="-106.501020600">
        <ele>2614.200</ele>
        <time>2019-07-14T23:09:15Z</time>
      </trkpt>
      <trkpt lat="35.878535770" lon="-106.501098060">
        <ele>2613.800</ele>
        <time>2019-07-14T23:09:16Z</time>
      </trkpt>
      <trkpt lat="35.878482790" lon="-106.501184960">
        <ele>2614.500</ele>
        <time>2019-07-14T23:09:17Z</time>
      </trkpt>
      <trkpt lat="35.878428840" lon="-106.501258830">
        <ele>2614.100</ele>
        <time>2019-07-14T23:09:18Z</time>
      </trkpt>
      <trkpt lat="35.878391690" lon="-106.501338440">
        <ele>2614.200</ele>
        <time>2019-07-14T23:09:19Z</time>
      </trkpt>
      <trkpt lat="35.878352690" lon="-106.501421450">
        <ele>2614.200</ele>
        <time>2019-07-14T23:09:20Z</time>
      </trkpt>
      <trkpt lat="35.878297730" lon="-106.501507340">
        <ele>2614.900</ele>
        <time>2019-07-14T23:09:21Z</time>
      </trkpt>
      <trkpt lat="35.878255840" lon="-106.501585420">
        <ele>2615.200</ele>
        <time>2019-07-14T23:09:22Z</time>
      </trkpt>
      <trkpt lat="35.878207100" lon="-106.501668900">
        <ele>2615.500</ele>
        <time>2019-07-14T23:09:23Z</time>
      </trkpt>
      <trkpt lat="35.878157950" lon="-106.501748400">
        <ele>2616.600</ele>
        <time>2019-07-14T23:09:24Z</time>
      </trkpt>
      <trkpt lat="35.878118430" lon="-106.501825260">
        <ele>2616.900</ele>
        <time>2019-07-14T23:09:25Z</time>
      </trkpt>
      <trkpt lat="35.878086890" lon="-106.501891240">
        <ele>2616.900</ele>
        <time>2019-07-14T23:09:26Z</time>
      </trkpt>
      <trkpt lat="35.878042670" lon="-106.501965950">
        <ele>2616.600</ele>
        <time>2019-07-14T23:09:27Z</time>
      </trkpt>
      <trkpt lat="35.878007930" lon="-106.502044290">
        <ele>2616.600</ele>
        <time>2019-07-14T23:09:28Z</time>
      </trkpt>
      <trkpt lat="35.877971560" lon="-106.502125480">
        <ele>2616.600</ele>
        <time>2019-07-14T23:09:29Z</time>
      </trkpt>
      <trkpt lat="35.877925630" lon="-106.502214550">
        <ele>2617.900</ele>
        <time>2019-07-14T23:09:30Z</time>
      </trkpt>
      <trkpt lat="35.877890590" lon="-106.502303270">
        <ele>2617.600</ele>
        <time>2019-07-14T23:09:31Z</time>
      </trkpt>
      <trkpt lat="35.877875930" lon="-106.502392330">
        <ele>2618.300</ele>
        <time>2019-07-14T23:09:32Z</time>
      </trkpt>
      <trkpt lat="35.877831510" lon="-106.502485110">
        <ele>2619.400</ele>
        <time>2019-07-14T23:09:33Z</time>
      </trkpt>
      <trkpt lat="35.877805110" lon="-106.502567630">
        <ele>2621.500</ele>
        <time>2019-07-14T23:09:34Z</time>
      </trkpt>
      <trkpt lat="35.877789650" lon="-106.502647570">
        <ele>2621.200</ele>
        <time>2019-07-14T23:09:35Z</time>
      </trkpt>
      <trkpt lat="35.877779540" lon="-106.502730490">
        <ele>2618.700</ele>
        <time>2019-07-14T23:09:36Z</time>
      </trkpt>
      <trkpt lat="35.877771290" lon="-106.502822790">
        <ele>2618.500</ele>
        <time>2019-07-14T23:09:37Z</time>
      </trkpt>
      <trkpt lat="35.877754550" lon="-106.502914770">
        <ele>2618.100</ele>
        <time>2019-07-14T23:09:38Z</time>
      </trkpt>
      <trkpt lat="35.877740740" lon="-106.503008010">
        <ele>2618.900</ele>
        <time>2019-07-14T23:09:39Z</time>
      </trkpt>
      <trkpt lat="35.877727370" lon="-106.503100170">
        <ele>2620.500</ele>
        <time>2019-07-14T23:09:40Z</time>
      </trkpt>
      <trkpt lat="35.877706690" lon="-106.503187480">
        <ele>2620.300</ele>
        <time>2019-07-14T23:09:41Z</time>
      </trkpt>
      <trkpt lat="35.877685220" lon="-106.503289840">
        <ele>2620.900</ele>
        <time>2019-07-14T23:09:42Z</time>
      </trkpt>
      <trkpt lat="35.877677320" lon="-106.503390230">
        <ele>2621.500</ele>
        <time>2019-07-14T23:09:43Z</time>
      </trkpt>
      <trkpt lat="35.877680000" lon="-106.503490690">
        <ele>2622.300</ele>
        <time>2019-07-14T23:09:44Z</time>
      </trkpt>
      <trkpt lat="35.877684660" lon="-106.503595430">
        <ele>2622.800</ele>
        <time>2019-07-14T23:09:45Z</time>
      </trkpt>
      <trkpt lat="35.877694850" lon="-106.503687640">
        <ele>2622.400</ele>
        <time>2019-07-14T23:09:46Z</time>
      </trkpt>
      <trkpt lat="35.877704830" lon="-106.503787940">
        <ele>2622.100</ele>
        <time>2019-07-14T23:09:47Z</time>
      </trkpt>
      <trkpt lat="35.877721830" lon="-106.503880040">
        <ele>2623.200</ele>
        <time>2019-07-14T23:09:48Z</time>
      </trkpt>
      <trkpt lat="35.877734710" lon="-106.503978190">
        <ele>2623.300</ele>
        <time>2019-07-14T23:09:49Z</time>
      </trkpt>
      <trkpt lat="35.877748090" lon="-106.504068280">
        <ele>2622.800</ele>
        <time>2019-07-14T23:09:50Z</time>
      </trkpt>
      <trkpt lat="35.877768660" lon="-106.504157410">
        <ele>2623.600</ele>
        <time>2019-07-14T23:09:51Z</time>
      </trkpt>
      <trkpt lat="35.877777480" lon="-106.504254000">
        <ele>2624.600</ele>
        <time>2019-07-14T23:09:52Z</time>
      </trkpt>
      <trkpt lat="35.877789780" lon="-106.504342680">
        <ele>2626.400</ele>
        <time>2019-07-14T23:09:53Z</time>
      </trkpt>
      <trkpt lat="35.877797830" lon="-106.504426660">
        <ele>2626.800</ele>
        <time>2019-07-14T23:09:54Z</time>
      </trkpt>
      <trkpt lat="35.877793760" lon="-106.504516980">
        <ele>2627.200</ele>
        <time>2019-07-14T23:09:55Z</time>
      </trkpt>
      <trkpt lat="35.877787250" lon="-106.504605830">
        <ele>2627.400</ele>
        <time>2019-07-14T23:09:56Z</time>
      </trkpt>
      <trkpt lat="35.877766710" lon="-106.504707860">
        <ele>2627.200</ele>
        <time>2019-07-14T23:09:57Z</time>
      </trkpt>
      <trkpt lat="35.877746480" lon="-106.504808100">
        <ele>2627.500</ele>
        <time>2019-07-14T23:09:58Z</time>
      </trkpt>
      <trkpt lat="35.877726710" lon="-106.504904770">
        <ele>2626.900</ele>
        <time>2019-07-14T23:09:59Z</time>
      </trkpt>
      <trkpt lat="35.877700720" lon="-106.504998680">
        <ele>2627.000</ele>
        <time>2019-07-14T23:10:00Z</time>
      </trkpt>
      <trkpt lat="35.877677880" lon="-106.505098870">
        <ele>2627.700</ele>
        <time>2019-07-14T23:10:01Z</time>
      </trkpt>
      <trkpt lat="35.877646650" lon="-106.505201260">
        <ele>2627.700</ele>
        <time>2019-07-14T23:10:02Z</time>
      </trkpt>
      <trkpt lat="35.877613900" lon="-106.505300820">
        <ele>2628.200</ele>
        <time>2019-07-14T23:10:03Z</time>
      </trkpt>
      <trkpt lat="35.877581530" lon="-106.505401550">
        <ele>2628.200</ele>
        <time>2019-07-14T23:10:04Z</time>
      </trkpt>
      <trkpt lat="35.877539450" lon="-106.505502140">
        <ele>2628.000</ele>
        <time>2019-07-14T23:10:05Z</time>
      </trkpt>
      <trkpt lat="35.877501240" lon="-106.505594640">
        <ele>2626.800</ele>
        <time>2019-07-14T23:10:06Z</time>
      </trkpt>
      <trkpt lat="35.877452840" lon="-106.505685930">
        <ele>2627.200</ele>
        <time>2019-07-14T23:10:07Z</time>
      </trkpt>
      <trkpt lat="35.877395570" lon="-106.505773990">
        <ele>2627.700</ele>
        <time>2019-07-14T23:10:08Z</time>
      </trkpt>
      <trkpt lat="35.877331960" lon="-106.505856180">
        <ele>2627.600</ele>
        <time>2019-07-14T23:10:09Z</time>
      </trkpt>
      <trkpt lat="35.877276440" lon="-106.505937160">
        <ele>2628.100</ele>
        <time>2019-07-14T23:10:10Z</time>
      </trkpt>
      <trkpt lat="35.877208270" lon="-106.506011770">
        <ele>2628.300</ele>
        <time>2019-07-14T23:10:11Z</time>
      </trkpt>
      <trkpt lat="35.877150710" lon="-106.506073140">
        <ele>2628.600</ele>
        <time>2019-07-14T23:10:12Z</time>
      </trkpt>
      <trkpt lat="35.877095510" lon="-106.506131160">
        <ele>2628.700</ele>
        <time>2019-07-14T23:10:13Z</time>
      </trkpt>
      <trkpt lat="35.877049160" lon="-106.506184570">
        <ele>2628.400</ele>
        <time>2019-07-14T23:10:14Z</time>
      </trkpt>
      <trkpt lat="35.877012340" lon="-106.506229260">
        <ele>2628.500</ele>
        <time>2019-07-14T23:10:15Z</time>
      </trkpt>
      <trkpt lat="35.876977280" lon="-106.506287060">
        <ele>2628.900</ele>
        <time>2019-07-14T23:10:16Z</time>
      </trkpt>
      <trkpt lat="35.876960860" lon="-106.506343800">
        <ele>2629.700</ele>
        <time>2019-07-14T23:10:17Z</time>
      </trkpt>
      <trkpt lat="35.876941500" lon="-106.506401580">
        <ele>2629.200</ele>
        <time>2019-07-14T23:10:18Z</time>
      </trkpt>
      <trkpt lat="35.876914160" lon="-106.506468490">
        <ele>2629.500</ele>
        <time>2019-07-14T23:10:19Z</time>
      </trkpt>
      <trkpt lat="35.876892620" lon="-106.506534430">
        <ele>2629.200</ele>
        <time>2019-07-14T23:10:20Z</time>
      </trkpt>
      <trkpt lat="35.876869310" lon="-106.506607290">
        <ele>2630.100</ele>
        <time>2019-07-14T23:10:21Z</time>
      </trkpt>
      <trkpt lat="35.876840160" lon="-106.506678090">
        <ele>2629.200</ele>
        <time>2019-07-14T23:10:22Z</time>
      </trkpt>
      <trkpt lat="35.876823110" lon="-106.506758490">
        <ele>2629.200</ele>
        <time>2019-07-14T23:10:23Z</time>
      </trkpt>
      <trkpt lat="35.876800910" lon="-106.506829250">
        <ele>2630.500</ele>
        <time>2019-07-14T23:10:24Z</time>
      </trkpt>
      <trkpt lat="35.876782690" lon="-106.506907800">
        <ele>2631.700</ele>
        <time>2019-07-14T23:10:25Z</time>
      </trkpt>
      <trkpt lat="35.876755840" lon="-106.506962440">
        <ele>2632.400</ele>
        <time>2019-07-14T23:10:26Z</time>
      </trkpt>
      <trkpt lat="35.876747620" lon="-106.507038570">
        <ele>2633.900</ele>
        <time>2019-07-14T23:10:27Z</time>
      </trkpt>
      <trkpt lat="35.876730220" lon="-106.507100860">
        <ele>2634.800</ele>
        <time>2019-07-14T23:10:28Z</time>
      </trkpt>
      <trkpt lat="35.876701800" lon="-106.507184980">
        <ele>2636.300</ele>
        <time>2019-07-14T23:10:29Z</time>
      </trkpt>
      <trkpt lat="35.876680680" lon="-106.507267270">
        <ele>2636.700</ele>
        <time>2019-07-14T23:10:30Z</time>
      </trkpt>
      <trkpt lat="35.876648780" lon="-106.507353540">
        <ele>2637.200</ele>
        <time>2019-07-14T23:10:31Z</time>
      </trkpt>
      <trkpt lat="35.876625680" lon="-106.507432810">
        <ele>2637.000</ele>
        <time>2019-07-14T23:10:32Z</time>
      </trkpt>
      <trkpt lat="35.876588160" lon="-106.507508430">
        <ele>2636.600</ele>
        <time>2019-07-14T23:10:33Z</time>
      </trkpt>
      <trkpt lat="35.876551760" lon="-106.507590510">
        <ele>2636.000</ele>
        <time>2019-07-14T23:10:34Z</time>
      </trkpt>
      <trkpt lat="35.876526780" lon="-106.507655290">
        <ele>2636.400</ele>
        <time>2019-07-14T23:10:35Z</time>
      </trkpt>
      <trkpt lat="35.876505010" lon="-106.507728580">
        <ele>2636.900</ele>
        <time>2019-07-14T23:10:36Z</time>
      </trkpt>
      <trkpt lat="35.876489220" lon="-106.507789500">
        <ele>2637.900</ele>
        <time>2019-07-14T23:10:37Z</time>
      </trkpt>
      <trkpt lat="35.876467900" lon="-106.507840010">
        <ele>2640.700</ele>
        <time>2019-07-14T23:10:38Z</time>
      </trkpt>
      <trkpt lat="35.876459950" lon="-106.507913530">
        <ele>2642.100</ele>
        <time>2019-07-14T23:10:39Z</time>
      </trkpt>
      <trkpt lat="35.876443390" lon="-106.507974650">
        <ele>2642.700</ele>
        <time>2019-07-14T23:10:40Z</time>
      </trkpt>
      <trkpt lat="35.876425150" lon="-106.508039770">
        <ele>2643.100</ele>
        <time>2019-07-14T23:10:41Z</time>
      </trkpt>
      <trkpt lat="35.876402860" lon="-106.508102220">
        <ele>2643.900</ele>
        <time>2019-07-14T23:10:42Z</time>
      </trkpt>
      <trkpt lat="35.876375000" lon="-106.508164310">
        <ele>2644.000</ele>
        <time>2019-07-14T23:10:43Z</time>
      </trkpt>
      <trkpt lat="35.876343130" lon="-106.508223010">
        <ele>2645.600</ele>
        <time>2019-07-14T23:10:44Z</time>
      </trkpt>
      <trkpt lat="35.876306140" lon="-106.508289060">
        <ele>2646.200</ele>
        <time>2019-07-14T23:10:45Z</time>
      </trkpt>
      <trkpt lat="35.876266610" lon="-106.508360420">
        <ele>2646.000</ele>
        <time>2019-07-14T23:10:46Z</time>
      </trkpt>
      <trkpt lat="35.876226650" lon="-106.508428500">
        <ele>2646.200</ele>
        <time>2019-07-14T23:10:47Z</time>
      </trkpt>
      <trkpt lat="35.876199800" lon="-106.508512670">
        <ele>2644.800</ele>
        <time>2019-07-14T23:10:48Z</time>
      </trkpt>
      <trkpt lat="35.876164970" lon="-106.508593750">
        <ele>2645.700</ele>
        <time>2019-07-14T23:10:49Z</time>
      </trkpt>
      <trkpt lat="35.876172280" lon="-106.508674560">
        <ele>2645.800</ele>
        <time>2019-07-14T23:10:50Z</time>
      </trkpt>
      <trkpt lat="35.876165000" lon="-106.508764200">
        <ele>2646.700</ele>
        <time>2019-07-14T23:10:51Z</time>
      </trkpt>
      <trkpt lat="35.876175860" lon="-106.508836860">
        <ele>2648.700</ele>
        <time>2019-07-14T23:10:52Z</time>
      </trkpt>
      <trkpt lat="35.876172480" lon="-106.508926670">
        <ele>2648.400</ele>
        <time>2019-07-14T23:10:53Z</time>
      </trkpt>
      <trkpt lat="35.876187670" lon="-106.509004220">
        <ele>2649.700</ele>
        <time>2019-07-14T23:10:54Z</time>
      </trkpt>
      <trkpt lat="35.876195670" lon="-106.509089500">
        <ele>2651.000</ele>
        <time>2019-07-14T23:10:55Z</time>
      </trkpt>
      <trkpt lat="35.876184430" lon="-106.509185440">
        <ele>2649.600</ele>
        <time>2019-07-14T23:10:56Z</time>
      </trkpt>
      <trkpt lat="35.876161650" lon="-106.509263120">
        <ele>2649.800</ele>
        <time>2019-07-14T23:10:57Z</time>
      </trkpt>
      <trkpt lat="35.876121090" lon="-106.509320920">
        <ele>2649.600</ele>
        <time>2019-07-14T23:10:58Z</time>
      </trkpt>
      <trkpt lat="35.876083220" lon="-106.509400220">
        <ele>2649.500</ele>
        <time>2019-07-14T23:10:59Z</time>
      </trkpt>
      <trkpt lat="35.876034420" lon="-106.509463070">
        <ele>2647.600</ele>
        <time>2019-07-14T23:11:00Z</time>
      </trkpt>
      <trkpt lat="35.875976780" lon="-106.509519720">
        <ele>2647.900</ele>
        <time>2019-07-14T23:11:01Z</time>
      </trkpt>
      <trkpt lat="35.875909530" lon="-106.509574930">
        <ele>2648.200</ele>
        <time>2019-07-14T23:11:02Z</time>
      </trkpt>
      <trkpt lat="35.875833740" lon="-106.509626860">
        <ele>2648.300</ele>
        <time>2019-07-14T23:11:03Z</time>
      </trkpt>
      <trkpt lat="35.875746760" lon="-106.509682410">
        <ele>2648.100</ele>
        <time>2019-07-14T23:11:04Z</time>
      </trkpt>
      <trkpt lat="35.875656890" lon="-106.509725980">
        <ele>2647.500</ele>
        <time>2019-07-14T23:11:05Z</time>
      </trkpt>
      <trkpt lat="35.875572350" lon="-106.509770790">
        <ele>2647.500</ele>
        <time>2019-07-14T23:11:06Z</time>
      </trkpt>
      <trkpt lat="35.875499440" lon="-106.509803150">
        <ele>2647.600</ele>
        <time>2019-07-14T23:11:07Z</time>
      </trkpt>
      <trkpt lat="35.875413490" lon="-106.509864730">
        <ele>2647.400</ele>
        <time>2019-07-14T23:11:08Z</time>
      </trkpt>
      <trkpt lat="35.875339750" lon="-106.509909980">
        <ele>2647.000</ele>
        <time>2019-07-14T23:11:09Z</time>
      </trkpt>
      <trkpt lat="35.875261150" lon="-106.509968010">
        <ele>2647.500</ele>
        <time>2019-07-14T23:11:10Z</time>
      </trkpt>
      <trkpt lat="35.875187000" lon="-106.510027440">
        <ele>2647.800</ele>
        <time>2019-07-14T23:11:11Z</time>
      </trkpt>
      <trkpt lat="35.875104950" lon="-106.510101370">
        <ele>2647.300</ele>
        <time>2019-07-14T23:11:12Z</time>
      </trkpt>
      <trkpt lat="35.875021070" lon="-106.510160810">
        <ele>2646.700</ele>
        <time>2019-07-14T23:11:13Z</time>
      </trkpt>
      <trkpt lat="35.874932950" lon="-106.510207860">
        <ele>2645.500</ele>
        <time>2019-07-14T23:11:14Z</time>
      </trkpt>
      <trkpt lat="35.874850120" lon="-106.510253330">
        <ele>2645.400</ele>
        <time>2019-07-14T23:11:15Z</time>
      </trkpt>
      <trkpt lat="35.874769210" lon="-106.510275570">
        <ele>2644.900</ele>
        <time>2019-07-14T23:11:16Z</time>
      </trkpt>
      <trkpt lat="35.874683060" lon="-106.510316930">
        <ele>2646.200</ele>
        <time>2019-07-14T23:11:17Z</time>
      </trkpt>
      <trkpt lat="35.874599000" lon="-106.510359070">
        <ele>2646.000</ele>
        <time>2019-07-14T23:11:18Z</time>
      </trkpt>
      <trkpt lat="35.874527770" lon="-106.510410160">
        <ele>2646.400</ele>
        <time>2019-07-14T23:11:19Z</time>
      </trkpt>
      <trkpt lat="35.874452770" lon="-106.510464510">
        <ele>2645.400</ele>
        <time>2019-07-14T23:11:20Z</time>
      </trkpt>
      <trkpt lat="35.874386580" lon="-106.510533280">
        <ele>2645.200</ele>
        <time>2019-07-14T23:11:21Z</time>
      </trkpt>
      <trkpt lat="35.874353380" lon="-106.510617270">
        <ele>2646.300</ele>
        <time>2019-07-14T23:11:22Z</time>
      </trkpt>
      <trkpt lat="35.874297050" lon="-106.510695390">
        <ele>2646.600</ele>
        <time>2019-07-14T23:11:23Z</time>
      </trkpt>
      <trkpt lat="35.874236100" lon="-106.510774600">
        <ele>2646.100</ele>
        <time>2019-07-14T23:11:24Z</time>
      </trkpt>
      <trkpt lat="35.874162260" lon="-106.510824960">
        <ele>2646.500</ele>
        <time>2019-07-14T23:11:25Z</time>
      </trkpt>
      <trkpt lat="35.874074460" lon="-106.510889510">
        <ele>2646.600</ele>
        <time>2019-07-14T23:11:26Z</time>
      </trkpt>
      <trkpt lat="35.873997160" lon="-106.510944200">
        <ele>2646.400</ele>
        <time>2019-07-14T23:11:27Z</time>
      </trkpt>
      <trkpt lat="35.873925850" lon="-106.510996210">
        <ele>2646.600</ele>
        <time>2019-07-14T23:11:28Z</time>
      </trkpt>
      <trkpt lat="35.873858930" lon="-106.511048160">
        <ele>2623.000</ele>
        <time>2019-07-14T23:11:29Z</time>
      </trkpt>
      <trkpt lat="35.873785060" lon="-106.511076850">
        <ele>2629.200</ele>
        <time>2019-07-14T23:11:30Z</time>
      </trkpt>
      <trkpt lat="35.873722580" lon="-106.511118990">
        <ele>2634.600</ele>
        <time>2019-07-14T23:11:31Z</time>
      </trkpt>
      <trkpt lat="35.873663080" lon="-106.511157330">
        <ele>2636.600</ele>
        <time>2019-07-14T23:11:32Z</time>
      </trkpt>
      <trkpt lat="35.873626820" lon="-106.511199820">
        <ele>2637.700</ele>
        <time>2019-07-14T23:11:33Z</time>
      </trkpt>
      <trkpt lat="35.873572460" lon="-106.511240070">
        <ele>2638.500</ele>
        <time>2019-07-14T23:11:34Z</time>
      </trkpt>
      <trkpt lat="35.873530580" lon="-106.511285880">
        <ele>2638.700</ele>
        <time>2019-07-14T23:11:35Z</time>
      </trkpt>
      <trkpt lat="35.873497750" lon="-106.511353490">
        <ele>2639.200</ele>
        <time>2019-07-14T23:11:36Z</time>
      </trkpt>
      <trkpt lat="35.873453110" lon="-106.511402360">
        <ele>2639.900</ele>
        <time>2019-07-14T23:11:37Z</time>
      </trkpt>
      <trkpt lat="35.873415910" lon="-106.511478960">
        <ele>2640.200</ele>
        <time>2019-07-14T23:11:38Z</time>
      </trkpt>
      <trkpt lat="35.873380390" lon="-106.511553010">
        <ele>2640.000</ele>
        <time>2019-07-14T23:11:39Z</time>
      </trkpt>
      <trkpt lat="35.873358480" lon="-106.511618630">
        <ele>2639.600</ele>
        <time>2019-07-14T23:11:40Z</time>
      </trkpt>
      <trkpt lat="35.873330290" lon="-106.511670500">
        <ele>2639.900</ele>
        <time>2019-07-14T23:11:41Z</time>
      </trkpt>
      <trkpt lat="35.873280400" lon="-106.511709820">
        <ele>2640.600</ele>
        <time>2019-07-14T23:11:42Z</time>
      </trkpt>
      <trkpt lat="35.873204940" lon="-106.511739930">
        <ele>2640.300</ele>
        <time>2019-07-14T23:11:43Z</time>
      </trkpt>
      <trkpt lat="35.873139720" lon="-106.511761840">
        <ele>2639.200</ele>
        <time>2019-07-14T23:11:44Z</time>
      </trkpt>
      <trkpt lat="35.873063260" lon="-106.511773920">
        <ele>2638.200</ele>
        <time>2019-07-14T23:11:45Z</time>
      </trkpt>
      <trkpt lat="35.873005260" lon="-106.511808030">
        <ele>2638.000</ele>
        <time>2019-07-14T23:11:46Z</time>
      </trkpt>
      <trkpt lat="35.872930390" lon="-106.511859420">
        <ele>2637.700</ele>
        <time>2019-07-14T23:11:47Z</time>
      </trkpt>
      <trkpt lat="35.872891870" lon="-106.511920680">
        <ele>2637.500</ele>
        <time>2019-07-14T23:11:48Z</time>
      </trkpt>
      <trkpt lat="35.872858870" lon="-106.511978800">
        <ele>2636.600</ele>
        <time>2019-07-14T23:11:49Z</time>
      </trkpt>
      <trkpt lat="35.872831960" lon="-106.512042210">
        <ele>2636.700</ele>
        <time>2019-07-14T23:11:50Z</time>
      </trkpt>
      <trkpt lat="35.872837360" lon="-106.512106460">
        <ele>2637.200</ele>
        <time>2019-07-14T23:11:51Z</time>
      </trkpt>
      <trkpt lat="35.872873360" lon="-106.512167720">
        <ele>2635.800</ele>
        <time>2019-07-14T23:11:52Z</time>
      </trkpt>
      <trkpt lat="35.872893820" lon="-106.512246420">
        <ele>2635.400</ele>
        <time>2019-07-14T23:11:53Z</time>
      </trkpt>
      <trkpt lat="35.872919680" lon="-106.512314620">
        <ele>2636.000</ele>
        <time>2019-07-14T23:11:54Z</time>
      </trkpt>
      <trkpt lat="35.872939860" lon="-106.512393480">
        <ele>2638.000</ele>
        <time>2019-07-14T23:11:55Z</time>
      </trkpt>
      <trkpt lat="35.872953630" lon="-106.512474080">
        <ele>2638.100</ele>
        <time>2019-07-14T23:11:56Z</time>
      </trkpt>
      <trkpt lat="35.872961760" lon="-106.512553560">
        <ele>2638.100</ele>
        <time>2019-07-14T23:11:57Z</time>
      </trkpt>
      <trkpt lat="35.872969250" lon="-106.512630650">
        <ele>2637.700</ele>
        <time>2019-07-14T23:11:58Z</time>
      </trkpt>
      <trkpt lat="35.872953540" lon="-106.512704490">
        <ele>2636.800</ele>
        <time>2019-07-14T23:11:59Z</time>
      </trkpt>
      <trkpt lat="35.872933360" lon="-106.512777740">
        <ele>2636.800</ele>
        <time>2019-07-14T23:12:00Z</time>
      </trkpt>
      <trkpt lat="35.872907220" lon="-106.512846180">
        <ele>2637.300</ele>
        <time>2019-07-14T23:12:01Z</time>
      </trkpt>
      <trkpt lat="35.872844110" lon="-106.512914640">
        <ele>2637.300</ele>
        <time>2019-07-14T23:12:02Z</time>
      </trkpt>
      <trkpt lat="35.872784230" lon="-106.512975120">
        <ele>2636.700</ele>
        <time>2019-07-14T23:12:03Z</time>
      </trkpt>
      <trkpt lat="35.872724270" lon="-106.513030730">
        <ele>2636.500</ele>
        <time>2019-07-14T23:12:04Z</time>
      </trkpt>
      <trkpt lat="35.872644420" lon="-106.513090670">
        <ele>2636.000</ele>
        <time>2019-07-14T23:12:05Z</time>
      </trkpt>
      <trkpt lat="35.872572860" lon="-106.513141920">
        <ele>2635.200</ele>
        <time>2019-07-14T23:12:06Z</time>
      </trkpt>
      <trkpt lat="35.872499670" lon="-106.513186010">
        <ele>2634.500</ele>
        <time>2019-07-14T23:12:07Z</time>
      </trkpt>
      <trkpt lat="35.872430780" lon="-106.513241020">
        <ele>2634.200</ele>
        <time>2019-07-14T23:12:08Z</time>
      </trkpt>
      <trkpt lat="35.872367750" lon="-106.513293040">
        <ele>2634.400</ele>
        <time>2019-07-14T23:12:09Z</time>
      </trkpt>
      <trkpt lat="35.872301530" lon="-106.513354120">
        <ele>2634.100</ele>
        <time>2019-07-14T23:12:10Z</time>
      </trkpt>
      <trkpt lat="35.872253440" lon="-106.513412290">
        <ele>2634.600</ele>
        <time>2019-07-14T23:12:11Z</time>
      </trkpt>
      <trkpt lat="35.872190050" lon="-106.513492090">
        <ele>2633.900</ele>
        <time>2019-07-14T23:12:12Z</time>
      </trkpt>
      <trkpt lat="35.872141790" lon="-106.513566040">
        <ele>2633.700</ele>
        <time>2019-07-14T23:12:13Z</time>
      </trkpt>
      <trkpt lat="35.872084960" lon="-106.513634160">
        <ele>2635.500</ele>
        <time>2019-07-14T23:12:14Z</time>
      </trkpt>
      <trkpt lat="35.872032010" lon="-106.513707260">
        <ele>2635.400</ele>
        <time>2019-07-14T23:12:15Z</time>
      </trkpt>
      <trkpt lat="35.871978330" lon="-106.513780620">
        <ele>2635.200</ele>
        <time>2019-07-14T23:12:16Z</time>
      </trkpt>
      <trkpt lat="35.871925630" lon="-106.513861050">
        <ele>2635.100</ele>
        <time>2019-07-14T23:12:17Z</time>
      </trkpt>
      <trkpt lat="35.871874120" lon="-106.513937350">
        <ele>2634.900</ele>
        <time>2019-07-14T23:12:18Z</time>
      </trkpt>
      <trkpt lat="35.871823220" lon="-106.514013790">
        <ele>2634.400</ele>
        <time>2019-07-14T23:12:19Z</time>
      </trkpt>
      <trkpt lat="35.871768860" lon="-106.514097060">
        <ele>2634.800</ele>
        <time>2019-07-14T23:12:20Z</time>
      </trkpt>
      <trkpt lat="35.871714910" lon="-106.514169620">
        <ele>2634.500</ele>
        <time>2019-07-14T23:12:21Z</time>
      </trkpt>
      <trkpt lat="35.871662240" lon="-106.514249930">
        <ele>2634.700</ele>
        <time>2019-07-14T23:12:22Z</time>
      </trkpt>
      <trkpt lat="35.871604400" lon="-106.514332540">
        <ele>2634.700</ele>
        <time>2019-07-14T23:12:23Z</time>
      </trkpt>
      <trkpt lat="35.871546550" lon="-106.514400980">
        <ele>2635.500</ele>
        <time>2019-07-14T23:12:24Z</time>
      </trkpt>
      <trkpt lat="35.871493750" lon="-106.514472590">
        <ele>2635.000</ele>
        <time>2019-07-14T23:12:25Z</time>
      </trkpt>
      <trkpt lat="35.871434380" lon="-106.514551290">
        <ele>2636.200</ele>
        <time>2019-07-14T23:12:26Z</time>
      </trkpt>
      <trkpt lat="35.871376600" lon="-106.514620620">
        <ele>2636.100</ele>
        <time>2019-07-14T23:12:27Z</time>
      </trkpt>
      <trkpt lat="35.871324250" lon="-106.514691300">
        <ele>2636.300</ele>
        <time>2019-07-14T23:12:28Z</time>
      </trkpt>
      <trkpt lat="35.871261710" lon="-106.514753310">
        <ele>2636.300</ele>
        <time>2019-07-14T23:12:29Z</time>
      </trkpt>
      <trkpt lat="35.871201900" lon="-106.514804800">
        <ele>2636.100</ele>
        <time>2019-07-14T23:12:30Z</time>
      </trkpt>
      <trkpt lat="35.871146810" lon="-106.514838520">
        <ele>2635.900</ele>
        <time>2019-07-14T23:12:31Z</time>
      </trkpt>
      <trkpt lat="35.871084810" lon="-106.514882260">
        <ele>2636.700</ele>
        <time>2019-07-14T23:12:32Z</time>
      </trkpt>
      <trkpt lat="35.871015110" lon="-106.514922510">
        <ele>2637.000</ele>
        <time>2019-07-14T23:12:33Z</time>
      </trkpt>
      <trkpt lat="35.870947090" lon="-106.514963210">
        <ele>2637.300</ele>
        <time>2019-07-14T23:12:34Z</time>
      </trkpt>
      <trkpt lat="35.870871610" lon="-106.515001460">
        <ele>2636.700</ele>
        <time>2019-07-14T23:12:35Z</time>
      </trkpt>
      <trkpt lat="35.870798090" lon="-106.515042010">
        <ele>2636.800</ele>
        <time>2019-07-14T23:12:36Z</time>
      </trkpt>
      <trkpt lat="35.870728120" lon="-106.515077650">
        <ele>2637.000</ele>
        <time>2019-07-14T23:12:37Z</time>
      </trkpt>
      <trkpt lat="35.870657010" lon="-106.515124260">
        <ele>2636.700</ele>
        <time>2019-07-14T23:12:38Z</time>
      </trkpt>
      <trkpt lat="35.870578020" lon="-106.515180380">
        <ele>2637.200</ele>
        <time>2019-07-14T23:12:39Z</time>
      </trkpt>
      <trkpt lat="35.870495830" lon="-106.515232250">
        <ele>2636.700</ele>
        <time>2019-07-14T23:12:40Z</time>
      </trkpt>
      <trkpt lat="35.870415370" lon="-106.515288570">
        <ele>2636.300</ele>
        <time>2019-07-14T23:12:41Z</time>
      </trkpt>
      <trkpt lat="35.870350270" lon="-106.515343560">
        <ele>2637.600</ele>
        <time>2019-07-14T23:12:42Z</time>
      </trkpt>
      <trkpt lat="35.870274290" lon="-106.515394850">
        <ele>2637.600</ele>
        <time>2019-07-14T23:12:43Z</time>
      </trkpt>
      <trkpt lat="35.870196590" lon="-106.515438940">
        <ele>2637.600</ele>
        <time>2019-07-14T23:12:44Z</time>
      </trkpt>
      <trkpt lat="35.870122400" lon="-106.515474970">
        <ele>2637.600</ele>
        <time>2019-07-14T23:12:45Z</time>
      </trkpt>
      <trkpt lat="35.870039730" lon="-106.515512950">
        <ele>2637.500</ele>
        <time>2019-07-14T23:12:46Z</time>
      </trkpt>
      <trkpt lat="35.869960240" lon="-106.515551040">
        <ele>2637.800</ele>
        <time>2019-07-14T23:12:47Z</time>
      </trkpt>
      <trkpt lat="35.869873040" lon="-106.515590350">
        <ele>2638.400</ele>
        <time>2019-07-14T23:12:48Z</time>
      </trkpt>
      <trkpt lat="35.869784740" lon="-106.515628230">
        <ele>2638.500</ele>
        <time>2019-07-14T23:12:49Z</time>
      </trkpt>
      <trkpt lat="35.869697820" lon="-106.515669540">
        <ele>2637.800</ele>
        <time>2019-07-14T23:12:50Z</time>
      </trkpt>
      <trkpt lat="35.869613210" lon="-106.515709000">
        <ele>2637.800</ele>
        <time>2019-07-14T23:12:51Z</time>
      </trkpt>
      <trkpt lat="35.869552870" lon="-106.515763320">
        <ele>2639.200</ele>
        <time>2019-07-14T23:12:52Z</time>
      </trkpt>
      <trkpt lat="35.869470330" lon="-106.515803670">
        <ele>2639.200</ele>
        <time>2019-07-14T23:12:53Z</time>
      </trkpt>
      <trkpt lat="35.869396200" lon="-106.515846900">
        <ele>2639.400</ele>
        <time>2019-07-14T23:12:54Z</time>
      </trkpt>
      <trkpt lat="35.869319690" lon="-106.515891880">
        <ele>2639.900</ele>
        <time>2019-07-14T23:12:55Z</time>
      </trkpt>
      <trkpt lat="35.869239710" lon="-106.515933690">
        <ele>2640.200</ele>
        <time>2019-07-14T23:12:56Z</time>
      </trkpt>
      <trkpt lat="35.869157750" lon="-106.515969670">
        <ele>2640.100</ele>
        <time>2019-07-14T23:12:57Z</time>
      </trkpt>
      <trkpt lat="35.869069570" lon="-106.515985940">
        <ele>2640.000</ele>
        <time>2019-07-14T23:12:58Z</time>
      </trkpt>
      <trkpt lat="35.868977250" lon="-106.515990850">
        <ele>2639.900</ele>
        <time>2019-07-14T23:12:59Z</time>
      </trkpt>
      <trkpt lat="35.868890670" lon="-106.515981140">
        <ele>2639.900</ele>
        <time>2019-07-14T23:13:00Z</time>
      </trkpt>
      <trkpt lat="35.868803490" lon="-106.515963340">
        <ele>2638.700</ele>
        <time>2019-07-14T23:13:01Z</time>
      </trkpt>
      <trkpt lat="35.868705730" lon="-106.515932860">
        <ele>2638.400</ele>
        <time>2019-07-14T23:13:02Z</time>
      </trkpt>
      <trkpt lat="35.868613390" lon="-106.515901460">
        <ele>2639.800</ele>
        <time>2019-07-14T23:13:03Z</time>
      </trkpt>
      <trkpt lat="35.868518870" lon="-106.515876600">
        <ele>2639.800</ele>
        <time>2019-07-14T23:13:04Z</time>
      </trkpt>
      <trkpt lat="35.868423380" lon="-106.515848800">
        <ele>2639.400</ele>
        <time>2019-07-14T23:13:05Z</time>
      </trkpt>
      <trkpt lat="35.868341000" lon="-106.515826590">
        <ele>2641.900</ele>
        <time>2019-07-14T23:13:06Z</time>
      </trkpt>
      <trkpt lat="35.868249490" lon="-106.515802660">
        <ele>2642.300</ele>
        <time>2019-07-14T23:13:07Z</time>
      </trkpt>
      <trkpt lat="35.868153410" lon="-106.515783900">
        <ele>2642.200</ele>
        <time>2019-07-14T23:13:08Z</time>
      </trkpt>
      <trkpt lat="35.868063010" lon="-106.515768350">
        <ele>2642.100</ele>
        <time>2019-07-14T23:13:09Z</time>
      </trkpt>
      <trkpt lat="35.867964510" lon="-106.515762100">
        <ele>2641.300</ele>
        <time>2019-07-14T23:13:10Z</time>
      </trkpt>
      <trkpt lat="35.867871340" lon="-106.515748780">
        <ele>2640.200</ele>
        <time>2019-07-14T23:13:11Z</time>
      </trkpt>
      <trkpt lat="35.867780240" lon="-106.515734870">
        <ele>2640.300</ele>
        <time>2019-07-14T23:13:12Z</time>
      </trkpt>
      <trkpt lat="35.867695750" lon="-106.515728930">
        <ele>2640.800</ele>
        <time>2019-07-14T23:13:13Z</time>
      </trkpt>
      <trkpt lat="35.867615110" lon="-106.515716300">
        <ele>2641.400</ele>
        <time>2019-07-14T23:13:14Z</time>
      </trkpt>
      <trkpt lat="35.867535790" lon="-106.515710780">
        <ele>2642.600</ele>
        <time>2019-07-14T23:13:15Z</time>
      </trkpt>
      <trkpt lat="35.867446280" lon="-106.515708100">
        <ele>2641.700</ele>
        <time>2019-07-14T23:13:16Z</time>
      </trkpt>
      <trkpt lat="35.867362200" lon="-106.515702650">
        <ele>2641.800</ele>
        <time>2019-07-14T23:13:17Z</time>
      </trkpt>
      <trkpt lat="35.867278620" lon="-106.515698050">
        <ele>2641.800</ele>
        <time>2019-07-14T23:13:18Z</time>
      </trkpt>
      <trkpt lat="35.867197340" lon="-106.515688160">
        <ele>2642.300</ele>
        <time>2019-07-14T23:13:19Z</time>
      </trkpt>
      <trkpt lat="35.867117040" lon="-106.515709370">
        <ele>2642.000</ele>
        <time>2019-07-14T23:13:20Z</time>
      </trkpt>
      <trkpt lat="35.867039100" lon="-106.515733140">
        <ele>2640.900</ele>
        <time>2019-07-14T23:13:21Z</time>
      </trkpt>
      <trkpt lat="35.866976270" lon="-106.515760830">
        <ele>2640.800</ele>
        <time>2019-07-14T23:13:22Z</time>
      </trkpt>
      <trkpt lat="35.866920800" lon="-106.515810680">
        <ele>2641.300</ele>
        <time>2019-07-14T23:13:23Z</time>
      </trkpt>
      <trkpt lat="35.866859150" lon="-106.515856790">
        <ele>2640.500</ele>
        <time>2019-07-14T23:13:24Z</time>
      </trkpt>
      <trkpt lat="35.866795870" lon="-106.515904070">
        <ele>2640.200</ele>
        <time>2019-07-14T23:13:25Z</time>
      </trkpt>
      <trkpt lat="35.866732710" lon="-106.515957510">
        <ele>2640.700</ele>
        <time>2019-07-14T23:13:26Z</time>
      </trkpt>
      <trkpt lat="35.866670090" lon="-106.515998420">
        <ele>2641.000</ele>
        <time>2019-07-14T23:13:27Z</time>
      </trkpt>
      <trkpt lat="35.866639490" lon="-106.516029360">
        <ele>2640.500</ele>
        <time>2019-07-14T23:13:28Z</time>
      </trkpt>
      <trkpt lat="35.866579600" lon="-106.516058420">
        <ele>2641.300</ele>
        <time>2019-07-14T23:13:29Z</time>
      </trkpt>
      <trkpt lat="35.866542580" lon="-106.516089270">
        <ele>2641.400</ele>
        <time>2019-07-14T23:13:30Z</time>
      </trkpt>
      <trkpt lat="35.866485270" lon="-106.516131140">
        <ele>2642.000</ele>
        <time>2019-07-14T23:13:31Z</time>
      </trkpt>
      <trkpt lat="35.866417690" lon="-106.516170100">
        <ele>2644.000</ele>
        <time>2019-07-14T23:13:32Z</time>
      </trkpt>
      <trkpt lat="35.866371470" lon="-106.516217430">
        <ele>2643.000</ele>
        <time>2019-07-14T23:13:33Z</time>
      </trkpt>
      <trkpt lat="35.866304090" lon="-106.516268640">
        <ele>2644.200</ele>
        <time>2019-07-14T23:13:34Z</time>
      </trkpt>
      <trkpt lat="35.866243570" lon="-106.516332350">
        <ele>2644.100</ele>
        <time>2019-07-14T23:13:35Z</time>
      </trkpt>
      <trkpt lat="35.866188930" lon="-106.516389400">
        <ele>2644.000</ele>
        <time>2019-07-14T23:13:36Z</time>
      </trkpt>
      <trkpt lat="35.866135230" lon="-106.516454620">
        <ele>2644.800</ele>
        <time>2019-07-14T23:13:37Z</time>
      </trkpt>
      <trkpt lat="35.866089410" lon="-106.516520510">
        <ele>2645.600</ele>
        <time>2019-07-14T23:13:38Z</time>
      </trkpt>
      <trkpt lat="35.866039360" lon="-106.516590180">
        <ele>2646.500</ele>
        <time>2019-07-14T23:13:39Z</time>
      </trkpt>
      <trkpt lat="35.865993520" lon="-106.516657500">
        <ele>2646.700</ele>
        <time>2019-07-14T23:13:40Z</time>
      </trkpt>
      <trkpt lat="35.865935100" lon="-106.516728300">
        <ele>2646.200</ele>
        <time>2019-07-14T23:13:41Z</time>
      </trkpt>
      <trkpt lat="35.865887050" lon="-106.516789550">
        <ele>2646.000</ele>
        <time>2019-07-14T23:13:42Z</time>
      </trkpt>
      <trkpt lat="35.865835240" lon="-106.516854100">
        <ele>2645.800</ele>
        <time>2019-07-14T23:13:43Z</time>
      </trkpt>
      <trkpt lat="35.865805480" lon="-106.516892240">
        <ele>2648.600</ele>
        <time>2019-07-14T23:13:44Z</time>
      </trkpt>
      <trkpt lat="35.865769320" lon="-106.516942050">
        <ele>2649.400</ele>
        <time>2019-07-14T23:13:45Z</time>
      </trkpt>
      <trkpt lat="35.865727200" lon="-106.516982460">
        <ele>2649.500</ele>
        <time>2019-07-14T23:13:46Z</time>
      </trkpt>
      <trkpt lat="35.865679630" lon="-106.517022380">
        <ele>2650.400</ele>
        <time>2019-07-14T23:13:47Z</time>
      </trkpt>
      <trkpt lat="35.865643450" lon="-106.517074670">
        <ele>2651.300</ele>
        <time>2019-07-14T23:13:48Z</time>
      </trkpt>
      <trkpt lat="35.865591440" lon="-106.517129830">
        <ele>2651.700</ele>
        <time>2019-07-14T23:13:49Z</time>
      </trkpt>
      <trkpt lat="35.865533890" lon="-106.517163130">
        <ele>2650.700</ele>
        <time>2019-07-14T23:13:50Z</time>
      </trkpt>
      <trkpt lat="35.865494110" lon="-106.517215230">
        <ele>2650.900</ele>
        <time>2019-07-14T23:13:51Z</time>
      </trkpt>
      <trkpt lat="35.865446680" lon="-106.517259330">
        <ele>2650.200</ele>
        <time>2019-07-14T23:13:52Z</time>
      </trkpt>
      <trkpt lat="35.865395040" lon="-106.517298090">
        <ele>2650.400</ele>
        <time>2019-07-14T23:13:53Z</time>
      </trkpt>
      <trkpt lat="35.865349640" lon="-106.517337880">
        <ele>2651.000</ele>
        <time>2019-07-14T23:13:54Z</time>
      </trkpt>
      <trkpt lat="35.865313060" lon="-106.517369040">
        <ele>2649.200</ele>
        <time>2019-07-14T23:13:55Z</time>
      </trkpt>
      <trkpt lat="35.865266570" lon="-106.517402400">
        <ele>2647.600</ele>
        <time>2019-07-14T23:13:56Z</time>
      </trkpt>
      <trkpt lat="35.865226260" lon="-106.517435390">
        <ele>2647.500</ele>
        <time>2019-07-14T23:13:57Z</time>
      </trkpt>
      <trkpt lat="35.865187090" lon="-106.517501990">
        <ele>2647.200</ele>
        <time>2019-07-14T23:13:59Z</time>
      </trkpt>
      <trkpt lat="35.865153340" lon="-106.517538080">
        <ele>2647.800</ele>
        <time>2019-07-14T23:14:00Z</time>
      </trkpt>
      <trkpt lat="35.865120450" lon="-106.517573120">
        <ele>2647.000</ele>
        <time>2019-07-14T23:14:01Z</time>
      </trkpt>
      <trkpt lat="35.865090790" lon="-106.517600770">
        <ele>2646.200</ele>
        <time>2019-07-14T23:14:02Z</time>
      </trkpt>
      <trkpt lat="35.865060890" lon="-106.517666060">
        <ele>2645.300</ele>
        <time>2019-07-14T23:14:04Z</time>
      </trkpt>
      <trkpt lat="35.865033830" lon="-106.517700800">
        <ele>2645.000</ele>
        <time>2019-07-14T23:14:05Z</time>
      </trkpt>
      <trkpt lat="35.865006870" lon="-106.517743760">
        <ele>2644.000</ele>
        <time>2019-07-14T23:14:06Z</time>
      </trkpt>
      <trkpt lat="35.864984640" lon="-106.517789970">
        <ele>2644.100</ele>
        <time>2019-07-14T23:14:07Z</time>
      </trkpt>
      <trkpt lat="35.864955830" lon="-106.517830270">
        <ele>2644.600</ele>
        <time>2019-07-14T23:14:08Z</time>
      </trkpt>
      <trkpt lat="35.864931300" lon="-106.517870840">
        <ele>2644.200</ele>
        <time>2019-07-14T23:14:09Z</time>
      </trkpt>
      <trkpt lat="35.864901550" lon="-106.517905770">
        <ele>2644.500</ele>
        <time>2019-07-14T23:14:10Z</time>
      </trkpt>
      <trkpt lat="35.864857440" lon="-106.517940900">
        <ele>2645.100</ele>
        <time>2019-07-14T23:14:12Z</time>
      </trkpt>
      <trkpt lat="35.864818760" lon="-106.517961210">
        <ele>2645.100</ele>
        <time>2019-07-14T23:14:29Z</time>
      </trkpt>
      <trkpt lat="35.864792920" lon="-106.517998600">
        <ele>2645.500</ele>
        <time>2019-07-14T23:14:38Z</time>
      </trkpt>
      <trkpt lat="35.864747480" lon="-106.518035930">
        <ele>2645.700</ele>
        <time>2019-07-14T23:14:40Z</time>
      </trkpt>
      <trkpt lat="35.864692780" lon="-106.518082440">
        <ele>2646.000</ele>
        <time>2019-07-14T23:14:42Z</time>
      </trkpt>
      <trkpt lat="35.864657600" lon="-106.518105800">
        <ele>2645.800</ele>
        <time>2019-07-14T23:14:43Z</time>
      </trkpt>
      <trkpt lat="35.864591120" lon="-106.518103240">
        <ele>2644.500</ele>
        <time>2019-07-14T23:14:44Z</time>
      </trkpt>
      <trkpt lat="35.864549480" lon="-106.518107240">
        <ele>2645.300</ele>
        <time>2019-07-14T23:14:45Z</time>
      </trkpt>
      <trkpt lat="35.864482570" lon="-106.518094380">
        <ele>2644.400</ele>
        <time>2019-07-14T23:14:46Z</time>
      </trkpt>
      <trkpt lat="35.864422560" lon="-106.518077050">
        <ele>2643.400</ele>
        <time>2019-07-14T23:14:47Z</time>
      </trkpt>
      <trkpt lat="35.864361490" lon="-106.518033890">
        <ele>2642.000</ele>
        <time>2019-07-14T23:14:48Z</time>
      </trkpt>
      <trkpt lat="35.864311640" lon="-106.517991630">
        <ele>2641.800</ele>
        <time>2019-07-14T23:14:49Z</time>
      </trkpt>
      <trkpt lat="35.864253830" lon="-106.517936600">
        <ele>2641.300</ele>
        <time>2019-07-14T23:14:50Z</time>
      </trkpt>
      <trkpt lat="35.864205480" lon="-106.517874870">
        <ele>2641.100</ele>
        <time>2019-07-14T23:14:51Z</time>
      </trkpt>
      <trkpt lat="35.864152690" lon="-106.517806640">
        <ele>2640.900</ele>
        <time>2019-07-14T23:14:52Z</time>
      </trkpt>
      <trkpt lat="35.864097390" lon="-106.517736430">
        <ele>2640.200</ele>
        <time>2019-07-14T23:14:53Z</time>
      </trkpt>
      <trkpt lat="35.864053920" lon="-106.517674050">
        <ele>2639.900</ele>
        <time>2019-07-14T23:14:54Z</time>
      </trkpt>
      <trkpt lat="35.864019300" lon="-106.517621240">
        <ele>2640.200</ele>
        <time>2019-07-14T23:14:55Z</time>
      </trkpt>
      <trkpt lat="35.863985310" lon="-106.517565150">
        <ele>2639.500</ele>
        <time>2019-07-14T23:14:56Z</time>
      </trkpt>
      <trkpt lat="35.863945370" lon="-106.517505490">
        <ele>2640.300</ele>
        <time>2019-07-14T23:14:57Z</time>
      </trkpt>
      <trkpt lat="35.863914020" lon="-106.517447370">
        <ele>2640.200</ele>
        <time>2019-07-14T23:14:58Z</time>
      </trkpt>
      <trkpt lat="35.863893990" lon="-106.517384100">
        <ele>2640.700</ele>
        <time>2019-07-14T23:14:59Z</time>
      </trkpt>
      <trkpt lat="35.863856340" lon="-106.517324760">
        <ele>2639.800</ele>
        <time>2019-07-14T23:15:00Z</time>
      </trkpt>
      <trkpt lat="35.863821570" lon="-106.517265380">
        <ele>2639.700</ele>
        <time>2019-07-14T23:15:01Z</time>
      </trkpt>
      <trkpt lat="35.863784110" lon="-106.517202200">
        <ele>2639.900</ele>
        <time>2019-07-14T23:15:02Z</time>
      </trkpt>
      <trkpt lat="35.863741600" lon="-106.517128110">
        <ele>2639.500</ele>
        <time>2019-07-14T23:15:03Z</time>
      </trkpt>
      <trkpt lat="35.863704850" lon="-106.517059460">
        <ele>2639.600</ele>
        <time>2019-07-14T23:15:04Z</time>
      </trkpt>
      <trkpt lat="35.863669320" lon="-106.516988750">
        <ele>2639.700</ele>
        <time>2019-07-14T23:15:05Z</time>
      </trkpt>
      <trkpt lat="35.863617480" lon="-106.516894350">
        <ele>2638.400</ele>
        <time>2019-07-14T23:15:06Z</time>
      </trkpt>
      <trkpt lat="35.863574910" lon="-106.516810780">
        <ele>2637.400</ele>
        <time>2019-07-14T23:15:07Z</time>
      </trkpt>
      <trkpt lat="35.863533330" lon="-106.516732560">
        <ele>2636.400</ele>
        <time>2019-07-14T23:15:08Z</time>
      </trkpt>
      <trkpt lat="35.863484760" lon="-106.516636660">
        <ele>2635.500</ele>
        <time>2019-07-14T23:15:09Z</time>
      </trkpt>
      <trkpt lat="35.863439100" lon="-106.516540600">
        <ele>2634.700</ele>
        <time>2019-07-14T23:15:10Z</time>
      </trkpt>
      <trkpt lat="35.863385950" lon="-106.516438560">
        <ele>2633.800</ele>
        <time>2019-07-14T23:15:11Z</time>
      </trkpt>
      <trkpt lat="35.863335610" lon="-106.516339220">
        <ele>2633.800</ele>
        <time>2019-07-14T23:15:12Z</time>
      </trkpt>
      <trkpt lat="35.863287880" lon="-106.516236930">
        <ele>2633.500</ele>
        <time>2019-07-14T23:15:13Z</time>
      </trkpt>
      <trkpt lat="35.863234840" lon="-106.516131810">
        <ele>2631.000</ele>
        <time>2019-07-14T23:15:14Z</time>
      </trkpt>
      <trkpt lat="35.863185000" lon="-106.516032730">
        <ele>2629.900</ele>
        <time>2019-07-14T23:15:15Z</time>
      </trkpt>
      <trkpt lat="35.863142420" lon="-106.515926930">
        <ele>2627.900</ele>
        <time>2019-07-14T23:15:16Z</time>
      </trkpt>
      <trkpt lat="35.863087300" lon="-106.515821280">
        <ele>2628.200</ele>
        <time>2019-07-14T23:15:17Z</time>
      </trkpt>
      <trkpt lat="35.863036180" lon="-106.515710220">
        <ele>2626.500</ele>
        <time>2019-07-14T23:15:18Z</time>
      </trkpt>
      <trkpt lat="35.862982960" lon="-106.515600870">
        <ele>2625.800</ele>
        <time>2019-07-14T23:15:19Z</time>
      </trkpt>
      <trkpt lat="35.862924610" lon="-106.515494750">
        <ele>2624.800</ele>
        <time>2019-07-14T23:15:20Z</time>
      </trkpt>
      <trkpt lat="35.862867110" lon="-106.515390000">
        <ele>2624.000</ele>
        <time>2019-07-14T23:15:21Z</time>
      </trkpt>
      <trkpt lat="35.862811790" lon="-106.515271070">
        <ele>2622.700</ele>
        <time>2019-07-14T23:15:22Z</time>
      </trkpt>
      <trkpt lat="35.862756540" lon="-106.515165460">
        <ele>2622.500</ele>
        <time>2019-07-14T23:15:23Z</time>
      </trkpt>
      <trkpt lat="35.862698110" lon="-106.515060030">
        <ele>2621.400</ele>
        <time>2019-07-14T23:15:24Z</time>
      </trkpt>
      <trkpt lat="35.862642380" lon="-106.514961830">
        <ele>2619.900</ele>
        <time>2019-07-14T23:15:25Z</time>
      </trkpt>
      <trkpt lat="35.862588740" lon="-106.514863940">
        <ele>2619.200</ele>
        <time>2019-07-14T23:15:26Z</time>
      </trkpt>
      <trkpt lat="35.862531790" lon="-106.514763680">
        <ele>2618.100</ele>
        <time>2019-07-14T23:15:27Z</time>
      </trkpt>
      <trkpt lat="35.862478580" lon="-106.514667380">
        <ele>2617.200</ele>
        <time>2019-07-14T23:15:28Z</time>
      </trkpt>
      <trkpt lat="35.862416370" lon="-106.514563470">
        <ele>2616.000</ele>
        <time>2019-07-14T23:15:29Z</time>
      </trkpt>
      <trkpt lat="35.862352480" lon="-106.514455490">
        <ele>2616.300</ele>
        <time>2019-07-14T23:15:30Z</time>
      </trkpt>
      <trkpt lat="35.862291400" lon="-106.514348510">
        <ele>2615.700</ele>
        <time>2019-07-14T23:15:31Z</time>
      </trkpt>
      <trkpt lat="35.862240170" lon="-106.514248810">
        <ele>2615.000</ele>
        <time>2019-07-14T23:15:32Z</time>
      </trkpt>
      <trkpt lat="35.862185060" lon="-106.514149740">
        <ele>2614.800</ele>
        <time>2019-07-14T23:15:33Z</time>
      </trkpt>
      <trkpt lat="35.862127270" lon="-106.514050450">
        <ele>2614.700</ele>
        <time>2019-07-14T23:15:34Z</time>
      </trkpt>
      <trkpt lat="35.862081670" lon="-106.513948640">
        <ele>2614.000</ele>
        <time>2019-07-14T23:15:35Z</time>
      </trkpt>
      <trkpt lat="35.862033420" lon="-106.513849960">
        <ele>2612.900</ele>
        <time>2019-07-14T23:15:36Z</time>
      </trkpt>
      <trkpt lat="35.861993120" lon="-106.513749050">
        <ele>2611.900</ele>
        <time>2019-07-14T23:15:37Z</time>
      </trkpt>
      <trkpt lat="35.861960010" lon="-106.513641710">
        <ele>2612.400</ele>
        <time>2019-07-14T23:15:38Z</time>
      </trkpt>
      <trkpt lat="35.861923780" lon="-106.513538470">
        <ele>2611.500</ele>
        <time>2019-07-14T23:15:39Z</time>
      </trkpt>
      <trkpt lat="35.861890220" lon="-106.513432650">
        <ele>2611.800</ele>
        <time>2019-07-14T23:15:40Z</time>
      </trkpt>
      <trkpt lat="35.861856870" lon="-106.513327760">
        <ele>2611.700</ele>
        <time>2019-07-14T23:15:41Z</time>
      </trkpt>
      <trkpt lat="35.861832620" lon="-106.513234620">
        <ele>2611.300</ele>
        <time>2019-07-14T23:15:42Z</time>
      </trkpt>
      <trkpt lat="35.861798220" lon="-106.513124350">
        <ele>2611.800</ele>
        <time>2019-07-14T23:15:43Z</time>
      </trkpt>
      <trkpt lat="35.861756250" lon="-106.513018970">
        <ele>2612.000</ele>
        <time>2019-07-14T23:15:44Z</time>
      </trkpt>
      <trkpt lat="35.861720580" lon="-106.512924380">
        <ele>2611.100</ele>
        <time>2019-07-14T23:15:45Z</time>
      </trkpt>
      <trkpt lat="35.861683130" lon="-106.512827480">
        <ele>2610.900</ele>
        <time>2019-07-14T23:15:46Z</time>
      </trkpt>
      <trkpt lat="35.861635970" lon="-106.512749820">
        <ele>2610.600</ele>
        <time>2019-07-14T23:15:47Z</time>
      </trkpt>
      <trkpt lat="35.861586000" lon="-106.512669160">
        <ele>2610.600</ele>
        <time>2019-07-14T23:15:48Z</time>
      </trkpt>
      <trkpt lat="35.861533650" lon="-106.512597880">
        <ele>2610.100</ele>
        <time>2019-07-14T23:15:49Z</time>
      </trkpt>
      <trkpt lat="35.861479210" lon="-106.512539740">
        <ele>2610.400</ele>
        <time>2019-07-14T23:15:50Z</time>
      </trkpt>
      <trkpt lat="35.861416270" lon="-106.512476780">
        <ele>2609.500</ele>
        <time>2019-07-14T23:15:51Z</time>
      </trkpt>
      <trkpt lat="35.861360680" lon="-106.512427660">
        <ele>2610.000</ele>
        <time>2019-07-14T23:15:52Z</time>
      </trkpt>
      <trkpt lat="35.861293460" lon="-106.512364220">
        <ele>2609.000</ele>
        <time>2019-07-14T23:15:53Z</time>
      </trkpt>
      <trkpt lat="35.861230760" lon="-106.512301950">
        <ele>2608.200</ele>
        <time>2019-07-14T23:15:54Z</time>
      </trkpt>
      <trkpt lat="35.861166220" lon="-106.512237470">
        <ele>2607.500</ele>
        <time>2019-07-14T23:15:55Z</time>
      </trkpt>
      <trkpt lat="35.861099580" lon="-106.512175240">
        <ele>2607.100</ele>
        <time>2019-07-14T23:15:56Z</time>
      </trkpt>
      <trkpt lat="35.861032430" lon="-106.512117960">
        <ele>2606.800</ele>
        <time>2019-07-14T23:15:57Z</time>
      </trkpt>
      <trkpt lat="35.860969330" lon="-106.512057120">
        <ele>2606.400</ele>
        <time>2019-07-14T23:15:58Z</time>
      </trkpt>
      <trkpt lat="35.860910580" lon="-106.511994470">
        <ele>2606.800</ele>
        <time>2019-07-14T23:15:59Z</time>
      </trkpt>
      <trkpt lat="35.860841570" lon="-106.511938410">
        <ele>2605.600</ele>
        <time>2019-07-14T23:16:00Z</time>
      </trkpt>
      <trkpt lat="35.860763030" lon="-106.511874340">
        <ele>2605.000</ele>
        <time>2019-07-14T23:16:01Z</time>
      </trkpt>
      <trkpt lat="35.860687470" lon="-106.511807270">
        <ele>2604.400</ele>
        <time>2019-07-14T23:16:02Z</time>
      </trkpt>
      <trkpt lat="35.860612230" lon="-106.511743550">
        <ele>2604.500</ele>
        <time>2019-07-14T23:16:03Z</time>
      </trkpt>
      <trkpt lat="35.860536920" lon="-106.511683140">
        <ele>2603.900</ele>
        <time>2019-07-14T23:16:04Z</time>
      </trkpt>
      <trkpt lat="35.860458800" lon="-106.511623600">
        <ele>2603.600</ele>
        <time>2019-07-14T23:16:05Z</time>
      </trkpt>
      <trkpt lat="35.860386280" lon="-106.511566920">
        <ele>2603.100</ele>
        <time>2019-07-14T23:16:06Z</time>
      </trkpt>
      <trkpt lat="35.860310340" lon="-106.511505200">
        <ele>2603.700</ele>
        <time>2019-07-14T23:16:07Z</time>
      </trkpt>
      <trkpt lat="35.860237360" lon="-106.511446580">
        <ele>2603.800</ele>
        <time>2019-07-14T23:16:08Z</time>
      </trkpt>
      <trkpt lat="35.860162920" lon="-106.511381120">
        <ele>2604.400</ele>
        <time>2019-07-14T23:16:09Z</time>
      </trkpt>
      <trkpt lat="35.860075320" lon="-106.511305660">
        <ele>2603.200</ele>
        <time>2019-07-14T23:16:10Z</time>
      </trkpt>
      <trkpt lat="35.859998680" lon="-106.511239000">
        <ele>2602.600</ele>
        <time>2019-07-14T23:16:11Z</time>
      </trkpt>
      <trkpt lat="35.859918980" lon="-106.511167020">
        <ele>2601.900</ele>
        <time>2019-07-14T23:16:12Z</time>
      </trkpt>
      <trkpt lat="35.859840600" lon="-106.511101080">
        <ele>2601.800</ele>
        <time>2019-07-14T23:16:13Z</time>
      </trkpt>
      <trkpt lat="35.859757660" lon="-106.511031900">
        <ele>2601.200</ele>
        <time>2019-07-14T23:16:14Z</time>
      </trkpt>
      <trkpt lat="35.859687910" lon="-106.510963740">
        <ele>2601.800</ele>
        <time>2019-07-14T23:16:15Z</time>
      </trkpt>
      <trkpt lat="35.859610880" lon="-106.510893340">
        <ele>2601.000</ele>
        <time>2019-07-14T23:16:16Z</time>
      </trkpt>
      <trkpt lat="35.859529690" lon="-106.510817210">
        <ele>2601.100</ele>
        <time>2019-07-14T23:16:17Z</time>
      </trkpt>
      <trkpt lat="35.859451670" lon="-106.510748280">
        <ele>2600.500</ele>
        <time>2019-07-14T23:16:18Z</time>
      </trkpt>
      <trkpt lat="35.859371340" lon="-106.510671960">
        <ele>2600.200</ele>
        <time>2019-07-14T23:16:19Z</time>
      </trkpt>
      <trkpt lat="35.859293300" lon="-106.510599320">
        <ele>2600.400</ele>
        <time>2019-07-14T23:16:20Z</time>
      </trkpt>
      <trkpt lat="35.859213640" lon="-106.510545260">
        <ele>2599.000</ele>
        <time>2019-07-14T23:16:21Z</time>
      </trkpt>
      <trkpt lat="35.859126870" lon="-106.510470490">
        <ele>2598.700</ele>
        <time>2019-07-14T23:16:22Z</time>
      </trkpt>
      <trkpt lat="35.859055560" lon="-106.510393750">
        <ele>2598.500</ele>
        <time>2019-07-14T23:16:23Z</time>
      </trkpt>
      <trkpt lat="35.858980090" lon="-106.510311460">
        <ele>2598.200</ele>
        <time>2019-07-14T23:16:24Z</time>
      </trkpt>
      <trkpt lat="35.858916100" lon="-106.510222080">
        <ele>2597.600</ele>
        <time>2019-07-14T23:16:25Z</time>
      </trkpt>
      <trkpt lat="35.858857240" lon="-106.510118310">
        <ele>2598.000</ele>
        <time>2019-07-14T23:16:26Z</time>
      </trkpt>
      <trkpt lat="35.858804500" lon="-106.510019640">
        <ele>2597.100</ele>
        <time>2019-07-14T23:16:27Z</time>
      </trkpt>
      <trkpt lat="35.858769880" lon="-106.509916990">
        <ele>2597.100</ele>
        <time>2019-07-14T23:16:28Z</time>
      </trkpt>
      <trkpt lat="35.858739830" lon="-106.509813250">
        <ele>2598.200</ele>
        <time>2019-07-14T23:16:29Z</time>
      </trkpt>
      <trkpt lat="35.858705450" lon="-106.509701450">
        <ele>2598.000</ele>
        <time>2019-07-14T23:16:30Z</time>
      </trkpt>
      <trkpt lat="35.858673060" lon="-106.509588870">
        <ele>2597.900</ele>
        <time>2019-07-14T23:16:31Z</time>
      </trkpt>
      <trkpt lat="35.858645300" lon="-106.509482490">
        <ele>2598.100</ele>
        <time>2019-07-14T23:16:32Z</time>
      </trkpt>
      <trkpt lat="35.858620460" lon="-106.509377230">
        <ele>2598.400</ele>
        <time>2019-07-14T23:16:33Z</time>
      </trkpt>
      <trkpt lat="35.858590250" lon="-106.509270270">
        <ele>2598.000</ele>
        <time>2019-07-14T23:16:34Z</time>
      </trkpt>
      <trkpt lat="35.858566570" lon="-106.509166050">
        <ele>2598.300</ele>
        <time>2019-07-14T23:16:35Z</time>
      </trkpt>
      <trkpt lat="35.858547520" lon="-106.509060220">
        <ele>2598.500</ele>
        <time>2019-07-14T23:16:36Z</time>
      </trkpt>
      <trkpt lat="35.858529550" lon="-106.508954030">
        <ele>2599.000</ele>
        <time>2019-07-14T23:16:37Z</time>
      </trkpt>
      <trkpt lat="35.858507400" lon="-106.508845900">
        <ele>2599.100</ele>
        <time>2019-07-14T23:16:38Z</time>
      </trkpt>
      <trkpt lat="35.858488760" lon="-106.508732820">
        <ele>2598.900</ele>
        <time>2019-07-14T23:16:39Z</time>
      </trkpt>
      <trkpt lat="35.858473410" lon="-106.508622880">
        <ele>2599.100</ele>
        <time>2019-07-14T23:16:40Z</time>
      </trkpt>
      <trkpt lat="35.858457260" lon="-106.508512210">
        <ele>2599.000</ele>
        <time>2019-07-14T23:16:41Z</time>
      </trkpt>
      <trkpt lat="35.858441110" lon="-106.508393550">
        <ele>2599.300</ele>
        <time>2019-07-14T23:16:42Z</time>
      </trkpt>
      <trkpt lat="35.858424620" lon="-106.508276780">
        <ele>2598.600</ele>
        <time>2019-07-14T23:16:43Z</time>
      </trkpt>
      <trkpt lat="35.858413090" lon="-106.508159600">
        <ele>2599.000</ele>
        <time>2019-07-14T23:16:44Z</time>
      </trkpt>
      <trkpt lat="35.858397230" lon="-106.508042520">
        <ele>2599.100</ele>
        <time>2019-07-14T23:16:45Z</time>
      </trkpt>
      <trkpt lat="35.858380380" lon="-106.507924470">
        <ele>2599.100</ele>
        <time>2019-07-14T23:16:46Z</time>
      </trkpt>
      <trkpt lat="35.858366750" lon="-106.507807430">
        <ele>2599.000</ele>
        <time>2019-07-14T23:16:47Z</time>
      </trkpt>
      <trkpt lat="35.858352370" lon="-106.507684230">
        <ele>2598.700</ele>
        <time>2019-07-14T23:16:48Z</time>
      </trkpt>
      <trkpt lat="35.858339490" lon="-106.507573110">
        <ele>2598.700</ele>
        <time>2019-07-14T23:16:49Z</time>
      </trkpt>
      <trkpt lat="35.858325910" lon="-106.507455840">
        <ele>2598.200</ele>
        <time>2019-07-14T23:16:50Z</time>
      </trkpt>
      <trkpt lat="35.858313240" lon="-106.507346070">
        <ele>2598.700</ele>
        <time>2019-07-14T23:16:51Z</time>
      </trkpt>
      <trkpt lat="35.858295610" lon="-106.507236590">
        <ele>2598.600</ele>
        <time>2019-07-14T23:16:52Z</time>
      </trkpt>
      <trkpt lat="35.858280470" lon="-106.507127110">
        <ele>2599.200</ele>
        <time>2019-07-14T23:16:53Z</time>
      </trkpt>
      <trkpt lat="35.858260980" lon="-106.507021630">
        <ele>2599.000</ele>
        <time>2019-07-14T23:16:54Z</time>
      </trkpt>
      <trkpt lat="35.858245430" lon="-106.506928360">
        <ele>2599.000</ele>
        <time>2019-07-14T23:16:55Z</time>
      </trkpt>
      <trkpt lat="35.858230690" lon="-106.506842660">
        <ele>2599.100</ele>
        <time>2019-07-14T23:16:56Z</time>
      </trkpt>
      <trkpt lat="35.858214490" lon="-106.506761170">
        <ele>2599.600</ele>
        <time>2019-07-14T23:16:57Z</time>
      </trkpt>
      <trkpt lat="35.858197740" lon="-106.506679620">
        <ele>2599.500</ele>
        <time>2019-07-14T23:16:58Z</time>
      </trkpt>
      <trkpt lat="35.858183550" lon="-106.506594170">
        <ele>2599.300</ele>
        <time>2019-07-14T23:16:59Z</time>
      </trkpt>
      <trkpt lat="35.858172080" lon="-106.506510360">
        <ele>2599.400</ele>
        <time>2019-07-14T23:17:00Z</time>
      </trkpt>
      <trkpt lat="35.858156210" lon="-106.506420420">
        <ele>2599.400</ele>
        <time>2019-07-14T23:17:01Z</time>
      </trkpt>
      <trkpt lat="35.858141160" lon="-106.506324940">
        <ele>2599.300</ele>
        <time>2019-07-14T23:17:02Z</time>
      </trkpt>
      <trkpt lat="35.858122260" lon="-106.506226810">
        <ele>2599.500</ele>
        <time>2019-07-14T23:17:03Z</time>
      </trkpt>
      <trkpt lat="35.858100670" lon="-106.506121640">
        <ele>2599.400</ele>
        <time>2019-07-14T23:17:04Z</time>
      </trkpt>
      <trkpt lat="35.858075440" lon="-106.506018680">
        <ele>2598.900</ele>
        <time>2019-07-14T23:17:05Z</time>
      </trkpt>
      <trkpt lat="35.858054790" lon="-106.505911670">
        <ele>2598.900</ele>
        <time>2019-07-14T23:17:06Z</time>
      </trkpt>
      <trkpt lat="35.858033130" lon="-106.505805210">
        <ele>2599.000</ele>
        <time>2019-07-14T23:17:07Z</time>
      </trkpt>
      <trkpt lat="35.858011410" lon="-106.505693640">
        <ele>2598.800</ele>
        <time>2019-07-14T23:17:08Z</time>
      </trkpt>
      <trkpt lat="35.857990820" lon="-106.505584000">
        <ele>2599.300</ele>
        <time>2019-07-14T23:17:09Z</time>
      </trkpt>
      <trkpt lat="35.857971680" lon="-106.505475760">
        <ele>2599.200</ele>
        <time>2019-07-14T23:17:10Z</time>
      </trkpt>
      <trkpt lat="35.857946130" lon="-106.505364620">
        <ele>2599.200</ele>
        <time>2019-07-14T23:17:11Z</time>
      </trkpt>
      <trkpt lat="35.857921660" lon="-106.505252880">
        <ele>2599.000</ele>
        <time>2019-07-14T23:17:12Z</time>
      </trkpt>
      <trkpt lat="35.857895630" lon="-106.505142120">
        <ele>2598.700</ele>
        <time>2019-07-14T23:17:13Z</time>
      </trkpt>
      <trkpt lat="35.857874480" lon="-106.505030210">
        <ele>2599.200</ele>
        <time>2019-07-14T23:17:14Z</time>
      </trkpt>
      <trkpt lat="35.857854680" lon="-106.504908560">
        <ele>2601.000</ele>
        <time>2019-07-14T23:17:15Z</time>
      </trkpt>
      <trkpt lat="35.857833770" lon="-106.504795860">
        <ele>2600.100</ele>
        <time>2019-07-14T23:17:16Z</time>
      </trkpt>
      <trkpt lat="35.857816960" lon="-106.504683850">
        <ele>2599.900</ele>
        <time>2019-07-14T23:17:17Z</time>
      </trkpt>
      <trkpt lat="35.857802680" lon="-106.504573970">
        <ele>2600.000</ele>
        <time>2019-07-14T23:17:18Z</time>
      </trkpt>
      <trkpt lat="35.857789350" lon="-106.504463590">
        <ele>2599.600</ele>
        <time>2019-07-14T23:17:19Z</time>
      </trkpt>
      <trkpt lat="35.857782650" lon="-106.504354640">
        <ele>2598.900</ele>
        <time>2019-07-14T23:17:20Z</time>
      </trkpt>
      <trkpt lat="35.857772630" lon="-106.504244470">
        <ele>2598.700</ele>
        <time>2019-07-14T23:17:21Z</time>
      </trkpt>
      <trkpt lat="35.857763040" lon="-106.504133720">
        <ele>2598.500</ele>
        <time>2019-07-14T23:17:22Z</time>
      </trkpt>
      <trkpt lat="35.857760300" lon="-106.504024030">
        <ele>2598.300</ele>
        <time>2019-07-14T23:17:23Z</time>
      </trkpt>
      <trkpt lat="35.857757790" lon="-106.503912900">
        <ele>2598.300</ele>
        <time>2019-07-14T23:17:24Z</time>
      </trkpt>
      <trkpt lat="35.857757780" lon="-106.503804880">
        <ele>2597.900</ele>
        <time>2019-07-14T23:17:25Z</time>
      </trkpt>
      <trkpt lat="35.857767290" lon="-106.503690270">
        <ele>2598.300</ele>
        <time>2019-07-14T23:17:26Z</time>
      </trkpt>
      <trkpt lat="35.857764870" lon="-106.503579460">
        <ele>2596.300</ele>
        <time>2019-07-14T23:17:27Z</time>
      </trkpt>
      <trkpt lat="35.857764310" lon="-106.503467910">
        <ele>2596.100</ele>
        <time>2019-07-14T23:17:28Z</time>
      </trkpt>
      <trkpt lat="35.857761320" lon="-106.503353760">
        <ele>2596.100</ele>
        <time>2019-07-14T23:17:29Z</time>
      </trkpt>
      <trkpt lat="35.857760140" lon="-106.503258890">
        <ele>2595.700</ele>
        <time>2019-07-14T23:17:30Z</time>
      </trkpt>
      <trkpt lat="35.857758730" lon="-106.503160050">
        <ele>2595.500</ele>
        <time>2019-07-14T23:17:31Z</time>
      </trkpt>
      <trkpt lat="35.857758200" lon="-106.503061990">
        <ele>2595.400</ele>
        <time>2019-07-14T23:17:32Z</time>
      </trkpt>
      <trkpt lat="35.857755410" lon="-106.502976710">
        <ele>2595.100</ele>
        <time>2019-07-14T23:17:33Z</time>
      </trkpt>
      <trkpt lat="35.857755920" lon="-106.502901120">
        <ele>2594.700</ele>
        <time>2019-07-14T23:17:34Z</time>
      </trkpt>
      <trkpt lat="35.857753750" lon="-106.502829760">
        <ele>2594.000</ele>
        <time>2019-07-14T23:17:35Z</time>
      </trkpt>
      <trkpt lat="35.857752870" lon="-106.502745070">
        <ele>2593.700</ele>
        <time>2019-07-14T23:17:36Z</time>
      </trkpt>
      <trkpt lat="35.857755210" lon="-106.502652050">
        <ele>2593.900</ele>
        <time>2019-07-14T23:17:37Z</time>
      </trkpt>
      <trkpt lat="35.857745580" lon="-106.502556990">
        <ele>2593.700</ele>
        <time>2019-07-14T23:17:38Z</time>
      </trkpt>
      <trkpt lat="35.857739040" lon="-106.502456890">
        <ele>2592.800</ele>
        <time>2019-07-14T23:17:39Z</time>
      </trkpt>
      <trkpt lat="35.857736150" lon="-106.502351160">
        <ele>2593.000</ele>
        <time>2019-07-14T23:17:40Z</time>
      </trkpt>
      <trkpt lat="35.857733780" lon="-106.502242930">
        <ele>2592.800</ele>
        <time>2019-07-14T23:17:41Z</time>
      </trkpt>
      <trkpt lat="35.857733400" lon="-106.502132190">
        <ele>2592.600</ele>
        <time>2019-07-14T23:17:42Z</time>
      </trkpt>
      <trkpt lat="35.857724600" lon="-106.502020020">
        <ele>2591.700</ele>
        <time>2019-07-14T23:17:43Z</time>
      </trkpt>
      <trkpt lat="35.857720160" lon="-106.501901870">
        <ele>2591.600</ele>
        <time>2019-07-14T23:17:44Z</time>
      </trkpt>
      <trkpt lat="35.857715780" lon="-106.501792400">
        <ele>2591.400</ele>
        <time>2019-07-14T23:17:45Z</time>
      </trkpt>
      <trkpt lat="35.857709330" lon="-106.501678420">
        <ele>2591.600</ele>
        <time>2019-07-14T23:17:46Z</time>
      </trkpt>
      <trkpt lat="35.857701500" lon="-106.501566790">
        <ele>2591.100</ele>
        <time>2019-07-14T23:17:47Z</time>
      </trkpt>
      <trkpt lat="35.857694460" lon="-106.501449340">
        <ele>2591.200</ele>
        <time>2019-07-14T23:17:48Z</time>
      </trkpt>
      <trkpt lat="35.857688080" lon="-106.501339880">
        <ele>2591.900</ele>
        <time>2019-07-14T23:17:49Z</time>
      </trkpt>
      <trkpt lat="35.857685090" lon="-106.501227530">
        <ele>2592.700</ele>
        <time>2019-07-14T23:17:50Z</time>
      </trkpt>
      <trkpt lat="35.857685890" lon="-106.501124080">
        <ele>2592.100</ele>
        <time>2019-07-14T23:17:51Z</time>
      </trkpt>
      <trkpt lat="35.857683970" lon="-106.501016070">
        <ele>2591.400</ele>
        <time>2019-07-14T23:17:52Z</time>
      </trkpt>
      <trkpt lat="35.857681890" lon="-106.500906120">
        <ele>2591.500</ele>
        <time>2019-07-14T23:17:53Z</time>
      </trkpt>
      <trkpt lat="35.857680210" lon="-106.500794560">
        <ele>2591.600</ele>
        <time>2019-07-14T23:17:54Z</time>
      </trkpt>
      <trkpt lat="35.857679430" lon="-106.500683260">
        <ele>2591.800</ele>
        <time>2019-07-14T23:17:55Z</time>
      </trkpt>
      <trkpt lat="35.857680220" lon="-106.500569720">
        <ele>2592.600</ele>
        <time>2019-07-14T23:17:56Z</time>
      </trkpt>
      <trkpt lat="35.857677600" lon="-106.500461040">
        <ele>2592.700</ele>
        <time>2019-07-14T23:17:57Z</time>
      </trkpt>
      <trkpt lat="35.857678690" lon="-106.500360280">
        <ele>2593.300</ele>
        <time>2019-07-14T23:17:58Z</time>
      </trkpt>
      <trkpt lat="35.857681300" lon="-106.500253200">
        <ele>2593.200</ele>
        <time>2019-07-14T23:17:59Z</time>
      </trkpt>
      <trkpt lat="35.857686080" lon="-106.500149900">
        <ele>2592.300</ele>
        <time>2019-07-14T23:18:00Z</time>
      </trkpt>
      <trkpt lat="35.857682460" lon="-106.500043080">
        <ele>2591.100</ele>
        <time>2019-07-14T23:18:01Z</time>
      </trkpt>
      <trkpt lat="35.857681020" lon="-106.499947560">
        <ele>2590.800</ele>
        <time>2019-07-14T23:18:02Z</time>
      </trkpt>
      <trkpt lat="35.857683930" lon="-106.499844770">
        <ele>2590.700</ele>
        <time>2019-07-14T23:18:03Z</time>
      </trkpt>
      <trkpt lat="35.857683690" lon="-106.499738310">
        <ele>2589.500</ele>
        <time>2019-07-14T23:18:04Z</time>
      </trkpt>
      <trkpt lat="35.857692230" lon="-106.499637250">
        <ele>2588.800</ele>
        <time>2019-07-14T23:18:05Z</time>
      </trkpt>
      <trkpt lat="35.857701890" lon="-106.499534290">
        <ele>2588.700</ele>
        <time>2019-07-14T23:18:06Z</time>
      </trkpt>
      <trkpt lat="35.857707460" lon="-106.499426540">
        <ele>2588.000</ele>
        <time>2019-07-14T23:18:07Z</time>
      </trkpt>
      <trkpt lat="35.857715190" lon="-106.499315400">
        <ele>2587.800</ele>
        <time>2019-07-14T23:18:08Z</time>
      </trkpt>
      <trkpt lat="35.857724940" lon="-106.499204590">
        <ele>2587.100</ele>
        <time>2019-07-14T23:18:09Z</time>
      </trkpt>
      <trkpt lat="35.857730540" lon="-106.499091730">
        <ele>2587.300</ele>
        <time>2019-07-14T23:18:10Z</time>
      </trkpt>
      <trkpt lat="35.857730000" lon="-106.498973790">
        <ele>2586.300</ele>
        <time>2019-07-14T23:18:11Z</time>
      </trkpt>
      <trkpt lat="35.857739700" lon="-106.498854210">
        <ele>2586.800</ele>
        <time>2019-07-14T23:18:12Z</time>
      </trkpt>
      <trkpt lat="35.857740410" lon="-106.498737430">
        <ele>2585.500</ele>
        <time>2019-07-14T23:18:13Z</time>
      </trkpt>
      <trkpt lat="35.857745860" lon="-106.498609440">
        <ele>2585.200</ele>
        <time>2019-07-14T23:18:14Z</time>
      </trkpt>
      <trkpt lat="35.857744990" lon="-106.498489550">
        <ele>2585.100</ele>
        <time>2019-07-14T23:18:15Z</time>
      </trkpt>
      <trkpt lat="35.857745540" lon="-106.498368970">
        <ele>2585.100</ele>
        <time>2019-07-14T23:18:16Z</time>
      </trkpt>
      <trkpt lat="35.857745610" lon="-106.498245620">
        <ele>2585.800</ele>
        <time>2019-07-14T23:18:17Z</time>
      </trkpt>
      <trkpt lat="35.857745370" lon="-106.498127940">
        <ele>2585.800</ele>
        <time>2019-07-14T23:18:18Z</time>
      </trkpt>
      <trkpt lat="35.857744990" lon="-106.498004310">
        <ele>2586.200</ele>
        <time>2019-07-14T23:18:19Z</time>
      </trkpt>
      <trkpt lat="35.857740710" lon="-106.497882360">
        <ele>2586.000</ele>
        <time>2019-07-14T23:18:20Z</time>
      </trkpt>
      <trkpt lat="35.857735700" lon="-106.497766240">
        <ele>2585.800</ele>
        <time>2019-07-14T23:18:21Z</time>
      </trkpt>
      <trkpt lat="35.857734280" lon="-106.497646350">
        <ele>2585.700</ele>
        <time>2019-07-14T23:18:22Z</time>
      </trkpt>
      <trkpt lat="35.857729970" lon="-106.497534540">
        <ele>2586.000</ele>
        <time>2019-07-14T23:18:23Z</time>
      </trkpt>
      <trkpt lat="35.857729660" lon="-106.497424380">
        <ele>2585.900</ele>
        <time>2019-07-14T23:18:24Z</time>
      </trkpt>
      <trkpt lat="35.857723050" lon="-106.497315310">
        <ele>2585.300</ele>
        <time>2019-07-14T23:18:25Z</time>
      </trkpt>
      <trkpt lat="35.857722520" lon="-106.497203910">
        <ele>2584.600</ele>
        <time>2019-07-14T23:18:26Z</time>
      </trkpt>
      <trkpt lat="35.857718850" lon="-106.497091400">
        <ele>2584.000</ele>
        <time>2019-07-14T23:18:27Z</time>
      </trkpt>
      <trkpt lat="35.857710480" lon="-106.496973830">
        <ele>2583.800</ele>
        <time>2019-07-14T23:18:28Z</time>
      </trkpt>
      <trkpt lat="35.857706410" lon="-106.496855560">
        <ele>2584.000</ele>
        <time>2019-07-14T23:18:29Z</time>
      </trkpt>
      <trkpt lat="35.857701450" lon="-106.496739620">
        <ele>2583.700</ele>
        <time>2019-07-14T23:18:30Z</time>
      </trkpt>
      <trkpt lat="35.857700120" lon="-106.496621440">
        <ele>2583.600</ele>
        <time>2019-07-14T23:18:31Z</time>
      </trkpt>
      <trkpt lat="35.857694580" lon="-106.496506350">
        <ele>2583.900</ele>
        <time>2019-07-14T23:18:32Z</time>
      </trkpt>
      <trkpt lat="35.857689000" lon="-106.496395690">
        <ele>2583.600</ele>
        <time>2019-07-14T23:18:33Z</time>
      </trkpt>
      <trkpt lat="35.857685510" lon="-106.496283490">
        <ele>2582.900</ele>
        <time>2019-07-14T23:18:34Z</time>
      </trkpt>
      <trkpt lat="35.857677220" lon="-106.496182210">
        <ele>2581.900</ele>
        <time>2019-07-14T23:18:35Z</time>
      </trkpt>
      <trkpt lat="35.857673900" lon="-106.496074260">
        <ele>2581.400</ele>
        <time>2019-07-14T23:18:36Z</time>
      </trkpt>
      <trkpt lat="35.857672030" lon="-106.495968520">
        <ele>2581.500</ele>
        <time>2019-07-14T23:18:37Z</time>
      </trkpt>
      <trkpt lat="35.857669930" lon="-106.495862780">
        <ele>2582.200</ele>
        <time>2019-07-14T23:18:38Z</time>
      </trkpt>
      <trkpt lat="35.857663310" lon="-106.495756340">
        <ele>2581.500</ele>
        <time>2019-07-14T23:18:39Z</time>
      </trkpt>
      <trkpt lat="35.857658750" lon="-106.495646360">
        <ele>2581.600</ele>
        <time>2019-07-14T23:18:40Z</time>
      </trkpt>
      <trkpt lat="35.857657410" lon="-106.495542950">
        <ele>2582.900</ele>
        <time>2019-07-14T23:18:41Z</time>
      </trkpt>
      <trkpt lat="35.857653200" lon="-106.495441260">
        <ele>2583.900</ele>
        <time>2019-07-14T23:18:42Z</time>
      </trkpt>
      <trkpt lat="35.857640210" lon="-106.495348300">
        <ele>2580.500</ele>
        <time>2019-07-14T23:18:43Z</time>
      </trkpt>
      <trkpt lat="35.857636520" lon="-106.495257730">
        <ele>2580.300</ele>
        <time>2019-07-14T23:18:44Z</time>
      </trkpt>
      <trkpt lat="35.857628900" lon="-106.495162920">
        <ele>2580.400</ele>
        <time>2019-07-14T23:18:45Z</time>
      </trkpt>
      <trkpt lat="35.857619880" lon="-106.495065800">
        <ele>2581.200</ele>
        <time>2019-07-14T23:18:46Z</time>
      </trkpt>
      <trkpt lat="35.857610130" lon="-106.494970510">
        <ele>2581.800</ele>
        <time>2019-07-14T23:18:47Z</time>
      </trkpt>
      <trkpt lat="35.857599080" lon="-106.494875260">
        <ele>2581.800</ele>
        <time>2019-07-14T23:18:48Z</time>
      </trkpt>
      <trkpt lat="35.857590720" lon="-106.494780540">
        <ele>2582.200</ele>
        <time>2019-07-14T23:18:49Z</time>
      </trkpt>
      <trkpt lat="35.857578050" lon="-106.494688090">
        <ele>2581.900</ele>
        <time>2019-07-14T23:18:50Z</time>
      </trkpt>
      <trkpt lat="35.857566550" lon="-106.494598910">
        <ele>2581.900</ele>
        <time>2019-07-14T23:18:51Z</time>
      </trkpt>
      <trkpt lat="35.857553350" lon="-106.494509670">
        <ele>2581.800</ele>
        <time>2019-07-14T23:18:52Z</time>
      </trkpt>
      <trkpt lat="35.857540890" lon="-106.494421060">
        <ele>2581.900</ele>
        <time>2019-07-14T23:18:53Z</time>
      </trkpt>
      <trkpt lat="35.857522530" lon="-106.494339200">
        <ele>2582.000</ele>
        <time>2019-07-14T23:18:54Z</time>
      </trkpt>
      <trkpt lat="35.857506430" lon="-106.494269160">
        <ele>2581.300</ele>
        <time>2019-07-14T23:18:55Z</time>
      </trkpt>
      <trkpt lat="35.857491080" lon="-106.494201650">
        <ele>2581.800</ele>
        <time>2019-07-14T23:18:56Z</time>
      </trkpt>
      <trkpt lat="35.857472040" lon="-106.494141360">
        <ele>2581.800</ele>
        <time>2019-07-14T23:18:57Z</time>
      </trkpt>
      <trkpt lat="35.857457780" lon="-106.494091940">
        <ele>2581.800</ele>
        <time>2019-07-14T23:18:58Z</time>
      </trkpt>
      <trkpt lat="35.857438840" lon="-106.494029490">
        <ele>2582.000</ele>
        <time>2019-07-14T23:19:00Z</time>
      </trkpt>
      <trkpt lat="35.857419560" lon="-106.493969300">
        <ele>2583.200</ele>
        <time>2019-07-14T23:19:15Z</time>
      </trkpt>
      <trkpt lat="35.857402360" lon="-106.493890110">
        <ele>2583.100</ele>
        <time>2019-07-14T23:19:17Z</time>
      </trkpt>
      <trkpt lat="35.857392600" lon="-106.493842130">
        <ele>2583.100</ele>
        <time>2019-07-14T23:19:18Z</time>
      </trkpt>
      <trkpt lat="35.857379070" lon="-106.493785990">
        <ele>2583.200</ele>
        <time>2019-07-14T23:19:19Z</time>
      </trkpt>
      <trkpt lat="35.857362590" lon="-106.493729760">
        <ele>2583.500</ele>
        <time>2019-07-14T23:19:20Z</time>
      </trkpt>
      <trkpt lat="35.857344700" lon="-106.493669830">
        <ele>2583.100</ele>
        <time>2019-07-14T23:19:21Z</time>
      </trkpt>
      <trkpt lat="35.857330550" lon="-106.493610560">
        <ele>2582.100</ele>
        <time>2019-07-14T23:19:22Z</time>
      </trkpt>
      <trkpt lat="35.857310720" lon="-106.493545770">
        <ele>2582.300</ele>
        <time>2019-07-14T23:19:23Z</time>
      </trkpt>
      <trkpt lat="35.857290850" lon="-106.493481460">
        <ele>2582.600</ele>
        <time>2019-07-14T23:19:24Z</time>
      </trkpt>
      <trkpt lat="35.857269990" lon="-106.493413910">
        <ele>2582.700</ele>
        <time>2019-07-14T23:19:25Z</time>
      </trkpt>
      <trkpt lat="35.857249820" lon="-106.493339780">
        <ele>2582.300</ele>
        <time>2019-07-14T23:19:26Z</time>
      </trkpt>
      <trkpt lat="35.857228220" lon="-106.493265800">
        <ele>2582.500</ele>
        <time>2019-07-14T23:19:27Z</time>
      </trkpt>
      <trkpt lat="35.857202450" lon="-106.493190140">
        <ele>2582.500</ele>
        <time>2019-07-14T23:19:28Z</time>
      </trkpt>
      <trkpt lat="35.857180730" lon="-106.493113680">
        <ele>2582.400</ele>
        <time>2019-07-14T23:19:29Z</time>
      </trkpt>
      <trkpt lat="35.857157210" lon="-106.493036510">
        <ele>2582.500</ele>
        <time>2019-07-14T23:19:30Z</time>
      </trkpt>
      <trkpt lat="35.857135060" lon="-106.492951840">
        <ele>2583.200</ele>
        <time>2019-07-14T23:19:31Z</time>
      </trkpt>
      <trkpt lat="35.857113150" lon="-106.492876140">
        <ele>2583.300</ele>
        <time>2019-07-14T23:19:32Z</time>
      </trkpt>
      <trkpt lat="35.857091040" lon="-106.492798810">
        <ele>2582.600</ele>
        <time>2019-07-14T23:19:33Z</time>
      </trkpt>
      <trkpt lat="35.857061650" lon="-106.492724220">
        <ele>2582.500</ele>
        <time>2019-07-14T23:19:34Z</time>
      </trkpt>
      <trkpt lat="35.857039520" lon="-106.492647800">
        <ele>2582.700</ele>
        <time>2019-07-14T23:19:35Z</time>
      </trkpt>
      <trkpt lat="35.857016020" lon="-106.492584900">
        <ele>2582.200</ele>
        <time>2019-07-14T23:19:36Z</time>
      </trkpt>
      <trkpt lat="35.856998640" lon="-106.492510440">
        <ele>2582.300</ele>
        <time>2019-07-14T23:19:37Z</time>
      </trkpt>
      <trkpt lat="35.856978790" lon="-106.492441930">
        <ele>2581.800</ele>
        <time>2019-07-14T23:19:38Z</time>
      </trkpt>
      <trkpt lat="35.856953280" lon="-106.492364180">
        <ele>2583.000</ele>
        <time>2019-07-14T23:19:39Z</time>
      </trkpt>
      <trkpt lat="35.856931470" lon="-106.492281750">
        <ele>2582.600</ele>
        <time>2019-07-14T23:19:40Z</time>
      </trkpt>
      <trkpt lat="35.856908160" lon="-106.492200230">
        <ele>2582.800</ele>
        <time>2019-07-14T23:19:41Z</time>
      </trkpt>
      <trkpt lat="35.856877050" lon="-106.492124920">
        <ele>2582.600</ele>
        <time>2019-07-14T23:19:42Z</time>
      </trkpt>
      <trkpt lat="35.856860380" lon="-106.492045920">
        <ele>2583.300</ele>
        <time>2019-07-14T23:19:43Z</time>
      </trkpt>
      <trkpt lat="35.856839520" lon="-106.491969250">
        <ele>2583.700</ele>
        <time>2019-07-14T23:19:44Z</time>
      </trkpt>
      <trkpt lat="35.856815440" lon="-106.491894810">
        <ele>2583.100</ele>
        <time>2019-07-14T23:19:45Z</time>
      </trkpt>
      <trkpt lat="35.856789350" lon="-106.491814570">
        <ele>2582.800</ele>
        <time>2019-07-14T23:19:46Z</time>
      </trkpt>
      <trkpt lat="35.856765940" lon="-106.491736190">
        <ele>2583.900</ele>
        <time>2019-07-14T23:19:47Z</time>
      </trkpt>
      <trkpt lat="35.856741340" lon="-106.491662940">
        <ele>2583.500</ele>
        <time>2019-07-14T23:19:48Z</time>
      </trkpt>
      <trkpt lat="35.856715980" lon="-106.491595470">
        <ele>2582.500</ele>
        <time>2019-07-14T23:19:49Z</time>
      </trkpt>
      <trkpt lat="35.856691170" lon="-106.491514460">
        <ele>2584.000</ele>
        <time>2019-07-14T23:19:50Z</time>
      </trkpt>
      <trkpt lat="35.856662930" lon="-106.491451730">
        <ele>2583.400</ele>
        <time>2019-07-14T23:19:51Z</time>
      </trkpt>
      <trkpt lat="35.856645360" lon="-106.491379180">
        <ele>2583.600</ele>
        <time>2019-07-14T23:19:52Z</time>
      </trkpt>
      <trkpt lat="35.856618790" lon="-106.491315080">
        <ele>2583.300</ele>
        <time>2019-07-14T23:19:53Z</time>
      </trkpt>
      <trkpt lat="35.856605660" lon="-106.491260380">
        <ele>2583.700</ele>
        <time>2019-07-14T23:19:54Z</time>
      </trkpt>
      <trkpt lat="35.856589560" lon="-106.491212340">
        <ele>2583.900</ele>
        <time>2019-07-14T23:19:55Z</time>
      </trkpt>
      <trkpt lat="35.856581970" lon="-106.491157880">
        <ele>2584.800</ele>
        <time>2019-07-14T23:19:56Z</time>
      </trkpt>
      <trkpt lat="35.856564890" lon="-106.491115150">
        <ele>2584.700</ele>
        <time>2019-07-14T23:19:57Z</time>
      </trkpt>
      <trkpt lat="35.856550800" lon="-106.491069780">
        <ele>2586.000</ele>
        <time>2019-07-14T23:19:58Z</time>
      </trkpt>
      <trkpt lat="35.856534870" lon="-106.491028290">
        <ele>2584.900</ele>
        <time>2019-07-14T23:19:59Z</time>
      </trkpt>
      <trkpt lat="35.856517900" lon="-106.490988730">
        <ele>2585.200</ele>
        <time>2019-07-14T23:20:00Z</time>
      </trkpt>
      <trkpt lat="35.856514080" lon="-106.490941000">
        <ele>2585.500</ele>
        <time>2019-07-14T23:20:01Z</time>
      </trkpt>
      <trkpt lat="35.856552960" lon="-106.490865400">
        <ele>2585.200</ele>
        <time>2019-07-14T23:20:03Z</time>
      </trkpt>
      <trkpt lat="35.856617040" lon="-106.490821260">
        <ele>2584.900</ele>
        <time>2019-07-14T23:20:05Z</time>
      </trkpt>
      <trkpt lat="35.856655020" lon="-106.490804820">
        <ele>2584.400</ele>
        <time>2019-07-14T23:20:06Z</time>
      </trkpt>
      <trkpt lat="35.856693470" lon="-106.490786800">
        <ele>2585.300</ele>
        <time>2019-07-14T23:20:07Z</time>
      </trkpt>
      <trkpt lat="35.856732700" lon="-106.490767870">
        <ele>2585.100</ele>
        <time>2019-07-14T23:20:08Z</time>
      </trkpt>
      <trkpt lat="35.856774960" lon="-106.490752490">
        <ele>2586.000</ele>
        <time>2019-07-14T23:20:09Z</time>
      </trkpt>
      <trkpt lat="35.856816280" lon="-106.490744080">
        <ele>2585.300</ele>
        <time>2019-07-14T23:20:10Z</time>
      </trkpt>
      <trkpt lat="35.856885900" lon="-106.490759590">
        <ele>2583.900</ele>
        <time>2019-07-14T23:20:12Z</time>
      </trkpt>
      <trkpt lat="35.856922460" lon="-106.490789960">
        <ele>2583.700</ele>
        <time>2019-07-14T23:20:13Z</time>
      </trkpt>
      <trkpt lat="35.856950190" lon="-106.490829070">
        <ele>2583.800</ele>
        <time>2019-07-14T23:20:14Z</time>
      </trkpt>
      <trkpt lat="35.856967000" lon="-106.490876410">
        <ele>2583.800</ele>
        <time>2019-07-14T23:20:15Z</time>
      </trkpt>
      <trkpt lat="35.856967980" lon="-106.490932380">
        <ele>2583.900</ele>
        <time>2019-07-14T23:20:16Z</time>
      </trkpt>
      <trkpt lat="35.856953180" lon="-106.490982530">
        <ele>2584.100</ele>
        <time>2019-07-14T23:20:17Z</time>
      </trkpt>
      <trkpt lat="35.856911290" lon="-106.491024270">
        <ele>2582.900</ele>
        <time>2019-07-14T23:20:19Z</time>
      </trkpt>
      <trkpt lat="35.856873210" lon="-106.491020150">
        <ele>2582.700</ele>
        <time>2019-07-14T23:20:24Z</time>
      </trkpt>
      <trkpt lat="35.856842450" lon="-106.490994170">
        <ele>2578.700</ele>
        <time>2019-07-14T23:20:41Z</time>
      </trkpt>
      <trkpt lat="35.856838190" lon="-106.491041280">
        <ele>2578.500</ele>
        <time>2019-07-14T23:25:37Z</time>
      </trkpt>
      <trkpt lat="35.856794000" lon="-106.491045310">
        <ele>2578.500</ele>
        <time>2019-07-14T23:25:41Z</time>
      </trkpt>
      <trkpt lat="35.856760480" lon="-106.491021290">
        <ele>2579.200</ele>
        <time>2019-07-14T23:25:44Z</time>
      </trkpt>
      <trkpt lat="35.856717450" lon="-106.490997690">
        <ele>2578.200</ele>
        <time>2019-07-14T23:25:47Z</time>
      </trkpt>
      <trkpt lat="35.856688300" lon="-106.490957730">
        <ele>2577.800</ele>
        <time>2019-07-14T23:25:52Z</time>
      </trkpt>
      <trkpt lat="35.856659300" lon="-106.490924620">
        <ele>2578.300</ele>
        <time>2019-07-14T23:25:54Z</time>
      </trkpt>
      <trkpt lat="35.856620100" lon="-106.490895100">
        <ele>2578.100</ele>
        <time>2019-07-14T23:25:56Z</time>
      </trkpt>
      <trkpt lat="35.856571420" lon="-106.490873490">
        <ele>2577.600</ele>
        <time>2019-07-14T23:25:58Z</time>
      </trkpt>
      <trkpt lat="35.856522560" lon="-106.490854430">
        <ele>2578.400</ele>
        <time>2019-07-14T23:26:00Z</time>
      </trkpt>
      <trkpt lat="35.856472970" lon="-106.490830020">
        <ele>2577.000</ele>
        <time>2019-07-14T23:26:02Z</time>
      </trkpt>
      <trkpt lat="35.856421140" lon="-106.490790790">
        <ele>2577.300</ele>
        <time>2019-07-14T23:26:04Z</time>
      </trkpt>
      <trkpt lat="35.856381790" lon="-106.490739890">
        <ele>2578.300</ele>
        <time>2019-07-14T23:26:06Z</time>
      </trkpt>
      <trkpt lat="35.856354900" lon="-106.490682290">
        <ele>2578.300</ele>
        <time>2019-07-14T23:26:08Z</time>
      </trkpt>
      <trkpt lat="35.856331810" lon="-106.490628470">
        <ele>2578.400</ele>
        <time>2019-07-14T23:26:10Z</time>
      </trkpt>
      <trkpt lat="35.856309390" lon="-106.490574560">
        <ele>2578.000</ele>
        <time>2019-07-14T23:26:12Z</time>
      </trkpt>
      <trkpt lat="35.856287150" lon="-106.490520060">
        <ele>2577.300</ele>
        <time>2019-07-14T23:26:14Z</time>
      </trkpt>
      <trkpt lat="35.856261640" lon="-106.490467500">
        <ele>2578.300</ele>
        <time>2019-07-14T23:26:16Z</time>
      </trkpt>
      <trkpt lat="35.856223790" lon="-106.490424860">
        <ele>2578.400</ele>
        <time>2019-07-14T23:26:18Z</time>
      </trkpt>
      <trkpt lat="35.856177900" lon="-106.490403240">
        <ele>2578.700</ele>
        <time>2019-07-14T23:26:20Z</time>
      </trkpt>
      <trkpt lat="35.856126020" lon="-106.490394740">
        <ele>2578.500</ele>
        <time>2019-07-14T23:26:22Z</time>
      </trkpt>
      <trkpt lat="35.856072210" lon="-106.490399570">
        <ele>2578.200</ele>
        <time>2019-07-14T23:26:24Z</time>
      </trkpt>
      <trkpt lat="35.856025450" lon="-106.490413460">
        <ele>2577.400</ele>
        <time>2019-07-14T23:26:26Z</time>
      </trkpt>
      <trkpt lat="35.855977250" lon="-106.490433050">
        <ele>2577.400</ele>
        <time>2019-07-14T23:26:28Z</time>
      </trkpt>
      <trkpt lat="35.855930070" lon="-106.490455160">
        <ele>2578.400</ele>
        <time>2019-07-14T23:26:31Z</time>
      </trkpt>
      <trkpt lat="35.855894180" lon="-106.490474070">
        <ele>2576.900</ele>
        <time>2019-07-14T23:26:33Z</time>
      </trkpt>
      <trkpt lat="35.855847270" lon="-106.490491650">
        <ele>2577.100</ele>
        <time>2019-07-14T23:26:35Z</time>
      </trkpt>
      <trkpt lat="35.855798390" lon="-106.490511840">
        <ele>2577.500</ele>
        <time>2019-07-14T23:26:37Z</time>
      </trkpt>
      <trkpt lat="35.855751360" lon="-106.490530980">
        <ele>2578.600</ele>
        <time>2019-07-14T23:26:39Z</time>
      </trkpt>
      <trkpt lat="35.855701960" lon="-106.490552950">
        <ele>2579.300</ele>
        <time>2019-07-14T23:26:41Z</time>
      </trkpt>
      <trkpt lat="35.855650020" lon="-106.490575330">
        <ele>2579.100</ele>
        <time>2019-07-14T23:26:43Z</time>
      </trkpt>
      <trkpt lat="35.855591420" lon="-106.490598320">
        <ele>2579.600</ele>
        <time>2019-07-14T23:26:45Z</time>
      </trkpt>
      <trkpt lat="35.855530660" lon="-106.490623060">
        <ele>2580.600</ele>
        <time>2019-07-14T23:26:47Z</time>
      </trkpt>
      <trkpt lat="35.855467320" lon="-106.490647570">
        <ele>2580.700</ele>
        <time>2019-07-14T23:26:49Z</time>
      </trkpt>
      <trkpt lat="35.855407910" lon="-106.490671210">
        <ele>2581.100</ele>
        <time>2019-07-14T23:26:51Z</time>
      </trkpt>
      <trkpt lat="35.855353460" lon="-106.490693360">
        <ele>2581.300</ele>
        <time>2019-07-14T23:26:53Z</time>
      </trkpt>
      <trkpt lat="35.855294810" lon="-106.490713370">
        <ele>2579.500</ele>
        <time>2019-07-14T23:26:55Z</time>
      </trkpt>
      <trkpt lat="35.855233870" lon="-106.490731420">
        <ele>2579.100</ele>
        <time>2019-07-14T23:26:57Z</time>
      </trkpt>
      <trkpt lat="35.855164750" lon="-106.490751460">
        <ele>2577.300</ele>
        <time>2019-07-14T23:26:59Z</time>
      </trkpt>
      <trkpt lat="35.855125940" lon="-106.490762110">
        <ele>2577.500</ele>
        <time>2019-07-14T23:27:00Z</time>
      </trkpt>
      <trkpt lat="35.855086030" lon="-106.490772690">
        <ele>2577.300</ele>
        <time>2019-07-14T23:27:01Z</time>
      </trkpt>
      <trkpt lat="35.855044500" lon="-106.490784200">
        <ele>2577.600</ele>
        <time>2019-07-14T23:27:02Z</time>
      </trkpt>
      <trkpt lat="35.855003820" lon="-106.490794550">
        <ele>2578.000</ele>
        <time>2019-07-14T23:27:03Z</time>
      </trkpt>
      <trkpt lat="35.854964190" lon="-106.490803580">
        <ele>2578.400</ele>
        <time>2019-07-14T23:27:04Z</time>
      </trkpt>
      <trkpt lat="35.854924780" lon="-106.490810890">
        <ele>2577.900</ele>
        <time>2019-07-14T23:27:05Z</time>
      </trkpt>
      <trkpt lat="35.854885400" lon="-106.490818290">
        <ele>2578.000</ele>
        <time>2019-07-14T23:27:06Z</time>
      </trkpt>
      <trkpt lat="35.854845830" lon="-106.490825500">
        <ele>2577.300</ele>
        <time>2019-07-14T23:27:07Z</time>
      </trkpt>
      <trkpt lat="35.854806680" lon="-106.490833000">
        <ele>2577.000</ele>
        <time>2019-07-14T23:27:08Z</time>
      </trkpt>
      <trkpt lat="35.854769350" lon="-106.490840650">
        <ele>2577.100</ele>
        <time>2019-07-14T23:27:09Z</time>
      </trkpt>
      <trkpt lat="35.854731810" lon="-106.490848010">
        <ele>2576.500</ele>
        <time>2019-07-14T23:27:10Z</time>
      </trkpt>
      <trkpt lat="35.854694670" lon="-106.490854400">
        <ele>2576.200</ele>
        <time>2019-07-14T23:27:11Z</time>
      </trkpt>
      <trkpt lat="35.854626370" lon="-106.490864280">
        <ele>2577.300</ele>
        <time>2019-07-14T23:27:13Z</time>
      </trkpt>
      <trkpt lat="35.854557830" lon="-106.490874670">
        <ele>2577.100</ele>
        <time>2019-07-14T23:27:15Z</time>
      </trkpt>
      <trkpt lat="35.854491270" lon="-106.490884750">
        <ele>2577.600</ele>
        <time>2019-07-14T23:27:17Z</time>
      </trkpt>
      <trkpt lat="35.854419990" lon="-106.490895440">
        <ele>2577.700</ele>
        <time>2019-07-14T23:27:19Z</time>
      </trkpt>
      <trkpt lat="35.854381350" lon="-106.490899780">
        <ele>2578.100</ele>
        <time>2019-07-14T23:27:20Z</time>
      </trkpt>
      <trkpt lat="35.854342790" lon="-106.490902800">
        <ele>2578.600</ele>
        <time>2019-07-14T23:27:21Z</time>
      </trkpt>
      <trkpt lat="35.854300280" lon="-106.490906340">
        <ele>2578.300</ele>
        <time>2019-07-14T23:27:22Z</time>
      </trkpt>
      <trkpt lat="35.854253340" lon="-106.490913560">
        <ele>2578.200</ele>
        <time>2019-07-14T23:27:23Z</time>
      </trkpt>
      <trkpt lat="35.854208150" lon="-106.490918650">
        <ele>2578.300</ele>
        <time>2019-07-14T23:27:24Z</time>
      </trkpt>
      <trkpt lat="35.854165640" lon="-106.490922070">
        <ele>2578.600</ele>
        <time>2019-07-14T23:27:25Z</time>
      </trkpt>
      <trkpt lat="35.854120680" lon="-106.490923550">
        <ele>2578.100</ele>
        <time>2019-07-14T23:27:26Z</time>
      </trkpt>
      <trkpt lat="35.854077510" lon="-106.490923890">
        <ele>2579.000</ele>
        <time>2019-07-14T23:27:27Z</time>
      </trkpt>
      <trkpt lat="35.854038410" lon="-106.490923490">
        <ele>2579.900</ele>
        <time>2019-07-14T23:27:28Z</time>
      </trkpt>
      <trkpt lat="35.853996460" lon="-106.490927270">
        <ele>2579.100</ele>
        <time>2019-07-14T23:27:29Z</time>
      </trkpt>
      <trkpt lat="35.853944680" lon="-106.490925470">
        <ele>2578.900</ele>
        <time>2019-07-14T23:27:30Z</time>
      </trkpt>
      <trkpt lat="35.853900000" lon="-106.490922950">
        <ele>2579.400</ele>
        <time>2019-07-14T23:27:31Z</time>
      </trkpt>
      <trkpt lat="35.853853840" lon="-106.490919810">
        <ele>2579.100</ele>
        <time>2019-07-14T23:27:32Z</time>
      </trkpt>
      <trkpt lat="35.853767720" lon="-106.490924520">
        <ele>2578.900</ele>
        <time>2019-07-14T23:27:34Z</time>
      </trkpt>
      <trkpt lat="35.853712030" lon="-106.490922790">
        <ele>2579.000</ele>
        <time>2019-07-14T23:27:35Z</time>
      </trkpt>
      <trkpt lat="35.853652660" lon="-106.490925290">
        <ele>2578.600</ele>
        <time>2019-07-14T23:27:36Z</time>
      </trkpt>
      <trkpt lat="35.853590570" lon="-106.490924470">
        <ele>2576.900</ele>
        <time>2019-07-14T23:27:37Z</time>
      </trkpt>
      <trkpt lat="35.853526080" lon="-106.490924760">
        <ele>2576.800</ele>
        <time>2019-07-14T23:27:38Z</time>
      </trkpt>
      <trkpt lat="35.853463090" lon="-106.490926900">
        <ele>2576.500</ele>
        <time>2019-07-14T23:27:39Z</time>
      </trkpt>
      <trkpt lat="35.853397020" lon="-106.490925470">
        <ele>2576.100</ele>
        <time>2019-07-14T23:27:40Z</time>
      </trkpt>
      <trkpt lat="35.853331500" lon="-106.490923890">
        <ele>2575.200</ele>
        <time>2019-07-14T23:27:41Z</time>
      </trkpt>
      <trkpt lat="35.853262340" lon="-106.490921050">
        <ele>2575.100</ele>
        <time>2019-07-14T23:27:42Z</time>
      </trkpt>
      <trkpt lat="35.853198430" lon="-106.490922730">
        <ele>2575.400</ele>
        <time>2019-07-14T23:27:43Z</time>
      </trkpt>
      <trkpt lat="35.853132420" lon="-106.490919560">
        <ele>2574.900</ele>
        <time>2019-07-14T23:27:44Z</time>
      </trkpt>
      <trkpt lat="35.853057420" lon="-106.490920110">
        <ele>2573.600</ele>
        <time>2019-07-14T23:27:45Z</time>
      </trkpt>
      <trkpt lat="35.852990160" lon="-106.490918580">
        <ele>2574.200</ele>
        <time>2019-07-14T23:27:46Z</time>
      </trkpt>
      <trkpt lat="35.852934190" lon="-106.490919660">
        <ele>2575.100</ele>
        <time>2019-07-14T23:27:47Z</time>
      </trkpt>
      <trkpt lat="35.852862240" lon="-106.490922020">
        <ele>2576.000</ele>
        <time>2019-07-14T23:27:48Z</time>
      </trkpt>
      <trkpt lat="35.852797750" lon="-106.490917270">
        <ele>2575.500</ele>
        <time>2019-07-14T23:27:49Z</time>
      </trkpt>
      <trkpt lat="35.852732120" lon="-106.490914520">
        <ele>2575.200</ele>
        <time>2019-07-14T23:27:50Z</time>
      </trkpt>
      <trkpt lat="35.852661380" lon="-106.490909470">
        <ele>2574.700</ele>
        <time>2019-07-14T23:27:51Z</time>
      </trkpt>
      <trkpt lat="35.852587170" lon="-106.490904900">
        <ele>2575.100</ele>
        <time>2019-07-14T23:27:52Z</time>
      </trkpt>
      <trkpt lat="35.852516500" lon="-106.490898040">
        <ele>2574.800</ele>
        <time>2019-07-14T23:27:53Z</time>
      </trkpt>
      <trkpt lat="35.852441020" lon="-106.490894980">
        <ele>2575.100</ele>
        <time>2019-07-14T23:27:54Z</time>
      </trkpt>
      <trkpt lat="35.852363900" lon="-106.490894470">
        <ele>2575.500</ele>
        <time>2019-07-14T23:27:55Z</time>
      </trkpt>
      <trkpt lat="35.852288030" lon="-106.490890770">
        <ele>2575.100</ele>
        <time>2019-07-14T23:27:56Z</time>
      </trkpt>
      <trkpt lat="35.852216820" lon="-106.490890480">
        <ele>2575.800</ele>
        <time>2019-07-14T23:27:57Z</time>
      </trkpt>
      <trkpt lat="35.852129870" lon="-106.490881590">
        <ele>2575.100</ele>
        <time>2019-07-14T23:27:58Z</time>
      </trkpt>
      <trkpt lat="35.852061210" lon="-106.490875110">
        <ele>2576.500</ele>
        <time>2019-07-14T23:27:59Z</time>
      </trkpt>
      <trkpt lat="35.851982490" lon="-106.490869490">
        <ele>2576.700</ele>
        <time>2019-07-14T23:28:00Z</time>
      </trkpt>
      <trkpt lat="35.851905380" lon="-106.490861790">
        <ele>2576.700</ele>
        <time>2019-07-14T23:28:01Z</time>
      </trkpt>
      <trkpt lat="35.851825070" lon="-106.490853700">
        <ele>2577.000</ele>
        <time>2019-07-14T23:28:02Z</time>
      </trkpt>
      <trkpt lat="35.851741660" lon="-106.490848730">
        <ele>2576.100</ele>
        <time>2019-07-14T23:28:03Z</time>
      </trkpt>
      <trkpt lat="35.851679510" lon="-106.490842500">
        <ele>2578.300</ele>
        <time>2019-07-14T23:28:04Z</time>
      </trkpt>
      <trkpt lat="35.851597880" lon="-106.490834600">
        <ele>2578.000</ele>
        <time>2019-07-14T23:28:05Z</time>
      </trkpt>
      <trkpt lat="35.851509740" lon="-106.490827520">
        <ele>2576.800</ele>
        <time>2019-07-14T23:28:06Z</time>
      </trkpt>
      <trkpt lat="35.851429260" lon="-106.490820800">
        <ele>2576.600</ele>
        <time>2019-07-14T23:28:07Z</time>
      </trkpt>
      <trkpt lat="35.851347880" lon="-106.490812120">
        <ele>2576.100</ele>
        <time>2019-07-14T23:28:08Z</time>
      </trkpt>
      <trkpt lat="35.851263960" lon="-106.490801710">
        <ele>2575.700</ele>
        <time>2019-07-14T23:28:09Z</time>
      </trkpt>
      <trkpt lat="35.851191120" lon="-106.490801090">
        <ele>2577.500</ele>
        <time>2019-07-14T23:28:10Z</time>
      </trkpt>
      <trkpt lat="35.851120240" lon="-106.490802750">
        <ele>2579.200</ele>
        <time>2019-07-14T23:28:11Z</time>
      </trkpt>
      <trkpt lat="35.851040450" lon="-106.490813630">
        <ele>2579.000</ele>
        <time>2019-07-14T23:28:12Z</time>
      </trkpt>
      <trkpt lat="35.850954640" lon="-106.490832190">
        <ele>2578.200</ele>
        <time>2019-07-14T23:28:13Z</time>
      </trkpt>
      <trkpt lat="35.850862610" lon="-106.490847910">
        <ele>2577.700</ele>
        <time>2019-07-14T23:28:14Z</time>
      </trkpt>
      <trkpt lat="35.850777550" lon="-106.490870970">
        <ele>2576.300</ele>
        <time>2019-07-14T23:28:15Z</time>
      </trkpt>
      <trkpt lat="35.850679020" lon="-106.490886120">
        <ele>2574.200</ele>
        <time>2019-07-14T23:28:16Z</time>
      </trkpt>
      <trkpt lat="35.850594570" lon="-106.490914710">
        <ele>2574.200</ele>
        <time>2019-07-14T23:28:17Z</time>
      </trkpt>
      <trkpt lat="35.850501620" lon="-106.490937600">
        <ele>2573.500</ele>
        <time>2019-07-14T23:28:18Z</time>
      </trkpt>
      <trkpt lat="35.850412440" lon="-106.490965670">
        <ele>2573.500</ele>
        <time>2019-07-14T23:28:19Z</time>
      </trkpt>
      <trkpt lat="35.850327230" lon="-106.490973980">
        <ele>2572.200</ele>
        <time>2019-07-14T23:28:20Z</time>
      </trkpt>
      <trkpt lat="35.850234030" lon="-106.491000400">
        <ele>2571.400</ele>
        <time>2019-07-14T23:28:21Z</time>
      </trkpt>
      <trkpt lat="35.850145800" lon="-106.491020140">
        <ele>2571.400</ele>
        <time>2019-07-14T23:28:22Z</time>
      </trkpt>
      <trkpt lat="35.850054200" lon="-106.491030010">
        <ele>2571.600</ele>
        <time>2019-07-14T23:28:23Z</time>
      </trkpt>
      <trkpt lat="35.849966790" lon="-106.491035060">
        <ele>2571.900</ele>
        <time>2019-07-14T23:28:24Z</time>
      </trkpt>
      <trkpt lat="35.849875030" lon="-106.491038660">
        <ele>2571.900</ele>
        <time>2019-07-14T23:28:25Z</time>
      </trkpt>
      <trkpt lat="35.849787860" lon="-106.491041020">
        <ele>2571.800</ele>
        <time>2019-07-14T23:28:26Z</time>
      </trkpt>
      <trkpt lat="35.849701270" lon="-106.491040880">
        <ele>2571.900</ele>
        <time>2019-07-14T23:28:27Z</time>
      </trkpt>
      <trkpt lat="35.849607860" lon="-106.491035660">
        <ele>2571.800</ele>
        <time>2019-07-14T23:28:28Z</time>
      </trkpt>
      <trkpt lat="35.849516780" lon="-106.491032180">
        <ele>2572.000</ele>
        <time>2019-07-14T23:28:29Z</time>
      </trkpt>
      <trkpt lat="35.849426510" lon="-106.491021620">
        <ele>2571.400</ele>
        <time>2019-07-14T23:28:30Z</time>
      </trkpt>
      <trkpt lat="35.849338220" lon="-106.491013370">
        <ele>2571.400</ele>
        <time>2019-07-14T23:28:31Z</time>
      </trkpt>
      <trkpt lat="35.849251870" lon="-106.490997300">
        <ele>2571.300</ele>
        <time>2019-07-14T23:28:32Z</time>
      </trkpt>
      <trkpt lat="35.849167490" lon="-106.490978180">
        <ele>2571.700</ele>
        <time>2019-07-14T23:28:33Z</time>
      </trkpt>
      <trkpt lat="35.849088300" lon="-106.490954110">
        <ele>2571.800</ele>
        <time>2019-07-14T23:28:34Z</time>
      </trkpt>
      <trkpt lat="35.849009500" lon="-106.490931470">
        <ele>2572.200</ele>
        <time>2019-07-14T23:28:35Z</time>
      </trkpt>
      <trkpt lat="35.848936670" lon="-106.490914450">
        <ele>2572.300</ele>
        <time>2019-07-14T23:28:36Z</time>
      </trkpt>
      <trkpt lat="35.848857960" lon="-106.490888510">
        <ele>2572.000</ele>
        <time>2019-07-14T23:28:37Z</time>
      </trkpt>
      <trkpt lat="35.848780760" lon="-106.490847960">
        <ele>2572.500</ele>
        <time>2019-07-14T23:28:38Z</time>
      </trkpt>
      <trkpt lat="35.848696200" lon="-106.490809360">
        <ele>2571.900</ele>
        <time>2019-07-14T23:28:39Z</time>
      </trkpt>
      <trkpt lat="35.848624380" lon="-106.490774100">
        <ele>2572.200</ele>
        <time>2019-07-14T23:28:40Z</time>
      </trkpt>
      <trkpt lat="35.848571830" lon="-106.490740070">
        <ele>2572.800</ele>
        <time>2019-07-14T23:28:41Z</time>
      </trkpt>
      <trkpt lat="35.848529160" lon="-106.490713500">
        <ele>2572.800</ele>
        <time>2019-07-14T23:28:42Z</time>
      </trkpt>
      <trkpt lat="35.848495290" lon="-106.490689570">
        <ele>2572.700</ele>
        <time>2019-07-14T23:28:43Z</time>
      </trkpt>
      <trkpt lat="35.848444630" lon="-106.490653460">
        <ele>2572.700</ele>
        <time>2019-07-14T23:28:45Z</time>
      </trkpt>
      <trkpt lat="35.848391680" lon="-106.490614050">
        <ele>2572.800</ele>
        <time>2019-07-14T23:28:47Z</time>
      </trkpt>
      <trkpt lat="35.848360040" lon="-106.490592630">
        <ele>2572.100</ele>
        <time>2019-07-14T23:28:48Z</time>
      </trkpt>
      <trkpt lat="35.848292840" lon="-106.490550210">
        <ele>2572.500</ele>
        <time>2019-07-14T23:28:50Z</time>
      </trkpt>
      <trkpt lat="35.848226090" lon="-106.490495520">
        <ele>2573.900</ele>
        <time>2019-07-14T23:28:52Z</time>
      </trkpt>
      <trkpt lat="35.848176180" lon="-106.490463320">
        <ele>2573.000</ele>
        <time>2019-07-14T23:28:53Z</time>
      </trkpt>
      <trkpt lat="35.848124490" lon="-106.490418080">
        <ele>2568.900</ele>
        <time>2019-07-14T23:28:54Z</time>
      </trkpt>
      <trkpt lat="35.848078940" lon="-106.490386960">
        <ele>2569.200</ele>
        <time>2019-07-14T23:28:55Z</time>
      </trkpt>
      <trkpt lat="35.848027520" lon="-106.490347960">
        <ele>2568.600</ele>
        <time>2019-07-14T23:28:56Z</time>
      </trkpt>
      <trkpt lat="35.847976680" lon="-106.490317170">
        <ele>2569.100</ele>
        <time>2019-07-14T23:28:57Z</time>
      </trkpt>
      <trkpt lat="35.847918920" lon="-106.490283210">
        <ele>2569.600</ele>
        <time>2019-07-14T23:28:58Z</time>
      </trkpt>
      <trkpt lat="35.847860000" lon="-106.490241350">
        <ele>2569.500</ele>
        <time>2019-07-14T23:28:59Z</time>
      </trkpt>
      <trkpt lat="35.847803600" lon="-106.490215140">
        <ele>2570.000</ele>
        <time>2019-07-14T23:29:00Z</time>
      </trkpt>
      <trkpt lat="35.847730040" lon="-106.490181050">
        <ele>2569.500</ele>
        <time>2019-07-14T23:29:01Z</time>
      </trkpt>
      <trkpt lat="35.847657070" lon="-106.490155390">
        <ele>2569.500</ele>
        <time>2019-07-14T23:29:02Z</time>
      </trkpt>
      <trkpt lat="35.847580470" lon="-106.490133280">
        <ele>2568.900</ele>
        <time>2019-07-14T23:29:03Z</time>
      </trkpt>
      <trkpt lat="35.847500550" lon="-106.490115460">
        <ele>2569.400</ele>
        <time>2019-07-14T23:29:04Z</time>
      </trkpt>
      <trkpt lat="35.847415620" lon="-106.490112930">
        <ele>2569.400</ele>
        <time>2019-07-14T23:29:05Z</time>
      </trkpt>
      <trkpt lat="35.847340100" lon="-106.490140750">
        <ele>2569.800</ele>
        <time>2019-07-14T23:29:06Z</time>
      </trkpt>
      <trkpt lat="35.847258050" lon="-106.490163750">
        <ele>2569.400</ele>
        <time>2019-07-14T23:29:07Z</time>
      </trkpt>
      <trkpt lat="35.847172580" lon="-106.490195550">
        <ele>2569.500</ele>
        <time>2019-07-14T23:29:08Z</time>
      </trkpt>
      <trkpt lat="35.847087070" lon="-106.490227160">
        <ele>2570.400</ele>
        <time>2019-07-14T23:29:09Z</time>
      </trkpt>
      <trkpt lat="35.847013400" lon="-106.490266790">
        <ele>2571.400</ele>
        <time>2019-07-14T23:29:10Z</time>
      </trkpt>
      <trkpt lat="35.846935040" lon="-106.490301440">
        <ele>2572.500</ele>
        <time>2019-07-14T23:29:11Z</time>
      </trkpt>
      <trkpt lat="35.846852120" lon="-106.490326770">
        <ele>2573.100</ele>
        <time>2019-07-14T23:29:12Z</time>
      </trkpt>
      <trkpt lat="35.846771030" lon="-106.490354890">
        <ele>2573.000</ele>
        <time>2019-07-14T23:29:13Z</time>
      </trkpt>
      <trkpt lat="35.846681020" lon="-106.490387100">
        <ele>2573.400</ele>
        <time>2019-07-14T23:29:14Z</time>
      </trkpt>
      <trkpt lat="35.846596370" lon="-106.490421470">
        <ele>2573.500</ele>
        <time>2019-07-14T23:29:15Z</time>
      </trkpt>
      <trkpt lat="35.846506320" lon="-106.490446440">
        <ele>2572.500</ele>
        <time>2019-07-14T23:29:16Z</time>
      </trkpt>
      <trkpt lat="35.846415740" lon="-106.490470300">
        <ele>2572.100</ele>
        <time>2019-07-14T23:29:17Z</time>
      </trkpt>
      <trkpt lat="35.846326940" lon="-106.490501400">
        <ele>2573.200</ele>
        <time>2019-07-14T23:29:18Z</time>
      </trkpt>
      <trkpt lat="35.846236940" lon="-106.490539690">
        <ele>2572.500</ele>
        <time>2019-07-14T23:29:19Z</time>
      </trkpt>
      <trkpt lat="35.846146540" lon="-106.490579550">
        <ele>2572.700</ele>
        <time>2019-07-14T23:29:20Z</time>
      </trkpt>
      <trkpt lat="35.846059390" lon="-106.490626820">
        <ele>2571.900</ele>
        <time>2019-07-14T23:29:21Z</time>
      </trkpt>
      <trkpt lat="35.845982980" lon="-106.490682080">
        <ele>2572.600</ele>
        <time>2019-07-14T23:29:22Z</time>
      </trkpt>
      <trkpt lat="35.845901830" lon="-106.490739880">
        <ele>2572.300</ele>
        <time>2019-07-14T23:29:23Z</time>
      </trkpt>
      <trkpt lat="35.845834240" lon="-106.490805260">
        <ele>2574.000</ele>
        <time>2019-07-14T23:29:24Z</time>
      </trkpt>
      <trkpt lat="35.845755260" lon="-106.490870050">
        <ele>2573.800</ele>
        <time>2019-07-14T23:29:25Z</time>
      </trkpt>
      <trkpt lat="35.845679750" lon="-106.490935100">
        <ele>2573.900</ele>
        <time>2019-07-14T23:29:26Z</time>
      </trkpt>
      <trkpt lat="35.845596740" lon="-106.491000220">
        <ele>2574.000</ele>
        <time>2019-07-14T23:29:27Z</time>
      </trkpt>
      <trkpt lat="35.845523360" lon="-106.491063450">
        <ele>2574.400</ele>
        <time>2019-07-14T23:29:28Z</time>
      </trkpt>
      <trkpt lat="35.845446320" lon="-106.491127870">
        <ele>2574.600</ele>
        <time>2019-07-14T23:29:29Z</time>
      </trkpt>
      <trkpt lat="35.845361050" lon="-106.491189970">
        <ele>2574.500</ele>
        <time>2019-07-14T23:29:30Z</time>
      </trkpt>
      <trkpt lat="35.845273100" lon="-106.491245330">
        <ele>2572.900</ele>
        <time>2019-07-14T23:29:31Z</time>
      </trkpt>
      <trkpt lat="35.845190690" lon="-106.491305380">
        <ele>2573.300</ele>
        <time>2019-07-14T23:29:32Z</time>
      </trkpt>
      <trkpt lat="35.845103030" lon="-106.491364540">
        <ele>2572.700</ele>
        <time>2019-07-14T23:29:33Z</time>
      </trkpt>
      <trkpt lat="35.845009120" lon="-106.491415330">
        <ele>2573.600</ele>
        <time>2019-07-14T23:29:34Z</time>
      </trkpt>
      <trkpt lat="35.844913700" lon="-106.491457280">
        <ele>2574.500</ele>
        <time>2019-07-14T23:29:35Z</time>
      </trkpt>
      <trkpt lat="35.844820700" lon="-106.491497670">
        <ele>2575.000</ele>
        <time>2019-07-14T23:29:36Z</time>
      </trkpt>
      <trkpt lat="35.844722340" lon="-106.491530610">
        <ele>2574.700</ele>
        <time>2019-07-14T23:29:37Z</time>
      </trkpt>
      <trkpt lat="35.844630400" lon="-106.491564470">
        <ele>2575.400</ele>
        <time>2019-07-14T23:29:38Z</time>
      </trkpt>
      <trkpt lat="35.844531720" lon="-106.491599550">
        <ele>2575.500</ele>
        <time>2019-07-14T23:29:39Z</time>
      </trkpt>
      <trkpt lat="35.844442050" lon="-106.491633350">
        <ele>2575.900</ele>
        <time>2019-07-14T23:29:40Z</time>
      </trkpt>
      <trkpt lat="35.844347470" lon="-106.491665860">
        <ele>2576.400</ele>
        <time>2019-07-14T23:29:41Z</time>
      </trkpt>
      <trkpt lat="35.844249450" lon="-106.491704570">
        <ele>2577.000</ele>
        <time>2019-07-14T23:29:42Z</time>
      </trkpt>
      <trkpt lat="35.844158900" lon="-106.491722090">
        <ele>2571.700</ele>
        <time>2019-07-14T23:29:43Z</time>
      </trkpt>
      <trkpt lat="35.844069970" lon="-106.491752480">
        <ele>2571.500</ele>
        <time>2019-07-14T23:29:44Z</time>
      </trkpt>
      <trkpt lat="35.843974060" lon="-106.491786520">
        <ele>2572.400</ele>
        <time>2019-07-14T23:29:45Z</time>
      </trkpt>
      <trkpt lat="35.843881840" lon="-106.491801150">
        <ele>2573.600</ele>
        <time>2019-07-14T23:29:46Z</time>
      </trkpt>
      <trkpt lat="35.843787080" lon="-106.491811510">
        <ele>2573.800</ele>
        <time>2019-07-14T23:29:47Z</time>
      </trkpt>
      <trkpt lat="35.843698220" lon="-106.491823790">
        <ele>2573.700</ele>
        <time>2019-07-14T23:29:48Z</time>
      </trkpt>
      <trkpt lat="35.843602210" lon="-106.491834290">
        <ele>2573.500</ele>
        <time>2019-07-14T23:29:49Z</time>
      </trkpt>
      <trkpt lat="35.843513870" lon="-106.491851100">
        <ele>2573.700</ele>
        <time>2019-07-14T23:29:50Z</time>
      </trkpt>
      <trkpt lat="35.843412960" lon="-106.491861880">
        <ele>2573.400</ele>
        <time>2019-07-14T23:29:51Z</time>
      </trkpt>
      <trkpt lat="35.843318810" lon="-106.491874380">
        <ele>2573.600</ele>
        <time>2019-07-14T23:29:52Z</time>
      </trkpt>
      <trkpt lat="35.843221580" lon="-106.491889030">
        <ele>2573.800</ele>
        <time>2019-07-14T23:29:53Z</time>
      </trkpt>
      <trkpt lat="35.843125970" lon="-106.491911890">
        <ele>2574.700</ele>
        <time>2019-07-14T23:29:54Z</time>
      </trkpt>
      <trkpt lat="35.843030740" lon="-106.491929770">
        <ele>2575.300</ele>
        <time>2019-07-14T23:29:55Z</time>
      </trkpt>
      <trkpt lat="35.842933800" lon="-106.491964500">
        <ele>2575.600</ele>
        <time>2019-07-14T23:29:56Z</time>
      </trkpt>
      <trkpt lat="35.842839200" lon="-106.492000010">
        <ele>2576.200</ele>
        <time>2019-07-14T23:29:57Z</time>
      </trkpt>
      <trkpt lat="35.842741950" lon="-106.492032220">
        <ele>2575.900</ele>
        <time>2019-07-14T23:29:58Z</time>
      </trkpt>
      <trkpt lat="35.842641580" lon="-106.492074060">
        <ele>2575.600</ele>
        <time>2019-07-14T23:29:59Z</time>
      </trkpt>
      <trkpt lat="35.842537560" lon="-106.492106460">
        <ele>2575.100</ele>
        <time>2019-07-14T23:30:00Z</time>
      </trkpt>
      <trkpt lat="35.842431800" lon="-106.492144960">
        <ele>2575.600</ele>
        <time>2019-07-14T23:30:01Z</time>
      </trkpt>
      <trkpt lat="35.842324610" lon="-106.492180380">
        <ele>2575.800</ele>
        <time>2019-07-14T23:30:02Z</time>
      </trkpt>
      <trkpt lat="35.842218460" lon="-106.492216800">
        <ele>2575.300</ele>
        <time>2019-07-14T23:30:03Z</time>
      </trkpt>
      <trkpt lat="35.842108300" lon="-106.492256440">
        <ele>2575.400</ele>
        <time>2019-07-14T23:30:04Z</time>
      </trkpt>
      <trkpt lat="35.841998430" lon="-106.492295890">
        <ele>2575.400</ele>
        <time>2019-07-14T23:30:05Z</time>
      </trkpt>
      <trkpt lat="35.841887220" lon="-106.492333020">
        <ele>2574.300</ele>
        <time>2019-07-14T23:30:06Z</time>
      </trkpt>
      <trkpt lat="35.841778310" lon="-106.492371420">
        <ele>2573.600</ele>
        <time>2019-07-14T23:30:07Z</time>
      </trkpt>
      <trkpt lat="35.841666540" lon="-106.492420770">
        <ele>2572.900</ele>
        <time>2019-07-14T23:30:08Z</time>
      </trkpt>
      <trkpt lat="35.841565670" lon="-106.492458590">
        <ele>2573.600</ele>
        <time>2019-07-14T23:30:09Z</time>
      </trkpt>
      <trkpt lat="35.841463790" lon="-106.492486850">
        <ele>2573.700</ele>
        <time>2019-07-14T23:30:10Z</time>
      </trkpt>
      <trkpt lat="35.841358770" lon="-106.492501120">
        <ele>2572.800</ele>
        <time>2019-07-14T23:30:11Z</time>
      </trkpt>
      <trkpt lat="35.841260070" lon="-106.492514170">
        <ele>2572.700</ele>
        <time>2019-07-14T23:30:12Z</time>
      </trkpt>
      <trkpt lat="35.841168050" lon="-106.492500060">
        <ele>2572.700</ele>
        <time>2019-07-14T23:30:13Z</time>
      </trkpt>
      <trkpt lat="35.841103790" lon="-106.492485530">
        <ele>2575.300</ele>
        <time>2019-07-14T23:30:14Z</time>
      </trkpt>
      <trkpt lat="35.841040420" lon="-106.492466480">
        <ele>2575.300</ele>
        <time>2019-07-14T23:30:15Z</time>
      </trkpt>
      <trkpt lat="35.841003320" lon="-106.492436270">
        <ele>2577.600</ele>
        <time>2019-07-14T23:30:16Z</time>
      </trkpt>
      <trkpt lat="35.840956110" lon="-106.492410950">
        <ele>2578.500</ele>
        <time>2019-07-14T23:30:17Z</time>
      </trkpt>
      <trkpt lat="35.840915020" lon="-106.492390190">
        <ele>2579.400</ele>
        <time>2019-07-14T23:30:18Z</time>
      </trkpt>
      <trkpt lat="35.840876770" lon="-106.492362950">
        <ele>2579.700</ele>
        <time>2019-07-14T23:30:19Z</time>
      </trkpt>
      <trkpt lat="35.840837880" lon="-106.492337750">
        <ele>2581.500</ele>
        <time>2019-07-14T23:30:20Z</time>
      </trkpt>
      <trkpt lat="35.840792260" lon="-106.492308020">
        <ele>2580.900</ele>
        <time>2019-07-14T23:30:21Z</time>
      </trkpt>
      <trkpt lat="35.840759050" lon="-106.492278920">
        <ele>2582.400</ele>
        <time>2019-07-14T23:30:22Z</time>
      </trkpt>
      <trkpt lat="35.840710000" lon="-106.492244110">
        <ele>2581.800</ele>
        <time>2019-07-14T23:30:23Z</time>
      </trkpt>
      <trkpt lat="35.840656030" lon="-106.492208430">
        <ele>2582.400</ele>
        <time>2019-07-14T23:30:24Z</time>
      </trkpt>
      <trkpt lat="35.840599770" lon="-106.492162030">
        <ele>2582.400</ele>
        <time>2019-07-14T23:30:25Z</time>
      </trkpt>
      <trkpt lat="35.840538370" lon="-106.492108280">
        <ele>2582.600</ele>
        <time>2019-07-14T23:30:26Z</time>
      </trkpt>
      <trkpt lat="35.840470420" lon="-106.492061740">
        <ele>2583.400</ele>
        <time>2019-07-14T23:30:27Z</time>
      </trkpt>
      <trkpt lat="35.840408720" lon="-106.492018280">
        <ele>2584.700</ele>
        <time>2019-07-14T23:30:28Z</time>
      </trkpt>
      <trkpt lat="35.840339300" lon="-106.491976460">
        <ele>2586.300</ele>
        <time>2019-07-14T23:30:29Z</time>
      </trkpt>
      <trkpt lat="35.840264800" lon="-106.491938270">
        <ele>2587.300</ele>
        <time>2019-07-14T23:30:30Z</time>
      </trkpt>
      <trkpt lat="35.840185040" lon="-106.491914400">
        <ele>2587.200</ele>
        <time>2019-07-14T23:30:31Z</time>
      </trkpt>
      <trkpt lat="35.840098040" lon="-106.491890660">
        <ele>2587.200</ele>
        <time>2019-07-14T23:30:32Z</time>
      </trkpt>
      <trkpt lat="35.840008820" lon="-106.491866470">
        <ele>2587.000</ele>
        <time>2019-07-14T23:30:33Z</time>
      </trkpt>
      <trkpt lat="35.839922450" lon="-106.491840760">
        <ele>2587.000</ele>
        <time>2019-07-14T23:30:34Z</time>
      </trkpt>
      <trkpt lat="35.839829180" lon="-106.491826070">
        <ele>2586.200</ele>
        <time>2019-07-14T23:30:35Z</time>
      </trkpt>
      <trkpt lat="35.839735450" lon="-106.491804590">
        <ele>2586.400</ele>
        <time>2019-07-14T23:30:36Z</time>
      </trkpt>
      <trkpt lat="35.839646550" lon="-106.491790820">
        <ele>2586.600</ele>
        <time>2019-07-14T23:30:37Z</time>
      </trkpt>
      <trkpt lat="35.839554670" lon="-106.491786280">
        <ele>2586.800</ele>
        <time>2019-07-14T23:30:38Z</time>
      </trkpt>
      <trkpt lat="35.839461690" lon="-106.491783890">
        <ele>2586.100</ele>
        <time>2019-07-14T23:30:39Z</time>
      </trkpt>
      <trkpt lat="35.839366680" lon="-106.491784370">
        <ele>2585.900</ele>
        <time>2019-07-14T23:30:40Z</time>
      </trkpt>
      <trkpt lat="35.839266200" lon="-106.491796430">
        <ele>2586.200</ele>
        <time>2019-07-14T23:30:41Z</time>
      </trkpt>
      <trkpt lat="35.839171820" lon="-106.491806930">
        <ele>2586.200</ele>
        <time>2019-07-14T23:30:42Z</time>
      </trkpt>
      <trkpt lat="35.839075740" lon="-106.491818550">
        <ele>2586.000</ele>
        <time>2019-07-14T23:30:43Z</time>
      </trkpt>
      <trkpt lat="35.838984110" lon="-106.491828370">
        <ele>2585.700</ele>
        <time>2019-07-14T23:30:44Z</time>
      </trkpt>
      <trkpt lat="35.838896570" lon="-106.491835080">
        <ele>2585.200</ele>
        <time>2019-07-14T23:30:45Z</time>
      </trkpt>
      <trkpt lat="35.838807000" lon="-106.491841580">
        <ele>2586.200</ele>
        <time>2019-07-14T23:30:46Z</time>
      </trkpt>
      <trkpt lat="35.838717700" lon="-106.491855830">
        <ele>2585.300</ele>
        <time>2019-07-14T23:30:47Z</time>
      </trkpt>
      <trkpt lat="35.838628890" lon="-106.491857970">
        <ele>2585.200</ele>
        <time>2019-07-14T23:30:48Z</time>
      </trkpt>
      <trkpt lat="35.838544320" lon="-106.491837660">
        <ele>2585.800</ele>
        <time>2019-07-14T23:30:49Z</time>
      </trkpt>
      <trkpt lat="35.838456370" lon="-106.491815170">
        <ele>2585.300</ele>
        <time>2019-07-14T23:30:50Z</time>
      </trkpt>
      <trkpt lat="35.838361360" lon="-106.491788790">
        <ele>2585.300</ele>
        <time>2019-07-14T23:30:51Z</time>
      </trkpt>
      <trkpt lat="35.838274150" lon="-106.491742590">
        <ele>2585.200</ele>
        <time>2019-07-14T23:30:52Z</time>
      </trkpt>
      <trkpt lat="35.838198340" lon="-106.491705670">
        <ele>2586.800</ele>
        <time>2019-07-14T23:30:53Z</time>
      </trkpt>
      <trkpt lat="35.838118670" lon="-106.491683320">
        <ele>2587.200</ele>
        <time>2019-07-14T23:30:54Z</time>
      </trkpt>
      <trkpt lat="35.838033970" lon="-106.491645890">
        <ele>2588.600</ele>
        <time>2019-07-14T23:30:55Z</time>
      </trkpt>
      <trkpt lat="35.837941250" lon="-106.491604810">
        <ele>2588.600</ele>
        <time>2019-07-14T23:30:56Z</time>
      </trkpt>
      <trkpt lat="35.837856630" lon="-106.491573910">
        <ele>2589.900</ele>
        <time>2019-07-14T23:30:57Z</time>
      </trkpt>
      <trkpt lat="35.837766530" lon="-106.491537220">
        <ele>2590.000</ele>
        <time>2019-07-14T23:30:58Z</time>
      </trkpt>
      <trkpt lat="35.837675880" lon="-106.491507790">
        <ele>2590.800</ele>
        <time>2019-07-14T23:30:59Z</time>
      </trkpt>
      <trkpt lat="35.837582050" lon="-106.491479660">
        <ele>2590.900</ele>
        <time>2019-07-14T23:31:00Z</time>
      </trkpt>
      <trkpt lat="35.837487850" lon="-106.491456830">
        <ele>2590.600</ele>
        <time>2019-07-14T23:31:01Z</time>
      </trkpt>
      <trkpt lat="35.837403920" lon="-106.491428860">
        <ele>2591.100</ele>
        <time>2019-07-14T23:31:02Z</time>
      </trkpt>
      <trkpt lat="35.837318540" lon="-106.491408880">
        <ele>2592.000</ele>
        <time>2019-07-14T23:31:03Z</time>
      </trkpt>
      <trkpt lat="35.837236170" lon="-106.491386640">
        <ele>2592.300</ele>
        <time>2019-07-14T23:31:04Z</time>
      </trkpt>
      <trkpt lat="35.837152320" lon="-106.491372050">
        <ele>2592.600</ele>
        <time>2019-07-14T23:31:05Z</time>
      </trkpt>
      <trkpt lat="35.837059910" lon="-106.491359390">
        <ele>2592.100</ele>
        <time>2019-07-14T23:31:06Z</time>
      </trkpt>
      <trkpt lat="35.836962260" lon="-106.491344240">
        <ele>2592.000</ele>
        <time>2019-07-14T23:31:07Z</time>
      </trkpt>
      <trkpt lat="35.836872230" lon="-106.491326730">
        <ele>2592.700</ele>
        <time>2019-07-14T23:31:08Z</time>
      </trkpt>
      <trkpt lat="35.836781950" lon="-106.491303080">
        <ele>2593.500</ele>
        <time>2019-07-14T23:31:09Z</time>
      </trkpt>
      <trkpt lat="35.836691750" lon="-106.491278380">
        <ele>2594.100</ele>
        <time>2019-07-14T23:31:10Z</time>
      </trkpt>
      <trkpt lat="35.836601070" lon="-106.491249550">
        <ele>2594.600</ele>
        <time>2019-07-14T23:31:11Z</time>
      </trkpt>
      <trkpt lat="35.836507660" lon="-106.491226160">
        <ele>2594.900</ele>
        <time>2019-07-14T23:31:12Z</time>
      </trkpt>
      <trkpt lat="35.836412150" lon="-106.491196270">
        <ele>2594.800</ele>
        <time>2019-07-14T23:31:13Z</time>
      </trkpt>
      <trkpt lat="35.836322870" lon="-106.491174450">
        <ele>2595.400</ele>
        <time>2019-07-14T23:31:14Z</time>
      </trkpt>
      <trkpt lat="35.836225300" lon="-106.491153860">
        <ele>2595.900</ele>
        <time>2019-07-14T23:31:15Z</time>
      </trkpt>
      <trkpt lat="35.836127210" lon="-106.491130320">
        <ele>2596.500</ele>
        <time>2019-07-14T23:31:16Z</time>
      </trkpt>
      <trkpt lat="35.836038910" lon="-106.491116870">
        <ele>2597.300</ele>
        <time>2019-07-14T23:31:17Z</time>
      </trkpt>
      <trkpt lat="35.835954970" lon="-106.491110870">
        <ele>2598.400</ele>
        <time>2019-07-14T23:31:18Z</time>
      </trkpt>
      <trkpt lat="35.835871650" lon="-106.491109520">
        <ele>2598.200</ele>
        <time>2019-07-14T23:31:19Z</time>
      </trkpt>
      <trkpt lat="35.835783810" lon="-106.491101190">
        <ele>2598.100</ele>
        <time>2019-07-14T23:31:20Z</time>
      </trkpt>
      <trkpt lat="35.835703540" lon="-106.491092470">
        <ele>2598.800</ele>
        <time>2019-07-14T23:31:21Z</time>
      </trkpt>
      <trkpt lat="35.835620610" lon="-106.491082120">
        <ele>2599.900</ele>
        <time>2019-07-14T23:31:22Z</time>
      </trkpt>
      <trkpt lat="35.835534790" lon="-106.491069240">
        <ele>2599.600</ele>
        <time>2019-07-14T23:31:23Z</time>
      </trkpt>
      <trkpt lat="35.835451910" lon="-106.491056060">
        <ele>2600.300</ele>
        <time>2019-07-14T23:31:24Z</time>
      </trkpt>
      <trkpt lat="35.835366030" lon="-106.491037500">
        <ele>2600.300</ele>
        <time>2019-07-14T23:31:25Z</time>
      </trkpt>
      <trkpt lat="35.835287780" lon="-106.491017710">
        <ele>2600.700</ele>
        <time>2019-07-14T23:31:26Z</time>
      </trkpt>
      <trkpt lat="35.835205960" lon="-106.490995440">
        <ele>2600.800</ele>
        <time>2019-07-14T23:31:27Z</time>
      </trkpt>
      <trkpt lat="35.835130180" lon="-106.490972660">
        <ele>2600.400</ele>
        <time>2019-07-14T23:31:28Z</time>
      </trkpt>
      <trkpt lat="35.835049060" lon="-106.490947090">
        <ele>2600.200</ele>
        <time>2019-07-14T23:31:29Z</time>
      </trkpt>
      <trkpt lat="35.834971490" lon="-106.490912440">
        <ele>2601.300</ele>
        <time>2019-07-14T23:31:30Z</time>
      </trkpt>
      <trkpt lat="35.834901680" lon="-106.490874190">
        <ele>2602.100</ele>
        <time>2019-07-14T23:31:31Z</time>
      </trkpt>
      <trkpt lat="35.834826970" lon="-106.490826620">
        <ele>2602.300</ele>
        <time>2019-07-14T23:31:32Z</time>
      </trkpt>
      <trkpt lat="35.834756260" lon="-106.490779250">
        <ele>2602.400</ele>
        <time>2019-07-14T23:31:33Z</time>
      </trkpt>
      <trkpt lat="35.834692640" lon="-106.490736910">
        <ele>2603.100</ele>
        <time>2019-07-14T23:31:34Z</time>
      </trkpt>
      <trkpt lat="35.834620120" lon="-106.490694520">
        <ele>2602.300</ele>
        <time>2019-07-14T23:31:35Z</time>
      </trkpt>
      <trkpt lat="35.834554420" lon="-106.490648820">
        <ele>2602.500</ele>
        <time>2019-07-14T23:31:36Z</time>
      </trkpt>
      <trkpt lat="35.834482190" lon="-106.490598870">
        <ele>2602.000</ele>
        <time>2019-07-14T23:31:37Z</time>
      </trkpt>
      <trkpt lat="35.834415240" lon="-106.490554470">
        <ele>2601.800</ele>
        <time>2019-07-14T23:31:38Z</time>
      </trkpt>
      <trkpt lat="35.834363710" lon="-106.490511930">
        <ele>2602.900</ele>
        <time>2019-07-14T23:31:39Z</time>
      </trkpt>
      <trkpt lat="35.834297130" lon="-106.490463300">
        <ele>2603.100</ele>
        <time>2019-07-14T23:31:40Z</time>
      </trkpt>
      <trkpt lat="35.834239770" lon="-106.490416970">
        <ele>2604.700</ele>
        <time>2019-07-14T23:31:41Z</time>
      </trkpt>
      <trkpt lat="35.834178860" lon="-106.490369530">
        <ele>2605.900</ele>
        <time>2019-07-14T23:31:42Z</time>
      </trkpt>
      <trkpt lat="35.834129250" lon="-106.490329950">
        <ele>2607.200</ele>
        <time>2019-07-14T23:31:43Z</time>
      </trkpt>
      <trkpt lat="35.834072040" lon="-106.490279450">
        <ele>2608.800</ele>
        <time>2019-07-14T23:31:44Z</time>
      </trkpt>
      <trkpt lat="35.834014690" lon="-106.490226450">
        <ele>2609.500</ele>
        <time>2019-07-14T23:31:45Z</time>
      </trkpt>
      <trkpt lat="35.833957240" lon="-106.490163280">
        <ele>2610.200</ele>
        <time>2019-07-14T23:31:46Z</time>
      </trkpt>
      <trkpt lat="35.833900510" lon="-106.490106980">
        <ele>2611.100</ele>
        <time>2019-07-14T23:31:47Z</time>
      </trkpt>
      <trkpt lat="35.833848740" lon="-106.490038980">
        <ele>2611.600</ele>
        <time>2019-07-14T23:31:48Z</time>
      </trkpt>
      <trkpt lat="35.833807350" lon="-106.489971780">
        <ele>2612.900</ele>
        <time>2019-07-14T23:31:49Z</time>
      </trkpt>
      <trkpt lat="35.833757480" lon="-106.489903710">
        <ele>2613.300</ele>
        <time>2019-07-14T23:31:50Z</time>
      </trkpt>
      <trkpt lat="35.833704070" lon="-106.489818310">
        <ele>2612.100</ele>
        <time>2019-07-14T23:31:51Z</time>
      </trkpt>
      <trkpt lat="35.833657500" lon="-106.489739640">
        <ele>2613.800</ele>
        <time>2019-07-14T23:31:52Z</time>
      </trkpt>
      <trkpt lat="35.833614260" lon="-106.489659530">
        <ele>2614.600</ele>
        <time>2019-07-14T23:31:53Z</time>
      </trkpt>
      <trkpt lat="35.833567160" lon="-106.489582470">
        <ele>2615.100</ele>
        <time>2019-07-14T23:31:54Z</time>
      </trkpt>
      <trkpt lat="35.833522260" lon="-106.489504740">
        <ele>2616.300</ele>
        <time>2019-07-14T23:31:55Z</time>
      </trkpt>
      <trkpt lat="35.833474900" lon="-106.489424990">
        <ele>2616.300</ele>
        <time>2019-07-14T23:31:56Z</time>
      </trkpt>
      <trkpt lat="35.833430890" lon="-106.489344540">
        <ele>2616.800</ele>
        <time>2019-07-14T23:31:57Z</time>
      </trkpt>
      <trkpt lat="35.833386750" lon="-106.489270300">
        <ele>2617.500</ele>
        <time>2019-07-14T23:31:58Z</time>
      </trkpt>
      <trkpt lat="35.833338160" lon="-106.489199090">
        <ele>2618.300</ele>
        <time>2019-07-14T23:31:59Z</time>
      </trkpt>
      <trkpt lat="35.833290400" lon="-106.489129340">
        <ele>2619.000</ele>
        <time>2019-07-14T23:32:00Z</time>
      </trkpt>
      <trkpt lat="35.833234660" lon="-106.489053600">
        <ele>2619.800</ele>
        <time>2019-07-14T23:32:01Z</time>
      </trkpt>
      <trkpt lat="35.833177670" lon="-106.488974840">
        <ele>2620.500</ele>
        <time>2019-07-14T23:32:02Z</time>
      </trkpt>
      <trkpt lat="35.833118380" lon="-106.488892940">
        <ele>2620.600</ele>
        <time>2019-07-14T23:32:03Z</time>
      </trkpt>
      <trkpt lat="35.833063430" lon="-106.488815270">
        <ele>2620.900</ele>
        <time>2019-07-14T23:32:04Z</time>
      </trkpt>
      <trkpt lat="35.833004520" lon="-106.488741690">
        <ele>2621.100</ele>
        <time>2019-07-14T23:32:05Z</time>
      </trkpt>
      <trkpt lat="35.832943650" lon="-106.488664630">
        <ele>2622.500</ele>
        <time>2019-07-14T23:32:06Z</time>
      </trkpt>
      <trkpt lat="35.832883870" lon="-106.488591990">
        <ele>2623.100</ele>
        <time>2019-07-14T23:32:07Z</time>
      </trkpt>
      <trkpt lat="35.832821600" lon="-106.488514210">
        <ele>2623.700</ele>
        <time>2019-07-14T23:32:08Z</time>
      </trkpt>
      <trkpt lat="35.832766580" lon="-106.488439020">
        <ele>2624.500</ele>
        <time>2019-07-14T23:32:09Z</time>
      </trkpt>
      <trkpt lat="35.832713330" lon="-106.488359830">
        <ele>2625.200</ele>
        <time>2019-07-14T23:32:10Z</time>
      </trkpt>
      <trkpt lat="35.832652590" lon="-106.488282730">
        <ele>2625.000</ele>
        <time>2019-07-14T23:32:11Z</time>
      </trkpt>
      <trkpt lat="35.832597410" lon="-106.488196540">
        <ele>2624.600</ele>
        <time>2019-07-14T23:32:12Z</time>
      </trkpt>
      <trkpt lat="35.832541000" lon="-106.488114320">
        <ele>2624.900</ele>
        <time>2019-07-14T23:32:13Z</time>
      </trkpt>
      <trkpt lat="35.832488450" lon="-106.488038220">
        <ele>2625.000</ele>
        <time>2019-07-14T23:32:14Z</time>
      </trkpt>
      <trkpt lat="35.832453890" lon="-106.487964150">
        <ele>2626.400</ele>
        <time>2019-07-14T23:32:15Z</time>
      </trkpt>
      <trkpt lat="35.832416280" lon="-106.487891220">
        <ele>2626.800</ele>
        <time>2019-07-14T23:32:16Z</time>
      </trkpt>
      <trkpt lat="35.832381660" lon="-106.487825550">
        <ele>2627.900</ele>
        <time>2019-07-14T23:32:17Z</time>
      </trkpt>
      <trkpt lat="35.832335330" lon="-106.487750340">
        <ele>2628.000</ele>
        <time>2019-07-14T23:32:18Z</time>
      </trkpt>
      <trkpt lat="35.832299490" lon="-106.487676360">
        <ele>2628.700</ele>
        <time>2019-07-14T23:32:19Z</time>
      </trkpt>
      <trkpt lat="35.832264220" lon="-106.487605830">
        <ele>2629.900</ele>
        <time>2019-07-14T23:32:20Z</time>
      </trkpt>
      <trkpt lat="35.832234280" lon="-106.487537210">
        <ele>2631.000</ele>
        <time>2019-07-14T23:32:21Z</time>
      </trkpt>
      <trkpt lat="35.832223270" lon="-106.487466090">
        <ele>2631.200</ele>
        <time>2019-07-14T23:32:22Z</time>
      </trkpt>
      <trkpt lat="35.832200740" lon="-106.487402620">
        <ele>2631.400</ele>
        <time>2019-07-14T23:32:23Z</time>
      </trkpt>
      <trkpt lat="35.832182860" lon="-106.487345760">
        <ele>2631.300</ele>
        <time>2019-07-14T23:32:24Z</time>
      </trkpt>
      <trkpt lat="35.832161740" lon="-106.487298600">
        <ele>2631.500</ele>
        <time>2019-07-14T23:32:25Z</time>
      </trkpt>
      <trkpt lat="35.832129510" lon="-106.487226850">
        <ele>2631.700</ele>
        <time>2019-07-14T23:32:27Z</time>
      </trkpt>
      <trkpt lat="35.832133050" lon="-106.487237310">
        <ele>2630.500</ele>
        <time>2019-07-14T23:32:39Z</time>
      </trkpt>
    </trkseg>
  </trk>
</gpx>
